<?xml version="1.0" encoding="UTF-8"?>
<gpx
  version="1.0"
  creator="GPSBabel - http://www.gpsbabel.org"
  xmlns:xsi="http://www.w3.org/2001/XMLSchema-instance"
  xmlns="http://www.topografix.com/GPX/1/0"
  xsi:schemaLocation="http://www.topografix.com/GPX/1/0 http://www.topografix.com/GPX/1/0/gpx.xsd">
<time>2011-07-29T11:45:28Z</time>
<bounds minlat="32.577095032" minlon="34.991790771" maxlat="32.597248077" maxlon="35.019912720"/>
<trk>
  <name>Holux2011/07/29_06:42</name>
<trkseg>
<trkpt lat="32.597248077" lon="35.003990173">
  <ele>93.006470</ele>
  <time>2011-07-29T03:42:53Z</time>
  <speed>0.240000</speed>
</trkpt>
<trkpt lat="32.597240448" lon="35.003959656">
  <ele>91.680298</ele>
  <time>2011-07-29T03:42:58Z</time>
  <speed>0.020000</speed>
</trkpt>
<trkpt lat="32.597217560" lon="35.003986359">
  <ele>91.334595</ele>
  <time>2011-07-29T03:43:17Z</time>
  <speed>1.030000</speed>
</trkpt>
<trkpt lat="32.597202301" lon="35.004028320">
  <ele>91.383423</ele>
  <time>2011-07-29T03:43:19Z</time>
  <speed>2.080000</speed>
</trkpt>
<trkpt lat="32.597179413" lon="35.004077911">
  <ele>91.004517</ele>
  <time>2011-07-29T03:43:21Z</time>
  <speed>2.840000</speed>
</trkpt>
<trkpt lat="32.597160339" lon="35.004100800">
  <ele>90.510376</ele>
  <time>2011-07-29T03:43:22Z</time>
  <speed>2.960000</speed>
</trkpt>
<trkpt lat="32.597137451" lon="35.004112244">
  <ele>90.125610</ele>
  <time>2011-07-29T03:43:23Z</time>
  <speed>2.890000</speed>
</trkpt>
<trkpt lat="32.597110748" lon="35.004123688">
  <ele>89.637329</ele>
  <time>2011-07-29T03:43:24Z</time>
  <speed>3.000000</speed>
</trkpt>
<trkpt lat="32.597084045" lon="35.004127502">
  <ele>89.190063</ele>
  <time>2011-07-29T03:43:25Z</time>
  <speed>3.060000</speed>
</trkpt>
<trkpt lat="32.597053528" lon="35.004127502">
  <ele>89.121704</ele>
  <time>2011-07-29T03:43:26Z</time>
  <speed>2.690000</speed>
</trkpt>
<trkpt lat="32.597023010" lon="35.004138947">
  <ele>89.039673</ele>
  <time>2011-07-29T03:43:27Z</time>
  <speed>2.570000</speed>
</trkpt>
<trkpt lat="32.596984863" lon="35.004138947">
  <ele>88.277954</ele>
  <time>2011-07-29T03:43:29Z</time>
  <speed>2.110000</speed>
</trkpt>
<trkpt lat="32.596946716" lon="35.004135132">
  <ele>88.289673</ele>
  <time>2011-07-29T03:43:31Z</time>
  <speed>2.180000</speed>
</trkpt>
<trkpt lat="32.596912384" lon="35.004138947">
  <ele>87.455688</ele>
  <time>2011-07-29T03:43:33Z</time>
  <speed>1.560000</speed>
</trkpt>
<trkpt lat="32.596874237" lon="35.004150391">
  <ele>86.361938</ele>
  <time>2011-07-29T03:43:35Z</time>
  <speed>2.500000</speed>
</trkpt>
<trkpt lat="32.596847534" lon="35.004161835">
  <ele>85.951782</ele>
  <time>2011-07-29T03:43:36Z</time>
  <speed>2.590000</speed>
</trkpt>
<trkpt lat="32.596813202" lon="35.004161835">
  <ele>86.393188</ele>
  <time>2011-07-29T03:43:37Z</time>
  <speed>3.050000</speed>
</trkpt>
<trkpt lat="32.596782684" lon="35.004161835">
  <ele>86.195923</ele>
  <time>2011-07-29T03:43:38Z</time>
  <speed>3.060000</speed>
</trkpt>
<trkpt lat="32.596740723" lon="35.004158020">
  <ele>86.063110</ele>
  <time>2011-07-29T03:43:39Z</time>
  <speed>3.710000</speed>
</trkpt>
<trkpt lat="32.596702576" lon="35.004161835">
  <ele>86.404907</ele>
  <time>2011-07-29T03:43:40Z</time>
  <speed>3.530000</speed>
</trkpt>
<trkpt lat="32.596664429" lon="35.004161835">
  <ele>86.430298</ele>
  <time>2011-07-29T03:43:41Z</time>
  <speed>3.330000</speed>
</trkpt>
<trkpt lat="32.596630096" lon="35.004158020">
  <ele>86.049438</ele>
  <time>2011-07-29T03:43:42Z</time>
  <speed>3.110000</speed>
</trkpt>
<trkpt lat="32.596599579" lon="35.004161835">
  <ele>86.617798</ele>
  <time>2011-07-29T03:43:43Z</time>
  <speed>3.000000</speed>
</trkpt>
<trkpt lat="32.596565247" lon="35.004169464">
  <ele>87.963501</ele>
  <time>2011-07-29T03:43:44Z</time>
  <speed>3.280000</speed>
</trkpt>
<trkpt lat="32.596538544" lon="35.004173279">
  <ele>88.195923</ele>
  <time>2011-07-29T03:43:45Z</time>
  <speed>3.360000</speed>
</trkpt>
<trkpt lat="32.596504211" lon="35.004177094">
  <ele>88.375610</ele>
  <time>2011-07-29T03:43:46Z</time>
  <speed>2.970000</speed>
</trkpt>
<trkpt lat="32.596473694" lon="35.004177094">
  <ele>88.660767</ele>
  <time>2011-07-29T03:43:47Z</time>
  <speed>3.080000</speed>
</trkpt>
<trkpt lat="32.596446991" lon="35.004177094">
  <ele>88.631470</ele>
  <time>2011-07-29T03:43:48Z</time>
  <speed>2.600000</speed>
</trkpt>
<trkpt lat="32.596416473" lon="35.004180908">
  <ele>89.090454</ele>
  <time>2011-07-29T03:43:49Z</time>
  <speed>2.930000</speed>
</trkpt>
<trkpt lat="32.596385956" lon="35.004180908">
  <ele>89.428345</ele>
  <time>2011-07-29T03:43:50Z</time>
  <speed>3.500000</speed>
</trkpt>
<trkpt lat="32.596351624" lon="35.004177094">
  <ele>90.553345</ele>
  <time>2011-07-29T03:43:51Z</time>
  <speed>3.690000</speed>
</trkpt>
<trkpt lat="32.596321106" lon="35.004180908">
  <ele>90.465454</ele>
  <time>2011-07-29T03:43:52Z</time>
  <speed>3.650000</speed>
</trkpt>
<trkpt lat="32.596286774" lon="35.004184723">
  <ele>90.133423</ele>
  <time>2011-07-29T03:43:53Z</time>
  <speed>3.650000</speed>
</trkpt>
<trkpt lat="32.596252441" lon="35.004188538">
  <ele>90.248657</ele>
  <time>2011-07-29T03:43:54Z</time>
  <speed>3.650000</speed>
</trkpt>
<trkpt lat="32.596225739" lon="35.004207611">
  <ele>90.707642</ele>
  <time>2011-07-29T03:43:55Z</time>
  <speed>3.190000</speed>
</trkpt>
<trkpt lat="32.596191406" lon="35.004226685">
  <ele>91.244751</ele>
  <time>2011-07-29T03:43:56Z</time>
  <speed>3.730000</speed>
</trkpt>
<trkpt lat="32.596153259" lon="35.004230499">
  <ele>90.971313</ele>
  <time>2011-07-29T03:43:57Z</time>
  <speed>4.050000</speed>
</trkpt>
<trkpt lat="32.596118927" lon="35.004241943">
  <ele>91.031860</ele>
  <time>2011-07-29T03:43:58Z</time>
  <speed>4.350000</speed>
</trkpt>
<trkpt lat="32.596069336" lon="35.004249573">
  <ele>90.867798</ele>
  <time>2011-07-29T03:43:59Z</time>
  <speed>5.130000</speed>
</trkpt>
<trkpt lat="32.596015930" lon="35.004253387">
  <ele>90.861938</ele>
  <time>2011-07-29T03:44:00Z</time>
  <speed>5.280000</speed>
</trkpt>
<trkpt lat="32.595951080" lon="35.004257202">
  <ele>90.236938</ele>
  <time>2011-07-29T03:44:01Z</time>
  <speed>5.810000</speed>
</trkpt>
<trkpt lat="32.595893860" lon="35.004264832">
  <ele>90.473267</ele>
  <time>2011-07-29T03:44:02Z</time>
  <speed>5.850000</speed>
</trkpt>
<trkpt lat="32.595832825" lon="35.004268646">
  <ele>90.649048</ele>
  <time>2011-07-29T03:44:03Z</time>
  <speed>6.420000</speed>
</trkpt>
<trkpt lat="32.595752716" lon="35.004272461">
  <ele>89.836548</ele>
  <time>2011-07-29T03:44:04Z</time>
  <speed>7.580000</speed>
</trkpt>
<trkpt lat="32.595672607" lon="35.004280090">
  <ele>90.203735</ele>
  <time>2011-07-29T03:44:05Z</time>
  <speed>7.680000</speed>
</trkpt>
<trkpt lat="32.595596313" lon="35.004291534">
  <ele>89.926392</ele>
  <time>2011-07-29T03:44:06Z</time>
  <speed>8.070000</speed>
</trkpt>
<trkpt lat="32.595520020" lon="35.004318237">
  <ele>90.289673</ele>
  <time>2011-07-29T03:44:07Z</time>
  <speed>7.830000</speed>
</trkpt>
<trkpt lat="32.595447540" lon="35.004325867">
  <ele>89.828735</ele>
  <time>2011-07-29T03:44:08Z</time>
  <speed>7.550000</speed>
</trkpt>
<trkpt lat="32.595375061" lon="35.004337311">
  <ele>89.238892</ele>
  <time>2011-07-29T03:44:09Z</time>
  <speed>8.200000</speed>
</trkpt>
<trkpt lat="32.595294952" lon="35.004348755">
  <ele>89.813110</ele>
  <time>2011-07-29T03:44:10Z</time>
  <speed>7.820000</speed>
</trkpt>
<trkpt lat="32.595222473" lon="35.004364014">
  <ele>88.502563</ele>
  <time>2011-07-29T03:44:11Z</time>
  <speed>7.970000</speed>
</trkpt>
<trkpt lat="32.595153809" lon="35.004375458">
  <ele>87.119751</ele>
  <time>2011-07-29T03:44:12Z</time>
  <speed>7.820000</speed>
</trkpt>
<trkpt lat="32.595085144" lon="35.004390717">
  <ele>86.402954</ele>
  <time>2011-07-29T03:44:13Z</time>
  <speed>7.950000</speed>
</trkpt>
<trkpt lat="32.595008850" lon="35.004405975">
  <ele>86.049438</ele>
  <time>2011-07-29T03:44:14Z</time>
  <speed>8.080000</speed>
</trkpt>
<trkpt lat="32.594947815" lon="35.004421234">
  <ele>84.076782</ele>
  <time>2011-07-29T03:44:15Z</time>
  <speed>5.940000</speed>
</trkpt>
<trkpt lat="32.594902039" lon="35.004440308">
  <ele>82.141235</ele>
  <time>2011-07-29T03:44:16Z</time>
  <speed>5.160000</speed>
</trkpt>
<trkpt lat="32.594863892" lon="35.004463196">
  <ele>82.059204</ele>
  <time>2011-07-29T03:44:17Z</time>
  <speed>4.760000</speed>
</trkpt>
<trkpt lat="32.594829559" lon="35.004482269">
  <ele>81.602173</ele>
  <time>2011-07-29T03:44:18Z</time>
  <speed>4.410000</speed>
</trkpt>
<trkpt lat="32.594791412" lon="35.004505157">
  <ele>81.526001</ele>
  <time>2011-07-29T03:44:19Z</time>
  <speed>4.850000</speed>
</trkpt>
<trkpt lat="32.594757080" lon="35.004535675">
  <ele>79.065063</ele>
  <time>2011-07-29T03:44:20Z</time>
  <speed>4.580000</speed>
</trkpt>
<trkpt lat="32.594726563" lon="35.004570007">
  <ele>78.649048</ele>
  <time>2011-07-29T03:44:21Z</time>
  <speed>3.850000</speed>
</trkpt>
<trkpt lat="32.594703674" lon="35.004596710">
  <ele>78.776001</ele>
  <time>2011-07-29T03:44:22Z</time>
  <speed>3.200000</speed>
</trkpt>
<trkpt lat="32.594676971" lon="35.004631042">
  <ele>79.022095</ele>
  <time>2011-07-29T03:44:23Z</time>
  <speed>3.570000</speed>
</trkpt>
<trkpt lat="32.594650269" lon="35.004653931">
  <ele>79.008423</ele>
  <time>2011-07-29T03:44:24Z</time>
  <speed>3.650000</speed>
</trkpt>
<trkpt lat="32.594623566" lon="35.004669189">
  <ele>78.820923</ele>
  <time>2011-07-29T03:44:25Z</time>
  <speed>3.770000</speed>
</trkpt>
<trkpt lat="32.594589233" lon="35.004676819">
  <ele>77.629517</ele>
  <time>2011-07-29T03:44:26Z</time>
  <speed>3.890000</speed>
</trkpt>
<trkpt lat="32.594547272" lon="35.004673004">
  <ele>77.494751</ele>
  <time>2011-07-29T03:44:27Z</time>
  <speed>4.960000</speed>
</trkpt>
<trkpt lat="32.594497681" lon="35.004665375">
  <ele>76.940063</ele>
  <time>2011-07-29T03:44:28Z</time>
  <speed>5.320000</speed>
</trkpt>
<trkpt lat="32.594448090" lon="35.004661560">
  <ele>75.838501</ele>
  <time>2011-07-29T03:44:29Z</time>
  <speed>5.630000</speed>
</trkpt>
<trkpt lat="32.594402313" lon="35.004661560">
  <ele>74.598267</ele>
  <time>2011-07-29T03:44:30Z</time>
  <speed>5.250000</speed>
</trkpt>
<trkpt lat="32.594348907" lon="35.004661560">
  <ele>74.973267</ele>
  <time>2011-07-29T03:44:31Z</time>
  <speed>5.160000</speed>
</trkpt>
<trkpt lat="32.594303131" lon="35.004646301">
  <ele>75.238892</ele>
  <time>2011-07-29T03:44:32Z</time>
  <speed>4.910000</speed>
</trkpt>
<trkpt lat="32.594261169" lon="35.004623413">
  <ele>74.074829</ele>
  <time>2011-07-29T03:44:33Z</time>
  <speed>4.860000</speed>
</trkpt>
<trkpt lat="32.594223022" lon="35.004604340">
  <ele>74.190063</ele>
  <time>2011-07-29T03:44:34Z</time>
  <speed>4.400000</speed>
</trkpt>
<trkpt lat="32.594184875" lon="35.004600525">
  <ele>72.151001</ele>
  <time>2011-07-29T03:44:35Z</time>
  <speed>3.800000</speed>
</trkpt>
<trkpt lat="32.594154358" lon="35.004608154">
  <ele>71.254517</ele>
  <time>2011-07-29T03:44:36Z</time>
  <speed>3.320000</speed>
</trkpt>
<trkpt lat="32.594123840" lon="35.004634857">
  <ele>70.834595</ele>
  <time>2011-07-29T03:44:37Z</time>
  <speed>4.010000</speed>
</trkpt>
<trkpt lat="32.594097137" lon="35.004669189">
  <ele>69.963501</ele>
  <time>2011-07-29T03:44:38Z</time>
  <speed>4.630000</speed>
</trkpt>
<trkpt lat="32.594074249" lon="35.004707336">
  <ele>69.154907</ele>
  <time>2011-07-29T03:44:39Z</time>
  <speed>4.060000</speed>
</trkpt>
<trkpt lat="32.594043732" lon="35.004734039">
  <ele>68.729126</ele>
  <time>2011-07-29T03:44:40Z</time>
  <speed>4.140000</speed>
</trkpt>
<trkpt lat="32.594005585" lon="35.004741669">
  <ele>68.244751</ele>
  <time>2011-07-29T03:44:41Z</time>
  <speed>4.900000</speed>
</trkpt>
<trkpt lat="32.593967438" lon="35.004734039">
  <ele>67.033813</ele>
  <time>2011-07-29T03:44:42Z</time>
  <speed>4.040000</speed>
</trkpt>
<trkpt lat="32.593933105" lon="35.004718781">
  <ele>66.129517</ele>
  <time>2011-07-29T03:44:43Z</time>
  <speed>4.130000</speed>
</trkpt>
<trkpt lat="32.593898773" lon="35.004707336">
  <ele>64.586548</ele>
  <time>2011-07-29T03:44:44Z</time>
  <speed>3.830000</speed>
</trkpt>
<trkpt lat="32.593860626" lon="35.004718781">
  <ele>63.682922</ele>
  <time>2011-07-29T03:44:45Z</time>
  <speed>4.430000</speed>
</trkpt>
<trkpt lat="32.593822479" lon="35.004745483">
  <ele>63.332336</ele>
  <time>2011-07-29T03:44:46Z</time>
  <speed>5.030000</speed>
</trkpt>
<trkpt lat="32.593772888" lon="35.004776001">
  <ele>62.879211</ele>
  <time>2011-07-29T03:44:47Z</time>
  <speed>6.110000</speed>
</trkpt>
<trkpt lat="32.593723297" lon="35.004806519">
  <ele>61.053040</ele>
  <time>2011-07-29T03:44:48Z</time>
  <speed>6.350000</speed>
</trkpt>
<trkpt lat="32.593669891" lon="35.004840851">
  <ele>61.160461</ele>
  <time>2011-07-29T03:44:49Z</time>
  <speed>6.540000</speed>
</trkpt>
<trkpt lat="32.593605042" lon="35.004867554">
  <ele>60.640930</ele>
  <time>2011-07-29T03:44:50Z</time>
  <speed>6.890000</speed>
</trkpt>
<trkpt lat="32.593544006" lon="35.004890442">
  <ele>59.799133</ele>
  <time>2011-07-29T03:44:51Z</time>
  <speed>6.810000</speed>
</trkpt>
<trkpt lat="32.593490601" lon="35.004913330">
  <ele>58.939758</ele>
  <time>2011-07-29T03:44:52Z</time>
  <speed>6.550000</speed>
</trkpt>
<trkpt lat="32.593433380" lon="35.004936218">
  <ele>58.577454</ele>
  <time>2011-07-29T03:44:53Z</time>
  <speed>6.510000</speed>
</trkpt>
<trkpt lat="32.593379974" lon="35.004962921">
  <ele>57.582336</ele>
  <time>2011-07-29T03:44:54Z</time>
  <speed>6.480000</speed>
</trkpt>
<trkpt lat="32.593326569" lon="35.004989624">
  <ele>57.013000</ele>
  <time>2011-07-29T03:44:55Z</time>
  <speed>6.160000</speed>
</trkpt>
<trkpt lat="32.593284607" lon="35.005020142">
  <ele>56.169250</ele>
  <time>2011-07-29T03:44:56Z</time>
  <speed>5.940000</speed>
</trkpt>
<trkpt lat="32.593231201" lon="35.005046844">
  <ele>55.429016</ele>
  <time>2011-07-29T03:44:57Z</time>
  <speed>5.980000</speed>
</trkpt>
<trkpt lat="32.593185425" lon="35.005073547">
  <ele>56.101868</ele>
  <time>2011-07-29T03:44:58Z</time>
  <speed>5.750000</speed>
</trkpt>
<trkpt lat="32.593132019" lon="35.005100250">
  <ele>56.386047</ele>
  <time>2011-07-29T03:44:59Z</time>
  <speed>5.790000</speed>
</trkpt>
<trkpt lat="32.593078613" lon="35.005119324">
  <ele>56.262024</ele>
  <time>2011-07-29T03:45:00Z</time>
  <speed>5.790000</speed>
</trkpt>
<trkpt lat="32.593025208" lon="35.005142212">
  <ele>56.413391</ele>
  <time>2011-07-29T03:45:01Z</time>
  <speed>6.140000</speed>
</trkpt>
<trkpt lat="32.592975616" lon="35.005168915">
  <ele>56.827454</ele>
  <time>2011-07-29T03:45:02Z</time>
  <speed>6.210000</speed>
</trkpt>
<trkpt lat="32.592926025" lon="35.005191803">
  <ele>56.336243</ele>
  <time>2011-07-29T03:45:03Z</time>
  <speed>5.810000</speed>
</trkpt>
<trkpt lat="32.592876434" lon="35.005222321">
  <ele>55.861633</ele>
  <time>2011-07-29T03:45:04Z</time>
  <speed>5.890000</speed>
</trkpt>
<trkpt lat="32.592830658" lon="35.005245209">
  <ele>56.061829</ele>
  <time>2011-07-29T03:45:05Z</time>
  <speed>5.860000</speed>
</trkpt>
<trkpt lat="32.592781067" lon="35.005275726">
  <ele>55.251282</ele>
  <time>2011-07-29T03:45:06Z</time>
  <speed>5.850000</speed>
</trkpt>
<trkpt lat="32.592735291" lon="35.005313873">
  <ele>55.073547</ele>
  <time>2011-07-29T03:45:07Z</time>
  <speed>5.810000</speed>
</trkpt>
<trkpt lat="32.592693329" lon="35.005352020">
  <ele>55.072571</ele>
  <time>2011-07-29T03:45:08Z</time>
  <speed>5.680000</speed>
</trkpt>
<trkpt lat="32.592643738" lon="35.005382538">
  <ele>54.568665</ele>
  <time>2011-07-29T03:45:09Z</time>
  <speed>6.460000</speed>
</trkpt>
<trkpt lat="32.592586517" lon="35.005416870">
  <ele>54.383118</ele>
  <time>2011-07-29T03:45:10Z</time>
  <speed>7.040000</speed>
</trkpt>
<trkpt lat="32.592521667" lon="35.005443573">
  <ele>54.040344</ele>
  <time>2011-07-29T03:45:11Z</time>
  <speed>6.180000</speed>
</trkpt>
<trkpt lat="32.592472076" lon="35.005470276">
  <ele>53.471008</ele>
  <time>2011-07-29T03:45:12Z</time>
  <speed>5.940000</speed>
</trkpt>
<trkpt lat="32.592426300" lon="35.005489349">
  <ele>53.405579</ele>
  <time>2011-07-29T03:45:13Z</time>
  <speed>5.490000</speed>
</trkpt>
<trkpt lat="32.592376709" lon="35.005512238">
  <ele>52.996399</ele>
  <time>2011-07-29T03:45:14Z</time>
  <speed>5.840000</speed>
</trkpt>
<trkpt lat="32.592330933" lon="35.005523682">
  <ele>52.938782</ele>
  <time>2011-07-29T03:45:15Z</time>
  <speed>4.760000</speed>
</trkpt>
<trkpt lat="32.592296600" lon="35.005546570">
  <ele>52.323547</ele>
  <time>2011-07-29T03:45:16Z</time>
  <speed>4.850000</speed>
</trkpt>
<trkpt lat="32.592258453" lon="35.005565643">
  <ele>53.112610</ele>
  <time>2011-07-29T03:45:17Z</time>
  <speed>4.480000</speed>
</trkpt>
<trkpt lat="32.592220306" lon="35.005565643">
  <ele>52.980774</ele>
  <time>2011-07-29T03:45:18Z</time>
  <speed>4.410000</speed>
</trkpt>
<trkpt lat="32.592182159" lon="35.005573273">
  <ele>53.294250</ele>
  <time>2011-07-29T03:45:19Z</time>
  <speed>4.080000</speed>
</trkpt>
<trkpt lat="32.592144012" lon="35.005580902">
  <ele>53.500305</ele>
  <time>2011-07-29T03:45:20Z</time>
  <speed>4.000000</speed>
</trkpt>
<trkpt lat="32.592102051" lon="35.005588531">
  <ele>53.533508</ele>
  <time>2011-07-29T03:45:21Z</time>
  <speed>4.180000</speed>
</trkpt>
<trkpt lat="32.592063904" lon="35.005592346">
  <ele>53.109680</ele>
  <time>2011-07-29T03:45:22Z</time>
  <speed>4.120000</speed>
</trkpt>
<trkpt lat="32.592029572" lon="35.005596161">
  <ele>52.824524</ele>
  <time>2011-07-29T03:45:23Z</time>
  <speed>4.230000</speed>
</trkpt>
<trkpt lat="32.591991425" lon="35.005599976">
  <ele>52.892883</ele>
  <time>2011-07-29T03:45:24Z</time>
  <speed>3.980000</speed>
</trkpt>
<trkpt lat="32.591957092" lon="35.005599976">
  <ele>52.599915</ele>
  <time>2011-07-29T03:45:25Z</time>
  <speed>4.040000</speed>
</trkpt>
<trkpt lat="32.591918945" lon="35.005607605">
  <ele>52.935852</ele>
  <time>2011-07-29T03:45:26Z</time>
  <speed>3.840000</speed>
</trkpt>
<trkpt lat="32.591873169" lon="35.005615234">
  <ele>53.011047</ele>
  <time>2011-07-29T03:45:27Z</time>
  <speed>4.810000</speed>
</trkpt>
<trkpt lat="32.591823578" lon="35.005630493">
  <ele>53.417297</ele>
  <time>2011-07-29T03:45:28Z</time>
  <speed>5.500000</speed>
</trkpt>
<trkpt lat="32.591781616" lon="35.005657196">
  <ele>52.690735</ele>
  <time>2011-07-29T03:45:29Z</time>
  <speed>5.080000</speed>
</trkpt>
<trkpt lat="32.591751099" lon="35.005702972">
  <ele>52.691711</ele>
  <time>2011-07-29T03:45:30Z</time>
  <speed>4.690000</speed>
</trkpt>
<trkpt lat="32.591747284" lon="35.005756378">
  <ele>52.509094</ele>
  <time>2011-07-29T03:45:31Z</time>
  <speed>3.880000</speed>
</trkpt>
<trkpt lat="32.591754913" lon="35.005809784">
  <ele>53.581360</ele>
  <time>2011-07-29T03:45:32Z</time>
  <speed>3.950000</speed>
</trkpt>
<trkpt lat="32.591766357" lon="35.005855560">
  <ele>54.050110</ele>
  <time>2011-07-29T03:45:33Z</time>
  <speed>3.840000</speed>
</trkpt>
<trkpt lat="32.591777802" lon="35.005901337">
  <ele>54.325500</ele>
  <time>2011-07-29T03:45:34Z</time>
  <speed>3.950000</speed>
</trkpt>
<trkpt lat="32.591789246" lon="35.005947113">
  <ele>55.308899</ele>
  <time>2011-07-29T03:45:35Z</time>
  <speed>3.760000</speed>
</trkpt>
<trkpt lat="32.591796875" lon="35.005992889">
  <ele>56.113586</ele>
  <time>2011-07-29T03:45:36Z</time>
  <speed>3.680000</speed>
</trkpt>
<trkpt lat="32.591808319" lon="35.006034851">
  <ele>56.439758</ele>
  <time>2011-07-29T03:45:37Z</time>
  <speed>3.670000</speed>
</trkpt>
<trkpt lat="32.591804504" lon="35.006072998">
  <ele>56.653625</ele>
  <time>2011-07-29T03:45:38Z</time>
  <speed>3.780000</speed>
</trkpt>
<trkpt lat="32.591796875" lon="35.006111145">
  <ele>56.890930</ele>
  <time>2011-07-29T03:45:39Z</time>
  <speed>3.630000</speed>
</trkpt>
<trkpt lat="32.591781616" lon="35.006149292">
  <ele>56.816711</ele>
  <time>2011-07-29T03:45:40Z</time>
  <speed>3.830000</speed>
</trkpt>
<trkpt lat="32.591762543" lon="35.006183624">
  <ele>56.747375</ele>
  <time>2011-07-29T03:45:41Z</time>
  <speed>3.680000</speed>
</trkpt>
<trkpt lat="32.591739655" lon="35.006214142">
  <ele>56.494446</ele>
  <time>2011-07-29T03:45:42Z</time>
  <speed>3.620000</speed>
</trkpt>
<trkpt lat="32.591716766" lon="35.006237030">
  <ele>56.896790</ele>
  <time>2011-07-29T03:45:43Z</time>
  <speed>3.560000</speed>
</trkpt>
<trkpt lat="32.591697693" lon="35.006267548">
  <ele>56.865540</ele>
  <time>2011-07-29T03:45:44Z</time>
  <speed>3.390000</speed>
</trkpt>
<trkpt lat="32.591670990" lon="35.006290436">
  <ele>57.008118</ele>
  <time>2011-07-29T03:45:45Z</time>
  <speed>3.400000</speed>
</trkpt>
<trkpt lat="32.591644287" lon="35.006305695">
  <ele>57.049133</ele>
  <time>2011-07-29T03:45:46Z</time>
  <speed>3.210000</speed>
</trkpt>
<trkpt lat="32.591617584" lon="35.006324768">
  <ele>57.510071</ele>
  <time>2011-07-29T03:45:47Z</time>
  <speed>3.520000</speed>
</trkpt>
<trkpt lat="32.591590881" lon="35.006343842">
  <ele>57.610657</ele>
  <time>2011-07-29T03:45:48Z</time>
  <speed>3.540000</speed>
</trkpt>
<trkpt lat="32.591564178" lon="35.006362915">
  <ele>57.772766</ele>
  <time>2011-07-29T03:45:49Z</time>
  <speed>3.670000</speed>
</trkpt>
<trkpt lat="32.591537476" lon="35.006385803">
  <ele>57.567688</ele>
  <time>2011-07-29T03:45:50Z</time>
  <speed>3.730000</speed>
</trkpt>
<trkpt lat="32.591510773" lon="35.006404877">
  <ele>57.685852</ele>
  <time>2011-07-29T03:45:51Z</time>
  <speed>3.630000</speed>
</trkpt>
<trkpt lat="32.591480255" lon="35.006423950">
  <ele>58.027649</ele>
  <time>2011-07-29T03:45:52Z</time>
  <speed>3.500000</speed>
</trkpt>
<trkpt lat="32.591457367" lon="35.006446838">
  <ele>58.054993</ele>
  <time>2011-07-29T03:45:53Z</time>
  <speed>3.570000</speed>
</trkpt>
<trkpt lat="32.591426849" lon="35.006465912">
  <ele>58.568665</ele>
  <time>2011-07-29T03:45:54Z</time>
  <speed>3.530000</speed>
</trkpt>
<trkpt lat="32.591396332" lon="35.006484985">
  <ele>58.314758</ele>
  <time>2011-07-29T03:45:55Z</time>
  <speed>3.760000</speed>
</trkpt>
<trkpt lat="32.591369629" lon="35.006507874">
  <ele>58.456360</ele>
  <time>2011-07-29T03:45:56Z</time>
  <speed>3.800000</speed>
</trkpt>
<trkpt lat="32.591342926" lon="35.006534576">
  <ele>58.535461</ele>
  <time>2011-07-29T03:45:57Z</time>
  <speed>3.660000</speed>
</trkpt>
<trkpt lat="32.591316223" lon="35.006557465">
  <ele>59.051086</ele>
  <time>2011-07-29T03:45:58Z</time>
  <speed>3.690000</speed>
</trkpt>
<trkpt lat="32.591289520" lon="35.006580353">
  <ele>59.191711</ele>
  <time>2011-07-29T03:45:59Z</time>
  <speed>3.800000</speed>
</trkpt>
<trkpt lat="32.591259003" lon="35.006607056">
  <ele>59.352844</ele>
  <time>2011-07-29T03:46:00Z</time>
  <speed>3.780000</speed>
</trkpt>
<trkpt lat="32.591228485" lon="35.006629944">
  <ele>59.897766</ele>
  <time>2011-07-29T03:46:01Z</time>
  <speed>3.800000</speed>
</trkpt>
<trkpt lat="32.591209412" lon="35.006664276">
  <ele>60.390930</ele>
  <time>2011-07-29T03:46:02Z</time>
  <speed>3.820000</speed>
</trkpt>
<trkpt lat="32.591182709" lon="35.006687164">
  <ele>60.471985</ele>
  <time>2011-07-29T03:46:03Z</time>
  <speed>3.620000</speed>
</trkpt>
<trkpt lat="32.591159821" lon="35.006713867">
  <ele>60.444641</ele>
  <time>2011-07-29T03:46:04Z</time>
  <speed>3.500000</speed>
</trkpt>
<trkpt lat="32.591133118" lon="35.006736755">
  <ele>60.834290</ele>
  <time>2011-07-29T03:46:05Z</time>
  <speed>3.510000</speed>
</trkpt>
<trkpt lat="32.591106415" lon="35.006755829">
  <ele>61.009094</ele>
  <time>2011-07-29T03:46:06Z</time>
  <speed>3.430000</speed>
</trkpt>
<trkpt lat="32.591075897" lon="35.006774902">
  <ele>61.395813</ele>
  <time>2011-07-29T03:46:07Z</time>
  <speed>3.310000</speed>
</trkpt>
<trkpt lat="32.591030121" lon="35.006813049">
  <ele>62.075500</ele>
  <time>2011-07-29T03:46:09Z</time>
  <speed>3.190000</speed>
</trkpt>
<trkpt lat="32.590988159" lon="35.006835938">
  <ele>62.833313</ele>
  <time>2011-07-29T03:46:11Z</time>
  <speed>2.960000</speed>
</trkpt>
<trkpt lat="32.590957642" lon="35.006843567">
  <ele>63.369446</ele>
  <time>2011-07-29T03:46:12Z</time>
  <speed>3.410000</speed>
</trkpt>
<trkpt lat="32.590923309" lon="35.006835938">
  <ele>63.901672</ele>
  <time>2011-07-29T03:46:13Z</time>
  <speed>3.030000</speed>
</trkpt>
<trkpt lat="32.590900421" lon="35.006816864">
  <ele>63.969055</ele>
  <time>2011-07-29T03:46:14Z</time>
  <speed>2.650000</speed>
</trkpt>
<trkpt lat="32.590881348" lon="35.006767273">
  <ele>62.222961</ele>
  <time>2011-07-29T03:46:16Z</time>
  <speed>2.620000</speed>
</trkpt>
<trkpt lat="32.590885162" lon="35.006729126">
  <ele>62.147766</ele>
  <time>2011-07-29T03:46:17Z</time>
  <speed>3.100000</speed>
</trkpt>
<trkpt lat="32.590877533" lon="35.006690979">
  <ele>62.354797</ele>
  <time>2011-07-29T03:46:18Z</time>
  <speed>3.280000</speed>
</trkpt>
<trkpt lat="32.590873718" lon="35.006652832">
  <ele>62.687805</ele>
  <time>2011-07-29T03:46:19Z</time>
  <speed>3.190000</speed>
</trkpt>
<trkpt lat="32.590869904" lon="35.006618500">
  <ele>62.084290</ele>
  <time>2011-07-29T03:46:20Z</time>
  <speed>3.440000</speed>
</trkpt>
<trkpt lat="32.590862274" lon="35.006584167">
  <ele>61.669250</ele>
  <time>2011-07-29T03:46:21Z</time>
  <speed>3.330000</speed>
</trkpt>
<trkpt lat="32.590858459" lon="35.006546021">
  <ele>61.320618</ele>
  <time>2011-07-29T03:46:22Z</time>
  <speed>3.290000</speed>
</trkpt>
<trkpt lat="32.590858459" lon="35.006500244">
  <ele>60.916321</ele>
  <time>2011-07-29T03:46:23Z</time>
  <speed>3.200000</speed>
</trkpt>
<trkpt lat="32.590854645" lon="35.006462097">
  <ele>60.510071</ele>
  <time>2011-07-29T03:46:24Z</time>
  <speed>3.360000</speed>
</trkpt>
<trkpt lat="32.590854645" lon="35.006420135">
  <ele>61.054016</ele>
  <time>2011-07-29T03:46:25Z</time>
  <speed>3.600000</speed>
</trkpt>
<trkpt lat="32.590847015" lon="35.006378174">
  <ele>61.471985</ele>
  <time>2011-07-29T03:46:26Z</time>
  <speed>3.390000</speed>
</trkpt>
<trkpt lat="32.590843201" lon="35.006343842">
  <ele>61.720032</ele>
  <time>2011-07-29T03:46:27Z</time>
  <speed>3.470000</speed>
</trkpt>
<trkpt lat="32.590831757" lon="35.006305695">
  <ele>61.122375</ele>
  <time>2011-07-29T03:46:28Z</time>
  <speed>3.390000</speed>
</trkpt>
<trkpt lat="32.590824127" lon="35.006267548">
  <ele>60.588196</ele>
  <time>2011-07-29T03:46:29Z</time>
  <speed>3.400000</speed>
</trkpt>
<trkpt lat="32.590812683" lon="35.006233215">
  <ele>60.318665</ele>
  <time>2011-07-29T03:46:30Z</time>
  <speed>3.270000</speed>
</trkpt>
<trkpt lat="32.590805054" lon="35.006191254">
  <ele>59.987610</ele>
  <time>2011-07-29T03:46:31Z</time>
  <speed>3.530000</speed>
</trkpt>
<trkpt lat="32.590797424" lon="35.006149292">
  <ele>59.428040</ele>
  <time>2011-07-29T03:46:32Z</time>
  <speed>3.130000</speed>
</trkpt>
<trkpt lat="32.590789795" lon="35.006114960">
  <ele>59.073547</ele>
  <time>2011-07-29T03:46:33Z</time>
  <speed>3.280000</speed>
</trkpt>
<trkpt lat="32.590782166" lon="35.006069183">
  <ele>58.874329</ele>
  <time>2011-07-29T03:46:34Z</time>
  <speed>3.710000</speed>
</trkpt>
<trkpt lat="32.590770721" lon="35.006031036">
  <ele>58.900696</ele>
  <time>2011-07-29T03:46:35Z</time>
  <speed>3.590000</speed>
</trkpt>
<trkpt lat="32.590763092" lon="35.005989075">
  <ele>58.716125</ele>
  <time>2011-07-29T03:46:36Z</time>
  <speed>3.300000</speed>
</trkpt>
<trkpt lat="32.590744019" lon="35.005958557">
  <ele>58.390930</ele>
  <time>2011-07-29T03:46:37Z</time>
  <speed>3.400000</speed>
</trkpt>
<trkpt lat="32.590740204" lon="35.005920410">
  <ele>58.328430</ele>
  <time>2011-07-29T03:46:38Z</time>
  <speed>3.180000</speed>
</trkpt>
<trkpt lat="32.590732574" lon="35.005886078">
  <ele>58.283508</ele>
  <time>2011-07-29T03:46:39Z</time>
  <speed>3.110000</speed>
</trkpt>
<trkpt lat="32.590728760" lon="35.005844116">
  <ele>57.428040</ele>
  <time>2011-07-29T03:46:40Z</time>
  <speed>3.120000</speed>
</trkpt>
<trkpt lat="32.590724945" lon="35.005805969">
  <ele>57.377258</ele>
  <time>2011-07-29T03:46:41Z</time>
  <speed>3.290000</speed>
</trkpt>
<trkpt lat="32.590724945" lon="35.005767822">
  <ele>57.249329</ele>
  <time>2011-07-29T03:46:42Z</time>
  <speed>3.280000</speed>
</trkpt>
<trkpt lat="32.590721130" lon="35.005733490">
  <ele>56.708313</ele>
  <time>2011-07-29T03:46:43Z</time>
  <speed>3.220000</speed>
</trkpt>
<trkpt lat="32.590713501" lon="35.005699158">
  <ele>56.704407</ele>
  <time>2011-07-29T03:46:44Z</time>
  <speed>2.650000</speed>
</trkpt>
<trkpt lat="32.590717316" lon="35.005661011">
  <ele>56.257141</ele>
  <time>2011-07-29T03:46:45Z</time>
  <speed>3.400000</speed>
</trkpt>
<trkpt lat="32.590713501" lon="35.005626678">
  <ele>55.971985</ele>
  <time>2011-07-29T03:46:46Z</time>
  <speed>3.010000</speed>
</trkpt>
<trkpt lat="32.590705872" lon="35.005580902">
  <ele>55.540344</ele>
  <time>2011-07-29T03:46:47Z</time>
  <speed>3.290000</speed>
</trkpt>
<trkpt lat="32.590698242" lon="35.005538940">
  <ele>55.404602</ele>
  <time>2011-07-29T03:46:48Z</time>
  <speed>3.380000</speed>
</trkpt>
<trkpt lat="32.590690613" lon="35.005500793">
  <ele>54.903625</ele>
  <time>2011-07-29T03:46:49Z</time>
  <speed>3.410000</speed>
</trkpt>
<trkpt lat="32.590675354" lon="35.005462646">
  <ele>54.612610</ele>
  <time>2011-07-29T03:46:50Z</time>
  <speed>3.150000</speed>
</trkpt>
<trkpt lat="32.590671539" lon="35.005432129">
  <ele>54.268860</ele>
  <time>2011-07-29T03:46:51Z</time>
  <speed>2.430000</speed>
</trkpt>
<trkpt lat="32.590652466" lon="35.005355835">
  <ele>53.427063</ele>
  <time>2011-07-29T03:46:53Z</time>
  <speed>3.170000</speed>
</trkpt>
<trkpt lat="32.590652466" lon="35.005317688">
  <ele>53.797180</ele>
  <time>2011-07-29T03:46:54Z</time>
  <speed>2.770000</speed>
</trkpt>
<trkpt lat="32.590648651" lon="35.005275726">
  <ele>53.151672</ele>
  <time>2011-07-29T03:46:55Z</time>
  <speed>3.120000</speed>
</trkpt>
<trkpt lat="32.590648651" lon="35.005226135">
  <ele>52.144836</ele>
  <time>2011-07-29T03:46:56Z</time>
  <speed>3.320000</speed>
</trkpt>
<trkpt lat="32.590644836" lon="35.005191803">
  <ele>52.179016</ele>
  <time>2011-07-29T03:46:57Z</time>
  <speed>3.110000</speed>
</trkpt>
<trkpt lat="32.590641022" lon="35.005153656">
  <ele>51.990540</ele>
  <time>2011-07-29T03:46:58Z</time>
  <speed>3.700000</speed>
</trkpt>
<trkpt lat="32.590637207" lon="35.005107880">
  <ele>51.842102</ele>
  <time>2011-07-29T03:46:59Z</time>
  <speed>3.720000</speed>
</trkpt>
<trkpt lat="32.590637207" lon="35.005062103">
  <ele>51.692688</ele>
  <time>2011-07-29T03:47:00Z</time>
  <speed>3.780000</speed>
</trkpt>
<trkpt lat="32.590637207" lon="35.005012512">
  <ele>51.884094</ele>
  <time>2011-07-29T03:47:01Z</time>
  <speed>3.910000</speed>
</trkpt>
<trkpt lat="32.590641022" lon="35.004951477">
  <ele>52.143860</ele>
  <time>2011-07-29T03:47:02Z</time>
  <speed>3.890000</speed>
</trkpt>
<trkpt lat="32.590637207" lon="35.004901886">
  <ele>52.206360</ele>
  <time>2011-07-29T03:47:03Z</time>
  <speed>4.080000</speed>
</trkpt>
<trkpt lat="32.590637207" lon="35.004859924">
  <ele>51.880188</ele>
  <time>2011-07-29T03:47:04Z</time>
  <speed>4.000000</speed>
</trkpt>
<trkpt lat="32.590641022" lon="35.004814148">
  <ele>51.532532</ele>
  <time>2011-07-29T03:47:05Z</time>
  <speed>4.380000</speed>
</trkpt>
<trkpt lat="32.590644836" lon="35.004745483">
  <ele>52.453430</ele>
  <time>2011-07-29T03:47:06Z</time>
  <speed>4.460000</speed>
</trkpt>
<trkpt lat="32.590652466" lon="35.004680634">
  <ele>52.932922</ele>
  <time>2011-07-29T03:47:07Z</time>
  <speed>4.920000</speed>
</trkpt>
<trkpt lat="32.590652466" lon="35.004631042">
  <ele>52.542297</ele>
  <time>2011-07-29T03:47:08Z</time>
  <speed>4.400000</speed>
</trkpt>
<trkpt lat="32.590652466" lon="35.004570007">
  <ele>52.632141</ele>
  <time>2011-07-29T03:47:09Z</time>
  <speed>4.400000</speed>
</trkpt>
<trkpt lat="32.590656281" lon="35.004520416">
  <ele>52.757141</ele>
  <time>2011-07-29T03:47:10Z</time>
  <speed>4.480000</speed>
</trkpt>
<trkpt lat="32.590648651" lon="35.004478455">
  <ele>52.923157</ele>
  <time>2011-07-29T03:47:11Z</time>
  <speed>3.760000</speed>
</trkpt>
<trkpt lat="32.590648651" lon="35.004436493">
  <ele>52.750305</ele>
  <time>2011-07-29T03:47:12Z</time>
  <speed>3.860000</speed>
</trkpt>
<trkpt lat="32.590652466" lon="35.004398346">
  <ele>52.489563</ele>
  <time>2011-07-29T03:47:13Z</time>
  <speed>3.850000</speed>
</trkpt>
<trkpt lat="32.590660095" lon="35.004352570">
  <ele>52.796204</ele>
  <time>2011-07-29T03:47:14Z</time>
  <speed>4.420000</speed>
</trkpt>
<trkpt lat="32.590656281" lon="35.004302979">
  <ele>52.549133</ele>
  <time>2011-07-29T03:47:15Z</time>
  <speed>4.410000</speed>
</trkpt>
<trkpt lat="32.590652466" lon="35.004253387">
  <ele>52.711243</ele>
  <time>2011-07-29T03:47:16Z</time>
  <speed>4.460000</speed>
</trkpt>
<trkpt lat="32.590648651" lon="35.004207611">
  <ele>52.569641</ele>
  <time>2011-07-29T03:47:17Z</time>
  <speed>4.250000</speed>
</trkpt>
<trkpt lat="32.590648651" lon="35.004161835">
  <ele>52.410461</ele>
  <time>2011-07-29T03:47:18Z</time>
  <speed>3.930000</speed>
</trkpt>
<trkpt lat="32.590644836" lon="35.004123688">
  <ele>52.304016</ele>
  <time>2011-07-29T03:47:19Z</time>
  <speed>4.190000</speed>
</trkpt>
<trkpt lat="32.590641022" lon="35.004074097">
  <ele>52.070618</ele>
  <time>2011-07-29T03:47:20Z</time>
  <speed>4.840000</speed>
</trkpt>
<trkpt lat="32.590641022" lon="35.004013062">
  <ele>52.324524</ele>
  <time>2011-07-29T03:47:21Z</time>
  <speed>5.280000</speed>
</trkpt>
<trkpt lat="32.590641022" lon="35.003955841">
  <ele>52.291321</ele>
  <time>2011-07-29T03:47:22Z</time>
  <speed>5.210000</speed>
</trkpt>
<trkpt lat="32.590641022" lon="35.003902435">
  <ele>51.757141</ele>
  <time>2011-07-29T03:47:23Z</time>
  <speed>5.160000</speed>
</trkpt>
<trkpt lat="32.590641022" lon="35.003841400">
  <ele>50.788391</ele>
  <time>2011-07-29T03:47:24Z</time>
  <speed>5.210000</speed>
</trkpt>
<trkpt lat="32.590641022" lon="35.003784180">
  <ele>50.556946</ele>
  <time>2011-07-29T03:47:25Z</time>
  <speed>5.180000</speed>
</trkpt>
<trkpt lat="32.590633392" lon="35.003726959">
  <ele>50.320618</ele>
  <time>2011-07-29T03:47:26Z</time>
  <speed>5.390000</speed>
</trkpt>
<trkpt lat="32.590621948" lon="35.003673553">
  <ele>49.715149</ele>
  <time>2011-07-29T03:47:27Z</time>
  <speed>5.460000</speed>
</trkpt>
<trkpt lat="32.590610504" lon="35.003620148">
  <ele>49.698547</ele>
  <time>2011-07-29T03:47:28Z</time>
  <speed>5.170000</speed>
</trkpt>
<trkpt lat="32.590595245" lon="35.003562927">
  <ele>49.712219</ele>
  <time>2011-07-29T03:47:29Z</time>
  <speed>5.180000</speed>
</trkpt>
<trkpt lat="32.590576172" lon="35.003509521">
  <ele>49.647766</ele>
  <time>2011-07-29T03:47:30Z</time>
  <speed>5.340000</speed>
</trkpt>
<trkpt lat="32.590557098" lon="35.003452301">
  <ele>48.807922</ele>
  <time>2011-07-29T03:47:31Z</time>
  <speed>5.370000</speed>
</trkpt>
<trkpt lat="32.590545654" lon="35.003398895">
  <ele>48.605774</ele>
  <time>2011-07-29T03:47:32Z</time>
  <speed>5.430000</speed>
</trkpt>
<trkpt lat="32.590530396" lon="35.003349304">
  <ele>47.622375</ele>
  <time>2011-07-29T03:47:33Z</time>
  <speed>4.720000</speed>
</trkpt>
<trkpt lat="32.590515137" lon="35.003303528">
  <ele>47.456360</ele>
  <time>2011-07-29T03:47:34Z</time>
  <speed>4.230000</speed>
</trkpt>
<trkpt lat="32.590499878" lon="35.003253937">
  <ele>46.703430</ele>
  <time>2011-07-29T03:47:35Z</time>
  <speed>4.610000</speed>
</trkpt>
<trkpt lat="32.590488434" lon="35.003200531">
  <ele>47.005188</ele>
  <time>2011-07-29T03:47:36Z</time>
  <speed>4.670000</speed>
</trkpt>
<trkpt lat="32.590480804" lon="35.003154755">
  <ele>46.446594</ele>
  <time>2011-07-29T03:47:37Z</time>
  <speed>4.630000</speed>
</trkpt>
<trkpt lat="32.590473175" lon="35.003105164">
  <ele>46.191711</ele>
  <time>2011-07-29T03:47:38Z</time>
  <speed>4.660000</speed>
</trkpt>
<trkpt lat="32.590465546" lon="35.003021240">
  <ele>46.088196</ele>
  <time>2011-07-29T03:47:39Z</time>
  <speed>4.990000</speed>
</trkpt>
<trkpt lat="32.590457916" lon="35.002952576">
  <ele>45.887024</ele>
  <time>2011-07-29T03:47:40Z</time>
  <speed>4.830000</speed>
</trkpt>
<trkpt lat="32.590454102" lon="35.002902985">
  <ele>46.845032</ele>
  <time>2011-07-29T03:47:41Z</time>
  <speed>4.430000</speed>
</trkpt>
<trkpt lat="32.590446472" lon="35.002857208">
  <ele>46.254211</ele>
  <time>2011-07-29T03:47:42Z</time>
  <speed>4.230000</speed>
</trkpt>
<trkpt lat="32.590438843" lon="35.002807617">
  <ele>46.267883</ele>
  <time>2011-07-29T03:47:43Z</time>
  <speed>4.440000</speed>
</trkpt>
<trkpt lat="32.590431213" lon="35.002761841">
  <ele>45.810852</ele>
  <time>2011-07-29T03:47:44Z</time>
  <speed>4.450000</speed>
</trkpt>
<trkpt lat="32.590431213" lon="35.002716064">
  <ele>45.654602</ele>
  <time>2011-07-29T03:47:45Z</time>
  <speed>4.380000</speed>
</trkpt>
<trkpt lat="32.590431213" lon="35.002674103">
  <ele>45.128235</ele>
  <time>2011-07-29T03:47:46Z</time>
  <speed>3.800000</speed>
</trkpt>
<trkpt lat="32.590431213" lon="35.002632141">
  <ele>44.169250</ele>
  <time>2011-07-29T03:47:47Z</time>
  <speed>3.810000</speed>
</trkpt>
<trkpt lat="32.590431213" lon="35.002590179">
  <ele>43.564758</ele>
  <time>2011-07-29T03:47:48Z</time>
  <speed>3.720000</speed>
</trkpt>
<trkpt lat="32.590427399" lon="35.002544403">
  <ele>43.491516</ele>
  <time>2011-07-29T03:47:49Z</time>
  <speed>4.120000</speed>
</trkpt>
<trkpt lat="32.590427399" lon="35.002487183">
  <ele>43.711243</ele>
  <time>2011-07-29T03:47:50Z</time>
  <speed>3.980000</speed>
</trkpt>
<trkpt lat="32.590431213" lon="35.002445221">
  <ele>43.854797</ele>
  <time>2011-07-29T03:47:51Z</time>
  <speed>3.970000</speed>
</trkpt>
<trkpt lat="32.590438843" lon="35.002407074">
  <ele>43.428040</ele>
  <time>2011-07-29T03:47:52Z</time>
  <speed>3.720000</speed>
</trkpt>
<trkpt lat="32.590446472" lon="35.002365112">
  <ele>43.241516</ele>
  <time>2011-07-29T03:47:53Z</time>
  <speed>3.920000</speed>
</trkpt>
<trkpt lat="32.590446472" lon="35.002323151">
  <ele>42.565735</ele>
  <time>2011-07-29T03:47:54Z</time>
  <speed>3.970000</speed>
</trkpt>
<trkpt lat="32.590450287" lon="35.002277374">
  <ele>42.274719</ele>
  <time>2011-07-29T03:47:55Z</time>
  <speed>3.820000</speed>
</trkpt>
<trkpt lat="32.590446472" lon="35.002239227">
  <ele>41.532532</ele>
  <time>2011-07-29T03:47:56Z</time>
  <speed>3.890000</speed>
</trkpt>
<trkpt lat="32.590446472" lon="35.002193451">
  <ele>41.477844</ele>
  <time>2011-07-29T03:47:57Z</time>
  <speed>3.900000</speed>
</trkpt>
<trkpt lat="32.590457916" lon="35.002155304">
  <ele>41.373352</ele>
  <time>2011-07-29T03:47:58Z</time>
  <speed>4.080000</speed>
</trkpt>
<trkpt lat="32.590457916" lon="35.002105713">
  <ele>40.838196</ele>
  <time>2011-07-29T03:47:59Z</time>
  <speed>4.340000</speed>
</trkpt>
<trkpt lat="32.590461731" lon="35.002059937">
  <ele>40.668274</ele>
  <time>2011-07-29T03:48:00Z</time>
  <speed>4.240000</speed>
</trkpt>
<trkpt lat="32.590465546" lon="35.002006531">
  <ele>41.148743</ele>
  <time>2011-07-29T03:48:01Z</time>
  <speed>4.360000</speed>
</trkpt>
<trkpt lat="32.590469360" lon="35.001956940">
  <ele>40.935852</ele>
  <time>2011-07-29T03:48:02Z</time>
  <speed>4.300000</speed>
</trkpt>
<trkpt lat="32.590473175" lon="35.001918793">
  <ele>40.410461</ele>
  <time>2011-07-29T03:48:03Z</time>
  <speed>4.090000</speed>
</trkpt>
<trkpt lat="32.590469360" lon="35.001869202">
  <ele>40.735657</ele>
  <time>2011-07-29T03:48:04Z</time>
  <speed>3.870000</speed>
</trkpt>
<trkpt lat="32.590469360" lon="35.001819611">
  <ele>41.100891</ele>
  <time>2011-07-29T03:48:05Z</time>
  <speed>3.690000</speed>
</trkpt>
<trkpt lat="32.590469360" lon="35.001773834">
  <ele>40.776672</ele>
  <time>2011-07-29T03:48:06Z</time>
  <speed>4.070000</speed>
</trkpt>
<trkpt lat="32.590473175" lon="35.001728058">
  <ele>40.825500</ele>
  <time>2011-07-29T03:48:07Z</time>
  <speed>3.940000</speed>
</trkpt>
<trkpt lat="32.590476990" lon="35.001682281">
  <ele>40.651672</ele>
  <time>2011-07-29T03:48:08Z</time>
  <speed>4.090000</speed>
</trkpt>
<trkpt lat="32.590476990" lon="35.001632690">
  <ele>40.570618</ele>
  <time>2011-07-29T03:48:09Z</time>
  <speed>4.090000</speed>
</trkpt>
<trkpt lat="32.590484619" lon="35.001575470">
  <ele>41.151672</ele>
  <time>2011-07-29T03:48:10Z</time>
  <speed>4.150000</speed>
</trkpt>
<trkpt lat="32.590480804" lon="35.001525879">
  <ele>41.336243</ele>
  <time>2011-07-29T03:48:11Z</time>
  <speed>4.520000</speed>
</trkpt>
<trkpt lat="32.590484619" lon="35.001464844">
  <ele>41.729797</ele>
  <time>2011-07-29T03:48:12Z</time>
  <speed>4.510000</speed>
</trkpt>
<trkpt lat="32.590488434" lon="35.001407623">
  <ele>42.290344</ele>
  <time>2011-07-29T03:48:13Z</time>
  <speed>4.780000</speed>
</trkpt>
<trkpt lat="32.590492249" lon="35.001350403">
  <ele>41.998352</ele>
  <time>2011-07-29T03:48:14Z</time>
  <speed>4.840000</speed>
</trkpt>
<trkpt lat="32.590503693" lon="35.001281738">
  <ele>43.987610</ele>
  <time>2011-07-29T03:48:15Z</time>
  <speed>4.870000</speed>
</trkpt>
<trkpt lat="32.590511322" lon="35.001220703">
  <ele>45.311829</ele>
  <time>2011-07-29T03:48:16Z</time>
  <speed>5.010000</speed>
</trkpt>
<trkpt lat="32.590518951" lon="35.001171112">
  <ele>45.016907</ele>
  <time>2011-07-29T03:48:17Z</time>
  <speed>5.170000</speed>
</trkpt>
<trkpt lat="32.590526581" lon="35.001110077">
  <ele>45.691711</ele>
  <time>2011-07-29T03:48:18Z</time>
  <speed>5.230000</speed>
</trkpt>
<trkpt lat="32.590526581" lon="35.001052856">
  <ele>45.605774</ele>
  <time>2011-07-29T03:48:19Z</time>
  <speed>5.240000</speed>
</trkpt>
<trkpt lat="32.590534210" lon="35.000999451">
  <ele>46.093079</ele>
  <time>2011-07-29T03:48:20Z</time>
  <speed>5.000000</speed>
</trkpt>
<trkpt lat="32.590534210" lon="35.000946045">
  <ele>46.109680</ele>
  <time>2011-07-29T03:48:21Z</time>
  <speed>5.040000</speed>
</trkpt>
<trkpt lat="32.590541840" lon="35.000896454">
  <ele>46.391907</ele>
  <time>2011-07-29T03:48:22Z</time>
  <speed>4.670000</speed>
</trkpt>
<trkpt lat="32.590549469" lon="35.000839233">
  <ele>46.739563</ele>
  <time>2011-07-29T03:48:23Z</time>
  <speed>4.660000</speed>
</trkpt>
<trkpt lat="32.590553284" lon="35.000789642">
  <ele>46.833313</ele>
  <time>2011-07-29T03:48:24Z</time>
  <speed>4.650000</speed>
</trkpt>
<trkpt lat="32.590557098" lon="35.000736237">
  <ele>46.665344</ele>
  <time>2011-07-29T03:48:25Z</time>
  <speed>4.560000</speed>
</trkpt>
<trkpt lat="32.590560913" lon="35.000682831">
  <ele>46.861633</ele>
  <time>2011-07-29T03:48:26Z</time>
  <speed>4.550000</speed>
</trkpt>
<trkpt lat="32.590557098" lon="35.000633240">
  <ele>47.053040</ele>
  <time>2011-07-29T03:48:27Z</time>
  <speed>4.150000</speed>
</trkpt>
<trkpt lat="32.590557098" lon="35.000579834">
  <ele>46.964172</ele>
  <time>2011-07-29T03:48:28Z</time>
  <speed>4.140000</speed>
</trkpt>
<trkpt lat="32.590560913" lon="35.000530243">
  <ele>47.163391</ele>
  <time>2011-07-29T03:48:29Z</time>
  <speed>4.380000</speed>
</trkpt>
<trkpt lat="32.590564728" lon="35.000480652">
  <ele>46.977844</ele>
  <time>2011-07-29T03:48:30Z</time>
  <speed>4.370000</speed>
</trkpt>
<trkpt lat="32.590564728" lon="35.000431061">
  <ele>46.915344</ele>
  <time>2011-07-29T03:48:31Z</time>
  <speed>4.270000</speed>
</trkpt>
<trkpt lat="32.590564728" lon="35.000385284">
  <ele>46.613586</ele>
  <time>2011-07-29T03:48:32Z</time>
  <speed>4.200000</speed>
</trkpt>
<trkpt lat="32.590568542" lon="35.000335693">
  <ele>46.558899</ele>
  <time>2011-07-29T03:48:33Z</time>
  <speed>4.410000</speed>
</trkpt>
<trkpt lat="32.590579987" lon="35.000274658">
  <ele>47.469055</ele>
  <time>2011-07-29T03:48:34Z</time>
  <speed>4.280000</speed>
</trkpt>
<trkpt lat="32.590579987" lon="35.000228882">
  <ele>47.366516</ele>
  <time>2011-07-29T03:48:35Z</time>
  <speed>4.000000</speed>
</trkpt>
<trkpt lat="32.590583801" lon="35.000183105">
  <ele>46.963196</ele>
  <time>2011-07-29T03:48:36Z</time>
  <speed>4.410000</speed>
</trkpt>
<trkpt lat="32.590591431" lon="35.000125885">
  <ele>47.469055</ele>
  <time>2011-07-29T03:48:37Z</time>
  <speed>4.570000</speed>
</trkpt>
<trkpt lat="32.590599060" lon="35.000072479">
  <ele>48.127258</ele>
  <time>2011-07-29T03:48:38Z</time>
  <speed>5.000000</speed>
</trkpt>
<trkpt lat="32.590599060" lon="35.000022888">
  <ele>47.790344</ele>
  <time>2011-07-29T03:48:39Z</time>
  <speed>4.920000</speed>
</trkpt>
<trkpt lat="32.590602875" lon="34.999965668">
  <ele>47.260071</ele>
  <time>2011-07-29T03:48:40Z</time>
  <speed>4.990000</speed>
</trkpt>
<trkpt lat="32.590602875" lon="34.999908447">
  <ele>47.279602</ele>
  <time>2011-07-29T03:48:41Z</time>
  <speed>4.790000</speed>
</trkpt>
<trkpt lat="32.590610504" lon="34.999858856">
  <ele>47.385071</ele>
  <time>2011-07-29T03:48:42Z</time>
  <speed>4.790000</speed>
</trkpt>
<trkpt lat="32.590614319" lon="34.999813080">
  <ele>47.713196</ele>
  <time>2011-07-29T03:48:43Z</time>
  <speed>4.830000</speed>
</trkpt>
<trkpt lat="32.590621948" lon="34.999771118">
  <ele>47.568665</ele>
  <time>2011-07-29T03:48:44Z</time>
  <speed>4.580000</speed>
</trkpt>
<trkpt lat="32.590621948" lon="34.999721527">
  <ele>47.391907</ele>
  <time>2011-07-29T03:48:45Z</time>
  <speed>4.530000</speed>
</trkpt>
<trkpt lat="32.590621948" lon="34.999671936">
  <ele>47.590149</ele>
  <time>2011-07-29T03:48:46Z</time>
  <speed>4.200000</speed>
</trkpt>
<trkpt lat="32.590621948" lon="34.999629974">
  <ele>47.476868</ele>
  <time>2011-07-29T03:48:47Z</time>
  <speed>4.020000</speed>
</trkpt>
<trkpt lat="32.590625763" lon="34.999588013">
  <ele>47.544250</ele>
  <time>2011-07-29T03:48:48Z</time>
  <speed>4.080000</speed>
</trkpt>
<trkpt lat="32.590625763" lon="34.999542236">
  <ele>47.677063</ele>
  <time>2011-07-29T03:48:49Z</time>
  <speed>3.870000</speed>
</trkpt>
<trkpt lat="32.590625763" lon="34.999500275">
  <ele>47.629211</ele>
  <time>2011-07-29T03:48:50Z</time>
  <speed>3.950000</speed>
</trkpt>
<trkpt lat="32.590621948" lon="34.999450684">
  <ele>47.170227</ele>
  <time>2011-07-29T03:48:51Z</time>
  <speed>4.190000</speed>
</trkpt>
<trkpt lat="32.590625763" lon="34.999408722">
  <ele>46.642883</ele>
  <time>2011-07-29T03:48:52Z</time>
  <speed>4.100000</speed>
</trkpt>
<trkpt lat="32.590621948" lon="34.999359131">
  <ele>46.204407</ele>
  <time>2011-07-29T03:48:53Z</time>
  <speed>4.240000</speed>
</trkpt>
<trkpt lat="32.590621948" lon="34.999313354">
  <ele>46.344055</ele>
  <time>2011-07-29T03:48:54Z</time>
  <speed>3.950000</speed>
</trkpt>
<trkpt lat="32.590614319" lon="34.999267578">
  <ele>46.259094</ele>
  <time>2011-07-29T03:48:55Z</time>
  <speed>3.840000</speed>
</trkpt>
<trkpt lat="32.590618134" lon="34.999229431">
  <ele>46.638000</ele>
  <time>2011-07-29T03:48:56Z</time>
  <speed>3.690000</speed>
</trkpt>
<trkpt lat="32.590618134" lon="34.999179840">
  <ele>46.916321</ele>
  <time>2011-07-29T03:48:57Z</time>
  <speed>4.120000</speed>
</trkpt>
<trkpt lat="32.590614319" lon="34.999137878">
  <ele>47.057922</ele>
  <time>2011-07-29T03:48:58Z</time>
  <speed>3.860000</speed>
</trkpt>
<trkpt lat="32.590606689" lon="34.999095917">
  <ele>47.288391</ele>
  <time>2011-07-29T03:48:59Z</time>
  <speed>4.010000</speed>
</trkpt>
<trkpt lat="32.590602875" lon="34.999050140">
  <ele>47.593079</ele>
  <time>2011-07-29T03:49:00Z</time>
  <speed>3.860000</speed>
</trkpt>
<trkpt lat="32.590595245" lon="34.999004364">
  <ele>47.718079</ele>
  <time>2011-07-29T03:49:01Z</time>
  <speed>4.150000</speed>
</trkpt>
<trkpt lat="32.590587616" lon="34.998962402">
  <ele>46.588196</ele>
  <time>2011-07-29T03:49:02Z</time>
  <speed>4.040000</speed>
</trkpt>
<trkpt lat="32.590583801" lon="34.998908997">
  <ele>46.707336</ele>
  <time>2011-07-29T03:49:03Z</time>
  <speed>4.040000</speed>
</trkpt>
<trkpt lat="32.590572357" lon="34.998867035">
  <ele>46.536438</ele>
  <time>2011-07-29T03:49:04Z</time>
  <speed>4.070000</speed>
</trkpt>
<trkpt lat="32.590564728" lon="34.998821259">
  <ele>46.107727</ele>
  <time>2011-07-29T03:49:05Z</time>
  <speed>4.250000</speed>
</trkpt>
<trkpt lat="32.590553284" lon="34.998771667">
  <ele>46.810852</ele>
  <time>2011-07-29T03:49:06Z</time>
  <speed>3.950000</speed>
</trkpt>
<trkpt lat="32.590545654" lon="34.998729706">
  <ele>46.541321</ele>
  <time>2011-07-29T03:49:07Z</time>
  <speed>4.130000</speed>
</trkpt>
<trkpt lat="32.590534210" lon="34.998687744">
  <ele>46.595032</ele>
  <time>2011-07-29T03:49:08Z</time>
  <speed>4.450000</speed>
</trkpt>
<trkpt lat="32.590526581" lon="34.998641968">
  <ele>46.472961</ele>
  <time>2011-07-29T03:49:09Z</time>
  <speed>4.400000</speed>
</trkpt>
<trkpt lat="32.590507507" lon="34.998592377">
  <ele>45.686829</ele>
  <time>2011-07-29T03:49:10Z</time>
  <speed>4.620000</speed>
</trkpt>
<trkpt lat="32.590492249" lon="34.998550415">
  <ele>46.176086</ele>
  <time>2011-07-29T03:49:11Z</time>
  <speed>4.230000</speed>
</trkpt>
<trkpt lat="32.590473175" lon="34.998508453">
  <ele>45.565735</ele>
  <time>2011-07-29T03:49:12Z</time>
  <speed>4.250000</speed>
</trkpt>
<trkpt lat="32.590457916" lon="34.998466492">
  <ele>45.054016</ele>
  <time>2011-07-29T03:49:13Z</time>
  <speed>4.310000</speed>
</trkpt>
<trkpt lat="32.590442657" lon="34.998424530">
  <ele>44.179016</ele>
  <time>2011-07-29T03:49:14Z</time>
  <speed>4.190000</speed>
</trkpt>
<trkpt lat="32.590427399" lon="34.998378754">
  <ele>44.014954</ele>
  <time>2011-07-29T03:49:15Z</time>
  <speed>4.610000</speed>
</trkpt>
<trkpt lat="32.590408325" lon="34.998336792">
  <ele>44.397766</ele>
  <time>2011-07-29T03:49:16Z</time>
  <speed>4.750000</speed>
</trkpt>
<trkpt lat="32.590393066" lon="34.998287201">
  <ele>44.121399</ele>
  <time>2011-07-29T03:49:17Z</time>
  <speed>4.730000</speed>
</trkpt>
<trkpt lat="32.590366364" lon="34.998245239">
  <ele>44.248352</ele>
  <time>2011-07-29T03:49:18Z</time>
  <speed>4.480000</speed>
</trkpt>
<trkpt lat="32.590351105" lon="34.998203278">
  <ele>43.977844</ele>
  <time>2011-07-29T03:49:19Z</time>
  <speed>4.340000</speed>
</trkpt>
<trkpt lat="32.590332031" lon="34.998161316">
  <ele>43.673157</ele>
  <time>2011-07-29T03:49:20Z</time>
  <speed>4.170000</speed>
</trkpt>
<trkpt lat="32.590316772" lon="34.998115540">
  <ele>44.515930</ele>
  <time>2011-07-29T03:49:21Z</time>
  <speed>4.680000</speed>
</trkpt>
<trkpt lat="32.590301514" lon="34.998069763">
  <ele>44.188782</ele>
  <time>2011-07-29T03:49:22Z</time>
  <speed>4.500000</speed>
</trkpt>
<trkpt lat="32.590282440" lon="34.998023987">
  <ele>44.083313</ele>
  <time>2011-07-29T03:49:23Z</time>
  <speed>4.780000</speed>
</trkpt>
<trkpt lat="32.590263367" lon="34.997982025">
  <ele>44.410461</ele>
  <time>2011-07-29T03:49:24Z</time>
  <speed>4.610000</speed>
</trkpt>
<trkpt lat="32.590244293" lon="34.997940063">
  <ele>44.587219</ele>
  <time>2011-07-29T03:49:25Z</time>
  <speed>4.380000</speed>
</trkpt>
<trkpt lat="32.590225220" lon="34.997894287">
  <ele>44.514954</ele>
  <time>2011-07-29T03:49:26Z</time>
  <speed>4.300000</speed>
</trkpt>
<trkpt lat="32.590209961" lon="34.997848511">
  <ele>44.667297</ele>
  <time>2011-07-29T03:49:27Z</time>
  <speed>4.720000</speed>
</trkpt>
<trkpt lat="32.590194702" lon="34.997802734">
  <ele>43.830383</ele>
  <time>2011-07-29T03:49:28Z</time>
  <speed>4.500000</speed>
</trkpt>
<trkpt lat="32.590179443" lon="34.997756958">
  <ele>43.967102</ele>
  <time>2011-07-29T03:49:29Z</time>
  <speed>4.510000</speed>
</trkpt>
<trkpt lat="32.590160370" lon="34.997718811">
  <ele>43.146790</ele>
  <time>2011-07-29T03:49:30Z</time>
  <speed>4.410000</speed>
</trkpt>
<trkpt lat="32.590137482" lon="34.997673035">
  <ele>43.126282</ele>
  <time>2011-07-29T03:49:31Z</time>
  <speed>4.450000</speed>
</trkpt>
<trkpt lat="32.590122223" lon="34.997627258">
  <ele>43.946594</ele>
  <time>2011-07-29T03:49:32Z</time>
  <speed>4.330000</speed>
</trkpt>
<trkpt lat="32.590114594" lon="34.997577667">
  <ele>45.132141</ele>
  <time>2011-07-29T03:49:33Z</time>
  <speed>4.270000</speed>
</trkpt>
<trkpt lat="32.590099335" lon="34.997535706">
  <ele>45.412415</ele>
  <time>2011-07-29T03:49:34Z</time>
  <speed>4.310000</speed>
</trkpt>
<trkpt lat="32.590084076" lon="34.997489929">
  <ele>44.810852</ele>
  <time>2011-07-29T03:49:35Z</time>
  <speed>4.440000</speed>
</trkpt>
<trkpt lat="32.590068817" lon="34.997444153">
  <ele>44.914368</ele>
  <time>2011-07-29T03:49:36Z</time>
  <speed>4.530000</speed>
</trkpt>
<trkpt lat="32.590045929" lon="34.997406006">
  <ele>45.026672</ele>
  <time>2011-07-29T03:49:37Z</time>
  <speed>4.060000</speed>
</trkpt>
<trkpt lat="32.590026855" lon="34.997364044">
  <ele>44.919250</ele>
  <time>2011-07-29T03:49:38Z</time>
  <speed>4.230000</speed>
</trkpt>
<trkpt lat="32.590015411" lon="34.997325897">
  <ele>45.370422</ele>
  <time>2011-07-29T03:49:39Z</time>
  <speed>4.130000</speed>
</trkpt>
<trkpt lat="32.589996338" lon="34.997283936">
  <ele>45.602844</ele>
  <time>2011-07-29T03:49:40Z</time>
  <speed>4.300000</speed>
</trkpt>
<trkpt lat="32.589984894" lon="34.997234344">
  <ele>44.850891</ele>
  <time>2011-07-29T03:49:41Z</time>
  <speed>4.340000</speed>
</trkpt>
<trkpt lat="32.589969635" lon="34.997192383">
  <ele>44.184875</ele>
  <time>2011-07-29T03:49:42Z</time>
  <speed>4.060000</speed>
</trkpt>
<trkpt lat="32.589962006" lon="34.997142792">
  <ele>44.551086</ele>
  <time>2011-07-29T03:49:43Z</time>
  <speed>4.200000</speed>
</trkpt>
<trkpt lat="32.589946747" lon="34.997100830">
  <ele>45.232727</ele>
  <time>2011-07-29T03:49:44Z</time>
  <speed>4.090000</speed>
</trkpt>
<trkpt lat="32.589935303" lon="34.997039795">
  <ele>45.816711</ele>
  <time>2011-07-29T03:49:45Z</time>
  <speed>4.220000</speed>
</trkpt>
<trkpt lat="32.589927673" lon="34.996997833">
  <ele>47.035461</ele>
  <time>2011-07-29T03:49:46Z</time>
  <speed>4.170000</speed>
</trkpt>
<trkpt lat="32.589912415" lon="34.996944427">
  <ele>47.725891</ele>
  <time>2011-07-29T03:49:47Z</time>
  <speed>4.310000</speed>
</trkpt>
<trkpt lat="32.589893341" lon="34.996902466">
  <ele>47.055969</ele>
  <time>2011-07-29T03:49:48Z</time>
  <speed>4.210000</speed>
</trkpt>
<trkpt lat="32.589881897" lon="34.996860504">
  <ele>47.307922</ele>
  <time>2011-07-29T03:49:49Z</time>
  <speed>4.130000</speed>
</trkpt>
<trkpt lat="32.589866638" lon="34.996818542">
  <ele>47.493469</ele>
  <time>2011-07-29T03:49:50Z</time>
  <speed>4.460000</speed>
</trkpt>
<trkpt lat="32.589847565" lon="34.996776581">
  <ele>47.807922</ele>
  <time>2011-07-29T03:49:51Z</time>
  <speed>4.330000</speed>
</trkpt>
<trkpt lat="32.589832306" lon="34.996734619">
  <ele>47.330383</ele>
  <time>2011-07-29T03:49:52Z</time>
  <speed>4.580000</speed>
</trkpt>
<trkpt lat="32.589813232" lon="34.996688843">
  <ele>47.021790</ele>
  <time>2011-07-29T03:49:53Z</time>
  <speed>4.430000</speed>
</trkpt>
<trkpt lat="32.589794159" lon="34.996646881">
  <ele>46.567688</ele>
  <time>2011-07-29T03:49:54Z</time>
  <speed>4.640000</speed>
</trkpt>
<trkpt lat="32.589778900" lon="34.996601105">
  <ele>46.952454</ele>
  <time>2011-07-29T03:49:55Z</time>
  <speed>4.550000</speed>
</trkpt>
<trkpt lat="32.589767456" lon="34.996555328">
  <ele>47.187805</ele>
  <time>2011-07-29T03:49:56Z</time>
  <speed>4.310000</speed>
</trkpt>
<trkpt lat="32.589756012" lon="34.996517181">
  <ele>48.807922</ele>
  <time>2011-07-29T03:49:57Z</time>
  <speed>4.360000</speed>
</trkpt>
<trkpt lat="32.589733124" lon="34.996471405">
  <ele>48.823547</ele>
  <time>2011-07-29T03:49:58Z</time>
  <speed>4.490000</speed>
</trkpt>
<trkpt lat="32.589714050" lon="34.996429443">
  <ele>48.303040</ele>
  <time>2011-07-29T03:49:59Z</time>
  <speed>4.500000</speed>
</trkpt>
<trkpt lat="32.589691162" lon="34.996379852">
  <ele>48.299133</ele>
  <time>2011-07-29T03:50:00Z</time>
  <speed>4.550000</speed>
</trkpt>
<trkpt lat="32.589675903" lon="34.996334076">
  <ele>47.465149</ele>
  <time>2011-07-29T03:50:01Z</time>
  <speed>4.750000</speed>
</trkpt>
<trkpt lat="32.589653015" lon="34.996288300">
  <ele>46.998352</ele>
  <time>2011-07-29T03:50:02Z</time>
  <speed>4.490000</speed>
</trkpt>
<trkpt lat="32.589633942" lon="34.996242523">
  <ele>46.562805</ele>
  <time>2011-07-29T03:50:03Z</time>
  <speed>4.480000</speed>
</trkpt>
<trkpt lat="32.589618683" lon="34.996200562">
  <ele>46.560852</ele>
  <time>2011-07-29T03:50:04Z</time>
  <speed>4.080000</speed>
</trkpt>
<trkpt lat="32.589595795" lon="34.996158600">
  <ele>45.804993</ele>
  <time>2011-07-29T03:50:05Z</time>
  <speed>4.490000</speed>
</trkpt>
<trkpt lat="32.589580536" lon="34.996112823">
  <ele>45.376282</ele>
  <time>2011-07-29T03:50:06Z</time>
  <speed>4.690000</speed>
</trkpt>
<trkpt lat="32.589565277" lon="34.996074677">
  <ele>45.753235</ele>
  <time>2011-07-29T03:50:07Z</time>
  <speed>4.450000</speed>
</trkpt>
<trkpt lat="32.589546204" lon="34.996036530">
  <ele>46.036438</ele>
  <time>2011-07-29T03:50:08Z</time>
  <speed>4.170000</speed>
</trkpt>
<trkpt lat="32.589534760" lon="34.995994568">
  <ele>46.945618</ele>
  <time>2011-07-29T03:50:09Z</time>
  <speed>4.420000</speed>
</trkpt>
<trkpt lat="32.589519501" lon="34.995952606">
  <ele>46.807922</ele>
  <time>2011-07-29T03:50:10Z</time>
  <speed>4.220000</speed>
</trkpt>
<trkpt lat="32.589504242" lon="34.995914459">
  <ele>46.877258</ele>
  <time>2011-07-29T03:50:11Z</time>
  <speed>4.220000</speed>
</trkpt>
<trkpt lat="32.589485168" lon="34.995868683">
  <ele>46.861633</ele>
  <time>2011-07-29T03:50:12Z</time>
  <speed>4.390000</speed>
</trkpt>
<trkpt lat="32.589466095" lon="34.995826721">
  <ele>47.280579</ele>
  <time>2011-07-29T03:50:13Z</time>
  <speed>4.560000</speed>
</trkpt>
<trkpt lat="32.589443207" lon="34.995788574">
  <ele>47.954407</ele>
  <time>2011-07-29T03:50:14Z</time>
  <speed>4.420000</speed>
</trkpt>
<trkpt lat="32.589420319" lon="34.995746613">
  <ele>48.409485</ele>
  <time>2011-07-29T03:50:15Z</time>
  <speed>4.720000</speed>
</trkpt>
<trkpt lat="32.589393616" lon="34.995704651">
  <ele>48.292297</ele>
  <time>2011-07-29T03:50:16Z</time>
  <speed>4.550000</speed>
</trkpt>
<trkpt lat="32.589359283" lon="34.995666504">
  <ele>48.690735</ele>
  <time>2011-07-29T03:50:17Z</time>
  <speed>4.320000</speed>
</trkpt>
<trkpt lat="32.589332581" lon="34.995628357">
  <ele>49.411438</ele>
  <time>2011-07-29T03:50:18Z</time>
  <speed>4.680000</speed>
</trkpt>
<trkpt lat="32.589305878" lon="34.995590210">
  <ele>48.610657</ele>
  <time>2011-07-29T03:50:19Z</time>
  <speed>4.410000</speed>
</trkpt>
<trkpt lat="32.589279175" lon="34.995552063">
  <ele>49.742493</ele>
  <time>2011-07-29T03:50:20Z</time>
  <speed>4.220000</speed>
</trkpt>
<trkpt lat="32.589256287" lon="34.995517731">
  <ele>50.227844</ele>
  <time>2011-07-29T03:50:21Z</time>
  <speed>4.100000</speed>
</trkpt>
<trkpt lat="32.589225769" lon="34.995483398">
  <ele>50.780579</ele>
  <time>2011-07-29T03:50:22Z</time>
  <speed>4.210000</speed>
</trkpt>
<trkpt lat="32.589199066" lon="34.995449066">
  <ele>50.245422</ele>
  <time>2011-07-29T03:50:23Z</time>
  <speed>3.980000</speed>
</trkpt>
<trkpt lat="32.589176178" lon="34.995422363">
  <ele>50.986633</ele>
  <time>2011-07-29T03:50:24Z</time>
  <speed>4.150000</speed>
</trkpt>
<trkpt lat="32.589145660" lon="34.995391846">
  <ele>51.245422</ele>
  <time>2011-07-29T03:50:25Z</time>
  <speed>4.140000</speed>
</trkpt>
<trkpt lat="32.589122772" lon="34.995361328">
  <ele>51.039368</ele>
  <time>2011-07-29T03:50:26Z</time>
  <speed>4.120000</speed>
</trkpt>
<trkpt lat="32.589096069" lon="34.995326996">
  <ele>51.634094</ele>
  <time>2011-07-29T03:50:27Z</time>
  <speed>4.000000</speed>
</trkpt>
<trkpt lat="32.589073181" lon="34.995296478">
  <ele>51.735657</ele>
  <time>2011-07-29T03:50:28Z</time>
  <speed>4.020000</speed>
</trkpt>
<trkpt lat="32.589046478" lon="34.995265961">
  <ele>51.533508</ele>
  <time>2011-07-29T03:50:29Z</time>
  <speed>4.190000</speed>
</trkpt>
<trkpt lat="32.589023590" lon="34.995235443">
  <ele>51.660461</ele>
  <time>2011-07-29T03:50:30Z</time>
  <speed>4.030000</speed>
</trkpt>
<trkpt lat="32.588993073" lon="34.995204926">
  <ele>51.483704</ele>
  <time>2011-07-29T03:50:31Z</time>
  <speed>4.210000</speed>
</trkpt>
<trkpt lat="32.588962555" lon="34.995174408">
  <ele>51.498352</ele>
  <time>2011-07-29T03:50:32Z</time>
  <speed>4.330000</speed>
</trkpt>
<trkpt lat="32.588932037" lon="34.995143890">
  <ele>51.191711</ele>
  <time>2011-07-29T03:50:33Z</time>
  <speed>3.900000</speed>
</trkpt>
<trkpt lat="32.588905334" lon="34.995113373">
  <ele>52.240540</ele>
  <time>2011-07-29T03:50:34Z</time>
  <speed>3.900000</speed>
</trkpt>
<trkpt lat="32.588882446" lon="34.995090485">
  <ele>52.645813</ele>
  <time>2011-07-29T03:50:35Z</time>
  <speed>4.000000</speed>
</trkpt>
<trkpt lat="32.588855743" lon="34.995056152">
  <ele>53.014954</ele>
  <time>2011-07-29T03:50:36Z</time>
  <speed>4.270000</speed>
</trkpt>
<trkpt lat="32.588825226" lon="34.995021820">
  <ele>53.186829</ele>
  <time>2011-07-29T03:50:37Z</time>
  <speed>4.830000</speed>
</trkpt>
<trkpt lat="32.588787079" lon="34.994991302">
  <ele>53.423157</ele>
  <time>2011-07-29T03:50:38Z</time>
  <speed>4.440000</speed>
</trkpt>
<trkpt lat="32.588745117" lon="34.994968414">
  <ele>53.457336</ele>
  <time>2011-07-29T03:50:39Z</time>
  <speed>4.490000</speed>
</trkpt>
<trkpt lat="32.588714600" lon="34.994937897">
  <ele>53.668274</ele>
  <time>2011-07-29T03:50:40Z</time>
  <speed>4.330000</speed>
</trkpt>
<trkpt lat="32.588680267" lon="34.994911194">
  <ele>54.371399</ele>
  <time>2011-07-29T03:50:41Z</time>
  <speed>4.110000</speed>
</trkpt>
<trkpt lat="32.588649750" lon="34.994888306">
  <ele>54.892883</ele>
  <time>2011-07-29T03:50:42Z</time>
  <speed>4.100000</speed>
</trkpt>
<trkpt lat="32.588619232" lon="34.994861603">
  <ele>55.760071</ele>
  <time>2011-07-29T03:50:43Z</time>
  <speed>3.940000</speed>
</trkpt>
<trkpt lat="32.588584900" lon="34.994834900">
  <ele>55.790344</ele>
  <time>2011-07-29T03:50:44Z</time>
  <speed>3.710000</speed>
</trkpt>
<trkpt lat="32.588558197" lon="34.994812012">
  <ele>56.586243</ele>
  <time>2011-07-29T03:50:45Z</time>
  <speed>3.620000</speed>
</trkpt>
<trkpt lat="32.588531494" lon="34.994792938">
  <ele>56.280579</ele>
  <time>2011-07-29T03:50:46Z</time>
  <speed>3.550000</speed>
</trkpt>
<trkpt lat="32.588500977" lon="34.994770050">
  <ele>56.164368</ele>
  <time>2011-07-29T03:50:47Z</time>
  <speed>3.480000</speed>
</trkpt>
<trkpt lat="32.588474274" lon="34.994747162">
  <ele>56.475891</ele>
  <time>2011-07-29T03:50:48Z</time>
  <speed>3.720000</speed>
</trkpt>
<trkpt lat="32.588447571" lon="34.994724274">
  <ele>57.429016</ele>
  <time>2011-07-29T03:50:49Z</time>
  <speed>3.610000</speed>
</trkpt>
<trkpt lat="32.588420868" lon="34.994701385">
  <ele>57.688782</ele>
  <time>2011-07-29T03:50:50Z</time>
  <speed>3.490000</speed>
</trkpt>
<trkpt lat="32.588394165" lon="34.994678497">
  <ele>57.554993</ele>
  <time>2011-07-29T03:50:51Z</time>
  <speed>3.680000</speed>
</trkpt>
<trkpt lat="32.588371277" lon="34.994655609">
  <ele>57.754211</ele>
  <time>2011-07-29T03:50:52Z</time>
  <speed>3.740000</speed>
</trkpt>
<trkpt lat="32.588336945" lon="34.994636536">
  <ele>58.358704</ele>
  <time>2011-07-29T03:50:53Z</time>
  <speed>3.770000</speed>
</trkpt>
<trkpt lat="32.588310242" lon="34.994609833">
  <ele>57.596008</ele>
  <time>2011-07-29T03:50:54Z</time>
  <speed>4.190000</speed>
</trkpt>
<trkpt lat="32.588275909" lon="34.994586945">
  <ele>58.754211</ele>
  <time>2011-07-29T03:50:55Z</time>
  <speed>4.280000</speed>
</trkpt>
<trkpt lat="32.588245392" lon="34.994556427">
  <ele>59.537415</ele>
  <time>2011-07-29T03:50:56Z</time>
  <speed>3.880000</speed>
</trkpt>
<trkpt lat="32.588214874" lon="34.994533539">
  <ele>59.719055</ele>
  <time>2011-07-29T03:50:57Z</time>
  <speed>3.680000</speed>
</trkpt>
<trkpt lat="32.588188171" lon="34.994510651">
  <ele>60.033508</ele>
  <time>2011-07-29T03:50:58Z</time>
  <speed>3.750000</speed>
</trkpt>
<trkpt lat="32.588161469" lon="34.994491577">
  <ele>60.709290</ele>
  <time>2011-07-29T03:50:59Z</time>
  <speed>3.720000</speed>
</trkpt>
<trkpt lat="32.588130951" lon="34.994468689">
  <ele>61.108704</ele>
  <time>2011-07-29T03:51:00Z</time>
  <speed>3.760000</speed>
</trkpt>
<trkpt lat="32.588100433" lon="34.994453430">
  <ele>61.901672</ele>
  <time>2011-07-29T03:51:01Z</time>
  <speed>3.730000</speed>
</trkpt>
<trkpt lat="32.588077545" lon="34.994426727">
  <ele>61.900696</ele>
  <time>2011-07-29T03:51:02Z</time>
  <speed>3.630000</speed>
</trkpt>
<trkpt lat="32.588050842" lon="34.994403839">
  <ele>62.505188</ele>
  <time>2011-07-29T03:51:03Z</time>
  <speed>3.710000</speed>
</trkpt>
<trkpt lat="32.588024139" lon="34.994377136">
  <ele>62.679993</ele>
  <time>2011-07-29T03:51:04Z</time>
  <speed>3.620000</speed>
</trkpt>
<trkpt lat="32.587997437" lon="34.994354248">
  <ele>62.998352</ele>
  <time>2011-07-29T03:51:05Z</time>
  <speed>3.410000</speed>
</trkpt>
<trkpt lat="32.587974548" lon="34.994323730">
  <ele>64.680298</ele>
  <time>2011-07-29T03:51:06Z</time>
  <speed>3.260000</speed>
</trkpt>
<trkpt lat="32.587951660" lon="34.994304657">
  <ele>64.844360</ele>
  <time>2011-07-29T03:51:07Z</time>
  <speed>3.090000</speed>
</trkpt>
<trkpt lat="32.587928772" lon="34.994285583">
  <ele>65.680298</ele>
  <time>2011-07-29T03:51:08Z</time>
  <speed>3.010000</speed>
</trkpt>
<trkpt lat="32.587902069" lon="34.994266510">
  <ele>65.711548</ele>
  <time>2011-07-29T03:51:09Z</time>
  <speed>2.910000</speed>
</trkpt>
<trkpt lat="32.587860107" lon="34.994232178">
  <ele>65.459595</ele>
  <time>2011-07-29T03:51:11Z</time>
  <speed>3.170000</speed>
</trkpt>
<trkpt lat="32.587818146" lon="34.994190216">
  <ele>65.842407</ele>
  <time>2011-07-29T03:51:13Z</time>
  <speed>2.740000</speed>
</trkpt>
<trkpt lat="32.587802887" lon="34.994167328">
  <ele>65.631470</ele>
  <time>2011-07-29T03:51:14Z</time>
  <speed>2.570000</speed>
</trkpt>
<trkpt lat="32.587764740" lon="34.994129181">
  <ele>66.863892</ele>
  <time>2011-07-29T03:51:16Z</time>
  <speed>2.760000</speed>
</trkpt>
<trkpt lat="32.587726593" lon="34.994083405">
  <ele>66.113892</ele>
  <time>2011-07-29T03:51:18Z</time>
  <speed>3.070000</speed>
</trkpt>
<trkpt lat="32.587692261" lon="34.994045258">
  <ele>65.137329</ele>
  <time>2011-07-29T03:51:20Z</time>
  <speed>2.690000</speed>
</trkpt>
<trkpt lat="32.587669373" lon="34.994022369">
  <ele>64.906860</ele>
  <time>2011-07-29T03:51:21Z</time>
  <speed>2.520000</speed>
</trkpt>
<trkpt lat="32.587642670" lon="34.994007111">
  <ele>65.471313</ele>
  <time>2011-07-29T03:51:22Z</time>
  <speed>2.870000</speed>
</trkpt>
<trkpt lat="32.587600708" lon="34.993972778">
  <ele>64.951782</ele>
  <time>2011-07-29T03:51:24Z</time>
  <speed>2.840000</speed>
</trkpt>
<trkpt lat="32.587554932" lon="34.993938446">
  <ele>65.848267</ele>
  <time>2011-07-29T03:51:26Z</time>
  <speed>2.920000</speed>
</trkpt>
<trkpt lat="32.587512970" lon="34.993919373">
  <ele>66.709595</ele>
  <time>2011-07-29T03:51:28Z</time>
  <speed>2.760000</speed>
</trkpt>
<trkpt lat="32.587471008" lon="34.993896484">
  <ele>67.031860</ele>
  <time>2011-07-29T03:51:30Z</time>
  <speed>2.510000</speed>
</trkpt>
<trkpt lat="32.587432861" lon="34.993877411">
  <ele>65.572876</ele>
  <time>2011-07-29T03:51:32Z</time>
  <speed>2.440000</speed>
</trkpt>
<trkpt lat="32.587394714" lon="34.993854523">
  <ele>65.916626</ele>
  <time>2011-07-29T03:51:34Z</time>
  <speed>2.580000</speed>
</trkpt>
<trkpt lat="32.587356567" lon="34.993831635">
  <ele>65.242798</ele>
  <time>2011-07-29T03:51:36Z</time>
  <speed>2.530000</speed>
</trkpt>
<trkpt lat="32.587310791" lon="34.993808746">
  <ele>64.635376</ele>
  <time>2011-07-29T03:51:38Z</time>
  <speed>2.490000</speed>
</trkpt>
<trkpt lat="32.587284088" lon="34.993797302">
  <ele>65.154907</ele>
  <time>2011-07-29T03:51:39Z</time>
  <speed>2.770000</speed>
</trkpt>
<trkpt lat="32.587234497" lon="34.993770599">
  <ele>66.828735</ele>
  <time>2011-07-29T03:51:41Z</time>
  <speed>2.670000</speed>
</trkpt>
<trkpt lat="32.587200165" lon="34.993728638">
  <ele>67.746704</ele>
  <time>2011-07-29T03:51:43Z</time>
  <speed>2.900000</speed>
</trkpt>
<trkpt lat="32.587181091" lon="34.993705750">
  <ele>67.551392</ele>
  <time>2011-07-29T03:51:44Z</time>
  <speed>3.030000</speed>
</trkpt>
<trkpt lat="32.587162018" lon="34.993679047">
  <ele>67.795532</ele>
  <time>2011-07-29T03:51:45Z</time>
  <speed>3.300000</speed>
</trkpt>
<trkpt lat="32.587139130" lon="34.993656158">
  <ele>67.383423</ele>
  <time>2011-07-29T03:51:46Z</time>
  <speed>3.160000</speed>
</trkpt>
<trkpt lat="32.587120056" lon="34.993633270">
  <ele>67.061157</ele>
  <time>2011-07-29T03:51:47Z</time>
  <speed>3.240000</speed>
</trkpt>
<trkpt lat="32.587100983" lon="34.993606567">
  <ele>66.901001</ele>
  <time>2011-07-29T03:51:48Z</time>
  <speed>3.140000</speed>
</trkpt>
<trkpt lat="32.587081909" lon="34.993579865">
  <ele>67.039673</ele>
  <time>2011-07-29T03:51:49Z</time>
  <speed>3.250000</speed>
</trkpt>
<trkpt lat="32.587062836" lon="34.993556976">
  <ele>67.727173</ele>
  <time>2011-07-29T03:51:50Z</time>
  <speed>3.080000</speed>
</trkpt>
<trkpt lat="32.587039948" lon="34.993530273">
  <ele>67.764282</ele>
  <time>2011-07-29T03:51:51Z</time>
  <speed>3.230000</speed>
</trkpt>
<trkpt lat="32.587028503" lon="34.993499756">
  <ele>67.313110</ele>
  <time>2011-07-29T03:51:52Z</time>
  <speed>3.180000</speed>
</trkpt>
<trkpt lat="32.587009430" lon="34.993465424">
  <ele>66.537720</ele>
  <time>2011-07-29T03:51:53Z</time>
  <speed>3.560000</speed>
</trkpt>
<trkpt lat="32.586986542" lon="34.993442535">
  <ele>66.963501</ele>
  <time>2011-07-29T03:51:54Z</time>
  <speed>3.510000</speed>
</trkpt>
<trkpt lat="32.586963654" lon="34.993415833">
  <ele>66.190063</ele>
  <time>2011-07-29T03:51:55Z</time>
  <speed>3.710000</speed>
</trkpt>
<trkpt lat="32.586936951" lon="34.993381500">
  <ele>66.662720</ele>
  <time>2011-07-29T03:51:56Z</time>
  <speed>3.640000</speed>
</trkpt>
<trkpt lat="32.586917877" lon="34.993350983">
  <ele>66.283813</ele>
  <time>2011-07-29T03:51:57Z</time>
  <speed>3.650000</speed>
</trkpt>
<trkpt lat="32.586894989" lon="34.993324280">
  <ele>66.484985</ele>
  <time>2011-07-29T03:51:58Z</time>
  <speed>3.360000</speed>
</trkpt>
<trkpt lat="32.586868286" lon="34.993293762">
  <ele>66.725220</ele>
  <time>2011-07-29T03:51:59Z</time>
  <speed>3.450000</speed>
</trkpt>
<trkpt lat="32.586841583" lon="34.993263245">
  <ele>66.551392</ele>
  <time>2011-07-29T03:52:00Z</time>
  <speed>3.700000</speed>
</trkpt>
<trkpt lat="32.586811066" lon="34.993232727">
  <ele>66.930298</ele>
  <time>2011-07-29T03:52:01Z</time>
  <speed>3.830000</speed>
</trkpt>
<trkpt lat="32.586784363" lon="34.993206024">
  <ele>66.520142</ele>
  <time>2011-07-29T03:52:02Z</time>
  <speed>4.100000</speed>
</trkpt>
<trkpt lat="32.586753845" lon="34.993183136">
  <ele>66.651001</ele>
  <time>2011-07-29T03:52:03Z</time>
  <speed>3.730000</speed>
</trkpt>
<trkpt lat="32.586730957" lon="34.993156433">
  <ele>66.713501</ele>
  <time>2011-07-29T03:52:04Z</time>
  <speed>3.640000</speed>
</trkpt>
<trkpt lat="32.586708069" lon="34.993133545">
  <ele>66.688110</ele>
  <time>2011-07-29T03:52:05Z</time>
  <speed>3.500000</speed>
</trkpt>
<trkpt lat="32.586685181" lon="34.993110657">
  <ele>66.608032</ele>
  <time>2011-07-29T03:52:06Z</time>
  <speed>3.150000</speed>
</trkpt>
<trkpt lat="32.586662292" lon="34.993083954">
  <ele>67.090454</ele>
  <time>2011-07-29T03:52:07Z</time>
  <speed>3.740000</speed>
</trkpt>
<trkpt lat="32.586643219" lon="34.993041992">
  <ele>67.342407</ele>
  <time>2011-07-29T03:52:08Z</time>
  <speed>4.000000</speed>
</trkpt>
<trkpt lat="32.586612701" lon="34.993011475">
  <ele>66.928345</ele>
  <time>2011-07-29T03:52:09Z</time>
  <speed>3.930000</speed>
</trkpt>
<trkpt lat="32.586589813" lon="34.992980957">
  <ele>66.744751</ele>
  <time>2011-07-29T03:52:10Z</time>
  <speed>3.760000</speed>
</trkpt>
<trkpt lat="32.586570740" lon="34.992954254">
  <ele>65.820923</ele>
  <time>2011-07-29T03:52:11Z</time>
  <speed>3.510000</speed>
</trkpt>
<trkpt lat="32.586540222" lon="34.992938995">
  <ele>64.254517</ele>
  <time>2011-07-29T03:52:12Z</time>
  <speed>3.590000</speed>
</trkpt>
<trkpt lat="32.586517334" lon="34.992904663">
  <ele>63.841125</ele>
  <time>2011-07-29T03:52:13Z</time>
  <speed>3.620000</speed>
</trkpt>
<trkpt lat="32.586494446" lon="34.992874146">
  <ele>63.489563</ele>
  <time>2011-07-29T03:52:14Z</time>
  <speed>3.750000</speed>
</trkpt>
<trkpt lat="32.586471558" lon="34.992847443">
  <ele>63.959290</ele>
  <time>2011-07-29T03:52:15Z</time>
  <speed>3.480000</speed>
</trkpt>
<trkpt lat="32.586444855" lon="34.992820740">
  <ele>64.213501</ele>
  <time>2011-07-29T03:52:16Z</time>
  <speed>3.270000</speed>
</trkpt>
<trkpt lat="32.586421967" lon="34.992797852">
  <ele>63.670227</ele>
  <time>2011-07-29T03:52:17Z</time>
  <speed>3.090000</speed>
</trkpt>
<trkpt lat="32.586399078" lon="34.992774963">
  <ele>64.254517</ele>
  <time>2011-07-29T03:52:18Z</time>
  <speed>2.890000</speed>
</trkpt>
<trkpt lat="32.586380005" lon="34.992752075">
  <ele>64.928345</ele>
  <time>2011-07-29T03:52:19Z</time>
  <speed>3.280000</speed>
</trkpt>
<trkpt lat="32.586357117" lon="34.992713928">
  <ele>65.393188</ele>
  <time>2011-07-29T03:52:20Z</time>
  <speed>3.460000</speed>
</trkpt>
<trkpt lat="32.586330414" lon="34.992679596">
  <ele>65.621704</ele>
  <time>2011-07-29T03:52:21Z</time>
  <speed>3.830000</speed>
</trkpt>
<trkpt lat="32.586318970" lon="34.992649078">
  <ele>65.797485</ele>
  <time>2011-07-29T03:52:22Z</time>
  <speed>3.450000</speed>
</trkpt>
<trkpt lat="32.586288452" lon="34.992622375">
  <ele>65.961548</ele>
  <time>2011-07-29T03:52:23Z</time>
  <speed>3.580000</speed>
</trkpt>
<trkpt lat="32.586261749" lon="34.992599487">
  <ele>65.570923</ele>
  <time>2011-07-29T03:52:24Z</time>
  <speed>3.730000</speed>
</trkpt>
<trkpt lat="32.586231232" lon="34.992572784">
  <ele>65.625610</ele>
  <time>2011-07-29T03:52:25Z</time>
  <speed>3.910000</speed>
</trkpt>
<trkpt lat="32.586204529" lon="34.992542267">
  <ele>65.811157</ele>
  <time>2011-07-29T03:52:26Z</time>
  <speed>3.710000</speed>
</trkpt>
<trkpt lat="32.586177826" lon="34.992519379">
  <ele>65.484985</ele>
  <time>2011-07-29T03:52:27Z</time>
  <speed>3.600000</speed>
</trkpt>
<trkpt lat="32.586147308" lon="34.992488861">
  <ele>65.633423</ele>
  <time>2011-07-29T03:52:28Z</time>
  <speed>3.610000</speed>
</trkpt>
<trkpt lat="32.586120605" lon="34.992469788">
  <ele>65.588501</ele>
  <time>2011-07-29T03:52:29Z</time>
  <speed>3.650000</speed>
</trkpt>
<trkpt lat="32.586093903" lon="34.992443085">
  <ele>66.012329</ele>
  <time>2011-07-29T03:52:30Z</time>
  <speed>3.650000</speed>
</trkpt>
<trkpt lat="32.586067200" lon="34.992416382">
  <ele>66.281860</ele>
  <time>2011-07-29T03:52:31Z</time>
  <speed>3.800000</speed>
</trkpt>
<trkpt lat="32.586036682" lon="34.992401123">
  <ele>66.500610</ele>
  <time>2011-07-29T03:52:32Z</time>
  <speed>3.830000</speed>
</trkpt>
<trkpt lat="32.586009979" lon="34.992374420">
  <ele>66.973267</ele>
  <time>2011-07-29T03:52:33Z</time>
  <speed>3.730000</speed>
</trkpt>
<trkpt lat="32.585983276" lon="34.992347717">
  <ele>67.361938</ele>
  <time>2011-07-29T03:52:34Z</time>
  <speed>3.720000</speed>
</trkpt>
<trkpt lat="32.585956573" lon="34.992324829">
  <ele>67.641235</ele>
  <time>2011-07-29T03:52:35Z</time>
  <speed>3.550000</speed>
</trkpt>
<trkpt lat="32.585926056" lon="34.992301941">
  <ele>68.125610</ele>
  <time>2011-07-29T03:52:36Z</time>
  <speed>3.610000</speed>
</trkpt>
<trkpt lat="32.585903168" lon="34.992279053">
  <ele>69.047485</ele>
  <time>2011-07-29T03:52:37Z</time>
  <speed>3.660000</speed>
</trkpt>
<trkpt lat="32.585876465" lon="34.992252350">
  <ele>68.856079</ele>
  <time>2011-07-29T03:52:38Z</time>
  <speed>3.690000</speed>
</trkpt>
<trkpt lat="32.585853577" lon="34.992225647">
  <ele>68.897095</ele>
  <time>2011-07-29T03:52:39Z</time>
  <speed>3.660000</speed>
</trkpt>
<trkpt lat="32.585826874" lon="34.992198944">
  <ele>68.945923</ele>
  <time>2011-07-29T03:52:40Z</time>
  <speed>3.780000</speed>
</trkpt>
<trkpt lat="32.585800171" lon="34.992176056">
  <ele>69.553345</ele>
  <time>2011-07-29T03:52:41Z</time>
  <speed>3.740000</speed>
</trkpt>
<trkpt lat="32.585773468" lon="34.992153168">
  <ele>69.455688</ele>
  <time>2011-07-29T03:52:42Z</time>
  <speed>3.530000</speed>
</trkpt>
<trkpt lat="32.585746765" lon="34.992126465">
  <ele>69.375610</ele>
  <time>2011-07-29T03:52:43Z</time>
  <speed>3.770000</speed>
</trkpt>
<trkpt lat="32.585720062" lon="34.992103577">
  <ele>69.420532</ele>
  <time>2011-07-29T03:52:44Z</time>
  <speed>3.860000</speed>
</trkpt>
<trkpt lat="32.585685730" lon="34.992080688">
  <ele>69.776001</ele>
  <time>2011-07-29T03:52:45Z</time>
  <speed>4.010000</speed>
</trkpt>
<trkpt lat="32.585659027" lon="34.992050171">
  <ele>68.990845</ele>
  <time>2011-07-29T03:52:46Z</time>
  <speed>3.770000</speed>
</trkpt>
<trkpt lat="32.585632324" lon="34.992031097">
  <ele>68.781860</ele>
  <time>2011-07-29T03:52:47Z</time>
  <speed>3.490000</speed>
</trkpt>
<trkpt lat="32.585609436" lon="34.992000580">
  <ele>68.869751</ele>
  <time>2011-07-29T03:52:48Z</time>
  <speed>3.600000</speed>
</trkpt>
<trkpt lat="32.585586548" lon="34.991977692">
  <ele>68.522095</ele>
  <time>2011-07-29T03:52:49Z</time>
  <speed>4.260000</speed>
</trkpt>
<trkpt lat="32.585552216" lon="34.991947174">
  <ele>68.795532</ele>
  <time>2011-07-29T03:52:50Z</time>
  <speed>4.440000</speed>
</trkpt>
<trkpt lat="32.585517883" lon="34.991916656">
  <ele>69.494751</ele>
  <time>2011-07-29T03:52:51Z</time>
  <speed>4.120000</speed>
</trkpt>
<trkpt lat="32.585487366" lon="34.991889954">
  <ele>69.580688</ele>
  <time>2011-07-29T03:52:52Z</time>
  <speed>4.060000</speed>
</trkpt>
<trkpt lat="32.585456848" lon="34.991867065">
  <ele>71.102173</ele>
  <time>2011-07-29T03:52:53Z</time>
  <speed>3.830000</speed>
</trkpt>
<trkpt lat="32.585430145" lon="34.991844177">
  <ele>71.176392</ele>
  <time>2011-07-29T03:52:54Z</time>
  <speed>3.230000</speed>
</trkpt>
<trkpt lat="32.585388184" lon="34.991817474">
  <ele>71.918579</ele>
  <time>2011-07-29T03:52:56Z</time>
  <speed>2.280000</speed>
</trkpt>
<trkpt lat="32.585357666" lon="34.991790771">
  <ele>71.930298</ele>
  <time>2011-07-29T03:52:58Z</time>
  <speed>2.080000</speed>
</trkpt>
<trkpt lat="32.585319519" lon="34.991790771">
  <ele>73.881470</ele>
  <time>2011-07-29T03:53:00Z</time>
  <speed>2.520000</speed>
</trkpt>
<trkpt lat="32.585273743" lon="34.991809845">
  <ele>74.438110</ele>
  <time>2011-07-29T03:53:02Z</time>
  <speed>2.530000</speed>
</trkpt>
<trkpt lat="32.585231781" lon="34.991828918">
  <ele>74.231079</ele>
  <time>2011-07-29T03:53:04Z</time>
  <speed>2.260000</speed>
</trkpt>
<trkpt lat="32.585189819" lon="34.991847992">
  <ele>74.430298</ele>
  <time>2011-07-29T03:53:06Z</time>
  <speed>2.850000</speed>
</trkpt>
<trkpt lat="32.585144043" lon="34.991886139">
  <ele>73.934204</ele>
  <time>2011-07-29T03:53:08Z</time>
  <speed>3.390000</speed>
</trkpt>
<trkpt lat="32.585124969" lon="34.991920471">
  <ele>73.311157</ele>
  <time>2011-07-29T03:53:09Z</time>
  <speed>3.660000</speed>
</trkpt>
<trkpt lat="32.585098267" lon="34.991962433">
  <ele>72.731079</ele>
  <time>2011-07-29T03:53:10Z</time>
  <speed>3.640000</speed>
</trkpt>
<trkpt lat="32.585079193" lon="34.991996765">
  <ele>72.512329</ele>
  <time>2011-07-29T03:53:11Z</time>
  <speed>3.350000</speed>
</trkpt>
<trkpt lat="32.585067749" lon="34.992031097">
  <ele>72.320923</ele>
  <time>2011-07-29T03:53:12Z</time>
  <speed>2.860000</speed>
</trkpt>
<trkpt lat="32.585060120" lon="34.992065430">
  <ele>73.668579</ele>
  <time>2011-07-29T03:53:13Z</time>
  <speed>2.510000</speed>
</trkpt>
<trkpt lat="32.585048676" lon="34.992115021">
  <ele>74.846313</ele>
  <time>2011-07-29T03:53:15Z</time>
  <speed>2.780000</speed>
</trkpt>
<trkpt lat="32.585044861" lon="34.992149353">
  <ele>74.582642</ele>
  <time>2011-07-29T03:53:16Z</time>
  <speed>2.080000</speed>
</trkpt>
<trkpt lat="32.585044861" lon="34.992202759">
  <ele>75.141235</ele>
  <time>2011-07-29T03:53:18Z</time>
  <speed>2.060000</speed>
</trkpt>
<trkpt lat="32.585044861" lon="34.992252350">
  <ele>75.807251</ele>
  <time>2011-07-29T03:53:20Z</time>
  <speed>2.540000</speed>
</trkpt>
<trkpt lat="32.585056305" lon="34.992298126">
  <ele>76.379517</ele>
  <time>2011-07-29T03:53:22Z</time>
  <speed>2.300000</speed>
</trkpt>
<trkpt lat="32.585063934" lon="34.992343903">
  <ele>76.713501</ele>
  <time>2011-07-29T03:53:24Z</time>
  <speed>1.950000</speed>
</trkpt>
<trkpt lat="32.585052490" lon="34.992385864">
  <ele>77.037720</ele>
  <time>2011-07-29T03:53:26Z</time>
  <speed>2.070000</speed>
</trkpt>
<trkpt lat="32.585033417" lon="34.992420197">
  <ele>77.824829</ele>
  <time>2011-07-29T03:53:28Z</time>
  <speed>1.880000</speed>
</trkpt>
<trkpt lat="32.585006714" lon="34.992454529">
  <ele>77.758423</ele>
  <time>2011-07-29T03:53:30Z</time>
  <speed>1.860000</speed>
</trkpt>
<trkpt lat="32.584983826" lon="34.992492676">
  <ele>77.729126</ele>
  <time>2011-07-29T03:53:32Z</time>
  <speed>2.150000</speed>
</trkpt>
<trkpt lat="32.584980011" lon="34.992534637">
  <ele>78.000610</ele>
  <time>2011-07-29T03:53:34Z</time>
  <speed>2.180000</speed>
</trkpt>
<trkpt lat="32.584983826" lon="34.992584229">
  <ele>78.436157</ele>
  <time>2011-07-29T03:53:36Z</time>
  <speed>1.960000</speed>
</trkpt>
<trkpt lat="32.585006714" lon="34.992607117">
  <ele>78.621704</ele>
  <time>2011-07-29T03:53:38Z</time>
  <speed>1.650000</speed>
</trkpt>
<trkpt lat="32.585037231" lon="34.992618561">
  <ele>78.115845</ele>
  <time>2011-07-29T03:53:40Z</time>
  <speed>2.110000</speed>
</trkpt>
<trkpt lat="32.585063934" lon="34.992630005">
  <ele>77.899048</ele>
  <time>2011-07-29T03:53:41Z</time>
  <speed>2.450000</speed>
</trkpt>
<trkpt lat="32.585102081" lon="34.992645264">
  <ele>77.967407</ele>
  <time>2011-07-29T03:53:43Z</time>
  <speed>2.050000</speed>
</trkpt>
<trkpt lat="32.585136414" lon="34.992660522">
  <ele>79.229126</ele>
  <time>2011-07-29T03:53:45Z</time>
  <speed>2.180000</speed>
</trkpt>
<trkpt lat="32.585174561" lon="34.992683411">
  <ele>80.000610</ele>
  <time>2011-07-29T03:53:47Z</time>
  <speed>2.110000</speed>
</trkpt>
<trkpt lat="32.585208893" lon="34.992702484">
  <ele>80.701782</ele>
  <time>2011-07-29T03:53:49Z</time>
  <speed>2.170000</speed>
</trkpt>
<trkpt lat="32.585239410" lon="34.992725372">
  <ele>80.656860</ele>
  <time>2011-07-29T03:53:51Z</time>
  <speed>1.790000</speed>
</trkpt>
<trkpt lat="32.585273743" lon="34.992752075">
  <ele>81.678345</ele>
  <time>2011-07-29T03:53:53Z</time>
  <speed>1.980000</speed>
</trkpt>
<trkpt lat="32.585300446" lon="34.992782593">
  <ele>80.604126</ele>
  <time>2011-07-29T03:53:55Z</time>
  <speed>1.980000</speed>
</trkpt>
<trkpt lat="32.585308075" lon="34.992820740">
  <ele>81.076782</ele>
  <time>2011-07-29T03:53:57Z</time>
  <speed>1.860000</speed>
</trkpt>
<trkpt lat="32.585308075" lon="34.992858887">
  <ele>82.537720</ele>
  <time>2011-07-29T03:53:59Z</time>
  <speed>1.880000</speed>
</trkpt>
<trkpt lat="32.585300446" lon="34.992904663">
  <ele>82.686157</ele>
  <time>2011-07-29T03:54:01Z</time>
  <speed>2.020000</speed>
</trkpt>
<trkpt lat="32.585292816" lon="34.992942810">
  <ele>83.332642</ele>
  <time>2011-07-29T03:54:03Z</time>
  <speed>1.930000</speed>
</trkpt>
<trkpt lat="32.585296631" lon="34.992977142">
  <ele>84.467407</ele>
  <time>2011-07-29T03:54:05Z</time>
  <speed>1.730000</speed>
</trkpt>
<trkpt lat="32.585292816" lon="34.993015289">
  <ele>85.029907</ele>
  <time>2011-07-29T03:54:07Z</time>
  <speed>2.090000</speed>
</trkpt>
<trkpt lat="32.585300446" lon="34.993061066">
  <ele>84.500610</ele>
  <time>2011-07-29T03:54:09Z</time>
  <speed>1.750000</speed>
</trkpt>
<trkpt lat="32.585308075" lon="34.993095398">
  <ele>84.957642</ele>
  <time>2011-07-29T03:54:11Z</time>
  <speed>1.440000</speed>
</trkpt>
<trkpt lat="32.585319519" lon="34.993129730">
  <ele>85.277954</ele>
  <time>2011-07-29T03:54:13Z</time>
  <speed>1.540000</speed>
</trkpt>
<trkpt lat="32.585342407" lon="34.993167877">
  <ele>84.320923</ele>
  <time>2011-07-29T03:54:15Z</time>
  <speed>1.590000</speed>
</trkpt>
<trkpt lat="32.585365295" lon="34.993183136">
  <ele>84.971313</ele>
  <time>2011-07-29T03:54:17Z</time>
  <speed>1.670000</speed>
</trkpt>
<trkpt lat="32.585384369" lon="34.993217468">
  <ele>85.201782</ele>
  <time>2011-07-29T03:54:19Z</time>
  <speed>1.910000</speed>
</trkpt>
<trkpt lat="32.585414886" lon="34.993251801">
  <ele>84.840454</ele>
  <time>2011-07-29T03:54:21Z</time>
  <speed>2.160000</speed>
</trkpt>
<trkpt lat="32.585430145" lon="34.993278503">
  <ele>85.772095</ele>
  <time>2011-07-29T03:54:23Z</time>
  <speed>1.870000</speed>
</trkpt>
<trkpt lat="32.585453033" lon="34.993320465">
  <ele>85.285767</ele>
  <time>2011-07-29T03:54:26Z</time>
  <speed>1.620000</speed>
</trkpt>
<trkpt lat="32.585468292" lon="34.993354797">
  <ele>85.361938</ele>
  <time>2011-07-29T03:54:28Z</time>
  <speed>1.900000</speed>
</trkpt>
<trkpt lat="32.585487366" lon="34.993392944">
  <ele>85.803345</ele>
  <time>2011-07-29T03:54:30Z</time>
  <speed>2.310000</speed>
</trkpt>
<trkpt lat="32.585510254" lon="34.993438721">
  <ele>85.850220</ele>
  <time>2011-07-29T03:54:32Z</time>
  <speed>1.840000</speed>
</trkpt>
<trkpt lat="32.585521698" lon="34.993476868">
  <ele>86.631470</ele>
  <time>2011-07-29T03:54:34Z</time>
  <speed>1.730000</speed>
</trkpt>
<trkpt lat="32.585525513" lon="34.993507385">
  <ele>88.035767</ele>
  <time>2011-07-29T03:54:36Z</time>
  <speed>1.690000</speed>
</trkpt>
<trkpt lat="32.585514069" lon="34.993537903">
  <ele>89.238892</ele>
  <time>2011-07-29T03:54:38Z</time>
  <speed>1.860000</speed>
</trkpt>
<trkpt lat="32.585498810" lon="34.993572235">
  <ele>89.293579</ele>
  <time>2011-07-29T03:54:40Z</time>
  <speed>1.670000</speed>
</trkpt>
<trkpt lat="32.585498810" lon="34.993606567">
  <ele>89.617798</ele>
  <time>2011-07-29T03:54:42Z</time>
  <speed>1.420000</speed>
</trkpt>
<trkpt lat="32.585498810" lon="34.993637085">
  <ele>90.352173</ele>
  <time>2011-07-29T03:54:44Z</time>
  <speed>1.740000</speed>
</trkpt>
<trkpt lat="32.585506439" lon="34.993679047">
  <ele>91.391235</ele>
  <time>2011-07-29T03:54:46Z</time>
  <speed>1.580000</speed>
</trkpt>
<trkpt lat="32.585521698" lon="34.993721008">
  <ele>90.949829</ele>
  <time>2011-07-29T03:54:48Z</time>
  <speed>1.750000</speed>
</trkpt>
<trkpt lat="32.585525513" lon="34.993755341">
  <ele>92.188110</ele>
  <time>2011-07-29T03:54:50Z</time>
  <speed>1.890000</speed>
</trkpt>
<trkpt lat="32.585529327" lon="34.993797302">
  <ele>94.076782</ele>
  <time>2011-07-29T03:54:53Z</time>
  <speed>1.410000</speed>
</trkpt>
<trkpt lat="32.585540771" lon="34.993827820">
  <ele>94.807251</ele>
  <time>2011-07-29T03:54:55Z</time>
  <speed>1.400000</speed>
</trkpt>
<trkpt lat="32.585556030" lon="34.993869781">
  <ele>94.609985</ele>
  <time>2011-07-29T03:54:57Z</time>
  <speed>1.650000</speed>
</trkpt>
<trkpt lat="32.585563660" lon="34.993900299">
  <ele>94.654907</ele>
  <time>2011-07-29T03:54:59Z</time>
  <speed>1.730000</speed>
</trkpt>
<trkpt lat="32.585578918" lon="34.993930817">
  <ele>94.865845</ele>
  <time>2011-07-29T03:55:01Z</time>
  <speed>1.710000</speed>
</trkpt>
<trkpt lat="32.585601807" lon="34.993965149">
  <ele>94.483032</ele>
  <time>2011-07-29T03:55:04Z</time>
  <speed>1.600000</speed>
</trkpt>
<trkpt lat="32.585613251" lon="34.993995667">
  <ele>95.094360</ele>
  <time>2011-07-29T03:55:06Z</time>
  <speed>1.860000</speed>
</trkpt>
<trkpt lat="32.585632324" lon="34.994037628">
  <ele>95.098267</ele>
  <time>2011-07-29T03:55:08Z</time>
  <speed>1.300000</speed>
</trkpt>
<trkpt lat="32.585651398" lon="34.994068146">
  <ele>94.572876</ele>
  <time>2011-07-29T03:55:10Z</time>
  <speed>1.430000</speed>
</trkpt>
<trkpt lat="32.585666656" lon="34.994098663">
  <ele>94.711548</ele>
  <time>2011-07-29T03:55:12Z</time>
  <speed>1.730000</speed>
</trkpt>
<trkpt lat="32.585681915" lon="34.994125366">
  <ele>94.818970</ele>
  <time>2011-07-29T03:55:14Z</time>
  <speed>1.540000</speed>
</trkpt>
<trkpt lat="32.585693359" lon="34.994155884">
  <ele>95.395142</ele>
  <time>2011-07-29T03:55:16Z</time>
  <speed>1.550000</speed>
</trkpt>
<trkpt lat="32.585712433" lon="34.994197845">
  <ele>95.143188</ele>
  <time>2011-07-29T03:55:18Z</time>
  <speed>1.580000</speed>
</trkpt>
<trkpt lat="32.585681915" lon="34.994228363">
  <ele>95.656860</ele>
  <time>2011-07-29T03:55:21Z</time>
  <speed>1.590000</speed>
</trkpt>
<trkpt lat="32.585643768" lon="34.994228363">
  <ele>96.922485</ele>
  <time>2011-07-29T03:55:24Z</time>
  <speed>1.430000</speed>
</trkpt>
<trkpt lat="32.585617065" lon="34.994232178">
  <ele>97.348267</ele>
  <time>2011-07-29T03:55:26Z</time>
  <speed>1.420000</speed>
</trkpt>
<trkpt lat="32.585594177" lon="34.994247437">
  <ele>97.451782</ele>
  <time>2011-07-29T03:55:28Z</time>
  <speed>1.110000</speed>
</trkpt>
<trkpt lat="32.585578918" lon="34.994277954">
  <ele>98.215454</ele>
  <time>2011-07-29T03:55:30Z</time>
  <speed>1.390000</speed>
</trkpt>
<trkpt lat="32.585563660" lon="34.994300842">
  <ele>99.266235</ele>
  <time>2011-07-29T03:55:32Z</time>
  <speed>1.290000</speed>
</trkpt>
<trkpt lat="32.585544586" lon="34.994327545">
  <ele>100.338501</ele>
  <time>2011-07-29T03:55:34Z</time>
  <speed>1.570000</speed>
</trkpt>
<trkpt lat="32.585525513" lon="34.994354248">
  <ele>101.506470</ele>
  <time>2011-07-29T03:55:38Z</time>
  <speed>0.790000</speed>
</trkpt>
<trkpt lat="32.585514069" lon="34.994384766">
  <ele>100.957642</ele>
  <time>2011-07-29T03:55:42Z</time>
  <speed>0.540000</speed>
</trkpt>
<trkpt lat="32.585494995" lon="34.994411469">
  <ele>99.979126</ele>
  <time>2011-07-29T03:55:46Z</time>
  <speed>0.280000</speed>
</trkpt>
<trkpt lat="32.585483551" lon="34.994438171">
  <ele>99.635376</ele>
  <time>2011-07-29T03:55:51Z</time>
  <speed>1.060000</speed>
</trkpt>
<trkpt lat="32.585449219" lon="34.994434357">
  <ele>99.832642</ele>
  <time>2011-07-29T03:55:54Z</time>
  <speed>1.060000</speed>
</trkpt>
<trkpt lat="32.585426331" lon="34.994457245">
  <ele>100.889282</ele>
  <time>2011-07-29T03:55:57Z</time>
  <speed>1.390000</speed>
</trkpt>
<trkpt lat="32.585414886" lon="34.994483948">
  <ele>101.072876</ele>
  <time>2011-07-29T03:55:59Z</time>
  <speed>1.190000</speed>
</trkpt>
<trkpt lat="32.585391998" lon="34.994518280">
  <ele>101.567017</ele>
  <time>2011-07-29T03:56:01Z</time>
  <speed>1.440000</speed>
</trkpt>
<trkpt lat="32.585369110" lon="34.994544983">
  <ele>102.910767</ele>
  <time>2011-07-29T03:56:03Z</time>
  <speed>1.330000</speed>
</trkpt>
<trkpt lat="32.585342407" lon="34.994571686">
  <ele>103.963501</ele>
  <time>2011-07-29T03:56:05Z</time>
  <speed>1.480000</speed>
</trkpt>
<trkpt lat="32.585327148" lon="34.994602203">
  <ele>105.152954</ele>
  <time>2011-07-29T03:56:07Z</time>
  <speed>1.700000</speed>
</trkpt>
<trkpt lat="32.585311890" lon="34.994640350">
  <ele>106.279907</ele>
  <time>2011-07-29T03:56:09Z</time>
  <speed>1.400000</speed>
</trkpt>
<trkpt lat="32.585300446" lon="34.994686127">
  <ele>106.649048</ele>
  <time>2011-07-29T03:56:12Z</time>
  <speed>1.800000</speed>
</trkpt>
<trkpt lat="32.585289001" lon="34.994724274">
  <ele>107.188110</ele>
  <time>2011-07-29T03:56:14Z</time>
  <speed>1.850000</speed>
</trkpt>
<trkpt lat="32.585269928" lon="34.994750977">
  <ele>107.334595</ele>
  <time>2011-07-29T03:56:16Z</time>
  <speed>1.760000</speed>
</trkpt>
<trkpt lat="32.585254669" lon="34.994777679">
  <ele>107.465454</ele>
  <time>2011-07-29T03:56:18Z</time>
  <speed>1.740000</speed>
</trkpt>
<trkpt lat="32.585227966" lon="34.994812012">
  <ele>106.943970</ele>
  <time>2011-07-29T03:56:21Z</time>
  <speed>1.720000</speed>
</trkpt>
<trkpt lat="32.585212708" lon="34.994842529">
  <ele>106.567017</ele>
  <time>2011-07-29T03:56:23Z</time>
  <speed>1.620000</speed>
</trkpt>
<trkpt lat="32.585197449" lon="34.994869232">
  <ele>106.990845</ele>
  <time>2011-07-29T03:56:25Z</time>
  <speed>1.720000</speed>
</trkpt>
<trkpt lat="32.585182190" lon="34.994907379">
  <ele>107.096313</ele>
  <time>2011-07-29T03:56:27Z</time>
  <speed>1.690000</speed>
</trkpt>
<trkpt lat="32.585163116" lon="34.994934082">
  <ele>107.484985</ele>
  <time>2011-07-29T03:56:29Z</time>
  <speed>1.820000</speed>
</trkpt>
<trkpt lat="32.585151672" lon="34.994968414">
  <ele>107.567017</ele>
  <time>2011-07-29T03:56:31Z</time>
  <speed>1.500000</speed>
</trkpt>
<trkpt lat="32.585136414" lon="34.994998932">
  <ele>108.432251</ele>
  <time>2011-07-29T03:56:33Z</time>
  <speed>1.710000</speed>
</trkpt>
<trkpt lat="32.585132599" lon="34.995037079">
  <ele>108.639282</ele>
  <time>2011-07-29T03:56:35Z</time>
  <speed>1.670000</speed>
</trkpt>
<trkpt lat="32.585128784" lon="34.995071411">
  <ele>108.625610</ele>
  <time>2011-07-29T03:56:37Z</time>
  <speed>1.710000</speed>
</trkpt>
<trkpt lat="32.585136414" lon="34.995117188">
  <ele>109.408813</ele>
  <time>2011-07-29T03:56:39Z</time>
  <speed>1.860000</speed>
</trkpt>
<trkpt lat="32.585155487" lon="34.995159149">
  <ele>110.397095</ele>
  <time>2011-07-29T03:56:41Z</time>
  <speed>1.770000</speed>
</trkpt>
<trkpt lat="32.585178375" lon="34.995197296">
  <ele>110.055298</ele>
  <time>2011-07-29T03:56:43Z</time>
  <speed>2.030000</speed>
</trkpt>
<trkpt lat="32.585201263" lon="34.995223999">
  <ele>110.221313</ele>
  <time>2011-07-29T03:56:45Z</time>
  <speed>1.780000</speed>
</trkpt>
<trkpt lat="32.585224152" lon="34.995250702">
  <ele>110.606079</ele>
  <time>2011-07-29T03:56:48Z</time>
  <speed>1.610000</speed>
</trkpt>
<trkpt lat="32.585250854" lon="34.995277405">
  <ele>110.723267</ele>
  <time>2011-07-29T03:56:50Z</time>
  <speed>1.510000</speed>
</trkpt>
<trkpt lat="32.585273743" lon="34.995319366">
  <ele>111.608032</ele>
  <time>2011-07-29T03:56:53Z</time>
  <speed>1.340000</speed>
</trkpt>
<trkpt lat="32.585296631" lon="34.995338440">
  <ele>110.906860</ele>
  <time>2011-07-29T03:56:55Z</time>
  <speed>1.610000</speed>
</trkpt>
<trkpt lat="32.585330963" lon="34.995368958">
  <ele>111.289673</ele>
  <time>2011-07-29T03:56:58Z</time>
  <speed>1.690000</speed>
</trkpt>
<trkpt lat="32.585361481" lon="34.995388031">
  <ele>111.930298</ele>
  <time>2011-07-29T03:57:01Z</time>
  <speed>1.290000</speed>
</trkpt>
<trkpt lat="32.585384369" lon="34.995368958">
  <ele>112.938110</ele>
  <time>2011-07-29T03:57:04Z</time>
  <speed>1.210000</speed>
</trkpt>
<trkpt lat="32.585418701" lon="34.995357513">
  <ele>112.963501</ele>
  <time>2011-07-29T03:57:07Z</time>
  <speed>1.730000</speed>
</trkpt>
<trkpt lat="32.585445404" lon="34.995342255">
  <ele>112.565063</ele>
  <time>2011-07-29T03:57:09Z</time>
  <speed>1.680000</speed>
</trkpt>
<trkpt lat="32.585472107" lon="34.995326996">
  <ele>112.596313</ele>
  <time>2011-07-29T03:57:11Z</time>
  <speed>1.700000</speed>
</trkpt>
<trkpt lat="32.585498810" lon="34.995319366">
  <ele>112.238892</ele>
  <time>2011-07-29T03:57:13Z</time>
  <speed>1.780000</speed>
</trkpt>
<trkpt lat="32.585529327" lon="34.995311737">
  <ele>112.254517</ele>
  <time>2011-07-29T03:57:15Z</time>
  <speed>1.890000</speed>
</trkpt>
<trkpt lat="32.585567474" lon="34.995311737">
  <ele>113.111938</ele>
  <time>2011-07-29T03:57:17Z</time>
  <speed>1.840000</speed>
</trkpt>
<trkpt lat="32.585605621" lon="34.995319366">
  <ele>113.041626</ele>
  <time>2011-07-29T03:57:19Z</time>
  <speed>1.750000</speed>
</trkpt>
<trkpt lat="32.585639954" lon="34.995338440">
  <ele>112.463501</ele>
  <time>2011-07-29T03:57:21Z</time>
  <speed>1.510000</speed>
</trkpt>
<trkpt lat="32.585662842" lon="34.995361328">
  <ele>111.926392</ele>
  <time>2011-07-29T03:57:23Z</time>
  <speed>1.540000</speed>
</trkpt>
<trkpt lat="32.585678101" lon="34.995391846">
  <ele>111.551392</ele>
  <time>2011-07-29T03:57:25Z</time>
  <speed>1.690000</speed>
</trkpt>
<trkpt lat="32.585689545" lon="34.995429993">
  <ele>112.256470</ele>
  <time>2011-07-29T03:57:27Z</time>
  <speed>1.530000</speed>
</trkpt>
<trkpt lat="32.585704803" lon="34.995471954">
  <ele>112.986938</ele>
  <time>2011-07-29T03:57:29Z</time>
  <speed>1.940000</speed>
</trkpt>
<trkpt lat="32.585712433" lon="34.995510101">
  <ele>113.992798</ele>
  <time>2011-07-29T03:57:31Z</time>
  <speed>1.830000</speed>
</trkpt>
<trkpt lat="32.585720062" lon="34.995544434">
  <ele>115.018188</ele>
  <time>2011-07-29T03:57:33Z</time>
  <speed>1.360000</speed>
</trkpt>
<trkpt lat="32.585712433" lon="34.995578766">
  <ele>116.305298</ele>
  <time>2011-07-29T03:57:36Z</time>
  <speed>1.240000</speed>
</trkpt>
<trkpt lat="32.585700989" lon="34.995609283">
  <ele>117.213501</ele>
  <time>2011-07-29T03:57:38Z</time>
  <speed>1.490000</speed>
</trkpt>
<trkpt lat="32.585681915" lon="34.995628357">
  <ele>118.242798</ele>
  <time>2011-07-29T03:57:40Z</time>
  <speed>1.220000</speed>
</trkpt>
<trkpt lat="32.585662842" lon="34.995651245">
  <ele>118.596313</ele>
  <time>2011-07-29T03:57:42Z</time>
  <speed>1.520000</speed>
</trkpt>
<trkpt lat="32.585647583" lon="34.995685577">
  <ele>118.608032</ele>
  <time>2011-07-29T03:57:44Z</time>
  <speed>1.570000</speed>
</trkpt>
<trkpt lat="32.585655212" lon="34.995719910">
  <ele>119.430298</ele>
  <time>2011-07-29T03:57:46Z</time>
  <speed>1.390000</speed>
</trkpt>
<trkpt lat="32.585674286" lon="34.995746613">
  <ele>119.418579</ele>
  <time>2011-07-29T03:57:48Z</time>
  <speed>1.560000</speed>
</trkpt>
<trkpt lat="32.585716248" lon="34.995769501">
  <ele>120.254517</ele>
  <time>2011-07-29T03:57:50Z</time>
  <speed>1.710000</speed>
</trkpt>
<trkpt lat="32.585750580" lon="34.995773315">
  <ele>120.215454</ele>
  <time>2011-07-29T03:57:52Z</time>
  <speed>1.440000</speed>
</trkpt>
<trkpt lat="32.585777283" lon="34.995777130">
  <ele>120.553345</ele>
  <time>2011-07-29T03:57:54Z</time>
  <speed>1.650000</speed>
</trkpt>
<trkpt lat="32.585807800" lon="34.995777130">
  <ele>121.026001</ele>
  <time>2011-07-29T03:57:56Z</time>
  <speed>1.520000</speed>
</trkpt>
<trkpt lat="32.585838318" lon="34.995777130">
  <ele>120.598267</ele>
  <time>2011-07-29T03:57:58Z</time>
  <speed>1.670000</speed>
</trkpt>
<trkpt lat="32.585872650" lon="34.995777130">
  <ele>120.244751</ele>
  <time>2011-07-29T03:58:00Z</time>
  <speed>2.070000</speed>
</trkpt>
<trkpt lat="32.585914612" lon="34.995773315">
  <ele>119.666626</ele>
  <time>2011-07-29T03:58:02Z</time>
  <speed>2.160000</speed>
</trkpt>
<trkpt lat="32.585945129" lon="34.995777130">
  <ele>119.817017</ele>
  <time>2011-07-29T03:58:04Z</time>
  <speed>1.960000</speed>
</trkpt>
<trkpt lat="32.585975647" lon="34.995777130">
  <ele>120.127563</ele>
  <time>2011-07-29T03:58:06Z</time>
  <speed>1.570000</speed>
</trkpt>
<trkpt lat="32.586009979" lon="34.995769501">
  <ele>119.988892</ele>
  <time>2011-07-29T03:58:08Z</time>
  <speed>2.470000</speed>
</trkpt>
<trkpt lat="32.586055756" lon="34.995777130">
  <ele>118.986938</ele>
  <time>2011-07-29T03:58:10Z</time>
  <speed>2.190000</speed>
</trkpt>
<trkpt lat="32.586086273" lon="34.995777130">
  <ele>118.416626</ele>
  <time>2011-07-29T03:58:12Z</time>
  <speed>1.980000</speed>
</trkpt>
<trkpt lat="32.586124420" lon="34.995773315">
  <ele>118.891235</ele>
  <time>2011-07-29T03:58:14Z</time>
  <speed>2.120000</speed>
</trkpt>
<trkpt lat="32.586162567" lon="34.995780945">
  <ele>117.961548</ele>
  <time>2011-07-29T03:58:16Z</time>
  <speed>1.930000</speed>
</trkpt>
<trkpt lat="32.586200714" lon="34.995788574">
  <ele>118.629517</ele>
  <time>2011-07-29T03:58:18Z</time>
  <speed>2.110000</speed>
</trkpt>
<trkpt lat="32.586238861" lon="34.995792389">
  <ele>119.535767</ele>
  <time>2011-07-29T03:58:20Z</time>
  <speed>2.000000</speed>
</trkpt>
<trkpt lat="32.586277008" lon="34.995796204">
  <ele>120.231079</ele>
  <time>2011-07-29T03:58:22Z</time>
  <speed>1.900000</speed>
</trkpt>
<trkpt lat="32.586311340" lon="34.995811462">
  <ele>120.041626</ele>
  <time>2011-07-29T03:58:24Z</time>
  <speed>1.620000</speed>
</trkpt>
<trkpt lat="32.586349487" lon="34.995819092">
  <ele>120.274048</ele>
  <time>2011-07-29T03:58:26Z</time>
  <speed>1.810000</speed>
</trkpt>
<trkpt lat="32.586395264" lon="34.995822906">
  <ele>122.068970</ele>
  <time>2011-07-29T03:58:28Z</time>
  <speed>1.770000</speed>
</trkpt>
<trkpt lat="32.586429596" lon="34.995834351">
  <ele>122.910767</ele>
  <time>2011-07-29T03:58:30Z</time>
  <speed>2.100000</speed>
</trkpt>
<trkpt lat="32.586460114" lon="34.995857239">
  <ele>123.053345</ele>
  <time>2011-07-29T03:58:32Z</time>
  <speed>1.910000</speed>
</trkpt>
<trkpt lat="32.586505890" lon="34.995849609">
  <ele>122.920532</ele>
  <time>2011-07-29T03:58:34Z</time>
  <speed>1.750000</speed>
</trkpt>
<trkpt lat="32.586536407" lon="34.995822906">
  <ele>121.832642</ele>
  <time>2011-07-29T03:58:36Z</time>
  <speed>2.110000</speed>
</trkpt>
<trkpt lat="32.586555481" lon="34.995800018">
  <ele>122.106079</ele>
  <time>2011-07-29T03:58:37Z</time>
  <speed>3.340000</speed>
</trkpt>
<trkpt lat="32.586585999" lon="34.995780945">
  <ele>122.766235</ele>
  <time>2011-07-29T03:58:38Z</time>
  <speed>3.860000</speed>
</trkpt>
<trkpt lat="32.586624146" lon="34.995769501">
  <ele>121.846313</ele>
  <time>2011-07-29T03:58:39Z</time>
  <speed>4.350000</speed>
</trkpt>
<trkpt lat="32.586666107" lon="34.995773315">
  <ele>121.596313</ele>
  <time>2011-07-29T03:58:40Z</time>
  <speed>4.410000</speed>
</trkpt>
<trkpt lat="32.586704254" lon="34.995792389">
  <ele>121.658813</ele>
  <time>2011-07-29T03:58:41Z</time>
  <speed>4.300000</speed>
</trkpt>
<trkpt lat="32.586723328" lon="34.995819092">
  <ele>121.465454</ele>
  <time>2011-07-29T03:58:42Z</time>
  <speed>3.350000</speed>
</trkpt>
<trkpt lat="32.586727142" lon="34.995853424">
  <ele>120.643188</ele>
  <time>2011-07-29T03:58:43Z</time>
  <speed>2.430000</speed>
</trkpt>
<trkpt lat="32.586730957" lon="34.995899200">
  <ele>120.846313</ele>
  <time>2011-07-29T03:58:45Z</time>
  <speed>1.950000</speed>
</trkpt>
<trkpt lat="32.586723328" lon="34.995944977">
  <ele>120.236938</ele>
  <time>2011-07-29T03:58:47Z</time>
  <speed>2.110000</speed>
</trkpt>
<trkpt lat="32.586715698" lon="34.995986938">
  <ele>120.609985</ele>
  <time>2011-07-29T03:58:49Z</time>
  <speed>2.020000</speed>
</trkpt>
<trkpt lat="32.586692810" lon="34.996013641">
  <ele>120.938110</ele>
  <time>2011-07-29T03:58:51Z</time>
  <speed>1.630000</speed>
</trkpt>
<trkpt lat="32.586669922" lon="34.996040344">
  <ele>121.586548</ele>
  <time>2011-07-29T03:58:53Z</time>
  <speed>1.500000</speed>
</trkpt>
<trkpt lat="32.586647034" lon="34.996059418">
  <ele>122.318970</ele>
  <time>2011-07-29T03:58:55Z</time>
  <speed>1.510000</speed>
</trkpt>
<trkpt lat="32.586635590" lon="34.996093750">
  <ele>122.594360</ele>
  <time>2011-07-29T03:58:57Z</time>
  <speed>1.440000</speed>
</trkpt>
<trkpt lat="32.586639404" lon="34.996128082">
  <ele>123.879517</ele>
  <time>2011-07-29T03:58:59Z</time>
  <speed>1.660000</speed>
</trkpt>
<trkpt lat="32.586650848" lon="34.996170044">
  <ele>124.805298</ele>
  <time>2011-07-29T03:59:01Z</time>
  <speed>1.900000</speed>
</trkpt>
<trkpt lat="32.586662292" lon="34.996212006">
  <ele>124.799438</ele>
  <time>2011-07-29T03:59:03Z</time>
  <speed>1.650000</speed>
</trkpt>
<trkpt lat="32.586669922" lon="34.996250153">
  <ele>124.227173</ele>
  <time>2011-07-29T03:59:05Z</time>
  <speed>1.790000</speed>
</trkpt>
<trkpt lat="32.586673737" lon="34.996284485">
  <ele>123.963501</ele>
  <time>2011-07-29T03:59:07Z</time>
  <speed>1.570000</speed>
</trkpt>
<trkpt lat="32.586685181" lon="34.996322632">
  <ele>124.662720</ele>
  <time>2011-07-29T03:59:09Z</time>
  <speed>1.830000</speed>
</trkpt>
<trkpt lat="32.586700439" lon="34.996356964">
  <ele>125.088501</ele>
  <time>2011-07-29T03:59:11Z</time>
  <speed>1.430000</speed>
</trkpt>
<trkpt lat="32.586711884" lon="34.996387482">
  <ele>125.959595</ele>
  <time>2011-07-29T03:59:13Z</time>
  <speed>1.740000</speed>
</trkpt>
<trkpt lat="32.586719513" lon="34.996433258">
  <ele>127.402954</ele>
  <time>2011-07-29T03:59:16Z</time>
  <speed>1.480000</speed>
</trkpt>
<trkpt lat="32.586719513" lon="34.996467590">
  <ele>128.188721</ele>
  <time>2011-07-29T03:59:18Z</time>
  <speed>1.710000</speed>
</trkpt>
<trkpt lat="32.586727142" lon="34.996509552">
  <ele>128.966064</ele>
  <time>2011-07-29T03:59:20Z</time>
  <speed>1.750000</speed>
</trkpt>
<trkpt lat="32.586734772" lon="34.996543884">
  <ele>129.290283</ele>
  <time>2011-07-29T03:59:22Z</time>
  <speed>1.470000</speed>
</trkpt>
<trkpt lat="32.586742401" lon="34.996589661">
  <ele>130.817627</ele>
  <time>2011-07-29T03:59:25Z</time>
  <speed>1.440000</speed>
</trkpt>
<trkpt lat="32.586738586" lon="34.996616364">
  <ele>132.298096</ele>
  <time>2011-07-29T03:59:27Z</time>
  <speed>1.230000</speed>
</trkpt>
<trkpt lat="32.586746216" lon="34.996650696">
  <ele>133.118408</ele>
  <time>2011-07-29T03:59:29Z</time>
  <speed>1.650000</speed>
</trkpt>
<trkpt lat="32.586750031" lon="34.996700287">
  <ele>134.493408</ele>
  <time>2011-07-29T03:59:32Z</time>
  <speed>1.400000</speed>
</trkpt>
<trkpt lat="32.586765289" lon="34.996738434">
  <ele>135.184814</ele>
  <time>2011-07-29T03:59:35Z</time>
  <speed>1.600000</speed>
</trkpt>
<trkpt lat="32.586784363" lon="34.996765137">
  <ele>135.091064</ele>
  <time>2011-07-29T03:59:37Z</time>
  <speed>1.310000</speed>
</trkpt>
<trkpt lat="32.586791992" lon="34.996795654">
  <ele>135.024658</ele>
  <time>2011-07-29T03:59:39Z</time>
  <speed>1.700000</speed>
</trkpt>
<trkpt lat="32.586803436" lon="34.996826172">
  <ele>134.516846</ele>
  <time>2011-07-29T03:59:41Z</time>
  <speed>1.580000</speed>
</trkpt>
<trkpt lat="32.586826324" lon="34.996852875">
  <ele>133.809814</ele>
  <time>2011-07-29T03:59:43Z</time>
  <speed>1.260000</speed>
</trkpt>
<trkpt lat="32.586845398" lon="34.996875763">
  <ele>133.028564</ele>
  <time>2011-07-29T03:59:45Z</time>
  <speed>1.400000</speed>
</trkpt>
<trkpt lat="32.586853027" lon="34.996917725">
  <ele>132.876221</ele>
  <time>2011-07-29T03:59:48Z</time>
  <speed>1.740000</speed>
</trkpt>
<trkpt lat="32.586879730" lon="34.996944427">
  <ele>132.180908</ele>
  <time>2011-07-29T03:59:50Z</time>
  <speed>1.810000</speed>
</trkpt>
<trkpt lat="32.586894989" lon="34.996982574">
  <ele>132.716064</ele>
  <time>2011-07-29T03:59:53Z</time>
  <speed>1.170000</speed>
</trkpt>
<trkpt lat="32.586879730" lon="34.997016907">
  <ele>134.192627</ele>
  <time>2011-07-29T03:59:56Z</time>
  <speed>1.090000</speed>
</trkpt>
<trkpt lat="32.586864471" lon="34.997051239">
  <ele>134.532471</ele>
  <time>2011-07-29T03:59:59Z</time>
  <speed>1.380000</speed>
</trkpt>
<trkpt lat="32.586841583" lon="34.997070313">
  <ele>136.052002</ele>
  <time>2011-07-29T04:00:01Z</time>
  <speed>1.450000</speed>
</trkpt>
<trkpt lat="32.586822510" lon="34.997093201">
  <ele>136.876221</ele>
  <time>2011-07-29T04:00:03Z</time>
  <speed>1.440000</speed>
</trkpt>
<trkpt lat="32.586803436" lon="34.997127533">
  <ele>138.251221</ele>
  <time>2011-07-29T04:00:05Z</time>
  <speed>1.670000</speed>
</trkpt>
<trkpt lat="32.586788177" lon="34.997154236">
  <ele>138.247314</ele>
  <time>2011-07-29T04:00:07Z</time>
  <speed>1.510000</speed>
</trkpt>
<trkpt lat="32.586772919" lon="34.997188568">
  <ele>139.227783</ele>
  <time>2011-07-29T04:00:09Z</time>
  <speed>1.430000</speed>
</trkpt>
<trkpt lat="32.586753845" lon="34.997219086">
  <ele>141.469971</ele>
  <time>2011-07-29T04:00:11Z</time>
  <speed>1.590000</speed>
</trkpt>
<trkpt lat="32.586730957" lon="34.997241974">
  <ele>142.618408</ele>
  <time>2011-07-29T04:00:13Z</time>
  <speed>1.260000</speed>
</trkpt>
<trkpt lat="32.586727142" lon="34.997272491">
  <ele>143.598877</ele>
  <time>2011-07-29T04:00:15Z</time>
  <speed>1.310000</speed>
</trkpt>
<trkpt lat="32.586719513" lon="34.997306824">
  <ele>143.036377</ele>
  <time>2011-07-29T04:00:17Z</time>
  <speed>1.480000</speed>
</trkpt>
<trkpt lat="32.586715698" lon="34.997341156">
  <ele>143.020752</ele>
  <time>2011-07-29T04:00:19Z</time>
  <speed>1.590000</speed>
</trkpt>
<trkpt lat="32.586730957" lon="34.997383118">
  <ele>143.450439</ele>
  <time>2011-07-29T04:00:21Z</time>
  <speed>1.580000</speed>
</trkpt>
<trkpt lat="32.586753845" lon="34.997409821">
  <ele>143.700439</ele>
  <time>2011-07-29T04:00:23Z</time>
  <speed>1.630000</speed>
</trkpt>
<trkpt lat="32.586788177" lon="34.997406006">
  <ele>144.266846</ele>
  <time>2011-07-29T04:00:25Z</time>
  <speed>1.570000</speed>
</trkpt>
<trkpt lat="32.586822510" lon="34.997375488">
  <ele>144.102783</ele>
  <time>2011-07-29T04:00:27Z</time>
  <speed>2.380000</speed>
</trkpt>
<trkpt lat="32.586853027" lon="34.997329712">
  <ele>143.251221</ele>
  <time>2011-07-29T04:00:29Z</time>
  <speed>1.760000</speed>
</trkpt>
<trkpt lat="32.586872101" lon="34.997303009">
  <ele>143.227783</ele>
  <time>2011-07-29T04:00:31Z</time>
  <speed>1.600000</speed>
</trkpt>
<trkpt lat="32.586898804" lon="34.997280121">
  <ele>142.501221</ele>
  <time>2011-07-29T04:00:33Z</time>
  <speed>1.860000</speed>
</trkpt>
<trkpt lat="32.586936951" lon="34.997253418">
  <ele>142.946533</ele>
  <time>2011-07-29T04:00:35Z</time>
  <speed>2.190000</speed>
</trkpt>
<trkpt lat="32.586967468" lon="34.997226715">
  <ele>143.126221</ele>
  <time>2011-07-29T04:00:37Z</time>
  <speed>2.010000</speed>
</trkpt>
<trkpt lat="32.586997986" lon="34.997211456">
  <ele>142.634033</ele>
  <time>2011-07-29T04:00:39Z</time>
  <speed>1.870000</speed>
</trkpt>
<trkpt lat="32.587032318" lon="34.997196198">
  <ele>142.407471</ele>
  <time>2011-07-29T04:00:41Z</time>
  <speed>1.800000</speed>
</trkpt>
<trkpt lat="32.587055206" lon="34.997169495">
  <ele>142.286377</ele>
  <time>2011-07-29T04:00:43Z</time>
  <speed>1.730000</speed>
</trkpt>
<trkpt lat="32.587081909" lon="34.997142792">
  <ele>142.005127</ele>
  <time>2011-07-29T04:00:45Z</time>
  <speed>2.200000</speed>
</trkpt>
<trkpt lat="32.587116241" lon="34.997123718">
  <ele>141.794189</ele>
  <time>2011-07-29T04:00:47Z</time>
  <speed>1.780000</speed>
</trkpt>
<trkpt lat="32.587139130" lon="34.997100830">
  <ele>142.130127</ele>
  <time>2011-07-29T04:00:49Z</time>
  <speed>1.530000</speed>
</trkpt>
<trkpt lat="32.587162018" lon="34.997081757">
  <ele>141.458252</ele>
  <time>2011-07-29T04:00:51Z</time>
  <speed>1.880000</speed>
</trkpt>
<trkpt lat="32.587196350" lon="34.997051239">
  <ele>140.548096</ele>
  <time>2011-07-29T04:00:53Z</time>
  <speed>2.100000</speed>
</trkpt>
<trkpt lat="32.587226868" lon="34.997020721">
  <ele>140.321533</ele>
  <time>2011-07-29T04:00:55Z</time>
  <speed>1.910000</speed>
</trkpt>
<trkpt lat="32.587257385" lon="34.996982574">
  <ele>140.219971</ele>
  <time>2011-07-29T04:00:57Z</time>
  <speed>2.400000</speed>
</trkpt>
<trkpt lat="32.587287903" lon="34.996948242">
  <ele>140.196533</ele>
  <time>2011-07-29T04:00:59Z</time>
  <speed>2.180000</speed>
</trkpt>
<trkpt lat="32.587310791" lon="34.996925354">
  <ele>139.200439</ele>
  <time>2011-07-29T04:01:01Z</time>
  <speed>1.610000</speed>
</trkpt>
<trkpt lat="32.587341309" lon="34.996906281">
  <ele>138.934814</ele>
  <time>2011-07-29T04:01:03Z</time>
  <speed>1.790000</speed>
</trkpt>
<trkpt lat="32.587375641" lon="34.996879578">
  <ele>139.360596</ele>
  <time>2011-07-29T04:01:05Z</time>
  <speed>2.060000</speed>
</trkpt>
<trkpt lat="32.587406158" lon="34.996860504">
  <ele>140.055908</ele>
  <time>2011-07-29T04:01:07Z</time>
  <speed>2.260000</speed>
</trkpt>
<trkpt lat="32.587440491" lon="34.996845245">
  <ele>140.274658</ele>
  <time>2011-07-29T04:01:09Z</time>
  <speed>2.060000</speed>
</trkpt>
<trkpt lat="32.587474823" lon="34.996841431">
  <ele>140.399658</ele>
  <time>2011-07-29T04:01:11Z</time>
  <speed>1.670000</speed>
</trkpt>
<trkpt lat="32.587505341" lon="34.996833801">
  <ele>141.180908</ele>
  <time>2011-07-29T04:01:13Z</time>
  <speed>2.000000</speed>
</trkpt>
<trkpt lat="32.587543488" lon="34.996822357">
  <ele>141.610596</ele>
  <time>2011-07-29T04:01:15Z</time>
  <speed>2.100000</speed>
</trkpt>
<trkpt lat="32.587577820" lon="34.996826172">
  <ele>141.481689</ele>
  <time>2011-07-29T04:01:17Z</time>
  <speed>1.930000</speed>
</trkpt>
<trkpt lat="32.587615967" lon="34.996826172">
  <ele>141.817627</ele>
  <time>2011-07-29T04:01:19Z</time>
  <speed>1.970000</speed>
</trkpt>
<trkpt lat="32.587650299" lon="34.996833801">
  <ele>141.571533</ele>
  <time>2011-07-29T04:01:21Z</time>
  <speed>2.050000</speed>
</trkpt>
<trkpt lat="32.587688446" lon="34.996849060">
  <ele>141.540283</ele>
  <time>2011-07-29T04:01:23Z</time>
  <speed>1.880000</speed>
</trkpt>
<trkpt lat="32.587703705" lon="34.996883392">
  <ele>141.719971</ele>
  <time>2011-07-29T04:01:25Z</time>
  <speed>1.770000</speed>
</trkpt>
<trkpt lat="32.587734222" lon="34.996902466">
  <ele>141.684814</ele>
  <time>2011-07-29T04:01:27Z</time>
  <speed>1.660000</speed>
</trkpt>
<trkpt lat="32.587757111" lon="34.996929169">
  <ele>142.044189</ele>
  <time>2011-07-29T04:01:29Z</time>
  <speed>1.770000</speed>
</trkpt>
<trkpt lat="32.587787628" lon="34.996948242">
  <ele>142.344971</ele>
  <time>2011-07-29T04:01:31Z</time>
  <speed>1.750000</speed>
</trkpt>
<trkpt lat="32.587810516" lon="34.996978760">
  <ele>142.243408</ele>
  <time>2011-07-29T04:01:33Z</time>
  <speed>1.890000</speed>
</trkpt>
<trkpt lat="32.587833405" lon="34.997009277">
  <ele>142.446533</ele>
  <time>2011-07-29T04:01:35Z</time>
  <speed>1.620000</speed>
</trkpt>
<trkpt lat="32.587825775" lon="34.997043610">
  <ele>142.977783</ele>
  <time>2011-07-29T04:01:37Z</time>
  <speed>1.870000</speed>
</trkpt>
<trkpt lat="32.587821960" lon="34.997077942">
  <ele>143.903564</ele>
  <time>2011-07-29T04:01:39Z</time>
  <speed>1.720000</speed>
</trkpt>
<trkpt lat="32.587818146" lon="34.997116089">
  <ele>144.196533</ele>
  <time>2011-07-29T04:01:41Z</time>
  <speed>1.850000</speed>
</trkpt>
<trkpt lat="32.587802887" lon="34.997158051">
  <ele>145.313721</ele>
  <time>2011-07-29T04:01:43Z</time>
  <speed>1.910000</speed>
</trkpt>
<trkpt lat="32.587802887" lon="34.997196198">
  <ele>145.829346</ele>
  <time>2011-07-29T04:01:45Z</time>
  <speed>1.740000</speed>
</trkpt>
<trkpt lat="32.587810516" lon="34.997241974">
  <ele>146.751221</ele>
  <time>2011-07-29T04:01:47Z</time>
  <speed>1.750000</speed>
</trkpt>
<trkpt lat="32.587818146" lon="34.997276306">
  <ele>147.950439</ele>
  <time>2011-07-29T04:01:49Z</time>
  <speed>1.650000</speed>
</trkpt>
<trkpt lat="32.587810516" lon="34.997310638">
  <ele>149.184814</ele>
  <time>2011-07-29T04:01:51Z</time>
  <speed>1.710000</speed>
</trkpt>
<trkpt lat="32.587810516" lon="34.997344971">
  <ele>150.598877</ele>
  <time>2011-07-29T04:01:53Z</time>
  <speed>1.480000</speed>
</trkpt>
<trkpt lat="32.587810516" lon="34.997386932">
  <ele>151.927002</ele>
  <time>2011-07-29T04:01:55Z</time>
  <speed>1.510000</speed>
</trkpt>
<trkpt lat="32.587806702" lon="34.997421265">
  <ele>153.860596</ele>
  <time>2011-07-29T04:01:57Z</time>
  <speed>1.480000</speed>
</trkpt>
<trkpt lat="32.587799072" lon="34.997467041">
  <ele>154.075439</ele>
  <time>2011-07-29T04:02:00Z</time>
  <speed>1.560000</speed>
</trkpt>
<trkpt lat="32.587783813" lon="34.997501373">
  <ele>154.329346</ele>
  <time>2011-07-29T04:02:02Z</time>
  <speed>1.500000</speed>
</trkpt>
<trkpt lat="32.587776184" lon="34.997528076">
  <ele>155.266846</ele>
  <time>2011-07-29T04:02:04Z</time>
  <speed>1.880000</speed>
</trkpt>
<trkpt lat="32.587764740" lon="34.997562408">
  <ele>156.352783</ele>
  <time>2011-07-29T04:02:06Z</time>
  <speed>1.640000</speed>
</trkpt>
<trkpt lat="32.587757111" lon="34.997596741">
  <ele>157.466064</ele>
  <time>2011-07-29T04:02:08Z</time>
  <speed>1.670000</speed>
</trkpt>
<trkpt lat="32.587745667" lon="34.997627258">
  <ele>158.208252</ele>
  <time>2011-07-29T04:02:10Z</time>
  <speed>1.530000</speed>
</trkpt>
<trkpt lat="32.587730408" lon="34.997653961">
  <ele>158.844971</ele>
  <time>2011-07-29T04:02:12Z</time>
  <speed>1.380000</speed>
</trkpt>
<trkpt lat="32.587722778" lon="34.997699738">
  <ele>159.985596</ele>
  <time>2011-07-29T04:02:15Z</time>
  <speed>1.550000</speed>
</trkpt>
<trkpt lat="32.587715149" lon="34.997730255">
  <ele>160.106689</ele>
  <time>2011-07-29T04:02:17Z</time>
  <speed>1.650000</speed>
</trkpt>
<trkpt lat="32.587707520" lon="34.997764587">
  <ele>160.055908</ele>
  <time>2011-07-29T04:02:19Z</time>
  <speed>1.470000</speed>
</trkpt>
<trkpt lat="32.587707520" lon="34.997795105">
  <ele>159.665283</ele>
  <time>2011-07-29T04:02:21Z</time>
  <speed>1.510000</speed>
</trkpt>
<trkpt lat="32.587711334" lon="34.997848511">
  <ele>160.262939</ele>
  <time>2011-07-29T04:02:24Z</time>
  <speed>1.880000</speed>
</trkpt>
<trkpt lat="32.587696075" lon="34.997879028">
  <ele>160.930908</ele>
  <time>2011-07-29T04:02:26Z</time>
  <speed>1.500000</speed>
</trkpt>
<trkpt lat="32.587692261" lon="34.997909546">
  <ele>162.243408</ele>
  <time>2011-07-29T04:02:28Z</time>
  <speed>1.700000</speed>
</trkpt>
<trkpt lat="32.587699890" lon="34.997943878">
  <ele>163.614502</ele>
  <time>2011-07-29T04:02:30Z</time>
  <speed>1.280000</speed>
</trkpt>
<trkpt lat="32.587703705" lon="34.997974396">
  <ele>164.364502</ele>
  <time>2011-07-29T04:02:32Z</time>
  <speed>1.160000</speed>
</trkpt>
<trkpt lat="32.587692261" lon="34.998012543">
  <ele>164.325439</ele>
  <time>2011-07-29T04:02:35Z</time>
  <speed>1.350000</speed>
</trkpt>
<trkpt lat="32.587684631" lon="34.998046875">
  <ele>165.110596</ele>
  <time>2011-07-29T04:02:37Z</time>
  <speed>1.450000</speed>
</trkpt>
<trkpt lat="32.587665558" lon="34.998077393">
  <ele>165.923096</ele>
  <time>2011-07-29T04:02:39Z</time>
  <speed>1.450000</speed>
</trkpt>
<trkpt lat="32.587650299" lon="34.998104095">
  <ele>166.348877</ele>
  <time>2011-07-29T04:02:41Z</time>
  <speed>1.490000</speed>
</trkpt>
<trkpt lat="32.587642670" lon="34.998138428">
  <ele>166.180908</ele>
  <time>2011-07-29T04:02:43Z</time>
  <speed>1.670000</speed>
</trkpt>
<trkpt lat="32.587631226" lon="34.998168945">
  <ele>166.719971</ele>
  <time>2011-07-29T04:02:45Z</time>
  <speed>1.460000</speed>
</trkpt>
<trkpt lat="32.587623596" lon="34.998203278">
  <ele>167.680908</ele>
  <time>2011-07-29T04:02:47Z</time>
  <speed>1.350000</speed>
</trkpt>
<trkpt lat="32.587612152" lon="34.998229980">
  <ele>168.579346</ele>
  <time>2011-07-29T04:02:49Z</time>
  <speed>1.160000</speed>
</trkpt>
<trkpt lat="32.587593079" lon="34.998260498">
  <ele>168.231689</ele>
  <time>2011-07-29T04:02:52Z</time>
  <speed>1.290000</speed>
</trkpt>
<trkpt lat="32.587562561" lon="34.998264313">
  <ele>166.930908</ele>
  <time>2011-07-29T04:02:56Z</time>
  <speed>1.050000</speed>
</trkpt>
<trkpt lat="32.587554932" lon="34.998294830">
  <ele>167.618408</ele>
  <time>2011-07-29T04:02:58Z</time>
  <speed>1.530000</speed>
</trkpt>
<trkpt lat="32.587558746" lon="34.998329163">
  <ele>168.661377</ele>
  <time>2011-07-29T04:03:00Z</time>
  <speed>1.100000</speed>
</trkpt>
<trkpt lat="32.587574005" lon="34.998363495">
  <ele>168.634033</ele>
  <time>2011-07-29T04:03:02Z</time>
  <speed>1.060000</speed>
</trkpt>
<trkpt lat="32.587577820" lon="34.998409271">
  <ele>168.911377</ele>
  <time>2011-07-29T04:03:05Z</time>
  <speed>1.450000</speed>
</trkpt>
<trkpt lat="32.587581635" lon="34.998447418">
  <ele>169.466064</ele>
  <time>2011-07-29T04:03:08Z</time>
  <speed>1.180000</speed>
</trkpt>
<trkpt lat="32.587574005" lon="34.998485565">
  <ele>170.427002</ele>
  <time>2011-07-29T04:03:11Z</time>
  <speed>1.370000</speed>
</trkpt>
<trkpt lat="32.587570190" lon="34.998519897">
  <ele>171.626221</ele>
  <time>2011-07-29T04:03:14Z</time>
  <speed>0.840000</speed>
</trkpt>
<trkpt lat="32.587562561" lon="34.998558044">
  <ele>172.544189</ele>
  <time>2011-07-29T04:03:17Z</time>
  <speed>1.450000</speed>
</trkpt>
<trkpt lat="32.587574005" lon="34.998596191">
  <ele>172.852783</ele>
  <time>2011-07-29T04:03:20Z</time>
  <speed>1.230000</speed>
</trkpt>
<trkpt lat="32.587585449" lon="34.998638153">
  <ele>172.927002</ele>
  <time>2011-07-29T04:03:23Z</time>
  <speed>0.870000</speed>
</trkpt>
<trkpt lat="32.587600708" lon="34.998680115">
  <ele>173.450439</ele>
  <time>2011-07-29T04:03:26Z</time>
  <speed>1.130000</speed>
</trkpt>
<trkpt lat="32.587612152" lon="34.998725891">
  <ele>173.403564</ele>
  <time>2011-07-29T04:03:29Z</time>
  <speed>1.270000</speed>
</trkpt>
<trkpt lat="32.587623596" lon="34.998752594">
  <ele>172.313721</ele>
  <time>2011-07-29T04:03:32Z</time>
  <speed>1.190000</speed>
</trkpt>
<trkpt lat="32.587642670" lon="34.998786926">
  <ele>171.727783</ele>
  <time>2011-07-29T04:03:35Z</time>
  <speed>1.080000</speed>
</trkpt>
<trkpt lat="32.587661743" lon="34.998825073">
  <ele>170.934814</ele>
  <time>2011-07-29T04:03:38Z</time>
  <speed>0.970000</speed>
</trkpt>
<trkpt lat="32.587657928" lon="34.998870850">
  <ele>171.169189</ele>
  <time>2011-07-29T04:03:41Z</time>
  <speed>1.210000</speed>
</trkpt>
<trkpt lat="32.587673187" lon="34.998901367">
  <ele>171.520752</ele>
  <time>2011-07-29T04:03:44Z</time>
  <speed>1.100000</speed>
</trkpt>
<trkpt lat="32.587696075" lon="34.998935699">
  <ele>172.270752</ele>
  <time>2011-07-29T04:03:48Z</time>
  <speed>1.380000</speed>
</trkpt>
<trkpt lat="32.587718964" lon="34.998966217">
  <ele>172.606689</ele>
  <time>2011-07-29T04:03:51Z</time>
  <speed>1.200000</speed>
</trkpt>
<trkpt lat="32.587741852" lon="34.998973846">
  <ele>173.844971</ele>
  <time>2011-07-29T04:03:53Z</time>
  <speed>1.330000</speed>
</trkpt>
<trkpt lat="32.587764740" lon="34.998989105">
  <ele>174.731689</ele>
  <time>2011-07-29T04:03:55Z</time>
  <speed>1.400000</speed>
</trkpt>
<trkpt lat="32.587799072" lon="34.999008179">
  <ele>174.536377</ele>
  <time>2011-07-29T04:03:57Z</time>
  <speed>1.720000</speed>
</trkpt>
<trkpt lat="32.587818146" lon="34.999034882">
  <ele>175.134033</ele>
  <time>2011-07-29T04:04:00Z</time>
  <speed>1.400000</speed>
</trkpt>
<trkpt lat="32.587833405" lon="34.999073029">
  <ele>176.360596</ele>
  <time>2011-07-29T04:04:03Z</time>
  <speed>1.230000</speed>
</trkpt>
<trkpt lat="32.587844849" lon="34.999111176">
  <ele>176.743408</ele>
  <time>2011-07-29T04:04:06Z</time>
  <speed>1.240000</speed>
</trkpt>
<trkpt lat="32.587860107" lon="34.999145508">
  <ele>176.696533</ele>
  <time>2011-07-29T04:04:09Z</time>
  <speed>1.490000</speed>
</trkpt>
<trkpt lat="32.587886810" lon="34.999168396">
  <ele>176.317627</ele>
  <time>2011-07-29T04:04:11Z</time>
  <speed>1.610000</speed>
</trkpt>
<trkpt lat="32.587902069" lon="34.999191284">
  <ele>175.868408</ele>
  <time>2011-07-29T04:04:13Z</time>
  <speed>1.450000</speed>
</trkpt>
<trkpt lat="32.587924957" lon="34.999214172">
  <ele>174.997314</ele>
  <time>2011-07-29T04:04:15Z</time>
  <speed>1.270000</speed>
</trkpt>
<trkpt lat="32.587947845" lon="34.999252319">
  <ele>174.899658</ele>
  <time>2011-07-29T04:04:18Z</time>
  <speed>1.470000</speed>
</trkpt>
<trkpt lat="32.587963104" lon="34.999279022">
  <ele>174.063721</ele>
  <time>2011-07-29T04:04:20Z</time>
  <speed>1.340000</speed>
</trkpt>
<trkpt lat="32.587985992" lon="34.999301910">
  <ele>174.091064</ele>
  <time>2011-07-29T04:04:22Z</time>
  <speed>1.570000</speed>
</trkpt>
<trkpt lat="32.588008881" lon="34.999332428">
  <ele>173.419189</ele>
  <time>2011-07-29T04:04:24Z</time>
  <speed>1.300000</speed>
</trkpt>
<trkpt lat="32.588035583" lon="34.999362946">
  <ele>173.044189</ele>
  <time>2011-07-29T04:04:27Z</time>
  <speed>1.420000</speed>
</trkpt>
<trkpt lat="32.588054657" lon="34.999393463">
  <ele>174.044189</ele>
  <time>2011-07-29T04:04:29Z</time>
  <speed>1.660000</speed>
</trkpt>
<trkpt lat="32.588062286" lon="34.999423981">
  <ele>175.212158</ele>
  <time>2011-07-29T04:04:31Z</time>
  <speed>1.540000</speed>
</trkpt>
<trkpt lat="32.588081360" lon="34.999450684">
  <ele>175.153564</ele>
  <time>2011-07-29T04:04:33Z</time>
  <speed>1.460000</speed>
</trkpt>
<trkpt lat="32.588096619" lon="34.999496460">
  <ele>175.841064</ele>
  <time>2011-07-29T04:04:36Z</time>
  <speed>1.750000</speed>
</trkpt>
<trkpt lat="32.588115692" lon="34.999519348">
  <ele>176.438721</ele>
  <time>2011-07-29T04:04:38Z</time>
  <speed>1.730000</speed>
</trkpt>
<trkpt lat="32.588130951" lon="34.999557495">
  <ele>177.325439</ele>
  <time>2011-07-29T04:04:41Z</time>
  <speed>1.730000</speed>
</trkpt>
<trkpt lat="32.588134766" lon="34.999588013">
  <ele>177.774658</ele>
  <time>2011-07-29T04:04:43Z</time>
  <speed>1.570000</speed>
</trkpt>
<trkpt lat="32.588146210" lon="34.999626160">
  <ele>177.622314</ele>
  <time>2011-07-29T04:04:45Z</time>
  <speed>1.690000</speed>
</trkpt>
<trkpt lat="32.588157654" lon="34.999664307">
  <ele>176.891846</ele>
  <time>2011-07-29T04:04:48Z</time>
  <speed>1.660000</speed>
</trkpt>
<trkpt lat="32.588165283" lon="34.999706268">
  <ele>176.563721</ele>
  <time>2011-07-29T04:04:51Z</time>
  <speed>1.320000</speed>
</trkpt>
<trkpt lat="32.588161469" lon="34.999740601">
  <ele>176.637939</ele>
  <time>2011-07-29T04:04:53Z</time>
  <speed>1.650000</speed>
</trkpt>
<trkpt lat="32.588161469" lon="34.999774933">
  <ele>177.255127</ele>
  <time>2011-07-29T04:04:55Z</time>
  <speed>1.450000</speed>
</trkpt>
<trkpt lat="32.588157654" lon="34.999809265">
  <ele>178.626221</ele>
  <time>2011-07-29T04:04:58Z</time>
  <speed>1.380000</speed>
</trkpt>
<trkpt lat="32.588157654" lon="34.999851227">
  <ele>180.106689</ele>
  <time>2011-07-29T04:05:01Z</time>
  <speed>1.490000</speed>
</trkpt>
<trkpt lat="32.588150024" lon="34.999885559">
  <ele>180.407471</ele>
  <time>2011-07-29T04:05:03Z</time>
  <speed>1.230000</speed>
</trkpt>
<trkpt lat="32.588138580" lon="34.999931335">
  <ele>181.532471</ele>
  <time>2011-07-29T04:05:06Z</time>
  <speed>1.460000</speed>
</trkpt>
<trkpt lat="32.588127136" lon="34.999969482">
  <ele>182.153564</ele>
  <time>2011-07-29T04:05:08Z</time>
  <speed>1.630000</speed>
</trkpt>
<trkpt lat="32.588119507" lon="35.000003815">
  <ele>182.325439</ele>
  <time>2011-07-29T04:05:10Z</time>
  <speed>1.630000</speed>
</trkpt>
<trkpt lat="32.588123322" lon="35.000038147">
  <ele>182.173096</ele>
  <time>2011-07-29T04:05:12Z</time>
  <speed>1.420000</speed>
</trkpt>
<trkpt lat="32.588123322" lon="35.000076294">
  <ele>181.704346</ele>
  <time>2011-07-29T04:05:14Z</time>
  <speed>1.630000</speed>
</trkpt>
<trkpt lat="32.588157654" lon="35.000122070">
  <ele>181.981689</ele>
  <time>2011-07-29T04:05:16Z</time>
  <speed>2.640000</speed>
</trkpt>
<trkpt lat="32.588165283" lon="35.000152588">
  <ele>181.177002</ele>
  <time>2011-07-29T04:05:17Z</time>
  <speed>3.030000</speed>
</trkpt>
<trkpt lat="32.588180542" lon="35.000179291">
  <ele>180.493408</ele>
  <time>2011-07-29T04:05:18Z</time>
  <speed>3.210000</speed>
</trkpt>
<trkpt lat="32.588188171" lon="35.000240326">
  <ele>180.887939</ele>
  <time>2011-07-29T04:05:20Z</time>
  <speed>3.160000</speed>
</trkpt>
<trkpt lat="32.588191986" lon="35.000270844">
  <ele>181.200439</ele>
  <time>2011-07-29T04:05:21Z</time>
  <speed>2.690000</speed>
</trkpt>
<trkpt lat="32.588199615" lon="35.000328064">
  <ele>180.958252</ele>
  <time>2011-07-29T04:05:23Z</time>
  <speed>2.300000</speed>
</trkpt>
<trkpt lat="32.588203430" lon="35.000366211">
  <ele>181.509033</ele>
  <time>2011-07-29T04:05:25Z</time>
  <speed>2.110000</speed>
</trkpt>
<trkpt lat="32.588214874" lon="35.000411987">
  <ele>182.216064</ele>
  <time>2011-07-29T04:05:27Z</time>
  <speed>2.210000</speed>
</trkpt>
<trkpt lat="32.588230133" lon="35.000461578">
  <ele>182.028564</ele>
  <time>2011-07-29T04:05:29Z</time>
  <speed>2.320000</speed>
</trkpt>
<trkpt lat="32.588230133" lon="35.000511169">
  <ele>182.298096</ele>
  <time>2011-07-29T04:05:31Z</time>
  <speed>1.920000</speed>
</trkpt>
<trkpt lat="32.588233948" lon="35.000553131">
  <ele>181.786377</ele>
  <time>2011-07-29T04:05:33Z</time>
  <speed>1.990000</speed>
</trkpt>
<trkpt lat="32.588233948" lon="35.000598907">
  <ele>181.454346</ele>
  <time>2011-07-29T04:05:35Z</time>
  <speed>1.690000</speed>
</trkpt>
<trkpt lat="32.588241577" lon="35.000637054">
  <ele>181.673096</ele>
  <time>2011-07-29T04:05:37Z</time>
  <speed>2.030000</speed>
</trkpt>
<trkpt lat="32.588237762" lon="35.000686646">
  <ele>181.055908</ele>
  <time>2011-07-29T04:05:39Z</time>
  <speed>2.350000</speed>
</trkpt>
<trkpt lat="32.588233948" lon="35.000736237">
  <ele>181.903564</ele>
  <time>2011-07-29T04:05:41Z</time>
  <speed>2.210000</speed>
</trkpt>
<trkpt lat="32.588264465" lon="35.000778198">
  <ele>181.606689</ele>
  <time>2011-07-29T04:05:43Z</time>
  <speed>2.530000</speed>
</trkpt>
<trkpt lat="32.588279724" lon="35.000835419">
  <ele>181.637939</ele>
  <time>2011-07-29T04:05:45Z</time>
  <speed>2.770000</speed>
</trkpt>
<trkpt lat="32.588272095" lon="35.000896454">
  <ele>182.177002</ele>
  <time>2011-07-29T04:05:47Z</time>
  <speed>3.150000</speed>
</trkpt>
<trkpt lat="32.588268280" lon="35.000934601">
  <ele>182.665283</ele>
  <time>2011-07-29T04:05:48Z</time>
  <speed>3.530000</speed>
</trkpt>
<trkpt lat="32.588253021" lon="35.000968933">
  <ele>183.110596</ele>
  <time>2011-07-29T04:05:49Z</time>
  <speed>3.530000</speed>
</trkpt>
<trkpt lat="32.588241577" lon="35.001007080">
  <ele>183.716064</ele>
  <time>2011-07-29T04:05:50Z</time>
  <speed>3.530000</speed>
</trkpt>
<trkpt lat="32.588233948" lon="35.001045227">
  <ele>183.911377</ele>
  <time>2011-07-29T04:05:51Z</time>
  <speed>3.320000</speed>
</trkpt>
<trkpt lat="32.588226318" lon="35.001091003">
  <ele>184.466064</ele>
  <time>2011-07-29T04:05:52Z</time>
  <speed>3.720000</speed>
</trkpt>
<trkpt lat="32.588222504" lon="35.001136780">
  <ele>184.317627</ele>
  <time>2011-07-29T04:05:53Z</time>
  <speed>3.810000</speed>
</trkpt>
<trkpt lat="32.588226318" lon="35.001178741">
  <ele>183.739502</ele>
  <time>2011-07-29T04:05:54Z</time>
  <speed>4.290000</speed>
</trkpt>
<trkpt lat="32.588237762" lon="35.001224518">
  <ele>183.657471</ele>
  <time>2011-07-29T04:05:55Z</time>
  <speed>4.680000</speed>
</trkpt>
<trkpt lat="32.588260651" lon="35.001270294">
  <ele>183.762939</ele>
  <time>2011-07-29T04:05:56Z</time>
  <speed>4.460000</speed>
</trkpt>
<trkpt lat="32.588279724" lon="35.001316071">
  <ele>184.231689</ele>
  <time>2011-07-29T04:05:57Z</time>
  <speed>4.360000</speed>
</trkpt>
<trkpt lat="32.588287354" lon="35.001365662">
  <ele>183.384033</ele>
  <time>2011-07-29T04:05:58Z</time>
  <speed>5.370000</speed>
</trkpt>
<trkpt lat="32.588283539" lon="35.001419067">
  <ele>183.434814</ele>
  <time>2011-07-29T04:05:59Z</time>
  <speed>5.380000</speed>
</trkpt>
<trkpt lat="32.588268280" lon="35.001472473">
  <ele>182.634033</ele>
  <time>2011-07-29T04:06:00Z</time>
  <speed>5.400000</speed>
</trkpt>
<trkpt lat="32.588249207" lon="35.001533508">
  <ele>182.223877</ele>
  <time>2011-07-29T04:06:01Z</time>
  <speed>5.610000</speed>
</trkpt>
<trkpt lat="32.588230133" lon="35.001586914">
  <ele>182.219971</ele>
  <time>2011-07-29T04:06:02Z</time>
  <speed>5.400000</speed>
</trkpt>
<trkpt lat="32.588218689" lon="35.001640320">
  <ele>181.544189</ele>
  <time>2011-07-29T04:06:03Z</time>
  <speed>5.080000</speed>
</trkpt>
<trkpt lat="32.588214874" lon="35.001686096">
  <ele>180.575439</ele>
  <time>2011-07-29T04:06:04Z</time>
  <speed>3.810000</speed>
</trkpt>
<trkpt lat="32.588230133" lon="35.001720428">
  <ele>180.044189</ele>
  <time>2011-07-29T04:06:05Z</time>
  <speed>4.010000</speed>
</trkpt>
<trkpt lat="32.588249207" lon="35.001754761">
  <ele>178.427002</ele>
  <time>2011-07-29T04:06:06Z</time>
  <speed>4.450000</speed>
</trkpt>
<trkpt lat="32.588256836" lon="35.001800537">
  <ele>177.192627</ele>
  <time>2011-07-29T04:06:07Z</time>
  <speed>4.960000</speed>
</trkpt>
<trkpt lat="32.588241577" lon="35.001846313">
  <ele>175.778564</ele>
  <time>2011-07-29T04:06:08Z</time>
  <speed>4.060000</speed>
</trkpt>
<trkpt lat="32.588218689" lon="35.001884460">
  <ele>173.981689</ele>
  <time>2011-07-29T04:06:09Z</time>
  <speed>4.840000</speed>
</trkpt>
<trkpt lat="32.588203430" lon="35.001930237">
  <ele>170.946533</ele>
  <time>2011-07-29T04:06:10Z</time>
  <speed>4.920000</speed>
</trkpt>
<trkpt lat="32.588203430" lon="35.001991272">
  <ele>168.458252</ele>
  <time>2011-07-29T04:06:11Z</time>
  <speed>5.660000</speed>
</trkpt>
<trkpt lat="32.588199615" lon="35.002056122">
  <ele>168.075439</ele>
  <time>2011-07-29T04:06:12Z</time>
  <speed>6.280000</speed>
</trkpt>
<trkpt lat="32.588176727" lon="35.002109528">
  <ele>167.907471</ele>
  <time>2011-07-29T04:06:13Z</time>
  <speed>5.220000</speed>
</trkpt>
<trkpt lat="32.588146210" lon="35.002155304">
  <ele>167.798096</ele>
  <time>2011-07-29T04:06:14Z</time>
  <speed>5.480000</speed>
</trkpt>
<trkpt lat="32.588108063" lon="35.002193451">
  <ele>167.212158</ele>
  <time>2011-07-29T04:06:15Z</time>
  <speed>5.290000</speed>
</trkpt>
<trkpt lat="32.588073730" lon="35.002227783">
  <ele>167.083252</ele>
  <time>2011-07-29T04:06:16Z</time>
  <speed>5.320000</speed>
</trkpt>
<trkpt lat="32.588027954" lon="35.002262115">
  <ele>167.009033</ele>
  <time>2011-07-29T04:06:17Z</time>
  <speed>5.270000</speed>
</trkpt>
<trkpt lat="32.587993622" lon="35.002296448">
  <ele>166.727783</ele>
  <time>2011-07-29T04:06:18Z</time>
  <speed>5.030000</speed>
</trkpt>
<trkpt lat="32.587966919" lon="35.002342224">
  <ele>165.325439</ele>
  <time>2011-07-29T04:06:19Z</time>
  <speed>5.300000</speed>
</trkpt>
<trkpt lat="32.587940216" lon="35.002384186">
  <ele>164.407471</ele>
  <time>2011-07-29T04:06:20Z</time>
  <speed>4.920000</speed>
</trkpt>
<trkpt lat="32.587913513" lon="35.002429962">
  <ele>163.591064</ele>
  <time>2011-07-29T04:06:21Z</time>
  <speed>5.090000</speed>
</trkpt>
<trkpt lat="32.587894440" lon="35.002483368">
  <ele>163.684814</ele>
  <time>2011-07-29T04:06:22Z</time>
  <speed>5.160000</speed>
</trkpt>
<trkpt lat="32.587879181" lon="35.002532959">
  <ele>163.169189</ele>
  <time>2011-07-29T04:06:23Z</time>
  <speed>4.500000</speed>
</trkpt>
<trkpt lat="32.587875366" lon="35.002578735">
  <ele>162.930908</ele>
  <time>2011-07-29T04:06:24Z</time>
  <speed>4.590000</speed>
</trkpt>
<trkpt lat="32.587875366" lon="35.002616882">
  <ele>161.391846</ele>
  <time>2011-07-29T04:06:25Z</time>
  <speed>4.220000</speed>
</trkpt>
<trkpt lat="32.587886810" lon="35.002658844">
  <ele>160.786377</ele>
  <time>2011-07-29T04:06:26Z</time>
  <speed>3.490000</speed>
</trkpt>
<trkpt lat="32.587917328" lon="35.002700806">
  <ele>159.727783</ele>
  <time>2011-07-29T04:06:28Z</time>
  <speed>2.030000</speed>
</trkpt>
<trkpt lat="32.587947845" lon="35.002738953">
  <ele>159.696533</ele>
  <time>2011-07-29T04:06:30Z</time>
  <speed>2.480000</speed>
</trkpt>
<trkpt lat="32.587982178" lon="35.002784729">
  <ele>158.723877</ele>
  <time>2011-07-29T04:06:32Z</time>
  <speed>2.600000</speed>
</trkpt>
<trkpt lat="32.587989807" lon="35.002834320">
  <ele>158.067627</ele>
  <time>2011-07-29T04:06:34Z</time>
  <speed>2.170000</speed>
</trkpt>
<trkpt lat="32.587982178" lon="35.002876282">
  <ele>157.973877</ele>
  <time>2011-07-29T04:06:36Z</time>
  <speed>1.670000</speed>
</trkpt>
<trkpt lat="32.587974548" lon="35.002914429">
  <ele>157.786377</ele>
  <time>2011-07-29T04:06:38Z</time>
  <speed>1.930000</speed>
</trkpt>
<trkpt lat="32.587982178" lon="35.002964020">
  <ele>157.372314</ele>
  <time>2011-07-29T04:06:40Z</time>
  <speed>2.150000</speed>
</trkpt>
<trkpt lat="32.587982178" lon="35.003009796">
  <ele>157.606689</ele>
  <time>2011-07-29T04:06:42Z</time>
  <speed>2.270000</speed>
</trkpt>
<trkpt lat="32.587978363" lon="35.003063202">
  <ele>158.950439</ele>
  <time>2011-07-29T04:06:44Z</time>
  <speed>2.340000</speed>
</trkpt>
<trkpt lat="32.587985992" lon="35.003105164">
  <ele>159.430908</ele>
  <time>2011-07-29T04:06:46Z</time>
  <speed>1.800000</speed>
</trkpt>
<trkpt lat="32.587985992" lon="35.003139496">
  <ele>160.762939</ele>
  <time>2011-07-29T04:06:48Z</time>
  <speed>2.030000</speed>
</trkpt>
<trkpt lat="32.587978363" lon="35.003192902">
  <ele>161.950439</ele>
  <time>2011-07-29T04:06:50Z</time>
  <speed>1.930000</speed>
</trkpt>
<trkpt lat="32.587978363" lon="35.003231049">
  <ele>162.376221</ele>
  <time>2011-07-29T04:06:52Z</time>
  <speed>1.590000</speed>
</trkpt>
<trkpt lat="32.587970734" lon="35.003269196">
  <ele>162.387939</ele>
  <time>2011-07-29T04:06:54Z</time>
  <speed>2.000000</speed>
</trkpt>
<trkpt lat="32.587974548" lon="35.003314972">
  <ele>162.524658</ele>
  <time>2011-07-29T04:06:56Z</time>
  <speed>1.780000</speed>
</trkpt>
<trkpt lat="32.587974548" lon="35.003356934">
  <ele>163.825439</ele>
  <time>2011-07-29T04:06:58Z</time>
  <speed>1.700000</speed>
</trkpt>
<trkpt lat="32.587966919" lon="35.003406525">
  <ele>164.544189</ele>
  <time>2011-07-29T04:07:01Z</time>
  <speed>1.690000</speed>
</trkpt>
<trkpt lat="32.587963104" lon="35.003440857">
  <ele>165.489502</ele>
  <time>2011-07-29T04:07:03Z</time>
  <speed>1.660000</speed>
</trkpt>
<trkpt lat="32.587966919" lon="35.003479004">
  <ele>166.415283</ele>
  <time>2011-07-29T04:07:05Z</time>
  <speed>1.980000</speed>
</trkpt>
<trkpt lat="32.587970734" lon="35.003524780">
  <ele>166.204346</ele>
  <time>2011-07-29T04:07:07Z</time>
  <speed>1.630000</speed>
</trkpt>
<trkpt lat="32.587982178" lon="35.003559113">
  <ele>166.837158</ele>
  <time>2011-07-29T04:07:09Z</time>
  <speed>1.790000</speed>
</trkpt>
<trkpt lat="32.587982178" lon="35.003593445">
  <ele>167.446533</ele>
  <time>2011-07-29T04:07:11Z</time>
  <speed>1.840000</speed>
</trkpt>
<trkpt lat="32.588001251" lon="35.003635406">
  <ele>167.723877</ele>
  <time>2011-07-29T04:07:13Z</time>
  <speed>1.880000</speed>
</trkpt>
<trkpt lat="32.588020325" lon="35.003665924">
  <ele>167.864502</ele>
  <time>2011-07-29T04:07:15Z</time>
  <speed>1.660000</speed>
</trkpt>
<trkpt lat="32.588039398" lon="35.003696442">
  <ele>167.919189</ele>
  <time>2011-07-29T04:07:17Z</time>
  <speed>1.860000</speed>
</trkpt>
<trkpt lat="32.588054657" lon="35.003730774">
  <ele>167.411377</ele>
  <time>2011-07-29T04:07:19Z</time>
  <speed>1.500000</speed>
</trkpt>
<trkpt lat="32.588066101" lon="35.003765106">
  <ele>167.188721</ele>
  <time>2011-07-29T04:07:21Z</time>
  <speed>1.560000</speed>
</trkpt>
<trkpt lat="32.588085175" lon="35.003795624">
  <ele>167.442627</ele>
  <time>2011-07-29T04:07:23Z</time>
  <speed>1.670000</speed>
</trkpt>
<trkpt lat="32.588108063" lon="35.003841400">
  <ele>168.844971</ele>
  <time>2011-07-29T04:07:26Z</time>
  <speed>1.580000</speed>
</trkpt>
<trkpt lat="32.588108063" lon="35.003887177">
  <ele>169.563721</ele>
  <time>2011-07-29T04:07:29Z</time>
  <speed>1.680000</speed>
</trkpt>
<trkpt lat="32.588096619" lon="35.003925323">
  <ele>169.712158</ele>
  <time>2011-07-29T04:07:31Z</time>
  <speed>1.810000</speed>
</trkpt>
<trkpt lat="32.588085175" lon="35.003971100">
  <ele>170.669189</ele>
  <time>2011-07-29T04:07:34Z</time>
  <speed>1.080000</speed>
</trkpt>
<trkpt lat="32.588073730" lon="35.003997803">
  <ele>172.528564</ele>
  <time>2011-07-29T04:07:36Z</time>
  <speed>1.340000</speed>
</trkpt>
<trkpt lat="32.588066101" lon="35.004020691">
  <ele>174.137939</ele>
  <time>2011-07-29T04:07:39Z</time>
  <speed>1.190000</speed>
</trkpt>
<trkpt lat="32.588043213" lon="35.004043579">
  <ele>175.329346</ele>
  <time>2011-07-29T04:07:41Z</time>
  <speed>1.780000</speed>
</trkpt>
<trkpt lat="32.588024139" lon="35.004074097">
  <ele>175.790283</ele>
  <time>2011-07-29T04:07:43Z</time>
  <speed>1.460000</speed>
</trkpt>
<trkpt lat="32.587993622" lon="35.004104614">
  <ele>176.032471</ele>
  <time>2011-07-29T04:07:46Z</time>
  <speed>1.270000</speed>
</trkpt>
<trkpt lat="32.587970734" lon="35.004131317">
  <ele>177.001221</ele>
  <time>2011-07-29T04:07:49Z</time>
  <speed>1.290000</speed>
</trkpt>
<trkpt lat="32.587940216" lon="35.004158020">
  <ele>177.274658</ele>
  <time>2011-07-29T04:07:52Z</time>
  <speed>1.600000</speed>
</trkpt>
<trkpt lat="32.587913513" lon="35.004180908">
  <ele>177.852783</ele>
  <time>2011-07-29T04:07:55Z</time>
  <speed>1.110000</speed>
</trkpt>
<trkpt lat="32.587882996" lon="35.004207611">
  <ele>178.001221</ele>
  <time>2011-07-29T04:07:58Z</time>
  <speed>1.370000</speed>
</trkpt>
<trkpt lat="32.587867737" lon="35.004238129">
  <ele>178.969971</ele>
  <time>2011-07-29T04:08:00Z</time>
  <speed>1.310000</speed>
</trkpt>
<trkpt lat="32.587848663" lon="35.004257202">
  <ele>177.774658</ele>
  <time>2011-07-29T04:08:04Z</time>
  <speed>1.180000</speed>
</trkpt>
<trkpt lat="32.587829590" lon="35.004283905">
  <ele>177.559814</ele>
  <time>2011-07-29T04:08:07Z</time>
  <speed>0.890000</speed>
</trkpt>
<trkpt lat="32.587802887" lon="35.004314423">
  <ele>177.575439</ele>
  <time>2011-07-29T04:08:11Z</time>
  <speed>1.220000</speed>
</trkpt>
<trkpt lat="32.587772369" lon="35.004314423">
  <ele>178.298096</ele>
  <time>2011-07-29T04:08:14Z</time>
  <speed>0.950000</speed>
</trkpt>
<trkpt lat="32.587757111" lon="35.004344940">
  <ele>178.887939</ele>
  <time>2011-07-29T04:08:17Z</time>
  <speed>1.160000</speed>
</trkpt>
<trkpt lat="32.587722778" lon="35.004341125">
  <ele>178.149658</ele>
  <time>2011-07-29T04:08:21Z</time>
  <speed>1.220000</speed>
</trkpt>
<trkpt lat="32.587688446" lon="35.004325867">
  <ele>179.423096</ele>
  <time>2011-07-29T04:08:24Z</time>
  <speed>1.000000</speed>
</trkpt>
<trkpt lat="32.587684631" lon="35.004295349">
  <ele>178.341064</ele>
  <time>2011-07-29T04:08:27Z</time>
  <speed>1.310000</speed>
</trkpt>
<trkpt lat="32.587718964" lon="35.004283905">
  <ele>179.450439</ele>
  <time>2011-07-29T04:08:30Z</time>
  <speed>1.070000</speed>
</trkpt>
<trkpt lat="32.587757111" lon="35.004299164">
  <ele>179.985596</ele>
  <time>2011-07-29T04:08:33Z</time>
  <speed>1.090000</speed>
</trkpt>
<trkpt lat="32.587779999" lon="35.004318237">
  <ele>178.899658</ele>
  <time>2011-07-29T04:08:36Z</time>
  <speed>0.780000</speed>
</trkpt>
<trkpt lat="32.587787628" lon="35.004283905">
  <ele>178.028564</ele>
  <time>2011-07-29T04:08:39Z</time>
  <speed>0.910000</speed>
</trkpt>
<trkpt lat="32.587760925" lon="35.004280090">
  <ele>178.509033</ele>
  <time>2011-07-29T04:08:42Z</time>
  <speed>0.830000</speed>
</trkpt>
<trkpt lat="32.587764740" lon="35.004310608">
  <ele>177.950439</ele>
  <time>2011-07-29T04:08:45Z</time>
  <speed>0.890000</speed>
</trkpt>
<trkpt lat="32.587787628" lon="35.004333496">
  <ele>176.962158</ele>
  <time>2011-07-29T04:08:48Z</time>
  <speed>0.890000</speed>
</trkpt>
<trkpt lat="32.587806702" lon="35.004360199">
  <ele>176.309814</ele>
  <time>2011-07-29T04:08:51Z</time>
  <speed>0.230000</speed>
</trkpt>
<trkpt lat="32.587814331" lon="35.004390717">
  <ele>175.098877</ele>
  <time>2011-07-29T04:11:57Z</time>
  <speed>1.080000</speed>
</trkpt>
<trkpt lat="32.587829590" lon="35.004428864">
  <ele>175.055908</ele>
  <time>2011-07-29T04:11:59Z</time>
  <speed>1.940000</speed>
</trkpt>
<trkpt lat="32.587818146" lon="35.004474640">
  <ele>175.493408</ele>
  <time>2011-07-29T04:12:01Z</time>
  <speed>2.130000</speed>
</trkpt>
<trkpt lat="32.587821960" lon="35.004528046">
  <ele>175.122314</ele>
  <time>2011-07-29T04:12:03Z</time>
  <speed>2.570000</speed>
</trkpt>
<trkpt lat="32.587806702" lon="35.004585266">
  <ele>175.134033</ele>
  <time>2011-07-29T04:12:05Z</time>
  <speed>2.980000</speed>
</trkpt>
<trkpt lat="32.587799072" lon="35.004650116">
  <ele>174.790283</ele>
  <time>2011-07-29T04:12:07Z</time>
  <speed>2.350000</speed>
</trkpt>
<trkpt lat="32.587791443" lon="35.004680634">
  <ele>174.364502</ele>
  <time>2011-07-29T04:12:09Z</time>
  <speed>1.360000</speed>
</trkpt>
<trkpt lat="32.587795258" lon="35.004714966">
  <ele>173.673096</ele>
  <time>2011-07-29T04:12:11Z</time>
  <speed>1.170000</speed>
</trkpt>
<trkpt lat="32.587799072" lon="35.004753113">
  <ele>172.594971</ele>
  <time>2011-07-29T04:12:15Z</time>
  <speed>0.890000</speed>
</trkpt>
<trkpt lat="32.587783813" lon="35.004802704">
  <ele>172.122314</ele>
  <time>2011-07-29T04:12:18Z</time>
  <speed>2.510000</speed>
</trkpt>
<trkpt lat="32.587764740" lon="35.004856110">
  <ele>171.864502</ele>
  <time>2011-07-29T04:12:20Z</time>
  <speed>2.850000</speed>
</trkpt>
<trkpt lat="32.587730408" lon="35.004913330">
  <ele>171.739502</ele>
  <time>2011-07-29T04:12:22Z</time>
  <speed>3.690000</speed>
</trkpt>
<trkpt lat="32.587711334" lon="35.004951477">
  <ele>170.122314</ele>
  <time>2011-07-29T04:12:23Z</time>
  <speed>3.520000</speed>
</trkpt>
<trkpt lat="32.587688446" lon="35.004974365">
  <ele>169.083252</ele>
  <time>2011-07-29T04:12:24Z</time>
  <speed>3.210000</speed>
</trkpt>
<trkpt lat="32.587657928" lon="35.005016327">
  <ele>167.680908</ele>
  <time>2011-07-29T04:12:26Z</time>
  <speed>2.250000</speed>
</trkpt>
<trkpt lat="32.587650299" lon="35.005058289">
  <ele>166.309814</ele>
  <time>2011-07-29T04:12:28Z</time>
  <speed>1.720000</speed>
</trkpt>
<trkpt lat="32.587642670" lon="35.005096436">
  <ele>165.677002</ele>
  <time>2011-07-29T04:12:30Z</time>
  <speed>1.620000</speed>
</trkpt>
<trkpt lat="32.587619781" lon="35.005123138">
  <ele>165.005127</ele>
  <time>2011-07-29T04:12:32Z</time>
  <speed>1.000000</speed>
</trkpt>
<trkpt lat="32.587635040" lon="35.005161285">
  <ele>164.477783</ele>
  <time>2011-07-29T04:12:34Z</time>
  <speed>2.090000</speed>
</trkpt>
<trkpt lat="32.587646484" lon="35.005195618">
  <ele>163.860596</ele>
  <time>2011-07-29T04:12:35Z</time>
  <speed>2.750000</speed>
</trkpt>
<trkpt lat="32.587650299" lon="35.005252838">
  <ele>163.665283</ele>
  <time>2011-07-29T04:12:37Z</time>
  <speed>2.490000</speed>
</trkpt>
<trkpt lat="32.587642670" lon="35.005290985">
  <ele>163.380127</ele>
  <time>2011-07-29T04:12:38Z</time>
  <speed>2.520000</speed>
</trkpt>
<trkpt lat="32.587600708" lon="35.005325317">
  <ele>162.071533</ele>
  <time>2011-07-29T04:12:40Z</time>
  <speed>2.880000</speed>
</trkpt>
<trkpt lat="32.587570190" lon="35.005344391">
  <ele>162.091064</ele>
  <time>2011-07-29T04:12:41Z</time>
  <speed>2.710000</speed>
</trkpt>
<trkpt lat="32.587547302" lon="35.005359650">
  <ele>161.739502</ele>
  <time>2011-07-29T04:12:42Z</time>
  <speed>2.040000</speed>
</trkpt>
<trkpt lat="32.587524414" lon="35.005397797">
  <ele>160.442627</ele>
  <time>2011-07-29T04:12:44Z</time>
  <speed>2.080000</speed>
</trkpt>
<trkpt lat="32.587505341" lon="35.005451202">
  <ele>159.637939</ele>
  <time>2011-07-29T04:12:46Z</time>
  <speed>1.850000</speed>
</trkpt>
<trkpt lat="32.587501526" lon="35.005493164">
  <ele>158.493408</ele>
  <time>2011-07-29T04:12:48Z</time>
  <speed>1.770000</speed>
</trkpt>
<trkpt lat="32.587501526" lon="35.005531311">
  <ele>158.262939</ele>
  <time>2011-07-29T04:12:50Z</time>
  <speed>1.350000</speed>
</trkpt>
<trkpt lat="32.587509155" lon="35.005573273">
  <ele>156.630127</ele>
  <time>2011-07-29T04:12:53Z</time>
  <speed>0.760000</speed>
</trkpt>
<trkpt lat="32.587532043" lon="35.005584717">
  <ele>155.989502</ele>
  <time>2011-07-29T04:12:55Z</time>
  <speed>1.060000</speed>
</trkpt>
<trkpt lat="32.587558746" lon="35.005603790">
  <ele>154.634033</ele>
  <time>2011-07-29T04:12:57Z</time>
  <speed>1.380000</speed>
</trkpt>
<trkpt lat="32.587574005" lon="35.005638123">
  <ele>153.161377</ele>
  <time>2011-07-29T04:12:59Z</time>
  <speed>1.510000</speed>
</trkpt>
<trkpt lat="32.587554932" lon="35.005664825">
  <ele>151.684814</ele>
  <time>2011-07-29T04:13:03Z</time>
  <speed>1.640000</speed>
</trkpt>
<trkpt lat="32.587520599" lon="35.005676270">
  <ele>151.712158</ele>
  <time>2011-07-29T04:13:05Z</time>
  <speed>1.290000</speed>
</trkpt>
<trkpt lat="32.587493896" lon="35.005676270">
  <ele>151.235596</ele>
  <time>2011-07-29T04:13:08Z</time>
  <speed>0.640000</speed>
</trkpt>
<trkpt lat="32.587471008" lon="35.005702972">
  <ele>153.407471</ele>
  <time>2011-07-29T04:13:29Z</time>
  <speed>0.930000</speed>
</trkpt>
<trkpt lat="32.587448120" lon="35.005748749">
  <ele>154.055908</ele>
  <time>2011-07-29T04:13:32Z</time>
  <speed>1.900000</speed>
</trkpt>
<trkpt lat="32.587451935" lon="35.005809784">
  <ele>154.274658</ele>
  <time>2011-07-29T04:13:34Z</time>
  <speed>2.880000</speed>
</trkpt>
<trkpt lat="32.587451935" lon="35.005844116">
  <ele>153.575439</ele>
  <time>2011-07-29T04:13:35Z</time>
  <speed>2.710000</speed>
</trkpt>
<trkpt lat="32.587459564" lon="35.005882263">
  <ele>152.770752</ele>
  <time>2011-07-29T04:13:36Z</time>
  <speed>3.160000</speed>
</trkpt>
<trkpt lat="32.587467194" lon="35.005916595">
  <ele>152.716064</ele>
  <time>2011-07-29T04:13:37Z</time>
  <speed>2.810000</speed>
</trkpt>
<trkpt lat="32.587478638" lon="35.005970001">
  <ele>152.083252</ele>
  <time>2011-07-29T04:13:39Z</time>
  <speed>2.310000</speed>
</trkpt>
<trkpt lat="32.587490082" lon="35.006011963">
  <ele>151.255127</ele>
  <time>2011-07-29T04:13:41Z</time>
  <speed>2.020000</speed>
</trkpt>
<trkpt lat="32.587493896" lon="35.006046295">
  <ele>150.321533</ele>
  <time>2011-07-29T04:13:42Z</time>
  <speed>2.850000</speed>
</trkpt>
<trkpt lat="32.587512970" lon="35.006092072">
  <ele>149.325439</ele>
  <time>2011-07-29T04:13:44Z</time>
  <speed>1.710000</speed>
</trkpt>
<trkpt lat="32.587543488" lon="35.006137848">
  <ele>147.907471</ele>
  <time>2011-07-29T04:13:46Z</time>
  <speed>1.970000</speed>
</trkpt>
<trkpt lat="32.587589264" lon="35.006149292">
  <ele>145.860596</ele>
  <time>2011-07-29T04:13:48Z</time>
  <speed>2.280000</speed>
</trkpt>
<trkpt lat="32.587631226" lon="35.006164551">
  <ele>145.231689</ele>
  <time>2011-07-29T04:13:49Z</time>
  <speed>3.400000</speed>
</trkpt>
<trkpt lat="32.587661743" lon="35.006183624">
  <ele>144.614502</ele>
  <time>2011-07-29T04:13:50Z</time>
  <speed>3.250000</speed>
</trkpt>
<trkpt lat="32.587688446" lon="35.006202698">
  <ele>144.087158</ele>
  <time>2011-07-29T04:13:51Z</time>
  <speed>3.260000</speed>
</trkpt>
<trkpt lat="32.587715149" lon="35.006217957">
  <ele>143.446533</ele>
  <time>2011-07-29T04:13:52Z</time>
  <speed>2.700000</speed>
</trkpt>
<trkpt lat="32.587734222" lon="35.006248474">
  <ele>142.591064</ele>
  <time>2011-07-29T04:13:53Z</time>
  <speed>3.420000</speed>
</trkpt>
<trkpt lat="32.587741852" lon="35.006294250">
  <ele>141.989502</ele>
  <time>2011-07-29T04:13:54Z</time>
  <speed>3.200000</speed>
</trkpt>
<trkpt lat="32.587757111" lon="35.006328583">
  <ele>141.071533</ele>
  <time>2011-07-29T04:13:55Z</time>
  <speed>3.330000</speed>
</trkpt>
<trkpt lat="32.587776184" lon="35.006359100">
  <ele>139.649658</ele>
  <time>2011-07-29T04:13:56Z</time>
  <speed>2.680000</speed>
</trkpt>
<trkpt lat="32.587787628" lon="35.006389618">
  <ele>137.997314</ele>
  <time>2011-07-29T04:13:57Z</time>
  <speed>1.910000</speed>
</trkpt>
<trkpt lat="32.587810516" lon="35.006420135">
  <ele>137.528564</ele>
  <time>2011-07-29T04:13:59Z</time>
  <speed>2.350000</speed>
</trkpt>
<trkpt lat="32.587821960" lon="35.006465912">
  <ele>136.481689</ele>
  <time>2011-07-29T04:14:01Z</time>
  <speed>1.800000</speed>
</trkpt>
<trkpt lat="32.587860107" lon="35.006492615">
  <ele>134.973877</ele>
  <time>2011-07-29T04:14:03Z</time>
  <speed>1.900000</speed>
</trkpt>
<trkpt lat="32.587890625" lon="35.006504059">
  <ele>132.938721</ele>
  <time>2011-07-29T04:14:05Z</time>
  <speed>1.460000</speed>
</trkpt>
<trkpt lat="32.587898254" lon="35.006561279">
  <ele>131.368408</ele>
  <time>2011-07-29T04:14:07Z</time>
  <speed>2.540000</speed>
</trkpt>
<trkpt lat="32.587917328" lon="35.006584167">
  <ele>130.344971</ele>
  <time>2011-07-29T04:14:08Z</time>
  <speed>2.280000</speed>
</trkpt>
<trkpt lat="32.587944031" lon="35.006584167">
  <ele>129.235596</ele>
  <time>2011-07-29T04:14:09Z</time>
  <speed>2.750000</speed>
</trkpt>
<trkpt lat="32.587974548" lon="35.006587982">
  <ele>128.165283</ele>
  <time>2011-07-29T04:14:11Z</time>
  <speed>1.210000</speed>
</trkpt>
<trkpt lat="32.588008881" lon="35.006607056">
  <ele>126.789673</ele>
  <time>2011-07-29T04:14:14Z</time>
  <speed>1.920000</speed>
</trkpt>
<trkpt lat="32.588043213" lon="35.006637573">
  <ele>126.768188</ele>
  <time>2011-07-29T04:14:16Z</time>
  <speed>1.980000</speed>
</trkpt>
<trkpt lat="32.588031769" lon="35.006675720">
  <ele>126.162720</ele>
  <time>2011-07-29T04:14:18Z</time>
  <speed>2.380000</speed>
</trkpt>
<trkpt lat="32.588005066" lon="35.006732941">
  <ele>124.258423</ele>
  <time>2011-07-29T04:14:20Z</time>
  <speed>3.110000</speed>
</trkpt>
<trkpt lat="32.587989807" lon="35.006767273">
  <ele>122.768188</ele>
  <time>2011-07-29T04:14:21Z</time>
  <speed>2.980000</speed>
</trkpt>
<trkpt lat="32.587978363" lon="35.006824493">
  <ele>121.555298</ele>
  <time>2011-07-29T04:14:23Z</time>
  <speed>2.740000</speed>
</trkpt>
<trkpt lat="32.587974548" lon="35.006866455">
  <ele>119.785767</ele>
  <time>2011-07-29T04:14:24Z</time>
  <speed>2.910000</speed>
</trkpt>
<trkpt lat="32.587959290" lon="35.006908417">
  <ele>119.496704</ele>
  <time>2011-07-29T04:14:25Z</time>
  <speed>3.480000</speed>
</trkpt>
<trkpt lat="32.587955475" lon="35.006946564">
  <ele>118.895142</ele>
  <time>2011-07-29T04:14:26Z</time>
  <speed>2.330000</speed>
</trkpt>
<trkpt lat="32.587959290" lon="35.006977081">
  <ele>119.027954</ele>
  <time>2011-07-29T04:14:27Z</time>
  <speed>2.520000</speed>
</trkpt>
<trkpt lat="32.587985992" lon="35.007007599">
  <ele>117.947876</ele>
  <time>2011-07-29T04:14:28Z</time>
  <speed>3.530000</speed>
</trkpt>
<trkpt lat="32.588012695" lon="35.007038116">
  <ele>117.369751</ele>
  <time>2011-07-29T04:14:29Z</time>
  <speed>3.070000</speed>
</trkpt>
<trkpt lat="32.588047028" lon="35.007061005">
  <ele>117.020142</ele>
  <time>2011-07-29T04:14:30Z</time>
  <speed>2.820000</speed>
</trkpt>
<trkpt lat="32.588054657" lon="35.007122040">
  <ele>115.934204</ele>
  <time>2011-07-29T04:14:32Z</time>
  <speed>3.150000</speed>
</trkpt>
<trkpt lat="32.588047028" lon="35.007179260">
  <ele>114.598267</ele>
  <time>2011-07-29T04:14:34Z</time>
  <speed>2.170000</speed>
</trkpt>
<trkpt lat="32.588027954" lon="35.007221222">
  <ele>113.736938</ele>
  <time>2011-07-29T04:14:36Z</time>
  <speed>2.350000</speed>
</trkpt>
<trkpt lat="32.588008881" lon="35.007266998">
  <ele>112.508423</ele>
  <time>2011-07-29T04:14:37Z</time>
  <speed>3.050000</speed>
</trkpt>
<trkpt lat="32.588001251" lon="35.007301331">
  <ele>111.981079</ele>
  <time>2011-07-29T04:14:38Z</time>
  <speed>3.400000</speed>
</trkpt>
<trkpt lat="32.587985992" lon="35.007335663">
  <ele>110.729126</ele>
  <time>2011-07-29T04:14:39Z</time>
  <speed>3.490000</speed>
</trkpt>
<trkpt lat="32.587970734" lon="35.007373810">
  <ele>109.330688</ele>
  <time>2011-07-29T04:14:40Z</time>
  <speed>3.680000</speed>
</trkpt>
<trkpt lat="32.587947845" lon="35.007404327">
  <ele>108.520142</ele>
  <time>2011-07-29T04:14:41Z</time>
  <speed>3.340000</speed>
</trkpt>
<trkpt lat="32.587936401" lon="35.007434845">
  <ele>108.072876</ele>
  <time>2011-07-29T04:14:42Z</time>
  <speed>2.540000</speed>
</trkpt>
<trkpt lat="32.587940216" lon="35.007480621">
  <ele>107.192017</ele>
  <time>2011-07-29T04:14:44Z</time>
  <speed>1.850000</speed>
</trkpt>
<trkpt lat="32.587966919" lon="35.007522583">
  <ele>106.549438</ele>
  <time>2011-07-29T04:14:46Z</time>
  <speed>2.250000</speed>
</trkpt>
<trkpt lat="32.588005066" lon="35.007537842">
  <ele>105.965454</ele>
  <time>2011-07-29T04:14:48Z</time>
  <speed>1.770000</speed>
</trkpt>
<trkpt lat="32.588035583" lon="35.007553101">
  <ele>105.336548</ele>
  <time>2011-07-29T04:14:50Z</time>
  <speed>1.210000</speed>
</trkpt>
<trkpt lat="32.588047028" lon="35.007575989">
  <ele>103.524048</ele>
  <time>2011-07-29T04:14:52Z</time>
  <speed>1.830000</speed>
</trkpt>
<trkpt lat="32.588031769" lon="35.007602692">
  <ele>102.371704</ele>
  <time>2011-07-29T04:14:54Z</time>
  <speed>1.520000</speed>
</trkpt>
<trkpt lat="32.588005066" lon="35.007614136">
  <ele>100.986938</ele>
  <time>2011-07-29T04:14:56Z</time>
  <speed>2.180000</speed>
</trkpt>
<trkpt lat="32.587970734" lon="35.007606506">
  <ele>99.549438</ele>
  <time>2011-07-29T04:14:58Z</time>
  <speed>1.920000</speed>
</trkpt>
<trkpt lat="32.587940216" lon="35.007572174">
  <ele>99.086548</ele>
  <time>2011-07-29T04:15:00Z</time>
  <speed>1.520000</speed>
</trkpt>
<trkpt lat="32.587905884" lon="35.007553101">
  <ele>98.256470</ele>
  <time>2011-07-29T04:15:02Z</time>
  <speed>2.590000</speed>
</trkpt>
<trkpt lat="32.587852478" lon="35.007553101">
  <ele>96.984985</ele>
  <time>2011-07-29T04:15:04Z</time>
  <speed>3.050000</speed>
</trkpt>
<trkpt lat="32.587825775" lon="35.007553101">
  <ele>96.295532</ele>
  <time>2011-07-29T04:15:05Z</time>
  <speed>2.790000</speed>
</trkpt>
<trkpt lat="32.587779999" lon="35.007568359">
  <ele>95.871704</ele>
  <time>2011-07-29T04:15:07Z</time>
  <speed>2.720000</speed>
</trkpt>
<trkpt lat="32.587745667" lon="35.007587433">
  <ele>94.850220</ele>
  <time>2011-07-29T04:15:08Z</time>
  <speed>4.290000</speed>
</trkpt>
<trkpt lat="32.587707520" lon="35.007617950">
  <ele>94.740845</ele>
  <time>2011-07-29T04:15:09Z</time>
  <speed>5.510000</speed>
</trkpt>
<trkpt lat="32.587673187" lon="35.007678986">
  <ele>95.072876</ele>
  <time>2011-07-29T04:15:10Z</time>
  <speed>5.410000</speed>
</trkpt>
<trkpt lat="32.587654114" lon="35.007743835">
  <ele>94.149048</ele>
  <time>2011-07-29T04:15:11Z</time>
  <speed>3.520000</speed>
</trkpt>
<trkpt lat="32.587646484" lon="35.007785797">
  <ele>94.660767</ele>
  <time>2011-07-29T04:15:12Z</time>
  <speed>2.880000</speed>
</trkpt>
<trkpt lat="32.587646484" lon="35.007846832">
  <ele>94.936157</ele>
  <time>2011-07-29T04:15:14Z</time>
  <speed>2.170000</speed>
</trkpt>
<trkpt lat="32.587646484" lon="35.007884979">
  <ele>94.715454</ele>
  <time>2011-07-29T04:15:16Z</time>
  <speed>0.670000</speed>
</trkpt>
<trkpt lat="32.587654114" lon="35.007923126">
  <ele>94.801392</ele>
  <time>2011-07-29T04:15:49Z</time>
  <speed>0.100000</speed>
</trkpt>
<trkpt lat="32.587684631" lon="35.007965088">
  <ele>95.656860</ele>
  <time>2011-07-29T04:15:55Z</time>
  <speed>1.920000</speed>
</trkpt>
<trkpt lat="32.587711334" lon="35.008003235">
  <ele>95.818970</ele>
  <time>2011-07-29T04:15:57Z</time>
  <speed>1.770000</speed>
</trkpt>
<trkpt lat="32.587734222" lon="35.008045197">
  <ele>96.676392</ele>
  <time>2011-07-29T04:15:59Z</time>
  <speed>2.080000</speed>
</trkpt>
<trkpt lat="32.587749481" lon="35.008102417">
  <ele>96.256470</ele>
  <time>2011-07-29T04:16:01Z</time>
  <speed>1.930000</speed>
</trkpt>
<trkpt lat="32.587745667" lon="35.008144379">
  <ele>96.424438</ele>
  <time>2011-07-29T04:16:02Z</time>
  <speed>1.910000</speed>
</trkpt>
<trkpt lat="32.587764740" lon="35.008167267">
  <ele>97.152954</ele>
  <time>2011-07-29T04:16:03Z</time>
  <speed>2.100000</speed>
</trkpt>
<trkpt lat="32.587791443" lon="35.008209229">
  <ele>97.609985</ele>
  <time>2011-07-29T04:16:05Z</time>
  <speed>1.900000</speed>
</trkpt>
<trkpt lat="32.587829590" lon="35.008228302">
  <ele>98.188110</ele>
  <time>2011-07-29T04:16:07Z</time>
  <speed>1.820000</speed>
</trkpt>
<trkpt lat="32.587860107" lon="35.008247375">
  <ele>97.951782</ele>
  <time>2011-07-29T04:16:09Z</time>
  <speed>1.510000</speed>
</trkpt>
<trkpt lat="32.587890625" lon="35.008262634">
  <ele>97.283813</ele>
  <time>2011-07-29T04:16:11Z</time>
  <speed>1.410000</speed>
</trkpt>
<trkpt lat="32.587921143" lon="35.008281708">
  <ele>96.192017</ele>
  <time>2011-07-29T04:16:13Z</time>
  <speed>1.740000</speed>
</trkpt>
<trkpt lat="32.587947845" lon="35.008300781">
  <ele>96.766235</ele>
  <time>2011-07-29T04:16:15Z</time>
  <speed>1.900000</speed>
</trkpt>
<trkpt lat="32.587959290" lon="35.008335114">
  <ele>96.490845</ele>
  <time>2011-07-29T04:16:17Z</time>
  <speed>1.650000</speed>
</trkpt>
<trkpt lat="32.587989807" lon="35.008365631">
  <ele>96.705688</ele>
  <time>2011-07-29T04:16:19Z</time>
  <speed>1.970000</speed>
</trkpt>
<trkpt lat="32.588012695" lon="35.008399963">
  <ele>96.920532</ele>
  <time>2011-07-29T04:16:21Z</time>
  <speed>2.200000</speed>
</trkpt>
<trkpt lat="32.588035583" lon="35.008426666">
  <ele>98.029907</ele>
  <time>2011-07-29T04:16:22Z</time>
  <speed>2.460000</speed>
</trkpt>
<trkpt lat="32.588047028" lon="35.008468628">
  <ele>98.408813</ele>
  <time>2011-07-29T04:16:24Z</time>
  <speed>2.630000</speed>
</trkpt>
<trkpt lat="32.588073730" lon="35.008514404">
  <ele>99.024048</ele>
  <time>2011-07-29T04:16:26Z</time>
  <speed>2.440000</speed>
</trkpt>
<trkpt lat="32.588100433" lon="35.008556366">
  <ele>99.164673</ele>
  <time>2011-07-29T04:16:28Z</time>
  <speed>2.210000</speed>
</trkpt>
<trkpt lat="32.588138580" lon="35.008594513">
  <ele>98.713501</ele>
  <time>2011-07-29T04:16:30Z</time>
  <speed>2.690000</speed>
</trkpt>
<trkpt lat="32.588165283" lon="35.008640289">
  <ele>99.281860</ele>
  <time>2011-07-29T04:16:32Z</time>
  <speed>2.880000</speed>
</trkpt>
<trkpt lat="32.588191986" lon="35.008659363">
  <ele>99.063110</ele>
  <time>2011-07-29T04:16:33Z</time>
  <speed>3.070000</speed>
</trkpt>
<trkpt lat="32.588214874" lon="35.008682251">
  <ele>97.916626</ele>
  <time>2011-07-29T04:16:34Z</time>
  <speed>2.640000</speed>
</trkpt>
<trkpt lat="32.588237762" lon="35.008712769">
  <ele>98.176392</ele>
  <time>2011-07-29T04:16:36Z</time>
  <speed>2.050000</speed>
</trkpt>
<trkpt lat="32.588245392" lon="35.008747101">
  <ele>96.859985</ele>
  <time>2011-07-29T04:16:38Z</time>
  <speed>2.010000</speed>
</trkpt>
<trkpt lat="32.588268280" lon="35.008792877">
  <ele>96.508423</ele>
  <time>2011-07-29T04:16:40Z</time>
  <speed>2.240000</speed>
</trkpt>
<trkpt lat="32.588298798" lon="35.008823395">
  <ele>96.516235</ele>
  <time>2011-07-29T04:16:42Z</time>
  <speed>2.230000</speed>
</trkpt>
<trkpt lat="32.588310242" lon="35.008865356">
  <ele>96.899048</ele>
  <time>2011-07-29T04:16:44Z</time>
  <speed>2.520000</speed>
</trkpt>
<trkpt lat="32.588340759" lon="35.008899689">
  <ele>96.676392</ele>
  <time>2011-07-29T04:16:46Z</time>
  <speed>2.100000</speed>
</trkpt>
<trkpt lat="32.588359833" lon="35.008930206">
  <ele>96.108032</ele>
  <time>2011-07-29T04:16:48Z</time>
  <speed>2.190000</speed>
</trkpt>
<trkpt lat="32.588378906" lon="35.008968353">
  <ele>95.895142</ele>
  <time>2011-07-29T04:16:50Z</time>
  <speed>2.120000</speed>
</trkpt>
<trkpt lat="32.588394165" lon="35.009014130">
  <ele>96.285767</ele>
  <time>2011-07-29T04:16:52Z</time>
  <speed>2.240000</speed>
</trkpt>
<trkpt lat="32.588413239" lon="35.009056091">
  <ele>97.461548</ele>
  <time>2011-07-29T04:16:54Z</time>
  <speed>2.380000</speed>
</trkpt>
<trkpt lat="32.588424683" lon="35.009109497">
  <ele>97.709595</ele>
  <time>2011-07-29T04:16:56Z</time>
  <speed>2.580000</speed>
</trkpt>
<trkpt lat="32.588439941" lon="35.009162903">
  <ele>97.188110</ele>
  <time>2011-07-29T04:16:58Z</time>
  <speed>2.740000</speed>
</trkpt>
<trkpt lat="32.588443756" lon="35.009193420">
  <ele>97.328735</ele>
  <time>2011-07-29T04:16:59Z</time>
  <speed>2.890000</speed>
</trkpt>
<trkpt lat="32.588462830" lon="35.009250641">
  <ele>96.375610</ele>
  <time>2011-07-29T04:17:01Z</time>
  <speed>2.730000</speed>
</trkpt>
<trkpt lat="32.588462830" lon="35.009315491">
  <ele>97.377563</ele>
  <time>2011-07-29T04:17:03Z</time>
  <speed>2.170000</speed>
</trkpt>
<trkpt lat="32.588455200" lon="35.009349823">
  <ele>96.584595</ele>
  <time>2011-07-29T04:17:04Z</time>
  <speed>2.590000</speed>
</trkpt>
<trkpt lat="32.588447571" lon="35.009380341">
  <ele>95.818970</ele>
  <time>2011-07-29T04:17:05Z</time>
  <speed>2.170000</speed>
</trkpt>
<trkpt lat="32.588451385" lon="35.009426117">
  <ele>95.793579</ele>
  <time>2011-07-29T04:17:07Z</time>
  <speed>2.250000</speed>
</trkpt>
<trkpt lat="32.588466644" lon="35.009471893">
  <ele>95.404907</ele>
  <time>2011-07-29T04:17:09Z</time>
  <speed>1.780000</speed>
</trkpt>
<trkpt lat="32.588462830" lon="35.009521484">
  <ele>94.891235</ele>
  <time>2011-07-29T04:17:11Z</time>
  <speed>2.250000</speed>
</trkpt>
<trkpt lat="32.588451385" lon="35.009555817">
  <ele>96.387329</ele>
  <time>2011-07-29T04:17:13Z</time>
  <speed>2.040000</speed>
</trkpt>
<trkpt lat="32.588455200" lon="35.009620667">
  <ele>96.160767</ele>
  <time>2011-07-29T04:17:15Z</time>
  <speed>2.510000</speed>
</trkpt>
<trkpt lat="32.588474274" lon="35.009677887">
  <ele>96.293579</ele>
  <time>2011-07-29T04:17:17Z</time>
  <speed>2.480000</speed>
</trkpt>
<trkpt lat="32.588474274" lon="35.009727478">
  <ele>95.752563</ele>
  <time>2011-07-29T04:17:19Z</time>
  <speed>2.370000</speed>
</trkpt>
<trkpt lat="32.588474274" lon="35.009777069">
  <ele>94.850220</ele>
  <time>2011-07-29T04:17:21Z</time>
  <speed>2.110000</speed>
</trkpt>
<trkpt lat="32.588462830" lon="35.009819031">
  <ele>94.322876</ele>
  <time>2011-07-29T04:17:23Z</time>
  <speed>1.670000</speed>
</trkpt>
<trkpt lat="32.588470459" lon="35.009853363">
  <ele>96.330688</ele>
  <time>2011-07-29T04:17:26Z</time>
  <speed>1.150000</speed>
</trkpt>
<trkpt lat="32.588462830" lon="35.009883881">
  <ele>96.377563</ele>
  <time>2011-07-29T04:17:28Z</time>
  <speed>1.750000</speed>
</trkpt>
<trkpt lat="32.588455200" lon="35.009922028">
  <ele>96.856079</ele>
  <time>2011-07-29T04:17:30Z</time>
  <speed>1.220000</speed>
</trkpt>
<trkpt lat="32.588462830" lon="35.009960175">
  <ele>97.281860</ele>
  <time>2011-07-29T04:17:32Z</time>
  <speed>1.240000</speed>
</trkpt>
<trkpt lat="32.588459015" lon="35.010002136">
  <ele>97.727173</ele>
  <time>2011-07-29T04:17:34Z</time>
  <speed>1.310000</speed>
</trkpt>
<trkpt lat="32.588447571" lon="35.010036469">
  <ele>98.766235</ele>
  <time>2011-07-29T04:17:37Z</time>
  <speed>1.540000</speed>
</trkpt>
<trkpt lat="32.588462830" lon="35.010082245">
  <ele>98.401001</ele>
  <time>2011-07-29T04:17:39Z</time>
  <speed>1.560000</speed>
</trkpt>
<trkpt lat="32.588459015" lon="35.010128021">
  <ele>98.334595</ele>
  <time>2011-07-29T04:17:41Z</time>
  <speed>1.720000</speed>
</trkpt>
<trkpt lat="32.588451385" lon="35.010166168">
  <ele>98.965454</ele>
  <time>2011-07-29T04:17:43Z</time>
  <speed>1.480000</speed>
</trkpt>
<trkpt lat="32.588451385" lon="35.010208130">
  <ele>98.770142</ele>
  <time>2011-07-29T04:17:45Z</time>
  <speed>1.550000</speed>
</trkpt>
<trkpt lat="32.588459015" lon="35.010250092">
  <ele>98.615845</ele>
  <time>2011-07-29T04:17:47Z</time>
  <speed>1.490000</speed>
</trkpt>
<trkpt lat="32.588466644" lon="35.010295868">
  <ele>99.135376</ele>
  <time>2011-07-29T04:17:49Z</time>
  <speed>1.960000</speed>
</trkpt>
<trkpt lat="32.588485718" lon="35.010353088">
  <ele>100.020142</ele>
  <time>2011-07-29T04:17:51Z</time>
  <speed>1.960000</speed>
</trkpt>
<trkpt lat="32.588497162" lon="35.010402679">
  <ele>100.061157</ele>
  <time>2011-07-29T04:17:53Z</time>
  <speed>2.130000</speed>
</trkpt>
<trkpt lat="32.588504791" lon="35.010448456">
  <ele>100.014282</ele>
  <time>2011-07-29T04:17:55Z</time>
  <speed>2.010000</speed>
</trkpt>
<trkpt lat="32.588516235" lon="35.010494232">
  <ele>100.059204</ele>
  <time>2011-07-29T04:17:57Z</time>
  <speed>2.130000</speed>
</trkpt>
<trkpt lat="32.588531494" lon="35.010536194">
  <ele>99.953735</ele>
  <time>2011-07-29T04:17:59Z</time>
  <speed>2.060000</speed>
</trkpt>
<trkpt lat="32.588542938" lon="35.010578156">
  <ele>100.979126</ele>
  <time>2011-07-29T04:18:01Z</time>
  <speed>2.120000</speed>
</trkpt>
<trkpt lat="32.588550568" lon="35.010623932">
  <ele>101.867798</ele>
  <time>2011-07-29T04:18:03Z</time>
  <speed>2.210000</speed>
</trkpt>
<trkpt lat="32.588573456" lon="35.010669708">
  <ele>101.514282</ele>
  <time>2011-07-29T04:18:05Z</time>
  <speed>1.910000</speed>
</trkpt>
<trkpt lat="32.588581085" lon="35.010707855">
  <ele>100.102173</ele>
  <time>2011-07-29T04:18:06Z</time>
  <speed>2.380000</speed>
</trkpt>
<trkpt lat="32.588588715" lon="35.010753632">
  <ele>100.006470</ele>
  <time>2011-07-29T04:18:08Z</time>
  <speed>2.050000</speed>
</trkpt>
<trkpt lat="32.588588715" lon="35.010791779">
  <ele>101.106079</ele>
  <time>2011-07-29T04:18:10Z</time>
  <speed>1.910000</speed>
</trkpt>
<trkpt lat="32.588600159" lon="35.010833740">
  <ele>101.207642</ele>
  <time>2011-07-29T04:18:12Z</time>
  <speed>2.060000</speed>
</trkpt>
<trkpt lat="32.588626862" lon="35.010871887">
  <ele>101.817017</ele>
  <time>2011-07-29T04:18:14Z</time>
  <speed>1.680000</speed>
</trkpt>
<trkpt lat="32.588645935" lon="35.010917664">
  <ele>101.451782</ele>
  <time>2011-07-29T04:18:16Z</time>
  <speed>2.700000</speed>
</trkpt>
<trkpt lat="32.588661194" lon="35.010974884">
  <ele>102.453735</ele>
  <time>2011-07-29T04:18:18Z</time>
  <speed>2.620000</speed>
</trkpt>
<trkpt lat="32.588661194" lon="35.011009216">
  <ele>103.166626</ele>
  <time>2011-07-29T04:18:19Z</time>
  <speed>2.890000</speed>
</trkpt>
<trkpt lat="32.588668823" lon="35.011043549">
  <ele>103.043579</ele>
  <time>2011-07-29T04:18:20Z</time>
  <speed>2.810000</speed>
</trkpt>
<trkpt lat="32.588684082" lon="35.011089325">
  <ele>102.430298</ele>
  <time>2011-07-29T04:18:21Z</time>
  <speed>2.930000</speed>
</trkpt>
<trkpt lat="32.588687897" lon="35.011123657">
  <ele>101.990845</ele>
  <time>2011-07-29T04:18:22Z</time>
  <speed>2.690000</speed>
</trkpt>
<trkpt lat="32.588695526" lon="35.011173248">
  <ele>103.516235</ele>
  <time>2011-07-29T04:18:24Z</time>
  <speed>2.890000</speed>
</trkpt>
<trkpt lat="32.588703156" lon="35.011207581">
  <ele>103.115845</ele>
  <time>2011-07-29T04:18:25Z</time>
  <speed>2.750000</speed>
</trkpt>
<trkpt lat="32.588714600" lon="35.011264801">
  <ele>103.760376</ele>
  <time>2011-07-29T04:18:27Z</time>
  <speed>2.930000</speed>
</trkpt>
<trkpt lat="32.588756561" lon="35.011318207">
  <ele>103.984985</ele>
  <time>2011-07-29T04:18:29Z</time>
  <speed>2.760000</speed>
</trkpt>
<trkpt lat="32.588764191" lon="35.011356354">
  <ele>103.797485</ele>
  <time>2011-07-29T04:18:30Z</time>
  <speed>2.530000</speed>
</trkpt>
<trkpt lat="32.588783264" lon="35.011383057">
  <ele>103.818970</ele>
  <time>2011-07-29T04:18:31Z</time>
  <speed>2.410000</speed>
</trkpt>
<trkpt lat="32.588783264" lon="35.011417389">
  <ele>104.035767</ele>
  <time>2011-07-29T04:18:32Z</time>
  <speed>3.100000</speed>
</trkpt>
<trkpt lat="32.588779449" lon="35.011455536">
  <ele>103.834595</ele>
  <time>2011-07-29T04:18:33Z</time>
  <speed>2.770000</speed>
</trkpt>
<trkpt lat="32.588775635" lon="35.011512756">
  <ele>104.121704</ele>
  <time>2011-07-29T04:18:35Z</time>
  <speed>2.460000</speed>
</trkpt>
<trkpt lat="32.588771820" lon="35.011543274">
  <ele>104.332642</ele>
  <time>2011-07-29T04:18:36Z</time>
  <speed>2.270000</speed>
</trkpt>
<trkpt lat="32.588771820" lon="35.011577606">
  <ele>105.070923</ele>
  <time>2011-07-29T04:18:37Z</time>
  <speed>2.400000</speed>
</trkpt>
<trkpt lat="32.588768005" lon="35.011608124">
  <ele>105.963501</ele>
  <time>2011-07-29T04:18:38Z</time>
  <speed>2.350000</speed>
</trkpt>
<trkpt lat="32.588764191" lon="35.011661530">
  <ele>106.959595</ele>
  <time>2011-07-29T04:18:40Z</time>
  <speed>2.410000</speed>
</trkpt>
<trkpt lat="32.588768005" lon="35.011695862">
  <ele>107.024048</ele>
  <time>2011-07-29T04:18:41Z</time>
  <speed>2.050000</speed>
</trkpt>
<trkpt lat="32.588775635" lon="35.011749268">
  <ele>106.422485</ele>
  <time>2011-07-29T04:18:43Z</time>
  <speed>2.380000</speed>
</trkpt>
<trkpt lat="32.588771820" lon="35.011802673">
  <ele>107.895142</ele>
  <time>2011-07-29T04:18:45Z</time>
  <speed>2.720000</speed>
</trkpt>
<trkpt lat="32.588787079" lon="35.011863708">
  <ele>107.455688</ele>
  <time>2011-07-29T04:18:47Z</time>
  <speed>3.230000</speed>
</trkpt>
<trkpt lat="32.588794708" lon="35.011901855">
  <ele>106.567017</ele>
  <time>2011-07-29T04:18:48Z</time>
  <speed>3.230000</speed>
</trkpt>
<trkpt lat="32.588817596" lon="35.011959076">
  <ele>106.986938</ele>
  <time>2011-07-29T04:18:50Z</time>
  <speed>3.150000</speed>
</trkpt>
<trkpt lat="32.588821411" lon="35.012008667">
  <ele>105.481079</ele>
  <time>2011-07-29T04:18:51Z</time>
  <speed>2.920000</speed>
</trkpt>
<trkpt lat="32.588832855" lon="35.012042999">
  <ele>105.100220</ele>
  <time>2011-07-29T04:18:52Z</time>
  <speed>2.400000</speed>
</trkpt>
<trkpt lat="32.588867188" lon="35.012058258">
  <ele>105.152954</ele>
  <time>2011-07-29T04:18:53Z</time>
  <speed>2.300000</speed>
</trkpt>
<trkpt lat="32.588878632" lon="35.012084961">
  <ele>104.248657</ele>
  <time>2011-07-29T04:18:54Z</time>
  <speed>2.930000</speed>
</trkpt>
<trkpt lat="32.588890076" lon="35.012123108">
  <ele>103.990845</ele>
  <time>2011-07-29T04:18:55Z</time>
  <speed>3.090000</speed>
</trkpt>
<trkpt lat="32.588909149" lon="35.012145996">
  <ele>103.342407</ele>
  <time>2011-07-29T04:18:56Z</time>
  <speed>2.550000</speed>
</trkpt>
<trkpt lat="32.588932037" lon="35.012172699">
  <ele>102.893188</ele>
  <time>2011-07-29T04:18:58Z</time>
  <speed>2.270000</speed>
</trkpt>
<trkpt lat="32.588962555" lon="35.012184143">
  <ele>104.098267</ele>
  <time>2011-07-29T04:19:00Z</time>
  <speed>1.410000</speed>
</trkpt>
<trkpt lat="32.589008331" lon="35.012199402">
  <ele>104.848267</ele>
  <time>2011-07-29T04:19:02Z</time>
  <speed>2.390000</speed>
</trkpt>
<trkpt lat="32.589046478" lon="35.012207031">
  <ele>105.037720</ele>
  <time>2011-07-29T04:19:04Z</time>
  <speed>2.210000</speed>
</trkpt>
<trkpt lat="32.589092255" lon="35.012214661">
  <ele>105.233032</ele>
  <time>2011-07-29T04:19:06Z</time>
  <speed>2.160000</speed>
</trkpt>
<trkpt lat="32.589138031" lon="35.012229919">
  <ele>105.426392</ele>
  <time>2011-07-29T04:19:08Z</time>
  <speed>2.920000</speed>
</trkpt>
<trkpt lat="32.589183807" lon="35.012248993">
  <ele>106.715454</ele>
  <time>2011-07-29T04:19:10Z</time>
  <speed>2.480000</speed>
</trkpt>
<trkpt lat="32.589221954" lon="35.012271881">
  <ele>108.029907</ele>
  <time>2011-07-29T04:19:12Z</time>
  <speed>2.000000</speed>
</trkpt>
<trkpt lat="32.589244843" lon="35.012310028">
  <ele>108.518188</ele>
  <time>2011-07-29T04:19:14Z</time>
  <speed>2.390000</speed>
</trkpt>
<trkpt lat="32.589286804" lon="35.012329102">
  <ele>109.129517</ele>
  <time>2011-07-29T04:19:16Z</time>
  <speed>2.210000</speed>
</trkpt>
<trkpt lat="32.589328766" lon="35.012359619">
  <ele>109.713501</ele>
  <time>2011-07-29T04:19:18Z</time>
  <speed>2.140000</speed>
</trkpt>
<trkpt lat="32.589370728" lon="35.012359619">
  <ele>109.223267</ele>
  <time>2011-07-29T04:19:20Z</time>
  <speed>1.820000</speed>
</trkpt>
<trkpt lat="32.589393616" lon="35.012382507">
  <ele>108.615845</ele>
  <time>2011-07-29T04:19:22Z</time>
  <speed>2.030000</speed>
</trkpt>
<trkpt lat="32.589420319" lon="35.012409210">
  <ele>109.059204</ele>
  <time>2011-07-29T04:19:24Z</time>
  <speed>2.410000</speed>
</trkpt>
<trkpt lat="32.589466095" lon="35.012420654">
  <ele>109.381470</ele>
  <time>2011-07-29T04:19:26Z</time>
  <speed>2.510000</speed>
</trkpt>
<trkpt lat="32.589508057" lon="35.012447357">
  <ele>110.256470</ele>
  <time>2011-07-29T04:19:28Z</time>
  <speed>2.600000</speed>
</trkpt>
<trkpt lat="32.589542389" lon="35.012470245">
  <ele>111.938110</ele>
  <time>2011-07-29T04:19:30Z</time>
  <speed>2.320000</speed>
</trkpt>
<trkpt lat="32.589588165" lon="35.012474060">
  <ele>112.279907</ele>
  <time>2011-07-29T04:19:32Z</time>
  <speed>2.330000</speed>
</trkpt>
<trkpt lat="32.589618683" lon="35.012493134">
  <ele>112.586548</ele>
  <time>2011-07-29T04:19:34Z</time>
  <speed>2.060000</speed>
</trkpt>
<trkpt lat="32.589656830" lon="35.012519836">
  <ele>111.879517</ele>
  <time>2011-07-29T04:19:36Z</time>
  <speed>1.960000</speed>
</trkpt>
<trkpt lat="32.589694977" lon="35.012542725">
  <ele>112.570923</ele>
  <time>2011-07-29T04:19:38Z</time>
  <speed>2.100000</speed>
</trkpt>
<trkpt lat="32.589736938" lon="35.012550354">
  <ele>112.488892</ele>
  <time>2011-07-29T04:19:40Z</time>
  <speed>2.170000</speed>
</trkpt>
<trkpt lat="32.589778900" lon="35.012554169">
  <ele>111.891235</ele>
  <time>2011-07-29T04:19:42Z</time>
  <speed>2.020000</speed>
</trkpt>
<trkpt lat="32.589832306" lon="35.012565613">
  <ele>113.094360</ele>
  <time>2011-07-29T04:19:44Z</time>
  <speed>2.070000</speed>
</trkpt>
<trkpt lat="32.589859009" lon="35.012580872">
  <ele>113.762329</ele>
  <time>2011-07-29T04:19:45Z</time>
  <speed>2.260000</speed>
</trkpt>
<trkpt lat="32.589889526" lon="35.012607574">
  <ele>113.688110</ele>
  <time>2011-07-29T04:19:47Z</time>
  <speed>2.250000</speed>
</trkpt>
<trkpt lat="32.589916229" lon="35.012638092">
  <ele>112.904907</ele>
  <time>2011-07-29T04:19:49Z</time>
  <speed>1.820000</speed>
</trkpt>
<trkpt lat="32.589946747" lon="35.012672424">
  <ele>113.254517</ele>
  <time>2011-07-29T04:19:51Z</time>
  <speed>1.900000</speed>
</trkpt>
<trkpt lat="32.589977264" lon="35.012691498">
  <ele>112.609985</ele>
  <time>2011-07-29T04:19:53Z</time>
  <speed>1.810000</speed>
</trkpt>
<trkpt lat="32.589992523" lon="35.012725830">
  <ele>112.654907</ele>
  <time>2011-07-29T04:19:55Z</time>
  <speed>1.890000</speed>
</trkpt>
<trkpt lat="32.590019226" lon="35.012756348">
  <ele>112.264282</ele>
  <time>2011-07-29T04:19:57Z</time>
  <speed>2.040000</speed>
</trkpt>
<trkpt lat="32.590045929" lon="35.012775421">
  <ele>111.934204</ele>
  <time>2011-07-29T04:19:59Z</time>
  <speed>1.760000</speed>
</trkpt>
<trkpt lat="32.590065002" lon="35.012798309">
  <ele>111.391235</ele>
  <time>2011-07-29T04:20:01Z</time>
  <speed>1.860000</speed>
</trkpt>
<trkpt lat="32.590091705" lon="35.012821198">
  <ele>111.139282</ele>
  <time>2011-07-29T04:20:03Z</time>
  <speed>1.940000</speed>
</trkpt>
<trkpt lat="32.590118408" lon="35.012844086">
  <ele>111.750610</ele>
  <time>2011-07-29T04:20:05Z</time>
  <speed>1.910000</speed>
</trkpt>
<trkpt lat="32.590145111" lon="35.012855530">
  <ele>112.098267</ele>
  <time>2011-07-29T04:20:07Z</time>
  <speed>1.310000</speed>
</trkpt>
<trkpt lat="32.590179443" lon="35.012851715">
  <ele>112.846313</ele>
  <time>2011-07-29T04:20:09Z</time>
  <speed>2.120000</speed>
</trkpt>
<trkpt lat="32.590206146" lon="35.012866974">
  <ele>113.781860</ele>
  <time>2011-07-29T04:20:11Z</time>
  <speed>1.930000</speed>
</trkpt>
<trkpt lat="32.590225220" lon="35.012878418">
  <ele>115.797485</ele>
  <time>2011-07-29T04:20:13Z</time>
  <speed>1.520000</speed>
</trkpt>
<trkpt lat="32.590248108" lon="35.012905121">
  <ele>116.192017</ele>
  <time>2011-07-29T04:20:15Z</time>
  <speed>1.290000</speed>
</trkpt>
<trkpt lat="32.590278625" lon="35.012935638">
  <ele>115.602173</ele>
  <time>2011-07-29T04:20:17Z</time>
  <speed>1.530000</speed>
</trkpt>
<trkpt lat="32.590301514" lon="35.012966156">
  <ele>115.986938</ele>
  <time>2011-07-29T04:20:19Z</time>
  <speed>2.160000</speed>
</trkpt>
<trkpt lat="32.590332031" lon="35.012992859">
  <ele>115.770142</ele>
  <time>2011-07-29T04:20:21Z</time>
  <speed>2.000000</speed>
</trkpt>
<trkpt lat="32.590366364" lon="35.013015747">
  <ele>116.356079</ele>
  <time>2011-07-29T04:20:23Z</time>
  <speed>1.610000</speed>
</trkpt>
<trkpt lat="32.590400696" lon="35.013031006">
  <ele>116.588501</ele>
  <time>2011-07-29T04:20:25Z</time>
  <speed>1.670000</speed>
</trkpt>
<trkpt lat="32.590438843" lon="35.013050079">
  <ele>118.002563</ele>
  <time>2011-07-29T04:20:27Z</time>
  <speed>1.500000</speed>
</trkpt>
<trkpt lat="32.590480804" lon="35.013080597">
  <ele>118.408813</ele>
  <time>2011-07-29T04:20:30Z</time>
  <speed>1.900000</speed>
</trkpt>
<trkpt lat="32.590511322" lon="35.013103485">
  <ele>118.940063</ele>
  <time>2011-07-29T04:20:32Z</time>
  <speed>1.930000</speed>
</trkpt>
<trkpt lat="32.590538025" lon="35.013118744">
  <ele>119.151001</ele>
  <time>2011-07-29T04:20:34Z</time>
  <speed>1.880000</speed>
</trkpt>
<trkpt lat="32.590564728" lon="35.013141632">
  <ele>119.381470</ele>
  <time>2011-07-29T04:20:36Z</time>
  <speed>2.050000</speed>
</trkpt>
<trkpt lat="32.590595245" lon="35.013164520">
  <ele>119.688110</ele>
  <time>2011-07-29T04:20:38Z</time>
  <speed>1.820000</speed>
</trkpt>
<trkpt lat="32.590625763" lon="35.013172150">
  <ele>119.526001</ele>
  <time>2011-07-29T04:20:40Z</time>
  <speed>2.190000</speed>
</trkpt>
<trkpt lat="32.590660095" lon="35.013198853">
  <ele>120.276001</ele>
  <time>2011-07-29T04:20:42Z</time>
  <speed>1.890000</speed>
</trkpt>
<trkpt lat="32.590690613" lon="35.013221741">
  <ele>119.865845</ele>
  <time>2011-07-29T04:20:44Z</time>
  <speed>1.720000</speed>
</trkpt>
<trkpt lat="32.590713501" lon="35.013237000">
  <ele>120.371704</ele>
  <time>2011-07-29T04:20:46Z</time>
  <speed>1.360000</speed>
</trkpt>
<trkpt lat="32.590740204" lon="35.013259888">
  <ele>120.805298</ele>
  <time>2011-07-29T04:20:48Z</time>
  <speed>1.500000</speed>
</trkpt>
<trkpt lat="32.590766907" lon="35.013271332">
  <ele>120.240845</ele>
  <time>2011-07-29T04:20:50Z</time>
  <speed>1.980000</speed>
</trkpt>
<trkpt lat="32.590797424" lon="35.013294220">
  <ele>120.432251</ele>
  <time>2011-07-29T04:20:52Z</time>
  <speed>1.800000</speed>
</trkpt>
<trkpt lat="32.590827942" lon="35.013317108">
  <ele>119.795532</ele>
  <time>2011-07-29T04:20:54Z</time>
  <speed>1.870000</speed>
</trkpt>
<trkpt lat="32.590854645" lon="35.013328552">
  <ele>119.750610</ele>
  <time>2011-07-29T04:20:56Z</time>
  <speed>1.950000</speed>
</trkpt>
<trkpt lat="32.590888977" lon="35.013355255">
  <ele>120.385376</ele>
  <time>2011-07-29T04:20:59Z</time>
  <speed>2.000000</speed>
</trkpt>
<trkpt lat="32.590915680" lon="35.013385773">
  <ele>120.463501</ele>
  <time>2011-07-29T04:21:01Z</time>
  <speed>1.990000</speed>
</trkpt>
<trkpt lat="32.590942383" lon="35.013420105">
  <ele>120.258423</ele>
  <time>2011-07-29T04:21:03Z</time>
  <speed>2.230000</speed>
</trkpt>
<trkpt lat="32.590961456" lon="35.013446808">
  <ele>120.818970</ele>
  <time>2011-07-29T04:21:05Z</time>
  <speed>2.020000</speed>
</trkpt>
<trkpt lat="32.590972900" lon="35.013477325">
  <ele>121.188110</ele>
  <time>2011-07-29T04:21:07Z</time>
  <speed>1.790000</speed>
</trkpt>
<trkpt lat="32.590965271" lon="35.013519287">
  <ele>121.277954</ele>
  <time>2011-07-29T04:21:09Z</time>
  <speed>1.890000</speed>
</trkpt>
<trkpt lat="32.590957642" lon="35.013561249">
  <ele>121.756470</ele>
  <time>2011-07-29T04:21:11Z</time>
  <speed>1.930000</speed>
</trkpt>
<trkpt lat="32.590946198" lon="35.013599396">
  <ele>122.080688</ele>
  <time>2011-07-29T04:21:13Z</time>
  <speed>1.850000</speed>
</trkpt>
<trkpt lat="32.590930939" lon="35.013626099">
  <ele>122.965454</ele>
  <time>2011-07-29T04:21:15Z</time>
  <speed>1.430000</speed>
</trkpt>
<trkpt lat="32.590911865" lon="35.013668060">
  <ele>123.147095</ele>
  <time>2011-07-29T04:21:17Z</time>
  <speed>1.340000</speed>
</trkpt>
<trkpt lat="32.590900421" lon="35.013694763">
  <ele>123.414673</ele>
  <time>2011-07-29T04:21:19Z</time>
  <speed>1.220000</speed>
</trkpt>
<trkpt lat="32.590869904" lon="35.013706207">
  <ele>124.219360</ele>
  <time>2011-07-29T04:21:21Z</time>
  <speed>1.530000</speed>
</trkpt>
<trkpt lat="32.590847015" lon="35.013736725">
  <ele>124.149048</ele>
  <time>2011-07-29T04:21:24Z</time>
  <speed>1.440000</speed>
</trkpt>
<trkpt lat="32.590816498" lon="35.013748169">
  <ele>124.901001</ele>
  <time>2011-07-29T04:21:26Z</time>
  <speed>1.530000</speed>
</trkpt>
<trkpt lat="32.590793610" lon="35.013767242">
  <ele>124.760376</ele>
  <time>2011-07-29T04:21:28Z</time>
  <speed>1.730000</speed>
</trkpt>
<trkpt lat="32.590766907" lon="35.013790131">
  <ele>125.061157</ele>
  <time>2011-07-29T04:21:30Z</time>
  <speed>1.760000</speed>
</trkpt>
<trkpt lat="32.590736389" lon="35.013801575">
  <ele>126.059204</ele>
  <time>2011-07-29T04:21:32Z</time>
  <speed>1.540000</speed>
</trkpt>
<trkpt lat="32.590705872" lon="35.013813019">
  <ele>126.234985</ele>
  <time>2011-07-29T04:21:34Z</time>
  <speed>1.980000</speed>
</trkpt>
<trkpt lat="32.590679169" lon="35.013832092">
  <ele>126.826782</ele>
  <time>2011-07-29T04:21:36Z</time>
  <speed>1.660000</speed>
</trkpt>
<trkpt lat="32.590656281" lon="35.013854980">
  <ele>127.426392</ele>
  <time>2011-07-29T04:21:38Z</time>
  <speed>1.650000</speed>
</trkpt>
<trkpt lat="32.590629578" lon="35.013870239">
  <ele>128.266846</ele>
  <time>2011-07-29T04:21:40Z</time>
  <speed>1.820000</speed>
</trkpt>
<trkpt lat="32.590595245" lon="35.013881683">
  <ele>127.830688</ele>
  <time>2011-07-29T04:21:42Z</time>
  <speed>1.950000</speed>
</trkpt>
<trkpt lat="32.590564728" lon="35.013889313">
  <ele>127.984985</ele>
  <time>2011-07-29T04:21:44Z</time>
  <speed>1.320000</speed>
</trkpt>
<trkpt lat="32.590530396" lon="35.013885498">
  <ele>128.489502</ele>
  <time>2011-07-29T04:21:46Z</time>
  <speed>1.620000</speed>
</trkpt>
<trkpt lat="32.590503693" lon="35.013877869">
  <ele>129.169189</ele>
  <time>2011-07-29T04:21:47Z</time>
  <speed>1.620000</speed>
</trkpt>
<trkpt lat="32.590476990" lon="35.013877869">
  <ele>129.309814</ele>
  <time>2011-07-29T04:21:49Z</time>
  <speed>1.300000</speed>
</trkpt>
<trkpt lat="32.590427399" lon="35.013900757">
  <ele>131.032471</ele>
  <time>2011-07-29T04:21:52Z</time>
  <speed>1.140000</speed>
</trkpt>
<trkpt lat="32.590396881" lon="35.013893127">
  <ele>131.083252</ele>
  <time>2011-07-29T04:21:54Z</time>
  <speed>1.330000</speed>
</trkpt>
<trkpt lat="32.590354919" lon="35.013877869">
  <ele>131.352783</ele>
  <time>2011-07-29T04:21:57Z</time>
  <speed>1.420000</speed>
</trkpt>
<trkpt lat="32.590320587" lon="35.013877869">
  <ele>131.903564</ele>
  <time>2011-07-29T04:21:59Z</time>
  <speed>1.530000</speed>
</trkpt>
<trkpt lat="32.590290070" lon="35.013870239">
  <ele>131.962158</ele>
  <time>2011-07-29T04:22:01Z</time>
  <speed>1.440000</speed>
</trkpt>
<trkpt lat="32.590248108" lon="35.013862610">
  <ele>132.731689</ele>
  <time>2011-07-29T04:22:03Z</time>
  <speed>1.290000</speed>
</trkpt>
<trkpt lat="32.590221405" lon="35.013854980">
  <ele>133.419189</ele>
  <time>2011-07-29T04:22:05Z</time>
  <speed>1.410000</speed>
</trkpt>
<trkpt lat="32.590175629" lon="35.013847351">
  <ele>134.052002</ele>
  <time>2011-07-29T04:22:07Z</time>
  <speed>1.560000</speed>
</trkpt>
<trkpt lat="32.590148926" lon="35.013847351">
  <ele>134.512939</ele>
  <time>2011-07-29T04:22:09Z</time>
  <speed>1.220000</speed>
</trkpt>
<trkpt lat="32.590114594" lon="35.013832092">
  <ele>133.524658</ele>
  <time>2011-07-29T04:22:11Z</time>
  <speed>1.260000</speed>
</trkpt>
<trkpt lat="32.590076447" lon="35.013828278">
  <ele>133.903564</ele>
  <time>2011-07-29T04:22:14Z</time>
  <speed>0.590000</speed>
</trkpt>
<trkpt lat="32.590053558" lon="35.013835907">
  <ele>135.942627</ele>
  <time>2011-07-29T04:22:41Z</time>
  <speed>1.130000</speed>
</trkpt>
<trkpt lat="32.590034485" lon="35.013881683">
  <ele>135.950439</ele>
  <time>2011-07-29T04:22:43Z</time>
  <speed>2.160000</speed>
</trkpt>
<trkpt lat="32.590011597" lon="35.013904572">
  <ele>135.884033</ele>
  <time>2011-07-29T04:22:44Z</time>
  <speed>3.010000</speed>
</trkpt>
<trkpt lat="32.589981079" lon="35.013919830">
  <ele>136.071533</ele>
  <time>2011-07-29T04:22:45Z</time>
  <speed>3.480000</speed>
</trkpt>
<trkpt lat="32.589946747" lon="35.013935089">
  <ele>136.298096</ele>
  <time>2011-07-29T04:22:46Z</time>
  <speed>3.590000</speed>
</trkpt>
<trkpt lat="32.589916229" lon="35.013950348">
  <ele>136.575439</ele>
  <time>2011-07-29T04:22:47Z</time>
  <speed>3.430000</speed>
</trkpt>
<trkpt lat="32.589885712" lon="35.013957977">
  <ele>136.329346</ele>
  <time>2011-07-29T04:22:48Z</time>
  <speed>2.920000</speed>
</trkpt>
<trkpt lat="32.589859009" lon="35.013957977">
  <ele>136.501221</ele>
  <time>2011-07-29T04:22:49Z</time>
  <speed>2.960000</speed>
</trkpt>
<trkpt lat="32.589824677" lon="35.013965607">
  <ele>136.216064</ele>
  <time>2011-07-29T04:22:50Z</time>
  <speed>3.520000</speed>
</trkpt>
<trkpt lat="32.589794159" lon="35.013984680">
  <ele>136.067627</ele>
  <time>2011-07-29T04:22:51Z</time>
  <speed>3.590000</speed>
</trkpt>
<trkpt lat="32.589759827" lon="35.013988495">
  <ele>136.075439</ele>
  <time>2011-07-29T04:22:52Z</time>
  <speed>3.840000</speed>
</trkpt>
<trkpt lat="32.589721680" lon="35.013984680">
  <ele>135.469971</ele>
  <time>2011-07-29T04:22:53Z</time>
  <speed>3.680000</speed>
</trkpt>
<trkpt lat="32.589683533" lon="35.013980865">
  <ele>135.126221</ele>
  <time>2011-07-29T04:22:54Z</time>
  <speed>3.630000</speed>
</trkpt>
<trkpt lat="32.589645386" lon="35.013980865">
  <ele>134.665283</ele>
  <time>2011-07-29T04:22:55Z</time>
  <speed>3.940000</speed>
</trkpt>
<trkpt lat="32.589595795" lon="35.013980865">
  <ele>135.477783</ele>
  <time>2011-07-29T04:22:56Z</time>
  <speed>4.130000</speed>
</trkpt>
<trkpt lat="32.589550018" lon="35.013980865">
  <ele>136.329346</ele>
  <time>2011-07-29T04:22:57Z</time>
  <speed>3.940000</speed>
</trkpt>
<trkpt lat="32.589508057" lon="35.013980865">
  <ele>136.149658</ele>
  <time>2011-07-29T04:22:58Z</time>
  <speed>4.190000</speed>
</trkpt>
<trkpt lat="32.589469910" lon="35.013980865">
  <ele>135.989502</ele>
  <time>2011-07-29T04:22:59Z</time>
  <speed>4.020000</speed>
</trkpt>
<trkpt lat="32.589431763" lon="35.013984680">
  <ele>135.137939</ele>
  <time>2011-07-29T04:23:00Z</time>
  <speed>4.120000</speed>
</trkpt>
<trkpt lat="32.589393616" lon="35.013988495">
  <ele>134.915283</ele>
  <time>2011-07-29T04:23:01Z</time>
  <speed>4.470000</speed>
</trkpt>
<trkpt lat="32.589347839" lon="35.013992310">
  <ele>134.743408</ele>
  <time>2011-07-29T04:23:02Z</time>
  <speed>4.710000</speed>
</trkpt>
<trkpt lat="32.589305878" lon="35.013996124">
  <ele>133.966064</ele>
  <time>2011-07-29T04:23:03Z</time>
  <speed>4.230000</speed>
</trkpt>
<trkpt lat="32.589260101" lon="35.013996124">
  <ele>133.829346</ele>
  <time>2011-07-29T04:23:04Z</time>
  <speed>4.510000</speed>
</trkpt>
<trkpt lat="32.589221954" lon="35.013996124">
  <ele>133.872314</ele>
  <time>2011-07-29T04:23:05Z</time>
  <speed>4.490000</speed>
</trkpt>
<trkpt lat="32.589179993" lon="35.014007568">
  <ele>133.700439</ele>
  <time>2011-07-29T04:23:06Z</time>
  <speed>4.410000</speed>
</trkpt>
<trkpt lat="32.589141846" lon="35.013996124">
  <ele>133.884033</ele>
  <time>2011-07-29T04:23:07Z</time>
  <speed>4.150000</speed>
</trkpt>
<trkpt lat="32.589099884" lon="35.013988495">
  <ele>133.583252</ele>
  <time>2011-07-29T04:23:08Z</time>
  <speed>4.020000</speed>
</trkpt>
<trkpt lat="32.589065552" lon="35.013977051">
  <ele>133.813721</ele>
  <time>2011-07-29T04:23:09Z</time>
  <speed>3.650000</speed>
</trkpt>
<trkpt lat="32.589038849" lon="35.013977051">
  <ele>132.739502</ele>
  <time>2011-07-29T04:23:10Z</time>
  <speed>3.180000</speed>
</trkpt>
<trkpt lat="32.589004517" lon="35.013992310">
  <ele>130.872314</ele>
  <time>2011-07-29T04:23:11Z</time>
  <speed>3.190000</speed>
</trkpt>
<trkpt lat="32.588977814" lon="35.014011383">
  <ele>129.942627</ele>
  <time>2011-07-29T04:23:12Z</time>
  <speed>3.550000</speed>
</trkpt>
<trkpt lat="32.588943481" lon="35.014038086">
  <ele>128.985596</ele>
  <time>2011-07-29T04:23:13Z</time>
  <speed>4.520000</speed>
</trkpt>
<trkpt lat="32.588905334" lon="35.014049530">
  <ele>128.399658</ele>
  <time>2011-07-29T04:23:14Z</time>
  <speed>4.460000</speed>
</trkpt>
<trkpt lat="32.588863373" lon="35.014068604">
  <ele>128.450439</ele>
  <time>2011-07-29T04:23:15Z</time>
  <speed>4.550000</speed>
</trkpt>
<trkpt lat="32.588821411" lon="35.014080048">
  <ele>128.278564</ele>
  <time>2011-07-29T04:23:16Z</time>
  <speed>4.270000</speed>
</trkpt>
<trkpt lat="32.588779449" lon="35.014099121">
  <ele>126.965454</ele>
  <time>2011-07-29T04:23:17Z</time>
  <speed>3.710000</speed>
</trkpt>
<trkpt lat="32.588748932" lon="35.014122009">
  <ele>126.746704</ele>
  <time>2011-07-29T04:23:18Z</time>
  <speed>3.100000</speed>
</trkpt>
<trkpt lat="32.588722229" lon="35.014144897">
  <ele>126.387329</ele>
  <time>2011-07-29T04:23:19Z</time>
  <speed>3.590000</speed>
</trkpt>
<trkpt lat="32.588687897" lon="35.014171600">
  <ele>125.572876</ele>
  <time>2011-07-29T04:23:20Z</time>
  <speed>3.900000</speed>
</trkpt>
<trkpt lat="32.588661194" lon="35.014202118">
  <ele>125.192017</ele>
  <time>2011-07-29T04:23:21Z</time>
  <speed>3.900000</speed>
</trkpt>
<trkpt lat="32.588630676" lon="35.014221191">
  <ele>124.666626</ele>
  <time>2011-07-29T04:23:22Z</time>
  <speed>3.970000</speed>
</trkpt>
<trkpt lat="32.588600159" lon="35.014236450">
  <ele>123.947876</ele>
  <time>2011-07-29T04:23:23Z</time>
  <speed>3.290000</speed>
</trkpt>
<trkpt lat="32.588569641" lon="35.014236450">
  <ele>122.869751</ele>
  <time>2011-07-29T04:23:24Z</time>
  <speed>3.230000</speed>
</trkpt>
<trkpt lat="32.588535309" lon="35.014240265">
  <ele>122.354126</ele>
  <time>2011-07-29T04:23:25Z</time>
  <speed>3.040000</speed>
</trkpt>
<trkpt lat="32.588485718" lon="35.014255524">
  <ele>123.309204</ele>
  <time>2011-07-29T04:23:27Z</time>
  <speed>3.160000</speed>
</trkpt>
<trkpt lat="32.588447571" lon="35.014236450">
  <ele>123.565063</ele>
  <time>2011-07-29T04:23:28Z</time>
  <speed>4.270000</speed>
</trkpt>
<trkpt lat="32.588409424" lon="35.014225006">
  <ele>123.162720</ele>
  <time>2011-07-29T04:23:29Z</time>
  <speed>3.970000</speed>
</trkpt>
<trkpt lat="32.588375092" lon="35.014213562">
  <ele>123.234985</ele>
  <time>2011-07-29T04:23:30Z</time>
  <speed>3.220000</speed>
</trkpt>
<trkpt lat="32.588348389" lon="35.014205933">
  <ele>122.738892</ele>
  <time>2011-07-29T04:23:31Z</time>
  <speed>3.290000</speed>
</trkpt>
<trkpt lat="32.588321686" lon="35.014190674">
  <ele>122.358032</ele>
  <time>2011-07-29T04:23:32Z</time>
  <speed>3.660000</speed>
</trkpt>
<trkpt lat="32.588291168" lon="35.014179230">
  <ele>121.889282</ele>
  <time>2011-07-29T04:23:33Z</time>
  <speed>3.140000</speed>
</trkpt>
<trkpt lat="32.588264465" lon="35.014175415">
  <ele>121.793579</ele>
  <time>2011-07-29T04:23:34Z</time>
  <speed>2.790000</speed>
</trkpt>
<trkpt lat="32.588218689" lon="35.014209747">
  <ele>120.979126</ele>
  <time>2011-07-29T04:23:36Z</time>
  <speed>3.470000</speed>
</trkpt>
<trkpt lat="32.588191986" lon="35.014221191">
  <ele>120.166626</ele>
  <time>2011-07-29T04:23:37Z</time>
  <speed>2.770000</speed>
</trkpt>
<trkpt lat="32.588150024" lon="35.014240265">
  <ele>118.916626</ele>
  <time>2011-07-29T04:23:39Z</time>
  <speed>1.580000</speed>
</trkpt>
<trkpt lat="32.588127136" lon="35.014301300">
  <ele>117.295532</ele>
  <time>2011-07-29T04:23:41Z</time>
  <speed>2.930000</speed>
</trkpt>
<trkpt lat="32.588108063" lon="35.014328003">
  <ele>116.572876</ele>
  <time>2011-07-29T04:23:42Z</time>
  <speed>2.820000</speed>
</trkpt>
<trkpt lat="32.588066101" lon="35.014396667">
  <ele>116.981079</ele>
  <time>2011-07-29T04:23:44Z</time>
  <speed>4.260000</speed>
</trkpt>
<trkpt lat="32.588031769" lon="35.014400482">
  <ele>116.613892</ele>
  <time>2011-07-29T04:23:45Z</time>
  <speed>3.970000</speed>
</trkpt>
<trkpt lat="32.587993622" lon="35.014408112">
  <ele>117.072876</ele>
  <time>2011-07-29T04:23:46Z</time>
  <speed>3.520000</speed>
</trkpt>
<trkpt lat="32.587963104" lon="35.014411926">
  <ele>116.830688</ele>
  <time>2011-07-29T04:23:47Z</time>
  <speed>2.340000</speed>
</trkpt>
<trkpt lat="32.587928772" lon="35.014442444">
  <ele>115.834595</ele>
  <time>2011-07-29T04:23:49Z</time>
  <speed>2.240000</speed>
</trkpt>
<trkpt lat="32.587898254" lon="35.014469147">
  <ele>115.108032</ele>
  <time>2011-07-29T04:23:51Z</time>
  <speed>1.640000</speed>
</trkpt>
<trkpt lat="32.587882996" lon="35.014507294">
  <ele>113.236938</ele>
  <time>2011-07-29T04:23:53Z</time>
  <speed>1.640000</speed>
</trkpt>
<trkpt lat="32.587867737" lon="35.014541626">
  <ele>112.811157</ele>
  <time>2011-07-29T04:23:56Z</time>
  <speed>1.010000</speed>
</trkpt>
<trkpt lat="32.587841034" lon="35.014560699">
  <ele>112.002563</ele>
  <time>2011-07-29T04:23:58Z</time>
  <speed>1.580000</speed>
</trkpt>
<trkpt lat="32.587810516" lon="35.014598846">
  <ele>110.281860</ele>
  <time>2011-07-29T04:24:00Z</time>
  <speed>2.650000</speed>
</trkpt>
<trkpt lat="32.587772369" lon="35.014595032">
  <ele>108.455688</ele>
  <time>2011-07-29T04:24:02Z</time>
  <speed>1.420000</speed>
</trkpt>
<trkpt lat="32.587734222" lon="35.014625549">
  <ele>106.549438</ele>
  <time>2011-07-29T04:24:04Z</time>
  <speed>2.310000</speed>
</trkpt>
<trkpt lat="32.587680817" lon="35.014667511">
  <ele>103.651001</ele>
  <time>2011-07-29T04:24:06Z</time>
  <speed>4.480000</speed>
</trkpt>
<trkpt lat="32.587654114" lon="35.014713287">
  <ele>102.438110</ele>
  <time>2011-07-29T04:24:07Z</time>
  <speed>4.290000</speed>
</trkpt>
<trkpt lat="32.587631226" lon="35.014755249">
  <ele>101.975220</ele>
  <time>2011-07-29T04:24:08Z</time>
  <speed>3.310000</speed>
</trkpt>
<trkpt lat="32.587612152" lon="35.014789581">
  <ele>100.570923</ele>
  <time>2011-07-29T04:24:10Z</time>
  <speed>0.820000</speed>
</trkpt>
<trkpt lat="32.587596893" lon="35.014812469">
  <ele>98.397095</ele>
  <time>2011-07-29T04:24:13Z</time>
  <speed>1.020000</speed>
</trkpt>
<trkpt lat="32.587574005" lon="35.014827728">
  <ele>98.309204</ele>
  <time>2011-07-29T04:24:22Z</time>
  <speed>0.200000</speed>
</trkpt>
<trkpt lat="32.587547302" lon="35.014808655">
  <ele>98.176392</ele>
  <time>2011-07-29T04:24:53Z</time>
  <speed>1.040000</speed>
</trkpt>
<trkpt lat="32.587512970" lon="35.014808655">
  <ele>98.625610</ele>
  <time>2011-07-29T04:24:54Z</time>
  <speed>1.100000</speed>
</trkpt>
<trkpt lat="32.587486267" lon="35.014793396">
  <ele>99.455688</ele>
  <time>2011-07-29T04:24:56Z</time>
  <speed>0.950000</speed>
</trkpt>
<trkpt lat="32.587448120" lon="35.014778137">
  <ele>99.754517</ele>
  <time>2011-07-29T04:24:58Z</time>
  <speed>0.870000</speed>
</trkpt>
<trkpt lat="32.587409973" lon="35.014774323">
  <ele>100.166626</ele>
  <time>2011-07-29T04:25:01Z</time>
  <speed>0.830000</speed>
</trkpt>
<trkpt lat="32.587387085" lon="35.014755249">
  <ele>101.006470</ele>
  <time>2011-07-29T04:25:03Z</time>
  <speed>0.820000</speed>
</trkpt>
<trkpt lat="32.587348938" lon="35.014751434">
  <ele>101.740845</ele>
  <time>2011-07-29T04:25:05Z</time>
  <speed>0.990000</speed>
</trkpt>
<trkpt lat="32.587318420" lon="35.014743805">
  <ele>102.846313</ele>
  <time>2011-07-29T04:25:07Z</time>
  <speed>0.910000</speed>
</trkpt>
<trkpt lat="32.587295532" lon="35.014728546">
  <ele>103.863892</ele>
  <time>2011-07-29T04:25:10Z</time>
  <speed>0.890000</speed>
</trkpt>
<trkpt lat="32.587261200" lon="35.014713287">
  <ele>105.227173</ele>
  <time>2011-07-29T04:25:12Z</time>
  <speed>1.220000</speed>
</trkpt>
<trkpt lat="32.587226868" lon="35.014701843">
  <ele>105.543579</ele>
  <time>2011-07-29T04:25:15Z</time>
  <speed>0.930000</speed>
</trkpt>
<trkpt lat="32.587192535" lon="35.014694214">
  <ele>105.729126</ele>
  <time>2011-07-29T04:25:17Z</time>
  <speed>1.310000</speed>
</trkpt>
<trkpt lat="32.587165833" lon="35.014709473">
  <ele>106.609985</ele>
  <time>2011-07-29T04:25:19Z</time>
  <speed>0.790000</speed>
</trkpt>
<trkpt lat="32.587127686" lon="35.014720917">
  <ele>108.162720</ele>
  <time>2011-07-29T04:25:21Z</time>
  <speed>1.340000</speed>
</trkpt>
<trkpt lat="32.587104797" lon="35.014717102">
  <ele>109.195923</ele>
  <time>2011-07-29T04:25:24Z</time>
  <speed>0.840000</speed>
</trkpt>
<trkpt lat="32.587066650" lon="35.014709473">
  <ele>110.975220</ele>
  <time>2011-07-29T04:25:27Z</time>
  <speed>1.160000</speed>
</trkpt>
<trkpt lat="32.587039948" lon="35.014705658">
  <ele>112.942017</ele>
  <time>2011-07-29T04:25:30Z</time>
  <speed>0.820000</speed>
</trkpt>
<trkpt lat="32.587009430" lon="35.014713287">
  <ele>115.047485</ele>
  <time>2011-07-29T04:25:33Z</time>
  <speed>0.850000</speed>
</trkpt>
<trkpt lat="32.586994171" lon="35.014736176">
  <ele>116.600220</ele>
  <time>2011-07-29T04:25:35Z</time>
  <speed>0.890000</speed>
</trkpt>
<trkpt lat="32.586971283" lon="35.014755249">
  <ele>119.578735</ele>
  <time>2011-07-29T04:25:38Z</time>
  <speed>0.720000</speed>
</trkpt>
<trkpt lat="32.586959839" lon="35.014785767">
  <ele>121.531860</ele>
  <time>2011-07-29T04:25:41Z</time>
  <speed>0.790000</speed>
</trkpt>
<trkpt lat="32.586971283" lon="35.014808655">
  <ele>122.830688</ele>
  <time>2011-07-29T04:25:44Z</time>
  <speed>0.950000</speed>
</trkpt>
<trkpt lat="32.586982727" lon="35.014842987">
  <ele>123.412720</ele>
  <time>2011-07-29T04:25:47Z</time>
  <speed>0.960000</speed>
</trkpt>
<trkpt lat="32.587005615" lon="35.014869690">
  <ele>124.182251</ele>
  <time>2011-07-29T04:25:51Z</time>
  <speed>0.730000</speed>
</trkpt>
<trkpt lat="32.587009430" lon="35.014900208">
  <ele>124.652954</ele>
  <time>2011-07-29T04:25:55Z</time>
  <speed>0.060000</speed>
</trkpt>
<trkpt lat="32.587024689" lon="35.014926910">
  <ele>124.393188</ele>
  <time>2011-07-29T04:26:11Z</time>
  <speed>0.280000</speed>
</trkpt>
<trkpt lat="32.587062836" lon="35.014934540">
  <ele>123.641235</ele>
  <time>2011-07-29T04:26:15Z</time>
  <speed>0.610000</speed>
</trkpt>
<trkpt lat="32.587093353" lon="35.014930725">
  <ele>124.233032</ele>
  <time>2011-07-29T04:26:17Z</time>
  <speed>1.400000</speed>
</trkpt>
<trkpt lat="32.587116241" lon="35.014949799">
  <ele>124.117798</ele>
  <time>2011-07-29T04:26:19Z</time>
  <speed>1.670000</speed>
</trkpt>
<trkpt lat="32.587131500" lon="35.014976501">
  <ele>123.774048</ele>
  <time>2011-07-29T04:26:21Z</time>
  <speed>1.530000</speed>
</trkpt>
<trkpt lat="32.587158203" lon="35.014991760">
  <ele>125.416626</ele>
  <time>2011-07-29T04:26:24Z</time>
  <speed>1.610000</speed>
</trkpt>
<trkpt lat="32.587192535" lon="35.015007019">
  <ele>125.729126</ele>
  <time>2011-07-29T04:26:26Z</time>
  <speed>1.420000</speed>
</trkpt>
<trkpt lat="32.587223053" lon="35.015026093">
  <ele>125.584595</ele>
  <time>2011-07-29T04:26:28Z</time>
  <speed>1.830000</speed>
</trkpt>
<trkpt lat="32.587242126" lon="35.015052795">
  <ele>125.719360</ele>
  <time>2011-07-29T04:26:30Z</time>
  <speed>1.650000</speed>
</trkpt>
<trkpt lat="32.587284088" lon="35.015075684">
  <ele>125.063110</ele>
  <time>2011-07-29T04:26:33Z</time>
  <speed>1.990000</speed>
</trkpt>
<trkpt lat="32.587303162" lon="35.015102386">
  <ele>124.467407</ele>
  <time>2011-07-29T04:26:35Z</time>
  <speed>1.310000</speed>
</trkpt>
<trkpt lat="32.587322235" lon="35.015125275">
  <ele>123.252563</ele>
  <time>2011-07-29T04:26:37Z</time>
  <speed>1.320000</speed>
</trkpt>
<trkpt lat="32.587348938" lon="35.015155792">
  <ele>123.781860</ele>
  <time>2011-07-29T04:26:40Z</time>
  <speed>2.080000</speed>
</trkpt>
<trkpt lat="32.587371826" lon="35.015178680">
  <ele>123.479126</ele>
  <time>2011-07-29T04:26:42Z</time>
  <speed>1.690000</speed>
</trkpt>
<trkpt lat="32.587409973" lon="35.015193939">
  <ele>124.551392</ele>
  <time>2011-07-29T04:26:44Z</time>
  <speed>1.450000</speed>
</trkpt>
<trkpt lat="32.587429047" lon="35.015213013">
  <ele>125.279907</ele>
  <time>2011-07-29T04:26:46Z</time>
  <speed>1.440000</speed>
</trkpt>
<trkpt lat="32.587467194" lon="35.015232086">
  <ele>126.051392</ele>
  <time>2011-07-29T04:26:49Z</time>
  <speed>1.410000</speed>
</trkpt>
<trkpt lat="32.587497711" lon="35.015254974">
  <ele>126.436157</ele>
  <time>2011-07-29T04:26:51Z</time>
  <speed>1.550000</speed>
</trkpt>
<trkpt lat="32.587512970" lon="35.015277863">
  <ele>125.772095</ele>
  <time>2011-07-29T04:26:53Z</time>
  <speed>1.680000</speed>
</trkpt>
<trkpt lat="32.587543488" lon="35.015312195">
  <ele>125.067017</ele>
  <time>2011-07-29T04:26:56Z</time>
  <speed>1.740000</speed>
</trkpt>
<trkpt lat="32.587570190" lon="35.015357971">
  <ele>125.359985</ele>
  <time>2011-07-29T04:26:59Z</time>
  <speed>1.630000</speed>
</trkpt>
<trkpt lat="32.587593079" lon="35.015392303">
  <ele>125.740845</ele>
  <time>2011-07-29T04:27:02Z</time>
  <speed>1.500000</speed>
</trkpt>
<trkpt lat="32.587619781" lon="35.015422821">
  <ele>125.613892</ele>
  <time>2011-07-29T04:27:05Z</time>
  <speed>1.340000</speed>
</trkpt>
<trkpt lat="32.587635040" lon="35.015453339">
  <ele>125.832642</ele>
  <time>2011-07-29T04:27:07Z</time>
  <speed>1.680000</speed>
</trkpt>
<trkpt lat="32.587642670" lon="35.015487671">
  <ele>126.139282</ele>
  <time>2011-07-29T04:27:09Z</time>
  <speed>1.380000</speed>
</trkpt>
<trkpt lat="32.587661743" lon="35.015510559">
  <ele>125.984985</ele>
  <time>2011-07-29T04:27:11Z</time>
  <speed>1.610000</speed>
</trkpt>
<trkpt lat="32.587680817" lon="35.015548706">
  <ele>125.625610</ele>
  <time>2011-07-29T04:27:13Z</time>
  <speed>1.540000</speed>
</trkpt>
<trkpt lat="32.587696075" lon="35.015579224">
  <ele>125.320923</ele>
  <time>2011-07-29T04:27:15Z</time>
  <speed>2.130000</speed>
</trkpt>
<trkpt lat="32.587722778" lon="35.015609741">
  <ele>125.897095</ele>
  <time>2011-07-29T04:27:17Z</time>
  <speed>2.020000</speed>
</trkpt>
<trkpt lat="32.587734222" lon="35.015640259">
  <ele>126.252563</ele>
  <time>2011-07-29T04:27:19Z</time>
  <speed>1.680000</speed>
</trkpt>
<trkpt lat="32.587738037" lon="35.015670776">
  <ele>127.420532</ele>
  <time>2011-07-29T04:27:21Z</time>
  <speed>1.610000</speed>
</trkpt>
<trkpt lat="32.587741852" lon="35.015705109">
  <ele>127.783813</ele>
  <time>2011-07-29T04:27:23Z</time>
  <speed>1.620000</speed>
</trkpt>
<trkpt lat="32.587741852" lon="35.015735626">
  <ele>128.591064</ele>
  <time>2011-07-29T04:27:25Z</time>
  <speed>1.430000</speed>
</trkpt>
<trkpt lat="32.587745667" lon="35.015769958">
  <ele>128.887939</ele>
  <time>2011-07-29T04:27:27Z</time>
  <speed>1.530000</speed>
</trkpt>
<trkpt lat="32.587753296" lon="35.015800476">
  <ele>129.618408</ele>
  <time>2011-07-29T04:27:29Z</time>
  <speed>1.640000</speed>
</trkpt>
<trkpt lat="32.587760925" lon="35.015842438">
  <ele>131.118408</ele>
  <time>2011-07-29T04:27:32Z</time>
  <speed>1.590000</speed>
</trkpt>
<trkpt lat="32.587753296" lon="35.015876770">
  <ele>131.969971</ele>
  <time>2011-07-29T04:27:34Z</time>
  <speed>1.510000</speed>
</trkpt>
<trkpt lat="32.587745667" lon="35.015914917">
  <ele>133.407471</ele>
  <time>2011-07-29T04:27:37Z</time>
  <speed>1.370000</speed>
</trkpt>
<trkpt lat="32.587753296" lon="35.015964508">
  <ele>134.266846</ele>
  <time>2011-07-29T04:27:40Z</time>
  <speed>1.380000</speed>
</trkpt>
<trkpt lat="32.587753296" lon="35.015995026">
  <ele>134.391846</ele>
  <time>2011-07-29T04:27:42Z</time>
  <speed>1.310000</speed>
</trkpt>
<trkpt lat="32.587753296" lon="35.016036987">
  <ele>134.755127</ele>
  <time>2011-07-29T04:27:45Z</time>
  <speed>1.270000</speed>
</trkpt>
<trkpt lat="32.587768555" lon="35.016071320">
  <ele>135.145752</ele>
  <time>2011-07-29T04:27:47Z</time>
  <speed>1.530000</speed>
</trkpt>
<trkpt lat="32.587776184" lon="35.016117096">
  <ele>135.407471</ele>
  <time>2011-07-29T04:27:50Z</time>
  <speed>1.550000</speed>
</trkpt>
<trkpt lat="32.587772369" lon="35.016147614">
  <ele>136.114502</ele>
  <time>2011-07-29T04:27:52Z</time>
  <speed>1.470000</speed>
</trkpt>
<trkpt lat="32.587787628" lon="35.016185760">
  <ele>136.399658</ele>
  <time>2011-07-29T04:27:55Z</time>
  <speed>1.350000</speed>
</trkpt>
<trkpt lat="32.587787628" lon="35.016223907">
  <ele>136.743408</ele>
  <time>2011-07-29T04:27:58Z</time>
  <speed>1.110000</speed>
</trkpt>
<trkpt lat="32.587799072" lon="35.016258240">
  <ele>135.712158</ele>
  <time>2011-07-29T04:28:00Z</time>
  <speed>1.260000</speed>
</trkpt>
<trkpt lat="32.587814331" lon="35.016292572">
  <ele>135.321533</ele>
  <time>2011-07-29T04:28:02Z</time>
  <speed>1.490000</speed>
</trkpt>
<trkpt lat="32.587818146" lon="35.016330719">
  <ele>136.630127</ele>
  <time>2011-07-29T04:28:05Z</time>
  <speed>1.340000</speed>
</trkpt>
<trkpt lat="32.587821960" lon="35.016361237">
  <ele>136.887939</ele>
  <time>2011-07-29T04:28:07Z</time>
  <speed>1.790000</speed>
</trkpt>
<trkpt lat="32.587833405" lon="35.016391754">
  <ele>137.048096</ele>
  <time>2011-07-29T04:28:09Z</time>
  <speed>1.520000</speed>
</trkpt>
<trkpt lat="32.587848663" lon="35.016422272">
  <ele>137.587158</ele>
  <time>2011-07-29T04:28:11Z</time>
  <speed>1.720000</speed>
</trkpt>
<trkpt lat="32.587867737" lon="35.016456604">
  <ele>136.766846</ele>
  <time>2011-07-29T04:28:13Z</time>
  <speed>1.800000</speed>
</trkpt>
<trkpt lat="32.587894440" lon="35.016487122">
  <ele>136.731689</ele>
  <time>2011-07-29T04:28:15Z</time>
  <speed>2.080000</speed>
</trkpt>
<trkpt lat="32.587924957" lon="35.016513824">
  <ele>136.407471</ele>
  <time>2011-07-29T04:28:17Z</time>
  <speed>1.910000</speed>
</trkpt>
<trkpt lat="32.587966919" lon="35.016548157">
  <ele>136.048096</ele>
  <time>2011-07-29T04:28:19Z</time>
  <speed>2.430000</speed>
</trkpt>
<trkpt lat="32.588012695" lon="35.016571045">
  <ele>136.512939</ele>
  <time>2011-07-29T04:28:20Z</time>
  <speed>2.460000</speed>
</trkpt>
<trkpt lat="32.588043213" lon="35.016597748">
  <ele>136.696533</ele>
  <time>2011-07-29T04:28:22Z</time>
  <speed>2.210000</speed>
</trkpt>
<trkpt lat="32.588066101" lon="35.016628265">
  <ele>135.712158</ele>
  <time>2011-07-29T04:28:24Z</time>
  <speed>2.170000</speed>
</trkpt>
<trkpt lat="32.588100433" lon="35.016651154">
  <ele>135.930908</ele>
  <time>2011-07-29T04:28:26Z</time>
  <speed>2.330000</speed>
</trkpt>
<trkpt lat="32.588134766" lon="35.016674042">
  <ele>135.594971</ele>
  <time>2011-07-29T04:28:28Z</time>
  <speed>1.910000</speed>
</trkpt>
<trkpt lat="32.588161469" lon="35.016693115">
  <ele>135.594971</ele>
  <time>2011-07-29T04:28:30Z</time>
  <speed>1.870000</speed>
</trkpt>
<trkpt lat="32.588191986" lon="35.016700745">
  <ele>135.825439</ele>
  <time>2011-07-29T04:28:32Z</time>
  <speed>1.850000</speed>
</trkpt>
<trkpt lat="32.588214874" lon="35.016723633">
  <ele>135.743408</ele>
  <time>2011-07-29T04:28:34Z</time>
  <speed>1.730000</speed>
</trkpt>
<trkpt lat="32.588241577" lon="35.016731262">
  <ele>135.778564</ele>
  <time>2011-07-29T04:28:36Z</time>
  <speed>1.770000</speed>
</trkpt>
<trkpt lat="32.588279724" lon="35.016750336">
  <ele>136.981689</ele>
  <time>2011-07-29T04:28:38Z</time>
  <speed>1.820000</speed>
</trkpt>
<trkpt lat="32.588298798" lon="35.016777039">
  <ele>136.614502</ele>
  <time>2011-07-29T04:28:40Z</time>
  <speed>1.770000</speed>
</trkpt>
<trkpt lat="32.588329315" lon="35.016788483">
  <ele>136.333252</ele>
  <time>2011-07-29T04:28:42Z</time>
  <speed>2.040000</speed>
</trkpt>
<trkpt lat="32.588363647" lon="35.016807556">
  <ele>136.262939</ele>
  <time>2011-07-29T04:28:44Z</time>
  <speed>2.070000</speed>
</trkpt>
<trkpt lat="32.588394165" lon="35.016838074">
  <ele>135.766846</ele>
  <time>2011-07-29T04:28:46Z</time>
  <speed>2.030000</speed>
</trkpt>
<trkpt lat="32.588417053" lon="35.016864777">
  <ele>135.673096</ele>
  <time>2011-07-29T04:28:48Z</time>
  <speed>1.960000</speed>
</trkpt>
<trkpt lat="32.588447571" lon="35.016887665">
  <ele>136.110596</ele>
  <time>2011-07-29T04:28:50Z</time>
  <speed>2.180000</speed>
</trkpt>
<trkpt lat="32.588470459" lon="35.016918182">
  <ele>135.903564</ele>
  <time>2011-07-29T04:28:52Z</time>
  <speed>1.790000</speed>
</trkpt>
<trkpt lat="32.588504791" lon="35.016937256">
  <ele>136.473877</ele>
  <time>2011-07-29T04:28:54Z</time>
  <speed>1.850000</speed>
</trkpt>
<trkpt lat="32.588535309" lon="35.016963959">
  <ele>136.489502</ele>
  <time>2011-07-29T04:28:56Z</time>
  <speed>2.020000</speed>
</trkpt>
<trkpt lat="32.588554382" lon="35.016990662">
  <ele>136.657471</ele>
  <time>2011-07-29T04:28:58Z</time>
  <speed>2.070000</speed>
</trkpt>
<trkpt lat="32.588569641" lon="35.017024994">
  <ele>136.680908</ele>
  <time>2011-07-29T04:29:00Z</time>
  <speed>2.280000</speed>
</trkpt>
<trkpt lat="32.588600159" lon="35.017055511">
  <ele>137.415283</ele>
  <time>2011-07-29T04:29:02Z</time>
  <speed>2.210000</speed>
</trkpt>
<trkpt lat="32.588630676" lon="35.017078400">
  <ele>138.079346</ele>
  <time>2011-07-29T04:29:04Z</time>
  <speed>1.830000</speed>
</trkpt>
<trkpt lat="32.588653564" lon="35.017105103">
  <ele>138.223877</ele>
  <time>2011-07-29T04:29:06Z</time>
  <speed>1.580000</speed>
</trkpt>
<trkpt lat="32.588665009" lon="35.017139435">
  <ele>138.458252</ele>
  <time>2011-07-29T04:29:08Z</time>
  <speed>1.630000</speed>
</trkpt>
<trkpt lat="32.588668823" lon="35.017173767">
  <ele>139.473877</ele>
  <time>2011-07-29T04:29:10Z</time>
  <speed>1.800000</speed>
</trkpt>
<trkpt lat="32.588684082" lon="35.017200470">
  <ele>139.509033</ele>
  <time>2011-07-29T04:29:12Z</time>
  <speed>1.750000</speed>
</trkpt>
<trkpt lat="32.588687897" lon="35.017234802">
  <ele>139.934814</ele>
  <time>2011-07-29T04:29:14Z</time>
  <speed>1.570000</speed>
</trkpt>
<trkpt lat="32.588687897" lon="35.017272949">
  <ele>140.251221</ele>
  <time>2011-07-29T04:29:16Z</time>
  <speed>1.720000</speed>
</trkpt>
<trkpt lat="32.588699341" lon="35.017311096">
  <ele>140.356689</ele>
  <time>2011-07-29T04:29:18Z</time>
  <speed>1.820000</speed>
</trkpt>
<trkpt lat="32.588706970" lon="35.017360687">
  <ele>139.962158</ele>
  <time>2011-07-29T04:29:21Z</time>
  <speed>1.470000</speed>
</trkpt>
<trkpt lat="32.588718414" lon="35.017402649">
  <ele>139.954346</ele>
  <time>2011-07-29T04:29:23Z</time>
  <speed>1.530000</speed>
</trkpt>
<trkpt lat="32.588729858" lon="35.017436981">
  <ele>140.219971</ele>
  <time>2011-07-29T04:29:25Z</time>
  <speed>1.520000</speed>
</trkpt>
<trkpt lat="32.588722229" lon="35.017482758">
  <ele>140.880127</ele>
  <time>2011-07-29T04:29:28Z</time>
  <speed>1.720000</speed>
</trkpt>
<trkpt lat="32.588726044" lon="35.017520905">
  <ele>141.106689</ele>
  <time>2011-07-29T04:29:30Z</time>
  <speed>1.550000</speed>
</trkpt>
<trkpt lat="32.588710785" lon="35.017566681">
  <ele>141.282471</ele>
  <time>2011-07-29T04:29:32Z</time>
  <speed>1.800000</speed>
</trkpt>
<trkpt lat="32.588706970" lon="35.017604828">
  <ele>141.637939</ele>
  <time>2011-07-29T04:29:34Z</time>
  <speed>1.870000</speed>
</trkpt>
<trkpt lat="32.588684082" lon="35.017627716">
  <ele>142.098877</ele>
  <time>2011-07-29T04:29:35Z</time>
  <speed>1.880000</speed>
</trkpt>
<trkpt lat="32.588691711" lon="35.017665863">
  <ele>141.966064</ele>
  <time>2011-07-29T04:29:37Z</time>
  <speed>1.360000</speed>
</trkpt>
<trkpt lat="32.588703156" lon="35.017696381">
  <ele>141.938721</ele>
  <time>2011-07-29T04:29:39Z</time>
  <speed>0.860000</speed>
</trkpt>
<trkpt lat="32.588672638" lon="35.017742157">
  <ele>142.516846</ele>
  <time>2011-07-29T04:29:41Z</time>
  <speed>1.620000</speed>
</trkpt>
<trkpt lat="32.588691711" lon="35.017768860">
  <ele>142.458252</ele>
  <time>2011-07-29T04:29:43Z</time>
  <speed>1.390000</speed>
</trkpt>
<trkpt lat="32.588718414" lon="35.017803192">
  <ele>142.536377</ele>
  <time>2011-07-29T04:29:45Z</time>
  <speed>1.640000</speed>
</trkpt>
<trkpt lat="32.588714600" lon="35.017845154">
  <ele>142.786377</ele>
  <time>2011-07-29T04:29:47Z</time>
  <speed>1.240000</speed>
</trkpt>
<trkpt lat="32.588733673" lon="35.017879486">
  <ele>143.227783</ele>
  <time>2011-07-29T04:29:50Z</time>
  <speed>1.490000</speed>
</trkpt>
<trkpt lat="32.588729858" lon="35.017929077">
  <ele>143.567627</ele>
  <time>2011-07-29T04:29:52Z</time>
  <speed>1.750000</speed>
</trkpt>
<trkpt lat="32.588779449" lon="35.017963409">
  <ele>145.645752</ele>
  <time>2011-07-29T04:29:54Z</time>
  <speed>1.900000</speed>
</trkpt>
<trkpt lat="32.588779449" lon="35.018009186">
  <ele>146.497314</ele>
  <time>2011-07-29T04:29:56Z</time>
  <speed>1.950000</speed>
</trkpt>
<trkpt lat="32.588779449" lon="35.018039703">
  <ele>147.704346</ele>
  <time>2011-07-29T04:29:57Z</time>
  <speed>2.430000</speed>
</trkpt>
<trkpt lat="32.588779449" lon="35.018104553">
  <ele>148.188721</ele>
  <time>2011-07-29T04:29:59Z</time>
  <speed>2.440000</speed>
</trkpt>
<trkpt lat="32.588779449" lon="35.018157959">
  <ele>148.528564</ele>
  <time>2011-07-29T04:30:01Z</time>
  <speed>2.800000</speed>
</trkpt>
<trkpt lat="32.588787079" lon="35.018196106">
  <ele>147.309814</ele>
  <time>2011-07-29T04:30:02Z</time>
  <speed>3.420000</speed>
</trkpt>
<trkpt lat="32.588790894" lon="35.018234253">
  <ele>146.762939</ele>
  <time>2011-07-29T04:30:03Z</time>
  <speed>3.190000</speed>
</trkpt>
<trkpt lat="32.588790894" lon="35.018268585">
  <ele>146.669189</ele>
  <time>2011-07-29T04:30:04Z</time>
  <speed>2.780000</speed>
</trkpt>
<trkpt lat="32.588779449" lon="35.018318176">
  <ele>146.739502</ele>
  <time>2011-07-29T04:30:06Z</time>
  <speed>2.090000</speed>
</trkpt>
<trkpt lat="32.588779449" lon="35.018356323">
  <ele>146.594971</ele>
  <time>2011-07-29T04:30:08Z</time>
  <speed>1.550000</speed>
</trkpt>
<trkpt lat="32.588768005" lon="35.018402100">
  <ele>146.610596</ele>
  <time>2011-07-29T04:30:10Z</time>
  <speed>2.170000</speed>
</trkpt>
<trkpt lat="32.588764191" lon="35.018455505">
  <ele>146.469971</ele>
  <time>2011-07-29T04:30:12Z</time>
  <speed>1.760000</speed>
</trkpt>
<trkpt lat="32.588764191" lon="35.018493652">
  <ele>146.290283</ele>
  <time>2011-07-29T04:30:14Z</time>
  <speed>1.780000</speed>
</trkpt>
<trkpt lat="32.588745117" lon="35.018531799">
  <ele>146.602783</ele>
  <time>2011-07-29T04:30:16Z</time>
  <speed>1.560000</speed>
</trkpt>
<trkpt lat="32.588737488" lon="35.018573761">
  <ele>146.188721</ele>
  <time>2011-07-29T04:30:18Z</time>
  <speed>1.810000</speed>
</trkpt>
<trkpt lat="32.588718414" lon="35.018619537">
  <ele>147.200439</ele>
  <time>2011-07-29T04:30:20Z</time>
  <speed>2.140000</speed>
</trkpt>
<trkpt lat="32.588718414" lon="35.018653870">
  <ele>147.602783</ele>
  <time>2011-07-29T04:30:21Z</time>
  <speed>1.820000</speed>
</trkpt>
<trkpt lat="32.588714600" lon="35.018695831">
  <ele>147.153564</ele>
  <time>2011-07-29T04:30:23Z</time>
  <speed>1.760000</speed>
</trkpt>
<trkpt lat="32.588703156" lon="35.018733978">
  <ele>146.946533</ele>
  <time>2011-07-29T04:30:25Z</time>
  <speed>1.490000</speed>
</trkpt>
<trkpt lat="32.588699341" lon="35.018779755">
  <ele>146.403564</ele>
  <time>2011-07-29T04:30:27Z</time>
  <speed>1.240000</speed>
</trkpt>
<trkpt lat="32.588695526" lon="35.018810272">
  <ele>145.837158</ele>
  <time>2011-07-29T04:30:29Z</time>
  <speed>1.270000</speed>
</trkpt>
<trkpt lat="32.588680267" lon="35.018848419">
  <ele>145.524658</ele>
  <time>2011-07-29T04:30:31Z</time>
  <speed>1.470000</speed>
</trkpt>
<trkpt lat="32.588684082" lon="35.018894196">
  <ele>144.641846</ele>
  <time>2011-07-29T04:30:33Z</time>
  <speed>1.920000</speed>
</trkpt>
<trkpt lat="32.588668823" lon="35.018924713">
  <ele>144.614502</ele>
  <time>2011-07-29T04:30:34Z</time>
  <speed>2.100000</speed>
</trkpt>
<trkpt lat="32.588657379" lon="35.018978119">
  <ele>144.091064</ele>
  <time>2011-07-29T04:30:36Z</time>
  <speed>2.150000</speed>
</trkpt>
<trkpt lat="32.588638306" lon="35.019008636">
  <ele>143.493408</ele>
  <time>2011-07-29T04:30:37Z</time>
  <speed>2.310000</speed>
</trkpt>
<trkpt lat="32.588626862" lon="35.019035339">
  <ele>143.118408</ele>
  <time>2011-07-29T04:30:38Z</time>
  <speed>2.020000</speed>
</trkpt>
<trkpt lat="32.588611603" lon="35.019073486">
  <ele>143.098877</ele>
  <time>2011-07-29T04:30:39Z</time>
  <speed>2.470000</speed>
</trkpt>
<trkpt lat="32.588603973" lon="35.019126892">
  <ele>143.126221</ele>
  <time>2011-07-29T04:30:41Z</time>
  <speed>2.230000</speed>
</trkpt>
<trkpt lat="32.588584900" lon="35.019172668">
  <ele>142.997314</ele>
  <time>2011-07-29T04:30:43Z</time>
  <speed>1.710000</speed>
</trkpt>
<trkpt lat="32.588562012" lon="35.019218445">
  <ele>143.071533</ele>
  <time>2011-07-29T04:30:45Z</time>
  <speed>2.320000</speed>
</trkpt>
<trkpt lat="32.588542938" lon="35.019241333">
  <ele>143.770752</ele>
  <time>2011-07-29T04:30:46Z</time>
  <speed>1.910000</speed>
</trkpt>
<trkpt lat="32.588531494" lon="35.019290924">
  <ele>144.384033</ele>
  <time>2011-07-29T04:30:48Z</time>
  <speed>2.350000</speed>
</trkpt>
<trkpt lat="32.588516235" lon="35.019344330">
  <ele>144.337158</ele>
  <time>2011-07-29T04:30:50Z</time>
  <speed>2.350000</speed>
</trkpt>
<trkpt lat="32.588516235" lon="35.019390106">
  <ele>143.934814</ele>
  <time>2011-07-29T04:30:52Z</time>
  <speed>1.850000</speed>
</trkpt>
<trkpt lat="32.588504791" lon="35.019416809">
  <ele>143.864502</ele>
  <time>2011-07-29T04:30:53Z</time>
  <speed>1.960000</speed>
</trkpt>
<trkpt lat="32.588500977" lon="35.019466400">
  <ele>143.055908</ele>
  <time>2011-07-29T04:30:55Z</time>
  <speed>1.790000</speed>
</trkpt>
<trkpt lat="32.588504791" lon="35.019512177">
  <ele>142.649658</ele>
  <time>2011-07-29T04:30:57Z</time>
  <speed>2.010000</speed>
</trkpt>
<trkpt lat="32.588497162" lon="35.019554138">
  <ele>142.052002</ele>
  <time>2011-07-29T04:30:59Z</time>
  <speed>1.560000</speed>
</trkpt>
<trkpt lat="32.588481903" lon="35.019596100">
  <ele>141.368408</ele>
  <time>2011-07-29T04:31:01Z</time>
  <speed>2.190000</speed>
</trkpt>
<trkpt lat="32.588466644" lon="35.019622803">
  <ele>140.977783</ele>
  <time>2011-07-29T04:31:02Z</time>
  <speed>1.860000</speed>
</trkpt>
<trkpt lat="32.588459015" lon="35.019653320">
  <ele>141.759033</ele>
  <time>2011-07-29T04:31:03Z</time>
  <speed>2.050000</speed>
</trkpt>
<trkpt lat="32.588432312" lon="35.019699097">
  <ele>141.653564</ele>
  <time>2011-07-29T04:31:05Z</time>
  <speed>2.120000</speed>
</trkpt>
<trkpt lat="32.588420868" lon="35.019752502">
  <ele>143.427002</ele>
  <time>2011-07-29T04:31:07Z</time>
  <speed>2.030000</speed>
</trkpt>
<trkpt lat="32.588401794" lon="35.019786835">
  <ele>145.067627</ele>
  <time>2011-07-29T04:31:08Z</time>
  <speed>2.380000</speed>
</trkpt>
<trkpt lat="32.588359833" lon="35.019817352">
  <ele>144.559814</ele>
  <time>2011-07-29T04:31:10Z</time>
  <speed>2.540000</speed>
</trkpt>
<trkpt lat="32.588333130" lon="35.019828796">
  <ele>144.805908</ele>
  <time>2011-07-29T04:31:11Z</time>
  <speed>2.530000</speed>
</trkpt>
<trkpt lat="32.588287354" lon="35.019855499">
  <ele>145.165283</ele>
  <time>2011-07-29T04:31:13Z</time>
  <speed>2.860000</speed>
</trkpt>
<trkpt lat="32.588245392" lon="35.019878387">
  <ele>145.719971</ele>
  <time>2011-07-29T04:31:15Z</time>
  <speed>2.870000</speed>
</trkpt>
<trkpt lat="32.588214874" lon="35.019886017">
  <ele>145.302002</ele>
  <time>2011-07-29T04:31:16Z</time>
  <speed>2.560000</speed>
</trkpt>
<trkpt lat="32.588191986" lon="35.019905090">
  <ele>145.118408</ele>
  <time>2011-07-29T04:31:17Z</time>
  <speed>2.490000</speed>
</trkpt>
<trkpt lat="32.588153839" lon="35.019912720">
  <ele>144.618408</ele>
  <time>2011-07-29T04:31:19Z</time>
  <speed>1.960000</speed>
</trkpt>
<trkpt lat="32.588111877" lon="35.019901276">
  <ele>144.091064</ele>
  <time>2011-07-29T04:31:21Z</time>
  <speed>2.570000</speed>
</trkpt>
<trkpt lat="32.588066101" lon="35.019905090">
  <ele>144.919189</ele>
  <time>2011-07-29T04:31:23Z</time>
  <speed>2.210000</speed>
</trkpt>
<trkpt lat="32.588020325" lon="35.019897461">
  <ele>146.161377</ele>
  <time>2011-07-29T04:31:25Z</time>
  <speed>2.590000</speed>
</trkpt>
<trkpt lat="32.587978363" lon="35.019897461">
  <ele>147.145752</ele>
  <time>2011-07-29T04:31:27Z</time>
  <speed>2.540000</speed>
</trkpt>
<trkpt lat="32.587932587" lon="35.019893646">
  <ele>147.829346</ele>
  <time>2011-07-29T04:31:29Z</time>
  <speed>2.430000</speed>
</trkpt>
<trkpt lat="32.587886810" lon="35.019870758">
  <ele>148.145752</ele>
  <time>2011-07-29T04:31:31Z</time>
  <speed>2.170000</speed>
</trkpt>
<trkpt lat="32.587860107" lon="35.019859314">
  <ele>148.766846</ele>
  <time>2011-07-29T04:31:32Z</time>
  <speed>2.260000</speed>
</trkpt>
<trkpt lat="32.587818146" lon="35.019847870">
  <ele>148.813721</ele>
  <time>2011-07-29T04:31:34Z</time>
  <speed>2.370000</speed>
</trkpt>
<trkpt lat="32.587768555" lon="35.019836426">
  <ele>149.305908</ele>
  <time>2011-07-29T04:31:36Z</time>
  <speed>2.350000</speed>
</trkpt>
<trkpt lat="32.587726593" lon="35.019821167">
  <ele>150.200439</ele>
  <time>2011-07-29T04:31:38Z</time>
  <speed>2.760000</speed>
</trkpt>
<trkpt lat="32.587677002" lon="35.019809723">
  <ele>151.356689</ele>
  <time>2011-07-29T04:31:40Z</time>
  <speed>2.470000</speed>
</trkpt>
<trkpt lat="32.587627411" lon="35.019798279">
  <ele>152.696533</ele>
  <time>2011-07-29T04:31:42Z</time>
  <speed>2.450000</speed>
</trkpt>
<trkpt lat="32.587589264" lon="35.019786835">
  <ele>153.145752</ele>
  <time>2011-07-29T04:31:43Z</time>
  <speed>2.460000</speed>
</trkpt>
<trkpt lat="32.587539673" lon="35.019779205">
  <ele>154.614502</ele>
  <time>2011-07-29T04:31:45Z</time>
  <speed>2.450000</speed>
</trkpt>
<trkpt lat="32.587493896" lon="35.019771576">
  <ele>156.149658</ele>
  <time>2011-07-29T04:31:47Z</time>
  <speed>2.250000</speed>
</trkpt>
<trkpt lat="32.587467194" lon="35.019771576">
  <ele>156.692627</ele>
  <time>2011-07-29T04:31:49Z</time>
  <speed>1.890000</speed>
</trkpt>
<trkpt lat="32.587429047" lon="35.019763947">
  <ele>157.661377</ele>
  <time>2011-07-29T04:31:51Z</time>
  <speed>2.340000</speed>
</trkpt>
<trkpt lat="32.587383270" lon="35.019752502">
  <ele>159.575439</ele>
  <time>2011-07-29T04:31:53Z</time>
  <speed>2.470000</speed>
</trkpt>
<trkpt lat="32.587348938" lon="35.019748688">
  <ele>159.762939</ele>
  <time>2011-07-29T04:31:55Z</time>
  <speed>2.290000</speed>
</trkpt>
<trkpt lat="32.587303162" lon="35.019741058">
  <ele>161.200439</ele>
  <time>2011-07-29T04:31:57Z</time>
  <speed>2.620000</speed>
</trkpt>
<trkpt lat="32.587276459" lon="35.019729614">
  <ele>161.438721</ele>
  <time>2011-07-29T04:31:58Z</time>
  <speed>2.190000</speed>
</trkpt>
<trkpt lat="32.587226868" lon="35.019710541">
  <ele>162.239502</ele>
  <time>2011-07-29T04:32:00Z</time>
  <speed>2.480000</speed>
</trkpt>
<trkpt lat="32.587188721" lon="35.019699097">
  <ele>162.946533</ele>
  <time>2011-07-29T04:32:02Z</time>
  <speed>2.520000</speed>
</trkpt>
<trkpt lat="32.587158203" lon="35.019695282">
  <ele>163.427002</ele>
  <time>2011-07-29T04:32:03Z</time>
  <speed>2.700000</speed>
</trkpt>
<trkpt lat="32.587112427" lon="35.019683838">
  <ele>164.966064</ele>
  <time>2011-07-29T04:32:05Z</time>
  <speed>2.350000</speed>
</trkpt>
<trkpt lat="32.587070465" lon="35.019680023">
  <ele>165.915283</ele>
  <time>2011-07-29T04:32:07Z</time>
  <speed>2.670000</speed>
</trkpt>
<trkpt lat="32.587020874" lon="35.019680023">
  <ele>166.934814</ele>
  <time>2011-07-29T04:32:09Z</time>
  <speed>2.520000</speed>
</trkpt>
<trkpt lat="32.586967468" lon="35.019668579">
  <ele>167.700439</ele>
  <time>2011-07-29T04:32:11Z</time>
  <speed>2.460000</speed>
</trkpt>
<trkpt lat="32.586925507" lon="35.019653320">
  <ele>168.696533</ele>
  <time>2011-07-29T04:32:13Z</time>
  <speed>2.200000</speed>
</trkpt>
<trkpt lat="32.586891174" lon="35.019649506">
  <ele>168.684814</ele>
  <time>2011-07-29T04:32:15Z</time>
  <speed>2.440000</speed>
</trkpt>
<trkpt lat="32.586845398" lon="35.019638062">
  <ele>168.985596</ele>
  <time>2011-07-29T04:32:17Z</time>
  <speed>2.580000</speed>
</trkpt>
<trkpt lat="32.586807251" lon="35.019638062">
  <ele>169.544189</ele>
  <time>2011-07-29T04:32:19Z</time>
  <speed>2.330000</speed>
</trkpt>
<trkpt lat="32.586772919" lon="35.019630432">
  <ele>170.067627</ele>
  <time>2011-07-29T04:32:21Z</time>
  <speed>2.520000</speed>
</trkpt>
<trkpt lat="32.586746216" lon="35.019626617">
  <ele>170.044189</ele>
  <time>2011-07-29T04:32:22Z</time>
  <speed>2.730000</speed>
</trkpt>
<trkpt lat="32.586704254" lon="35.019615173">
  <ele>169.727783</ele>
  <time>2011-07-29T04:32:24Z</time>
  <speed>2.400000</speed>
</trkpt>
<trkpt lat="32.586662292" lon="35.019607544">
  <ele>169.153564</ele>
  <time>2011-07-29T04:32:26Z</time>
  <speed>2.370000</speed>
</trkpt>
<trkpt lat="32.586635590" lon="35.019592285">
  <ele>168.259033</ele>
  <time>2011-07-29T04:32:27Z</time>
  <speed>2.590000</speed>
</trkpt>
<trkpt lat="32.586616516" lon="35.019577026">
  <ele>165.946533</ele>
  <time>2011-07-29T04:32:28Z</time>
  <speed>2.840000</speed>
</trkpt>
<trkpt lat="32.586566925" lon="35.019561768">
  <ele>165.505127</ele>
  <time>2011-07-29T04:32:30Z</time>
  <speed>2.670000</speed>
</trkpt>
<trkpt lat="32.586521149" lon="35.019554138">
  <ele>163.540283</ele>
  <time>2011-07-29T04:32:32Z</time>
  <speed>2.790000</speed>
</trkpt>
<trkpt lat="32.586475372" lon="35.019546509">
  <ele>162.141846</ele>
  <time>2011-07-29T04:32:34Z</time>
  <speed>2.780000</speed>
</trkpt>
<trkpt lat="32.586429596" lon="35.019531250">
  <ele>161.895752</ele>
  <time>2011-07-29T04:32:36Z</time>
  <speed>2.450000</speed>
</trkpt>
<trkpt lat="32.586380005" lon="35.019535065">
  <ele>163.091064</ele>
  <time>2011-07-29T04:32:38Z</time>
  <speed>2.360000</speed>
</trkpt>
<trkpt lat="32.586353302" lon="35.019538879">
  <ele>164.759033</ele>
  <time>2011-07-29T04:32:39Z</time>
  <speed>2.620000</speed>
</trkpt>
<trkpt lat="32.586307526" lon="35.019527435">
  <ele>163.344971</ele>
  <time>2011-07-29T04:32:41Z</time>
  <speed>3.140000</speed>
</trkpt>
<trkpt lat="32.586280823" lon="35.019512177">
  <ele>162.946533</ele>
  <time>2011-07-29T04:32:42Z</time>
  <speed>3.480000</speed>
</trkpt>
<trkpt lat="32.586250305" lon="35.019512177">
  <ele>162.450439</ele>
  <time>2011-07-29T04:32:43Z</time>
  <speed>3.310000</speed>
</trkpt>
<trkpt lat="32.586223602" lon="35.019508362">
  <ele>162.438721</ele>
  <time>2011-07-29T04:32:44Z</time>
  <speed>3.140000</speed>
</trkpt>
<trkpt lat="32.586196899" lon="35.019504547">
  <ele>162.302002</ele>
  <time>2011-07-29T04:32:45Z</time>
  <speed>3.140000</speed>
</trkpt>
<trkpt lat="32.586143494" lon="35.019496918">
  <ele>162.348877</ele>
  <time>2011-07-29T04:32:47Z</time>
  <speed>2.700000</speed>
</trkpt>
<trkpt lat="32.586116791" lon="35.019489288">
  <ele>161.841064</ele>
  <time>2011-07-29T04:32:48Z</time>
  <speed>2.950000</speed>
</trkpt>
<trkpt lat="32.586090088" lon="35.019481659">
  <ele>161.434814</ele>
  <time>2011-07-29T04:32:49Z</time>
  <speed>2.920000</speed>
</trkpt>
<trkpt lat="32.586063385" lon="35.019470215">
  <ele>161.575439</ele>
  <time>2011-07-29T04:32:50Z</time>
  <speed>2.450000</speed>
</trkpt>
<trkpt lat="32.586021423" lon="35.019443512">
  <ele>160.692627</ele>
  <time>2011-07-29T04:32:52Z</time>
  <speed>2.430000</speed>
</trkpt>
<trkpt lat="32.585968018" lon="35.019435883">
  <ele>160.411377</ele>
  <time>2011-07-29T04:32:54Z</time>
  <speed>2.950000</speed>
</trkpt>
<trkpt lat="32.585906982" lon="35.019428253">
  <ele>160.598877</ele>
  <time>2011-07-29T04:32:56Z</time>
  <speed>3.120000</speed>
</trkpt>
<trkpt lat="32.585880280" lon="35.019420624">
  <ele>160.110596</ele>
  <time>2011-07-29T04:32:57Z</time>
  <speed>2.990000</speed>
</trkpt>
<trkpt lat="32.585849762" lon="35.019420624">
  <ele>160.219971</ele>
  <time>2011-07-29T04:32:58Z</time>
  <speed>2.940000</speed>
</trkpt>
<trkpt lat="32.585819244" lon="35.019424438">
  <ele>159.946533</ele>
  <time>2011-07-29T04:32:59Z</time>
  <speed>3.300000</speed>
</trkpt>
<trkpt lat="32.585796356" lon="35.019412994">
  <ele>159.239502</ele>
  <time>2011-07-29T04:33:00Z</time>
  <speed>3.090000</speed>
</trkpt>
<trkpt lat="32.585742950" lon="35.019405365">
  <ele>158.552002</ele>
  <time>2011-07-29T04:33:02Z</time>
  <speed>3.200000</speed>
</trkpt>
<trkpt lat="32.585708618" lon="35.019401550">
  <ele>160.294189</ele>
  <time>2011-07-29T04:33:03Z</time>
  <speed>2.960000</speed>
</trkpt>
<trkpt lat="32.585659027" lon="35.019390106">
  <ele>160.841064</ele>
  <time>2011-07-29T04:33:05Z</time>
  <speed>2.990000</speed>
</trkpt>
<trkpt lat="32.585636139" lon="35.019374847">
  <ele>160.294189</ele>
  <time>2011-07-29T04:33:06Z</time>
  <speed>3.220000</speed>
</trkpt>
<trkpt lat="32.585601807" lon="35.019371033">
  <ele>160.009033</ele>
  <time>2011-07-29T04:33:07Z</time>
  <speed>3.140000</speed>
</trkpt>
<trkpt lat="32.585556030" lon="35.019359589">
  <ele>160.489502</ele>
  <time>2011-07-29T04:33:09Z</time>
  <speed>2.860000</speed>
</trkpt>
<trkpt lat="32.585514069" lon="35.019340515">
  <ele>160.868408</ele>
  <time>2011-07-29T04:33:11Z</time>
  <speed>3.240000</speed>
</trkpt>
<trkpt lat="32.585475922" lon="35.019332886">
  <ele>163.149658</ele>
  <time>2011-07-29T04:33:12Z</time>
  <speed>3.380000</speed>
</trkpt>
<trkpt lat="32.585449219" lon="35.019321442">
  <ele>163.262939</ele>
  <time>2011-07-29T04:33:13Z</time>
  <speed>3.540000</speed>
</trkpt>
<trkpt lat="32.585414886" lon="35.019313812">
  <ele>162.993408</ele>
  <time>2011-07-29T04:33:14Z</time>
  <speed>3.370000</speed>
</trkpt>
<trkpt lat="32.585388184" lon="35.019302368">
  <ele>162.266846</ele>
  <time>2011-07-29T04:33:15Z</time>
  <speed>2.930000</speed>
</trkpt>
<trkpt lat="32.585361481" lon="35.019298553">
  <ele>162.305908</ele>
  <time>2011-07-29T04:33:16Z</time>
  <speed>2.920000</speed>
</trkpt>
<trkpt lat="32.585319519" lon="35.019275665">
  <ele>160.950439</ele>
  <time>2011-07-29T04:33:18Z</time>
  <speed>3.070000</speed>
</trkpt>
<trkpt lat="32.585292816" lon="35.019256592">
  <ele>160.302002</ele>
  <time>2011-07-29T04:33:19Z</time>
  <speed>2.640000</speed>
</trkpt>
<trkpt lat="32.585254669" lon="35.019226074">
  <ele>159.266846</ele>
  <time>2011-07-29T04:33:21Z</time>
  <speed>2.880000</speed>
</trkpt>
<trkpt lat="32.585212708" lon="35.019184113">
  <ele>158.876221</ele>
  <time>2011-07-29T04:33:23Z</time>
  <speed>2.720000</speed>
</trkpt>
<trkpt lat="32.585178375" lon="35.019142151">
  <ele>158.477783</ele>
  <time>2011-07-29T04:33:25Z</time>
  <speed>2.230000</speed>
</trkpt>
<trkpt lat="32.585144043" lon="35.019111633">
  <ele>156.723877</ele>
  <time>2011-07-29T04:33:27Z</time>
  <speed>2.950000</speed>
</trkpt>
<trkpt lat="32.585121155" lon="35.019092560">
  <ele>156.114502</ele>
  <time>2011-07-29T04:33:28Z</time>
  <speed>2.660000</speed>
</trkpt>
<trkpt lat="32.585094452" lon="35.019077301">
  <ele>155.196533</ele>
  <time>2011-07-29T04:33:29Z</time>
  <speed>2.530000</speed>
</trkpt>
<trkpt lat="32.585063934" lon="35.019035339">
  <ele>154.313721</ele>
  <time>2011-07-29T04:33:31Z</time>
  <speed>2.820000</speed>
</trkpt>
<trkpt lat="32.585033417" lon="35.018993378">
  <ele>153.454346</ele>
  <time>2011-07-29T04:33:33Z</time>
  <speed>2.560000</speed>
</trkpt>
<trkpt lat="32.584995270" lon="35.018947601">
  <ele>152.575439</ele>
  <time>2011-07-29T04:33:35Z</time>
  <speed>2.870000</speed>
</trkpt>
<trkpt lat="32.584957123" lon="35.018909454">
  <ele>152.743408</ele>
  <time>2011-07-29T04:33:37Z</time>
  <speed>2.630000</speed>
</trkpt>
<trkpt lat="32.584922791" lon="35.018875122">
  <ele>151.809814</ele>
  <time>2011-07-29T04:33:39Z</time>
  <speed>2.460000</speed>
</trkpt>
<trkpt lat="32.584888458" lon="35.018844604">
  <ele>151.114502</ele>
  <time>2011-07-29T04:33:41Z</time>
  <speed>2.690000</speed>
</trkpt>
<trkpt lat="32.584850311" lon="35.018814087">
  <ele>150.891846</ele>
  <time>2011-07-29T04:33:43Z</time>
  <speed>2.690000</speed>
</trkpt>
<trkpt lat="32.584823608" lon="35.018787384">
  <ele>150.403564</ele>
  <time>2011-07-29T04:33:45Z</time>
  <speed>1.670000</speed>
</trkpt>
<trkpt lat="32.584793091" lon="35.018760681">
  <ele>151.161377</ele>
  <time>2011-07-29T04:33:47Z</time>
  <speed>1.750000</speed>
</trkpt>
<trkpt lat="32.584762573" lon="35.018737793">
  <ele>152.223877</ele>
  <time>2011-07-29T04:33:49Z</time>
  <speed>1.710000</speed>
</trkpt>
<trkpt lat="32.584732056" lon="35.018718719">
  <ele>152.395752</ele>
  <time>2011-07-29T04:33:51Z</time>
  <speed>2.080000</speed>
</trkpt>
<trkpt lat="32.584693909" lon="35.018699646">
  <ele>152.954346</ele>
  <time>2011-07-29T04:33:53Z</time>
  <speed>2.270000</speed>
</trkpt>
<trkpt lat="32.584651947" lon="35.018688202">
  <ele>153.809814</ele>
  <time>2011-07-29T04:33:55Z</time>
  <speed>1.930000</speed>
</trkpt>
<trkpt lat="32.584625244" lon="35.018684387">
  <ele>154.868408</ele>
  <time>2011-07-29T04:33:57Z</time>
  <speed>1.630000</speed>
</trkpt>
<trkpt lat="32.584583282" lon="35.018680573">
  <ele>155.919189</ele>
  <time>2011-07-29T04:33:59Z</time>
  <speed>1.500000</speed>
</trkpt>
<trkpt lat="32.584556580" lon="35.018665314">
  <ele>158.337158</ele>
  <time>2011-07-29T04:34:01Z</time>
  <speed>1.880000</speed>
</trkpt>
<trkpt lat="32.584537506" lon="35.018627167">
  <ele>159.688721</ele>
  <time>2011-07-29T04:34:03Z</time>
  <speed>1.580000</speed>
</trkpt>
<trkpt lat="32.584522247" lon="35.018600464">
  <ele>159.872314</ele>
  <time>2011-07-29T04:34:05Z</time>
  <speed>1.240000</speed>
</trkpt>
<trkpt lat="32.584487915" lon="35.018585205">
  <ele>160.680908</ele>
  <time>2011-07-29T04:34:07Z</time>
  <speed>1.500000</speed>
</trkpt>
<trkpt lat="32.584465027" lon="35.018554688">
  <ele>162.169189</ele>
  <time>2011-07-29T04:34:10Z</time>
  <speed>1.600000</speed>
</trkpt>
<trkpt lat="32.584449768" lon="35.018524170">
  <ele>162.891846</ele>
  <time>2011-07-29T04:34:12Z</time>
  <speed>1.670000</speed>
</trkpt>
<trkpt lat="32.584438324" lon="35.018486023">
  <ele>163.071533</ele>
  <time>2011-07-29T04:34:14Z</time>
  <speed>1.460000</speed>
</trkpt>
<trkpt lat="32.584426880" lon="35.018451691">
  <ele>163.665283</ele>
  <time>2011-07-29T04:34:16Z</time>
  <speed>1.520000</speed>
</trkpt>
<trkpt lat="32.584411621" lon="35.018428802">
  <ele>164.708252</ele>
  <time>2011-07-29T04:34:18Z</time>
  <speed>1.040000</speed>
</trkpt>
<trkpt lat="32.584411621" lon="35.018390656">
  <ele>163.692627</ele>
  <time>2011-07-29T04:34:21Z</time>
  <speed>0.970000</speed>
</trkpt>
<trkpt lat="32.584415436" lon="35.018356323">
  <ele>163.798096</ele>
  <time>2011-07-29T04:34:23Z</time>
  <speed>1.550000</speed>
</trkpt>
<trkpt lat="32.584415436" lon="35.018306732">
  <ele>164.481689</ele>
  <time>2011-07-29T04:34:26Z</time>
  <speed>1.840000</speed>
</trkpt>
<trkpt lat="32.584407806" lon="35.018272400">
  <ele>164.973877</ele>
  <time>2011-07-29T04:34:28Z</time>
  <speed>1.290000</speed>
</trkpt>
<trkpt lat="32.584411621" lon="35.018234253">
  <ele>166.094971</ele>
  <time>2011-07-29T04:34:30Z</time>
  <speed>1.090000</speed>
</trkpt>
<trkpt lat="32.584396362" lon="35.018192291">
  <ele>166.001221</ele>
  <time>2011-07-29T04:34:33Z</time>
  <speed>1.240000</speed>
</trkpt>
<trkpt lat="32.584388733" lon="35.018146515">
  <ele>166.622314</ele>
  <time>2011-07-29T04:34:36Z</time>
  <speed>1.470000</speed>
</trkpt>
<trkpt lat="32.584377289" lon="35.018104553">
  <ele>168.204346</ele>
  <time>2011-07-29T04:34:40Z</time>
  <speed>1.580000</speed>
</trkpt>
<trkpt lat="32.584373474" lon="35.018058777">
  <ele>169.192627</ele>
  <time>2011-07-29T04:34:43Z</time>
  <speed>0.980000</speed>
</trkpt>
<trkpt lat="32.584350586" lon="35.018032074">
  <ele>169.145752</ele>
  <time>2011-07-29T04:34:46Z</time>
  <speed>1.130000</speed>
</trkpt>
<trkpt lat="32.584327698" lon="35.018005371">
  <ele>170.454346</ele>
  <time>2011-07-29T04:34:49Z</time>
  <speed>1.050000</speed>
</trkpt>
<trkpt lat="32.584304810" lon="35.017982483">
  <ele>171.337158</ele>
  <time>2011-07-29T04:34:52Z</time>
  <speed>1.060000</speed>
</trkpt>
<trkpt lat="32.584300995" lon="35.017955780">
  <ele>170.180908</ele>
  <time>2011-07-29T04:34:54Z</time>
  <speed>1.130000</speed>
</trkpt>
<trkpt lat="32.584308624" lon="35.017921448">
  <ele>170.094971</ele>
  <time>2011-07-29T04:34:57Z</time>
  <speed>0.990000</speed>
</trkpt>
<trkpt lat="32.584300995" lon="35.017879486">
  <ele>169.692627</ele>
  <time>2011-07-29T04:35:01Z</time>
  <speed>1.250000</speed>
</trkpt>
<trkpt lat="32.584289551" lon="35.017837524">
  <ele>169.962158</ele>
  <time>2011-07-29T04:35:05Z</time>
  <speed>0.890000</speed>
</trkpt>
<trkpt lat="32.584285736" lon="35.017795563">
  <ele>169.770752</ele>
  <time>2011-07-29T04:35:08Z</time>
  <speed>1.130000</speed>
</trkpt>
<trkpt lat="32.584304810" lon="35.017757416">
  <ele>169.919189</ele>
  <time>2011-07-29T04:35:11Z</time>
  <speed>1.010000</speed>
</trkpt>
<trkpt lat="32.584312439" lon="35.017726898">
  <ele>170.805908</ele>
  <time>2011-07-29T04:35:14Z</time>
  <speed>0.840000</speed>
</trkpt>
<trkpt lat="32.584323883" lon="35.017692566">
  <ele>171.833252</ele>
  <time>2011-07-29T04:35:15Z</time>
  <speed>1.290000</speed>
</trkpt>
<trkpt lat="32.584316254" lon="35.017662048">
  <ele>173.216064</ele>
  <time>2011-07-29T04:35:20Z</time>
  <speed>0.570000</speed>
</trkpt>
<trkpt lat="32.584308624" lon="35.017623901">
  <ele>173.602783</ele>
  <time>2011-07-29T04:35:25Z</time>
  <speed>0.850000</speed>
</trkpt>
<trkpt lat="32.584300995" lon="35.017593384">
  <ele>173.829346</ele>
  <time>2011-07-29T04:35:29Z</time>
  <speed>0.650000</speed>
</trkpt>
<trkpt lat="32.584293365" lon="35.017562866">
  <ele>174.075439</ele>
  <time>2011-07-29T04:35:33Z</time>
  <speed>0.660000</speed>
</trkpt>
<trkpt lat="32.584289551" lon="35.017528534">
  <ele>173.598877</ele>
  <time>2011-07-29T04:35:36Z</time>
  <speed>0.660000</speed>
</trkpt>
<trkpt lat="32.584297180" lon="35.017482758">
  <ele>173.384033</ele>
  <time>2011-07-29T04:35:39Z</time>
  <speed>0.990000</speed>
</trkpt>
<trkpt lat="32.584285736" lon="35.017448425">
  <ele>172.911377</ele>
  <time>2011-07-29T04:35:42Z</time>
  <speed>0.830000</speed>
</trkpt>
<trkpt lat="32.584300995" lon="35.017406464">
  <ele>173.298096</ele>
  <time>2011-07-29T04:35:44Z</time>
  <speed>1.180000</speed>
</trkpt>
<trkpt lat="32.584312439" lon="35.017375946">
  <ele>173.923096</ele>
  <time>2011-07-29T04:35:48Z</time>
  <speed>0.940000</speed>
</trkpt>
<trkpt lat="32.584304810" lon="35.017345428">
  <ele>174.395752</ele>
  <time>2011-07-29T04:35:50Z</time>
  <speed>1.020000</speed>
</trkpt>
<trkpt lat="32.584300995" lon="35.017311096">
  <ele>175.727783</ele>
  <time>2011-07-29T04:35:52Z</time>
  <speed>0.870000</speed>
</trkpt>
<trkpt lat="32.584316254" lon="35.017276764">
  <ele>176.759033</ele>
  <time>2011-07-29T04:35:55Z</time>
  <speed>1.110000</speed>
</trkpt>
<trkpt lat="32.584316254" lon="35.017242432">
  <ele>178.212158</ele>
  <time>2011-07-29T04:35:58Z</time>
  <speed>0.970000</speed>
</trkpt>
<trkpt lat="32.584312439" lon="35.017208099">
  <ele>178.509033</ele>
  <time>2011-07-29T04:36:01Z</time>
  <speed>0.910000</speed>
</trkpt>
<trkpt lat="32.584308624" lon="35.017173767">
  <ele>179.079346</ele>
  <time>2011-07-29T04:36:04Z</time>
  <speed>1.000000</speed>
</trkpt>
<trkpt lat="32.584300995" lon="35.017139435">
  <ele>179.938721</ele>
  <time>2011-07-29T04:36:06Z</time>
  <speed>0.930000</speed>
</trkpt>
<trkpt lat="32.584304810" lon="35.017105103">
  <ele>180.360596</ele>
  <time>2011-07-29T04:36:09Z</time>
  <speed>0.900000</speed>
</trkpt>
<trkpt lat="32.584297180" lon="35.017063141">
  <ele>180.434814</ele>
  <time>2011-07-29T04:36:12Z</time>
  <speed>1.020000</speed>
</trkpt>
<trkpt lat="32.584304810" lon="35.017032623">
  <ele>179.946533</ele>
  <time>2011-07-29T04:36:15Z</time>
  <speed>1.500000</speed>
</trkpt>
<trkpt lat="32.584320068" lon="35.016990662">
  <ele>180.544189</ele>
  <time>2011-07-29T04:36:18Z</time>
  <speed>1.290000</speed>
</trkpt>
<trkpt lat="32.584331512" lon="35.016948700">
  <ele>180.645752</ele>
  <time>2011-07-29T04:36:20Z</time>
  <speed>1.370000</speed>
</trkpt>
<trkpt lat="32.584327698" lon="35.016910553">
  <ele>181.052002</ele>
  <time>2011-07-29T04:36:23Z</time>
  <speed>1.030000</speed>
</trkpt>
<trkpt lat="32.584327698" lon="35.016872406">
  <ele>180.094971</ele>
  <time>2011-07-29T04:36:27Z</time>
  <speed>0.990000</speed>
</trkpt>
<trkpt lat="32.584327698" lon="35.016834259">
  <ele>180.255127</ele>
  <time>2011-07-29T04:36:31Z</time>
  <speed>1.080000</speed>
</trkpt>
<trkpt lat="32.584331512" lon="35.016792297">
  <ele>180.532471</ele>
  <time>2011-07-29T04:36:35Z</time>
  <speed>0.910000</speed>
</trkpt>
<trkpt lat="32.584316254" lon="35.016750336">
  <ele>180.208252</ele>
  <time>2011-07-29T04:36:38Z</time>
  <speed>1.290000</speed>
</trkpt>
<trkpt lat="32.584320068" lon="35.016716003">
  <ele>180.352783</ele>
  <time>2011-07-29T04:36:40Z</time>
  <speed>1.120000</speed>
</trkpt>
<trkpt lat="32.584339142" lon="35.016670227">
  <ele>181.071533</ele>
  <time>2011-07-29T04:36:43Z</time>
  <speed>1.300000</speed>
</trkpt>
<trkpt lat="32.584342957" lon="35.016635895">
  <ele>180.762939</ele>
  <time>2011-07-29T04:36:46Z</time>
  <speed>1.470000</speed>
</trkpt>
<trkpt lat="32.584342957" lon="35.016593933">
  <ele>180.016846</ele>
  <time>2011-07-29T04:36:49Z</time>
  <speed>1.640000</speed>
</trkpt>
<trkpt lat="32.584346771" lon="35.016555786">
  <ele>180.255127</ele>
  <time>2011-07-29T04:36:51Z</time>
  <speed>1.690000</speed>
</trkpt>
<trkpt lat="32.584358215" lon="35.016517639">
  <ele>179.938721</ele>
  <time>2011-07-29T04:36:53Z</time>
  <speed>1.740000</speed>
</trkpt>
<trkpt lat="32.584373474" lon="35.016483307">
  <ele>179.895752</ele>
  <time>2011-07-29T04:36:55Z</time>
  <speed>1.660000</speed>
</trkpt>
<trkpt lat="32.584381104" lon="35.016448975">
  <ele>179.594971</ele>
  <time>2011-07-29T04:36:57Z</time>
  <speed>1.660000</speed>
</trkpt>
<trkpt lat="32.584392548" lon="35.016407013">
  <ele>179.278564</ele>
  <time>2011-07-29T04:37:00Z</time>
  <speed>1.680000</speed>
</trkpt>
<trkpt lat="32.584396362" lon="35.016365051">
  <ele>178.927002</ele>
  <time>2011-07-29T04:37:02Z</time>
  <speed>1.530000</speed>
</trkpt>
<trkpt lat="32.584403992" lon="35.016330719">
  <ele>178.524658</ele>
  <time>2011-07-29T04:37:04Z</time>
  <speed>1.840000</speed>
</trkpt>
<trkpt lat="32.584411621" lon="35.016296387">
  <ele>177.927002</ele>
  <time>2011-07-29T04:37:06Z</time>
  <speed>1.780000</speed>
</trkpt>
<trkpt lat="32.584415436" lon="35.016246796">
  <ele>177.274658</ele>
  <time>2011-07-29T04:37:09Z</time>
  <speed>1.670000</speed>
</trkpt>
<trkpt lat="32.584430695" lon="35.016220093">
  <ele>177.380127</ele>
  <time>2011-07-29T04:37:11Z</time>
  <speed>1.890000</speed>
</trkpt>
<trkpt lat="32.584430695" lon="35.016178131">
  <ele>176.989502</ele>
  <time>2011-07-29T04:37:13Z</time>
  <speed>1.710000</speed>
</trkpt>
<trkpt lat="32.584430695" lon="35.016136169">
  <ele>177.200439</ele>
  <time>2011-07-29T04:37:15Z</time>
  <speed>1.800000</speed>
</trkpt>
<trkpt lat="32.584426880" lon="35.016094208">
  <ele>177.442627</ele>
  <time>2011-07-29T04:37:17Z</time>
  <speed>1.540000</speed>
</trkpt>
<trkpt lat="32.584442139" lon="35.016052246">
  <ele>177.063721</ele>
  <time>2011-07-29T04:37:19Z</time>
  <speed>1.820000</speed>
</trkpt>
<trkpt lat="32.584449768" lon="35.016002655">
  <ele>177.212158</ele>
  <time>2011-07-29T04:37:21Z</time>
  <speed>1.920000</speed>
</trkpt>
<trkpt lat="32.584453583" lon="35.015964508">
  <ele>177.157471</ele>
  <time>2011-07-29T04:37:23Z</time>
  <speed>1.950000</speed>
</trkpt>
<trkpt lat="32.584449768" lon="35.015918732">
  <ele>177.411377</ele>
  <time>2011-07-29T04:37:25Z</time>
  <speed>2.000000</speed>
</trkpt>
<trkpt lat="32.584438324" lon="35.015884399">
  <ele>178.130127</ele>
  <time>2011-07-29T04:37:27Z</time>
  <speed>1.480000</speed>
</trkpt>
<trkpt lat="32.584438324" lon="35.015846252">
  <ele>177.946533</ele>
  <time>2011-07-29T04:37:29Z</time>
  <speed>1.920000</speed>
</trkpt>
<trkpt lat="32.584438324" lon="35.015808105">
  <ele>177.673096</ele>
  <time>2011-07-29T04:37:31Z</time>
  <speed>1.840000</speed>
</trkpt>
<trkpt lat="32.584434509" lon="35.015762329">
  <ele>177.024658</ele>
  <time>2011-07-29T04:37:33Z</time>
  <speed>1.960000</speed>
</trkpt>
<trkpt lat="32.584442139" lon="35.015716553">
  <ele>177.731689</ele>
  <time>2011-07-29T04:37:35Z</time>
  <speed>2.130000</speed>
</trkpt>
<trkpt lat="32.584438324" lon="35.015678406">
  <ele>177.286377</ele>
  <time>2011-07-29T04:37:36Z</time>
  <speed>2.350000</speed>
</trkpt>
<trkpt lat="32.584442139" lon="35.015636444">
  <ele>177.055908</ele>
  <time>2011-07-29T04:37:38Z</time>
  <speed>2.190000</speed>
</trkpt>
<trkpt lat="32.584449768" lon="35.015583038">
  <ele>177.094971</ele>
  <time>2011-07-29T04:37:40Z</time>
  <speed>2.740000</speed>
</trkpt>
<trkpt lat="32.584453583" lon="35.015525818">
  <ele>177.102783</ele>
  <time>2011-07-29T04:37:42Z</time>
  <speed>2.550000</speed>
</trkpt>
<trkpt lat="32.584465027" lon="35.015480042">
  <ele>177.552002</ele>
  <time>2011-07-29T04:37:44Z</time>
  <speed>2.000000</speed>
</trkpt>
<trkpt lat="32.584472656" lon="35.015434265">
  <ele>177.719971</ele>
  <time>2011-07-29T04:37:46Z</time>
  <speed>2.180000</speed>
</trkpt>
<trkpt lat="32.584480286" lon="35.015384674">
  <ele>177.848877</ele>
  <time>2011-07-29T04:37:48Z</time>
  <speed>2.160000</speed>
</trkpt>
<trkpt lat="32.584484100" lon="35.015338898">
  <ele>177.466064</ele>
  <time>2011-07-29T04:37:50Z</time>
  <speed>2.020000</speed>
</trkpt>
<trkpt lat="32.584491730" lon="35.015293121">
  <ele>177.243408</ele>
  <time>2011-07-29T04:37:52Z</time>
  <speed>2.430000</speed>
</trkpt>
<trkpt lat="32.584495544" lon="35.015262604">
  <ele>176.798096</ele>
  <time>2011-07-29T04:37:53Z</time>
  <speed>2.650000</speed>
</trkpt>
<trkpt lat="32.584495544" lon="35.015228271">
  <ele>177.727783</ele>
  <time>2011-07-29T04:37:54Z</time>
  <speed>2.670000</speed>
</trkpt>
<trkpt lat="32.584495544" lon="35.015178680">
  <ele>177.735596</ele>
  <time>2011-07-29T04:37:56Z</time>
  <speed>2.620000</speed>
</trkpt>
<trkpt lat="32.584510803" lon="35.015121460">
  <ele>177.708252</ele>
  <time>2011-07-29T04:37:58Z</time>
  <speed>2.340000</speed>
</trkpt>
<trkpt lat="32.584514618" lon="35.015064240">
  <ele>177.251221</ele>
  <time>2011-07-29T04:38:00Z</time>
  <speed>2.420000</speed>
</trkpt>
<trkpt lat="32.584514618" lon="35.015022278">
  <ele>177.063721</ele>
  <time>2011-07-29T04:38:02Z</time>
  <speed>1.880000</speed>
</trkpt>
<trkpt lat="32.584514618" lon="35.014980316">
  <ele>177.024658</ele>
  <time>2011-07-29T04:38:04Z</time>
  <speed>2.280000</speed>
</trkpt>
<trkpt lat="32.584526062" lon="35.014923096">
  <ele>176.719971</ele>
  <time>2011-07-29T04:38:06Z</time>
  <speed>2.720000</speed>
</trkpt>
<trkpt lat="32.584529877" lon="35.014862061">
  <ele>177.813721</ele>
  <time>2011-07-29T04:38:08Z</time>
  <speed>2.790000</speed>
</trkpt>
<trkpt lat="32.584529877" lon="35.014808655">
  <ele>177.731689</ele>
  <time>2011-07-29T04:38:10Z</time>
  <speed>2.120000</speed>
</trkpt>
<trkpt lat="32.584529877" lon="35.014766693">
  <ele>177.376221</ele>
  <time>2011-07-29T04:38:12Z</time>
  <speed>1.910000</speed>
</trkpt>
<trkpt lat="32.584526062" lon="35.014720917">
  <ele>176.598877</ele>
  <time>2011-07-29T04:38:14Z</time>
  <speed>1.790000</speed>
</trkpt>
<trkpt lat="32.584503174" lon="35.014678955">
  <ele>176.384033</ele>
  <time>2011-07-29T04:38:16Z</time>
  <speed>2.350000</speed>
</trkpt>
<trkpt lat="32.584503174" lon="35.014625549">
  <ele>176.110596</ele>
  <time>2011-07-29T04:38:18Z</time>
  <speed>2.660000</speed>
</trkpt>
<trkpt lat="32.584499359" lon="35.014572144">
  <ele>175.235596</ele>
  <time>2011-07-29T04:38:20Z</time>
  <speed>2.460000</speed>
</trkpt>
<trkpt lat="32.584510803" lon="35.014526367">
  <ele>176.969971</ele>
  <time>2011-07-29T04:38:21Z</time>
  <speed>2.720000</speed>
</trkpt>
<trkpt lat="32.584510803" lon="35.014495850">
  <ele>177.083252</ele>
  <time>2011-07-29T04:38:22Z</time>
  <speed>2.620000</speed>
</trkpt>
<trkpt lat="32.584506989" lon="35.014465332">
  <ele>176.774658</ele>
  <time>2011-07-29T04:38:23Z</time>
  <speed>2.970000</speed>
</trkpt>
<trkpt lat="32.584499359" lon="35.014427185">
  <ele>176.391846</ele>
  <time>2011-07-29T04:38:24Z</time>
  <speed>2.770000</speed>
</trkpt>
<trkpt lat="32.584495544" lon="35.014369965">
  <ele>175.723877</ele>
  <time>2011-07-29T04:38:26Z</time>
  <speed>2.840000</speed>
</trkpt>
<trkpt lat="32.584495544" lon="35.014324188">
  <ele>176.153564</ele>
  <time>2011-07-29T04:38:27Z</time>
  <speed>3.140000</speed>
</trkpt>
<trkpt lat="32.584495544" lon="35.014274597">
  <ele>176.290283</ele>
  <time>2011-07-29T04:38:28Z</time>
  <speed>3.380000</speed>
</trkpt>
<trkpt lat="32.584495544" lon="35.014236450">
  <ele>176.673096</ele>
  <time>2011-07-29T04:38:29Z</time>
  <speed>3.330000</speed>
</trkpt>
<trkpt lat="32.584495544" lon="35.014202118">
  <ele>176.962158</ele>
  <time>2011-07-29T04:38:30Z</time>
  <speed>3.130000</speed>
</trkpt>
<trkpt lat="32.584491730" lon="35.014144897">
  <ele>176.802002</ele>
  <time>2011-07-29T04:38:32Z</time>
  <speed>3.550000</speed>
</trkpt>
<trkpt lat="32.584484100" lon="35.014102936">
  <ele>176.512939</ele>
  <time>2011-07-29T04:38:33Z</time>
  <speed>3.420000</speed>
</trkpt>
<trkpt lat="32.584480286" lon="35.014072418">
  <ele>176.196533</ele>
  <time>2011-07-29T04:38:34Z</time>
  <speed>3.740000</speed>
</trkpt>
<trkpt lat="32.584480286" lon="35.014030457">
  <ele>175.282471</ele>
  <time>2011-07-29T04:38:35Z</time>
  <speed>3.700000</speed>
</trkpt>
<trkpt lat="32.584472656" lon="35.013992310">
  <ele>175.087158</ele>
  <time>2011-07-29T04:38:36Z</time>
  <speed>3.600000</speed>
</trkpt>
<trkpt lat="32.584465027" lon="35.013950348">
  <ele>174.653564</ele>
  <time>2011-07-29T04:38:37Z</time>
  <speed>3.490000</speed>
</trkpt>
<trkpt lat="32.584461212" lon="35.013912201">
  <ele>174.204346</ele>
  <time>2011-07-29T04:38:38Z</time>
  <speed>3.580000</speed>
</trkpt>
<trkpt lat="32.584457397" lon="35.013866425">
  <ele>174.645752</ele>
  <time>2011-07-29T04:38:39Z</time>
  <speed>3.670000</speed>
</trkpt>
<trkpt lat="32.584461212" lon="35.013820648">
  <ele>175.087158</ele>
  <time>2011-07-29T04:38:40Z</time>
  <speed>3.430000</speed>
</trkpt>
<trkpt lat="32.584442139" lon="35.013786316">
  <ele>174.739502</ele>
  <time>2011-07-29T04:38:41Z</time>
  <speed>3.420000</speed>
</trkpt>
<trkpt lat="32.584438324" lon="35.013744354">
  <ele>174.122314</ele>
  <time>2011-07-29T04:38:42Z</time>
  <speed>3.590000</speed>
</trkpt>
<trkpt lat="32.584434509" lon="35.013706207">
  <ele>174.962158</ele>
  <time>2011-07-29T04:38:43Z</time>
  <speed>3.530000</speed>
</trkpt>
<trkpt lat="32.584442139" lon="35.013660431">
  <ele>175.766846</ele>
  <time>2011-07-29T04:38:44Z</time>
  <speed>3.680000</speed>
</trkpt>
<trkpt lat="32.584442139" lon="35.013622284">
  <ele>175.837158</ele>
  <time>2011-07-29T04:38:45Z</time>
  <speed>3.820000</speed>
</trkpt>
<trkpt lat="32.584442139" lon="35.013580322">
  <ele>176.294189</ele>
  <time>2011-07-29T04:38:46Z</time>
  <speed>3.870000</speed>
</trkpt>
<trkpt lat="32.584442139" lon="35.013542175">
  <ele>176.501221</ele>
  <time>2011-07-29T04:38:47Z</time>
  <speed>3.580000</speed>
</trkpt>
<trkpt lat="32.584438324" lon="35.013504028">
  <ele>176.903564</ele>
  <time>2011-07-29T04:38:48Z</time>
  <speed>4.130000</speed>
</trkpt>
<trkpt lat="32.584430695" lon="35.013462067">
  <ele>176.927002</ele>
  <time>2011-07-29T04:38:49Z</time>
  <speed>4.040000</speed>
</trkpt>
<trkpt lat="32.584430695" lon="35.013420105">
  <ele>175.630127</ele>
  <time>2011-07-29T04:38:50Z</time>
  <speed>3.720000</speed>
</trkpt>
<trkpt lat="32.584430695" lon="35.013378143">
  <ele>175.762939</ele>
  <time>2011-07-29T04:38:51Z</time>
  <speed>3.360000</speed>
</trkpt>
<trkpt lat="32.584434509" lon="35.013347626">
  <ele>175.321533</ele>
  <time>2011-07-29T04:38:52Z</time>
  <speed>3.370000</speed>
</trkpt>
<trkpt lat="32.584445953" lon="35.013301849">
  <ele>176.216064</ele>
  <time>2011-07-29T04:38:53Z</time>
  <speed>3.710000</speed>
</trkpt>
<trkpt lat="32.584449768" lon="35.013259888">
  <ele>176.719971</ele>
  <time>2011-07-29T04:38:54Z</time>
  <speed>3.810000</speed>
</trkpt>
<trkpt lat="32.584449768" lon="35.013217926">
  <ele>176.243408</ele>
  <time>2011-07-29T04:38:55Z</time>
  <speed>3.680000</speed>
</trkpt>
<trkpt lat="32.584445953" lon="35.013187408">
  <ele>176.040283</ele>
  <time>2011-07-29T04:38:56Z</time>
  <speed>3.050000</speed>
</trkpt>
<trkpt lat="32.584438324" lon="35.013134003">
  <ele>176.098877</ele>
  <time>2011-07-29T04:38:58Z</time>
  <speed>2.780000</speed>
</trkpt>
<trkpt lat="32.584434509" lon="35.013099670">
  <ele>175.954346</ele>
  <time>2011-07-29T04:38:59Z</time>
  <speed>2.890000</speed>
</trkpt>
<trkpt lat="32.584445953" lon="35.013065338">
  <ele>176.087158</ele>
  <time>2011-07-29T04:39:00Z</time>
  <speed>2.710000</speed>
</trkpt>
<trkpt lat="32.584442139" lon="35.013023376">
  <ele>175.567627</ele>
  <time>2011-07-29T04:39:02Z</time>
  <speed>2.620000</speed>
</trkpt>
<trkpt lat="32.584426880" lon="35.012958527">
  <ele>175.102783</ele>
  <time>2011-07-29T04:39:04Z</time>
  <speed>3.020000</speed>
</trkpt>
<trkpt lat="32.584423065" lon="35.012920380">
  <ele>174.973877</ele>
  <time>2011-07-29T04:39:05Z</time>
  <speed>3.080000</speed>
</trkpt>
<trkpt lat="32.584419250" lon="35.012886047">
  <ele>174.973877</ele>
  <time>2011-07-29T04:39:06Z</time>
  <speed>3.070000</speed>
</trkpt>
<trkpt lat="32.584423065" lon="35.012851715">
  <ele>174.259033</ele>
  <time>2011-07-29T04:39:07Z</time>
  <speed>3.040000</speed>
</trkpt>
<trkpt lat="32.584426880" lon="35.012813568">
  <ele>173.544189</ele>
  <time>2011-07-29T04:39:08Z</time>
  <speed>3.090000</speed>
</trkpt>
<trkpt lat="32.584438324" lon="35.012779236">
  <ele>173.411377</ele>
  <time>2011-07-29T04:39:09Z</time>
  <speed>3.140000</speed>
</trkpt>
<trkpt lat="32.584461212" lon="35.012729645">
  <ele>173.044189</ele>
  <time>2011-07-29T04:39:11Z</time>
  <speed>2.980000</speed>
</trkpt>
<trkpt lat="32.584476471" lon="35.012699127">
  <ele>173.634033</ele>
  <time>2011-07-29T04:39:12Z</time>
  <speed>2.980000</speed>
</trkpt>
<trkpt lat="32.584487915" lon="35.012668610">
  <ele>173.704346</ele>
  <time>2011-07-29T04:39:13Z</time>
  <speed>2.840000</speed>
</trkpt>
<trkpt lat="32.584495544" lon="35.012638092">
  <ele>174.555908</ele>
  <time>2011-07-29T04:39:14Z</time>
  <speed>2.890000</speed>
</trkpt>
<trkpt lat="32.584510803" lon="35.012607574">
  <ele>174.614502</ele>
  <time>2011-07-29T04:39:15Z</time>
  <speed>2.870000</speed>
</trkpt>
<trkpt lat="32.584548950" lon="35.012561798">
  <ele>174.180908</ele>
  <time>2011-07-29T04:39:17Z</time>
  <speed>3.190000</speed>
</trkpt>
<trkpt lat="32.584571838" lon="35.012531281">
  <ele>173.708252</ele>
  <time>2011-07-29T04:39:18Z</time>
  <speed>3.360000</speed>
</trkpt>
<trkpt lat="32.584590912" lon="35.012500763">
  <ele>174.141846</ele>
  <time>2011-07-29T04:39:19Z</time>
  <speed>3.450000</speed>
</trkpt>
<trkpt lat="32.584613800" lon="35.012470245">
  <ele>173.286377</ele>
  <time>2011-07-29T04:39:20Z</time>
  <speed>3.230000</speed>
</trkpt>
<trkpt lat="32.584636688" lon="35.012447357">
  <ele>173.688721</ele>
  <time>2011-07-29T04:39:21Z</time>
  <speed>3.410000</speed>
</trkpt>
<trkpt lat="32.584655762" lon="35.012420654">
  <ele>174.126221</ele>
  <time>2011-07-29T04:39:22Z</time>
  <speed>3.260000</speed>
</trkpt>
<trkpt lat="32.584686279" lon="35.012359619">
  <ele>174.516846</ele>
  <time>2011-07-29T04:39:24Z</time>
  <speed>3.520000</speed>
</trkpt>
<trkpt lat="32.584720612" lon="35.012298584">
  <ele>174.634033</ele>
  <time>2011-07-29T04:39:26Z</time>
  <speed>3.130000</speed>
</trkpt>
<trkpt lat="32.584735870" lon="35.012268066">
  <ele>174.903564</ele>
  <time>2011-07-29T04:39:27Z</time>
  <speed>3.220000</speed>
</trkpt>
<trkpt lat="32.584762573" lon="35.012237549">
  <ele>174.587158</ele>
  <time>2011-07-29T04:39:28Z</time>
  <speed>3.250000</speed>
</trkpt>
<trkpt lat="32.584777832" lon="35.012210846">
  <ele>174.907471</ele>
  <time>2011-07-29T04:39:29Z</time>
  <speed>3.090000</speed>
</trkpt>
<trkpt lat="32.584800720" lon="35.012157440">
  <ele>175.915283</ele>
  <time>2011-07-29T04:39:31Z</time>
  <speed>3.190000</speed>
</trkpt>
<trkpt lat="32.584819794" lon="35.012130737">
  <ele>175.833252</ele>
  <time>2011-07-29T04:39:32Z</time>
  <speed>3.290000</speed>
</trkpt>
<trkpt lat="32.584842682" lon="35.012104034">
  <ele>175.969971</ele>
  <time>2011-07-29T04:39:33Z</time>
  <speed>3.420000</speed>
</trkpt>
<trkpt lat="32.584861755" lon="35.012081146">
  <ele>175.716064</ele>
  <time>2011-07-29T04:39:34Z</time>
  <speed>3.500000</speed>
</trkpt>
<trkpt lat="32.584877014" lon="35.012050629">
  <ele>176.079346</ele>
  <time>2011-07-29T04:39:35Z</time>
  <speed>3.430000</speed>
</trkpt>
<trkpt lat="32.584896088" lon="35.012020111">
  <ele>175.821533</ele>
  <time>2011-07-29T04:39:36Z</time>
  <speed>3.160000</speed>
</trkpt>
<trkpt lat="32.584918976" lon="35.011966705">
  <ele>175.743408</ele>
  <time>2011-07-29T04:39:38Z</time>
  <speed>2.890000</speed>
</trkpt>
<trkpt lat="32.584945679" lon="35.011924744">
  <ele>175.860596</ele>
  <time>2011-07-29T04:39:40Z</time>
  <speed>2.680000</speed>
</trkpt>
<trkpt lat="32.584968567" lon="35.011878967">
  <ele>174.985596</ele>
  <time>2011-07-29T04:39:42Z</time>
  <speed>3.020000</speed>
</trkpt>
<trkpt lat="32.584983826" lon="35.011848450">
  <ele>174.216064</ele>
  <time>2011-07-29T04:39:43Z</time>
  <speed>2.870000</speed>
</trkpt>
<trkpt lat="32.584999084" lon="35.011821747">
  <ele>174.063721</ele>
  <time>2011-07-29T04:39:44Z</time>
  <speed>2.960000</speed>
</trkpt>
<trkpt lat="32.585014343" lon="35.011787415">
  <ele>174.161377</ele>
  <time>2011-07-29T04:39:45Z</time>
  <speed>3.000000</speed>
</trkpt>
<trkpt lat="32.585033417" lon="35.011726379">
  <ele>174.223877</ele>
  <time>2011-07-29T04:39:47Z</time>
  <speed>2.990000</speed>
</trkpt>
<trkpt lat="32.585052490" lon="35.011669159">
  <ele>174.223877</ele>
  <time>2011-07-29T04:39:49Z</time>
  <speed>2.870000</speed>
</trkpt>
<trkpt lat="32.585052490" lon="35.011631012">
  <ele>174.958252</ele>
  <time>2011-07-29T04:39:50Z</time>
  <speed>2.710000</speed>
</trkpt>
<trkpt lat="32.585060120" lon="35.011577606">
  <ele>174.040283</ele>
  <time>2011-07-29T04:39:52Z</time>
  <speed>2.460000</speed>
</trkpt>
<trkpt lat="32.585056305" lon="35.011543274">
  <ele>173.403564</ele>
  <time>2011-07-29T04:39:53Z</time>
  <speed>2.610000</speed>
</trkpt>
<trkpt lat="32.585056305" lon="35.011508942">
  <ele>172.622314</ele>
  <time>2011-07-29T04:39:54Z</time>
  <speed>2.870000</speed>
</trkpt>
<trkpt lat="32.585060120" lon="35.011474609">
  <ele>173.052002</ele>
  <time>2011-07-29T04:39:55Z</time>
  <speed>2.540000</speed>
</trkpt>
<trkpt lat="32.585060120" lon="35.011444092">
  <ele>173.512939</ele>
  <time>2011-07-29T04:39:56Z</time>
  <speed>2.730000</speed>
</trkpt>
<trkpt lat="32.585048676" lon="35.011379242">
  <ele>174.180908</ele>
  <time>2011-07-29T04:39:58Z</time>
  <speed>2.310000</speed>
</trkpt>
<trkpt lat="32.585052490" lon="35.011337280">
  <ele>173.665283</ele>
  <time>2011-07-29T04:40:00Z</time>
  <speed>1.930000</speed>
</trkpt>
<trkpt lat="32.585048676" lon="35.011287689">
  <ele>173.911377</ele>
  <time>2011-07-29T04:40:02Z</time>
  <speed>2.330000</speed>
</trkpt>
<trkpt lat="32.585041046" lon="35.011238098">
  <ele>173.946533</ele>
  <time>2011-07-29T04:40:04Z</time>
  <speed>2.610000</speed>
</trkpt>
<trkpt lat="32.585037231" lon="35.011184692">
  <ele>173.903564</ele>
  <time>2011-07-29T04:40:06Z</time>
  <speed>2.400000</speed>
</trkpt>
<trkpt lat="32.585025787" lon="35.011138916">
  <ele>173.665283</ele>
  <time>2011-07-29T04:40:08Z</time>
  <speed>2.560000</speed>
</trkpt>
<trkpt lat="32.585014343" lon="35.011058807">
  <ele>174.016846</ele>
  <time>2011-07-29T04:40:10Z</time>
  <speed>2.840000</speed>
</trkpt>
<trkpt lat="32.585006714" lon="35.011024475">
  <ele>174.274658</ele>
  <time>2011-07-29T04:40:11Z</time>
  <speed>2.810000</speed>
</trkpt>
<trkpt lat="32.584999084" lon="35.010986328">
  <ele>174.403564</ele>
  <time>2011-07-29T04:40:12Z</time>
  <speed>2.890000</speed>
</trkpt>
<trkpt lat="32.584991455" lon="35.010929108">
  <ele>174.134033</ele>
  <time>2011-07-29T04:40:14Z</time>
  <speed>2.380000</speed>
</trkpt>
<trkpt lat="32.584964752" lon="35.010875702">
  <ele>173.450439</ele>
  <time>2011-07-29T04:40:16Z</time>
  <speed>2.500000</speed>
</trkpt>
<trkpt lat="32.584941864" lon="35.010826111">
  <ele>172.466064</ele>
  <time>2011-07-29T04:40:18Z</time>
  <speed>3.030000</speed>
</trkpt>
<trkpt lat="32.584922791" lon="35.010799408">
  <ele>172.466064</ele>
  <time>2011-07-29T04:40:19Z</time>
  <speed>2.920000</speed>
</trkpt>
<trkpt lat="32.584903717" lon="35.010772705">
  <ele>172.134033</ele>
  <time>2011-07-29T04:40:20Z</time>
  <speed>3.290000</speed>
</trkpt>
<trkpt lat="32.584880829" lon="35.010742188">
  <ele>171.540283</ele>
  <time>2011-07-29T04:40:21Z</time>
  <speed>3.130000</speed>
</trkpt>
<trkpt lat="32.584869385" lon="35.010711670">
  <ele>171.255127</ele>
  <time>2011-07-29T04:40:22Z</time>
  <speed>3.190000</speed>
</trkpt>
<trkpt lat="32.584850311" lon="35.010677338">
  <ele>171.009033</ele>
  <time>2011-07-29T04:40:23Z</time>
  <speed>3.220000</speed>
</trkpt>
<trkpt lat="32.584823608" lon="35.010631561">
  <ele>171.161377</ele>
  <time>2011-07-29T04:40:25Z</time>
  <speed>3.120000</speed>
</trkpt>
<trkpt lat="32.584800720" lon="35.010601044">
  <ele>171.329346</ele>
  <time>2011-07-29T04:40:26Z</time>
  <speed>3.140000</speed>
</trkpt>
<trkpt lat="32.584774017" lon="35.010574341">
  <ele>171.173096</ele>
  <time>2011-07-29T04:40:27Z</time>
  <speed>3.050000</speed>
</trkpt>
<trkpt lat="32.584751129" lon="35.010520935">
  <ele>171.352783</ele>
  <time>2011-07-29T04:40:29Z</time>
  <speed>3.070000</speed>
</trkpt>
<trkpt lat="32.584716797" lon="35.010478973">
  <ele>171.344971</ele>
  <time>2011-07-29T04:40:31Z</time>
  <speed>2.950000</speed>
</trkpt>
<trkpt lat="32.584674835" lon="35.010437012">
  <ele>171.477783</ele>
  <time>2011-07-29T04:40:33Z</time>
  <speed>2.580000</speed>
</trkpt>
<trkpt lat="32.584632874" lon="35.010391235">
  <ele>171.028564</ele>
  <time>2011-07-29T04:40:35Z</time>
  <speed>2.710000</speed>
</trkpt>
<trkpt lat="32.584609985" lon="35.010337830">
  <ele>171.094971</ele>
  <time>2011-07-29T04:40:37Z</time>
  <speed>2.760000</speed>
</trkpt>
<trkpt lat="32.584590912" lon="35.010311127">
  <ele>171.505127</ele>
  <time>2011-07-29T04:40:38Z</time>
  <speed>2.680000</speed>
</trkpt>
<trkpt lat="32.584575653" lon="35.010284424">
  <ele>171.993408</ele>
  <time>2011-07-29T04:40:39Z</time>
  <speed>2.870000</speed>
</trkpt>
<trkpt lat="32.584541321" lon="35.010246277">
  <ele>172.122314</ele>
  <time>2011-07-29T04:40:41Z</time>
  <speed>2.530000</speed>
</trkpt>
<trkpt lat="32.584518433" lon="35.010219574">
  <ele>171.477783</ele>
  <time>2011-07-29T04:40:42Z</time>
  <speed>2.470000</speed>
</trkpt>
<trkpt lat="32.584487915" lon="35.010185242">
  <ele>170.837158</ele>
  <time>2011-07-29T04:40:44Z</time>
  <speed>2.650000</speed>
</trkpt>
<trkpt lat="32.584465027" lon="35.010139465">
  <ele>169.751221</ele>
  <time>2011-07-29T04:40:46Z</time>
  <speed>2.740000</speed>
</trkpt>
<trkpt lat="32.584442139" lon="35.010112762">
  <ele>169.427002</ele>
  <time>2011-07-29T04:40:47Z</time>
  <speed>2.840000</speed>
</trkpt>
<trkpt lat="32.584407806" lon="35.010070801">
  <ele>169.501221</ele>
  <time>2011-07-29T04:40:49Z</time>
  <speed>2.710000</speed>
</trkpt>
<trkpt lat="32.584388733" lon="35.010044098">
  <ele>169.259033</ele>
  <time>2011-07-29T04:40:50Z</time>
  <speed>3.010000</speed>
</trkpt>
<trkpt lat="32.584365845" lon="35.009994507">
  <ele>170.165283</ele>
  <time>2011-07-29T04:40:52Z</time>
  <speed>2.700000</speed>
</trkpt>
<trkpt lat="32.584342957" lon="35.009941101">
  <ele>169.907471</ele>
  <time>2011-07-29T04:40:54Z</time>
  <speed>2.830000</speed>
</trkpt>
<trkpt lat="32.584304810" lon="35.009891510">
  <ele>169.032471</ele>
  <time>2011-07-29T04:40:56Z</time>
  <speed>3.170000</speed>
</trkpt>
<trkpt lat="32.584285736" lon="35.009868622">
  <ele>167.731689</ele>
  <time>2011-07-29T04:40:57Z</time>
  <speed>3.150000</speed>
</trkpt>
<trkpt lat="32.584270477" lon="35.009838104">
  <ele>167.677002</ele>
  <time>2011-07-29T04:40:58Z</time>
  <speed>3.360000</speed>
</trkpt>
<trkpt lat="32.584255219" lon="35.009811401">
  <ele>168.739502</ele>
  <time>2011-07-29T04:40:59Z</time>
  <speed>3.000000</speed>
</trkpt>
<trkpt lat="32.584236145" lon="35.009761810">
  <ele>169.227783</ele>
  <time>2011-07-29T04:41:01Z</time>
  <speed>2.740000</speed>
</trkpt>
<trkpt lat="32.584220886" lon="35.009731293">
  <ele>170.454346</ele>
  <time>2011-07-29T04:41:02Z</time>
  <speed>2.960000</speed>
</trkpt>
<trkpt lat="32.584205627" lon="35.009704590">
  <ele>169.727783</ele>
  <time>2011-07-29T04:41:03Z</time>
  <speed>2.960000</speed>
</trkpt>
<trkpt lat="32.584190369" lon="35.009674072">
  <ele>169.239502</ele>
  <time>2011-07-29T04:41:04Z</time>
  <speed>3.250000</speed>
</trkpt>
<trkpt lat="32.584178925" lon="35.009639740">
  <ele>169.458252</ele>
  <time>2011-07-29T04:41:05Z</time>
  <speed>3.280000</speed>
</trkpt>
<trkpt lat="32.584167480" lon="35.009609222">
  <ele>170.591064</ele>
  <time>2011-07-29T04:41:06Z</time>
  <speed>3.350000</speed>
</trkpt>
<trkpt lat="32.584159851" lon="35.009578705">
  <ele>170.872314</ele>
  <time>2011-07-29T04:41:07Z</time>
  <speed>3.270000</speed>
</trkpt>
<trkpt lat="32.584148407" lon="35.009544373">
  <ele>171.059814</ele>
  <time>2011-07-29T04:41:08Z</time>
  <speed>3.250000</speed>
</trkpt>
<trkpt lat="32.584140778" lon="35.009513855">
  <ele>171.024658</ele>
  <time>2011-07-29T04:41:09Z</time>
  <speed>3.020000</speed>
</trkpt>
<trkpt lat="32.584121704" lon="35.009456635">
  <ele>171.212158</ele>
  <time>2011-07-29T04:41:11Z</time>
  <speed>2.740000</speed>
</trkpt>
<trkpt lat="32.584117889" lon="35.009387970">
  <ele>170.696533</ele>
  <time>2011-07-29T04:41:13Z</time>
  <speed>2.800000</speed>
</trkpt>
<trkpt lat="32.584102631" lon="35.009334564">
  <ele>171.481689</ele>
  <time>2011-07-29T04:41:15Z</time>
  <speed>2.680000</speed>
</trkpt>
<trkpt lat="32.584079742" lon="35.009288788">
  <ele>171.774658</ele>
  <time>2011-07-29T04:41:17Z</time>
  <speed>2.980000</speed>
</trkpt>
<trkpt lat="32.584068298" lon="35.009254456">
  <ele>171.825439</ele>
  <time>2011-07-29T04:41:18Z</time>
  <speed>3.100000</speed>
</trkpt>
<trkpt lat="32.584060669" lon="35.009227753">
  <ele>171.606689</ele>
  <time>2011-07-29T04:41:19Z</time>
  <speed>2.960000</speed>
</trkpt>
<trkpt lat="32.584053040" lon="35.009193420">
  <ele>172.036377</ele>
  <time>2011-07-29T04:41:20Z</time>
  <speed>3.200000</speed>
</trkpt>
<trkpt lat="32.584053040" lon="35.009155273">
  <ele>171.606689</ele>
  <time>2011-07-29T04:41:21Z</time>
  <speed>2.940000</speed>
</trkpt>
<trkpt lat="32.584049225" lon="35.009117126">
  <ele>172.071533</ele>
  <time>2011-07-29T04:41:22Z</time>
  <speed>2.970000</speed>
</trkpt>
<trkpt lat="32.584056854" lon="35.009082794">
  <ele>171.735596</ele>
  <time>2011-07-29T04:41:23Z</time>
  <speed>3.440000</speed>
</trkpt>
<trkpt lat="32.584056854" lon="35.009048462">
  <ele>171.798096</ele>
  <time>2011-07-29T04:41:24Z</time>
  <speed>3.200000</speed>
</trkpt>
<trkpt lat="32.584053040" lon="35.009010315">
  <ele>171.126221</ele>
  <time>2011-07-29T04:41:25Z</time>
  <speed>3.380000</speed>
</trkpt>
<trkpt lat="32.584049225" lon="35.008972168">
  <ele>171.055908</ele>
  <time>2011-07-29T04:41:26Z</time>
  <speed>3.420000</speed>
</trkpt>
<trkpt lat="32.584049225" lon="35.008937836">
  <ele>171.469971</ele>
  <time>2011-07-29T04:41:27Z</time>
  <speed>3.200000</speed>
</trkpt>
<trkpt lat="32.584045410" lon="35.008899689">
  <ele>172.395752</ele>
  <time>2011-07-29T04:41:28Z</time>
  <speed>3.100000</speed>
</trkpt>
<trkpt lat="32.584041595" lon="35.008865356">
  <ele>172.419189</ele>
  <time>2011-07-29T04:41:29Z</time>
  <speed>3.040000</speed>
</trkpt>
<trkpt lat="32.584033966" lon="35.008831024">
  <ele>172.579346</ele>
  <time>2011-07-29T04:41:30Z</time>
  <speed>3.010000</speed>
</trkpt>
<trkpt lat="32.584030151" lon="35.008796692">
  <ele>172.259033</ele>
  <time>2011-07-29T04:41:31Z</time>
  <speed>3.120000</speed>
</trkpt>
<trkpt lat="32.584018707" lon="35.008735657">
  <ele>171.852783</ele>
  <time>2011-07-29T04:41:33Z</time>
  <speed>2.760000</speed>
</trkpt>
<trkpt lat="32.584014893" lon="35.008674622">
  <ele>172.110596</ele>
  <time>2011-07-29T04:41:35Z</time>
  <speed>2.530000</speed>
</trkpt>
<trkpt lat="32.584014893" lon="35.008621216">
  <ele>171.466064</ele>
  <time>2011-07-29T04:41:37Z</time>
  <speed>2.880000</speed>
</trkpt>
<trkpt lat="32.584003448" lon="35.008590698">
  <ele>171.641846</ele>
  <time>2011-07-29T04:41:38Z</time>
  <speed>3.090000</speed>
</trkpt>
<trkpt lat="32.583995819" lon="35.008560181">
  <ele>171.821533</ele>
  <time>2011-07-29T04:41:39Z</time>
  <speed>2.970000</speed>
</trkpt>
<trkpt lat="32.583988190" lon="35.008525848">
  <ele>172.067627</ele>
  <time>2011-07-29T04:41:40Z</time>
  <speed>2.780000</speed>
</trkpt>
<trkpt lat="32.583984375" lon="35.008495331">
  <ele>171.669189</ele>
  <time>2011-07-29T04:41:41Z</time>
  <speed>2.620000</speed>
</trkpt>
<trkpt lat="32.583969116" lon="35.008438110">
  <ele>171.466064</ele>
  <time>2011-07-29T04:41:43Z</time>
  <speed>2.900000</speed>
</trkpt>
<trkpt lat="32.583957672" lon="35.008380890">
  <ele>172.134033</ele>
  <time>2011-07-29T04:41:45Z</time>
  <speed>3.040000</speed>
</trkpt>
<trkpt lat="32.583950043" lon="35.008350372">
  <ele>172.247314</ele>
  <time>2011-07-29T04:41:46Z</time>
  <speed>3.010000</speed>
</trkpt>
<trkpt lat="32.583938599" lon="35.008319855">
  <ele>171.829346</ele>
  <time>2011-07-29T04:41:47Z</time>
  <speed>2.740000</speed>
</trkpt>
<trkpt lat="32.583919525" lon="35.008266449">
  <ele>172.274658</ele>
  <time>2011-07-29T04:41:49Z</time>
  <speed>2.650000</speed>
</trkpt>
<trkpt lat="32.583904266" lon="35.008213043">
  <ele>173.059814</ele>
  <time>2011-07-29T04:41:51Z</time>
  <speed>2.660000</speed>
</trkpt>
<trkpt lat="32.583896637" lon="35.008182526">
  <ele>173.298096</ele>
  <time>2011-07-29T04:41:52Z</time>
  <speed>2.820000</speed>
</trkpt>
<trkpt lat="32.583892822" lon="35.008144379">
  <ele>173.903564</ele>
  <time>2011-07-29T04:41:53Z</time>
  <speed>2.940000</speed>
</trkpt>
<trkpt lat="32.583885193" lon="35.008113861">
  <ele>173.841064</ele>
  <time>2011-07-29T04:41:54Z</time>
  <speed>2.660000</speed>
</trkpt>
<trkpt lat="32.583869934" lon="35.008056641">
  <ele>173.411377</ele>
  <time>2011-07-29T04:41:56Z</time>
  <speed>3.180000</speed>
</trkpt>
<trkpt lat="32.583869934" lon="35.008018494">
  <ele>172.602783</ele>
  <time>2011-07-29T04:41:57Z</time>
  <speed>3.330000</speed>
</trkpt>
<trkpt lat="32.583869934" lon="35.007980347">
  <ele>171.989502</ele>
  <time>2011-07-29T04:41:58Z</time>
  <speed>3.570000</speed>
</trkpt>
<trkpt lat="32.583866119" lon="35.007946014">
  <ele>172.012939</ele>
  <time>2011-07-29T04:41:59Z</time>
  <speed>3.280000</speed>
</trkpt>
<trkpt lat="32.583866119" lon="35.007915497">
  <ele>171.407471</ele>
  <time>2011-07-29T04:42:00Z</time>
  <speed>3.010000</speed>
</trkpt>
<trkpt lat="32.583866119" lon="35.007881165">
  <ele>170.509033</ele>
  <time>2011-07-29T04:42:01Z</time>
  <speed>3.030000</speed>
</trkpt>
<trkpt lat="32.583866119" lon="35.007820129">
  <ele>169.606689</ele>
  <time>2011-07-29T04:42:03Z</time>
  <speed>2.820000</speed>
</trkpt>
<trkpt lat="32.583862305" lon="35.007751465">
  <ele>168.649658</ele>
  <time>2011-07-29T04:42:05Z</time>
  <speed>3.210000</speed>
</trkpt>
<trkpt lat="32.583858490" lon="35.007717133">
  <ele>167.985596</ele>
  <time>2011-07-29T04:42:06Z</time>
  <speed>3.000000</speed>
</trkpt>
<trkpt lat="32.583858490" lon="35.007682800">
  <ele>167.325439</ele>
  <time>2011-07-29T04:42:07Z</time>
  <speed>3.090000</speed>
</trkpt>
<trkpt lat="32.583854675" lon="35.007648468">
  <ele>166.567627</ele>
  <time>2011-07-29T04:42:08Z</time>
  <speed>3.230000</speed>
</trkpt>
<trkpt lat="32.583854675" lon="35.007614136">
  <ele>166.118408</ele>
  <time>2011-07-29T04:42:09Z</time>
  <speed>3.160000</speed>
</trkpt>
<trkpt lat="32.583850861" lon="35.007575989">
  <ele>165.755127</ele>
  <time>2011-07-29T04:42:10Z</time>
  <speed>3.570000</speed>
</trkpt>
<trkpt lat="32.583847046" lon="35.007534027">
  <ele>166.841064</ele>
  <time>2011-07-29T04:42:11Z</time>
  <speed>3.440000</speed>
</trkpt>
<trkpt lat="32.583843231" lon="35.007495880">
  <ele>167.032471</ele>
  <time>2011-07-29T04:42:12Z</time>
  <speed>3.230000</speed>
</trkpt>
<trkpt lat="32.583839417" lon="35.007438660">
  <ele>167.153564</ele>
  <time>2011-07-29T04:42:14Z</time>
  <speed>2.590000</speed>
</trkpt>
<trkpt lat="32.583831787" lon="35.007404327">
  <ele>166.997314</ele>
  <time>2011-07-29T04:42:15Z</time>
  <speed>2.590000</speed>
</trkpt>
<trkpt lat="32.583816528" lon="35.007377625">
  <ele>166.532471</ele>
  <time>2011-07-29T04:42:16Z</time>
  <speed>2.570000</speed>
</trkpt>
<trkpt lat="32.583805084" lon="35.007339478">
  <ele>166.829346</ele>
  <time>2011-07-29T04:42:17Z</time>
  <speed>2.630000</speed>
</trkpt>
<trkpt lat="32.583778381" lon="35.007297516">
  <ele>165.876221</ele>
  <time>2011-07-29T04:42:19Z</time>
  <speed>2.610000</speed>
</trkpt>
<trkpt lat="32.583747864" lon="35.007255554">
  <ele>165.766846</ele>
  <time>2011-07-29T04:42:21Z</time>
  <speed>2.360000</speed>
</trkpt>
<trkpt lat="32.583713531" lon="35.007228851">
  <ele>166.153564</ele>
  <time>2011-07-29T04:42:23Z</time>
  <speed>2.280000</speed>
</trkpt>
<trkpt lat="32.583690643" lon="35.007217407">
  <ele>167.079346</ele>
  <time>2011-07-29T04:42:24Z</time>
  <speed>2.360000</speed>
</trkpt>
<trkpt lat="32.583656311" lon="35.007194519">
  <ele>167.481689</ele>
  <time>2011-07-29T04:42:26Z</time>
  <speed>2.110000</speed>
</trkpt>
<trkpt lat="32.583629608" lon="35.007167816">
  <ele>167.067627</ele>
  <time>2011-07-29T04:42:28Z</time>
  <speed>2.100000</speed>
</trkpt>
<trkpt lat="32.583606720" lon="35.007137299">
  <ele>166.927002</ele>
  <time>2011-07-29T04:42:30Z</time>
  <speed>2.230000</speed>
</trkpt>
<trkpt lat="32.583583832" lon="35.007099152">
  <ele>168.981689</ele>
  <time>2011-07-29T04:42:32Z</time>
  <speed>1.660000</speed>
</trkpt>
<trkpt lat="32.583568573" lon="35.007061005">
  <ele>169.844971</ele>
  <time>2011-07-29T04:42:34Z</time>
  <speed>2.240000</speed>
</trkpt>
<trkpt lat="32.583572388" lon="35.007007599">
  <ele>169.540283</ele>
  <time>2011-07-29T04:42:36Z</time>
  <speed>2.330000</speed>
</trkpt>
<trkpt lat="32.583580017" lon="35.006954193">
  <ele>170.251221</ele>
  <time>2011-07-29T04:42:38Z</time>
  <speed>1.870000</speed>
</trkpt>
<trkpt lat="32.583572388" lon="35.006908417">
  <ele>171.387939</ele>
  <time>2011-07-29T04:42:40Z</time>
  <speed>1.810000</speed>
</trkpt>
<trkpt lat="32.583583832" lon="35.006866455">
  <ele>172.477783</ele>
  <time>2011-07-29T04:42:42Z</time>
  <speed>1.810000</speed>
</trkpt>
<trkpt lat="32.583572388" lon="35.006835938">
  <ele>173.333252</ele>
  <time>2011-07-29T04:42:44Z</time>
  <speed>1.480000</speed>
</trkpt>
<trkpt lat="32.583553314" lon="35.006813049">
  <ele>173.524658</ele>
  <time>2011-07-29T04:42:46Z</time>
  <speed>1.680000</speed>
</trkpt>
<trkpt lat="32.583553314" lon="35.006778717">
  <ele>172.704346</ele>
  <time>2011-07-29T04:42:48Z</time>
  <speed>1.540000</speed>
</trkpt>
<trkpt lat="32.583572388" lon="35.006736755">
  <ele>172.778564</ele>
  <time>2011-07-29T04:42:50Z</time>
  <speed>2.170000</speed>
</trkpt>
<trkpt lat="32.583568573" lon="35.006687164">
  <ele>173.774658</ele>
  <time>2011-07-29T04:42:52Z</time>
  <speed>1.840000</speed>
</trkpt>
<trkpt lat="32.583568573" lon="35.006637573">
  <ele>175.052002</ele>
  <time>2011-07-29T04:42:54Z</time>
  <speed>2.190000</speed>
</trkpt>
<trkpt lat="32.583587646" lon="35.006595612">
  <ele>175.399658</ele>
  <time>2011-07-29T04:42:56Z</time>
  <speed>1.970000</speed>
</trkpt>
<trkpt lat="32.583602905" lon="35.006553650">
  <ele>175.594971</ele>
  <time>2011-07-29T04:42:58Z</time>
  <speed>2.260000</speed>
</trkpt>
<trkpt lat="32.583629608" lon="35.006515503">
  <ele>176.243408</ele>
  <time>2011-07-29T04:43:00Z</time>
  <speed>2.240000</speed>
</trkpt>
<trkpt lat="32.583648682" lon="35.006481171">
  <ele>176.950439</ele>
  <time>2011-07-29T04:43:02Z</time>
  <speed>2.110000</speed>
</trkpt>
<trkpt lat="32.583663940" lon="35.006439209">
  <ele>177.833252</ele>
  <time>2011-07-29T04:43:04Z</time>
  <speed>1.980000</speed>
</trkpt>
<trkpt lat="32.583667755" lon="35.006404877">
  <ele>177.294189</ele>
  <time>2011-07-29T04:43:06Z</time>
  <speed>1.650000</speed>
</trkpt>
<trkpt lat="32.583660126" lon="35.006366730">
  <ele>176.856689</ele>
  <time>2011-07-29T04:43:08Z</time>
  <speed>1.680000</speed>
</trkpt>
<trkpt lat="32.583641052" lon="35.006324768">
  <ele>176.466064</ele>
  <time>2011-07-29T04:43:10Z</time>
  <speed>1.390000</speed>
</trkpt>
<trkpt lat="32.583621979" lon="35.006294250">
  <ele>176.247314</ele>
  <time>2011-07-29T04:43:12Z</time>
  <speed>1.640000</speed>
</trkpt>
<trkpt lat="32.583602905" lon="35.006256104">
  <ele>175.555908</ele>
  <time>2011-07-29T04:43:14Z</time>
  <speed>1.780000</speed>
</trkpt>
<trkpt lat="32.583587646" lon="35.006221771">
  <ele>174.063721</ele>
  <time>2011-07-29T04:43:16Z</time>
  <speed>1.750000</speed>
</trkpt>
<trkpt lat="32.583564758" lon="35.006198883">
  <ele>174.469971</ele>
  <time>2011-07-29T04:43:18Z</time>
  <speed>1.730000</speed>
</trkpt>
<trkpt lat="32.583530426" lon="35.006187439">
  <ele>174.469971</ele>
  <time>2011-07-29T04:43:20Z</time>
  <speed>1.920000</speed>
</trkpt>
<trkpt lat="32.583496094" lon="35.006153107">
  <ele>174.606689</ele>
  <time>2011-07-29T04:43:22Z</time>
  <speed>2.200000</speed>
</trkpt>
<trkpt lat="32.583457947" lon="35.006126404">
  <ele>174.731689</ele>
  <time>2011-07-29T04:43:24Z</time>
  <speed>2.130000</speed>
</trkpt>
<trkpt lat="32.583419800" lon="35.006095886">
  <ele>175.462158</ele>
  <time>2011-07-29T04:43:26Z</time>
  <speed>2.140000</speed>
</trkpt>
<trkpt lat="32.583377838" lon="35.006065369">
  <ele>176.290283</ele>
  <time>2011-07-29T04:43:28Z</time>
  <speed>2.440000</speed>
</trkpt>
<trkpt lat="32.583332062" lon="35.006046295">
  <ele>176.809814</ele>
  <time>2011-07-29T04:43:30Z</time>
  <speed>2.620000</speed>
</trkpt>
<trkpt lat="32.583309174" lon="35.006031036">
  <ele>176.805908</ele>
  <time>2011-07-29T04:43:31Z</time>
  <speed>2.830000</speed>
</trkpt>
<trkpt lat="32.583255768" lon="35.006011963">
  <ele>176.219971</ele>
  <time>2011-07-29T04:43:33Z</time>
  <speed>2.860000</speed>
</trkpt>
<trkpt lat="32.583221436" lon="35.006023407">
  <ele>176.434814</ele>
  <time>2011-07-29T04:43:34Z</time>
  <speed>1.950000</speed>
</trkpt>
<trkpt lat="32.583187103" lon="35.006042480">
  <ele>176.399658</ele>
  <time>2011-07-29T04:43:36Z</time>
  <speed>1.250000</speed>
</trkpt>
<trkpt lat="32.583168030" lon="35.006080627">
  <ele>175.864502</ele>
  <time>2011-07-29T04:43:39Z</time>
  <speed>0.970000</speed>
</trkpt>
<trkpt lat="32.583141327" lon="35.006072998">
  <ele>176.684814</ele>
  <time>2011-07-29T04:49:26Z</time>
  <speed>1.960000</speed>
</trkpt>
<trkpt lat="32.583122253" lon="35.006019592">
  <ele>176.266846</ele>
  <time>2011-07-29T04:49:28Z</time>
  <speed>2.290000</speed>
</trkpt>
<trkpt lat="32.583099365" lon="35.005973816">
  <ele>175.755127</ele>
  <time>2011-07-29T04:49:30Z</time>
  <speed>2.520000</speed>
</trkpt>
<trkpt lat="32.583057404" lon="35.005939484">
  <ele>175.485596</ele>
  <time>2011-07-29T04:49:32Z</time>
  <speed>2.850000</speed>
</trkpt>
<trkpt lat="32.583030701" lon="35.005924225">
  <ele>175.044189</ele>
  <time>2011-07-29T04:49:33Z</time>
  <speed>2.980000</speed>
</trkpt>
<trkpt lat="32.583000183" lon="35.005916595">
  <ele>174.212158</ele>
  <time>2011-07-29T04:49:34Z</time>
  <speed>2.760000</speed>
</trkpt>
<trkpt lat="32.582958221" lon="35.005878448">
  <ele>173.016846</ele>
  <time>2011-07-29T04:49:36Z</time>
  <speed>3.290000</speed>
</trkpt>
<trkpt lat="32.582942963" lon="35.005844116">
  <ele>172.852783</ele>
  <time>2011-07-29T04:49:37Z</time>
  <speed>3.650000</speed>
</trkpt>
<trkpt lat="32.582927704" lon="35.005802155">
  <ele>173.075439</ele>
  <time>2011-07-29T04:49:38Z</time>
  <speed>4.170000</speed>
</trkpt>
<trkpt lat="32.582920074" lon="35.005756378">
  <ele>172.649658</ele>
  <time>2011-07-29T04:49:39Z</time>
  <speed>4.400000</speed>
</trkpt>
<trkpt lat="32.582908630" lon="35.005710602">
  <ele>172.212158</ele>
  <time>2011-07-29T04:49:40Z</time>
  <speed>3.930000</speed>
</trkpt>
<trkpt lat="32.582897186" lon="35.005680084">
  <ele>172.141846</ele>
  <time>2011-07-29T04:49:41Z</time>
  <speed>2.330000</speed>
</trkpt>
<trkpt lat="32.582870483" lon="35.005634308">
  <ele>171.208252</ele>
  <time>2011-07-29T04:49:43Z</time>
  <speed>2.550000</speed>
</trkpt>
<trkpt lat="32.582847595" lon="35.005607605">
  <ele>169.942627</ele>
  <time>2011-07-29T04:49:44Z</time>
  <speed>3.120000</speed>
</trkpt>
<trkpt lat="32.582817078" lon="35.005584717">
  <ele>169.438721</ele>
  <time>2011-07-29T04:49:45Z</time>
  <speed>2.510000</speed>
</trkpt>
<trkpt lat="32.582786560" lon="35.005611420">
  <ele>167.368408</ele>
  <time>2011-07-29T04:49:47Z</time>
  <speed>2.460000</speed>
</trkpt>
<trkpt lat="32.582756042" lon="35.005626678">
  <ele>167.899658</ele>
  <time>2011-07-29T04:49:48Z</time>
  <speed>2.530000</speed>
</trkpt>
<trkpt lat="32.582702637" lon="35.005653381">
  <ele>167.165283</ele>
  <time>2011-07-29T04:49:50Z</time>
  <speed>2.700000</speed>
</trkpt>
<trkpt lat="32.582675934" lon="35.005638123">
  <ele>165.884033</ele>
  <time>2011-07-29T04:49:51Z</time>
  <speed>2.880000</speed>
</trkpt>
<trkpt lat="32.582649231" lon="35.005622864">
  <ele>165.837158</ele>
  <time>2011-07-29T04:49:52Z</time>
  <speed>3.330000</speed>
</trkpt>
<trkpt lat="32.582618713" lon="35.005603790">
  <ele>165.512939</ele>
  <time>2011-07-29T04:49:53Z</time>
  <speed>3.240000</speed>
</trkpt>
<trkpt lat="32.582595825" lon="35.005580902">
  <ele>164.958252</ele>
  <time>2011-07-29T04:49:54Z</time>
  <speed>3.050000</speed>
</trkpt>
<trkpt lat="32.582576752" lon="35.005554199">
  <ele>163.782471</ele>
  <time>2011-07-29T04:49:55Z</time>
  <speed>2.880000</speed>
</trkpt>
<trkpt lat="32.582561493" lon="35.005531311">
  <ele>162.153564</ele>
  <time>2011-07-29T04:49:56Z</time>
  <speed>2.390000</speed>
</trkpt>
<trkpt lat="32.582542419" lon="35.005493164">
  <ele>160.341064</ele>
  <time>2011-07-29T04:49:58Z</time>
  <speed>1.800000</speed>
</trkpt>
<trkpt lat="32.582515717" lon="35.005455017">
  <ele>159.075439</ele>
  <time>2011-07-29T04:50:00Z</time>
  <speed>2.220000</speed>
</trkpt>
<trkpt lat="32.582492828" lon="35.005420685">
  <ele>157.817627</ele>
  <time>2011-07-29T04:50:02Z</time>
  <speed>2.260000</speed>
</trkpt>
<trkpt lat="32.582473755" lon="35.005386353">
  <ele>156.559814</ele>
  <time>2011-07-29T04:50:04Z</time>
  <speed>2.230000</speed>
</trkpt>
<trkpt lat="32.582443237" lon="35.005344391">
  <ele>155.954346</ele>
  <time>2011-07-29T04:50:06Z</time>
  <speed>2.020000</speed>
</trkpt>
<trkpt lat="32.582408905" lon="35.005317688">
  <ele>154.083252</ele>
  <time>2011-07-29T04:50:08Z</time>
  <speed>2.380000</speed>
</trkpt>
<trkpt lat="32.582363129" lon="35.005287170">
  <ele>154.251221</ele>
  <time>2011-07-29T04:50:10Z</time>
  <speed>2.240000</speed>
</trkpt>
<trkpt lat="32.582313538" lon="35.005271912">
  <ele>153.739502</ele>
  <time>2011-07-29T04:50:12Z</time>
  <speed>1.930000</speed>
</trkpt>
<trkpt lat="32.582286835" lon="35.005256653">
  <ele>152.063721</ele>
  <time>2011-07-29T04:50:14Z</time>
  <speed>2.060000</speed>
</trkpt>
<trkpt lat="32.582279205" lon="35.005218506">
  <ele>152.536377</ele>
  <time>2011-07-29T04:50:16Z</time>
  <speed>1.690000</speed>
</trkpt>
<trkpt lat="32.582286835" lon="35.005180359">
  <ele>150.055908</ele>
  <time>2011-07-29T04:50:18Z</time>
  <speed>2.050000</speed>
</trkpt>
<trkpt lat="32.582263947" lon="35.005157471">
  <ele>147.946533</ele>
  <time>2011-07-29T04:50:20Z</time>
  <speed>1.580000</speed>
</trkpt>
<trkpt lat="32.582233429" lon="35.005142212">
  <ele>146.481689</ele>
  <time>2011-07-29T04:50:22Z</time>
  <speed>1.640000</speed>
</trkpt>
<trkpt lat="32.582199097" lon="35.005130768">
  <ele>144.958252</ele>
  <time>2011-07-29T04:50:24Z</time>
  <speed>2.500000</speed>
</trkpt>
<trkpt lat="32.582160950" lon="35.005134583">
  <ele>142.903564</ele>
  <time>2011-07-29T04:50:26Z</time>
  <speed>2.350000</speed>
</trkpt>
<trkpt lat="32.582126617" lon="35.005100250">
  <ele>141.973877</ele>
  <time>2011-07-29T04:50:28Z</time>
  <speed>2.480000</speed>
</trkpt>
<trkpt lat="32.582111359" lon="35.005043030">
  <ele>140.950439</ele>
  <time>2011-07-29T04:50:30Z</time>
  <speed>2.960000</speed>
</trkpt>
<trkpt lat="32.582126617" lon="35.004974365">
  <ele>140.079346</ele>
  <time>2011-07-29T04:50:32Z</time>
  <speed>3.800000</speed>
</trkpt>
<trkpt lat="32.582134247" lon="35.004936218">
  <ele>139.395752</ele>
  <time>2011-07-29T04:50:33Z</time>
  <speed>3.550000</speed>
</trkpt>
<trkpt lat="32.582138062" lon="35.004905701">
  <ele>138.637939</ele>
  <time>2011-07-29T04:50:34Z</time>
  <speed>3.190000</speed>
</trkpt>
<trkpt lat="32.582134247" lon="35.004867554">
  <ele>138.259033</ele>
  <time>2011-07-29T04:50:35Z</time>
  <speed>3.120000</speed>
</trkpt>
<trkpt lat="32.582138062" lon="35.004798889">
  <ele>138.219971</ele>
  <time>2011-07-29T04:50:37Z</time>
  <speed>2.880000</speed>
</trkpt>
<trkpt lat="32.582153320" lon="35.004768372">
  <ele>137.829346</ele>
  <time>2011-07-29T04:50:38Z</time>
  <speed>3.690000</speed>
</trkpt>
<trkpt lat="32.582168579" lon="35.004730225">
  <ele>136.930908</ele>
  <time>2011-07-29T04:50:39Z</time>
  <speed>4.160000</speed>
</trkpt>
<trkpt lat="32.582183838" lon="35.004692078">
  <ele>135.466064</ele>
  <time>2011-07-29T04:50:40Z</time>
  <speed>3.730000</speed>
</trkpt>
<trkpt lat="32.582187653" lon="35.004657745">
  <ele>134.348877</ele>
  <time>2011-07-29T04:50:41Z</time>
  <speed>3.300000</speed>
</trkpt>
<trkpt lat="32.582187653" lon="35.004619598">
  <ele>132.938721</ele>
  <time>2011-07-29T04:50:42Z</time>
  <speed>3.200000</speed>
</trkpt>
<trkpt lat="32.582195282" lon="35.004589081">
  <ele>133.387939</ele>
  <time>2011-07-29T04:50:43Z</time>
  <speed>2.590000</speed>
</trkpt>
<trkpt lat="32.582210541" lon="35.004550934">
  <ele>132.216064</ele>
  <time>2011-07-29T04:50:45Z</time>
  <speed>1.790000</speed>
</trkpt>
<trkpt lat="32.582195282" lon="35.004516602">
  <ele>131.087158</ele>
  <time>2011-07-29T04:50:47Z</time>
  <speed>1.370000</speed>
</trkpt>
<trkpt lat="32.582164764" lon="35.004505157">
  <ele>130.044189</ele>
  <time>2011-07-29T04:50:49Z</time>
  <speed>2.040000</speed>
</trkpt>
<trkpt lat="32.582141876" lon="35.004486084">
  <ele>129.153564</ele>
  <time>2011-07-29T04:50:50Z</time>
  <speed>2.280000</speed>
</trkpt>
<trkpt lat="32.582134247" lon="35.004447937">
  <ele>127.207642</ele>
  <time>2011-07-29T04:50:52Z</time>
  <speed>1.990000</speed>
</trkpt>
<trkpt lat="32.582149506" lon="35.004405975">
  <ele>125.574829</ele>
  <time>2011-07-29T04:50:54Z</time>
  <speed>2.810000</speed>
</trkpt>
<trkpt lat="32.582168579" lon="35.004383087">
  <ele>124.672485</ele>
  <time>2011-07-29T04:50:55Z</time>
  <speed>3.200000</speed>
</trkpt>
<trkpt lat="32.582183838" lon="35.004352570">
  <ele>124.469360</ele>
  <time>2011-07-29T04:50:56Z</time>
  <speed>2.590000</speed>
</trkpt>
<trkpt lat="32.582202911" lon="35.004314423">
  <ele>123.024048</ele>
  <time>2011-07-29T04:50:58Z</time>
  <speed>1.470000</speed>
</trkpt>
<trkpt lat="32.582183838" lon="35.004283905">
  <ele>121.029907</ele>
  <time>2011-07-29T04:51:01Z</time>
  <speed>0.680000</speed>
</trkpt>
<trkpt lat="32.582145691" lon="35.004261017">
  <ele>121.723267</ele>
  <time>2011-07-29T04:51:03Z</time>
  <speed>1.760000</speed>
</trkpt>
<trkpt lat="32.582115173" lon="35.004249573">
  <ele>120.115845</ele>
  <time>2011-07-29T04:51:05Z</time>
  <speed>2.200000</speed>
</trkpt>
<trkpt lat="32.582084656" lon="35.004222870">
  <ele>119.244751</ele>
  <time>2011-07-29T04:51:07Z</time>
  <speed>1.630000</speed>
</trkpt>
<trkpt lat="32.582054138" lon="35.004196167">
  <ele>117.990845</ele>
  <time>2011-07-29T04:51:09Z</time>
  <speed>2.420000</speed>
</trkpt>
<trkpt lat="32.582019806" lon="35.004165649">
  <ele>116.184204</ele>
  <time>2011-07-29T04:51:11Z</time>
  <speed>1.990000</speed>
</trkpt>
<trkpt lat="32.582008362" lon="35.004119873">
  <ele>113.994751</ele>
  <time>2011-07-29T04:51:13Z</time>
  <speed>1.940000</speed>
</trkpt>
<trkpt lat="32.582004547" lon="35.004093170">
  <ele>112.551392</ele>
  <time>2011-07-29T04:51:15Z</time>
  <speed>1.480000</speed>
</trkpt>
<trkpt lat="32.582012177" lon="35.004051208">
  <ele>110.967407</ele>
  <time>2011-07-29T04:51:17Z</time>
  <speed>2.480000</speed>
</trkpt>
<trkpt lat="32.582027435" lon="35.004005432">
  <ele>108.963501</ele>
  <time>2011-07-29T04:51:19Z</time>
  <speed>2.490000</speed>
</trkpt>
<trkpt lat="32.582050323" lon="35.003955841">
  <ele>106.006470</ele>
  <time>2011-07-29T04:51:21Z</time>
  <speed>2.380000</speed>
</trkpt>
<trkpt lat="32.582065582" lon="35.003910065">
  <ele>104.053345</ele>
  <time>2011-07-29T04:51:23Z</time>
  <speed>2.270000</speed>
</trkpt>
<trkpt lat="32.582073212" lon="35.003883362">
  <ele>102.330688</ele>
  <time>2011-07-29T04:51:24Z</time>
  <speed>2.320000</speed>
</trkpt>
<trkpt lat="32.582077026" lon="35.003845215">
  <ele>101.629517</ele>
  <time>2011-07-29T04:51:25Z</time>
  <speed>3.310000</speed>
</trkpt>
<trkpt lat="32.582084656" lon="35.003799438">
  <ele>101.496704</ele>
  <time>2011-07-29T04:51:26Z</time>
  <speed>3.230000</speed>
</trkpt>
<trkpt lat="32.582080841" lon="35.003738403">
  <ele>100.576782</ele>
  <time>2011-07-29T04:51:28Z</time>
  <speed>2.490000</speed>
</trkpt>
<trkpt lat="32.582088470" lon="35.003696442">
  <ele>99.416626</ele>
  <time>2011-07-29T04:51:30Z</time>
  <speed>1.780000</speed>
</trkpt>
<trkpt lat="32.582115173" lon="35.003662109">
  <ele>97.729126</ele>
  <time>2011-07-29T04:51:32Z</time>
  <speed>2.510000</speed>
</trkpt>
<trkpt lat="32.582122803" lon="35.003604889">
  <ele>97.104126</ele>
  <time>2011-07-29T04:51:34Z</time>
  <speed>2.230000</speed>
</trkpt>
<trkpt lat="32.582126617" lon="35.003559113">
  <ele>96.670532</ele>
  <time>2011-07-29T04:51:36Z</time>
  <speed>1.600000</speed>
</trkpt>
<trkpt lat="32.582096100" lon="35.003578186">
  <ele>96.234985</ele>
  <time>2011-07-29T04:52:58Z</time>
  <speed>0.760000</speed>
</trkpt>
<trkpt lat="32.582077026" lon="35.003604889">
  <ele>96.313110</ele>
  <time>2011-07-29T04:53:01Z</time>
  <speed>0.490000</speed>
</trkpt>
<trkpt lat="32.582065582" lon="35.003646851">
  <ele>96.893188</ele>
  <time>2011-07-29T04:53:06Z</time>
  <speed>0.430000</speed>
</trkpt>
<trkpt lat="32.582046509" lon="35.003669739">
  <ele>97.359985</ele>
  <time>2011-07-29T04:53:09Z</time>
  <speed>1.020000</speed>
</trkpt>
<trkpt lat="32.582012177" lon="35.003677368">
  <ele>96.914673</ele>
  <time>2011-07-29T04:53:13Z</time>
  <speed>0.450000</speed>
</trkpt>
<trkpt lat="32.581985474" lon="35.003688812">
  <ele>96.813110</ele>
  <time>2011-07-29T04:53:16Z</time>
  <speed>1.280000</speed>
</trkpt>
<trkpt lat="32.581958771" lon="35.003681183">
  <ele>95.442017</ele>
  <time>2011-07-29T04:53:18Z</time>
  <speed>1.700000</speed>
</trkpt>
<trkpt lat="32.581920624" lon="35.003684998">
  <ele>94.918579</ele>
  <time>2011-07-29T04:53:21Z</time>
  <speed>1.740000</speed>
</trkpt>
<trkpt lat="32.581882477" lon="35.003700256">
  <ele>94.522095</ele>
  <time>2011-07-29T04:53:23Z</time>
  <speed>1.690000</speed>
</trkpt>
<trkpt lat="32.581859589" lon="35.003711700">
  <ele>94.234985</ele>
  <time>2011-07-29T04:53:25Z</time>
  <speed>1.640000</speed>
</trkpt>
<trkpt lat="32.581825256" lon="35.003730774">
  <ele>95.168579</ele>
  <time>2011-07-29T04:53:27Z</time>
  <speed>1.600000</speed>
</trkpt>
<trkpt lat="32.581794739" lon="35.003746033">
  <ele>95.547485</ele>
  <time>2011-07-29T04:53:29Z</time>
  <speed>1.650000</speed>
</trkpt>
<trkpt lat="32.581764221" lon="35.003765106">
  <ele>96.975220</ele>
  <time>2011-07-29T04:53:31Z</time>
  <speed>1.780000</speed>
</trkpt>
<trkpt lat="32.581729889" lon="35.003803253">
  <ele>99.236938</ele>
  <time>2011-07-29T04:53:33Z</time>
  <speed>1.680000</speed>
</trkpt>
<trkpt lat="32.581710815" lon="35.003829956">
  <ele>100.996704</ele>
  <time>2011-07-29T04:53:34Z</time>
  <speed>1.730000</speed>
</trkpt>
<trkpt lat="32.581680298" lon="35.003852844">
  <ele>102.781860</ele>
  <time>2011-07-29T04:53:36Z</time>
  <speed>1.640000</speed>
</trkpt>
<trkpt lat="32.581649780" lon="35.003875732">
  <ele>103.895142</ele>
  <time>2011-07-29T04:53:38Z</time>
  <speed>1.720000</speed>
</trkpt>
<trkpt lat="32.581626892" lon="35.003898621">
  <ele>104.539673</ele>
  <time>2011-07-29T04:53:40Z</time>
  <speed>1.720000</speed>
</trkpt>
<trkpt lat="32.581607819" lon="35.003917694">
  <ele>103.656860</ele>
  <time>2011-07-29T04:53:42Z</time>
  <speed>1.610000</speed>
</trkpt>
<trkpt lat="32.581577301" lon="35.003940582">
  <ele>104.772095</ele>
  <time>2011-07-29T04:53:44Z</time>
  <speed>1.540000</speed>
</trkpt>
<trkpt lat="32.581558228" lon="35.003971100">
  <ele>104.990845</ele>
  <time>2011-07-29T04:53:46Z</time>
  <speed>1.780000</speed>
</trkpt>
<trkpt lat="32.581535339" lon="35.003990173">
  <ele>105.336548</ele>
  <time>2011-07-29T04:53:48Z</time>
  <speed>1.660000</speed>
</trkpt>
<trkpt lat="32.581504822" lon="35.003993988">
  <ele>105.340454</ele>
  <time>2011-07-29T04:53:50Z</time>
  <speed>1.580000</speed>
</trkpt>
<trkpt lat="32.581474304" lon="35.003993988">
  <ele>105.850220</ele>
  <time>2011-07-29T04:53:52Z</time>
  <speed>1.650000</speed>
</trkpt>
<trkpt lat="32.581443787" lon="35.004013062">
  <ele>106.602173</ele>
  <time>2011-07-29T04:53:54Z</time>
  <speed>1.640000</speed>
</trkpt>
<trkpt lat="32.581413269" lon="35.004028320">
  <ele>106.617798</ele>
  <time>2011-07-29T04:53:56Z</time>
  <speed>1.600000</speed>
</trkpt>
<trkpt lat="32.581386566" lon="35.004043579">
  <ele>106.945923</ele>
  <time>2011-07-29T04:53:58Z</time>
  <speed>1.500000</speed>
</trkpt>
<trkpt lat="32.581356049" lon="35.004074097">
  <ele>107.692017</ele>
  <time>2011-07-29T04:54:00Z</time>
  <speed>1.840000</speed>
</trkpt>
<trkpt lat="32.581333160" lon="35.004096985">
  <ele>107.623657</ele>
  <time>2011-07-29T04:54:02Z</time>
  <speed>1.590000</speed>
</trkpt>
<trkpt lat="32.581306458" lon="35.004119873">
  <ele>107.973267</ele>
  <time>2011-07-29T04:54:04Z</time>
  <speed>1.670000</speed>
</trkpt>
<trkpt lat="32.581291199" lon="35.004150391">
  <ele>108.076782</ele>
  <time>2011-07-29T04:54:06Z</time>
  <speed>1.490000</speed>
</trkpt>
<trkpt lat="32.581264496" lon="35.004184723">
  <ele>108.342407</ele>
  <time>2011-07-29T04:54:09Z</time>
  <speed>1.350000</speed>
</trkpt>
<trkpt lat="32.581245422" lon="35.004222870">
  <ele>109.154907</ele>
  <time>2011-07-29T04:54:11Z</time>
  <speed>1.510000</speed>
</trkpt>
<trkpt lat="32.581230164" lon="35.004249573">
  <ele>108.328735</ele>
  <time>2011-07-29T04:54:13Z</time>
  <speed>1.800000</speed>
</trkpt>
<trkpt lat="32.581203461" lon="35.004268646">
  <ele>108.627563</ele>
  <time>2011-07-29T04:54:15Z</time>
  <speed>1.650000</speed>
</trkpt>
<trkpt lat="32.581176758" lon="35.004291534">
  <ele>108.746704</ele>
  <time>2011-07-29T04:54:17Z</time>
  <speed>1.720000</speed>
</trkpt>
<trkpt lat="32.581138611" lon="35.004314423">
  <ele>108.856079</ele>
  <time>2011-07-29T04:54:20Z</time>
  <speed>1.390000</speed>
</trkpt>
<trkpt lat="32.581111908" lon="35.004348755">
  <ele>108.320923</ele>
  <time>2011-07-29T04:54:23Z</time>
  <speed>1.510000</speed>
</trkpt>
<trkpt lat="32.581089020" lon="35.004375458">
  <ele>108.053345</ele>
  <time>2011-07-29T04:54:25Z</time>
  <speed>1.410000</speed>
</trkpt>
<trkpt lat="32.581069946" lon="35.004409790">
  <ele>108.406860</ele>
  <time>2011-07-29T04:54:27Z</time>
  <speed>1.820000</speed>
</trkpt>
<trkpt lat="32.581058502" lon="35.004447937">
  <ele>108.356079</ele>
  <time>2011-07-29T04:54:29Z</time>
  <speed>1.960000</speed>
</trkpt>
<trkpt lat="32.581043243" lon="35.004493713">
  <ele>107.580688</ele>
  <time>2011-07-29T04:54:31Z</time>
  <speed>1.860000</speed>
</trkpt>
<trkpt lat="32.581027985" lon="35.004539490">
  <ele>106.930298</ele>
  <time>2011-07-29T04:54:33Z</time>
  <speed>2.020000</speed>
</trkpt>
<trkpt lat="32.581001282" lon="35.004577637">
  <ele>108.639282</ele>
  <time>2011-07-29T04:54:35Z</time>
  <speed>1.820000</speed>
</trkpt>
<trkpt lat="32.580986023" lon="35.004608154">
  <ele>109.494751</ele>
  <time>2011-07-29T04:54:37Z</time>
  <speed>1.840000</speed>
</trkpt>
<trkpt lat="32.580966949" lon="35.004650116">
  <ele>110.283813</ele>
  <time>2011-07-29T04:54:39Z</time>
  <speed>1.830000</speed>
</trkpt>
<trkpt lat="32.580955505" lon="35.004680634">
  <ele>110.557251</ele>
  <time>2011-07-29T04:54:41Z</time>
  <speed>1.950000</speed>
</trkpt>
<trkpt lat="32.580944061" lon="35.004718781">
  <ele>110.529907</ele>
  <time>2011-07-29T04:54:43Z</time>
  <speed>1.820000</speed>
</trkpt>
<trkpt lat="32.580963135" lon="35.004760742">
  <ele>110.535767</ele>
  <time>2011-07-29T04:54:45Z</time>
  <speed>1.960000</speed>
</trkpt>
<trkpt lat="32.580955505" lon="35.004791260">
  <ele>111.068970</ele>
  <time>2011-07-29T04:54:46Z</time>
  <speed>2.480000</speed>
</trkpt>
<trkpt lat="32.580947876" lon="35.004840851">
  <ele>111.606079</ele>
  <time>2011-07-29T04:54:48Z</time>
  <speed>1.860000</speed>
</trkpt>
<trkpt lat="32.580951691" lon="35.004882813">
  <ele>112.291626</ele>
  <time>2011-07-29T04:54:50Z</time>
  <speed>1.900000</speed>
</trkpt>
<trkpt lat="32.580936432" lon="35.004924774">
  <ele>112.826782</ele>
  <time>2011-07-29T04:54:52Z</time>
  <speed>1.630000</speed>
</trkpt>
<trkpt lat="32.580932617" lon="35.004962921">
  <ele>113.244751</ele>
  <time>2011-07-29T04:54:54Z</time>
  <speed>1.880000</speed>
</trkpt>
<trkpt lat="32.580924988" lon="35.005001068">
  <ele>113.998657</ele>
  <time>2011-07-29T04:54:56Z</time>
  <speed>1.910000</speed>
</trkpt>
<trkpt lat="32.580902100" lon="35.005039215">
  <ele>114.451782</ele>
  <time>2011-07-29T04:54:58Z</time>
  <speed>1.630000</speed>
</trkpt>
<trkpt lat="32.580902100" lon="35.005073547">
  <ele>115.342407</ele>
  <time>2011-07-29T04:55:00Z</time>
  <speed>1.640000</speed>
</trkpt>
<trkpt lat="32.580890656" lon="35.005115509">
  <ele>116.201782</ele>
  <time>2011-07-29T04:55:03Z</time>
  <speed>1.540000</speed>
</trkpt>
<trkpt lat="32.580886841" lon="35.005149841">
  <ele>116.422485</ele>
  <time>2011-07-29T04:55:05Z</time>
  <speed>1.430000</speed>
</trkpt>
<trkpt lat="32.580886841" lon="35.005180359">
  <ele>116.520142</ele>
  <time>2011-07-29T04:55:07Z</time>
  <speed>1.510000</speed>
</trkpt>
<trkpt lat="32.580875397" lon="35.005226135">
  <ele>116.656860</ele>
  <time>2011-07-29T04:55:10Z</time>
  <speed>1.230000</speed>
</trkpt>
<trkpt lat="32.580867767" lon="35.005260468">
  <ele>116.143188</ele>
  <time>2011-07-29T04:55:12Z</time>
  <speed>1.370000</speed>
</trkpt>
<trkpt lat="32.580867767" lon="35.005306244">
  <ele>115.733032</ele>
  <time>2011-07-29T04:55:15Z</time>
  <speed>1.600000</speed>
</trkpt>
<trkpt lat="32.580852509" lon="35.005352020">
  <ele>116.190063</ele>
  <time>2011-07-29T04:55:17Z</time>
  <speed>1.630000</speed>
</trkpt>
<trkpt lat="32.580844879" lon="35.005382538">
  <ele>115.945923</ele>
  <time>2011-07-29T04:55:19Z</time>
  <speed>1.620000</speed>
</trkpt>
<trkpt lat="32.580867767" lon="35.005432129">
  <ele>116.654907</ele>
  <time>2011-07-29T04:55:22Z</time>
  <speed>1.510000</speed>
</trkpt>
<trkpt lat="32.580867767" lon="35.005466461">
  <ele>116.547485</ele>
  <time>2011-07-29T04:55:24Z</time>
  <speed>1.810000</speed>
</trkpt>
<trkpt lat="32.580852509" lon="35.005516052">
  <ele>116.006470</ele>
  <time>2011-07-29T04:55:26Z</time>
  <speed>1.780000</speed>
</trkpt>
<trkpt lat="32.580837250" lon="35.005542755">
  <ele>116.145142</ele>
  <time>2011-07-29T04:55:27Z</time>
  <speed>1.840000</speed>
</trkpt>
<trkpt lat="32.580825806" lon="35.005580902">
  <ele>116.973267</ele>
  <time>2011-07-29T04:55:29Z</time>
  <speed>1.760000</speed>
</trkpt>
<trkpt lat="32.580821991" lon="35.005619049">
  <ele>116.785767</ele>
  <time>2011-07-29T04:55:31Z</time>
  <speed>1.590000</speed>
</trkpt>
<trkpt lat="32.580814362" lon="35.005657196">
  <ele>117.861938</ele>
  <time>2011-07-29T04:55:33Z</time>
  <speed>1.700000</speed>
</trkpt>
<trkpt lat="32.580814362" lon="35.005687714">
  <ele>118.303345</ele>
  <time>2011-07-29T04:55:35Z</time>
  <speed>1.750000</speed>
</trkpt>
<trkpt lat="32.580814362" lon="35.005722046">
  <ele>118.318970</ele>
  <time>2011-07-29T04:55:37Z</time>
  <speed>1.650000</speed>
</trkpt>
<trkpt lat="32.580802917" lon="35.005771637">
  <ele>118.281860</ele>
  <time>2011-07-29T04:55:39Z</time>
  <speed>1.840000</speed>
</trkpt>
<trkpt lat="32.580814362" lon="35.005802155">
  <ele>119.109985</ele>
  <time>2011-07-29T04:55:41Z</time>
  <speed>2.220000</speed>
</trkpt>
<trkpt lat="32.580818176" lon="35.005840302">
  <ele>119.104126</ele>
  <time>2011-07-29T04:55:43Z</time>
  <speed>1.830000</speed>
</trkpt>
<trkpt lat="32.580814362" lon="35.005874634">
  <ele>119.086548</ele>
  <time>2011-07-29T04:55:45Z</time>
  <speed>1.690000</speed>
</trkpt>
<trkpt lat="32.580814362" lon="35.005908966">
  <ele>119.565063</ele>
  <time>2011-07-29T04:55:47Z</time>
  <speed>1.590000</speed>
</trkpt>
<trkpt lat="32.580810547" lon="35.005954742">
  <ele>120.848267</ele>
  <time>2011-07-29T04:55:49Z</time>
  <speed>1.630000</speed>
</trkpt>
<trkpt lat="32.580810547" lon="35.006000519">
  <ele>120.449829</ele>
  <time>2011-07-29T04:55:51Z</time>
  <speed>1.770000</speed>
</trkpt>
<trkpt lat="32.580802917" lon="35.006046295">
  <ele>121.041626</ele>
  <time>2011-07-29T04:55:54Z</time>
  <speed>1.770000</speed>
</trkpt>
<trkpt lat="32.580799103" lon="35.006084442">
  <ele>122.274048</ele>
  <time>2011-07-29T04:55:56Z</time>
  <speed>1.930000</speed>
</trkpt>
<trkpt lat="32.580802917" lon="35.006122589">
  <ele>121.971313</ele>
  <time>2011-07-29T04:55:58Z</time>
  <speed>1.730000</speed>
</trkpt>
<trkpt lat="32.580791473" lon="35.006164551">
  <ele>121.859985</ele>
  <time>2011-07-29T04:56:00Z</time>
  <speed>1.640000</speed>
</trkpt>
<trkpt lat="32.580787659" lon="35.006210327">
  <ele>121.330688</ele>
  <time>2011-07-29T04:56:03Z</time>
  <speed>1.880000</speed>
</trkpt>
<trkpt lat="32.580760956" lon="35.006248474">
  <ele>122.672485</ele>
  <time>2011-07-29T04:56:05Z</time>
  <speed>1.890000</speed>
</trkpt>
<trkpt lat="32.580749512" lon="35.006298065">
  <ele>123.162720</ele>
  <time>2011-07-29T04:56:07Z</time>
  <speed>1.670000</speed>
</trkpt>
<trkpt lat="32.580738068" lon="35.006332397">
  <ele>123.635376</ele>
  <time>2011-07-29T04:56:09Z</time>
  <speed>1.710000</speed>
</trkpt>
<trkpt lat="32.580726624" lon="35.006378174">
  <ele>123.883423</ele>
  <time>2011-07-29T04:56:11Z</time>
  <speed>1.680000</speed>
</trkpt>
<trkpt lat="32.580726624" lon="35.006412506">
  <ele>124.008423</ele>
  <time>2011-07-29T04:56:13Z</time>
  <speed>1.660000</speed>
</trkpt>
<trkpt lat="32.580722809" lon="35.006454468">
  <ele>123.063110</ele>
  <time>2011-07-29T04:56:15Z</time>
  <speed>1.810000</speed>
</trkpt>
<trkpt lat="32.580730438" lon="35.006496429">
  <ele>123.768188</ele>
  <time>2011-07-29T04:56:17Z</time>
  <speed>1.840000</speed>
</trkpt>
<trkpt lat="32.580738068" lon="35.006530762">
  <ele>123.848267</ele>
  <time>2011-07-29T04:56:19Z</time>
  <speed>1.990000</speed>
</trkpt>
<trkpt lat="32.580730438" lon="35.006580353">
  <ele>124.129517</ele>
  <time>2011-07-29T04:56:21Z</time>
  <speed>1.650000</speed>
</trkpt>
<trkpt lat="32.580726624" lon="35.006626129">
  <ele>124.686157</ele>
  <time>2011-07-29T04:56:24Z</time>
  <speed>2.080000</speed>
</trkpt>
<trkpt lat="32.580715179" lon="35.006664276">
  <ele>125.297485</ele>
  <time>2011-07-29T04:56:26Z</time>
  <speed>1.670000</speed>
</trkpt>
<trkpt lat="32.580718994" lon="35.006702423">
  <ele>125.240845</ele>
  <time>2011-07-29T04:56:28Z</time>
  <speed>1.620000</speed>
</trkpt>
<trkpt lat="32.580715179" lon="35.006744385">
  <ele>125.240845</ele>
  <time>2011-07-29T04:56:31Z</time>
  <speed>1.710000</speed>
</trkpt>
<trkpt lat="32.580715179" lon="35.006778717">
  <ele>124.041626</ele>
  <time>2011-07-29T04:56:33Z</time>
  <speed>1.640000</speed>
</trkpt>
<trkpt lat="32.580734253" lon="35.006813049">
  <ele>123.010376</ele>
  <time>2011-07-29T04:56:35Z</time>
  <speed>1.720000</speed>
</trkpt>
<trkpt lat="32.580730438" lon="35.006862640">
  <ele>123.139282</ele>
  <time>2011-07-29T04:56:37Z</time>
  <speed>2.260000</speed>
</trkpt>
<trkpt lat="32.580715179" lon="35.006916046">
  <ele>123.164673</ele>
  <time>2011-07-29T04:56:39Z</time>
  <speed>1.910000</speed>
</trkpt>
<trkpt lat="32.580730438" lon="35.006946564">
  <ele>123.334595</ele>
  <time>2011-07-29T04:56:41Z</time>
  <speed>1.780000</speed>
</trkpt>
<trkpt lat="32.580726624" lon="35.006988525">
  <ele>123.231079</ele>
  <time>2011-07-29T04:56:43Z</time>
  <speed>1.350000</speed>
</trkpt>
<trkpt lat="32.580734253" lon="35.007034302">
  <ele>122.451782</ele>
  <time>2011-07-29T04:56:45Z</time>
  <speed>1.820000</speed>
</trkpt>
<trkpt lat="32.580738068" lon="35.007068634">
  <ele>122.897095</ele>
  <time>2011-07-29T04:56:47Z</time>
  <speed>1.760000</speed>
</trkpt>
<trkpt lat="32.580738068" lon="35.007102966">
  <ele>123.195923</ele>
  <time>2011-07-29T04:56:49Z</time>
  <speed>1.890000</speed>
</trkpt>
<trkpt lat="32.580738068" lon="35.007137299">
  <ele>123.518188</ele>
  <time>2011-07-29T04:56:51Z</time>
  <speed>1.900000</speed>
</trkpt>
<trkpt lat="32.580738068" lon="35.007175446">
  <ele>123.484985</ele>
  <time>2011-07-29T04:56:53Z</time>
  <speed>1.780000</speed>
</trkpt>
<trkpt lat="32.580734253" lon="35.007209778">
  <ele>124.227173</ele>
  <time>2011-07-29T04:56:55Z</time>
  <speed>1.710000</speed>
</trkpt>
<trkpt lat="32.580726624" lon="35.007247925">
  <ele>125.205688</ele>
  <time>2011-07-29T04:56:57Z</time>
  <speed>1.760000</speed>
</trkpt>
<trkpt lat="32.580726624" lon="35.007282257">
  <ele>125.727173</ele>
  <time>2011-07-29T04:56:59Z</time>
  <speed>1.870000</speed>
</trkpt>
<trkpt lat="32.580726624" lon="35.007331848">
  <ele>125.190063</ele>
  <time>2011-07-29T04:57:01Z</time>
  <speed>1.950000</speed>
</trkpt>
<trkpt lat="32.580745697" lon="35.007377625">
  <ele>125.500610</ele>
  <time>2011-07-29T04:57:04Z</time>
  <speed>2.040000</speed>
</trkpt>
<trkpt lat="32.580749512" lon="35.007411957">
  <ele>125.729126</ele>
  <time>2011-07-29T04:57:06Z</time>
  <speed>1.650000</speed>
</trkpt>
<trkpt lat="32.580757141" lon="35.007446289">
  <ele>125.936157</ele>
  <time>2011-07-29T04:57:08Z</time>
  <speed>1.730000</speed>
</trkpt>
<trkpt lat="32.580745697" lon="35.007488251">
  <ele>126.102173</ele>
  <time>2011-07-29T04:57:10Z</time>
  <speed>1.850000</speed>
</trkpt>
<trkpt lat="32.580741882" lon="35.007541656">
  <ele>126.104126</ele>
  <time>2011-07-29T04:57:13Z</time>
  <speed>1.570000</speed>
</trkpt>
<trkpt lat="32.580749512" lon="35.007575989">
  <ele>126.242798</ele>
  <time>2011-07-29T04:57:15Z</time>
  <speed>1.640000</speed>
</trkpt>
<trkpt lat="32.580753326" lon="35.007614136">
  <ele>125.908813</ele>
  <time>2011-07-29T04:57:17Z</time>
  <speed>1.540000</speed>
</trkpt>
<trkpt lat="32.580768585" lon="35.007648468">
  <ele>126.143188</ele>
  <time>2011-07-29T04:57:19Z</time>
  <speed>1.470000</speed>
</trkpt>
<trkpt lat="32.580768585" lon="35.007686615">
  <ele>125.934204</ele>
  <time>2011-07-29T04:57:21Z</time>
  <speed>1.770000</speed>
</trkpt>
<trkpt lat="32.580780029" lon="35.007724762">
  <ele>126.934204</ele>
  <time>2011-07-29T04:57:23Z</time>
  <speed>1.620000</speed>
</trkpt>
<trkpt lat="32.580791473" lon="35.007759094">
  <ele>126.039673</ele>
  <time>2011-07-29T04:57:25Z</time>
  <speed>1.630000</speed>
</trkpt>
<trkpt lat="32.580772400" lon="35.007797241">
  <ele>125.998657</ele>
  <time>2011-07-29T04:57:28Z</time>
  <speed>1.490000</speed>
</trkpt>
<trkpt lat="32.580768585" lon="35.007835388">
  <ele>125.643188</ele>
  <time>2011-07-29T04:57:30Z</time>
  <speed>1.420000</speed>
</trkpt>
<trkpt lat="32.580780029" lon="35.007865906">
  <ele>125.854126</ele>
  <time>2011-07-29T04:57:32Z</time>
  <speed>1.250000</speed>
</trkpt>
<trkpt lat="32.580764771" lon="35.007896423">
  <ele>125.781860</ele>
  <time>2011-07-29T04:57:34Z</time>
  <speed>1.480000</speed>
</trkpt>
<trkpt lat="32.580764771" lon="35.007938385">
  <ele>125.178345</ele>
  <time>2011-07-29T04:57:37Z</time>
  <speed>1.590000</speed>
</trkpt>
<trkpt lat="32.580757141" lon="35.007980347">
  <ele>124.717407</ele>
  <time>2011-07-29T04:57:40Z</time>
  <speed>1.240000</speed>
</trkpt>
<trkpt lat="32.580749512" lon="35.008010864">
  <ele>124.346313</ele>
  <time>2011-07-29T04:57:42Z</time>
  <speed>1.620000</speed>
</trkpt>
<trkpt lat="32.580741882" lon="35.008045197">
  <ele>123.842407</ele>
  <time>2011-07-29T04:57:44Z</time>
  <speed>1.360000</speed>
</trkpt>
<trkpt lat="32.580738068" lon="35.008079529">
  <ele>123.184204</ele>
  <time>2011-07-29T04:57:46Z</time>
  <speed>1.400000</speed>
</trkpt>
<trkpt lat="32.580738068" lon="35.008117676">
  <ele>122.973267</ele>
  <time>2011-07-29T04:57:48Z</time>
  <speed>1.620000</speed>
</trkpt>
<trkpt lat="32.580722809" lon="35.008148193">
  <ele>123.424438</ele>
  <time>2011-07-29T04:57:50Z</time>
  <speed>1.470000</speed>
</trkpt>
<trkpt lat="32.580718994" lon="35.008186340">
  <ele>123.287720</ele>
  <time>2011-07-29T04:57:52Z</time>
  <speed>1.400000</speed>
</trkpt>
<trkpt lat="32.580707550" lon="35.008216858">
  <ele>124.024048</ele>
  <time>2011-07-29T04:57:54Z</time>
  <speed>1.480000</speed>
</trkpt>
<trkpt lat="32.580680847" lon="35.008251190">
  <ele>124.254517</ele>
  <time>2011-07-29T04:57:56Z</time>
  <speed>1.700000</speed>
</trkpt>
<trkpt lat="32.580657959" lon="35.008281708">
  <ele>125.178345</ele>
  <time>2011-07-29T04:57:58Z</time>
  <speed>1.850000</speed>
</trkpt>
<trkpt lat="32.580642700" lon="35.008312225">
  <ele>125.318970</ele>
  <time>2011-07-29T04:58:00Z</time>
  <speed>1.730000</speed>
</trkpt>
<trkpt lat="32.580631256" lon="35.008365631">
  <ele>125.736938</ele>
  <time>2011-07-29T04:58:03Z</time>
  <speed>1.590000</speed>
</trkpt>
<trkpt lat="32.580615997" lon="35.008392334">
  <ele>125.785767</ele>
  <time>2011-07-29T04:58:05Z</time>
  <speed>1.630000</speed>
</trkpt>
<trkpt lat="32.580604553" lon="35.008422852">
  <ele>125.881470</ele>
  <time>2011-07-29T04:58:07Z</time>
  <speed>1.830000</speed>
</trkpt>
<trkpt lat="32.580577850" lon="35.008457184">
  <ele>125.877563</ele>
  <time>2011-07-29T04:58:10Z</time>
  <speed>1.010000</speed>
</trkpt>
<trkpt lat="32.580547333" lon="35.008480072">
  <ele>125.383423</ele>
  <time>2011-07-29T04:58:12Z</time>
  <speed>2.080000</speed>
</trkpt>
<trkpt lat="32.580524445" lon="35.008518219">
  <ele>124.746704</ele>
  <time>2011-07-29T04:58:14Z</time>
  <speed>1.670000</speed>
</trkpt>
<trkpt lat="32.580528259" lon="35.008552551">
  <ele>124.205688</ele>
  <time>2011-07-29T04:58:16Z</time>
  <speed>1.620000</speed>
</trkpt>
<trkpt lat="32.580516815" lon="35.008586884">
  <ele>124.010376</ele>
  <time>2011-07-29T04:58:18Z</time>
  <speed>1.490000</speed>
</trkpt>
<trkpt lat="32.580501556" lon="35.008625031">
  <ele>124.031860</ele>
  <time>2011-07-29T04:58:20Z</time>
  <speed>1.490000</speed>
</trkpt>
<trkpt lat="32.580490112" lon="35.008663177">
  <ele>123.834595</ele>
  <time>2011-07-29T04:58:22Z</time>
  <speed>1.370000</speed>
</trkpt>
<trkpt lat="32.580471039" lon="35.008705139">
  <ele>124.879517</ele>
  <time>2011-07-29T04:58:24Z</time>
  <speed>1.750000</speed>
</trkpt>
<trkpt lat="32.580467224" lon="35.008735657">
  <ele>125.160767</ele>
  <time>2011-07-29T04:58:26Z</time>
  <speed>1.460000</speed>
</trkpt>
<trkpt lat="32.580451965" lon="35.008781433">
  <ele>125.258423</ele>
  <time>2011-07-29T04:58:29Z</time>
  <speed>1.260000</speed>
</trkpt>
<trkpt lat="32.580440521" lon="35.008815765">
  <ele>124.303345</ele>
  <time>2011-07-29T04:58:31Z</time>
  <speed>1.580000</speed>
</trkpt>
<trkpt lat="32.580429077" lon="35.008850098">
  <ele>125.391235</ele>
  <time>2011-07-29T04:58:34Z</time>
  <speed>1.470000</speed>
</trkpt>
<trkpt lat="32.580402374" lon="35.008872986">
  <ele>124.608032</ele>
  <time>2011-07-29T04:58:37Z</time>
  <speed>1.510000</speed>
</trkpt>
<trkpt lat="32.580402374" lon="35.008907318">
  <ele>123.330688</ele>
  <time>2011-07-29T04:58:41Z</time>
  <speed>0.950000</speed>
</trkpt>
<trkpt lat="32.580390930" lon="35.008941650">
  <ele>123.756470</ele>
  <time>2011-07-29T04:58:43Z</time>
  <speed>1.370000</speed>
</trkpt>
<trkpt lat="32.580368042" lon="35.008968353">
  <ele>123.473267</ele>
  <time>2011-07-29T04:58:45Z</time>
  <speed>1.580000</speed>
</trkpt>
<trkpt lat="32.580341339" lon="35.008995056">
  <ele>123.078735</ele>
  <time>2011-07-29T04:58:47Z</time>
  <speed>1.650000</speed>
</trkpt>
<trkpt lat="32.580329895" lon="35.009021759">
  <ele>122.818970</ele>
  <time>2011-07-29T04:58:49Z</time>
  <speed>1.520000</speed>
</trkpt>
<trkpt lat="32.580318451" lon="35.009059906">
  <ele>122.383423</ele>
  <time>2011-07-29T04:58:51Z</time>
  <speed>1.360000</speed>
</trkpt>
<trkpt lat="32.580295563" lon="35.009101868">
  <ele>121.678345</ele>
  <time>2011-07-29T04:58:53Z</time>
  <speed>1.520000</speed>
</trkpt>
<trkpt lat="32.580265045" lon="35.009136200">
  <ele>122.484985</ele>
  <time>2011-07-29T04:58:56Z</time>
  <speed>1.650000</speed>
</trkpt>
<trkpt lat="32.580253601" lon="35.009162903">
  <ele>122.449829</ele>
  <time>2011-07-29T04:58:58Z</time>
  <speed>1.350000</speed>
</trkpt>
<trkpt lat="32.580245972" lon="35.009204865">
  <ele>122.404907</ele>
  <time>2011-07-29T04:59:01Z</time>
  <speed>1.430000</speed>
</trkpt>
<trkpt lat="32.580234528" lon="35.009235382">
  <ele>122.279907</ele>
  <time>2011-07-29T04:59:03Z</time>
  <speed>1.380000</speed>
</trkpt>
<trkpt lat="32.580215454" lon="35.009273529">
  <ele>122.342407</ele>
  <time>2011-07-29T04:59:06Z</time>
  <speed>1.280000</speed>
</trkpt>
<trkpt lat="32.580196381" lon="35.009315491">
  <ele>121.932251</ele>
  <time>2011-07-29T04:59:09Z</time>
  <speed>1.360000</speed>
</trkpt>
<trkpt lat="32.580177307" lon="35.009338379">
  <ele>121.881470</ele>
  <time>2011-07-29T04:59:11Z</time>
  <speed>1.630000</speed>
</trkpt>
<trkpt lat="32.580184937" lon="35.009380341">
  <ele>122.512329</ele>
  <time>2011-07-29T04:59:13Z</time>
  <speed>1.370000</speed>
</trkpt>
<trkpt lat="32.580165863" lon="35.009403229">
  <ele>122.672485</ele>
  <time>2011-07-29T04:59:15Z</time>
  <speed>1.440000</speed>
</trkpt>
<trkpt lat="32.580131531" lon="35.009445190">
  <ele>123.731079</ele>
  <time>2011-07-29T04:59:18Z</time>
  <speed>1.180000</speed>
</trkpt>
<trkpt lat="32.580070496" lon="35.009456635">
  <ele>126.264282</ele>
  <time>2011-07-29T04:59:19Z</time>
  <speed>1.350000</speed>
</trkpt>
<trkpt lat="32.580051422" lon="35.009490967">
  <ele>127.834595</ele>
  <time>2011-07-29T04:59:21Z</time>
  <speed>1.600000</speed>
</trkpt>
<trkpt lat="32.580047607" lon="35.009532928">
  <ele>128.016846</ele>
  <time>2011-07-29T04:59:23Z</time>
  <speed>1.360000</speed>
</trkpt>
<trkpt lat="32.579990387" lon="35.009567261">
  <ele>130.071533</ele>
  <time>2011-07-29T04:59:25Z</time>
  <speed>1.340000</speed>
</trkpt>
<trkpt lat="32.579971313" lon="35.009597778">
  <ele>131.114502</ele>
  <time>2011-07-29T04:59:27Z</time>
  <speed>1.410000</speed>
</trkpt>
<trkpt lat="32.579940796" lon="35.009639740">
  <ele>133.372314</ele>
  <time>2011-07-29T04:59:29Z</time>
  <speed>1.760000</speed>
</trkpt>
<trkpt lat="32.579929352" lon="35.009677887">
  <ele>134.286377</ele>
  <time>2011-07-29T04:59:31Z</time>
  <speed>1.580000</speed>
</trkpt>
<trkpt lat="32.579917908" lon="35.009723663">
  <ele>135.270752</ele>
  <time>2011-07-29T04:59:33Z</time>
  <speed>1.620000</speed>
</trkpt>
<trkpt lat="32.579910278" lon="35.009773254">
  <ele>136.126221</ele>
  <time>2011-07-29T04:59:36Z</time>
  <speed>1.320000</speed>
</trkpt>
<trkpt lat="32.579887390" lon="35.009807587">
  <ele>137.864502</ele>
  <time>2011-07-29T04:59:38Z</time>
  <speed>1.780000</speed>
</trkpt>
<trkpt lat="32.579875946" lon="35.009845734">
  <ele>138.302002</ele>
  <time>2011-07-29T04:59:40Z</time>
  <speed>1.590000</speed>
</trkpt>
<trkpt lat="32.579879761" lon="35.009880066">
  <ele>139.122314</ele>
  <time>2011-07-29T04:59:42Z</time>
  <speed>1.570000</speed>
</trkpt>
<trkpt lat="32.579868317" lon="35.009910583">
  <ele>139.048096</ele>
  <time>2011-07-29T04:59:44Z</time>
  <speed>1.460000</speed>
</trkpt>
<trkpt lat="32.579853058" lon="35.009956360">
  <ele>139.434814</ele>
  <time>2011-07-29T04:59:47Z</time>
  <speed>1.660000</speed>
</trkpt>
<trkpt lat="32.579841614" lon="35.009994507">
  <ele>139.770752</ele>
  <time>2011-07-29T04:59:49Z</time>
  <speed>1.600000</speed>
</trkpt>
<trkpt lat="32.579841614" lon="35.010036469">
  <ele>140.079346</ele>
  <time>2011-07-29T04:59:51Z</time>
  <speed>1.770000</speed>
</trkpt>
<trkpt lat="32.579822540" lon="35.010074615">
  <ele>140.036377</ele>
  <time>2011-07-29T04:59:53Z</time>
  <speed>1.650000</speed>
</trkpt>
<trkpt lat="32.579811096" lon="35.010124207">
  <ele>139.950439</ele>
  <time>2011-07-29T04:59:56Z</time>
  <speed>1.730000</speed>
</trkpt>
<trkpt lat="32.579811096" lon="35.010158539">
  <ele>139.696533</ele>
  <time>2011-07-29T04:59:58Z</time>
  <speed>1.320000</speed>
</trkpt>
<trkpt lat="32.579818726" lon="35.010192871">
  <ele>140.356689</ele>
  <time>2011-07-29T05:00:00Z</time>
  <speed>1.370000</speed>
</trkpt>
<trkpt lat="32.579826355" lon="35.010227203">
  <ele>140.958252</ele>
  <time>2011-07-29T05:00:02Z</time>
  <speed>1.520000</speed>
</trkpt>
<trkpt lat="32.579826355" lon="35.010269165">
  <ele>141.567627</ele>
  <time>2011-07-29T05:00:04Z</time>
  <speed>1.610000</speed>
</trkpt>
<trkpt lat="32.579830170" lon="35.010307312">
  <ele>142.637939</ele>
  <time>2011-07-29T05:00:06Z</time>
  <speed>1.550000</speed>
</trkpt>
<trkpt lat="32.579822540" lon="35.010349274">
  <ele>142.817627</ele>
  <time>2011-07-29T05:00:08Z</time>
  <speed>1.550000</speed>
</trkpt>
<trkpt lat="32.579811096" lon="35.010387421">
  <ele>143.415283</ele>
  <time>2011-07-29T05:00:10Z</time>
  <speed>1.740000</speed>
</trkpt>
<trkpt lat="32.579814911" lon="35.010433197">
  <ele>144.540283</ele>
  <time>2011-07-29T05:00:13Z</time>
  <speed>1.440000</speed>
</trkpt>
<trkpt lat="32.579830170" lon="35.010467529">
  <ele>145.231689</ele>
  <time>2011-07-29T05:00:15Z</time>
  <speed>1.400000</speed>
</trkpt>
<trkpt lat="32.579837799" lon="35.010501862">
  <ele>145.665283</ele>
  <time>2011-07-29T05:00:17Z</time>
  <speed>1.540000</speed>
</trkpt>
<trkpt lat="32.579830170" lon="35.010540009">
  <ele>146.130127</ele>
  <time>2011-07-29T05:00:19Z</time>
  <speed>1.770000</speed>
</trkpt>
<trkpt lat="32.579814911" lon="35.010581970">
  <ele>146.891846</ele>
  <time>2011-07-29T05:00:21Z</time>
  <speed>1.610000</speed>
</trkpt>
<trkpt lat="32.579826355" lon="35.010612488">
  <ele>147.075439</ele>
  <time>2011-07-29T05:00:23Z</time>
  <speed>1.630000</speed>
</trkpt>
<trkpt lat="32.579826355" lon="35.010643005">
  <ele>147.653564</ele>
  <time>2011-07-29T05:00:25Z</time>
  <speed>1.640000</speed>
</trkpt>
<trkpt lat="32.579830170" lon="35.010688782">
  <ele>147.497314</ele>
  <time>2011-07-29T05:00:27Z</time>
  <speed>1.750000</speed>
</trkpt>
<trkpt lat="32.579837799" lon="35.010730743">
  <ele>147.524658</ele>
  <time>2011-07-29T05:00:29Z</time>
  <speed>1.840000</speed>
</trkpt>
<trkpt lat="32.579853058" lon="35.010765076">
  <ele>147.501221</ele>
  <time>2011-07-29T05:00:31Z</time>
  <speed>1.350000</speed>
</trkpt>
<trkpt lat="32.579879761" lon="35.010795593">
  <ele>147.087158</ele>
  <time>2011-07-29T05:00:33Z</time>
  <speed>1.930000</speed>
</trkpt>
<trkpt lat="32.579887390" lon="35.010837555">
  <ele>146.821533</ele>
  <time>2011-07-29T05:00:35Z</time>
  <speed>1.320000</speed>
</trkpt>
<trkpt lat="32.579895020" lon="35.010883331">
  <ele>147.563721</ele>
  <time>2011-07-29T05:00:38Z</time>
  <speed>1.550000</speed>
</trkpt>
<trkpt lat="32.579887390" lon="35.010917664">
  <ele>147.442627</ele>
  <time>2011-07-29T05:00:40Z</time>
  <speed>1.490000</speed>
</trkpt>
<trkpt lat="32.579875946" lon="35.010951996">
  <ele>148.122314</ele>
  <time>2011-07-29T05:00:42Z</time>
  <speed>1.090000</speed>
</trkpt>
<trkpt lat="32.579879761" lon="35.010990143">
  <ele>148.048096</ele>
  <time>2011-07-29T05:00:45Z</time>
  <speed>1.320000</speed>
</trkpt>
<trkpt lat="32.579887390" lon="35.011024475">
  <ele>147.942627</ele>
  <time>2011-07-29T05:00:47Z</time>
  <speed>1.500000</speed>
</trkpt>
<trkpt lat="32.579875946" lon="35.011066437">
  <ele>147.079346</ele>
  <time>2011-07-29T05:00:48Z</time>
  <speed>1.710000</speed>
</trkpt>
<trkpt lat="32.579872131" lon="35.011104584">
  <ele>146.774658</ele>
  <time>2011-07-29T05:00:50Z</time>
  <speed>1.250000</speed>
</trkpt>
<trkpt lat="32.579898834" lon="35.011138916">
  <ele>146.403564</ele>
  <time>2011-07-29T05:00:53Z</time>
  <speed>1.210000</speed>
</trkpt>
<trkpt lat="32.579921722" lon="35.011173248">
  <ele>146.395752</ele>
  <time>2011-07-29T05:00:55Z</time>
  <speed>1.440000</speed>
</trkpt>
<trkpt lat="32.579967499" lon="35.011199951">
  <ele>146.430908</ele>
  <time>2011-07-29T05:00:57Z</time>
  <speed>1.340000</speed>
</trkpt>
<trkpt lat="32.579971313" lon="35.011230469">
  <ele>147.216064</ele>
  <time>2011-07-29T05:01:00Z</time>
  <speed>1.150000</speed>
</trkpt>
<trkpt lat="32.579975128" lon="35.011280060">
  <ele>146.743408</ele>
  <time>2011-07-29T05:01:03Z</time>
  <speed>1.090000</speed>
</trkpt>
<trkpt lat="32.579971313" lon="35.011314392">
  <ele>146.274658</ele>
  <time>2011-07-29T05:01:05Z</time>
  <speed>1.330000</speed>
</trkpt>
<trkpt lat="32.579948425" lon="35.011352539">
  <ele>145.024658</ele>
  <time>2011-07-29T05:01:08Z</time>
  <speed>1.260000</speed>
</trkpt>
<trkpt lat="32.579933167" lon="35.011386871">
  <ele>143.911377</ele>
  <time>2011-07-29T05:01:11Z</time>
  <speed>1.160000</speed>
</trkpt>
<trkpt lat="32.579917908" lon="35.011417389">
  <ele>143.809814</ele>
  <time>2011-07-29T05:01:13Z</time>
  <speed>1.410000</speed>
</trkpt>
<trkpt lat="32.579895020" lon="35.011463165">
  <ele>143.262939</ele>
  <time>2011-07-29T05:01:15Z</time>
  <speed>1.060000</speed>
</trkpt>
<trkpt lat="32.579898834" lon="35.011508942">
  <ele>143.364502</ele>
  <time>2011-07-29T05:01:18Z</time>
  <speed>1.610000</speed>
</trkpt>
<trkpt lat="32.579887390" lon="35.011535645">
  <ele>144.157471</ele>
  <time>2011-07-29T05:01:20Z</time>
  <speed>1.340000</speed>
</trkpt>
<trkpt lat="32.579879761" lon="35.011569977">
  <ele>143.739502</ele>
  <time>2011-07-29T05:01:22Z</time>
  <speed>1.470000</speed>
</trkpt>
<trkpt lat="32.579875946" lon="35.011615753">
  <ele>144.204346</ele>
  <time>2011-07-29T05:01:25Z</time>
  <speed>1.610000</speed>
</trkpt>
<trkpt lat="32.579853058" lon="35.011665344">
  <ele>147.544189</ele>
  <time>2011-07-29T05:01:27Z</time>
  <speed>1.590000</speed>
</trkpt>
<trkpt lat="32.579841614" lon="35.011699677">
  <ele>148.743408</ele>
  <time>2011-07-29T05:01:29Z</time>
  <speed>1.540000</speed>
</trkpt>
<trkpt lat="32.579830170" lon="35.011726379">
  <ele>149.770752</ele>
  <time>2011-07-29T05:01:30Z</time>
  <speed>1.190000</speed>
</trkpt>
<trkpt lat="32.579822540" lon="35.011760712">
  <ele>151.114502</ele>
  <time>2011-07-29T05:01:32Z</time>
  <speed>1.670000</speed>
</trkpt>
<trkpt lat="32.579822540" lon="35.011795044">
  <ele>151.856689</ele>
  <time>2011-07-29T05:01:34Z</time>
  <speed>1.580000</speed>
</trkpt>
<trkpt lat="32.579826355" lon="35.011844635">
  <ele>152.622314</ele>
  <time>2011-07-29T05:01:37Z</time>
  <speed>1.290000</speed>
</trkpt>
<trkpt lat="32.579837799" lon="35.011878967">
  <ele>152.915283</ele>
  <time>2011-07-29T05:01:39Z</time>
  <speed>1.370000</speed>
</trkpt>
<trkpt lat="32.579830170" lon="35.011913300">
  <ele>155.657471</ele>
  <time>2011-07-29T05:01:42Z</time>
  <speed>1.030000</speed>
</trkpt>
<trkpt lat="32.579841614" lon="35.011947632">
  <ele>156.735596</ele>
  <time>2011-07-29T05:01:44Z</time>
  <speed>1.490000</speed>
</trkpt>
<trkpt lat="32.579860687" lon="35.011981964">
  <ele>157.274658</ele>
  <time>2011-07-29T05:01:46Z</time>
  <speed>1.480000</speed>
</trkpt>
<trkpt lat="32.579879761" lon="35.012008667">
  <ele>157.645752</ele>
  <time>2011-07-29T05:01:48Z</time>
  <speed>1.360000</speed>
</trkpt>
<trkpt lat="32.579887390" lon="35.012042999">
  <ele>157.891846</ele>
  <time>2011-07-29T05:01:50Z</time>
  <speed>1.430000</speed>
</trkpt>
<trkpt lat="32.579906464" lon="35.012073517">
  <ele>158.512939</ele>
  <time>2011-07-29T05:01:52Z</time>
  <speed>1.400000</speed>
</trkpt>
<trkpt lat="32.579917908" lon="35.012107849">
  <ele>159.384033</ele>
  <time>2011-07-29T05:01:54Z</time>
  <speed>1.420000</speed>
</trkpt>
<trkpt lat="32.579917908" lon="35.012142181">
  <ele>160.376221</ele>
  <time>2011-07-29T05:01:56Z</time>
  <speed>1.720000</speed>
</trkpt>
<trkpt lat="32.579898834" lon="35.012168884">
  <ele>159.548096</ele>
  <time>2011-07-29T05:02:00Z</time>
  <speed>1.440000</speed>
</trkpt>
<trkpt lat="32.579872131" lon="35.012149811">
  <ele>159.809814</ele>
  <time>2011-07-29T05:02:04Z</time>
  <speed>0.930000</speed>
</trkpt>
<trkpt lat="32.579837799" lon="35.012161255">
  <ele>160.106689</ele>
  <time>2011-07-29T05:02:08Z</time>
  <speed>1.200000</speed>
</trkpt>
<trkpt lat="32.579803467" lon="35.012172699">
  <ele>159.684814</ele>
  <time>2011-07-29T05:02:12Z</time>
  <speed>1.170000</speed>
</trkpt>
<trkpt lat="32.579757690" lon="35.012168884">
  <ele>160.540283</ele>
  <time>2011-07-29T05:02:14Z</time>
  <speed>1.410000</speed>
</trkpt>
<trkpt lat="32.579723358" lon="35.012172699">
  <ele>161.149658</ele>
  <time>2011-07-29T05:02:16Z</time>
  <speed>1.530000</speed>
</trkpt>
<trkpt lat="32.579692841" lon="35.012168884">
  <ele>160.387939</ele>
  <time>2011-07-29T05:02:20Z</time>
  <speed>0.810000</speed>
</trkpt>
<trkpt lat="32.579662323" lon="35.012184143">
  <ele>159.493408</ele>
  <time>2011-07-29T05:02:23Z</time>
  <speed>1.250000</speed>
</trkpt>
<trkpt lat="32.579635620" lon="35.012210846">
  <ele>159.024658</ele>
  <time>2011-07-29T05:02:27Z</time>
  <speed>1.050000</speed>
</trkpt>
<trkpt lat="32.579608917" lon="35.012245178">
  <ele>158.719971</ele>
  <time>2011-07-29T05:02:31Z</time>
  <speed>1.210000</speed>
</trkpt>
<trkpt lat="32.579582214" lon="35.012264252">
  <ele>159.251221</ele>
  <time>2011-07-29T05:02:33Z</time>
  <speed>1.330000</speed>
</trkpt>
<trkpt lat="32.579559326" lon="35.012294769">
  <ele>159.243408</ele>
  <time>2011-07-29T05:02:36Z</time>
  <speed>1.160000</speed>
</trkpt>
<trkpt lat="32.579536438" lon="35.012336731">
  <ele>160.884033</ele>
  <time>2011-07-29T05:02:38Z</time>
  <speed>1.560000</speed>
</trkpt>
<trkpt lat="32.579524994" lon="35.012367249">
  <ele>160.739502</ele>
  <time>2011-07-29T05:02:40Z</time>
  <speed>1.070000</speed>
</trkpt>
<trkpt lat="32.579513550" lon="35.012420654">
  <ele>160.700439</ele>
  <time>2011-07-29T05:02:42Z</time>
  <speed>1.990000</speed>
</trkpt>
<trkpt lat="32.579505920" lon="35.012462616">
  <ele>160.177002</ele>
  <time>2011-07-29T05:02:44Z</time>
  <speed>1.810000</speed>
</trkpt>
<trkpt lat="32.579498291" lon="35.012508392">
  <ele>160.048096</ele>
  <time>2011-07-29T05:02:46Z</time>
  <speed>2.800000</speed>
</trkpt>
<trkpt lat="32.579490662" lon="35.012538910">
  <ele>160.020752</ele>
  <time>2011-07-29T05:02:47Z</time>
  <speed>3.000000</speed>
</trkpt>
<trkpt lat="32.579494476" lon="35.012584686">
  <ele>160.602783</ele>
  <time>2011-07-29T05:02:49Z</time>
  <speed>2.420000</speed>
</trkpt>
<trkpt lat="32.579467773" lon="35.012615204">
  <ele>159.868408</ele>
  <time>2011-07-29T05:02:51Z</time>
  <speed>1.960000</speed>
</trkpt>
<trkpt lat="32.579444885" lon="35.012641907">
  <ele>159.770752</ele>
  <time>2011-07-29T05:02:53Z</time>
  <speed>1.510000</speed>
</trkpt>
<trkpt lat="32.579425812" lon="35.012664795">
  <ele>160.137939</ele>
  <time>2011-07-29T05:02:55Z</time>
  <speed>1.480000</speed>
</trkpt>
<trkpt lat="32.579406738" lon="35.012695313">
  <ele>160.622314</ele>
  <time>2011-07-29T05:02:57Z</time>
  <speed>1.310000</speed>
</trkpt>
<trkpt lat="32.579380035" lon="35.012722015">
  <ele>160.813721</ele>
  <time>2011-07-29T05:02:59Z</time>
  <speed>1.930000</speed>
</trkpt>
<trkpt lat="32.579353333" lon="35.012752533">
  <ele>160.813721</ele>
  <time>2011-07-29T05:03:01Z</time>
  <speed>1.520000</speed>
</trkpt>
<trkpt lat="32.579334259" lon="35.012783051">
  <ele>160.407471</ele>
  <time>2011-07-29T05:03:03Z</time>
  <speed>1.980000</speed>
</trkpt>
<trkpt lat="32.579319000" lon="35.012817383">
  <ele>160.208252</ele>
  <time>2011-07-29T05:03:05Z</time>
  <speed>1.630000</speed>
</trkpt>
<trkpt lat="32.579299927" lon="35.012863159">
  <ele>160.270752</ele>
  <time>2011-07-29T05:03:08Z</time>
  <speed>1.950000</speed>
</trkpt>
<trkpt lat="32.579292297" lon="35.012893677">
  <ele>161.528564</ele>
  <time>2011-07-29T05:03:10Z</time>
  <speed>1.460000</speed>
</trkpt>
<trkpt lat="32.579265594" lon="35.012916565">
  <ele>160.454346</ele>
  <time>2011-07-29T05:03:13Z</time>
  <speed>1.640000</speed>
</trkpt>
<trkpt lat="32.579219818" lon="35.012916565">
  <ele>161.231689</ele>
  <time>2011-07-29T05:03:15Z</time>
  <speed>1.850000</speed>
</trkpt>
<trkpt lat="32.579177856" lon="35.012928009">
  <ele>162.165283</ele>
  <time>2011-07-29T05:03:18Z</time>
  <speed>1.690000</speed>
</trkpt>
<trkpt lat="32.579147339" lon="35.012935638">
  <ele>163.157471</ele>
  <time>2011-07-29T05:03:20Z</time>
  <speed>1.680000</speed>
</trkpt>
<trkpt lat="32.579113007" lon="35.012943268">
  <ele>164.462158</ele>
  <time>2011-07-29T05:03:23Z</time>
  <speed>1.410000</speed>
</trkpt>
<trkpt lat="32.579082489" lon="35.012950897">
  <ele>164.876221</ele>
  <time>2011-07-29T05:03:25Z</time>
  <speed>1.720000</speed>
</trkpt>
<trkpt lat="32.579048157" lon="35.012954712">
  <ele>165.848877</ele>
  <time>2011-07-29T05:03:27Z</time>
  <speed>1.480000</speed>
</trkpt>
<trkpt lat="32.579021454" lon="35.012966156">
  <ele>166.126221</ele>
  <time>2011-07-29T05:03:29Z</time>
  <speed>1.480000</speed>
</trkpt>
<trkpt lat="32.578987122" lon="35.012966156">
  <ele>166.286377</ele>
  <time>2011-07-29T05:03:32Z</time>
  <speed>1.170000</speed>
</trkpt>
<trkpt lat="32.578945160" lon="35.012969971">
  <ele>167.485596</ele>
  <time>2011-07-29T05:03:34Z</time>
  <speed>1.560000</speed>
</trkpt>
<trkpt lat="32.578918457" lon="35.012966156">
  <ele>167.407471</ele>
  <time>2011-07-29T05:03:36Z</time>
  <speed>1.290000</speed>
</trkpt>
<trkpt lat="32.578914642" lon="35.012928009">
  <ele>166.798096</ele>
  <time>2011-07-29T05:03:39Z</time>
  <speed>0.530000</speed>
</trkpt>
<trkpt lat="32.578895569" lon="35.012935638">
  <ele>169.110596</ele>
  <time>2011-07-29T05:04:28Z</time>
  <speed>0.480000</speed>
</trkpt>
<trkpt lat="32.578872681" lon="35.012954712">
  <ele>169.278564</ele>
  <time>2011-07-29T05:05:01Z</time>
  <speed>0.020000</speed>
</trkpt>
<trkpt lat="32.578838348" lon="35.012966156">
  <ele>170.516846</ele>
  <time>2011-07-29T05:05:28Z</time>
  <speed>0.740000</speed>
</trkpt>
<trkpt lat="32.578804016" lon="35.012966156">
  <ele>170.567627</ele>
  <time>2011-07-29T05:05:31Z</time>
  <speed>0.670000</speed>
</trkpt>
<trkpt lat="32.578777313" lon="35.012989044">
  <ele>170.692627</ele>
  <time>2011-07-29T05:05:34Z</time>
  <speed>1.330000</speed>
</trkpt>
<trkpt lat="32.578750610" lon="35.013004303">
  <ele>172.239502</ele>
  <time>2011-07-29T05:05:42Z</time>
  <speed>0.620000</speed>
</trkpt>
<trkpt lat="32.578727722" lon="35.013019562">
  <ele>172.399658</ele>
  <time>2011-07-29T05:05:44Z</time>
  <speed>1.200000</speed>
</trkpt>
<trkpt lat="32.578701019" lon="35.013023376">
  <ele>172.755127</ele>
  <time>2011-07-29T05:05:46Z</time>
  <speed>1.130000</speed>
</trkpt>
<trkpt lat="32.578670502" lon="35.013023376">
  <ele>173.247314</ele>
  <time>2011-07-29T05:05:48Z</time>
  <speed>1.520000</speed>
</trkpt>
<trkpt lat="32.578639984" lon="35.013015747">
  <ele>174.063721</ele>
  <time>2011-07-29T05:05:51Z</time>
  <speed>1.590000</speed>
</trkpt>
<trkpt lat="32.578605652" lon="35.013004303">
  <ele>174.079346</ele>
  <time>2011-07-29T05:05:53Z</time>
  <speed>1.500000</speed>
</trkpt>
<trkpt lat="32.578575134" lon="35.013000488">
  <ele>174.559814</ele>
  <time>2011-07-29T05:05:55Z</time>
  <speed>1.500000</speed>
</trkpt>
<trkpt lat="32.578548431" lon="35.012985229">
  <ele>174.309814</ele>
  <time>2011-07-29T05:05:57Z</time>
  <speed>1.450000</speed>
</trkpt>
<trkpt lat="32.578514099" lon="35.012981415">
  <ele>175.153564</ele>
  <time>2011-07-29T05:06:00Z</time>
  <speed>1.190000</speed>
</trkpt>
<trkpt lat="32.578487396" lon="35.012985229">
  <ele>175.688721</ele>
  <time>2011-07-29T05:06:02Z</time>
  <speed>1.310000</speed>
</trkpt>
<trkpt lat="32.578456879" lon="35.012992859">
  <ele>176.673096</ele>
  <time>2011-07-29T05:06:04Z</time>
  <speed>1.400000</speed>
</trkpt>
<trkpt lat="32.578430176" lon="35.012989044">
  <ele>176.157471</ele>
  <time>2011-07-29T05:06:06Z</time>
  <speed>1.400000</speed>
</trkpt>
<trkpt lat="32.578395844" lon="35.012992859">
  <ele>176.899658</ele>
  <time>2011-07-29T05:06:08Z</time>
  <speed>1.530000</speed>
</trkpt>
<trkpt lat="32.578357697" lon="35.012992859">
  <ele>178.399658</ele>
  <time>2011-07-29T05:06:11Z</time>
  <speed>1.360000</speed>
</trkpt>
<trkpt lat="32.578319550" lon="35.012992859">
  <ele>178.516846</ele>
  <time>2011-07-29T05:06:14Z</time>
  <speed>1.530000</speed>
</trkpt>
<trkpt lat="32.578281403" lon="35.013000488">
  <ele>178.684814</ele>
  <time>2011-07-29T05:06:17Z</time>
  <speed>1.320000</speed>
</trkpt>
<trkpt lat="32.578250885" lon="35.013004303">
  <ele>179.618408</ele>
  <time>2011-07-29T05:06:19Z</time>
  <speed>1.310000</speed>
</trkpt>
<trkpt lat="32.578220367" lon="35.013000488">
  <ele>179.813721</ele>
  <time>2011-07-29T05:06:21Z</time>
  <speed>1.380000</speed>
</trkpt>
<trkpt lat="32.578189850" lon="35.013004303">
  <ele>179.665283</ele>
  <time>2011-07-29T05:06:23Z</time>
  <speed>1.370000</speed>
</trkpt>
<trkpt lat="32.578155518" lon="35.013004303">
  <ele>180.485596</ele>
  <time>2011-07-29T05:06:25Z</time>
  <speed>1.410000</speed>
</trkpt>
<trkpt lat="32.578125000" lon="35.013004303">
  <ele>181.114502</ele>
  <time>2011-07-29T05:06:27Z</time>
  <speed>1.660000</speed>
</trkpt>
<trkpt lat="32.578098297" lon="35.012981415">
  <ele>180.614502</ele>
  <time>2011-07-29T05:06:30Z</time>
  <speed>1.190000</speed>
</trkpt>
<trkpt lat="32.578063965" lon="35.012977600">
  <ele>181.122314</ele>
  <time>2011-07-29T05:06:32Z</time>
  <speed>1.120000</speed>
</trkpt>
<trkpt lat="32.578029633" lon="35.012973785">
  <ele>180.891846</ele>
  <time>2011-07-29T05:06:35Z</time>
  <speed>1.290000</speed>
</trkpt>
<trkpt lat="32.578002930" lon="35.012992859">
  <ele>180.637939</ele>
  <time>2011-07-29T05:06:37Z</time>
  <speed>0.820000</speed>
</trkpt>
<trkpt lat="32.577976227" lon="35.012981415">
  <ele>180.223877</ele>
  <time>2011-07-29T05:06:40Z</time>
  <speed>1.440000</speed>
</trkpt>
<trkpt lat="32.577945709" lon="35.012981415">
  <ele>180.837158</ele>
  <time>2011-07-29T05:06:42Z</time>
  <speed>1.500000</speed>
</trkpt>
<trkpt lat="32.577919006" lon="35.012985229">
  <ele>181.837158</ele>
  <time>2011-07-29T05:06:44Z</time>
  <speed>1.580000</speed>
</trkpt>
<trkpt lat="32.577888489" lon="35.012985229">
  <ele>182.821533</ele>
  <time>2011-07-29T05:06:46Z</time>
  <speed>1.290000</speed>
</trkpt>
<trkpt lat="32.577850342" lon="35.012985229">
  <ele>184.653564</ele>
  <time>2011-07-29T05:06:49Z</time>
  <speed>1.670000</speed>
</trkpt>
<trkpt lat="32.577823639" lon="35.012966156">
  <ele>184.501221</ele>
  <time>2011-07-29T05:06:51Z</time>
  <speed>1.320000</speed>
</trkpt>
<trkpt lat="32.577789307" lon="35.012973785">
  <ele>184.469971</ele>
  <time>2011-07-29T05:06:53Z</time>
  <speed>1.790000</speed>
</trkpt>
<trkpt lat="32.577758789" lon="35.012977600">
  <ele>184.954346</ele>
  <time>2011-07-29T05:06:55Z</time>
  <speed>1.400000</speed>
</trkpt>
<trkpt lat="32.577716827" lon="35.012973785">
  <ele>185.915283</ele>
  <time>2011-07-29T05:06:58Z</time>
  <speed>1.740000</speed>
</trkpt>
<trkpt lat="32.577682495" lon="35.012966156">
  <ele>185.997314</ele>
  <time>2011-07-29T05:07:01Z</time>
  <speed>1.580000</speed>
</trkpt>
<trkpt lat="32.577644348" lon="35.012950897">
  <ele>185.606689</ele>
  <time>2011-07-29T05:07:04Z</time>
  <speed>1.310000</speed>
</trkpt>
<trkpt lat="32.577602386" lon="35.012958527">
  <ele>186.384033</ele>
  <time>2011-07-29T05:07:07Z</time>
  <speed>1.400000</speed>
</trkpt>
<trkpt lat="32.577564240" lon="35.012966156">
  <ele>186.891846</ele>
  <time>2011-07-29T05:07:10Z</time>
  <speed>1.270000</speed>
</trkpt>
<trkpt lat="32.577537537" lon="35.012962341">
  <ele>186.173096</ele>
  <time>2011-07-29T05:07:12Z</time>
  <speed>1.190000</speed>
</trkpt>
<trkpt lat="32.577503204" lon="35.012954712">
  <ele>185.532471</ele>
  <time>2011-07-29T05:07:14Z</time>
  <speed>1.420000</speed>
</trkpt>
<trkpt lat="32.577468872" lon="35.012950897">
  <ele>185.704346</ele>
  <time>2011-07-29T05:07:16Z</time>
  <speed>1.840000</speed>
</trkpt>
<trkpt lat="32.577434540" lon="35.012954712">
  <ele>185.993408</ele>
  <time>2011-07-29T05:07:18Z</time>
  <speed>1.590000</speed>
</trkpt>
<trkpt lat="32.577407837" lon="35.012966156">
  <ele>185.427002</ele>
  <time>2011-07-29T05:07:20Z</time>
  <speed>1.600000</speed>
</trkpt>
<trkpt lat="32.577384949" lon="35.012985229">
  <ele>185.673096</ele>
  <time>2011-07-29T05:07:21Z</time>
  <speed>1.410000</speed>
</trkpt>
<trkpt lat="32.577350616" lon="35.012981415">
  <ele>185.712158</ele>
  <time>2011-07-29T05:07:23Z</time>
  <speed>1.560000</speed>
</trkpt>
<trkpt lat="32.577312469" lon="35.012973785">
  <ele>186.134033</ele>
  <time>2011-07-29T05:07:25Z</time>
  <speed>1.580000</speed>
</trkpt>
<trkpt lat="32.577278137" lon="35.012962341">
  <ele>185.911377</ele>
  <time>2011-07-29T05:07:27Z</time>
  <speed>1.590000</speed>
</trkpt>
<trkpt lat="32.577239990" lon="35.012958527">
  <ele>185.794189</ele>
  <time>2011-07-29T05:07:30Z</time>
  <speed>1.810000</speed>
</trkpt>
<trkpt lat="32.577209473" lon="35.012973785">
  <ele>184.977783</ele>
  <time>2011-07-29T05:07:32Z</time>
  <speed>1.960000</speed>
</trkpt>
<trkpt lat="32.577171326" lon="35.012966156">
  <ele>184.594971</ele>
  <time>2011-07-29T05:07:34Z</time>
  <speed>1.690000</speed>
</trkpt>
<trkpt lat="32.577125549" lon="35.012950897">
  <ele>184.657471</ele>
  <time>2011-07-29T05:07:36Z</time>
  <speed>2.060000</speed>
</trkpt>
<trkpt lat="32.577102661" lon="35.012924194">
  <ele>184.321533</ele>
  <time>2011-07-29T05:07:38Z</time>
  <speed>1.350000</speed>
</trkpt>
<trkpt lat="32.577117920" lon="35.012893677">
  <ele>183.610596</ele>
  <time>2011-07-29T05:07:40Z</time>
  <speed>0.450000</speed>
</trkpt>
<trkpt lat="32.577095032" lon="35.012878418">
  <ele>186.223877</ele>
  <time>2011-07-29T05:07:46Z</time>
  <speed>0.020000</speed>
</trkpt>
<trkpt lat="32.577125549" lon="35.012836456">
  <ele>184.837158</ele>
  <time>2011-07-29T05:08:51Z</time>
  <speed>2.630000</speed>
</trkpt>
<trkpt lat="32.577148438" lon="35.012813568">
  <ele>185.020752</ele>
  <time>2011-07-29T05:08:52Z</time>
  <speed>2.440000</speed>
</trkpt>
<trkpt lat="32.577190399" lon="35.012775421">
  <ele>184.091064</ele>
  <time>2011-07-29T05:08:54Z</time>
  <speed>2.310000</speed>
</trkpt>
<trkpt lat="32.577217102" lon="35.012748718">
  <ele>183.708252</ele>
  <time>2011-07-29T05:08:56Z</time>
  <speed>2.280000</speed>
</trkpt>
<trkpt lat="32.577247620" lon="35.012718201">
  <ele>183.223877</ele>
  <time>2011-07-29T05:08:58Z</time>
  <speed>2.090000</speed>
</trkpt>
<trkpt lat="32.577281952" lon="35.012687683">
  <ele>182.880127</ele>
  <time>2011-07-29T05:09:00Z</time>
  <speed>2.220000</speed>
</trkpt>
<trkpt lat="32.577301025" lon="35.012664795">
  <ele>182.677002</ele>
  <time>2011-07-29T05:09:01Z</time>
  <speed>3.180000</speed>
</trkpt>
<trkpt lat="32.577312469" lon="35.012619019">
  <ele>183.106689</ele>
  <time>2011-07-29T05:09:02Z</time>
  <speed>3.100000</speed>
</trkpt>
<trkpt lat="32.577327728" lon="35.012580872">
  <ele>183.540283</ele>
  <time>2011-07-29T05:09:03Z</time>
  <speed>3.650000</speed>
</trkpt>
<trkpt lat="32.577346802" lon="35.012535095">
  <ele>183.055908</ele>
  <time>2011-07-29T05:09:04Z</time>
  <speed>4.680000</speed>
</trkpt>
<trkpt lat="32.577365875" lon="35.012474060">
  <ele>182.649658</ele>
  <time>2011-07-29T05:09:05Z</time>
  <speed>4.790000</speed>
</trkpt>
<trkpt lat="32.577377319" lon="35.012420654">
  <ele>181.876221</ele>
  <time>2011-07-29T05:09:06Z</time>
  <speed>4.450000</speed>
</trkpt>
<trkpt lat="32.577377319" lon="35.012363434">
  <ele>181.266846</ele>
  <time>2011-07-29T05:09:07Z</time>
  <speed>5.180000</speed>
</trkpt>
<trkpt lat="32.577381134" lon="35.012306213">
  <ele>180.739502</ele>
  <time>2011-07-29T05:09:08Z</time>
  <speed>4.840000</speed>
</trkpt>
<trkpt lat="32.577396393" lon="35.012252808">
  <ele>180.688721</ele>
  <time>2011-07-29T05:09:09Z</time>
  <speed>5.550000</speed>
</trkpt>
<trkpt lat="32.577423096" lon="35.012172699">
  <ele>181.419189</ele>
  <time>2011-07-29T05:09:10Z</time>
  <speed>6.570000</speed>
</trkpt>
<trkpt lat="32.577445984" lon="35.012104034">
  <ele>180.868408</ele>
  <time>2011-07-29T05:09:11Z</time>
  <speed>6.720000</speed>
</trkpt>
<trkpt lat="32.577457428" lon="35.012016296">
  <ele>180.829346</ele>
  <time>2011-07-29T05:09:12Z</time>
  <speed>7.550000</speed>
</trkpt>
<trkpt lat="32.577465057" lon="35.011928558">
  <ele>180.739502</ele>
  <time>2011-07-29T05:09:13Z</time>
  <speed>7.810000</speed>
</trkpt>
<trkpt lat="32.577468872" lon="35.011840820">
  <ele>180.555908</ele>
  <time>2011-07-29T05:09:14Z</time>
  <speed>7.880000</speed>
</trkpt>
<trkpt lat="32.577476501" lon="35.011753082">
  <ele>179.895752</ele>
  <time>2011-07-29T05:09:15Z</time>
  <speed>8.140000</speed>
</trkpt>
<trkpt lat="32.577487946" lon="35.011669159">
  <ele>179.313721</ele>
  <time>2011-07-29T05:09:16Z</time>
  <speed>7.870000</speed>
</trkpt>
<trkpt lat="32.577499390" lon="35.011581421">
  <ele>179.223877</ele>
  <time>2011-07-29T05:09:17Z</time>
  <speed>7.560000</speed>
</trkpt>
<trkpt lat="32.577507019" lon="35.011497498">
  <ele>179.223877</ele>
  <time>2011-07-29T05:09:18Z</time>
  <speed>7.830000</speed>
</trkpt>
<trkpt lat="32.577510834" lon="35.011417389">
  <ele>178.317627</ele>
  <time>2011-07-29T05:09:19Z</time>
  <speed>7.470000</speed>
</trkpt>
<trkpt lat="32.577518463" lon="35.011333466">
  <ele>177.766846</ele>
  <time>2011-07-29T05:09:20Z</time>
  <speed>7.360000</speed>
</trkpt>
<trkpt lat="32.577522278" lon="35.011249542">
  <ele>177.903564</ele>
  <time>2011-07-29T05:09:21Z</time>
  <speed>7.410000</speed>
</trkpt>
<trkpt lat="32.577537537" lon="35.011177063">
  <ele>177.751221</ele>
  <time>2011-07-29T05:09:22Z</time>
  <speed>6.800000</speed>
</trkpt>
<trkpt lat="32.577564240" lon="35.011112213">
  <ele>177.848877</ele>
  <time>2011-07-29T05:09:23Z</time>
  <speed>6.730000</speed>
</trkpt>
<trkpt lat="32.577590942" lon="35.011043549">
  <ele>178.348877</ele>
  <time>2011-07-29T05:09:24Z</time>
  <speed>6.300000</speed>
</trkpt>
<trkpt lat="32.577621460" lon="35.010986328">
  <ele>178.591064</ele>
  <time>2011-07-29T05:09:25Z</time>
  <speed>5.970000</speed>
</trkpt>
<trkpt lat="32.577644348" lon="35.010929108">
  <ele>179.098877</ele>
  <time>2011-07-29T05:09:26Z</time>
  <speed>5.570000</speed>
</trkpt>
<trkpt lat="32.577671051" lon="35.010875702">
  <ele>179.516846</ele>
  <time>2011-07-29T05:09:27Z</time>
  <speed>5.920000</speed>
</trkpt>
<trkpt lat="32.577686310" lon="35.010822296">
  <ele>179.501221</ele>
  <time>2011-07-29T05:09:28Z</time>
  <speed>6.010000</speed>
</trkpt>
<trkpt lat="32.577693939" lon="35.010757446">
  <ele>179.055908</ele>
  <time>2011-07-29T05:09:29Z</time>
  <speed>6.030000</speed>
</trkpt>
<trkpt lat="32.577713013" lon="35.010707855">
  <ele>179.044189</ele>
  <time>2011-07-29T05:09:30Z</time>
  <speed>5.030000</speed>
</trkpt>
<trkpt lat="32.577739716" lon="35.010665894">
  <ele>179.368408</ele>
  <time>2011-07-29T05:09:31Z</time>
  <speed>5.960000</speed>
</trkpt>
<trkpt lat="32.577777863" lon="35.010616302">
  <ele>179.969971</ele>
  <time>2011-07-29T05:09:32Z</time>
  <speed>6.000000</speed>
</trkpt>
<trkpt lat="32.577823639" lon="35.010570526">
  <ele>179.997314</ele>
  <time>2011-07-29T05:09:33Z</time>
  <speed>6.160000</speed>
</trkpt>
<trkpt lat="32.577865601" lon="35.010524750">
  <ele>179.512939</ele>
  <time>2011-07-29T05:09:34Z</time>
  <speed>6.620000</speed>
</trkpt>
<trkpt lat="32.577915192" lon="35.010475159">
  <ele>179.384033</ele>
  <time>2011-07-29T05:09:35Z</time>
  <speed>6.920000</speed>
</trkpt>
<trkpt lat="32.577960968" lon="35.010425568">
  <ele>179.286377</ele>
  <time>2011-07-29T05:09:36Z</time>
  <speed>6.840000</speed>
</trkpt>
<trkpt lat="32.578002930" lon="35.010375977">
  <ele>178.864502</ele>
  <time>2011-07-29T05:09:37Z</time>
  <speed>6.420000</speed>
</trkpt>
<trkpt lat="32.578048706" lon="35.010314941">
  <ele>179.020752</ele>
  <time>2011-07-29T05:09:38Z</time>
  <speed>6.750000</speed>
</trkpt>
<trkpt lat="32.578079224" lon="35.010246277">
  <ele>178.411377</ele>
  <time>2011-07-29T05:09:39Z</time>
  <speed>6.600000</speed>
</trkpt>
<trkpt lat="32.578113556" lon="35.010173798">
  <ele>178.376221</ele>
  <time>2011-07-29T05:09:40Z</time>
  <speed>6.700000</speed>
</trkpt>
<trkpt lat="32.578125000" lon="35.010105133">
  <ele>177.380127</ele>
  <time>2011-07-29T05:09:41Z</time>
  <speed>6.930000</speed>
</trkpt>
<trkpt lat="32.578132629" lon="35.010028839">
  <ele>177.344971</ele>
  <time>2011-07-29T05:09:42Z</time>
  <speed>6.920000</speed>
</trkpt>
<trkpt lat="32.578140259" lon="35.009956360">
  <ele>176.751221</ele>
  <time>2011-07-29T05:09:43Z</time>
  <speed>7.050000</speed>
</trkpt>
<trkpt lat="32.578147888" lon="35.009872437">
  <ele>176.427002</ele>
  <time>2011-07-29T05:09:44Z</time>
  <speed>7.130000</speed>
</trkpt>
<trkpt lat="32.578155518" lon="35.009799957">
  <ele>175.927002</ele>
  <time>2011-07-29T05:09:45Z</time>
  <speed>6.720000</speed>
</trkpt>
<trkpt lat="32.578170776" lon="35.009723663">
  <ele>175.341064</ele>
  <time>2011-07-29T05:09:46Z</time>
  <speed>7.210000</speed>
</trkpt>
<trkpt lat="32.578189850" lon="35.009651184">
  <ele>174.637939</ele>
  <time>2011-07-29T05:09:47Z</time>
  <speed>7.240000</speed>
</trkpt>
<trkpt lat="32.578205109" lon="35.009574890">
  <ele>174.591064</ele>
  <time>2011-07-29T05:09:48Z</time>
  <speed>7.760000</speed>
</trkpt>
<trkpt lat="32.578224182" lon="35.009490967">
  <ele>174.126221</ele>
  <time>2011-07-29T05:09:49Z</time>
  <speed>7.310000</speed>
</trkpt>
<trkpt lat="32.578239441" lon="35.009407043">
  <ele>173.415283</ele>
  <time>2011-07-29T05:09:50Z</time>
  <speed>7.890000</speed>
</trkpt>
<trkpt lat="32.578258514" lon="35.009326935">
  <ele>172.852783</ele>
  <time>2011-07-29T05:09:51Z</time>
  <speed>8.290000</speed>
</trkpt>
<trkpt lat="32.578281403" lon="35.009227753">
  <ele>173.188721</ele>
  <time>2011-07-29T05:09:52Z</time>
  <speed>8.610000</speed>
</trkpt>
<trkpt lat="32.578304291" lon="35.009136200">
  <ele>173.028564</ele>
  <time>2011-07-29T05:09:53Z</time>
  <speed>8.780000</speed>
</trkpt>
<trkpt lat="32.578319550" lon="35.009040833">
  <ele>172.802002</ele>
  <time>2011-07-29T05:09:54Z</time>
  <speed>8.400000</speed>
</trkpt>
<trkpt lat="32.578327179" lon="35.008953094">
  <ele>172.450439</ele>
  <time>2011-07-29T05:09:55Z</time>
  <speed>8.560000</speed>
</trkpt>
<trkpt lat="32.578323364" lon="35.008861542">
  <ele>172.567627</ele>
  <time>2011-07-29T05:09:56Z</time>
  <speed>8.590000</speed>
</trkpt>
<trkpt lat="32.578327179" lon="35.008773804">
  <ele>172.165283</ele>
  <time>2011-07-29T05:09:57Z</time>
  <speed>8.140000</speed>
</trkpt>
<trkpt lat="32.578311920" lon="35.008693695">
  <ele>172.497314</ele>
  <time>2011-07-29T05:09:58Z</time>
  <speed>6.970000</speed>
</trkpt>
<trkpt lat="32.578292847" lon="35.008621216">
  <ele>172.157471</ele>
  <time>2011-07-29T05:09:59Z</time>
  <speed>7.040000</speed>
</trkpt>
<trkpt lat="32.578289032" lon="35.008544922">
  <ele>171.446533</ele>
  <time>2011-07-29T05:10:00Z</time>
  <speed>6.950000</speed>
</trkpt>
<trkpt lat="32.578292847" lon="35.008476257">
  <ele>170.907471</ele>
  <time>2011-07-29T05:10:01Z</time>
  <speed>6.610000</speed>
</trkpt>
<trkpt lat="32.578319550" lon="35.008422852">
  <ele>171.024658</ele>
  <time>2011-07-29T05:10:02Z</time>
  <speed>5.880000</speed>
</trkpt>
<trkpt lat="32.578357697" lon="35.008384705">
  <ele>170.446533</ele>
  <time>2011-07-29T05:10:03Z</time>
  <speed>5.730000</speed>
</trkpt>
<trkpt lat="32.578376770" lon="35.008354187">
  <ele>169.423096</ele>
  <time>2011-07-29T05:10:04Z</time>
  <speed>4.050000</speed>
</trkpt>
<trkpt lat="32.578388214" lon="35.008312225">
  <ele>169.876221</ele>
  <time>2011-07-29T05:10:05Z</time>
  <speed>1.890000</speed>
</trkpt>
<trkpt lat="32.578353882" lon="35.008255005">
  <ele>169.891846</ele>
  <time>2011-07-29T05:10:07Z</time>
  <speed>4.110000</speed>
</trkpt>
<trkpt lat="32.578327179" lon="35.008205414">
  <ele>169.805908</ele>
  <time>2011-07-29T05:10:08Z</time>
  <speed>4.810000</speed>
</trkpt>
<trkpt lat="32.578304291" lon="35.008152008">
  <ele>169.454346</ele>
  <time>2011-07-29T05:10:09Z</time>
  <speed>5.250000</speed>
</trkpt>
<trkpt lat="32.578277588" lon="35.008098602">
  <ele>169.813721</ele>
  <time>2011-07-29T05:10:10Z</time>
  <speed>5.440000</speed>
</trkpt>
<trkpt lat="32.578254700" lon="35.008045197">
  <ele>169.708252</ele>
  <time>2011-07-29T05:10:11Z</time>
  <speed>5.210000</speed>
</trkpt>
<trkpt lat="32.578239441" lon="35.007991791">
  <ele>169.505127</ele>
  <time>2011-07-29T05:10:12Z</time>
  <speed>5.360000</speed>
</trkpt>
<trkpt lat="32.578231812" lon="35.007926941">
  <ele>169.321533</ele>
  <time>2011-07-29T05:10:13Z</time>
  <speed>6.120000</speed>
</trkpt>
<trkpt lat="32.578216553" lon="35.007865906">
  <ele>169.239502</ele>
  <time>2011-07-29T05:10:14Z</time>
  <speed>5.820000</speed>
</trkpt>
<trkpt lat="32.578193665" lon="35.007808685">
  <ele>168.071533</ele>
  <time>2011-07-29T05:10:15Z</time>
  <speed>6.110000</speed>
</trkpt>
<trkpt lat="32.578178406" lon="35.007751465">
  <ele>167.219971</ele>
  <time>2011-07-29T05:10:16Z</time>
  <speed>5.700000</speed>
</trkpt>
<trkpt lat="32.578186035" lon="35.007686615">
  <ele>166.634033</ele>
  <time>2011-07-29T05:10:17Z</time>
  <speed>6.090000</speed>
</trkpt>
<trkpt lat="32.578193665" lon="35.007621765">
  <ele>166.368408</ele>
  <time>2011-07-29T05:10:18Z</time>
  <speed>6.290000</speed>
</trkpt>
<trkpt lat="32.578201294" lon="35.007553101">
  <ele>165.290283</ele>
  <time>2011-07-29T05:10:19Z</time>
  <speed>6.520000</speed>
</trkpt>
<trkpt lat="32.578212738" lon="35.007476807">
  <ele>164.575439</ele>
  <time>2011-07-29T05:10:20Z</time>
  <speed>6.660000</speed>
</trkpt>
<trkpt lat="32.578220367" lon="35.007408142">
  <ele>164.204346</ele>
  <time>2011-07-29T05:10:21Z</time>
  <speed>7.020000</speed>
</trkpt>
<trkpt lat="32.578227997" lon="35.007328033">
  <ele>164.071533</ele>
  <time>2011-07-29T05:10:22Z</time>
  <speed>7.470000</speed>
</trkpt>
<trkpt lat="32.578243256" lon="35.007247925">
  <ele>163.567627</ele>
  <time>2011-07-29T05:10:23Z</time>
  <speed>7.480000</speed>
</trkpt>
<trkpt lat="32.578243256" lon="35.007160187">
  <ele>163.126221</ele>
  <time>2011-07-29T05:10:24Z</time>
  <speed>7.940000</speed>
</trkpt>
<trkpt lat="32.578239441" lon="35.007076263">
  <ele>162.411377</ele>
  <time>2011-07-29T05:10:25Z</time>
  <speed>8.270000</speed>
</trkpt>
<trkpt lat="32.578224182" lon="35.006984711">
  <ele>162.028564</ele>
  <time>2011-07-29T05:10:26Z</time>
  <speed>7.960000</speed>
</trkpt>
<trkpt lat="32.578208923" lon="35.006904602">
  <ele>161.157471</ele>
  <time>2011-07-29T05:10:27Z</time>
  <speed>8.110000</speed>
</trkpt>
<trkpt lat="32.578193665" lon="35.006809235">
  <ele>160.790283</ele>
  <time>2011-07-29T05:10:28Z</time>
  <speed>8.320000</speed>
</trkpt>
<trkpt lat="32.578186035" lon="35.006713867">
  <ele>160.637939</ele>
  <time>2011-07-29T05:10:29Z</time>
  <speed>8.510000</speed>
</trkpt>
<trkpt lat="32.578170776" lon="35.006622314">
  <ele>160.145752</ele>
  <time>2011-07-29T05:10:30Z</time>
  <speed>8.610000</speed>
</trkpt>
<trkpt lat="32.578155518" lon="35.006530762">
  <ele>159.192627</ele>
  <time>2011-07-29T05:10:31Z</time>
  <speed>8.480000</speed>
</trkpt>
<trkpt lat="32.578121185" lon="35.006446838">
  <ele>158.880127</ele>
  <time>2011-07-29T05:10:32Z</time>
  <speed>8.250000</speed>
</trkpt>
<trkpt lat="32.578071594" lon="35.006366730">
  <ele>158.356689</ele>
  <time>2011-07-29T05:10:33Z</time>
  <speed>8.360000</speed>
</trkpt>
<trkpt lat="32.578014374" lon="35.006282806">
  <ele>158.223877</ele>
  <time>2011-07-29T05:10:34Z</time>
  <speed>8.510000</speed>
</trkpt>
<trkpt lat="32.577987671" lon="35.006202698">
  <ele>157.489502</ele>
  <time>2011-07-29T05:10:35Z</time>
  <speed>7.930000</speed>
</trkpt>
<trkpt lat="32.577953339" lon="35.006130219">
  <ele>156.719971</ele>
  <time>2011-07-29T05:10:36Z</time>
  <speed>7.740000</speed>
</trkpt>
<trkpt lat="32.577915192" lon="35.006053925">
  <ele>155.696533</ele>
  <time>2011-07-29T05:10:37Z</time>
  <speed>7.900000</speed>
</trkpt>
<trkpt lat="32.577884674" lon="35.005985260">
  <ele>155.434814</ele>
  <time>2011-07-29T05:10:38Z</time>
  <speed>7.960000</speed>
</trkpt>
<trkpt lat="32.577850342" lon="35.005905151">
  <ele>154.575439</ele>
  <time>2011-07-29T05:10:39Z</time>
  <speed>8.460000</speed>
</trkpt>
<trkpt lat="32.577816010" lon="35.005817413">
  <ele>153.973877</ele>
  <time>2011-07-29T05:10:40Z</time>
  <speed>9.170000</speed>
</trkpt>
<trkpt lat="32.577789307" lon="35.005729675">
  <ele>153.091064</ele>
  <time>2011-07-29T05:10:41Z</time>
  <speed>9.319999</speed>
</trkpt>
<trkpt lat="32.577762604" lon="35.005634308">
  <ele>152.137939</ele>
  <time>2011-07-29T05:10:42Z</time>
  <speed>9.319999</speed>
</trkpt>
<trkpt lat="32.577739716" lon="35.005542755">
  <ele>151.930908</ele>
  <time>2011-07-29T05:10:43Z</time>
  <speed>8.290000</speed>
</trkpt>
<trkpt lat="32.577713013" lon="35.005462646">
  <ele>151.161377</ele>
  <time>2011-07-29T05:10:44Z</time>
  <speed>7.830000</speed>
</trkpt>
<trkpt lat="32.577686310" lon="35.005378723">
  <ele>150.634033</ele>
  <time>2011-07-29T05:10:45Z</time>
  <speed>7.960000</speed>
</trkpt>
<trkpt lat="32.577659607" lon="35.005298615">
  <ele>149.766846</ele>
  <time>2011-07-29T05:10:46Z</time>
  <speed>8.310000</speed>
</trkpt>
<trkpt lat="32.577621460" lon="35.005207062">
  <ele>149.450439</ele>
  <time>2011-07-29T05:10:47Z</time>
  <speed>8.570000</speed>
</trkpt>
<trkpt lat="32.577583313" lon="35.005123138">
  <ele>148.919189</ele>
  <time>2011-07-29T05:10:48Z</time>
  <speed>8.450000</speed>
</trkpt>
<trkpt lat="32.577537537" lon="35.005050659">
  <ele>149.665283</ele>
  <time>2011-07-29T05:10:49Z</time>
  <speed>7.580000</speed>
</trkpt>
<trkpt lat="32.577529907" lon="35.004985809">
  <ele>149.063721</ele>
  <time>2011-07-29T05:10:50Z</time>
  <speed>5.200000</speed>
</trkpt>
<trkpt lat="32.577541351" lon="35.004932404">
  <ele>148.477783</ele>
  <time>2011-07-29T05:10:51Z</time>
  <speed>5.360000</speed>
</trkpt>
<trkpt lat="32.577552795" lon="35.004875183">
  <ele>147.833252</ele>
  <time>2011-07-29T05:10:52Z</time>
  <speed>6.500000</speed>
</trkpt>
<trkpt lat="32.577552795" lon="35.004806519">
  <ele>147.348877</ele>
  <time>2011-07-29T05:10:53Z</time>
  <speed>6.740000</speed>
</trkpt>
<trkpt lat="32.577560425" lon="35.004730225">
  <ele>147.052002</ele>
  <time>2011-07-29T05:10:54Z</time>
  <speed>7.520000</speed>
</trkpt>
<trkpt lat="32.577564240" lon="35.004646301">
  <ele>146.977783</ele>
  <time>2011-07-29T05:10:55Z</time>
  <speed>7.570000</speed>
</trkpt>
<trkpt lat="32.577552795" lon="35.004562378">
  <ele>147.594971</ele>
  <time>2011-07-29T05:10:56Z</time>
  <speed>7.500000</speed>
</trkpt>
<trkpt lat="32.577541351" lon="35.004482269">
  <ele>146.942627</ele>
  <time>2011-07-29T05:10:57Z</time>
  <speed>7.750000</speed>
</trkpt>
<trkpt lat="32.577522278" lon="35.004405975">
  <ele>145.860596</ele>
  <time>2011-07-29T05:10:58Z</time>
  <speed>8.040000</speed>
</trkpt>
<trkpt lat="32.577499390" lon="35.004322052">
  <ele>145.407471</ele>
  <time>2011-07-29T05:10:59Z</time>
  <speed>7.660000</speed>
</trkpt>
<trkpt lat="32.577491760" lon="35.004249573">
  <ele>144.751221</ele>
  <time>2011-07-29T05:11:00Z</time>
  <speed>6.310000</speed>
</trkpt>
<trkpt lat="32.577491760" lon="35.004180908">
  <ele>144.786377</ele>
  <time>2011-07-29T05:11:01Z</time>
  <speed>6.910000</speed>
</trkpt>
<trkpt lat="32.577491760" lon="35.004119873">
  <ele>144.016846</ele>
  <time>2011-07-29T05:11:02Z</time>
  <speed>6.430000</speed>
</trkpt>
<trkpt lat="32.577491760" lon="35.004051208">
  <ele>142.930908</ele>
  <time>2011-07-29T05:11:03Z</time>
  <speed>6.850000</speed>
</trkpt>
<trkpt lat="32.577499390" lon="35.003974915">
  <ele>141.536377</ele>
  <time>2011-07-29T05:11:04Z</time>
  <speed>6.690000</speed>
</trkpt>
<trkpt lat="32.577507019" lon="35.003913879">
  <ele>140.204346</ele>
  <time>2011-07-29T05:11:05Z</time>
  <speed>6.110000</speed>
</trkpt>
<trkpt lat="32.577495575" lon="35.003849030">
  <ele>138.786377</ele>
  <time>2011-07-29T05:11:06Z</time>
  <speed>5.840000</speed>
</trkpt>
<trkpt lat="32.577468872" lon="35.003772736">
  <ele>138.274658</ele>
  <time>2011-07-29T05:11:07Z</time>
  <speed>6.440000</speed>
</trkpt>
<trkpt lat="32.577434540" lon="35.003719330">
  <ele>137.911377</ele>
  <time>2011-07-29T05:11:08Z</time>
  <speed>5.420000</speed>
</trkpt>
<trkpt lat="32.577400208" lon="35.003669739">
  <ele>137.399658</ele>
  <time>2011-07-29T05:11:09Z</time>
  <speed>5.500000</speed>
</trkpt>
<trkpt lat="32.577358246" lon="35.003623962">
  <ele>136.704346</ele>
  <time>2011-07-29T05:11:10Z</time>
  <speed>6.020000</speed>
</trkpt>
<trkpt lat="32.577312469" lon="35.003578186">
  <ele>135.993408</ele>
  <time>2011-07-29T05:11:11Z</time>
  <speed>6.400000</speed>
</trkpt>
<trkpt lat="32.577281952" lon="35.003524780">
  <ele>134.454346</ele>
  <time>2011-07-29T05:11:12Z</time>
  <speed>6.160000</speed>
</trkpt>
<trkpt lat="32.577278137" lon="35.003471375">
  <ele>133.778564</ele>
  <time>2011-07-29T05:11:13Z</time>
  <speed>4.610000</speed>
</trkpt>
<trkpt lat="32.577297211" lon="35.003429413">
  <ele>132.946533</ele>
  <time>2011-07-29T05:11:14Z</time>
  <speed>5.330000</speed>
</trkpt>
<trkpt lat="32.577320099" lon="35.003387451">
  <ele>132.052002</ele>
  <time>2011-07-29T05:11:15Z</time>
  <speed>4.660000</speed>
</trkpt>
<trkpt lat="32.577327728" lon="35.003334045">
  <ele>131.118408</ele>
  <time>2011-07-29T05:11:16Z</time>
  <speed>5.290000</speed>
</trkpt>
<trkpt lat="32.577320099" lon="35.003276825">
  <ele>130.548096</ele>
  <time>2011-07-29T05:11:17Z</time>
  <speed>5.970000</speed>
</trkpt>
<trkpt lat="32.577304840" lon="35.003208160">
  <ele>129.876221</ele>
  <time>2011-07-29T05:11:18Z</time>
  <speed>6.050000</speed>
</trkpt>
<trkpt lat="32.577289581" lon="35.003139496">
  <ele>130.048096</ele>
  <time>2011-07-29T05:11:19Z</time>
  <speed>6.480000</speed>
</trkpt>
<trkpt lat="32.577278137" lon="35.003070831">
  <ele>129.587158</ele>
  <time>2011-07-29T05:11:20Z</time>
  <speed>6.500000</speed>
</trkpt>
<trkpt lat="32.577278137" lon="35.003005981">
  <ele>129.016846</ele>
  <time>2011-07-29T05:11:21Z</time>
  <speed>6.120000</speed>
</trkpt>
<trkpt lat="32.577266693" lon="35.002933502">
  <ele>129.145752</ele>
  <time>2011-07-29T05:11:22Z</time>
  <speed>6.150000</speed>
</trkpt>
<trkpt lat="32.577255249" lon="35.002864838">
  <ele>129.200439</ele>
  <time>2011-07-29T05:11:23Z</time>
  <speed>5.820000</speed>
</trkpt>
<trkpt lat="32.577224731" lon="35.002807617">
  <ele>129.016846</ele>
  <time>2011-07-29T05:11:24Z</time>
  <speed>6.200000</speed>
</trkpt>
<trkpt lat="32.577198029" lon="35.002754211">
  <ele>128.442627</ele>
  <time>2011-07-29T05:11:25Z</time>
  <speed>5.600000</speed>
</trkpt>
<trkpt lat="32.577167511" lon="35.002700806">
  <ele>128.462158</ele>
  <time>2011-07-29T05:11:26Z</time>
  <speed>5.200000</speed>
</trkpt>
<trkpt lat="32.577136993" lon="35.002655029">
  <ele>129.208252</ele>
  <time>2011-07-29T05:11:27Z</time>
  <speed>3.090000</speed>
</trkpt>
<trkpt lat="32.577106476" lon="35.002620697">
  <ele>128.782471</ele>
  <time>2011-07-29T05:11:29Z</time>
  <speed>1.530000</speed>
</trkpt>
<trkpt lat="32.577148438" lon="35.002658844">
  <ele>129.305908</ele>
  <time>2011-07-29T05:14:23Z</time>
  <speed>2.520000</speed>
</trkpt>
<trkpt lat="32.577171326" lon="35.002677917">
  <ele>129.704346</ele>
  <time>2011-07-29T05:14:24Z</time>
  <speed>2.010000</speed>
</trkpt>
<trkpt lat="32.577209473" lon="35.002704620">
  <ele>129.919189</ele>
  <time>2011-07-29T05:14:26Z</time>
  <speed>1.560000</speed>
</trkpt>
<trkpt lat="32.577239990" lon="35.002738953">
  <ele>129.524658</ele>
  <time>2011-07-29T05:14:28Z</time>
  <speed>1.680000</speed>
</trkpt>
<trkpt lat="32.577266693" lon="35.002777100">
  <ele>130.247314</ele>
  <time>2011-07-29T05:14:30Z</time>
  <speed>1.830000</speed>
</trkpt>
<trkpt lat="32.577293396" lon="35.002796173">
  <ele>130.946533</ele>
  <time>2011-07-29T05:14:32Z</time>
  <speed>1.710000</speed>
</trkpt>
<trkpt lat="32.577327728" lon="35.002799988">
  <ele>132.188721</ele>
  <time>2011-07-29T05:14:34Z</time>
  <speed>1.840000</speed>
</trkpt>
<trkpt lat="32.577369690" lon="35.002796173">
  <ele>132.677002</ele>
  <time>2011-07-29T05:14:36Z</time>
  <speed>1.520000</speed>
</trkpt>
<trkpt lat="32.577411652" lon="35.002784729">
  <ele>133.583252</ele>
  <time>2011-07-29T05:14:38Z</time>
  <speed>1.770000</speed>
</trkpt>
<trkpt lat="32.577442169" lon="35.002780914">
  <ele>133.427002</ele>
  <time>2011-07-29T05:14:40Z</time>
  <speed>1.490000</speed>
</trkpt>
<trkpt lat="32.577468872" lon="35.002780914">
  <ele>133.899658</ele>
  <time>2011-07-29T05:14:42Z</time>
  <speed>1.510000</speed>
</trkpt>
<trkpt lat="32.577495575" lon="35.002811432">
  <ele>133.891846</ele>
  <time>2011-07-29T05:14:44Z</time>
  <speed>1.640000</speed>
</trkpt>
<trkpt lat="32.577529907" lon="35.002826691">
  <ele>134.141846</ele>
  <time>2011-07-29T05:14:46Z</time>
  <speed>2.090000</speed>
</trkpt>
<trkpt lat="32.577575684" lon="35.002857208">
  <ele>134.751221</ele>
  <time>2011-07-29T05:14:48Z</time>
  <speed>2.320000</speed>
</trkpt>
<trkpt lat="32.577602386" lon="35.002876282">
  <ele>134.778564</ele>
  <time>2011-07-29T05:14:50Z</time>
  <speed>1.650000</speed>
</trkpt>
<trkpt lat="32.577632904" lon="35.002857208">
  <ele>134.778564</ele>
  <time>2011-07-29T05:14:52Z</time>
  <speed>1.800000</speed>
</trkpt>
<trkpt lat="32.577663422" lon="35.002830505">
  <ele>135.411377</ele>
  <time>2011-07-29T05:14:54Z</time>
  <speed>1.670000</speed>
</trkpt>
<trkpt lat="32.577693939" lon="35.002819061">
  <ele>135.887939</ele>
  <time>2011-07-29T05:14:56Z</time>
  <speed>1.730000</speed>
</trkpt>
<trkpt lat="32.577720642" lon="35.002811432">
  <ele>136.102783</ele>
  <time>2011-07-29T05:14:58Z</time>
  <speed>1.440000</speed>
</trkpt>
<trkpt lat="32.577762604" lon="35.002815247">
  <ele>136.844971</ele>
  <time>2011-07-29T05:15:01Z</time>
  <speed>1.570000</speed>
</trkpt>
<trkpt lat="32.577781677" lon="35.002841949">
  <ele>136.313721</ele>
  <time>2011-07-29T05:15:03Z</time>
  <speed>1.340000</speed>
</trkpt>
<trkpt lat="32.577800751" lon="35.002872467">
  <ele>136.282471</ele>
  <time>2011-07-29T05:15:05Z</time>
  <speed>1.560000</speed>
</trkpt>
<trkpt lat="32.577819824" lon="35.002895355">
  <ele>136.700439</ele>
  <time>2011-07-29T05:15:07Z</time>
  <speed>1.400000</speed>
</trkpt>
<trkpt lat="32.577842712" lon="35.002929688">
  <ele>137.380127</ele>
  <time>2011-07-29T05:15:10Z</time>
  <speed>1.680000</speed>
</trkpt>
<trkpt lat="32.577869415" lon="35.002960205">
  <ele>138.399658</ele>
  <time>2011-07-29T05:15:12Z</time>
  <speed>1.630000</speed>
</trkpt>
<trkpt lat="32.577892303" lon="35.002983093">
  <ele>139.262939</ele>
  <time>2011-07-29T05:15:14Z</time>
  <speed>1.640000</speed>
</trkpt>
<trkpt lat="32.577911377" lon="35.003017426">
  <ele>139.317627</ele>
  <time>2011-07-29T05:15:16Z</time>
  <speed>1.670000</speed>
</trkpt>
<trkpt lat="32.577938080" lon="35.003036499">
  <ele>138.798096</ele>
  <time>2011-07-29T05:15:19Z</time>
  <speed>1.590000</speed>
</trkpt>
<trkpt lat="32.577968597" lon="35.003063202">
  <ele>139.180908</ele>
  <time>2011-07-29T05:15:22Z</time>
  <speed>1.150000</speed>
</trkpt>
<trkpt lat="32.577991486" lon="35.003086090">
  <ele>139.419189</ele>
  <time>2011-07-29T05:15:24Z</time>
  <speed>1.210000</speed>
</trkpt>
<trkpt lat="32.578002930" lon="35.003128052">
  <ele>139.344971</ele>
  <time>2011-07-29T05:15:27Z</time>
  <speed>1.450000</speed>
</trkpt>
<trkpt lat="32.578006744" lon="35.003162384">
  <ele>140.591064</ele>
  <time>2011-07-29T05:15:29Z</time>
  <speed>1.410000</speed>
</trkpt>
<trkpt lat="32.578033447" lon="35.003200531">
  <ele>141.126221</ele>
  <time>2011-07-29T05:15:31Z</time>
  <speed>1.830000</speed>
</trkpt>
<trkpt lat="32.578056335" lon="35.003231049">
  <ele>141.634033</ele>
  <time>2011-07-29T05:15:33Z</time>
  <speed>1.480000</speed>
</trkpt>
<trkpt lat="32.578083038" lon="35.003269196">
  <ele>141.973877</ele>
  <time>2011-07-29T05:15:36Z</time>
  <speed>1.410000</speed>
</trkpt>
<trkpt lat="32.578102112" lon="35.003292084">
  <ele>141.856689</ele>
  <time>2011-07-29T05:15:38Z</time>
  <speed>1.540000</speed>
</trkpt>
<trkpt lat="32.578125000" lon="35.003311157">
  <ele>143.927002</ele>
  <time>2011-07-29T05:15:41Z</time>
  <speed>1.600000</speed>
</trkpt>
<trkpt lat="32.578151703" lon="35.003303528">
  <ele>144.903564</ele>
  <time>2011-07-29T05:15:43Z</time>
  <speed>1.420000</speed>
</trkpt>
<trkpt lat="32.578182220" lon="35.003284454">
  <ele>145.915283</ele>
  <time>2011-07-29T05:15:46Z</time>
  <speed>1.500000</speed>
</trkpt>
<trkpt lat="32.578224182" lon="35.003273010">
  <ele>146.067627</ele>
  <time>2011-07-29T05:15:48Z</time>
  <speed>1.590000</speed>
</trkpt>
<trkpt lat="32.578250885" lon="35.003257751">
  <ele>147.130127</ele>
  <time>2011-07-29T05:15:51Z</time>
  <speed>1.060000</speed>
</trkpt>
<trkpt lat="32.578277588" lon="35.003242493">
  <ele>146.759033</ele>
  <time>2011-07-29T05:15:53Z</time>
  <speed>1.470000</speed>
</trkpt>
<trkpt lat="32.578308105" lon="35.003250122">
  <ele>147.286377</ele>
  <time>2011-07-29T05:15:55Z</time>
  <speed>1.340000</speed>
</trkpt>
<trkpt lat="32.578342438" lon="35.003253937">
  <ele>147.930908</ele>
  <time>2011-07-29T05:15:58Z</time>
  <speed>1.370000</speed>
</trkpt>
<trkpt lat="32.578372955" lon="35.003242493">
  <ele>148.864502</ele>
  <time>2011-07-29T05:16:00Z</time>
  <speed>1.240000</speed>
</trkpt>
<trkpt lat="32.578399658" lon="35.003250122">
  <ele>148.856689</ele>
  <time>2011-07-29T05:16:02Z</time>
  <speed>1.040000</speed>
</trkpt>
<trkpt lat="32.578426361" lon="35.003284454">
  <ele>147.184814</ele>
  <time>2011-07-29T05:16:05Z</time>
  <speed>1.410000</speed>
</trkpt>
<trkpt lat="32.578449249" lon="35.003322601">
  <ele>146.098877</ele>
  <time>2011-07-29T05:16:08Z</time>
  <speed>1.090000</speed>
</trkpt>
<trkpt lat="32.578472137" lon="35.003349304">
  <ele>144.915283</ele>
  <time>2011-07-29T05:16:10Z</time>
  <speed>1.160000</speed>
</trkpt>
<trkpt lat="32.578502655" lon="35.003383636">
  <ele>144.907471</ele>
  <time>2011-07-29T05:16:12Z</time>
  <speed>1.470000</speed>
</trkpt>
<trkpt lat="32.578540802" lon="35.003406525">
  <ele>145.442627</ele>
  <time>2011-07-29T05:16:15Z</time>
  <speed>1.280000</speed>
</trkpt>
<trkpt lat="32.578567505" lon="35.003433228">
  <ele>145.973877</ele>
  <time>2011-07-29T05:16:17Z</time>
  <speed>1.760000</speed>
</trkpt>
<trkpt lat="32.578582764" lon="35.003467560">
  <ele>146.212158</ele>
  <time>2011-07-29T05:16:19Z</time>
  <speed>1.370000</speed>
</trkpt>
<trkpt lat="32.578598022" lon="35.003501892">
  <ele>147.020752</ele>
  <time>2011-07-29T05:16:21Z</time>
  <speed>1.420000</speed>
</trkpt>
<trkpt lat="32.578609467" lon="35.003532410">
  <ele>147.782471</ele>
  <time>2011-07-29T05:16:23Z</time>
  <speed>1.190000</speed>
</trkpt>
<trkpt lat="32.578628540" lon="35.003574371">
  <ele>148.485596</ele>
  <time>2011-07-29T05:16:26Z</time>
  <speed>1.740000</speed>
</trkpt>
<trkpt lat="32.578643799" lon="35.003616333">
  <ele>149.411377</ele>
  <time>2011-07-29T05:16:29Z</time>
  <speed>1.660000</speed>
</trkpt>
<trkpt lat="32.578651428" lon="35.003658295">
  <ele>150.302002</ele>
  <time>2011-07-29T05:16:32Z</time>
  <speed>1.270000</speed>
</trkpt>
<trkpt lat="32.578628540" lon="35.003681183">
  <ele>150.841064</ele>
  <time>2011-07-29T05:16:34Z</time>
  <speed>1.460000</speed>
</trkpt>
<trkpt lat="32.578617096" lon="35.003707886">
  <ele>152.489502</ele>
  <time>2011-07-29T05:16:36Z</time>
  <speed>1.390000</speed>
</trkpt>
<trkpt lat="32.578598022" lon="35.003734589">
  <ele>153.727783</ele>
  <time>2011-07-29T05:16:38Z</time>
  <speed>1.500000</speed>
</trkpt>
<trkpt lat="32.578582764" lon="35.003768921">
  <ele>155.161377</ele>
  <time>2011-07-29T05:16:41Z</time>
  <speed>1.550000</speed>
</trkpt>
<trkpt lat="32.578567505" lon="35.003799438">
  <ele>156.216064</ele>
  <time>2011-07-29T05:16:43Z</time>
  <speed>1.710000</speed>
</trkpt>
<trkpt lat="32.578559875" lon="35.003849030">
  <ele>157.012939</ele>
  <time>2011-07-29T05:16:46Z</time>
  <speed>1.410000</speed>
</trkpt>
<trkpt lat="32.578559875" lon="35.003894806">
  <ele>157.696533</ele>
  <time>2011-07-29T05:16:49Z</time>
  <speed>1.330000</speed>
</trkpt>
<trkpt lat="32.578567505" lon="35.003929138">
  <ele>158.876221</ele>
  <time>2011-07-29T05:16:51Z</time>
  <speed>1.400000</speed>
</trkpt>
<trkpt lat="32.578586578" lon="35.003963470">
  <ele>157.813721</ele>
  <time>2011-07-29T05:16:53Z</time>
  <speed>1.300000</speed>
</trkpt>
<trkpt lat="32.578617096" lon="35.003982544">
  <ele>158.302002</ele>
  <time>2011-07-29T05:16:55Z</time>
  <speed>1.530000</speed>
</trkpt>
<trkpt lat="32.578651428" lon="35.003978729">
  <ele>159.071533</ele>
  <time>2011-07-29T05:16:57Z</time>
  <speed>1.390000</speed>
</trkpt>
<trkpt lat="32.578689575" lon="35.003967285">
  <ele>159.075439</ele>
  <time>2011-07-29T05:16:59Z</time>
  <speed>1.300000</speed>
</trkpt>
<trkpt lat="32.578723907" lon="35.003959656">
  <ele>159.637939</ele>
  <time>2011-07-29T05:17:02Z</time>
  <speed>1.470000</speed>
</trkpt>
<trkpt lat="32.578754425" lon="35.003952026">
  <ele>159.641846</ele>
  <time>2011-07-29T05:17:05Z</time>
  <speed>1.450000</speed>
</trkpt>
<trkpt lat="32.578784943" lon="35.003944397">
  <ele>159.411377</ele>
  <time>2011-07-29T05:17:07Z</time>
  <speed>1.330000</speed>
</trkpt>
<trkpt lat="32.578819275" lon="35.003936768">
  <ele>160.009033</ele>
  <time>2011-07-29T05:17:09Z</time>
  <speed>1.630000</speed>
</trkpt>
<trkpt lat="32.578849792" lon="35.003925323">
  <ele>160.719971</ele>
  <time>2011-07-29T05:17:11Z</time>
  <speed>1.390000</speed>
</trkpt>
<trkpt lat="32.578887939" lon="35.003940582">
  <ele>161.778564</ele>
  <time>2011-07-29T05:17:14Z</time>
  <speed>1.610000</speed>
</trkpt>
<trkpt lat="32.578926086" lon="35.003955841">
  <ele>162.145752</ele>
  <time>2011-07-29T05:17:16Z</time>
  <speed>1.410000</speed>
</trkpt>
<trkpt lat="32.578960419" lon="35.003974915">
  <ele>162.141846</ele>
  <time>2011-07-29T05:17:19Z</time>
  <speed>1.220000</speed>
</trkpt>
<trkpt lat="32.578990936" lon="35.003990173">
  <ele>161.934814</ele>
  <time>2011-07-29T05:17:21Z</time>
  <speed>1.680000</speed>
</trkpt>
<trkpt lat="32.579029083" lon="35.003982544">
  <ele>161.552002</ele>
  <time>2011-07-29T05:17:24Z</time>
  <speed>1.500000</speed>
</trkpt>
<trkpt lat="32.579063416" lon="35.003986359">
  <ele>160.548096</ele>
  <time>2011-07-29T05:17:27Z</time>
  <speed>1.680000</speed>
</trkpt>
<trkpt lat="32.579101563" lon="35.003974915">
  <ele>160.805908</ele>
  <time>2011-07-29T05:17:30Z</time>
  <speed>1.440000</speed>
</trkpt>
<trkpt lat="32.579132080" lon="35.003978729">
  <ele>159.860596</ele>
  <time>2011-07-29T05:17:32Z</time>
  <speed>1.620000</speed>
</trkpt>
<trkpt lat="32.579162598" lon="35.004001617">
  <ele>159.700439</ele>
  <time>2011-07-29T05:17:34Z</time>
  <speed>1.730000</speed>
</trkpt>
<trkpt lat="32.579177856" lon="35.004035950">
  <ele>159.278564</ele>
  <time>2011-07-29T05:17:36Z</time>
  <speed>1.490000</speed>
</trkpt>
<trkpt lat="32.579177856" lon="35.004066467">
  <ele>159.192627</ele>
  <time>2011-07-29T05:17:38Z</time>
  <speed>1.510000</speed>
</trkpt>
<trkpt lat="32.579189301" lon="35.004100800">
  <ele>160.423096</ele>
  <time>2011-07-29T05:17:40Z</time>
  <speed>1.190000</speed>
</trkpt>
<trkpt lat="32.579204559" lon="35.004127502">
  <ele>160.520752</ele>
  <time>2011-07-29T05:17:42Z</time>
  <speed>1.350000</speed>
</trkpt>
<trkpt lat="32.579219818" lon="35.004154205">
  <ele>160.747314</ele>
  <time>2011-07-29T05:17:44Z</time>
  <speed>1.290000</speed>
</trkpt>
<trkpt lat="32.579219818" lon="35.004188538">
  <ele>161.423096</ele>
  <time>2011-07-29T05:17:46Z</time>
  <speed>1.520000</speed>
</trkpt>
<trkpt lat="32.579216003" lon="35.004219055">
  <ele>162.571533</ele>
  <time>2011-07-29T05:17:48Z</time>
  <speed>1.440000</speed>
</trkpt>
<trkpt lat="32.579212189" lon="35.004261017">
  <ele>162.833252</ele>
  <time>2011-07-29T05:17:51Z</time>
  <speed>1.620000</speed>
</trkpt>
<trkpt lat="32.579219818" lon="35.004299164">
  <ele>163.786377</ele>
  <time>2011-07-29T05:17:54Z</time>
  <speed>1.380000</speed>
</trkpt>
<trkpt lat="32.579212189" lon="35.004341125">
  <ele>165.266846</ele>
  <time>2011-07-29T05:17:57Z</time>
  <speed>1.670000</speed>
</trkpt>
<trkpt lat="32.579212189" lon="35.004379272">
  <ele>166.841064</ele>
  <time>2011-07-29T05:17:59Z</time>
  <speed>1.350000</speed>
</trkpt>
<trkpt lat="32.579208374" lon="35.004413605">
  <ele>167.637939</ele>
  <time>2011-07-29T05:18:01Z</time>
  <speed>1.290000</speed>
</trkpt>
<trkpt lat="32.579200745" lon="35.004444122">
  <ele>167.583252</ele>
  <time>2011-07-29T05:18:03Z</time>
  <speed>1.370000</speed>
</trkpt>
<trkpt lat="32.579204559" lon="35.004478455">
  <ele>167.462158</ele>
  <time>2011-07-29T05:18:05Z</time>
  <speed>1.620000</speed>
</trkpt>
<trkpt lat="32.579204559" lon="35.004512787">
  <ele>167.602783</ele>
  <time>2011-07-29T05:18:07Z</time>
  <speed>1.360000</speed>
</trkpt>
<trkpt lat="32.579185486" lon="35.004543304">
  <ele>168.423096</ele>
  <time>2011-07-29T05:18:09Z</time>
  <speed>1.600000</speed>
</trkpt>
<trkpt lat="32.579177856" lon="35.004573822">
  <ele>169.575439</ele>
  <time>2011-07-29T05:18:11Z</time>
  <speed>1.270000</speed>
</trkpt>
<trkpt lat="32.579162598" lon="35.004611969">
  <ele>169.981689</ele>
  <time>2011-07-29T05:18:14Z</time>
  <speed>1.550000</speed>
</trkpt>
<trkpt lat="32.579147339" lon="35.004650116">
  <ele>170.184814</ele>
  <time>2011-07-29T05:18:17Z</time>
  <speed>1.560000</speed>
</trkpt>
<trkpt lat="32.579135895" lon="35.004684448">
  <ele>171.188721</ele>
  <time>2011-07-29T05:18:19Z</time>
  <speed>1.570000</speed>
</trkpt>
<trkpt lat="32.579132080" lon="35.004734039">
  <ele>172.071533</ele>
  <time>2011-07-29T05:18:22Z</time>
  <speed>1.730000</speed>
</trkpt>
<trkpt lat="32.579128265" lon="35.004768372">
  <ele>172.579346</ele>
  <time>2011-07-29T05:18:24Z</time>
  <speed>1.470000</speed>
</trkpt>
<trkpt lat="32.579124451" lon="35.004810333">
  <ele>172.794189</ele>
  <time>2011-07-29T05:18:26Z</time>
  <speed>1.510000</speed>
</trkpt>
<trkpt lat="32.579120636" lon="35.004840851">
  <ele>173.223877</ele>
  <time>2011-07-29T05:18:28Z</time>
  <speed>1.670000</speed>
</trkpt>
<trkpt lat="32.579109192" lon="35.004886627">
  <ele>173.520752</ele>
  <time>2011-07-29T05:18:31Z</time>
  <speed>1.760000</speed>
</trkpt>
<trkpt lat="32.579101563" lon="35.004924774">
  <ele>173.700439</ele>
  <time>2011-07-29T05:18:33Z</time>
  <speed>1.770000</speed>
</trkpt>
<trkpt lat="32.579086304" lon="35.004955292">
  <ele>173.446533</ele>
  <time>2011-07-29T05:18:35Z</time>
  <speed>1.940000</speed>
</trkpt>
<trkpt lat="32.579067230" lon="35.004989624">
  <ele>173.216064</ele>
  <time>2011-07-29T05:18:37Z</time>
  <speed>1.850000</speed>
</trkpt>
<trkpt lat="32.579044342" lon="35.005016327">
  <ele>173.294189</ele>
  <time>2011-07-29T05:18:39Z</time>
  <speed>1.590000</speed>
</trkpt>
<trkpt lat="32.579010010" lon="35.005031586">
  <ele>173.122314</ele>
  <time>2011-07-29T05:18:42Z</time>
  <speed>1.680000</speed>
</trkpt>
<trkpt lat="32.578987122" lon="35.005050659">
  <ele>172.653564</ele>
  <time>2011-07-29T05:18:44Z</time>
  <speed>1.970000</speed>
</trkpt>
<trkpt lat="32.578964233" lon="35.005081177">
  <ele>172.637939</ele>
  <time>2011-07-29T05:18:46Z</time>
  <speed>1.810000</speed>
</trkpt>
<trkpt lat="32.578948975" lon="35.005130768">
  <ele>173.020752</ele>
  <time>2011-07-29T05:18:48Z</time>
  <speed>1.990000</speed>
</trkpt>
<trkpt lat="32.578956604" lon="35.005161285">
  <ele>172.634033</ele>
  <time>2011-07-29T05:18:50Z</time>
  <speed>1.700000</speed>
</trkpt>
<trkpt lat="32.578945160" lon="35.005199432">
  <ele>172.891846</ele>
  <time>2011-07-29T05:18:52Z</time>
  <speed>2.030000</speed>
</trkpt>
<trkpt lat="32.578929901" lon="35.005237579">
  <ele>173.368408</ele>
  <time>2011-07-29T05:18:54Z</time>
  <speed>1.920000</speed>
</trkpt>
<trkpt lat="32.578922272" lon="35.005275726">
  <ele>172.880127</ele>
  <time>2011-07-29T05:18:56Z</time>
  <speed>1.620000</speed>
</trkpt>
<trkpt lat="32.578914642" lon="35.005321503">
  <ele>172.376221</ele>
  <time>2011-07-29T05:18:58Z</time>
  <speed>2.270000</speed>
</trkpt>
<trkpt lat="32.578903198" lon="35.005371094">
  <ele>171.969971</ele>
  <time>2011-07-29T05:19:00Z</time>
  <speed>2.120000</speed>
</trkpt>
<trkpt lat="32.578895569" lon="35.005420685">
  <ele>172.032471</ele>
  <time>2011-07-29T05:19:02Z</time>
  <speed>2.190000</speed>
</trkpt>
<trkpt lat="32.578876495" lon="35.005470276">
  <ele>171.884033</ele>
  <time>2011-07-29T05:19:04Z</time>
  <speed>2.430000</speed>
</trkpt>
<trkpt lat="32.578872681" lon="35.005516052">
  <ele>170.622314</ele>
  <time>2011-07-29T05:19:06Z</time>
  <speed>1.820000</speed>
</trkpt>
<trkpt lat="32.578872681" lon="35.005561829">
  <ele>169.719971</ele>
  <time>2011-07-29T05:19:08Z</time>
  <speed>2.320000</speed>
</trkpt>
<trkpt lat="32.578868866" lon="35.005611420">
  <ele>170.501221</ele>
  <time>2011-07-29T05:19:10Z</time>
  <speed>1.890000</speed>
</trkpt>
<trkpt lat="32.578865051" lon="35.005649567">
  <ele>170.977783</ele>
  <time>2011-07-29T05:19:12Z</time>
  <speed>1.800000</speed>
</trkpt>
<trkpt lat="32.578857422" lon="35.005691528">
  <ele>170.509033</ele>
  <time>2011-07-29T05:19:14Z</time>
  <speed>1.830000</speed>
</trkpt>
<trkpt lat="32.578853607" lon="35.005737305">
  <ele>170.251221</ele>
  <time>2011-07-29T05:19:16Z</time>
  <speed>2.280000</speed>
</trkpt>
<trkpt lat="32.578845978" lon="35.005786896">
  <ele>170.005127</ele>
  <time>2011-07-29T05:19:18Z</time>
  <speed>2.160000</speed>
</trkpt>
<trkpt lat="32.578853607" lon="35.005825043">
  <ele>169.180908</ele>
  <time>2011-07-29T05:19:20Z</time>
  <speed>2.430000</speed>
</trkpt>
<trkpt lat="32.578876495" lon="35.005886078">
  <ele>170.344971</ele>
  <time>2011-07-29T05:19:22Z</time>
  <speed>2.580000</speed>
</trkpt>
<trkpt lat="32.578910828" lon="35.005943298">
  <ele>171.669189</ele>
  <time>2011-07-29T05:19:24Z</time>
  <speed>3.050000</speed>
</trkpt>
<trkpt lat="32.578929901" lon="35.005981445">
  <ele>172.524658</ele>
  <time>2011-07-29T05:19:25Z</time>
  <speed>2.900000</speed>
</trkpt>
<trkpt lat="32.578941345" lon="35.006011963">
  <ele>173.079346</ele>
  <time>2011-07-29T05:19:26Z</time>
  <speed>2.930000</speed>
</trkpt>
<trkpt lat="32.578948975" lon="35.006042480">
  <ele>172.403564</ele>
  <time>2011-07-29T05:19:27Z</time>
  <speed>2.960000</speed>
</trkpt>
<trkpt lat="32.578964233" lon="35.006099701">
  <ele>172.313721</ele>
  <time>2011-07-29T05:19:29Z</time>
  <speed>3.250000</speed>
</trkpt>
<trkpt lat="32.578975677" lon="35.006160736">
  <ele>171.923096</ele>
  <time>2011-07-29T05:19:31Z</time>
  <speed>2.540000</speed>
</trkpt>
<trkpt lat="32.578987122" lon="35.006210327">
  <ele>171.782471</ele>
  <time>2011-07-29T05:19:33Z</time>
  <speed>2.340000</speed>
</trkpt>
<trkpt lat="32.579006195" lon="35.006263733">
  <ele>171.223877</ele>
  <time>2011-07-29T05:19:35Z</time>
  <speed>2.480000</speed>
</trkpt>
<trkpt lat="32.579040527" lon="35.006317139">
  <ele>170.876221</ele>
  <time>2011-07-29T05:19:37Z</time>
  <speed>2.700000</speed>
</trkpt>
<trkpt lat="32.579059601" lon="35.006340027">
  <ele>170.321533</ele>
  <time>2011-07-29T05:19:38Z</time>
  <speed>2.530000</speed>
</trkpt>
<trkpt lat="32.579090118" lon="35.006378174">
  <ele>168.950439</ele>
  <time>2011-07-29T05:19:40Z</time>
  <speed>2.320000</speed>
</trkpt>
<trkpt lat="32.579128265" lon="35.006416321">
  <ele>168.223877</ele>
  <time>2011-07-29T05:19:42Z</time>
  <speed>2.490000</speed>
</trkpt>
<trkpt lat="32.579162598" lon="35.006450653">
  <ele>168.009033</ele>
  <time>2011-07-29T05:19:44Z</time>
  <speed>2.180000</speed>
</trkpt>
<trkpt lat="32.579193115" lon="35.006492615">
  <ele>167.110596</ele>
  <time>2011-07-29T05:19:46Z</time>
  <speed>2.360000</speed>
</trkpt>
<trkpt lat="32.579216003" lon="35.006538391">
  <ele>167.079346</ele>
  <time>2011-07-29T05:19:48Z</time>
  <speed>2.760000</speed>
</trkpt>
<trkpt lat="32.579231262" lon="35.006591797">
  <ele>166.450439</ele>
  <time>2011-07-29T05:19:50Z</time>
  <speed>2.160000</speed>
</trkpt>
<trkpt lat="32.579238892" lon="35.006645203">
  <ele>166.083252</ele>
  <time>2011-07-29T05:19:52Z</time>
  <speed>2.270000</speed>
</trkpt>
<trkpt lat="32.579261780" lon="35.006683350">
  <ele>166.579346</ele>
  <time>2011-07-29T05:19:54Z</time>
  <speed>2.250000</speed>
</trkpt>
<trkpt lat="32.579292297" lon="35.006732941">
  <ele>165.083252</ele>
  <time>2011-07-29T05:19:56Z</time>
  <speed>2.410000</speed>
</trkpt>
<trkpt lat="32.579307556" lon="35.006782532">
  <ele>165.696533</ele>
  <time>2011-07-29T05:19:58Z</time>
  <speed>2.130000</speed>
</trkpt>
<trkpt lat="32.579303741" lon="35.006828308">
  <ele>165.891846</ele>
  <time>2011-07-29T05:20:00Z</time>
  <speed>2.620000</speed>
</trkpt>
<trkpt lat="32.579303741" lon="35.006874084">
  <ele>167.145752</ele>
  <time>2011-07-29T05:20:02Z</time>
  <speed>1.780000</speed>
</trkpt>
<trkpt lat="32.579319000" lon="35.006916046">
  <ele>167.341064</ele>
  <time>2011-07-29T05:20:04Z</time>
  <speed>1.820000</speed>
</trkpt>
<trkpt lat="32.579326630" lon="35.006958008">
  <ele>167.239502</ele>
  <time>2011-07-29T05:20:06Z</time>
  <speed>2.100000</speed>
</trkpt>
<trkpt lat="32.579322815" lon="35.007003784">
  <ele>167.344971</ele>
  <time>2011-07-29T05:20:09Z</time>
  <speed>1.830000</speed>
</trkpt>
<trkpt lat="32.579296112" lon="35.007026672">
  <ele>167.591064</ele>
  <time>2011-07-29T05:20:11Z</time>
  <speed>1.790000</speed>
</trkpt>
<trkpt lat="32.579269409" lon="35.007041931">
  <ele>167.071533</ele>
  <time>2011-07-29T05:20:13Z</time>
  <speed>1.560000</speed>
</trkpt>
<trkpt lat="32.579246521" lon="35.007064819">
  <ele>166.153564</ele>
  <time>2011-07-29T05:20:16Z</time>
  <speed>1.590000</speed>
</trkpt>
<trkpt lat="32.579227448" lon="35.007095337">
  <ele>165.555908</ele>
  <time>2011-07-29T05:20:18Z</time>
  <speed>1.890000</speed>
</trkpt>
<trkpt lat="32.579208374" lon="35.007129669">
  <ele>165.259033</ele>
  <time>2011-07-29T05:20:20Z</time>
  <speed>1.920000</speed>
</trkpt>
<trkpt lat="32.579181671" lon="35.007179260">
  <ele>165.005127</ele>
  <time>2011-07-29T05:20:22Z</time>
  <speed>1.850000</speed>
</trkpt>
<trkpt lat="32.579170227" lon="35.007213593">
  <ele>165.684814</ele>
  <time>2011-07-29T05:20:23Z</time>
  <speed>2.310000</speed>
</trkpt>
<trkpt lat="32.579154968" lon="35.007266998">
  <ele>165.848877</ele>
  <time>2011-07-29T05:20:25Z</time>
  <speed>2.280000</speed>
</trkpt>
<trkpt lat="32.579132080" lon="35.007305145">
  <ele>166.200439</ele>
  <time>2011-07-29T05:20:27Z</time>
  <speed>1.780000</speed>
</trkpt>
<trkpt lat="32.579116821" lon="35.007343292">
  <ele>167.380127</ele>
  <time>2011-07-29T05:20:29Z</time>
  <speed>1.630000</speed>
</trkpt>
<trkpt lat="32.579101563" lon="35.007389069">
  <ele>167.848877</ele>
  <time>2011-07-29T05:20:31Z</time>
  <speed>2.230000</speed>
</trkpt>
<trkpt lat="32.579078674" lon="35.007438660">
  <ele>168.231689</ele>
  <time>2011-07-29T05:20:33Z</time>
  <speed>2.540000</speed>
</trkpt>
<trkpt lat="32.579067230" lon="35.007465363">
  <ele>168.794189</ele>
  <time>2011-07-29T05:20:34Z</time>
  <speed>2.070000</speed>
</trkpt>
<trkpt lat="32.579063416" lon="35.007511139">
  <ele>168.977783</ele>
  <time>2011-07-29T05:20:36Z</time>
  <speed>2.130000</speed>
</trkpt>
<trkpt lat="32.579078674" lon="35.007564545">
  <ele>170.372314</ele>
  <time>2011-07-29T05:20:38Z</time>
  <speed>2.060000</speed>
</trkpt>
<trkpt lat="32.579105377" lon="35.007614136">
  <ele>169.239502</ele>
  <time>2011-07-29T05:20:40Z</time>
  <speed>2.330000</speed>
</trkpt>
<trkpt lat="32.579124451" lon="35.007656097">
  <ele>169.251221</ele>
  <time>2011-07-29T05:20:42Z</time>
  <speed>2.260000</speed>
</trkpt>
<trkpt lat="32.579116821" lon="35.007705688">
  <ele>169.548096</ele>
  <time>2011-07-29T05:20:44Z</time>
  <speed>2.380000</speed>
</trkpt>
<trkpt lat="32.579116821" lon="35.007747650">
  <ele>169.630127</ele>
  <time>2011-07-29T05:20:46Z</time>
  <speed>1.960000</speed>
</trkpt>
<trkpt lat="32.579109192" lon="35.007789612">
  <ele>169.661377</ele>
  <time>2011-07-29T05:20:48Z</time>
  <speed>2.210000</speed>
</trkpt>
<trkpt lat="32.579109192" lon="35.007823944">
  <ele>170.227783</ele>
  <time>2011-07-29T05:20:49Z</time>
  <speed>2.790000</speed>
</trkpt>
<trkpt lat="32.579113007" lon="35.007877350">
  <ele>171.005127</ele>
  <time>2011-07-29T05:20:51Z</time>
  <speed>2.820000</speed>
</trkpt>
<trkpt lat="32.579120636" lon="35.007930756">
  <ele>170.930908</ele>
  <time>2011-07-29T05:20:53Z</time>
  <speed>2.270000</speed>
</trkpt>
<trkpt lat="32.579135895" lon="35.007995605">
  <ele>171.708252</ele>
  <time>2011-07-29T05:20:55Z</time>
  <speed>3.200000</speed>
</trkpt>
<trkpt lat="32.579135895" lon="35.008037567">
  <ele>172.149658</ele>
  <time>2011-07-29T05:20:56Z</time>
  <speed>3.440000</speed>
</trkpt>
<trkpt lat="32.579128265" lon="35.008075714">
  <ele>172.302002</ele>
  <time>2011-07-29T05:20:57Z</time>
  <speed>3.640000</speed>
</trkpt>
<trkpt lat="32.579116821" lon="35.008113861">
  <ele>172.231689</ele>
  <time>2011-07-29T05:20:58Z</time>
  <speed>3.510000</speed>
</trkpt>
<trkpt lat="32.579101563" lon="35.008140564">
  <ele>172.278564</ele>
  <time>2011-07-29T05:20:59Z</time>
  <speed>3.710000</speed>
</trkpt>
<trkpt lat="32.579086304" lon="35.008171082">
  <ele>172.458252</ele>
  <time>2011-07-29T05:21:00Z</time>
  <speed>3.290000</speed>
</trkpt>
<trkpt lat="32.579071045" lon="35.008209229">
  <ele>172.512939</ele>
  <time>2011-07-29T05:21:01Z</time>
  <speed>3.730000</speed>
</trkpt>
<trkpt lat="32.579063416" lon="35.008247375">
  <ele>172.579346</ele>
  <time>2011-07-29T05:21:02Z</time>
  <speed>3.770000</speed>
</trkpt>
<trkpt lat="32.579055786" lon="35.008293152">
  <ele>172.469971</ele>
  <time>2011-07-29T05:21:03Z</time>
  <speed>3.880000</speed>
</trkpt>
<trkpt lat="32.579048157" lon="35.008335114">
  <ele>172.497314</ele>
  <time>2011-07-29T05:21:04Z</time>
  <speed>3.950000</speed>
</trkpt>
<trkpt lat="32.579040527" lon="35.008380890">
  <ele>172.208252</ele>
  <time>2011-07-29T05:21:05Z</time>
  <speed>4.300000</speed>
</trkpt>
<trkpt lat="32.579029083" lon="35.008426666">
  <ele>171.239502</ele>
  <time>2011-07-29T05:21:06Z</time>
  <speed>4.500000</speed>
</trkpt>
<trkpt lat="32.579017639" lon="35.008468628">
  <ele>170.626221</ele>
  <time>2011-07-29T05:21:07Z</time>
  <speed>3.810000</speed>
</trkpt>
<trkpt lat="32.579010010" lon="35.008506775">
  <ele>170.145752</ele>
  <time>2011-07-29T05:21:08Z</time>
  <speed>3.790000</speed>
</trkpt>
<trkpt lat="32.579006195" lon="35.008548737">
  <ele>169.540283</ele>
  <time>2011-07-29T05:21:09Z</time>
  <speed>4.230000</speed>
</trkpt>
<trkpt lat="32.578987122" lon="35.008590698">
  <ele>169.165283</ele>
  <time>2011-07-29T05:21:10Z</time>
  <speed>4.270000</speed>
</trkpt>
<trkpt lat="32.578975677" lon="35.008636475">
  <ele>168.942627</ele>
  <time>2011-07-29T05:21:11Z</time>
  <speed>4.760000</speed>
</trkpt>
<trkpt lat="32.578956604" lon="35.008697510">
  <ele>167.540283</ele>
  <time>2011-07-29T05:21:12Z</time>
  <speed>5.420000</speed>
</trkpt>
<trkpt lat="32.578941345" lon="35.008758545">
  <ele>167.001221</ele>
  <time>2011-07-29T05:21:13Z</time>
  <speed>5.650000</speed>
</trkpt>
<trkpt lat="32.578933716" lon="35.008815765">
  <ele>166.473877</ele>
  <time>2011-07-29T05:21:14Z</time>
  <speed>5.750000</speed>
</trkpt>
<trkpt lat="32.578914642" lon="35.008872986">
  <ele>165.813721</ele>
  <time>2011-07-29T05:21:15Z</time>
  <speed>5.620000</speed>
</trkpt>
<trkpt lat="32.578891754" lon="35.008918762">
  <ele>165.110596</ele>
  <time>2011-07-29T05:21:16Z</time>
  <speed>4.450000</speed>
</trkpt>
<trkpt lat="32.578872681" lon="35.008968353">
  <ele>165.356689</ele>
  <time>2011-07-29T05:21:17Z</time>
  <speed>4.880000</speed>
</trkpt>
<trkpt lat="32.578857422" lon="35.009025574">
  <ele>165.063721</ele>
  <time>2011-07-29T05:21:18Z</time>
  <speed>5.620000</speed>
</trkpt>
<trkpt lat="32.578834534" lon="35.009078979">
  <ele>164.712158</ele>
  <time>2011-07-29T05:21:19Z</time>
  <speed>5.210000</speed>
</trkpt>
<trkpt lat="32.578815460" lon="35.009132385">
  <ele>164.583252</ele>
  <time>2011-07-29T05:21:20Z</time>
  <speed>5.430000</speed>
</trkpt>
<trkpt lat="32.578815460" lon="35.009197235">
  <ele>164.665283</ele>
  <time>2011-07-29T05:21:21Z</time>
  <speed>5.260000</speed>
</trkpt>
<trkpt lat="32.578796387" lon="35.009239197">
  <ele>164.630127</ele>
  <time>2011-07-29T05:21:22Z</time>
  <speed>3.830000</speed>
</trkpt>
<trkpt lat="32.578792572" lon="35.009273529">
  <ele>164.145752</ele>
  <time>2011-07-29T05:21:23Z</time>
  <speed>3.140000</speed>
</trkpt>
<trkpt lat="32.578804016" lon="35.009315491">
  <ele>163.497314</ele>
  <time>2011-07-29T05:21:24Z</time>
  <speed>4.320000</speed>
</trkpt>
<trkpt lat="32.578815460" lon="35.009372711">
  <ele>163.137939</ele>
  <time>2011-07-29T05:21:25Z</time>
  <speed>5.250000</speed>
</trkpt>
<trkpt lat="32.578830719" lon="35.009445190">
  <ele>163.387939</ele>
  <time>2011-07-29T05:21:26Z</time>
  <speed>5.860000</speed>
</trkpt>
<trkpt lat="32.578830719" lon="35.009506226">
  <ele>162.938721</ele>
  <time>2011-07-29T05:21:27Z</time>
  <speed>5.350000</speed>
</trkpt>
<trkpt lat="32.578838348" lon="35.009559631">
  <ele>162.993408</ele>
  <time>2011-07-29T05:21:28Z</time>
  <speed>4.800000</speed>
</trkpt>
<trkpt lat="32.578834534" lon="35.009613037">
  <ele>162.243408</ele>
  <time>2011-07-29T05:21:29Z</time>
  <speed>4.130000</speed>
</trkpt>
<trkpt lat="32.578823090" lon="35.009658813">
  <ele>163.091064</ele>
  <time>2011-07-29T05:21:30Z</time>
  <speed>4.070000</speed>
</trkpt>
<trkpt lat="32.578838348" lon="35.009704590">
  <ele>164.036377</ele>
  <time>2011-07-29T05:21:31Z</time>
  <speed>4.330000</speed>
</trkpt>
<trkpt lat="32.578861237" lon="35.009754181">
  <ele>164.052002</ele>
  <time>2011-07-29T05:21:32Z</time>
  <speed>4.440000</speed>
</trkpt>
<trkpt lat="32.578876495" lon="35.009796143">
  <ele>164.727783</ele>
  <time>2011-07-29T05:21:33Z</time>
  <speed>4.890000</speed>
</trkpt>
<trkpt lat="32.578899384" lon="35.009845734">
  <ele>164.661377</ele>
  <time>2011-07-29T05:21:34Z</time>
  <speed>5.000000</speed>
</trkpt>
<trkpt lat="32.578910828" lon="35.009895325">
  <ele>165.434814</ele>
  <time>2011-07-29T05:21:35Z</time>
  <speed>4.570000</speed>
</trkpt>
<trkpt lat="32.578922272" lon="35.009941101">
  <ele>164.977783</ele>
  <time>2011-07-29T05:21:36Z</time>
  <speed>4.520000</speed>
</trkpt>
<trkpt lat="32.578937531" lon="35.009986877">
  <ele>165.036377</ele>
  <time>2011-07-29T05:21:37Z</time>
  <speed>4.790000</speed>
</trkpt>
<trkpt lat="32.578952789" lon="35.010036469">
  <ele>165.524658</ele>
  <time>2011-07-29T05:21:38Z</time>
  <speed>4.760000</speed>
</trkpt>
<trkpt lat="32.578960419" lon="35.010089874">
  <ele>166.052002</ele>
  <time>2011-07-29T05:21:39Z</time>
  <speed>4.840000</speed>
</trkpt>
<trkpt lat="32.578975677" lon="35.010139465">
  <ele>165.430908</ele>
  <time>2011-07-29T05:21:40Z</time>
  <speed>5.040000</speed>
</trkpt>
<trkpt lat="32.578987122" lon="35.010185242">
  <ele>165.555908</ele>
  <time>2011-07-29T05:21:41Z</time>
  <speed>5.260000</speed>
</trkpt>
<trkpt lat="32.578994751" lon="35.010234833">
  <ele>164.825439</ele>
  <time>2011-07-29T05:21:42Z</time>
  <speed>4.900000</speed>
</trkpt>
<trkpt lat="32.578998566" lon="35.010288239">
  <ele>165.251221</ele>
  <time>2011-07-29T05:21:43Z</time>
  <speed>4.450000</speed>
</trkpt>
<trkpt lat="32.578990936" lon="35.010334015">
  <ele>165.063721</ele>
  <time>2011-07-29T05:21:44Z</time>
  <speed>4.410000</speed>
</trkpt>
<trkpt lat="32.578983307" lon="35.010379791">
  <ele>165.341064</ele>
  <time>2011-07-29T05:21:45Z</time>
  <speed>4.720000</speed>
</trkpt>
<trkpt lat="32.578968048" lon="35.010425568">
  <ele>165.462158</ele>
  <time>2011-07-29T05:21:46Z</time>
  <speed>4.600000</speed>
</trkpt>
<trkpt lat="32.578956604" lon="35.010475159">
  <ele>165.802002</ele>
  <time>2011-07-29T05:21:47Z</time>
  <speed>4.420000</speed>
</trkpt>
<trkpt lat="32.578948975" lon="35.010517120">
  <ele>165.958252</ele>
  <time>2011-07-29T05:21:48Z</time>
  <speed>4.360000</speed>
</trkpt>
<trkpt lat="32.578933716" lon="35.010555267">
  <ele>166.380127</ele>
  <time>2011-07-29T05:21:49Z</time>
  <speed>4.420000</speed>
</trkpt>
<trkpt lat="32.578922272" lon="35.010601044">
  <ele>166.673096</ele>
  <time>2011-07-29T05:21:50Z</time>
  <speed>4.300000</speed>
</trkpt>
<trkpt lat="32.578903198" lon="35.010635376">
  <ele>167.130127</ele>
  <time>2011-07-29T05:21:51Z</time>
  <speed>4.150000</speed>
</trkpt>
<trkpt lat="32.578884125" lon="35.010673523">
  <ele>167.368408</ele>
  <time>2011-07-29T05:21:52Z</time>
  <speed>3.830000</speed>
</trkpt>
<trkpt lat="32.578868866" lon="35.010711670">
  <ele>167.786377</ele>
  <time>2011-07-29T05:21:53Z</time>
  <speed>3.840000</speed>
</trkpt>
<trkpt lat="32.578857422" lon="35.010753632">
  <ele>168.114502</ele>
  <time>2011-07-29T05:21:54Z</time>
  <speed>3.980000</speed>
</trkpt>
<trkpt lat="32.578845978" lon="35.010795593">
  <ele>168.739502</ele>
  <time>2011-07-29T05:21:55Z</time>
  <speed>3.990000</speed>
</trkpt>
<trkpt lat="32.578838348" lon="35.010833740">
  <ele>169.157471</ele>
  <time>2011-07-29T05:21:56Z</time>
  <speed>3.830000</speed>
</trkpt>
<trkpt lat="32.578826904" lon="35.010868073">
  <ele>169.719971</ele>
  <time>2011-07-29T05:21:57Z</time>
  <speed>3.680000</speed>
</trkpt>
<trkpt lat="32.578819275" lon="35.010910034">
  <ele>169.399658</ele>
  <time>2011-07-29T05:21:58Z</time>
  <speed>3.690000</speed>
</trkpt>
<trkpt lat="32.578815460" lon="35.010948181">
  <ele>169.540283</ele>
  <time>2011-07-29T05:21:59Z</time>
  <speed>3.530000</speed>
</trkpt>
<trkpt lat="32.578811646" lon="35.010982513">
  <ele>169.262939</ele>
  <time>2011-07-29T05:22:00Z</time>
  <speed>3.760000</speed>
</trkpt>
<trkpt lat="32.578796387" lon="35.011024475">
  <ele>169.641846</ele>
  <time>2011-07-29T05:22:01Z</time>
  <speed>3.990000</speed>
</trkpt>
<trkpt lat="32.578784943" lon="35.011070251">
  <ele>170.032471</ele>
  <time>2011-07-29T05:22:02Z</time>
  <speed>3.880000</speed>
</trkpt>
<trkpt lat="32.578781128" lon="35.011108398">
  <ele>170.391846</ele>
  <time>2011-07-29T05:22:03Z</time>
  <speed>3.860000</speed>
</trkpt>
<trkpt lat="32.578769684" lon="35.011146545">
  <ele>170.559814</ele>
  <time>2011-07-29T05:22:04Z</time>
  <speed>3.720000</speed>
</trkpt>
<trkpt lat="32.578769684" lon="35.011188507">
  <ele>170.321533</ele>
  <time>2011-07-29T05:22:05Z</time>
  <speed>3.860000</speed>
</trkpt>
<trkpt lat="32.578765869" lon="35.011226654">
  <ele>170.134033</ele>
  <time>2011-07-29T05:22:06Z</time>
  <speed>3.720000</speed>
</trkpt>
<trkpt lat="32.578762054" lon="35.011264801">
  <ele>169.794189</ele>
  <time>2011-07-29T05:22:07Z</time>
  <speed>3.670000</speed>
</trkpt>
<trkpt lat="32.578762054" lon="35.011306763">
  <ele>169.821533</ele>
  <time>2011-07-29T05:22:08Z</time>
  <speed>3.300000</speed>
</trkpt>
<trkpt lat="32.578781128" lon="35.011341095">
  <ele>169.368408</ele>
  <time>2011-07-29T05:22:09Z</time>
  <speed>3.370000</speed>
</trkpt>
<trkpt lat="32.578792572" lon="35.011375427">
  <ele>169.153564</ele>
  <time>2011-07-29T05:22:10Z</time>
  <speed>2.960000</speed>
</trkpt>
<trkpt lat="32.578807831" lon="35.011409760">
  <ele>168.950439</ele>
  <time>2011-07-29T05:22:11Z</time>
  <speed>3.320000</speed>
</trkpt>
<trkpt lat="32.578830719" lon="35.011436462">
  <ele>168.052002</ele>
  <time>2011-07-29T05:22:12Z</time>
  <speed>3.610000</speed>
</trkpt>
<trkpt lat="32.578830719" lon="35.011470795">
  <ele>167.438721</ele>
  <time>2011-07-29T05:22:13Z</time>
  <speed>3.020000</speed>
</trkpt>
<trkpt lat="32.578830719" lon="35.011508942">
  <ele>166.973877</ele>
  <time>2011-07-29T05:22:14Z</time>
  <speed>2.760000</speed>
</trkpt>
<trkpt lat="32.578826904" lon="35.011543274">
  <ele>166.266846</ele>
  <time>2011-07-29T05:22:15Z</time>
  <speed>3.100000</speed>
</trkpt>
<trkpt lat="32.578830719" lon="35.011581421">
  <ele>165.637939</ele>
  <time>2011-07-29T05:22:16Z</time>
  <speed>3.230000</speed>
</trkpt>
<trkpt lat="32.578830719" lon="35.011619568">
  <ele>165.137939</ele>
  <time>2011-07-29T05:22:17Z</time>
  <speed>3.460000</speed>
</trkpt>
<trkpt lat="32.578838348" lon="35.011665344">
  <ele>165.227783</ele>
  <time>2011-07-29T05:22:18Z</time>
  <speed>3.320000</speed>
</trkpt>
<trkpt lat="32.578838348" lon="35.011699677">
  <ele>164.649658</ele>
  <time>2011-07-29T05:22:19Z</time>
  <speed>3.100000</speed>
</trkpt>
<trkpt lat="32.578834534" lon="35.011734009">
  <ele>164.977783</ele>
  <time>2011-07-29T05:22:20Z</time>
  <speed>3.080000</speed>
</trkpt>
<trkpt lat="32.578834534" lon="35.011787415">
  <ele>166.661377</ele>
  <time>2011-07-29T05:22:21Z</time>
  <speed>3.320000</speed>
</trkpt>
<trkpt lat="32.578834534" lon="35.011825562">
  <ele>166.684814</ele>
  <time>2011-07-29T05:22:22Z</time>
  <speed>3.280000</speed>
</trkpt>
<trkpt lat="32.578834534" lon="35.011863708">
  <ele>166.348877</ele>
  <time>2011-07-29T05:22:23Z</time>
  <speed>3.480000</speed>
</trkpt>
<trkpt lat="32.578830719" lon="35.011901855">
  <ele>166.516846</ele>
  <time>2011-07-29T05:22:24Z</time>
  <speed>3.250000</speed>
</trkpt>
<trkpt lat="32.578826904" lon="35.011932373">
  <ele>166.419189</ele>
  <time>2011-07-29T05:22:25Z</time>
  <speed>2.800000</speed>
</trkpt>
<trkpt lat="32.578830719" lon="35.011966705">
  <ele>166.477783</ele>
  <time>2011-07-29T05:22:26Z</time>
  <speed>3.070000</speed>
</trkpt>
<trkpt lat="32.578826904" lon="35.012004852">
  <ele>166.266846</ele>
  <time>2011-07-29T05:22:27Z</time>
  <speed>2.840000</speed>
</trkpt>
<trkpt lat="32.578823090" lon="35.012039185">
  <ele>166.677002</ele>
  <time>2011-07-29T05:22:28Z</time>
  <speed>3.250000</speed>
</trkpt>
<trkpt lat="32.578823090" lon="35.012077332">
  <ele>167.044189</ele>
  <time>2011-07-29T05:22:29Z</time>
  <speed>3.110000</speed>
</trkpt>
<trkpt lat="32.578819275" lon="35.012142181">
  <ele>166.954346</ele>
  <time>2011-07-29T05:22:31Z</time>
  <speed>2.860000</speed>
</trkpt>
<trkpt lat="32.578811646" lon="35.012172699">
  <ele>167.094971</ele>
  <time>2011-07-29T05:22:32Z</time>
  <speed>2.710000</speed>
</trkpt>
<trkpt lat="32.578800201" lon="35.012226105">
  <ele>166.626221</ele>
  <time>2011-07-29T05:22:34Z</time>
  <speed>2.600000</speed>
</trkpt>
<trkpt lat="32.578781128" lon="35.012264252">
  <ele>167.555908</ele>
  <time>2011-07-29T05:22:35Z</time>
  <speed>2.550000</speed>
</trkpt>
<trkpt lat="32.578765869" lon="35.012313843">
  <ele>167.473877</ele>
  <time>2011-07-29T05:22:37Z</time>
  <speed>3.110000</speed>
</trkpt>
<trkpt lat="32.578765869" lon="35.012355804">
  <ele>166.977783</ele>
  <time>2011-07-29T05:22:38Z</time>
  <speed>3.180000</speed>
</trkpt>
<trkpt lat="32.578758240" lon="35.012390137">
  <ele>166.583252</ele>
  <time>2011-07-29T05:22:39Z</time>
  <speed>3.020000</speed>
</trkpt>
<trkpt lat="32.578742981" lon="35.012435913">
  <ele>167.704346</ele>
  <time>2011-07-29T05:22:40Z</time>
  <speed>2.740000</speed>
</trkpt>
<trkpt lat="32.578735352" lon="35.012470245">
  <ele>167.255127</ele>
  <time>2011-07-29T05:22:41Z</time>
  <speed>3.240000</speed>
</trkpt>
<trkpt lat="32.578731537" lon="35.012508392">
  <ele>167.255127</ele>
  <time>2011-07-29T05:22:42Z</time>
  <speed>3.190000</speed>
</trkpt>
<trkpt lat="32.578720093" lon="35.012538910">
  <ele>167.493408</ele>
  <time>2011-07-29T05:22:43Z</time>
  <speed>3.030000</speed>
</trkpt>
<trkpt lat="32.578712463" lon="35.012580872">
  <ele>166.981689</ele>
  <time>2011-07-29T05:22:44Z</time>
  <speed>3.040000</speed>
</trkpt>
<trkpt lat="32.578708649" lon="35.012611389">
  <ele>166.837158</ele>
  <time>2011-07-29T05:22:45Z</time>
  <speed>2.690000</speed>
</trkpt>
<trkpt lat="32.578685760" lon="35.012664795">
  <ele>166.302002</ele>
  <time>2011-07-29T05:22:47Z</time>
  <speed>2.750000</speed>
</trkpt>
<trkpt lat="32.578678131" lon="35.012718201">
  <ele>166.294189</ele>
  <time>2011-07-29T05:22:49Z</time>
  <speed>2.690000</speed>
</trkpt>
<trkpt lat="32.578666687" lon="35.012748718">
  <ele>165.950439</ele>
  <time>2011-07-29T05:22:50Z</time>
  <speed>2.470000</speed>
</trkpt>
<trkpt lat="32.578678131" lon="35.012817383">
  <ele>166.348877</ele>
  <time>2011-07-29T05:22:52Z</time>
  <speed>3.290000</speed>
</trkpt>
<trkpt lat="32.578674316" lon="35.012874603">
  <ele>166.567627</ele>
  <time>2011-07-29T05:22:54Z</time>
  <speed>2.110000</speed>
</trkpt>
<trkpt lat="32.578666687" lon="35.012908936">
  <ele>166.473877</ele>
  <time>2011-07-29T05:22:56Z</time>
  <speed>0.100000</speed>
</trkpt>
<trkpt lat="32.578708649" lon="35.012935638">
  <ele>166.844971</ele>
  <time>2011-07-29T05:23:08Z</time>
  <speed>1.990000</speed>
</trkpt>
<trkpt lat="32.578735352" lon="35.012950897">
  <ele>166.938721</ele>
  <time>2011-07-29T05:23:09Z</time>
  <speed>2.460000</speed>
</trkpt>
<trkpt lat="32.578765869" lon="35.012950897">
  <ele>167.516846</ele>
  <time>2011-07-29T05:23:10Z</time>
  <speed>2.060000</speed>
</trkpt>
<trkpt lat="32.578804016" lon="35.012962341">
  <ele>167.927002</ele>
  <time>2011-07-29T05:23:11Z</time>
  <speed>1.500000</speed>
</trkpt>
<trkpt lat="32.578842163" lon="35.012966156">
  <ele>168.251221</ele>
  <time>2011-07-29T05:23:13Z</time>
  <speed>0.520000</speed>
</trkpt>
<trkpt lat="32.578872681" lon="35.012969971">
  <ele>168.200439</ele>
  <time>2011-07-29T05:23:18Z</time>
  <speed>0.410000</speed>
</trkpt>
<trkpt lat="32.578903198" lon="35.012973785">
  <ele>167.501221</ele>
  <time>2011-07-29T05:23:28Z</time>
  <speed>0.550000</speed>
</trkpt>
<trkpt lat="32.578952789" lon="35.012966156">
  <ele>169.036377</ele>
  <time>2011-07-29T05:24:29Z</time>
  <speed>1.500000</speed>
</trkpt>
<trkpt lat="32.579006195" lon="35.012973785">
  <ele>168.446533</ele>
  <time>2011-07-29T05:24:31Z</time>
  <speed>5.290000</speed>
</trkpt>
<trkpt lat="32.579071045" lon="35.012973785">
  <ele>167.735596</ele>
  <time>2011-07-29T05:24:32Z</time>
  <speed>5.590000</speed>
</trkpt>
<trkpt lat="32.579132080" lon="35.012977600">
  <ele>167.360596</ele>
  <time>2011-07-29T05:24:33Z</time>
  <speed>6.290000</speed>
</trkpt>
<trkpt lat="32.579196930" lon="35.012962341">
  <ele>166.544189</ele>
  <time>2011-07-29T05:24:34Z</time>
  <speed>5.770000</speed>
</trkpt>
<trkpt lat="32.579254150" lon="35.012954712">
  <ele>165.544189</ele>
  <time>2011-07-29T05:24:35Z</time>
  <speed>5.950000</speed>
</trkpt>
<trkpt lat="32.579307556" lon="35.012958527">
  <ele>164.180908</ele>
  <time>2011-07-29T05:24:36Z</time>
  <speed>6.000000</speed>
</trkpt>
<trkpt lat="32.579364777" lon="35.012973785">
  <ele>162.790283</ele>
  <time>2011-07-29T05:24:37Z</time>
  <speed>6.500000</speed>
</trkpt>
<trkpt lat="32.579437256" lon="35.012989044">
  <ele>161.997314</ele>
  <time>2011-07-29T05:24:38Z</time>
  <speed>6.970000</speed>
</trkpt>
<trkpt lat="32.579505920" lon="35.013004303">
  <ele>161.282471</ele>
  <time>2011-07-29T05:24:39Z</time>
  <speed>7.210000</speed>
</trkpt>
<trkpt lat="32.579574585" lon="35.013019562">
  <ele>159.887939</ele>
  <time>2011-07-29T05:24:40Z</time>
  <speed>7.440000</speed>
</trkpt>
<trkpt lat="32.579643250" lon="35.013019562">
  <ele>158.387939</ele>
  <time>2011-07-29T05:24:41Z</time>
  <speed>8.440000</speed>
</trkpt>
<trkpt lat="32.579723358" lon="35.013023376">
  <ele>157.290283</ele>
  <time>2011-07-29T05:24:42Z</time>
  <speed>8.200000</speed>
</trkpt>
<trkpt lat="32.579799652" lon="35.013019562">
  <ele>156.716064</ele>
  <time>2011-07-29T05:24:43Z</time>
  <speed>8.500000</speed>
</trkpt>
<trkpt lat="32.579875946" lon="35.013015747">
  <ele>155.856689</ele>
  <time>2011-07-29T05:24:44Z</time>
  <speed>8.470000</speed>
</trkpt>
<trkpt lat="32.579959869" lon="35.013019562">
  <ele>155.809814</ele>
  <time>2011-07-29T05:24:45Z</time>
  <speed>7.170000</speed>
</trkpt>
<trkpt lat="32.580017090" lon="35.013027191">
  <ele>155.524658</ele>
  <time>2011-07-29T05:24:46Z</time>
  <speed>5.170000</speed>
</trkpt>
<trkpt lat="32.580066681" lon="35.013031006">
  <ele>155.743408</ele>
  <time>2011-07-29T05:24:47Z</time>
  <speed>4.220000</speed>
</trkpt>
<trkpt lat="32.580101013" lon="35.013027191">
  <ele>156.161377</ele>
  <time>2011-07-29T05:24:48Z</time>
  <speed>2.880000</speed>
</trkpt>
<trkpt lat="32.580142975" lon="35.013031006">
  <ele>154.907471</ele>
  <time>2011-07-29T05:24:50Z</time>
  <speed>2.540000</speed>
</trkpt>
<trkpt lat="32.580173492" lon="35.013072968">
  <ele>153.341064</ele>
  <time>2011-07-29T05:24:52Z</time>
  <speed>3.060000</speed>
</trkpt>
<trkpt lat="32.580207825" lon="35.013088226">
  <ele>153.688721</ele>
  <time>2011-07-29T05:24:53Z</time>
  <speed>3.150000</speed>
</trkpt>
<trkpt lat="32.580234528" lon="35.013099670">
  <ele>154.290283</ele>
  <time>2011-07-29T05:24:54Z</time>
  <speed>3.010000</speed>
</trkpt>
<trkpt lat="32.580272675" lon="35.013118744">
  <ele>153.594971</ele>
  <time>2011-07-29T05:24:56Z</time>
  <speed>2.730000</speed>
</trkpt>
<trkpt lat="32.580318451" lon="35.013137817">
  <ele>153.774658</ele>
  <time>2011-07-29T05:24:58Z</time>
  <speed>2.900000</speed>
</trkpt>
<trkpt lat="32.580341339" lon="35.013149261">
  <ele>153.165283</ele>
  <time>2011-07-29T05:24:59Z</time>
  <speed>3.120000</speed>
</trkpt>
<trkpt lat="32.580375671" lon="35.013164520">
  <ele>152.587158</ele>
  <time>2011-07-29T05:25:00Z</time>
  <speed>3.260000</speed>
</trkpt>
<trkpt lat="32.580402374" lon="35.013175964">
  <ele>151.821533</ele>
  <time>2011-07-29T05:25:01Z</time>
  <speed>3.380000</speed>
</trkpt>
<trkpt lat="32.580421448" lon="35.013202667">
  <ele>150.473877</ele>
  <time>2011-07-29T05:25:02Z</time>
  <speed>3.060000</speed>
</trkpt>
<trkpt lat="32.580459595" lon="35.013240814">
  <ele>150.200439</ele>
  <time>2011-07-29T05:25:04Z</time>
  <speed>2.800000</speed>
</trkpt>
<trkpt lat="32.580493927" lon="35.013278961">
  <ele>149.798096</ele>
  <time>2011-07-29T05:25:06Z</time>
  <speed>2.480000</speed>
</trkpt>
<trkpt lat="32.580532074" lon="35.013309479">
  <ele>149.216064</ele>
  <time>2011-07-29T05:25:08Z</time>
  <speed>2.510000</speed>
</trkpt>
<trkpt lat="32.580562592" lon="35.013324738">
  <ele>149.512939</ele>
  <time>2011-07-29T05:25:09Z</time>
  <speed>2.630000</speed>
</trkpt>
<trkpt lat="32.580596924" lon="35.013332367">
  <ele>149.759033</ele>
  <time>2011-07-29T05:25:11Z</time>
  <speed>1.850000</speed>
</trkpt>
<trkpt lat="32.580635071" lon="35.013339996">
  <ele>150.606689</ele>
  <time>2011-07-29T05:25:13Z</time>
  <speed>1.740000</speed>
</trkpt>
<trkpt lat="32.580665588" lon="35.013313293">
  <ele>151.809814</ele>
  <time>2011-07-29T05:25:15Z</time>
  <speed>1.680000</speed>
</trkpt>
<trkpt lat="32.580696106" lon="35.013282776">
  <ele>152.766846</ele>
  <time>2011-07-29T05:25:17Z</time>
  <speed>1.570000</speed>
</trkpt>
<trkpt lat="32.580730438" lon="35.013256073">
  <ele>151.977783</ele>
  <time>2011-07-29T05:25:19Z</time>
  <speed>2.230000</speed>
</trkpt>
<trkpt lat="32.580764771" lon="35.013229370">
  <ele>151.493408</ele>
  <time>2011-07-29T05:25:21Z</time>
  <speed>1.750000</speed>
</trkpt>
<trkpt lat="32.580791473" lon="35.013202667">
  <ele>152.012939</ele>
  <time>2011-07-29T05:25:23Z</time>
  <speed>1.680000</speed>
</trkpt>
<trkpt lat="32.580814362" lon="35.013168335">
  <ele>152.727783</ele>
  <time>2011-07-29T05:25:25Z</time>
  <speed>1.160000</speed>
</trkpt>
<trkpt lat="32.580844879" lon="35.013145447">
  <ele>153.188721</ele>
  <time>2011-07-29T05:25:27Z</time>
  <speed>1.160000</speed>
</trkpt>
<trkpt lat="32.580875397" lon="35.013156891">
  <ele>152.759033</ele>
  <time>2011-07-29T05:25:29Z</time>
  <speed>0.920000</speed>
</trkpt>
<trkpt lat="32.580898285" lon="35.013164520">
  <ele>154.270752</ele>
  <time>2011-07-29T05:25:31Z</time>
  <speed>1.240000</speed>
</trkpt>
<trkpt lat="32.580928802" lon="35.013168335">
  <ele>154.884033</ele>
  <time>2011-07-29T05:25:33Z</time>
  <speed>1.470000</speed>
</trkpt>
<trkpt lat="32.580959320" lon="35.013175964">
  <ele>155.192627</ele>
  <time>2011-07-29T05:25:35Z</time>
  <speed>1.490000</speed>
</trkpt>
<trkpt lat="32.580974579" lon="35.013191223">
  <ele>157.395752</ele>
  <time>2011-07-29T05:25:37Z</time>
  <speed>1.450000</speed>
</trkpt>
<trkpt lat="32.581012726" lon="35.013175964">
  <ele>157.591064</ele>
  <time>2011-07-29T05:25:39Z</time>
  <speed>1.240000</speed>
</trkpt>
<trkpt lat="32.581047058" lon="35.013168335">
  <ele>159.071533</ele>
  <time>2011-07-29T05:25:41Z</time>
  <speed>1.220000</speed>
</trkpt>
<trkpt lat="32.581073761" lon="35.013175964">
  <ele>158.833252</ele>
  <time>2011-07-29T05:25:43Z</time>
  <speed>1.420000</speed>
</trkpt>
<trkpt lat="32.581115723" lon="35.013179779">
  <ele>159.145752</ele>
  <time>2011-07-29T05:25:46Z</time>
  <speed>1.250000</speed>
</trkpt>
<trkpt lat="32.581153870" lon="35.013172150">
  <ele>161.223877</ele>
  <time>2011-07-29T05:25:48Z</time>
  <speed>1.030000</speed>
</trkpt>
<trkpt lat="32.581188202" lon="35.013160706">
  <ele>161.989502</ele>
  <time>2011-07-29T05:25:51Z</time>
  <speed>0.930000</speed>
</trkpt>
<trkpt lat="32.581222534" lon="35.013160706">
  <ele>161.852783</ele>
  <time>2011-07-29T05:25:53Z</time>
  <speed>1.330000</speed>
</trkpt>
<trkpt lat="32.581260681" lon="35.013160706">
  <ele>161.259033</ele>
  <time>2011-07-29T05:25:55Z</time>
  <speed>2.290000</speed>
</trkpt>
<trkpt lat="32.581279755" lon="35.013156891">
  <ele>163.391846</ele>
  <time>2011-07-29T05:25:57Z</time>
  <speed>1.140000</speed>
</trkpt>
<trkpt lat="32.581310272" lon="35.013156891">
  <ele>163.911377</ele>
  <time>2011-07-29T05:25:59Z</time>
  <speed>0.920000</speed>
</trkpt>
<trkpt lat="32.581352234" lon="35.013149261">
  <ele>163.985596</ele>
  <time>2011-07-29T05:26:02Z</time>
  <speed>1.280000</speed>
</trkpt>
<trkpt lat="32.581390381" lon="35.013122559">
  <ele>162.751221</ele>
  <time>2011-07-29T05:26:05Z</time>
  <speed>1.400000</speed>
</trkpt>
<trkpt lat="32.581420898" lon="35.013114929">
  <ele>162.880127</ele>
  <time>2011-07-29T05:26:07Z</time>
  <speed>1.250000</speed>
</trkpt>
<trkpt lat="32.581455231" lon="35.013114929">
  <ele>164.118408</ele>
  <time>2011-07-29T05:26:11Z</time>
  <speed>1.070000</speed>
</trkpt>
<trkpt lat="32.581485748" lon="35.013107300">
  <ele>164.938721</ele>
  <time>2011-07-29T05:26:13Z</time>
  <speed>1.110000</speed>
</trkpt>
<trkpt lat="32.581516266" lon="35.013088226">
  <ele>166.262939</ele>
  <time>2011-07-29T05:26:16Z</time>
  <speed>0.980000</speed>
</trkpt>
<trkpt lat="32.581535339" lon="35.013057709">
  <ele>167.958252</ele>
  <time>2011-07-29T05:26:19Z</time>
  <speed>0.950000</speed>
</trkpt>
<trkpt lat="32.581565857" lon="35.013038635">
  <ele>167.731689</ele>
  <time>2011-07-29T05:26:22Z</time>
  <speed>0.780000</speed>
</trkpt>
<trkpt lat="32.581592560" lon="35.013019562">
  <ele>168.110596</ele>
  <time>2011-07-29T05:26:25Z</time>
  <speed>1.500000</speed>
</trkpt>
<trkpt lat="32.581634521" lon="35.013011932">
  <ele>167.802002</ele>
  <time>2011-07-29T05:26:28Z</time>
  <speed>1.500000</speed>
</trkpt>
<trkpt lat="32.581668854" lon="35.012992859">
  <ele>167.825439</ele>
  <time>2011-07-29T05:26:30Z</time>
  <speed>1.430000</speed>
</trkpt>
<trkpt lat="32.581707001" lon="35.013019562">
  <ele>166.548096</ele>
  <time>2011-07-29T05:26:33Z</time>
  <speed>1.740000</speed>
</trkpt>
<trkpt lat="32.581741333" lon="35.013042450">
  <ele>165.884033</ele>
  <time>2011-07-29T05:26:35Z</time>
  <speed>1.870000</speed>
</trkpt>
<trkpt lat="32.581775665" lon="35.013057709">
  <ele>165.950439</ele>
  <time>2011-07-29T05:26:37Z</time>
  <speed>1.840000</speed>
</trkpt>
<trkpt lat="32.581798553" lon="35.013076782">
  <ele>166.512939</ele>
  <time>2011-07-29T05:26:39Z</time>
  <speed>1.610000</speed>
</trkpt>
<trkpt lat="32.581825256" lon="35.013114929">
  <ele>166.255127</ele>
  <time>2011-07-29T05:26:41Z</time>
  <speed>2.980000</speed>
</trkpt>
<trkpt lat="32.581867218" lon="35.013134003">
  <ele>166.344971</ele>
  <time>2011-07-29T05:26:43Z</time>
  <speed>1.580000</speed>
</trkpt>
<trkpt lat="32.581901550" lon="35.013130188">
  <ele>166.430908</ele>
  <time>2011-07-29T05:26:45Z</time>
  <speed>1.310000</speed>
</trkpt>
<trkpt lat="32.581935883" lon="35.013103485">
  <ele>168.813721</ele>
  <time>2011-07-29T05:26:47Z</time>
  <speed>1.410000</speed>
</trkpt>
<trkpt lat="32.581962585" lon="35.013095856">
  <ele>169.880127</ele>
  <time>2011-07-29T05:26:49Z</time>
  <speed>1.380000</speed>
</trkpt>
<trkpt lat="32.581989288" lon="35.013065338">
  <ele>170.934814</ele>
  <time>2011-07-29T05:26:51Z</time>
  <speed>1.290000</speed>
</trkpt>
<trkpt lat="32.582019806" lon="35.013069153">
  <ele>171.794189</ele>
  <time>2011-07-29T05:26:53Z</time>
  <speed>1.710000</speed>
</trkpt>
<trkpt lat="32.582050323" lon="35.013092041">
  <ele>170.094971</ele>
  <time>2011-07-29T05:26:55Z</time>
  <speed>1.540000</speed>
</trkpt>
<trkpt lat="32.582084656" lon="35.013103485">
  <ele>170.262939</ele>
  <time>2011-07-29T05:26:57Z</time>
  <speed>1.590000</speed>
</trkpt>
<trkpt lat="32.582115173" lon="35.013103485">
  <ele>170.680908</ele>
  <time>2011-07-29T05:26:59Z</time>
  <speed>1.930000</speed>
</trkpt>
<trkpt lat="32.582145691" lon="35.013103485">
  <ele>171.223877</ele>
  <time>2011-07-29T05:27:01Z</time>
  <speed>1.590000</speed>
</trkpt>
<trkpt lat="32.582172394" lon="35.013122559">
  <ele>170.809814</ele>
  <time>2011-07-29T05:27:03Z</time>
  <speed>1.290000</speed>
</trkpt>
<trkpt lat="32.582206726" lon="35.013149261">
  <ele>170.622314</ele>
  <time>2011-07-29T05:27:06Z</time>
  <speed>1.970000</speed>
</trkpt>
<trkpt lat="32.582248688" lon="35.013179779">
  <ele>169.766846</ele>
  <time>2011-07-29T05:27:08Z</time>
  <speed>2.920000</speed>
</trkpt>
<trkpt lat="32.582267761" lon="35.013206482">
  <ele>169.282471</ele>
  <time>2011-07-29T05:27:09Z</time>
  <speed>2.760000</speed>
</trkpt>
<trkpt lat="32.582298279" lon="35.013225555">
  <ele>168.626221</ele>
  <time>2011-07-29T05:27:10Z</time>
  <speed>3.080000</speed>
</trkpt>
<trkpt lat="32.582328796" lon="35.013237000">
  <ele>168.118408</ele>
  <time>2011-07-29T05:27:11Z</time>
  <speed>3.100000</speed>
</trkpt>
<trkpt lat="32.582370758" lon="35.013248444">
  <ele>168.153564</ele>
  <time>2011-07-29T05:27:13Z</time>
  <speed>2.290000</speed>
</trkpt>
<trkpt lat="32.582412720" lon="35.013229370">
  <ele>167.407471</ele>
  <time>2011-07-29T05:27:15Z</time>
  <speed>1.840000</speed>
</trkpt>
<trkpt lat="32.582431793" lon="35.013210297">
  <ele>168.458252</ele>
  <time>2011-07-29T05:27:16Z</time>
  <speed>1.670000</speed>
</trkpt>
<trkpt lat="32.582462311" lon="35.013191223">
  <ele>169.274658</ele>
  <time>2011-07-29T05:27:18Z</time>
  <speed>1.560000</speed>
</trkpt>
<trkpt lat="32.582489014" lon="35.013191223">
  <ele>169.048096</ele>
  <time>2011-07-29T05:27:20Z</time>
  <speed>1.430000</speed>
</trkpt>
<trkpt lat="32.582523346" lon="35.013191223">
  <ele>169.673096</ele>
  <time>2011-07-29T05:27:22Z</time>
  <speed>1.770000</speed>
</trkpt>
<trkpt lat="32.582557678" lon="35.013183594">
  <ele>170.466064</ele>
  <time>2011-07-29T05:27:24Z</time>
  <speed>1.630000</speed>
</trkpt>
<trkpt lat="32.582595825" lon="35.013168335">
  <ele>170.415283</ele>
  <time>2011-07-29T05:27:26Z</time>
  <speed>0.990000</speed>
</trkpt>
<trkpt lat="32.582630157" lon="35.013164520">
  <ele>169.997314</ele>
  <time>2011-07-29T05:27:29Z</time>
  <speed>1.400000</speed>
</trkpt>
<trkpt lat="32.582656860" lon="35.013137817">
  <ele>170.524658</ele>
  <time>2011-07-29T05:27:31Z</time>
  <speed>1.430000</speed>
</trkpt>
<trkpt lat="32.582687378" lon="35.013107300">
  <ele>169.204346</ele>
  <time>2011-07-29T05:27:33Z</time>
  <speed>1.780000</speed>
</trkpt>
<trkpt lat="32.582717896" lon="35.013072968">
  <ele>169.829346</ele>
  <time>2011-07-29T05:27:35Z</time>
  <speed>1.500000</speed>
</trkpt>
<trkpt lat="32.582740784" lon="35.013065338">
  <ele>170.860596</ele>
  <time>2011-07-29T05:27:37Z</time>
  <speed>1.570000</speed>
</trkpt>
<trkpt lat="32.582775116" lon="35.013053894">
  <ele>170.723877</ele>
  <time>2011-07-29T05:27:39Z</time>
  <speed>1.780000</speed>
</trkpt>
<trkpt lat="32.582801819" lon="35.013023376">
  <ele>170.856689</ele>
  <time>2011-07-29T05:27:41Z</time>
  <speed>1.290000</speed>
</trkpt>
<trkpt lat="32.582836151" lon="35.013008118">
  <ele>170.942627</ele>
  <time>2011-07-29T05:27:43Z</time>
  <speed>1.530000</speed>
</trkpt>
<trkpt lat="32.582866669" lon="35.012977600">
  <ele>171.602783</ele>
  <time>2011-07-29T05:27:45Z</time>
  <speed>1.340000</speed>
</trkpt>
<trkpt lat="32.582912445" lon="35.012977600">
  <ele>172.305908</ele>
  <time>2011-07-29T05:27:48Z</time>
  <speed>1.740000</speed>
</trkpt>
<trkpt lat="32.582942963" lon="35.012973785">
  <ele>172.555908</ele>
  <time>2011-07-29T05:27:50Z</time>
  <speed>1.810000</speed>
</trkpt>
<trkpt lat="32.582984924" lon="35.012954712">
  <ele>171.946533</ele>
  <time>2011-07-29T05:27:52Z</time>
  <speed>1.710000</speed>
</trkpt>
<trkpt lat="32.583003998" lon="35.012920380">
  <ele>172.290283</ele>
  <time>2011-07-29T05:27:54Z</time>
  <speed>1.550000</speed>
</trkpt>
<trkpt lat="32.583019257" lon="35.012889862">
  <ele>171.837158</ele>
  <time>2011-07-29T05:27:56Z</time>
  <speed>1.180000</speed>
</trkpt>
<trkpt lat="32.583034515" lon="35.012863159">
  <ele>172.446533</ele>
  <time>2011-07-29T05:27:58Z</time>
  <speed>1.340000</speed>
</trkpt>
<trkpt lat="32.583049774" lon="35.012821198">
  <ele>171.989502</ele>
  <time>2011-07-29T05:28:00Z</time>
  <speed>1.680000</speed>
</trkpt>
<trkpt lat="32.583057404" lon="35.012775421">
  <ele>171.583252</ele>
  <time>2011-07-29T05:28:02Z</time>
  <speed>1.630000</speed>
</trkpt>
<trkpt lat="32.583061218" lon="35.012737274">
  <ele>171.962158</ele>
  <time>2011-07-29T05:28:03Z</time>
  <speed>1.860000</speed>
</trkpt>
<trkpt lat="32.583080292" lon="35.012702942">
  <ele>171.930908</ele>
  <time>2011-07-29T05:28:05Z</time>
  <speed>1.950000</speed>
</trkpt>
<trkpt lat="32.583110809" lon="35.012676239">
  <ele>171.747314</ele>
  <time>2011-07-29T05:28:07Z</time>
  <speed>2.200000</speed>
</trkpt>
<trkpt lat="32.583148956" lon="35.012645721">
  <ele>171.727783</ele>
  <time>2011-07-29T05:28:09Z</time>
  <speed>2.350000</speed>
</trkpt>
<trkpt lat="32.583190918" lon="35.012622833">
  <ele>172.575439</ele>
  <time>2011-07-29T05:28:11Z</time>
  <speed>2.310000</speed>
</trkpt>
<trkpt lat="32.583213806" lon="35.012611389">
  <ele>172.016846</ele>
  <time>2011-07-29T05:28:12Z</time>
  <speed>2.850000</speed>
</trkpt>
<trkpt lat="32.583244324" lon="35.012611389">
  <ele>171.555908</ele>
  <time>2011-07-29T05:28:13Z</time>
  <speed>2.880000</speed>
</trkpt>
<trkpt lat="32.583267212" lon="35.012584686">
  <ele>171.841064</ele>
  <time>2011-07-29T05:28:14Z</time>
  <speed>2.750000</speed>
</trkpt>
<trkpt lat="32.583312988" lon="35.012561798">
  <ele>172.430908</ele>
  <time>2011-07-29T05:28:16Z</time>
  <speed>3.060000</speed>
</trkpt>
<trkpt lat="32.583335876" lon="35.012538910">
  <ele>172.106689</ele>
  <time>2011-07-29T05:28:17Z</time>
  <speed>3.070000</speed>
</trkpt>
<trkpt lat="32.583362579" lon="35.012508392">
  <ele>171.309814</ele>
  <time>2011-07-29T05:28:18Z</time>
  <speed>2.970000</speed>
</trkpt>
<trkpt lat="32.583393097" lon="35.012496948">
  <ele>171.571533</ele>
  <time>2011-07-29T05:28:19Z</time>
  <speed>3.310000</speed>
</trkpt>
<trkpt lat="32.583427429" lon="35.012500763">
  <ele>171.137939</ele>
  <time>2011-07-29T05:28:20Z</time>
  <speed>3.980000</speed>
</trkpt>
<trkpt lat="32.583480835" lon="35.012489319">
  <ele>171.762939</ele>
  <time>2011-07-29T05:28:21Z</time>
  <speed>4.860000</speed>
</trkpt>
<trkpt lat="32.583526611" lon="35.012493134">
  <ele>171.102783</ele>
  <time>2011-07-29T05:28:22Z</time>
  <speed>5.010000</speed>
</trkpt>
<trkpt lat="32.583560944" lon="35.012508392">
  <ele>170.196533</ele>
  <time>2011-07-29T05:28:23Z</time>
  <speed>4.610000</speed>
</trkpt>
<trkpt lat="32.583591461" lon="35.012535095">
  <ele>169.969971</ele>
  <time>2011-07-29T05:28:24Z</time>
  <speed>4.420000</speed>
</trkpt>
<trkpt lat="32.583610535" lon="35.012577057">
  <ele>169.083252</ele>
  <time>2011-07-29T05:28:25Z</time>
  <speed>4.230000</speed>
</trkpt>
<trkpt lat="32.583629608" lon="35.012615204">
  <ele>168.493408</ele>
  <time>2011-07-29T05:28:26Z</time>
  <speed>4.460000</speed>
</trkpt>
<trkpt lat="32.583641052" lon="35.012660980">
  <ele>168.352783</ele>
  <time>2011-07-29T05:28:27Z</time>
  <speed>4.050000</speed>
</trkpt>
<trkpt lat="32.583648682" lon="35.012702942">
  <ele>167.880127</ele>
  <time>2011-07-29T05:28:28Z</time>
  <speed>3.960000</speed>
</trkpt>
<trkpt lat="32.583652496" lon="35.012744904">
  <ele>167.344971</ele>
  <time>2011-07-29T05:28:29Z</time>
  <speed>3.690000</speed>
</trkpt>
<trkpt lat="32.583660126" lon="35.012779236">
  <ele>167.071533</ele>
  <time>2011-07-29T05:28:30Z</time>
  <speed>3.320000</speed>
</trkpt>
<trkpt lat="32.583671570" lon="35.012821198">
  <ele>166.591064</ele>
  <time>2011-07-29T05:28:31Z</time>
  <speed>3.540000</speed>
</trkpt>
<trkpt lat="32.583671570" lon="35.012859344">
  <ele>166.641846</ele>
  <time>2011-07-29T05:28:32Z</time>
  <speed>3.360000</speed>
</trkpt>
<trkpt lat="32.583683014" lon="35.012893677">
  <ele>166.391846</ele>
  <time>2011-07-29T05:28:33Z</time>
  <speed>3.410000</speed>
</trkpt>
<trkpt lat="32.583690643" lon="35.012931824">
  <ele>166.544189</ele>
  <time>2011-07-29T05:28:34Z</time>
  <speed>3.260000</speed>
</trkpt>
<trkpt lat="32.583690643" lon="35.012966156">
  <ele>166.766846</ele>
  <time>2011-07-29T05:28:35Z</time>
  <speed>2.990000</speed>
</trkpt>
<trkpt lat="32.583702087" lon="35.013000488">
  <ele>166.321533</ele>
  <time>2011-07-29T05:28:36Z</time>
  <speed>3.000000</speed>
</trkpt>
<trkpt lat="32.583709717" lon="35.013034821">
  <ele>165.809814</ele>
  <time>2011-07-29T05:28:37Z</time>
  <speed>3.060000</speed>
</trkpt>
<trkpt lat="32.583709717" lon="35.013065338">
  <ele>166.309814</ele>
  <time>2011-07-29T05:28:38Z</time>
  <speed>2.630000</speed>
</trkpt>
<trkpt lat="32.583709717" lon="35.013103485">
  <ele>167.259033</ele>
  <time>2011-07-29T05:28:39Z</time>
  <speed>2.670000</speed>
</trkpt>
<trkpt lat="32.583713531" lon="35.013153076">
  <ele>166.598877</ele>
  <time>2011-07-29T05:28:41Z</time>
  <speed>2.440000</speed>
</trkpt>
<trkpt lat="32.583728790" lon="35.013198853">
  <ele>167.063721</ele>
  <time>2011-07-29T05:28:43Z</time>
  <speed>2.500000</speed>
</trkpt>
<trkpt lat="32.583740234" lon="35.013252258">
  <ele>166.985596</ele>
  <time>2011-07-29T05:28:45Z</time>
  <speed>2.350000</speed>
</trkpt>
<trkpt lat="32.583744049" lon="35.013290405">
  <ele>167.216064</ele>
  <time>2011-07-29T05:28:47Z</time>
  <speed>2.270000</speed>
</trkpt>
<trkpt lat="32.583770752" lon="35.013332367">
  <ele>166.954346</ele>
  <time>2011-07-29T05:28:49Z</time>
  <speed>2.100000</speed>
</trkpt>
<trkpt lat="32.583812714" lon="35.013355255">
  <ele>167.137939</ele>
  <time>2011-07-29T05:28:51Z</time>
  <speed>1.820000</speed>
</trkpt>
<trkpt lat="32.583850861" lon="35.013378143">
  <ele>168.094971</ele>
  <time>2011-07-29T05:28:53Z</time>
  <speed>2.020000</speed>
</trkpt>
<trkpt lat="32.583896637" lon="35.013397217">
  <ele>169.294189</ele>
  <time>2011-07-29T05:28:55Z</time>
  <speed>2.210000</speed>
</trkpt>
<trkpt lat="32.583934784" lon="35.013420105">
  <ele>169.212158</ele>
  <time>2011-07-29T05:28:57Z</time>
  <speed>2.390000</speed>
</trkpt>
<trkpt lat="32.583980560" lon="35.013420105">
  <ele>170.005127</ele>
  <time>2011-07-29T05:28:59Z</time>
  <speed>2.550000</speed>
</trkpt>
<trkpt lat="32.584026337" lon="35.013423920">
  <ele>171.766846</ele>
  <time>2011-07-29T05:29:01Z</time>
  <speed>1.820000</speed>
</trkpt>
<trkpt lat="32.584068298" lon="35.013423920">
  <ele>172.446533</ele>
  <time>2011-07-29T05:29:03Z</time>
  <speed>1.890000</speed>
</trkpt>
<trkpt lat="32.584102631" lon="35.013404846">
  <ele>173.262939</ele>
  <time>2011-07-29T05:29:05Z</time>
  <speed>2.030000</speed>
</trkpt>
<trkpt lat="32.584136963" lon="35.013385773">
  <ele>173.094971</ele>
  <time>2011-07-29T05:29:07Z</time>
  <speed>2.080000</speed>
</trkpt>
<trkpt lat="32.584171295" lon="35.013362885">
  <ele>173.098877</ele>
  <time>2011-07-29T05:29:09Z</time>
  <speed>2.190000</speed>
</trkpt>
<trkpt lat="32.584209442" lon="35.013355255">
  <ele>173.786377</ele>
  <time>2011-07-29T05:29:10Z</time>
  <speed>2.420000</speed>
</trkpt>
<trkpt lat="32.584239960" lon="35.013328552">
  <ele>172.653564</ele>
  <time>2011-07-29T05:29:12Z</time>
  <speed>2.370000</speed>
</trkpt>
<trkpt lat="32.584266663" lon="35.013309479">
  <ele>172.610596</ele>
  <time>2011-07-29T05:29:13Z</time>
  <speed>2.740000</speed>
</trkpt>
<trkpt lat="32.584308624" lon="35.013278961">
  <ele>172.087158</ele>
  <time>2011-07-29T05:29:15Z</time>
  <speed>2.680000</speed>
</trkpt>
<trkpt lat="32.584331512" lon="35.013275146">
  <ele>170.923096</ele>
  <time>2011-07-29T05:29:16Z</time>
  <speed>1.980000</speed>
</trkpt>
<trkpt lat="32.584369659" lon="35.013252258">
  <ele>170.212158</ele>
  <time>2011-07-29T05:29:18Z</time>
  <speed>2.580000</speed>
</trkpt>
<trkpt lat="32.584407806" lon="35.013229370">
  <ele>170.848877</ele>
  <time>2011-07-29T05:29:20Z</time>
  <speed>2.480000</speed>
</trkpt>
<trkpt lat="32.584430695" lon="35.013214111">
  <ele>169.137939</ele>
  <time>2011-07-29T05:29:21Z</time>
  <speed>2.750000</speed>
</trkpt>
<trkpt lat="32.584453583" lon="35.013202667">
  <ele>168.868408</ele>
  <time>2011-07-29T05:29:23Z</time>
  <speed>1.620000</speed>
</trkpt>
<trkpt lat="32.584465027" lon="35.013252258">
  <ele>167.594971</ele>
  <time>2011-07-29T05:29:25Z</time>
  <speed>2.500000</speed>
</trkpt>
<trkpt lat="32.584445953" lon="35.013309479">
  <ele>167.067627</ele>
  <time>2011-07-29T05:29:27Z</time>
  <speed>2.680000</speed>
</trkpt>
<trkpt lat="32.584434509" lon="35.013343811">
  <ele>167.973877</ele>
  <time>2011-07-29T05:29:28Z</time>
  <speed>2.570000</speed>
</trkpt>
<trkpt lat="32.584430695" lon="35.013393402">
  <ele>168.903564</ele>
  <time>2011-07-29T05:29:30Z</time>
  <speed>1.960000</speed>
</trkpt>
<trkpt lat="32.584438324" lon="35.013439178">
  <ele>168.825439</ele>
  <time>2011-07-29T05:29:32Z</time>
  <speed>1.580000</speed>
</trkpt>
<trkpt lat="32.584468842" lon="35.013481140">
  <ele>168.606689</ele>
  <time>2011-07-29T05:29:34Z</time>
  <speed>2.290000</speed>
</trkpt>
<trkpt lat="32.584487915" lon="35.013515472">
  <ele>169.466064</ele>
  <time>2011-07-29T05:29:36Z</time>
  <speed>1.070000</speed>
</trkpt>
<trkpt lat="32.584514618" lon="35.013500214">
  <ele>169.118408</ele>
  <time>2011-07-29T05:29:39Z</time>
  <speed>2.190000</speed>
</trkpt>
<trkpt lat="32.584506989" lon="35.013423920">
  <ele>169.462158</ele>
  <time>2011-07-29T05:29:41Z</time>
  <speed>4.000000</speed>
</trkpt>
<trkpt lat="32.584503174" lon="35.013366699">
  <ele>169.161377</ele>
  <time>2011-07-29T05:29:42Z</time>
  <speed>4.800000</speed>
</trkpt>
<trkpt lat="32.584506989" lon="35.013313293">
  <ele>169.591064</ele>
  <time>2011-07-29T05:29:43Z</time>
  <speed>4.990000</speed>
</trkpt>
<trkpt lat="32.584522247" lon="35.013256073">
  <ele>169.399658</ele>
  <time>2011-07-29T05:29:44Z</time>
  <speed>5.560000</speed>
</trkpt>
<trkpt lat="32.584533691" lon="35.013195038">
  <ele>169.341064</ele>
  <time>2011-07-29T05:29:45Z</time>
  <speed>5.540000</speed>
</trkpt>
<trkpt lat="32.584552765" lon="35.013134003">
  <ele>169.184814</ele>
  <time>2011-07-29T05:29:46Z</time>
  <speed>5.470000</speed>
</trkpt>
<trkpt lat="32.584571838" lon="35.013084412">
  <ele>169.153564</ele>
  <time>2011-07-29T05:29:47Z</time>
  <speed>4.770000</speed>
</trkpt>
<trkpt lat="32.584598541" lon="35.013050079">
  <ele>168.833252</ele>
  <time>2011-07-29T05:29:48Z</time>
  <speed>4.220000</speed>
</trkpt>
<trkpt lat="32.584621429" lon="35.013011932">
  <ele>168.833252</ele>
  <time>2011-07-29T05:29:49Z</time>
  <speed>4.080000</speed>
</trkpt>
<trkpt lat="32.584636688" lon="35.012973785">
  <ele>168.884033</ele>
  <time>2011-07-29T05:29:50Z</time>
  <speed>3.350000</speed>
</trkpt>
<trkpt lat="32.584632874" lon="35.012939453">
  <ele>169.044189</ele>
  <time>2011-07-29T05:29:51Z</time>
  <speed>3.150000</speed>
</trkpt>
<trkpt lat="32.584632874" lon="35.012905121">
  <ele>168.735596</ele>
  <time>2011-07-29T05:29:52Z</time>
  <speed>3.100000</speed>
</trkpt>
<trkpt lat="32.584632874" lon="35.012866974">
  <ele>168.684814</ele>
  <time>2011-07-29T05:29:53Z</time>
  <speed>3.280000</speed>
</trkpt>
<trkpt lat="32.584629059" lon="35.012832642">
  <ele>168.848877</ele>
  <time>2011-07-29T05:29:54Z</time>
  <speed>3.010000</speed>
</trkpt>
<trkpt lat="32.584644318" lon="35.012775421">
  <ele>168.509033</ele>
  <time>2011-07-29T05:29:56Z</time>
  <speed>2.220000</speed>
</trkpt>
<trkpt lat="32.584655762" lon="35.012718201">
  <ele>167.805908</ele>
  <time>2011-07-29T05:29:58Z</time>
  <speed>1.840000</speed>
</trkpt>
<trkpt lat="32.584651947" lon="35.012680054">
  <ele>168.216064</ele>
  <time>2011-07-29T05:30:00Z</time>
  <speed>0.310000</speed>
</trkpt>
<trkpt lat="32.584651947" lon="35.012645721">
  <ele>168.548096</ele>
  <time>2011-07-29T05:30:02Z</time>
  <speed>0.120000</speed>
</trkpt>
<trkpt lat="32.584648132" lon="35.012680054">
  <ele>168.196533</ele>
  <time>2011-07-29T05:31:59Z</time>
  <speed>0.160000</speed>
</trkpt>
<trkpt lat="32.584651947" lon="35.012710571">
  <ele>168.352783</ele>
  <time>2011-07-29T05:32:09Z</time>
  <speed>1.490000</speed>
</trkpt>
<trkpt lat="32.584655762" lon="35.012756348">
  <ele>167.856689</ele>
  <time>2011-07-29T05:32:11Z</time>
  <speed>1.780000</speed>
</trkpt>
<trkpt lat="32.584629059" lon="35.012790680">
  <ele>167.610596</ele>
  <time>2011-07-29T05:32:13Z</time>
  <speed>1.440000</speed>
</trkpt>
<trkpt lat="32.584602356" lon="35.012794495">
  <ele>167.376221</ele>
  <time>2011-07-29T05:32:15Z</time>
  <speed>1.600000</speed>
</trkpt>
<trkpt lat="32.584613800" lon="35.012756348">
  <ele>166.708252</ele>
  <time>2011-07-29T05:32:18Z</time>
  <speed>0.790000</speed>
</trkpt>
<trkpt lat="32.584629059" lon="35.012725830">
  <ele>166.219971</ele>
  <time>2011-07-29T05:32:21Z</time>
  <speed>0.960000</speed>
</trkpt>
<trkpt lat="32.584648132" lon="35.012687683">
  <ele>166.106689</ele>
  <time>2011-07-29T05:32:24Z</time>
  <speed>1.250000</speed>
</trkpt>
<trkpt lat="32.584667206" lon="35.012660980">
  <ele>166.266846</ele>
  <time>2011-07-29T05:32:26Z</time>
  <speed>1.960000</speed>
</trkpt>
<trkpt lat="32.584678650" lon="35.012630463">
  <ele>166.231689</ele>
  <time>2011-07-29T05:32:27Z</time>
  <speed>1.500000</speed>
</trkpt>
<trkpt lat="32.584682465" lon="35.012588501">
  <ele>165.864502</ele>
  <time>2011-07-29T05:32:29Z</time>
  <speed>2.090000</speed>
</trkpt>
<trkpt lat="32.584674835" lon="35.012626648">
  <ele>167.075439</ele>
  <time>2011-07-29T05:32:34Z</time>
  <speed>1.560000</speed>
</trkpt>
<trkpt lat="32.584651947" lon="35.012649536">
  <ele>168.071533</ele>
  <time>2011-07-29T05:32:36Z</time>
  <speed>0.910000</speed>
</trkpt>
<trkpt lat="32.584644318" lon="35.012653351">
  <ele>170.989502</ele>
  <time>2011-07-29T05:33:02Z</time>
  <speed>0.080000</speed>
</trkpt>
<trkpt lat="32.584682465" lon="35.012622833">
  <ele>172.677002</ele>
  <time>2011-07-29T05:34:51Z</time>
  <speed>0.970000</speed>
</trkpt>
<trkpt lat="32.584716797" lon="35.012588501">
  <ele>172.837158</ele>
  <time>2011-07-29T05:34:53Z</time>
  <speed>2.530000</speed>
</trkpt>
<trkpt lat="32.584735870" lon="35.012565613">
  <ele>172.954346</ele>
  <time>2011-07-29T05:34:54Z</time>
  <speed>2.500000</speed>
</trkpt>
<trkpt lat="32.584758759" lon="35.012546539">
  <ele>172.669189</ele>
  <time>2011-07-29T05:34:55Z</time>
  <speed>2.780000</speed>
</trkpt>
<trkpt lat="32.584804535" lon="35.012504578">
  <ele>171.942627</ele>
  <time>2011-07-29T05:34:57Z</time>
  <speed>3.600000</speed>
</trkpt>
<trkpt lat="32.584835052" lon="35.012481689">
  <ele>171.411377</ele>
  <time>2011-07-29T05:34:58Z</time>
  <speed>3.730000</speed>
</trkpt>
<trkpt lat="32.584865570" lon="35.012447357">
  <ele>171.981689</ele>
  <time>2011-07-29T05:34:59Z</time>
  <speed>3.920000</speed>
</trkpt>
<trkpt lat="32.584896088" lon="35.012428284">
  <ele>172.415283</ele>
  <time>2011-07-29T05:35:00Z</time>
  <speed>3.570000</speed>
</trkpt>
<trkpt lat="32.584930420" lon="35.012409210">
  <ele>172.376221</ele>
  <time>2011-07-29T05:35:01Z</time>
  <speed>4.200000</speed>
</trkpt>
<trkpt lat="32.584968567" lon="35.012374878">
  <ele>172.802002</ele>
  <time>2011-07-29T05:35:02Z</time>
  <speed>4.210000</speed>
</trkpt>
<trkpt lat="32.585006714" lon="35.012351990">
  <ele>173.946533</ele>
  <time>2011-07-29T05:35:03Z</time>
  <speed>4.420000</speed>
</trkpt>
<trkpt lat="32.585041046" lon="35.012325287">
  <ele>174.903564</ele>
  <time>2011-07-29T05:35:04Z</time>
  <speed>3.720000</speed>
</trkpt>
<trkpt lat="32.585075378" lon="35.012306213">
  <ele>175.157471</ele>
  <time>2011-07-29T05:35:05Z</time>
  <speed>4.240000</speed>
</trkpt>
<trkpt lat="32.585109711" lon="35.012290955">
  <ele>175.137939</ele>
  <time>2011-07-29T05:35:06Z</time>
  <speed>3.780000</speed>
</trkpt>
<trkpt lat="32.585140228" lon="35.012275696">
  <ele>174.395752</ele>
  <time>2011-07-29T05:35:07Z</time>
  <speed>3.460000</speed>
</trkpt>
<trkpt lat="32.585166931" lon="35.012256622">
  <ele>173.942627</ele>
  <time>2011-07-29T05:35:08Z</time>
  <speed>3.400000</speed>
</trkpt>
<trkpt lat="32.585193634" lon="35.012229919">
  <ele>173.313721</ele>
  <time>2011-07-29T05:35:09Z</time>
  <speed>3.310000</speed>
</trkpt>
<trkpt lat="32.585220337" lon="35.012195587">
  <ele>173.114502</ele>
  <time>2011-07-29T05:35:10Z</time>
  <speed>3.750000</speed>
</trkpt>
<trkpt lat="32.585243225" lon="35.012161255">
  <ele>173.114502</ele>
  <time>2011-07-29T05:35:11Z</time>
  <speed>3.390000</speed>
</trkpt>
<trkpt lat="32.585262299" lon="35.012126923">
  <ele>172.563721</ele>
  <time>2011-07-29T05:35:12Z</time>
  <speed>3.790000</speed>
</trkpt>
<trkpt lat="32.585277557" lon="35.012096405">
  <ele>172.091064</ele>
  <time>2011-07-29T05:35:13Z</time>
  <speed>3.100000</speed>
</trkpt>
<trkpt lat="32.585289001" lon="35.012062073">
  <ele>171.821533</ele>
  <time>2011-07-29T05:35:14Z</time>
  <speed>3.290000</speed>
</trkpt>
<trkpt lat="32.585304260" lon="35.012031555">
  <ele>171.251221</ele>
  <time>2011-07-29T05:35:15Z</time>
  <speed>3.300000</speed>
</trkpt>
<trkpt lat="32.585323334" lon="35.012004852">
  <ele>170.755127</ele>
  <time>2011-07-29T05:35:16Z</time>
  <speed>3.040000</speed>
</trkpt>
<trkpt lat="32.585338593" lon="35.011974335">
  <ele>171.055908</ele>
  <time>2011-07-29T05:35:17Z</time>
  <speed>3.820000</speed>
</trkpt>
<trkpt lat="32.585357666" lon="35.011940002">
  <ele>170.770752</ele>
  <time>2011-07-29T05:35:18Z</time>
  <speed>3.670000</speed>
</trkpt>
<trkpt lat="32.585380554" lon="35.011901855">
  <ele>170.825439</ele>
  <time>2011-07-29T05:35:19Z</time>
  <speed>3.770000</speed>
</trkpt>
<trkpt lat="32.585403442" lon="35.011856079">
  <ele>171.356689</ele>
  <time>2011-07-29T05:35:20Z</time>
  <speed>3.930000</speed>
</trkpt>
<trkpt lat="32.585426331" lon="35.011817932">
  <ele>171.778564</ele>
  <time>2011-07-29T05:35:21Z</time>
  <speed>3.880000</speed>
</trkpt>
<trkpt lat="32.585445404" lon="35.011779785">
  <ele>172.012939</ele>
  <time>2011-07-29T05:35:22Z</time>
  <speed>3.740000</speed>
</trkpt>
<trkpt lat="32.585449219" lon="35.011741638">
  <ele>172.434814</ele>
  <time>2011-07-29T05:35:23Z</time>
  <speed>3.670000</speed>
</trkpt>
<trkpt lat="32.585456848" lon="35.011688232">
  <ele>173.407471</ele>
  <time>2011-07-29T05:35:24Z</time>
  <speed>3.720000</speed>
</trkpt>
<trkpt lat="32.585468292" lon="35.011650085">
  <ele>173.501221</ele>
  <time>2011-07-29T05:35:25Z</time>
  <speed>3.580000</speed>
</trkpt>
<trkpt lat="32.585475922" lon="35.011611938">
  <ele>173.196533</ele>
  <time>2011-07-29T05:35:26Z</time>
  <speed>3.630000</speed>
</trkpt>
<trkpt lat="32.585491180" lon="35.011573792">
  <ele>173.384033</ele>
  <time>2011-07-29T05:35:27Z</time>
  <speed>3.700000</speed>
</trkpt>
<trkpt lat="32.585506439" lon="35.011543274">
  <ele>174.059814</ele>
  <time>2011-07-29T05:35:28Z</time>
  <speed>3.350000</speed>
</trkpt>
<trkpt lat="32.585548401" lon="35.011486053">
  <ele>174.684814</ele>
  <time>2011-07-29T05:35:30Z</time>
  <speed>3.090000</speed>
</trkpt>
<trkpt lat="32.585575104" lon="35.011459351">
  <ele>173.969971</ele>
  <time>2011-07-29T05:35:31Z</time>
  <speed>3.690000</speed>
</trkpt>
<trkpt lat="32.585597992" lon="35.011432648">
  <ele>173.673096</ele>
  <time>2011-07-29T05:35:32Z</time>
  <speed>3.410000</speed>
</trkpt>
<trkpt lat="32.585613251" lon="35.011402130">
  <ele>174.055908</ele>
  <time>2011-07-29T05:35:33Z</time>
  <speed>3.560000</speed>
</trkpt>
<trkpt lat="32.585620880" lon="35.011363983">
  <ele>174.587158</ele>
  <time>2011-07-29T05:35:34Z</time>
  <speed>2.640000</speed>
</trkpt>
<trkpt lat="32.585617065" lon="35.011325836">
  <ele>174.540283</ele>
  <time>2011-07-29T05:35:35Z</time>
  <speed>2.740000</speed>
</trkpt>
<trkpt lat="32.585609436" lon="35.011291504">
  <ele>174.598877</ele>
  <time>2011-07-29T05:35:36Z</time>
  <speed>3.160000</speed>
</trkpt>
<trkpt lat="32.585609436" lon="35.011253357">
  <ele>174.856689</ele>
  <time>2011-07-29T05:35:37Z</time>
  <speed>3.060000</speed>
</trkpt>
<trkpt lat="32.585609436" lon="35.011219025">
  <ele>175.227783</ele>
  <time>2011-07-29T05:35:38Z</time>
  <speed>2.810000</speed>
</trkpt>
<trkpt lat="32.585609436" lon="35.011161804">
  <ele>175.516846</ele>
  <time>2011-07-29T05:35:40Z</time>
  <speed>3.030000</speed>
</trkpt>
<trkpt lat="32.585601807" lon="35.011127472">
  <ele>175.286377</ele>
  <time>2011-07-29T05:35:41Z</time>
  <speed>3.240000</speed>
</trkpt>
<trkpt lat="32.585597992" lon="35.011089325">
  <ele>175.036377</ele>
  <time>2011-07-29T05:35:42Z</time>
  <speed>2.730000</speed>
</trkpt>
<trkpt lat="32.585590363" lon="35.011054993">
  <ele>174.376221</ele>
  <time>2011-07-29T05:35:43Z</time>
  <speed>2.830000</speed>
</trkpt>
<trkpt lat="32.585578918" lon="35.010982513">
  <ele>174.438721</ele>
  <time>2011-07-29T05:35:45Z</time>
  <speed>2.870000</speed>
</trkpt>
<trkpt lat="32.585575104" lon="35.010940552">
  <ele>174.993408</ele>
  <time>2011-07-29T05:35:46Z</time>
  <speed>3.150000</speed>
</trkpt>
<trkpt lat="32.585575104" lon="35.010906219">
  <ele>175.067627</ele>
  <time>2011-07-29T05:35:47Z</time>
  <speed>3.040000</speed>
</trkpt>
<trkpt lat="32.585567474" lon="35.010845184">
  <ele>177.454346</ele>
  <time>2011-07-29T05:35:49Z</time>
  <speed>2.740000</speed>
</trkpt>
<trkpt lat="32.585571289" lon="35.010807037">
  <ele>176.149658</ele>
  <time>2011-07-29T05:35:50Z</time>
  <speed>2.820000</speed>
</trkpt>
<trkpt lat="32.585567474" lon="35.010765076">
  <ele>177.196533</ele>
  <time>2011-07-29T05:35:51Z</time>
  <speed>2.800000</speed>
</trkpt>
<trkpt lat="32.585571289" lon="35.010730743">
  <ele>176.442627</ele>
  <time>2011-07-29T05:35:52Z</time>
  <speed>2.600000</speed>
</trkpt>
<trkpt lat="32.585567474" lon="35.010696411">
  <ele>177.001221</ele>
  <time>2011-07-29T05:35:53Z</time>
  <speed>2.850000</speed>
</trkpt>
<trkpt lat="32.585567474" lon="35.010643005">
  <ele>177.614502</ele>
  <time>2011-07-29T05:35:55Z</time>
  <speed>2.080000</speed>
</trkpt>
<trkpt lat="32.585563660" lon="35.010604858">
  <ele>178.173096</ele>
  <time>2011-07-29T05:35:57Z</time>
  <speed>2.000000</speed>
</trkpt>
<trkpt lat="32.585552216" lon="35.010555267">
  <ele>178.380127</ele>
  <time>2011-07-29T05:35:59Z</time>
  <speed>2.020000</speed>
</trkpt>
<trkpt lat="32.585540771" lon="35.010524750">
  <ele>179.044189</ele>
  <time>2011-07-29T05:36:00Z</time>
  <speed>2.500000</speed>
</trkpt>
<trkpt lat="32.585529327" lon="35.010467529">
  <ele>180.505127</ele>
  <time>2011-07-29T05:36:02Z</time>
  <speed>2.560000</speed>
</trkpt>
<trkpt lat="32.585521698" lon="35.010414124">
  <ele>181.161377</ele>
  <time>2011-07-29T05:36:04Z</time>
  <speed>2.250000</speed>
</trkpt>
<trkpt lat="32.585514069" lon="35.010383606">
  <ele>182.387939</ele>
  <time>2011-07-29T05:36:05Z</time>
  <speed>2.470000</speed>
</trkpt>
<trkpt lat="32.585502625" lon="35.010326385">
  <ele>183.204346</ele>
  <time>2011-07-29T05:36:07Z</time>
  <speed>2.170000</speed>
</trkpt>
<trkpt lat="32.585483551" lon="35.010272980">
  <ele>184.622314</ele>
  <time>2011-07-29T05:36:09Z</time>
  <speed>2.480000</speed>
</trkpt>
<trkpt lat="32.585472107" lon="35.010227203">
  <ele>185.114502</ele>
  <time>2011-07-29T05:36:11Z</time>
  <speed>2.140000</speed>
</trkpt>
<trkpt lat="32.585468292" lon="35.010192871">
  <ele>186.036377</ele>
  <time>2011-07-29T05:36:12Z</time>
  <speed>2.610000</speed>
</trkpt>
<trkpt lat="32.585460663" lon="35.010150909">
  <ele>185.438721</ele>
  <time>2011-07-29T05:36:14Z</time>
  <speed>2.320000</speed>
</trkpt>
<trkpt lat="32.585456848" lon="35.010101318">
  <ele>185.618408</ele>
  <time>2011-07-29T05:36:16Z</time>
  <speed>2.160000</speed>
</trkpt>
<trkpt lat="32.585445404" lon="35.010063171">
  <ele>186.161377</ele>
  <time>2011-07-29T05:36:18Z</time>
  <speed>2.180000</speed>
</trkpt>
<trkpt lat="32.585445404" lon="35.010017395">
  <ele>187.059814</ele>
  <time>2011-07-29T05:36:20Z</time>
  <speed>1.870000</speed>
</trkpt>
<trkpt lat="32.585460663" lon="35.009975433">
  <ele>187.180908</ele>
  <time>2011-07-29T05:36:22Z</time>
  <speed>2.250000</speed>
</trkpt>
<trkpt lat="32.585453033" lon="35.009929657">
  <ele>186.860596</ele>
  <time>2011-07-29T05:36:24Z</time>
  <speed>2.380000</speed>
</trkpt>
<trkpt lat="32.585453033" lon="35.009880066">
  <ele>186.567627</ele>
  <time>2011-07-29T05:36:26Z</time>
  <speed>1.830000</speed>
</trkpt>
<trkpt lat="32.585441589" lon="35.009834290">
  <ele>186.723877</ele>
  <time>2011-07-29T05:36:28Z</time>
  <speed>2.180000</speed>
</trkpt>
<trkpt lat="32.585437775" lon="35.009788513">
  <ele>186.778564</ele>
  <time>2011-07-29T05:36:30Z</time>
  <speed>1.980000</speed>
</trkpt>
<trkpt lat="32.585433960" lon="35.009746552">
  <ele>186.649658</ele>
  <time>2011-07-29T05:36:32Z</time>
  <speed>2.100000</speed>
</trkpt>
<trkpt lat="32.585437775" lon="35.009696960">
  <ele>186.782471</ele>
  <time>2011-07-29T05:36:34Z</time>
  <speed>2.540000</speed>
</trkpt>
<trkpt lat="32.585433960" lon="35.009643555">
  <ele>186.372314</ele>
  <time>2011-07-29T05:36:36Z</time>
  <speed>2.470000</speed>
</trkpt>
<trkpt lat="32.585433960" lon="35.009586334">
  <ele>186.489502</ele>
  <time>2011-07-29T05:36:38Z</time>
  <speed>2.460000</speed>
</trkpt>
<trkpt lat="32.585433960" lon="35.009532928">
  <ele>186.489502</ele>
  <time>2011-07-29T05:36:40Z</time>
  <speed>2.610000</speed>
</trkpt>
<trkpt lat="32.585426331" lon="35.009498596">
  <ele>186.075439</ele>
  <time>2011-07-29T05:36:41Z</time>
  <speed>2.720000</speed>
</trkpt>
<trkpt lat="32.585418701" lon="35.009468079">
  <ele>186.344971</ele>
  <time>2011-07-29T05:36:42Z</time>
  <speed>2.820000</speed>
</trkpt>
<trkpt lat="32.585414886" lon="35.009407043">
  <ele>185.923096</ele>
  <time>2011-07-29T05:36:44Z</time>
  <speed>2.350000</speed>
</trkpt>
<trkpt lat="32.585418701" lon="35.009353638">
  <ele>184.962158</ele>
  <time>2011-07-29T05:36:46Z</time>
  <speed>2.250000</speed>
</trkpt>
<trkpt lat="32.585403442" lon="35.009304047">
  <ele>184.856689</ele>
  <time>2011-07-29T05:36:48Z</time>
  <speed>2.500000</speed>
</trkpt>
<trkpt lat="32.585407257" lon="35.009254456">
  <ele>184.141846</ele>
  <time>2011-07-29T05:36:50Z</time>
  <speed>2.090000</speed>
</trkpt>
<trkpt lat="32.585433960" lon="35.009246826">
  <ele>182.677002</ele>
  <time>2011-07-29T05:36:52Z</time>
  <speed>1.920000</speed>
</trkpt>
<trkpt lat="32.585475922" lon="35.009227753">
  <ele>181.481689</ele>
  <time>2011-07-29T05:36:54Z</time>
  <speed>2.720000</speed>
</trkpt>
<trkpt lat="32.585498810" lon="35.009170532">
  <ele>180.266846</ele>
  <time>2011-07-29T05:36:56Z</time>
  <speed>2.690000</speed>
</trkpt>
<trkpt lat="32.585502625" lon="35.009132385">
  <ele>180.923096</ele>
  <time>2011-07-29T05:36:57Z</time>
  <speed>2.640000</speed>
</trkpt>
<trkpt lat="32.585498810" lon="35.009098053">
  <ele>181.079346</ele>
  <time>2011-07-29T05:36:58Z</time>
  <speed>3.100000</speed>
</trkpt>
<trkpt lat="32.585494995" lon="35.009059906">
  <ele>180.899658</ele>
  <time>2011-07-29T05:36:59Z</time>
  <speed>3.260000</speed>
</trkpt>
<trkpt lat="32.585494995" lon="35.009017944">
  <ele>180.829346</ele>
  <time>2011-07-29T05:37:00Z</time>
  <speed>3.800000</speed>
</trkpt>
<trkpt lat="32.585494995" lon="35.008975983">
  <ele>180.450439</ele>
  <time>2011-07-29T05:37:01Z</time>
  <speed>4.050000</speed>
</trkpt>
<trkpt lat="32.585506439" lon="35.008930206">
  <ele>179.708252</ele>
  <time>2011-07-29T05:37:02Z</time>
  <speed>4.410000</speed>
</trkpt>
<trkpt lat="32.585529327" lon="35.008892059">
  <ele>179.309814</ele>
  <time>2011-07-29T05:37:03Z</time>
  <speed>4.910000</speed>
</trkpt>
<trkpt lat="32.585548401" lon="35.008850098">
  <ele>178.903564</ele>
  <time>2011-07-29T05:37:04Z</time>
  <speed>4.110000</speed>
</trkpt>
<trkpt lat="32.585548401" lon="35.008804321">
  <ele>178.442627</ele>
  <time>2011-07-29T05:37:05Z</time>
  <speed>3.670000</speed>
</trkpt>
<trkpt lat="32.585548401" lon="35.008766174">
  <ele>178.344971</ele>
  <time>2011-07-29T05:37:06Z</time>
  <speed>3.880000</speed>
</trkpt>
<trkpt lat="32.585540771" lon="35.008716583">
  <ele>177.634033</ele>
  <time>2011-07-29T05:37:07Z</time>
  <speed>4.190000</speed>
</trkpt>
<trkpt lat="32.585529327" lon="35.008670807">
  <ele>176.606689</ele>
  <time>2011-07-29T05:37:08Z</time>
  <speed>4.120000</speed>
</trkpt>
<trkpt lat="32.585533142" lon="35.008628845">
  <ele>175.915283</ele>
  <time>2011-07-29T05:37:09Z</time>
  <speed>4.180000</speed>
</trkpt>
<trkpt lat="32.585536957" lon="35.008583069">
  <ele>175.509033</ele>
  <time>2011-07-29T05:37:10Z</time>
  <speed>4.070000</speed>
</trkpt>
<trkpt lat="32.585540771" lon="35.008544922">
  <ele>174.731689</ele>
  <time>2011-07-29T05:37:11Z</time>
  <speed>3.760000</speed>
</trkpt>
<trkpt lat="32.585544586" lon="35.008491516">
  <ele>173.395752</ele>
  <time>2011-07-29T05:37:13Z</time>
  <speed>1.730000</speed>
</trkpt>
<trkpt lat="32.585536957" lon="35.008441925">
  <ele>172.333252</ele>
  <time>2011-07-29T05:37:15Z</time>
  <speed>2.820000</speed>
</trkpt>
<trkpt lat="32.585525513" lon="35.008407593">
  <ele>172.079346</ele>
  <time>2011-07-29T05:37:16Z</time>
  <speed>3.430000</speed>
</trkpt>
<trkpt lat="32.585517883" lon="35.008377075">
  <ele>171.278564</ele>
  <time>2011-07-29T05:37:17Z</time>
  <speed>2.930000</speed>
</trkpt>
<trkpt lat="32.585517883" lon="35.008319855">
  <ele>170.559814</ele>
  <time>2011-07-29T05:37:19Z</time>
  <speed>2.880000</speed>
</trkpt>
<trkpt lat="32.585521698" lon="35.008289337">
  <ele>169.493408</ele>
  <time>2011-07-29T05:37:20Z</time>
  <speed>3.320000</speed>
</trkpt>
<trkpt lat="32.585548401" lon="35.008239746">
  <ele>167.743408</ele>
  <time>2011-07-29T05:37:22Z</time>
  <speed>2.860000</speed>
</trkpt>
<trkpt lat="32.585563660" lon="35.008197784">
  <ele>168.368408</ele>
  <time>2011-07-29T05:37:23Z</time>
  <speed>2.470000</speed>
</trkpt>
<trkpt lat="32.585571289" lon="35.008144379">
  <ele>166.649658</ele>
  <time>2011-07-29T05:37:25Z</time>
  <speed>2.960000</speed>
</trkpt>
<trkpt lat="32.585559845" lon="35.008110046">
  <ele>165.864502</ele>
  <time>2011-07-29T05:37:26Z</time>
  <speed>3.280000</speed>
</trkpt>
<trkpt lat="32.585552216" lon="35.008071899">
  <ele>164.782471</ele>
  <time>2011-07-29T05:37:27Z</time>
  <speed>3.530000</speed>
</trkpt>
<trkpt lat="32.585544586" lon="35.008033752">
  <ele>163.520752</ele>
  <time>2011-07-29T05:37:28Z</time>
  <speed>3.400000</speed>
</trkpt>
<trkpt lat="32.585548401" lon="35.007999420">
  <ele>163.251221</ele>
  <time>2011-07-29T05:37:29Z</time>
  <speed>3.260000</speed>
</trkpt>
<trkpt lat="32.585563660" lon="35.007965088">
  <ele>162.645752</ele>
  <time>2011-07-29T05:37:30Z</time>
  <speed>3.170000</speed>
</trkpt>
<trkpt lat="32.585605621" lon="35.007946014">
  <ele>162.032471</ele>
  <time>2011-07-29T05:37:32Z</time>
  <speed>3.070000</speed>
</trkpt>
<trkpt lat="32.585639954" lon="35.007946014">
  <ele>161.649658</ele>
  <time>2011-07-29T05:37:33Z</time>
  <speed>3.670000</speed>
</trkpt>
<trkpt lat="32.585678101" lon="35.007961273">
  <ele>160.149658</ele>
  <time>2011-07-29T05:37:34Z</time>
  <speed>4.540000</speed>
</trkpt>
<trkpt lat="32.585708618" lon="35.007965088">
  <ele>159.934814</ele>
  <time>2011-07-29T05:37:35Z</time>
  <speed>2.830000</speed>
</trkpt>
<trkpt lat="32.585735321" lon="35.007965088">
  <ele>158.016846</ele>
  <time>2011-07-29T05:37:36Z</time>
  <speed>2.480000</speed>
</trkpt>
<trkpt lat="32.585758209" lon="35.007949829">
  <ele>155.774658</ele>
  <time>2011-07-29T05:37:38Z</time>
  <speed>0.890000</speed>
</trkpt>
<trkpt lat="32.585754395" lon="35.007896423">
  <ele>154.520752</ele>
  <time>2011-07-29T05:37:40Z</time>
  <speed>3.080000</speed>
</trkpt>
<trkpt lat="32.585758209" lon="35.007865906">
  <ele>153.684814</ele>
  <time>2011-07-29T05:37:41Z</time>
  <speed>3.220000</speed>
</trkpt>
<trkpt lat="32.585773468" lon="35.007827759">
  <ele>152.872314</ele>
  <time>2011-07-29T05:37:42Z</time>
  <speed>3.840000</speed>
</trkpt>
<trkpt lat="32.585788727" lon="35.007789612">
  <ele>152.270752</ele>
  <time>2011-07-29T05:37:43Z</time>
  <speed>3.590000</speed>
</trkpt>
<trkpt lat="32.585792542" lon="35.007755280">
  <ele>151.602783</ele>
  <time>2011-07-29T05:37:44Z</time>
  <speed>2.700000</speed>
</trkpt>
<trkpt lat="32.585773468" lon="35.007705688">
  <ele>150.098877</ele>
  <time>2011-07-29T05:37:46Z</time>
  <speed>2.880000</speed>
</trkpt>
<trkpt lat="32.585746765" lon="35.007690430">
  <ele>149.442627</ele>
  <time>2011-07-29T05:37:47Z</time>
  <speed>2.530000</speed>
</trkpt>
<trkpt lat="32.585723877" lon="35.007671356">
  <ele>148.977783</ele>
  <time>2011-07-29T05:37:48Z</time>
  <speed>2.500000</speed>
</trkpt>
<trkpt lat="32.585700989" lon="35.007652283">
  <ele>148.079346</ele>
  <time>2011-07-29T05:37:49Z</time>
  <speed>2.380000</speed>
</trkpt>
<trkpt lat="32.585681915" lon="35.007629395">
  <ele>147.403564</ele>
  <time>2011-07-29T05:37:50Z</time>
  <speed>3.230000</speed>
</trkpt>
<trkpt lat="32.585666656" lon="35.007595062">
  <ele>146.399658</ele>
  <time>2011-07-29T05:37:51Z</time>
  <speed>3.870000</speed>
</trkpt>
<trkpt lat="32.585647583" lon="35.007556915">
  <ele>145.286377</ele>
  <time>2011-07-29T05:37:52Z</time>
  <speed>3.370000</speed>
</trkpt>
<trkpt lat="32.585628510" lon="35.007534027">
  <ele>144.423096</ele>
  <time>2011-07-29T05:37:53Z</time>
  <speed>2.720000</speed>
</trkpt>
<trkpt lat="32.585605621" lon="35.007518768">
  <ele>143.497314</ele>
  <time>2011-07-29T05:37:54Z</time>
  <speed>2.950000</speed>
</trkpt>
<trkpt lat="32.585586548" lon="35.007484436">
  <ele>142.485596</ele>
  <time>2011-07-29T05:37:55Z</time>
  <speed>3.070000</speed>
</trkpt>
<trkpt lat="32.585586548" lon="35.007446289">
  <ele>141.516846</ele>
  <time>2011-07-29T05:37:56Z</time>
  <speed>2.290000</speed>
</trkpt>
<trkpt lat="32.585590363" lon="35.007408142">
  <ele>140.290283</ele>
  <time>2011-07-29T05:37:57Z</time>
  <speed>2.430000</speed>
</trkpt>
<trkpt lat="32.585632324" lon="35.007377625">
  <ele>139.450439</ele>
  <time>2011-07-29T05:37:59Z</time>
  <speed>2.240000</speed>
</trkpt>
<trkpt lat="32.585643768" lon="35.007324219">
  <ele>137.907471</ele>
  <time>2011-07-29T05:38:01Z</time>
  <speed>2.330000</speed>
</trkpt>
<trkpt lat="32.585643768" lon="35.007278442">
  <ele>137.524658</ele>
  <time>2011-07-29T05:38:02Z</time>
  <speed>3.200000</speed>
</trkpt>
<trkpt lat="32.585636139" lon="35.007236481">
  <ele>136.641846</ele>
  <time>2011-07-29T05:38:03Z</time>
  <speed>3.750000</speed>
</trkpt>
<trkpt lat="32.585609436" lon="35.007183075">
  <ele>136.048096</ele>
  <time>2011-07-29T05:38:04Z</time>
  <speed>4.130000</speed>
</trkpt>
<trkpt lat="32.585590363" lon="35.007148743">
  <ele>135.137939</ele>
  <time>2011-07-29T05:38:05Z</time>
  <speed>3.610000</speed>
</trkpt>
<trkpt lat="32.585563660" lon="35.007110596">
  <ele>135.364502</ele>
  <time>2011-07-29T05:38:06Z</time>
  <speed>3.440000</speed>
</trkpt>
<trkpt lat="32.585521698" lon="35.007064819">
  <ele>136.266846</ele>
  <time>2011-07-29T05:38:07Z</time>
  <speed>3.550000</speed>
</trkpt>
<trkpt lat="32.585494995" lon="35.007049561">
  <ele>135.762939</ele>
  <time>2011-07-29T05:38:08Z</time>
  <speed>2.920000</speed>
</trkpt>
<trkpt lat="32.585464478" lon="35.007045746">
  <ele>135.516846</ele>
  <time>2011-07-29T05:38:09Z</time>
  <speed>3.330000</speed>
</trkpt>
<trkpt lat="32.585426331" lon="35.006988525">
  <ele>136.423096</ele>
  <time>2011-07-29T05:38:10Z</time>
  <speed>3.450000</speed>
</trkpt>
<trkpt lat="32.585399628" lon="35.006965637">
  <ele>135.903564</ele>
  <time>2011-07-29T05:38:11Z</time>
  <speed>3.920000</speed>
</trkpt>
<trkpt lat="32.585369110" lon="35.006946564">
  <ele>135.985596</ele>
  <time>2011-07-29T05:38:12Z</time>
  <speed>3.690000</speed>
</trkpt>
<trkpt lat="32.585338593" lon="35.006904602">
  <ele>135.954346</ele>
  <time>2011-07-29T05:38:13Z</time>
  <speed>4.340000</speed>
</trkpt>
<trkpt lat="32.585315704" lon="35.006866455">
  <ele>135.559814</ele>
  <time>2011-07-29T05:38:14Z</time>
  <speed>4.670000</speed>
</trkpt>
<trkpt lat="32.585292816" lon="35.006820679">
  <ele>135.442627</ele>
  <time>2011-07-29T05:38:15Z</time>
  <speed>5.600000</speed>
</trkpt>
<trkpt lat="32.585269928" lon="35.006759644">
  <ele>134.723877</ele>
  <time>2011-07-29T05:38:16Z</time>
  <speed>5.780000</speed>
</trkpt>
<trkpt lat="32.585235596" lon="35.006706238">
  <ele>134.505127</ele>
  <time>2011-07-29T05:38:17Z</time>
  <speed>6.400000</speed>
</trkpt>
<trkpt lat="32.585205078" lon="35.006656647">
  <ele>134.188721</ele>
  <time>2011-07-29T05:38:18Z</time>
  <speed>5.570000</speed>
</trkpt>
<trkpt lat="32.585178375" lon="35.006610870">
  <ele>134.212158</ele>
  <time>2011-07-29T05:38:19Z</time>
  <speed>3.220000</speed>
</trkpt>
<trkpt lat="32.585155487" lon="35.006542206">
  <ele>134.481689</ele>
  <time>2011-07-29T05:38:20Z</time>
  <speed>2.830000</speed>
</trkpt>
<trkpt lat="32.585144043" lon="35.006504059">
  <ele>133.837158</ele>
  <time>2011-07-29T05:38:22Z</time>
  <speed>0.870000</speed>
</trkpt>
<trkpt lat="32.585124969" lon="35.006477356">
  <ele>134.669189</ele>
  <time>2011-07-29T05:38:27Z</time>
  <speed>0.620000</speed>
</trkpt>
<trkpt lat="32.585136414" lon="35.006439209">
  <ele>134.438721</ele>
  <time>2011-07-29T05:38:34Z</time>
  <speed>1.330000</speed>
</trkpt>
<trkpt lat="32.585151672" lon="35.006404877">
  <ele>134.829346</ele>
  <time>2011-07-29T05:38:36Z</time>
  <speed>1.870000</speed>
</trkpt>
<trkpt lat="32.585178375" lon="35.006366730">
  <ele>135.075439</ele>
  <time>2011-07-29T05:38:38Z</time>
  <speed>2.090000</speed>
</trkpt>
<trkpt lat="32.585220337" lon="35.006340027">
  <ele>136.102783</ele>
  <time>2011-07-29T05:38:40Z</time>
  <speed>2.460000</speed>
</trkpt>
<trkpt lat="32.585239410" lon="35.006290436">
  <ele>136.454346</ele>
  <time>2011-07-29T05:38:42Z</time>
  <speed>2.280000</speed>
</trkpt>
<trkpt lat="32.585250854" lon="35.006256104">
  <ele>136.852783</ele>
  <time>2011-07-29T05:38:44Z</time>
  <speed>1.840000</speed>
</trkpt>
<trkpt lat="32.585266113" lon="35.006221771">
  <ele>137.618408</ele>
  <time>2011-07-29T05:38:46Z</time>
  <speed>1.790000</speed>
</trkpt>
<trkpt lat="32.585277557" lon="35.006175995">
  <ele>138.497314</ele>
  <time>2011-07-29T05:38:48Z</time>
  <speed>2.110000</speed>
</trkpt>
<trkpt lat="32.585296631" lon="35.006134033">
  <ele>138.579346</ele>
  <time>2011-07-29T05:38:50Z</time>
  <speed>1.850000</speed>
</trkpt>
<trkpt lat="32.585319519" lon="35.006095886">
  <ele>139.149658</ele>
  <time>2011-07-29T05:38:52Z</time>
  <speed>2.260000</speed>
</trkpt>
<trkpt lat="32.585327148" lon="35.006053925">
  <ele>138.649658</ele>
  <time>2011-07-29T05:38:54Z</time>
  <speed>1.850000</speed>
</trkpt>
<trkpt lat="32.585327148" lon="35.006008148">
  <ele>138.969971</ele>
  <time>2011-07-29T05:38:56Z</time>
  <speed>2.010000</speed>
</trkpt>
<trkpt lat="32.585342407" lon="35.005973816">
  <ele>138.036377</ele>
  <time>2011-07-29T05:38:58Z</time>
  <speed>1.810000</speed>
</trkpt>
<trkpt lat="32.585361481" lon="35.005935669">
  <ele>137.641846</ele>
  <time>2011-07-29T05:39:00Z</time>
  <speed>1.960000</speed>
</trkpt>
<trkpt lat="32.585369110" lon="35.005886078">
  <ele>137.997314</ele>
  <time>2011-07-29T05:39:02Z</time>
  <speed>2.120000</speed>
</trkpt>
<trkpt lat="32.585372925" lon="35.005825043">
  <ele>138.923096</ele>
  <time>2011-07-29T05:39:04Z</time>
  <speed>2.300000</speed>
</trkpt>
<trkpt lat="32.585384369" lon="35.005790710">
  <ele>139.302002</ele>
  <time>2011-07-29T05:39:06Z</time>
  <speed>1.660000</speed>
</trkpt>
<trkpt lat="32.585391998" lon="35.005756378">
  <ele>139.899658</ele>
  <time>2011-07-29T05:39:08Z</time>
  <speed>2.150000</speed>
</trkpt>
<trkpt lat="32.585422516" lon="35.005725861">
  <ele>139.317627</ele>
  <time>2011-07-29T05:39:10Z</time>
  <speed>2.390000</speed>
</trkpt>
<trkpt lat="32.585449219" lon="35.005680084">
  <ele>140.356689</ele>
  <time>2011-07-29T05:39:12Z</time>
  <speed>2.570000</speed>
</trkpt>
<trkpt lat="32.585472107" lon="35.005630493">
  <ele>141.032471</ele>
  <time>2011-07-29T05:39:14Z</time>
  <speed>2.500000</speed>
</trkpt>
<trkpt lat="32.585487366" lon="35.005599976">
  <ele>140.860596</ele>
  <time>2011-07-29T05:39:15Z</time>
  <speed>2.670000</speed>
</trkpt>
<trkpt lat="32.585533142" lon="35.005569458">
  <ele>141.173096</ele>
  <time>2011-07-29T05:39:17Z</time>
  <speed>2.630000</speed>
</trkpt>
<trkpt lat="32.585578918" lon="35.005546570">
  <ele>140.509033</ele>
  <time>2011-07-29T05:39:19Z</time>
  <speed>3.120000</speed>
</trkpt>
<trkpt lat="32.585605621" lon="35.005531311">
  <ele>140.052002</ele>
  <time>2011-07-29T05:39:20Z</time>
  <speed>3.220000</speed>
</trkpt>
<trkpt lat="32.585628510" lon="35.005500793">
  <ele>139.766846</ele>
  <time>2011-07-29T05:39:21Z</time>
  <speed>3.890000</speed>
</trkpt>
<trkpt lat="32.585655212" lon="35.005470276">
  <ele>139.688721</ele>
  <time>2011-07-29T05:39:22Z</time>
  <speed>4.050000</speed>
</trkpt>
<trkpt lat="32.585678101" lon="35.005435944">
  <ele>139.583252</ele>
  <time>2011-07-29T05:39:23Z</time>
  <speed>3.660000</speed>
</trkpt>
<trkpt lat="32.585704803" lon="35.005405426">
  <ele>139.407471</ele>
  <time>2011-07-29T05:39:24Z</time>
  <speed>4.160000</speed>
</trkpt>
<trkpt lat="32.585731506" lon="35.005371094">
  <ele>139.302002</ele>
  <time>2011-07-29T05:39:25Z</time>
  <speed>4.780000</speed>
</trkpt>
<trkpt lat="32.585762024" lon="35.005321503">
  <ele>140.098877</ele>
  <time>2011-07-29T05:39:26Z</time>
  <speed>5.150000</speed>
</trkpt>
<trkpt lat="32.585781097" lon="35.005271912">
  <ele>139.298096</ele>
  <time>2011-07-29T05:39:27Z</time>
  <speed>4.750000</speed>
</trkpt>
<trkpt lat="32.585800171" lon="35.005222321">
  <ele>139.958252</ele>
  <time>2011-07-29T05:39:28Z</time>
  <speed>4.510000</speed>
</trkpt>
<trkpt lat="32.585830688" lon="35.005191803">
  <ele>141.075439</ele>
  <time>2011-07-29T05:39:29Z</time>
  <speed>3.960000</speed>
</trkpt>
<trkpt lat="32.585838318" lon="35.005157471">
  <ele>140.630127</ele>
  <time>2011-07-29T05:39:30Z</time>
  <speed>2.420000</speed>
</trkpt>
<trkpt lat="32.585834503" lon="35.005100250">
  <ele>141.899658</ele>
  <time>2011-07-29T05:39:32Z</time>
  <speed>2.490000</speed>
</trkpt>
<trkpt lat="32.585834503" lon="35.005065918">
  <ele>141.837158</ele>
  <time>2011-07-29T05:39:33Z</time>
  <speed>2.530000</speed>
</trkpt>
<trkpt lat="32.585857391" lon="35.005020142">
  <ele>141.809814</ele>
  <time>2011-07-29T05:39:35Z</time>
  <speed>2.350000</speed>
</trkpt>
<trkpt lat="32.585861206" lon="35.004989624">
  <ele>142.579346</ele>
  <time>2011-07-29T05:39:36Z</time>
  <speed>2.660000</speed>
</trkpt>
<trkpt lat="32.585876465" lon="35.004936218">
  <ele>143.380127</ele>
  <time>2011-07-29T05:39:38Z</time>
  <speed>1.480000</speed>
</trkpt>
<trkpt lat="32.585868835" lon="35.004905701">
  <ele>144.165283</ele>
  <time>2011-07-29T05:39:40Z</time>
  <speed>1.600000</speed>
</trkpt>
<trkpt lat="32.585853577" lon="35.004871368">
  <ele>143.977783</ele>
  <time>2011-07-29T05:39:41Z</time>
  <speed>1.840000</speed>
</trkpt>
<trkpt lat="32.585819244" lon="35.004837036">
  <ele>143.817627</ele>
  <time>2011-07-29T05:39:43Z</time>
  <speed>2.030000</speed>
</trkpt>
<trkpt lat="32.585796356" lon="35.004791260">
  <ele>144.911377</ele>
  <time>2011-07-29T05:39:45Z</time>
  <speed>1.810000</speed>
</trkpt>
<trkpt lat="32.585762024" lon="35.004768372">
  <ele>146.790283</ele>
  <time>2011-07-29T05:39:48Z</time>
  <speed>0.990000</speed>
</trkpt>
<trkpt lat="32.585727692" lon="35.004768372">
  <ele>147.458252</ele>
  <time>2011-07-29T05:39:50Z</time>
  <speed>2.450000</speed>
</trkpt>
<trkpt lat="32.585678101" lon="35.004753113">
  <ele>148.048096</ele>
  <time>2011-07-29T05:39:52Z</time>
  <speed>1.980000</speed>
</trkpt>
<trkpt lat="32.585639954" lon="35.004753113">
  <ele>149.009033</ele>
  <time>2011-07-29T05:39:54Z</time>
  <speed>1.660000</speed>
</trkpt>
<trkpt lat="32.585597992" lon="35.004760742">
  <ele>149.489502</ele>
  <time>2011-07-29T05:39:56Z</time>
  <speed>1.810000</speed>
</trkpt>
<trkpt lat="32.585556030" lon="35.004760742">
  <ele>149.360596</ele>
  <time>2011-07-29T05:39:58Z</time>
  <speed>1.950000</speed>
</trkpt>
<trkpt lat="32.585525513" lon="35.004745483">
  <ele>149.188721</ele>
  <time>2011-07-29T05:40:00Z</time>
  <speed>1.330000</speed>
</trkpt>
<trkpt lat="32.585521698" lon="35.004707336">
  <ele>148.680908</ele>
  <time>2011-07-29T05:40:03Z</time>
  <speed>1.170000</speed>
</trkpt>
<trkpt lat="32.585521698" lon="35.004669189">
  <ele>148.575439</ele>
  <time>2011-07-29T05:40:06Z</time>
  <speed>0.810000</speed>
</trkpt>
<trkpt lat="32.585502625" lon="35.004642487">
  <ele>149.114502</ele>
  <time>2011-07-29T05:40:43Z</time>
  <speed>1.660000</speed>
</trkpt>
<trkpt lat="32.585491180" lon="35.004596710">
  <ele>148.329346</ele>
  <time>2011-07-29T05:40:45Z</time>
  <speed>2.580000</speed>
</trkpt>
<trkpt lat="32.585460663" lon="35.004550934">
  <ele>147.266846</ele>
  <time>2011-07-29T05:40:47Z</time>
  <speed>3.170000</speed>
</trkpt>
<trkpt lat="32.585433960" lon="35.004524231">
  <ele>146.950439</ele>
  <time>2011-07-29T05:40:48Z</time>
  <speed>3.450000</speed>
</trkpt>
<trkpt lat="32.585414886" lon="35.004501343">
  <ele>146.380127</ele>
  <time>2011-07-29T05:40:49Z</time>
  <speed>3.300000</speed>
</trkpt>
<trkpt lat="32.585399628" lon="35.004470825">
  <ele>146.040283</ele>
  <time>2011-07-29T05:40:50Z</time>
  <speed>2.980000</speed>
</trkpt>
<trkpt lat="32.585395813" lon="35.004440308">
  <ele>145.247314</ele>
  <time>2011-07-29T05:40:51Z</time>
  <speed>2.950000</speed>
</trkpt>
<trkpt lat="32.585391998" lon="35.004405975">
  <ele>144.969971</ele>
  <time>2011-07-29T05:40:52Z</time>
  <speed>2.730000</speed>
</trkpt>
<trkpt lat="32.585372925" lon="35.004364014">
  <ele>143.477783</ele>
  <time>2011-07-29T05:40:54Z</time>
  <speed>2.300000</speed>
</trkpt>
<trkpt lat="32.585342407" lon="35.004329681">
  <ele>141.915283</ele>
  <time>2011-07-29T05:40:56Z</time>
  <speed>2.320000</speed>
</trkpt>
<trkpt lat="32.585330963" lon="35.004291534">
  <ele>140.630127</ele>
  <time>2011-07-29T05:40:58Z</time>
  <speed>2.010000</speed>
</trkpt>
<trkpt lat="32.585323334" lon="35.004245758">
  <ele>139.114502</ele>
  <time>2011-07-29T05:41:00Z</time>
  <speed>2.210000</speed>
</trkpt>
<trkpt lat="32.585308075" lon="35.004203796">
  <ele>137.594971</ele>
  <time>2011-07-29T05:41:02Z</time>
  <speed>1.890000</speed>
</trkpt>
<trkpt lat="32.585289001" lon="35.004169464">
  <ele>137.059814</ele>
  <time>2011-07-29T05:41:04Z</time>
  <speed>2.130000</speed>
</trkpt>
<trkpt lat="32.585289001" lon="35.004116058">
  <ele>135.567627</ele>
  <time>2011-07-29T05:41:06Z</time>
  <speed>2.890000</speed>
</trkpt>
<trkpt lat="32.585300446" lon="35.004085541">
  <ele>134.544189</ele>
  <time>2011-07-29T05:41:07Z</time>
  <speed>2.630000</speed>
</trkpt>
<trkpt lat="32.585296631" lon="35.004028320">
  <ele>133.700439</ele>
  <time>2011-07-29T05:41:09Z</time>
  <speed>2.050000</speed>
</trkpt>
<trkpt lat="32.585277557" lon="35.003982544">
  <ele>132.700439</ele>
  <time>2011-07-29T05:41:11Z</time>
  <speed>2.170000</speed>
</trkpt>
<trkpt lat="32.585266113" lon="35.003952026">
  <ele>131.512939</ele>
  <time>2011-07-29T05:41:13Z</time>
  <speed>1.350000</speed>
</trkpt>
<trkpt lat="32.585254669" lon="35.003906250">
  <ele>130.161377</ele>
  <time>2011-07-29T05:41:16Z</time>
  <speed>1.510000</speed>
</trkpt>
<trkpt lat="32.585227966" lon="35.003875732">
  <ele>128.739502</ele>
  <time>2011-07-29T05:41:18Z</time>
  <speed>1.810000</speed>
</trkpt>
<trkpt lat="32.585205078" lon="35.003822327">
  <ele>129.536377</ele>
  <time>2011-07-29T05:41:19Z</time>
  <speed>2.190000</speed>
</trkpt>
<trkpt lat="32.585193634" lon="35.003780365">
  <ele>128.223877</ele>
  <time>2011-07-29T05:41:21Z</time>
  <speed>1.590000</speed>
</trkpt>
<trkpt lat="32.585189819" lon="35.003749847">
  <ele>127.115845</ele>
  <time>2011-07-29T05:41:23Z</time>
  <speed>1.230000</speed>
</trkpt>
<trkpt lat="32.585212708" lon="35.003723145">
  <ele>127.061157</ele>
  <time>2011-07-29T05:41:36Z</time>
  <speed>0.990000</speed>
</trkpt>
<trkpt lat="32.585239410" lon="35.003692627">
  <ele>127.322876</ele>
  <time>2011-07-29T05:41:38Z</time>
  <speed>2.750000</speed>
</trkpt>
<trkpt lat="32.585258484" lon="35.003635406">
  <ele>126.969360</ele>
  <time>2011-07-29T05:41:40Z</time>
  <speed>2.800000</speed>
</trkpt>
<trkpt lat="32.585254669" lon="35.003601074">
  <ele>127.059204</ele>
  <time>2011-07-29T05:41:41Z</time>
  <speed>2.770000</speed>
</trkpt>
<trkpt lat="32.585250854" lon="35.003566742">
  <ele>126.693970</ele>
  <time>2011-07-29T05:41:42Z</time>
  <speed>3.500000</speed>
</trkpt>
<trkpt lat="32.585243225" lon="35.003532410">
  <ele>125.875610</ele>
  <time>2011-07-29T05:41:43Z</time>
  <speed>3.620000</speed>
</trkpt>
<trkpt lat="32.585235596" lon="35.003463745">
  <ele>125.109985</ele>
  <time>2011-07-29T05:41:45Z</time>
  <speed>2.430000</speed>
</trkpt>
<trkpt lat="32.585224152" lon="35.003421783">
  <ele>123.621704</ele>
  <time>2011-07-29T05:41:47Z</time>
  <speed>1.840000</speed>
</trkpt>
<trkpt lat="32.585208893" lon="35.003387451">
  <ele>123.016235</ele>
  <time>2011-07-29T05:41:49Z</time>
  <speed>1.950000</speed>
</trkpt>
<trkpt lat="32.585193634" lon="35.003337860">
  <ele>122.584595</ele>
  <time>2011-07-29T05:41:51Z</time>
  <speed>2.000000</speed>
</trkpt>
<trkpt lat="32.585170746" lon="35.003307343">
  <ele>121.668579</ele>
  <time>2011-07-29T05:41:53Z</time>
  <speed>1.400000</speed>
</trkpt>
<trkpt lat="32.585140228" lon="35.003288269">
  <ele>120.774048</ele>
  <time>2011-07-29T05:41:55Z</time>
  <speed>1.860000</speed>
</trkpt>
<trkpt lat="32.585098267" lon="35.003257751">
  <ele>120.713501</ele>
  <time>2011-07-29T05:41:57Z</time>
  <speed>2.090000</speed>
</trkpt>
<trkpt lat="32.585063934" lon="35.003231049">
  <ele>119.889282</ele>
  <time>2011-07-29T05:41:59Z</time>
  <speed>1.530000</speed>
</trkpt>
<trkpt lat="32.585056305" lon="35.003200531">
  <ele>118.916626</ele>
  <time>2011-07-29T05:42:05Z</time>
  <speed>0.880000</speed>
</trkpt>
<trkpt lat="32.585067749" lon="35.003170013">
  <ele>118.414673</ele>
  <time>2011-07-29T05:42:07Z</time>
  <speed>1.790000</speed>
</trkpt>
<trkpt lat="32.585044861" lon="35.003116608">
  <ele>117.641235</ele>
  <time>2011-07-29T05:42:09Z</time>
  <speed>2.750000</speed>
</trkpt>
<trkpt lat="32.585029602" lon="35.003089905">
  <ele>116.334595</ele>
  <time>2011-07-29T05:42:10Z</time>
  <speed>3.530000</speed>
</trkpt>
<trkpt lat="32.585006714" lon="35.003059387">
  <ele>115.350220</ele>
  <time>2011-07-29T05:42:11Z</time>
  <speed>3.530000</speed>
</trkpt>
<trkpt lat="32.584987640" lon="35.003032684">
  <ele>114.061157</ele>
  <time>2011-07-29T05:42:12Z</time>
  <speed>2.560000</speed>
</trkpt>
<trkpt lat="32.584968567" lon="35.002964020">
  <ele>112.656860</ele>
  <time>2011-07-29T05:42:14Z</time>
  <speed>2.810000</speed>
</trkpt>
<trkpt lat="32.584960938" lon="35.002922058">
  <ele>112.928345</ele>
  <time>2011-07-29T05:42:15Z</time>
  <speed>2.940000</speed>
</trkpt>
<trkpt lat="32.584945679" lon="35.002864838">
  <ele>113.127563</ele>
  <time>2011-07-29T05:42:17Z</time>
  <speed>2.040000</speed>
</trkpt>
<trkpt lat="32.584938049" lon="35.002822876">
  <ele>112.022095</ele>
  <time>2011-07-29T05:42:19Z</time>
  <speed>2.220000</speed>
</trkpt>
<trkpt lat="32.584926605" lon="35.002758026">
  <ele>111.547485</ele>
  <time>2011-07-29T05:42:21Z</time>
  <speed>2.960000</speed>
</trkpt>
<trkpt lat="32.584915161" lon="35.002723694">
  <ele>111.137329</ele>
  <time>2011-07-29T05:42:22Z</time>
  <speed>2.550000</speed>
</trkpt>
<trkpt lat="32.584899902" lon="35.002670288">
  <ele>109.986938</ele>
  <time>2011-07-29T05:42:24Z</time>
  <speed>2.520000</speed>
</trkpt>
<trkpt lat="32.584888458" lon="35.002628326">
  <ele>107.852173</ele>
  <time>2011-07-29T05:42:26Z</time>
  <speed>2.230000</speed>
</trkpt>
<trkpt lat="32.584915161" lon="35.002590179">
  <ele>106.303345</ele>
  <time>2011-07-29T05:42:28Z</time>
  <speed>2.390000</speed>
</trkpt>
<trkpt lat="32.584930420" lon="35.002555847">
  <ele>105.231079</ele>
  <time>2011-07-29T05:42:30Z</time>
  <speed>1.920000</speed>
</trkpt>
<trkpt lat="32.584957123" lon="35.002510071">
  <ele>103.768188</ele>
  <time>2011-07-29T05:42:32Z</time>
  <speed>2.780000</speed>
</trkpt>
<trkpt lat="32.584983826" lon="35.002471924">
  <ele>102.861938</ele>
  <time>2011-07-29T05:42:34Z</time>
  <speed>2.500000</speed>
</trkpt>
<trkpt lat="32.584999084" lon="35.002445221">
  <ele>101.526001</ele>
  <time>2011-07-29T05:42:35Z</time>
  <speed>2.320000</speed>
</trkpt>
<trkpt lat="32.585002899" lon="35.002388000">
  <ele>100.352173</ele>
  <time>2011-07-29T05:42:37Z</time>
  <speed>2.800000</speed>
</trkpt>
<trkpt lat="32.584991455" lon="35.002315521">
  <ele>101.643188</ele>
  <time>2011-07-29T05:42:38Z</time>
  <speed>2.980000</speed>
</trkpt>
<trkpt lat="32.584968567" lon="35.002239227">
  <ele>101.953735</ele>
  <time>2011-07-29T05:42:40Z</time>
  <speed>3.030000</speed>
</trkpt>
<trkpt lat="32.584953308" lon="35.002212524">
  <ele>101.315063</ele>
  <time>2011-07-29T05:42:41Z</time>
  <speed>3.270000</speed>
</trkpt>
<trkpt lat="32.584938049" lon="35.002182007">
  <ele>101.053345</ele>
  <time>2011-07-29T05:42:42Z</time>
  <speed>3.140000</speed>
</trkpt>
<trkpt lat="32.584918976" lon="35.002147675">
  <ele>101.690063</ele>
  <time>2011-07-29T05:42:43Z</time>
  <speed>3.040000</speed>
</trkpt>
<trkpt lat="32.584903717" lon="35.002120972">
  <ele>101.813110</ele>
  <time>2011-07-29T05:42:44Z</time>
  <speed>2.880000</speed>
</trkpt>
<trkpt lat="32.584884644" lon="35.002086639">
  <ele>101.793579</ele>
  <time>2011-07-29T05:42:45Z</time>
  <speed>2.520000</speed>
</trkpt>
<trkpt lat="32.584846497" lon="35.002048492">
  <ele>101.932251</ele>
  <time>2011-07-29T05:42:47Z</time>
  <speed>2.810000</speed>
</trkpt>
<trkpt lat="32.584823608" lon="35.002029419">
  <ele>101.961548</ele>
  <time>2011-07-29T05:42:48Z</time>
  <speed>2.900000</speed>
</trkpt>
<trkpt lat="32.584796906" lon="35.002014160">
  <ele>101.701782</ele>
  <time>2011-07-29T05:42:49Z</time>
  <speed>3.090000</speed>
</trkpt>
<trkpt lat="32.584770203" lon="35.001998901">
  <ele>100.967407</ele>
  <time>2011-07-29T05:42:50Z</time>
  <speed>3.120000</speed>
</trkpt>
<trkpt lat="32.584728241" lon="35.001983643">
  <ele>100.225220</ele>
  <time>2011-07-29T05:42:51Z</time>
  <speed>4.040000</speed>
</trkpt>
<trkpt lat="32.584690094" lon="35.001972198">
  <ele>99.717407</ele>
  <time>2011-07-29T05:42:52Z</time>
  <speed>3.700000</speed>
</trkpt>
<trkpt lat="32.584651947" lon="35.001972198">
  <ele>98.723267</ele>
  <time>2011-07-29T05:42:53Z</time>
  <speed>3.650000</speed>
</trkpt>
<trkpt lat="32.584617615" lon="35.001972198">
  <ele>98.266235</ele>
  <time>2011-07-29T05:42:54Z</time>
  <speed>3.580000</speed>
</trkpt>
<trkpt lat="32.584583282" lon="35.001964569">
  <ele>97.787720</ele>
  <time>2011-07-29T05:42:55Z</time>
  <speed>3.900000</speed>
</trkpt>
<trkpt lat="32.584537506" lon="35.001956940">
  <ele>96.867798</ele>
  <time>2011-07-29T05:42:56Z</time>
  <speed>5.120000</speed>
</trkpt>
<trkpt lat="32.584495544" lon="35.001941681">
  <ele>96.156860</ele>
  <time>2011-07-29T05:42:57Z</time>
  <speed>4.960000</speed>
</trkpt>
<trkpt lat="32.584449768" lon="35.001930237">
  <ele>95.678345</ele>
  <time>2011-07-29T05:42:58Z</time>
  <speed>4.910000</speed>
</trkpt>
<trkpt lat="32.584403992" lon="35.001922607">
  <ele>95.129517</ele>
  <time>2011-07-29T05:42:59Z</time>
  <speed>4.900000</speed>
</trkpt>
<trkpt lat="32.584362030" lon="35.001907349">
  <ele>94.719360</ele>
  <time>2011-07-29T05:43:00Z</time>
  <speed>4.430000</speed>
</trkpt>
<trkpt lat="32.584320068" lon="35.001869202">
  <ele>94.830688</ele>
  <time>2011-07-29T05:43:01Z</time>
  <speed>4.690000</speed>
</trkpt>
<trkpt lat="32.584289551" lon="35.001827240">
  <ele>93.633423</ele>
  <time>2011-07-29T05:43:02Z</time>
  <speed>4.790000</speed>
</trkpt>
<trkpt lat="32.584262848" lon="35.001777649">
  <ele>91.975220</ele>
  <time>2011-07-29T05:43:03Z</time>
  <speed>4.890000</speed>
</trkpt>
<trkpt lat="32.584236145" lon="35.001747131">
  <ele>91.410767</ele>
  <time>2011-07-29T05:43:04Z</time>
  <speed>4.360000</speed>
</trkpt>
<trkpt lat="32.584205627" lon="35.001735687">
  <ele>91.065063</ele>
  <time>2011-07-29T05:43:05Z</time>
  <speed>3.720000</speed>
</trkpt>
<trkpt lat="32.584175110" lon="35.001724243">
  <ele>90.719360</ele>
  <time>2011-07-29T05:43:06Z</time>
  <speed>3.220000</speed>
</trkpt>
<trkpt lat="32.584140778" lon="35.001712799">
  <ele>89.861938</ele>
  <time>2011-07-29T05:43:07Z</time>
  <speed>2.810000</speed>
</trkpt>
<trkpt lat="32.584102631" lon="35.001712799">
  <ele>89.901001</ele>
  <time>2011-07-29T05:43:08Z</time>
  <speed>2.440000</speed>
</trkpt>
<trkpt lat="32.584068298" lon="35.001716614">
  <ele>88.363892</ele>
  <time>2011-07-29T05:43:09Z</time>
  <speed>3.780000</speed>
</trkpt>
<trkpt lat="32.584045410" lon="35.001720428">
  <ele>87.399048</ele>
  <time>2011-07-29T05:43:10Z</time>
  <speed>2.390000</speed>
</trkpt>
<trkpt lat="32.584022522" lon="35.001743317">
  <ele>86.096313</ele>
  <time>2011-07-29T05:43:12Z</time>
  <speed>0.480000</speed>
</trkpt>
<trkpt lat="32.584011078" lon="35.001747131">
  <ele>83.445923</ele>
  <time>2011-07-29T05:43:25Z</time>
  <speed>0.170000</speed>
</trkpt>
<trkpt lat="32.584014893" lon="35.001796722">
  <ele>83.432251</ele>
  <time>2011-07-29T05:44:17Z</time>
  <speed>1.240000</speed>
</trkpt>
<trkpt lat="32.584033966" lon="35.001857758">
  <ele>84.016235</ele>
  <time>2011-07-29T05:44:19Z</time>
  <speed>2.330000</speed>
</trkpt>
<trkpt lat="32.584018707" lon="35.001903534">
  <ele>83.809204</ele>
  <time>2011-07-29T05:44:21Z</time>
  <speed>2.260000</speed>
</trkpt>
<trkpt lat="32.584011078" lon="35.001960754">
  <ele>84.016235</ele>
  <time>2011-07-29T05:44:23Z</time>
  <speed>2.410000</speed>
</trkpt>
<trkpt lat="32.584007263" lon="35.002010345">
  <ele>84.305298</ele>
  <time>2011-07-29T05:44:25Z</time>
  <speed>2.310000</speed>
</trkpt>
<trkpt lat="32.583992004" lon="35.002063751">
  <ele>84.430298</ele>
  <time>2011-07-29T05:44:27Z</time>
  <speed>2.360000</speed>
</trkpt>
<trkpt lat="32.583976746" lon="35.002113342">
  <ele>85.119751</ele>
  <time>2011-07-29T05:44:29Z</time>
  <speed>2.450000</speed>
</trkpt>
<trkpt lat="32.583946228" lon="35.002159119">
  <ele>85.490845</ele>
  <time>2011-07-29T05:44:31Z</time>
  <speed>2.950000</speed>
</trkpt>
<trkpt lat="32.583923340" lon="35.002212524">
  <ele>85.883423</ele>
  <time>2011-07-29T05:44:33Z</time>
  <speed>2.510000</speed>
</trkpt>
<trkpt lat="32.583889008" lon="35.002243042">
  <ele>85.787720</ele>
  <time>2011-07-29T05:44:35Z</time>
  <speed>2.370000</speed>
</trkpt>
<trkpt lat="32.583850861" lon="35.002277374">
  <ele>86.592407</ele>
  <time>2011-07-29T05:44:37Z</time>
  <speed>2.370000</speed>
</trkpt>
<trkpt lat="32.583824158" lon="35.002300262">
  <ele>86.947876</ele>
  <time>2011-07-29T05:44:39Z</time>
  <speed>2.150000</speed>
</trkpt>
<trkpt lat="32.583786011" lon="35.002323151">
  <ele>87.027954</ele>
  <time>2011-07-29T05:44:41Z</time>
  <speed>2.290000</speed>
</trkpt>
<trkpt lat="32.583759308" lon="35.002349854">
  <ele>87.391235</ele>
  <time>2011-07-29T05:44:43Z</time>
  <speed>2.200000</speed>
</trkpt>
<trkpt lat="32.583724976" lon="35.002380371">
  <ele>87.190063</ele>
  <time>2011-07-29T05:44:45Z</time>
  <speed>2.240000</speed>
</trkpt>
<trkpt lat="32.583690643" lon="35.002403259">
  <ele>87.225220</ele>
  <time>2011-07-29T05:44:47Z</time>
  <speed>2.450000</speed>
</trkpt>
<trkpt lat="32.583648682" lon="35.002426147">
  <ele>87.354126</ele>
  <time>2011-07-29T05:44:49Z</time>
  <speed>2.470000</speed>
</trkpt>
<trkpt lat="32.583614349" lon="35.002452850">
  <ele>87.301392</ele>
  <time>2011-07-29T05:44:51Z</time>
  <speed>1.840000</speed>
</trkpt>
<trkpt lat="32.583587646" lon="35.002475739">
  <ele>87.217407</ele>
  <time>2011-07-29T05:44:53Z</time>
  <speed>2.050000</speed>
</trkpt>
<trkpt lat="32.583549500" lon="35.002498627">
  <ele>86.873657</ele>
  <time>2011-07-29T05:44:55Z</time>
  <speed>2.300000</speed>
</trkpt>
<trkpt lat="32.583518982" lon="35.002532959">
  <ele>87.227173</ele>
  <time>2011-07-29T05:44:57Z</time>
  <speed>1.910000</speed>
</trkpt>
<trkpt lat="32.583492279" lon="35.002563477">
  <ele>87.309204</ele>
  <time>2011-07-29T05:44:59Z</time>
  <speed>2.080000</speed>
</trkpt>
<trkpt lat="32.583469391" lon="35.002597809">
  <ele>87.488892</ele>
  <time>2011-07-29T05:45:01Z</time>
  <speed>1.910000</speed>
</trkpt>
<trkpt lat="32.583446503" lon="35.002639771">
  <ele>87.764282</ele>
  <time>2011-07-29T05:45:03Z</time>
  <speed>2.680000</speed>
</trkpt>
<trkpt lat="32.583457947" lon="35.002670288">
  <ele>88.260376</ele>
  <time>2011-07-29T05:45:04Z</time>
  <speed>2.270000</speed>
</trkpt>
<trkpt lat="32.583423615" lon="35.002704620">
  <ele>88.893188</ele>
  <time>2011-07-29T05:45:06Z</time>
  <speed>1.930000</speed>
</trkpt>
<trkpt lat="32.583389282" lon="35.002727509">
  <ele>90.602173</ele>
  <time>2011-07-29T05:45:07Z</time>
  <speed>2.200000</speed>
</trkpt>
<trkpt lat="32.583354950" lon="35.002746582">
  <ele>90.846313</ele>
  <time>2011-07-29T05:45:09Z</time>
  <speed>2.120000</speed>
</trkpt>
<trkpt lat="32.583309174" lon="35.002761841">
  <ele>90.764282</ele>
  <time>2011-07-29T05:45:11Z</time>
  <speed>2.050000</speed>
</trkpt>
<trkpt lat="32.583278656" lon="35.002784729">
  <ele>91.115845</ele>
  <time>2011-07-29T05:45:13Z</time>
  <speed>2.000000</speed>
</trkpt>
<trkpt lat="32.583244324" lon="35.002796173">
  <ele>91.537720</ele>
  <time>2011-07-29T05:45:15Z</time>
  <speed>1.970000</speed>
</trkpt>
<trkpt lat="32.583221436" lon="35.002834320">
  <ele>91.375610</ele>
  <time>2011-07-29T05:45:17Z</time>
  <speed>1.950000</speed>
</trkpt>
<trkpt lat="32.583194733" lon="35.002876282">
  <ele>91.330688</ele>
  <time>2011-07-29T05:45:19Z</time>
  <speed>1.980000</speed>
</trkpt>
<trkpt lat="32.583160400" lon="35.002902985">
  <ele>91.467407</ele>
  <time>2011-07-29T05:45:21Z</time>
  <speed>2.310000</speed>
</trkpt>
<trkpt lat="32.583129883" lon="35.002933502">
  <ele>92.059204</ele>
  <time>2011-07-29T05:45:23Z</time>
  <speed>2.230000</speed>
</trkpt>
<trkpt lat="32.583099365" lon="35.002956390">
  <ele>92.031860</ele>
  <time>2011-07-29T05:45:25Z</time>
  <speed>2.050000</speed>
</trkpt>
<trkpt lat="32.583072662" lon="35.002979279">
  <ele>92.287720</ele>
  <time>2011-07-29T05:45:27Z</time>
  <speed>2.060000</speed>
</trkpt>
<trkpt lat="32.583045959" lon="35.002998352">
  <ele>92.715454</ele>
  <time>2011-07-29T05:45:29Z</time>
  <speed>2.240000</speed>
</trkpt>
<trkpt lat="32.583011627" lon="35.003025055">
  <ele>93.617798</ele>
  <time>2011-07-29T05:45:31Z</time>
  <speed>2.100000</speed>
</trkpt>
<trkpt lat="32.582984924" lon="35.003063202">
  <ele>93.783813</ele>
  <time>2011-07-29T05:45:33Z</time>
  <speed>1.920000</speed>
</trkpt>
<trkpt lat="32.582954407" lon="35.003082275">
  <ele>93.899048</ele>
  <time>2011-07-29T05:45:35Z</time>
  <speed>2.020000</speed>
</trkpt>
<trkpt lat="32.582923889" lon="35.003112793">
  <ele>93.969360</ele>
  <time>2011-07-29T05:45:37Z</time>
  <speed>1.920000</speed>
</trkpt>
<trkpt lat="32.582893372" lon="35.003131866">
  <ele>94.408813</ele>
  <time>2011-07-29T05:45:39Z</time>
  <speed>2.100000</speed>
</trkpt>
<trkpt lat="32.582859039" lon="35.003154755">
  <ele>94.438110</ele>
  <time>2011-07-29T05:45:41Z</time>
  <speed>2.090000</speed>
</trkpt>
<trkpt lat="32.582824707" lon="35.003177643">
  <ele>94.389282</ele>
  <time>2011-07-29T05:45:43Z</time>
  <speed>1.870000</speed>
</trkpt>
<trkpt lat="32.582790375" lon="35.003189087">
  <ele>94.178345</ele>
  <time>2011-07-29T05:45:45Z</time>
  <speed>1.900000</speed>
</trkpt>
<trkpt lat="32.582759857" lon="35.003204346">
  <ele>93.225220</ele>
  <time>2011-07-29T05:45:47Z</time>
  <speed>2.300000</speed>
</trkpt>
<trkpt lat="32.582729340" lon="35.003242493">
  <ele>93.795532</ele>
  <time>2011-07-29T05:45:49Z</time>
  <speed>2.420000</speed>
</trkpt>
<trkpt lat="32.582679749" lon="35.003253937">
  <ele>93.869751</ele>
  <time>2011-07-29T05:45:51Z</time>
  <speed>2.640000</speed>
</trkpt>
<trkpt lat="32.582656860" lon="35.003269196">
  <ele>93.692017</ele>
  <time>2011-07-29T05:45:52Z</time>
  <speed>2.490000</speed>
</trkpt>
<trkpt lat="32.582622528" lon="35.003288269">
  <ele>93.647095</ele>
  <time>2011-07-29T05:45:54Z</time>
  <speed>1.740000</speed>
</trkpt>
<trkpt lat="32.582592010" lon="35.003314972">
  <ele>93.234985</ele>
  <time>2011-07-29T05:45:56Z</time>
  <speed>1.900000</speed>
</trkpt>
<trkpt lat="32.582557678" lon="35.003314972">
  <ele>92.994751</ele>
  <time>2011-07-29T05:45:58Z</time>
  <speed>2.070000</speed>
</trkpt>
<trkpt lat="32.582527161" lon="35.003322601">
  <ele>92.580688</ele>
  <time>2011-07-29T05:46:00Z</time>
  <speed>1.890000</speed>
</trkpt>
<trkpt lat="32.582496643" lon="35.003330231">
  <ele>91.957642</ele>
  <time>2011-07-29T05:46:02Z</time>
  <speed>1.600000</speed>
</trkpt>
<trkpt lat="32.582462311" lon="35.003341675">
  <ele>91.772095</ele>
  <time>2011-07-29T05:46:04Z</time>
  <speed>1.830000</speed>
</trkpt>
<trkpt lat="32.582443237" lon="35.003360748">
  <ele>92.660767</ele>
  <time>2011-07-29T05:46:05Z</time>
  <speed>2.000000</speed>
</trkpt>
<trkpt lat="32.582405090" lon="35.003376007">
  <ele>92.746704</ele>
  <time>2011-07-29T05:46:07Z</time>
  <speed>2.040000</speed>
</trkpt>
<trkpt lat="32.582370758" lon="35.003402710">
  <ele>93.264282</ele>
  <time>2011-07-29T05:46:09Z</time>
  <speed>1.940000</speed>
</trkpt>
<trkpt lat="32.582344055" lon="35.003421783">
  <ele>93.625610</ele>
  <time>2011-07-29T05:46:11Z</time>
  <speed>1.920000</speed>
</trkpt>
<trkpt lat="32.582305908" lon="35.003440857">
  <ele>93.238892</ele>
  <time>2011-07-29T05:46:13Z</time>
  <speed>2.320000</speed>
</trkpt>
<trkpt lat="32.582271576" lon="35.003444672">
  <ele>93.623657</ele>
  <time>2011-07-29T05:46:15Z</time>
  <speed>1.450000</speed>
</trkpt>
<trkpt lat="32.582241058" lon="35.003437042">
  <ele>94.213501</ele>
  <time>2011-07-29T05:46:17Z</time>
  <speed>1.680000</speed>
</trkpt>
<trkpt lat="32.582206726" lon="35.003437042">
  <ele>94.279907</ele>
  <time>2011-07-29T05:46:19Z</time>
  <speed>2.040000</speed>
</trkpt>
<trkpt lat="32.582172394" lon="35.003448486">
  <ele>94.098267</ele>
  <time>2011-07-29T05:46:21Z</time>
  <speed>1.900000</speed>
</trkpt>
<trkpt lat="32.582149506" lon="35.003456116">
  <ele>95.086548</ele>
  <time>2011-07-29T05:46:22Z</time>
  <speed>2.140000</speed>
</trkpt>
<trkpt lat="32.582118988" lon="35.003467560">
  <ele>95.102173</ele>
  <time>2011-07-29T05:46:24Z</time>
  <speed>1.670000</speed>
</trkpt>
<trkpt lat="32.582088470" lon="35.003486633">
  <ele>95.352173</ele>
  <time>2011-07-29T05:46:26Z</time>
  <speed>2.150000</speed>
</trkpt>
<trkpt lat="32.582057953" lon="35.003517151">
  <ele>95.774048</ele>
  <time>2011-07-29T05:46:28Z</time>
  <speed>2.320000</speed>
</trkpt>
<trkpt lat="32.582027435" lon="35.003536224">
  <ele>95.543579</ele>
  <time>2011-07-29T05:46:30Z</time>
  <speed>2.140000</speed>
</trkpt>
<trkpt lat="32.582008362" lon="35.003566742">
  <ele>95.453735</ele>
  <time>2011-07-29T05:46:32Z</time>
  <speed>1.910000</speed>
</trkpt>
<trkpt lat="32.581981659" lon="35.003589630">
  <ele>95.393188</ele>
  <time>2011-07-29T05:46:34Z</time>
  <speed>1.640000</speed>
</trkpt>
<trkpt lat="32.581954956" lon="35.003608704">
  <ele>95.465454</ele>
  <time>2011-07-29T05:46:36Z</time>
  <speed>1.600000</speed>
</trkpt>
<trkpt lat="32.581924438" lon="35.003620148">
  <ele>95.451782</ele>
  <time>2011-07-29T05:46:38Z</time>
  <speed>1.710000</speed>
</trkpt>
<trkpt lat="32.581890106" lon="35.003631592">
  <ele>95.434204</ele>
  <time>2011-07-29T05:46:40Z</time>
  <speed>1.780000</speed>
</trkpt>
<trkpt lat="32.581859589" lon="35.003643036">
  <ele>95.213501</ele>
  <time>2011-07-29T05:46:42Z</time>
  <speed>1.420000</speed>
</trkpt>
<trkpt lat="32.581829071" lon="35.003646851">
  <ele>95.406860</ele>
  <time>2011-07-29T05:46:44Z</time>
  <speed>1.640000</speed>
</trkpt>
<trkpt lat="32.581794739" lon="35.003654480">
  <ele>96.283813</ele>
  <time>2011-07-29T05:46:46Z</time>
  <speed>1.850000</speed>
</trkpt>
<trkpt lat="32.581768036" lon="35.003681183">
  <ele>96.006470</ele>
  <time>2011-07-29T05:46:48Z</time>
  <speed>1.650000</speed>
</trkpt>
<trkpt lat="32.581756592" lon="35.003707886">
  <ele>95.727173</ele>
  <time>2011-07-29T05:46:49Z</time>
  <speed>1.780000</speed>
</trkpt>
<trkpt lat="32.581729889" lon="35.003757477">
  <ele>96.484985</ele>
  <time>2011-07-29T05:46:51Z</time>
  <speed>1.720000</speed>
</trkpt>
<trkpt lat="32.581699371" lon="35.003780365">
  <ele>97.649048</ele>
  <time>2011-07-29T05:46:53Z</time>
  <speed>2.080000</speed>
</trkpt>
<trkpt lat="32.581672668" lon="35.003799438">
  <ele>98.043579</ele>
  <time>2011-07-29T05:46:55Z</time>
  <speed>1.880000</speed>
</trkpt>
<trkpt lat="32.581642151" lon="35.003826141">
  <ele>99.135376</ele>
  <time>2011-07-29T05:46:57Z</time>
  <speed>1.620000</speed>
</trkpt>
<trkpt lat="32.581619263" lon="35.003852844">
  <ele>99.568970</ele>
  <time>2011-07-29T05:46:59Z</time>
  <speed>1.920000</speed>
</trkpt>
<trkpt lat="32.581588745" lon="35.003879547">
  <ele>100.174438</ele>
  <time>2011-07-29T05:47:01Z</time>
  <speed>1.790000</speed>
</trkpt>
<trkpt lat="32.581558228" lon="35.003902435">
  <ele>100.947876</ele>
  <time>2011-07-29T05:47:03Z</time>
  <speed>1.840000</speed>
</trkpt>
<trkpt lat="32.581531525" lon="35.003929138">
  <ele>101.180298</ele>
  <time>2011-07-29T05:47:05Z</time>
  <speed>1.680000</speed>
</trkpt>
<trkpt lat="32.581501007" lon="35.003948212">
  <ele>101.639282</ele>
  <time>2011-07-29T05:47:07Z</time>
  <speed>1.730000</speed>
</trkpt>
<trkpt lat="32.581474304" lon="35.003971100">
  <ele>102.442017</ele>
  <time>2011-07-29T05:47:09Z</time>
  <speed>1.930000</speed>
</trkpt>
<trkpt lat="32.581436157" lon="35.003986359">
  <ele>103.244751</ele>
  <time>2011-07-29T05:47:11Z</time>
  <speed>1.940000</speed>
</trkpt>
<trkpt lat="32.581405640" lon="35.004001617">
  <ele>103.371704</ele>
  <time>2011-07-29T05:47:13Z</time>
  <speed>1.660000</speed>
</trkpt>
<trkpt lat="32.581382751" lon="35.004016876">
  <ele>104.568970</ele>
  <time>2011-07-29T05:47:15Z</time>
  <speed>1.890000</speed>
</trkpt>
<trkpt lat="32.581344604" lon="35.004039764">
  <ele>104.334595</ele>
  <time>2011-07-29T05:47:17Z</time>
  <speed>2.030000</speed>
</trkpt>
<trkpt lat="32.581317902" lon="35.004058838">
  <ele>105.049438</ele>
  <time>2011-07-29T05:47:19Z</time>
  <speed>1.930000</speed>
</trkpt>
<trkpt lat="32.581287384" lon="35.004089355">
  <ele>105.111938</ele>
  <time>2011-07-29T05:47:21Z</time>
  <speed>1.950000</speed>
</trkpt>
<trkpt lat="32.581256866" lon="35.004104614">
  <ele>105.785767</ele>
  <time>2011-07-29T05:47:23Z</time>
  <speed>1.870000</speed>
</trkpt>
<trkpt lat="32.581233978" lon="35.004135132">
  <ele>106.070923</ele>
  <time>2011-07-29T05:47:25Z</time>
  <speed>2.060000</speed>
</trkpt>
<trkpt lat="32.581207275" lon="35.004158020">
  <ele>105.938110</ele>
  <time>2011-07-29T05:47:27Z</time>
  <speed>1.780000</speed>
</trkpt>
<trkpt lat="32.581180573" lon="35.004192352">
  <ele>106.606079</ele>
  <time>2011-07-29T05:47:29Z</time>
  <speed>1.690000</speed>
</trkpt>
<trkpt lat="32.581161499" lon="35.004219055">
  <ele>107.133423</ele>
  <time>2011-07-29T05:47:31Z</time>
  <speed>1.940000</speed>
</trkpt>
<trkpt lat="32.581150055" lon="35.004257202">
  <ele>107.295532</ele>
  <time>2011-07-29T05:47:33Z</time>
  <speed>1.910000</speed>
</trkpt>
<trkpt lat="32.581111908" lon="35.004280090">
  <ele>107.094360</ele>
  <time>2011-07-29T05:47:35Z</time>
  <speed>1.980000</speed>
</trkpt>
<trkpt lat="32.581085205" lon="35.004306793">
  <ele>107.762329</ele>
  <time>2011-07-29T05:47:37Z</time>
  <speed>2.070000</speed>
</trkpt>
<trkpt lat="32.581069946" lon="35.004337311">
  <ele>106.856079</ele>
  <time>2011-07-29T05:47:39Z</time>
  <speed>1.850000</speed>
</trkpt>
<trkpt lat="32.581043243" lon="35.004367828">
  <ele>107.828735</ele>
  <time>2011-07-29T05:47:41Z</time>
  <speed>1.650000</speed>
</trkpt>
<trkpt lat="32.581027985" lon="35.004405975">
  <ele>108.330688</ele>
  <time>2011-07-29T05:47:43Z</time>
  <speed>2.030000</speed>
</trkpt>
<trkpt lat="32.581008911" lon="35.004444122">
  <ele>108.399048</ele>
  <time>2011-07-29T05:47:45Z</time>
  <speed>2.310000</speed>
</trkpt>
<trkpt lat="32.580997467" lon="35.004474640">
  <ele>108.697876</ele>
  <time>2011-07-29T05:47:46Z</time>
  <speed>1.810000</speed>
</trkpt>
<trkpt lat="32.580978394" lon="35.004512787">
  <ele>109.473267</ele>
  <time>2011-07-29T05:47:48Z</time>
  <speed>2.030000</speed>
</trkpt>
<trkpt lat="32.580966949" lon="35.004558563">
  <ele>110.141235</ele>
  <time>2011-07-29T05:47:50Z</time>
  <speed>1.990000</speed>
</trkpt>
<trkpt lat="32.580947876" lon="35.004589081">
  <ele>109.109985</ele>
  <time>2011-07-29T05:47:52Z</time>
  <speed>2.000000</speed>
</trkpt>
<trkpt lat="32.580936432" lon="35.004631042">
  <ele>108.693970</ele>
  <time>2011-07-29T05:47:54Z</time>
  <speed>2.080000</speed>
</trkpt>
<trkpt lat="32.580932617" lon="35.004680634">
  <ele>108.371704</ele>
  <time>2011-07-29T05:47:56Z</time>
  <speed>1.830000</speed>
</trkpt>
<trkpt lat="32.580932617" lon="35.004730225">
  <ele>107.756470</ele>
  <time>2011-07-29T05:47:58Z</time>
  <speed>1.990000</speed>
</trkpt>
<trkpt lat="32.580924988" lon="35.004779816">
  <ele>107.774048</ele>
  <time>2011-07-29T05:48:00Z</time>
  <speed>1.870000</speed>
</trkpt>
<trkpt lat="32.580947876" lon="35.004829407">
  <ele>107.686157</ele>
  <time>2011-07-29T05:48:02Z</time>
  <speed>2.860000</speed>
</trkpt>
<trkpt lat="32.580959320" lon="35.004867554">
  <ele>108.313110</ele>
  <time>2011-07-29T05:48:04Z</time>
  <speed>1.470000</speed>
</trkpt>
<trkpt lat="32.580951691" lon="35.004905701">
  <ele>107.942017</ele>
  <time>2011-07-29T05:48:06Z</time>
  <speed>2.080000</speed>
</trkpt>
<trkpt lat="32.580940247" lon="35.004947662">
  <ele>108.031860</ele>
  <time>2011-07-29T05:48:08Z</time>
  <speed>1.930000</speed>
</trkpt>
<trkpt lat="32.580932617" lon="35.004989624">
  <ele>108.332642</ele>
  <time>2011-07-29T05:48:10Z</time>
  <speed>1.890000</speed>
</trkpt>
<trkpt lat="32.580928802" lon="35.005023956">
  <ele>107.846313</ele>
  <time>2011-07-29T05:48:12Z</time>
  <speed>1.600000</speed>
</trkpt>
<trkpt lat="32.580921173" lon="35.005054474">
  <ele>107.887329</ele>
  <time>2011-07-29T05:48:14Z</time>
  <speed>1.320000</speed>
</trkpt>
<trkpt lat="32.580917358" lon="35.005092621">
  <ele>108.262329</ele>
  <time>2011-07-29T05:48:17Z</time>
  <speed>1.370000</speed>
</trkpt>
<trkpt lat="32.580909729" lon="35.005126953">
  <ele>108.272095</ele>
  <time>2011-07-29T05:48:19Z</time>
  <speed>1.620000</speed>
</trkpt>
<trkpt lat="32.580905914" lon="35.005168915">
  <ele>109.533813</ele>
  <time>2011-07-29T05:48:21Z</time>
  <speed>1.650000</speed>
</trkpt>
<trkpt lat="32.580905914" lon="35.005199432">
  <ele>108.695923</ele>
  <time>2011-07-29T05:48:23Z</time>
  <speed>1.700000</speed>
</trkpt>
<trkpt lat="32.580894470" lon="35.005241394">
  <ele>109.656860</ele>
  <time>2011-07-29T05:48:25Z</time>
  <speed>1.800000</speed>
</trkpt>
<trkpt lat="32.580886841" lon="35.005287170">
  <ele>110.211548</ele>
  <time>2011-07-29T05:48:27Z</time>
  <speed>1.960000</speed>
</trkpt>
<trkpt lat="32.580871582" lon="35.005329132">
  <ele>110.609985</ele>
  <time>2011-07-29T05:48:29Z</time>
  <speed>1.920000</speed>
</trkpt>
<trkpt lat="32.580867767" lon="35.005367279">
  <ele>111.104126</ele>
  <time>2011-07-29T05:48:31Z</time>
  <speed>1.640000</speed>
</trkpt>
<trkpt lat="32.580856323" lon="35.005413055">
  <ele>110.906860</ele>
  <time>2011-07-29T05:48:34Z</time>
  <speed>1.670000</speed>
</trkpt>
<trkpt lat="32.580863953" lon="35.005447388">
  <ele>111.301392</ele>
  <time>2011-07-29T05:48:36Z</time>
  <speed>1.580000</speed>
</trkpt>
<trkpt lat="32.580860138" lon="35.005481720">
  <ele>110.756470</ele>
  <time>2011-07-29T05:48:38Z</time>
  <speed>1.650000</speed>
</trkpt>
<trkpt lat="32.580852509" lon="35.005523682">
  <ele>111.533813</ele>
  <time>2011-07-29T05:48:40Z</time>
  <speed>1.830000</speed>
</trkpt>
<trkpt lat="32.580856323" lon="35.005558014">
  <ele>111.537720</ele>
  <time>2011-07-29T05:48:42Z</time>
  <speed>1.660000</speed>
</trkpt>
<trkpt lat="32.580856323" lon="35.005596161">
  <ele>111.711548</ele>
  <time>2011-07-29T05:48:44Z</time>
  <speed>2.040000</speed>
</trkpt>
<trkpt lat="32.580863953" lon="35.005638123">
  <ele>111.627563</ele>
  <time>2011-07-29T05:48:46Z</time>
  <speed>1.790000</speed>
</trkpt>
<trkpt lat="32.580863953" lon="35.005687714">
  <ele>111.592407</ele>
  <time>2011-07-29T05:48:48Z</time>
  <speed>2.020000</speed>
</trkpt>
<trkpt lat="32.580867767" lon="35.005729675">
  <ele>111.563110</ele>
  <time>2011-07-29T05:48:50Z</time>
  <speed>1.540000</speed>
</trkpt>
<trkpt lat="32.580867767" lon="35.005760193">
  <ele>111.834595</ele>
  <time>2011-07-29T05:48:52Z</time>
  <speed>2.060000</speed>
</trkpt>
<trkpt lat="32.580875397" lon="35.005805969">
  <ele>111.994751</ele>
  <time>2011-07-29T05:48:54Z</time>
  <speed>2.020000</speed>
</trkpt>
<trkpt lat="32.580883026" lon="35.005844116">
  <ele>112.262329</ele>
  <time>2011-07-29T05:48:56Z</time>
  <speed>1.620000</speed>
</trkpt>
<trkpt lat="32.580883026" lon="35.005882263">
  <ele>112.156860</ele>
  <time>2011-07-29T05:48:58Z</time>
  <speed>1.790000</speed>
</trkpt>
<trkpt lat="32.580883026" lon="35.005928040">
  <ele>113.078735</ele>
  <time>2011-07-29T05:49:00Z</time>
  <speed>1.640000</speed>
</trkpt>
<trkpt lat="32.580875397" lon="35.005966187">
  <ele>114.002563</ele>
  <time>2011-07-29T05:49:02Z</time>
  <speed>1.750000</speed>
</trkpt>
<trkpt lat="32.580875397" lon="35.006000519">
  <ele>113.961548</ele>
  <time>2011-07-29T05:49:04Z</time>
  <speed>1.760000</speed>
</trkpt>
<trkpt lat="32.580863953" lon="35.006034851">
  <ele>114.401001</ele>
  <time>2011-07-29T05:49:06Z</time>
  <speed>1.870000</speed>
</trkpt>
<trkpt lat="32.580860138" lon="35.006084442">
  <ele>114.375610</ele>
  <time>2011-07-29T05:49:08Z</time>
  <speed>2.030000</speed>
</trkpt>
<trkpt lat="32.580856323" lon="35.006118774">
  <ele>114.324829</ele>
  <time>2011-07-29T05:49:10Z</time>
  <speed>1.780000</speed>
</trkpt>
<trkpt lat="32.580856323" lon="35.006156921">
  <ele>114.201782</ele>
  <time>2011-07-29T05:49:12Z</time>
  <speed>1.680000</speed>
</trkpt>
<trkpt lat="32.580856323" lon="35.006198883">
  <ele>113.830688</ele>
  <time>2011-07-29T05:49:14Z</time>
  <speed>2.100000</speed>
</trkpt>
<trkpt lat="32.580833435" lon="35.006244659">
  <ele>114.649048</ele>
  <time>2011-07-29T05:49:16Z</time>
  <speed>2.260000</speed>
</trkpt>
<trkpt lat="32.580818176" lon="35.006278992">
  <ele>115.024048</ele>
  <time>2011-07-29T05:49:18Z</time>
  <speed>2.310000</speed>
</trkpt>
<trkpt lat="32.580810547" lon="35.006324768">
  <ele>115.709595</ele>
  <time>2011-07-29T05:49:20Z</time>
  <speed>1.950000</speed>
</trkpt>
<trkpt lat="32.580814362" lon="35.006366730">
  <ele>115.723267</ele>
  <time>2011-07-29T05:49:22Z</time>
  <speed>1.910000</speed>
</trkpt>
<trkpt lat="32.580825806" lon="35.006412506">
  <ele>116.070923</ele>
  <time>2011-07-29T05:49:24Z</time>
  <speed>1.900000</speed>
</trkpt>
<trkpt lat="32.580837250" lon="35.006450653">
  <ele>116.080688</ele>
  <time>2011-07-29T05:49:26Z</time>
  <speed>1.850000</speed>
</trkpt>
<trkpt lat="32.580848694" lon="35.006488800">
  <ele>116.234985</ele>
  <time>2011-07-29T05:49:28Z</time>
  <speed>1.850000</speed>
</trkpt>
<trkpt lat="32.580852509" lon="35.006534576">
  <ele>116.457642</ele>
  <time>2011-07-29T05:49:30Z</time>
  <speed>2.030000</speed>
</trkpt>
<trkpt lat="32.580863953" lon="35.006587982">
  <ele>116.994751</ele>
  <time>2011-07-29T05:49:32Z</time>
  <speed>1.960000</speed>
</trkpt>
<trkpt lat="32.580833435" lon="35.006614685">
  <ele>117.135376</ele>
  <time>2011-07-29T05:49:34Z</time>
  <speed>2.250000</speed>
</trkpt>
<trkpt lat="32.580795288" lon="35.006656647">
  <ele>117.686157</ele>
  <time>2011-07-29T05:49:36Z</time>
  <speed>1.910000</speed>
</trkpt>
<trkpt lat="32.580783844" lon="35.006694794">
  <ele>117.832642</ele>
  <time>2011-07-29T05:49:38Z</time>
  <speed>1.580000</speed>
</trkpt>
<trkpt lat="32.580780029" lon="35.006729126">
  <ele>117.979126</ele>
  <time>2011-07-29T05:49:40Z</time>
  <speed>2.060000</speed>
</trkpt>
<trkpt lat="32.580787659" lon="35.006774902">
  <ele>118.660767</ele>
  <time>2011-07-29T05:49:42Z</time>
  <speed>1.780000</speed>
</trkpt>
<trkpt lat="32.580806732" lon="35.006820679">
  <ele>117.969360</ele>
  <time>2011-07-29T05:49:44Z</time>
  <speed>1.960000</speed>
</trkpt>
<trkpt lat="32.580818176" lon="35.006862640">
  <ele>116.584595</ele>
  <time>2011-07-29T05:49:46Z</time>
  <speed>2.010000</speed>
</trkpt>
<trkpt lat="32.580825806" lon="35.006904602">
  <ele>116.115845</ele>
  <time>2011-07-29T05:49:48Z</time>
  <speed>2.020000</speed>
</trkpt>
<trkpt lat="32.580814362" lon="35.006942749">
  <ele>116.336548</ele>
  <time>2011-07-29T05:49:50Z</time>
  <speed>1.890000</speed>
</trkpt>
<trkpt lat="32.580821991" lon="35.006984711">
  <ele>116.367798</ele>
  <time>2011-07-29T05:49:52Z</time>
  <speed>1.920000</speed>
</trkpt>
<trkpt lat="32.580833435" lon="35.007022858">
  <ele>116.998657</ele>
  <time>2011-07-29T05:49:54Z</time>
  <speed>2.030000</speed>
</trkpt>
<trkpt lat="32.580841064" lon="35.007068634">
  <ele>116.674438</ele>
  <time>2011-07-29T05:49:56Z</time>
  <speed>1.920000</speed>
</trkpt>
<trkpt lat="32.580837250" lon="35.007102966">
  <ele>117.139282</ele>
  <time>2011-07-29T05:49:58Z</time>
  <speed>1.620000</speed>
</trkpt>
<trkpt lat="32.580837250" lon="35.007137299">
  <ele>117.451782</ele>
  <time>2011-07-29T05:50:00Z</time>
  <speed>1.880000</speed>
</trkpt>
<trkpt lat="32.580841064" lon="35.007171631">
  <ele>117.502563</ele>
  <time>2011-07-29T05:50:02Z</time>
  <speed>1.860000</speed>
</trkpt>
<trkpt lat="32.580848694" lon="35.007217407">
  <ele>117.899048</ele>
  <time>2011-07-29T05:50:04Z</time>
  <speed>1.840000</speed>
</trkpt>
<trkpt lat="32.580848694" lon="35.007255554">
  <ele>118.836548</ele>
  <time>2011-07-29T05:50:06Z</time>
  <speed>1.950000</speed>
</trkpt>
<trkpt lat="32.580844879" lon="35.007297516">
  <ele>119.440063</ele>
  <time>2011-07-29T05:50:08Z</time>
  <speed>2.030000</speed>
</trkpt>
<trkpt lat="32.580863953" lon="35.007343292">
  <ele>119.840454</ele>
  <time>2011-07-29T05:50:10Z</time>
  <speed>2.030000</speed>
</trkpt>
<trkpt lat="32.580879211" lon="35.007385254">
  <ele>120.406860</ele>
  <time>2011-07-29T05:50:12Z</time>
  <speed>1.890000</speed>
</trkpt>
<trkpt lat="32.580867767" lon="35.007419586">
  <ele>121.338501</ele>
  <time>2011-07-29T05:50:14Z</time>
  <speed>1.800000</speed>
</trkpt>
<trkpt lat="32.580852509" lon="35.007457733">
  <ele>120.824829</ele>
  <time>2011-07-29T05:50:17Z</time>
  <speed>1.550000</speed>
</trkpt>
<trkpt lat="32.580841064" lon="35.007503510">
  <ele>120.289673</ele>
  <time>2011-07-29T05:50:20Z</time>
  <speed>1.870000</speed>
</trkpt>
<trkpt lat="32.580829620" lon="35.007537842">
  <ele>120.510376</ele>
  <time>2011-07-29T05:50:22Z</time>
  <speed>1.860000</speed>
</trkpt>
<trkpt lat="32.580818176" lon="35.007572174">
  <ele>120.727173</ele>
  <time>2011-07-29T05:50:24Z</time>
  <speed>1.670000</speed>
</trkpt>
<trkpt lat="32.580821991" lon="35.007610321">
  <ele>120.984985</ele>
  <time>2011-07-29T05:50:26Z</time>
  <speed>1.890000</speed>
</trkpt>
<trkpt lat="32.580818176" lon="35.007656097">
  <ele>121.336548</ele>
  <time>2011-07-29T05:50:28Z</time>
  <speed>1.700000</speed>
</trkpt>
<trkpt lat="32.580818176" lon="35.007690430">
  <ele>121.477173</ele>
  <time>2011-07-29T05:50:30Z</time>
  <speed>1.580000</speed>
</trkpt>
<trkpt lat="32.580821991" lon="35.007740021">
  <ele>122.125610</ele>
  <time>2011-07-29T05:50:32Z</time>
  <speed>1.870000</speed>
</trkpt>
<trkpt lat="32.580818176" lon="35.007785797">
  <ele>122.801392</ele>
  <time>2011-07-29T05:50:35Z</time>
  <speed>1.730000</speed>
</trkpt>
<trkpt lat="32.580802917" lon="35.007820129">
  <ele>123.074829</ele>
  <time>2011-07-29T05:50:37Z</time>
  <speed>1.410000</speed>
</trkpt>
<trkpt lat="32.580780029" lon="35.007846832">
  <ele>123.957642</ele>
  <time>2011-07-29T05:50:39Z</time>
  <speed>1.540000</speed>
</trkpt>
<trkpt lat="32.580757141" lon="35.007877350">
  <ele>124.701782</ele>
  <time>2011-07-29T05:50:42Z</time>
  <speed>1.070000</speed>
</trkpt>
<trkpt lat="32.580780029" lon="35.007904053">
  <ele>125.137329</ele>
  <time>2011-07-29T05:50:44Z</time>
  <speed>1.490000</speed>
</trkpt>
<trkpt lat="32.580814362" lon="35.007926941">
  <ele>124.494751</ele>
  <time>2011-07-29T05:50:46Z</time>
  <speed>1.320000</speed>
</trkpt>
<trkpt lat="32.580841064" lon="35.007923126">
  <ele>124.801392</ele>
  <time>2011-07-29T05:50:48Z</time>
  <speed>1.780000</speed>
</trkpt>
<trkpt lat="32.580875397" lon="35.007919312">
  <ele>124.774048</ele>
  <time>2011-07-29T05:50:50Z</time>
  <speed>1.700000</speed>
</trkpt>
<trkpt lat="32.580905914" lon="35.007907867">
  <ele>125.332642</ele>
  <time>2011-07-29T05:50:52Z</time>
  <speed>1.390000</speed>
</trkpt>
<trkpt lat="32.580932617" lon="35.007896423">
  <ele>126.082642</ele>
  <time>2011-07-29T05:50:54Z</time>
  <speed>1.590000</speed>
</trkpt>
<trkpt lat="32.580970764" lon="35.007888794">
  <ele>126.535767</ele>
  <time>2011-07-29T05:50:57Z</time>
  <speed>1.400000</speed>
</trkpt>
<trkpt lat="32.581005096" lon="35.007869720">
  <ele>127.717407</ele>
  <time>2011-07-29T05:51:00Z</time>
  <speed>1.490000</speed>
</trkpt>
<trkpt lat="32.581027985" lon="35.007858276">
  <ele>128.290283</ele>
  <time>2011-07-29T05:51:02Z</time>
  <speed>1.470000</speed>
</trkpt>
<trkpt lat="32.581058502" lon="35.007846832">
  <ele>128.235596</ele>
  <time>2011-07-29T05:51:04Z</time>
  <speed>1.580000</speed>
</trkpt>
<trkpt lat="32.581092834" lon="35.007820129">
  <ele>127.807251</ele>
  <time>2011-07-29T05:51:07Z</time>
  <speed>1.050000</speed>
</trkpt>
<trkpt lat="32.581127167" lon="35.007812500">
  <ele>128.372314</ele>
  <time>2011-07-29T05:51:09Z</time>
  <speed>1.820000</speed>
</trkpt>
<trkpt lat="32.581161499" lon="35.007804871">
  <ele>126.840454</ele>
  <time>2011-07-29T05:51:11Z</time>
  <speed>1.530000</speed>
</trkpt>
<trkpt lat="32.581192017" lon="35.007801056">
  <ele>125.813110</ele>
  <time>2011-07-29T05:51:13Z</time>
  <speed>1.940000</speed>
</trkpt>
<trkpt lat="32.581230164" lon="35.007793427">
  <ele>124.998657</ele>
  <time>2011-07-29T05:51:15Z</time>
  <speed>1.890000</speed>
</trkpt>
<trkpt lat="32.581260681" lon="35.007781982">
  <ele>125.147095</ele>
  <time>2011-07-29T05:51:17Z</time>
  <speed>1.990000</speed>
</trkpt>
<trkpt lat="32.581291199" lon="35.007774353">
  <ele>125.012329</ele>
  <time>2011-07-29T05:51:19Z</time>
  <speed>1.870000</speed>
</trkpt>
<trkpt lat="32.581325531" lon="35.007778168">
  <ele>125.363892</ele>
  <time>2011-07-29T05:51:21Z</time>
  <speed>1.880000</speed>
</trkpt>
<trkpt lat="32.581356049" lon="35.007781982">
  <ele>125.449829</ele>
  <time>2011-07-29T05:51:23Z</time>
  <speed>1.690000</speed>
</trkpt>
<trkpt lat="32.581390381" lon="35.007762909">
  <ele>127.059204</ele>
  <time>2011-07-29T05:51:25Z</time>
  <speed>1.850000</speed>
</trkpt>
<trkpt lat="32.581424713" lon="35.007759094">
  <ele>125.986938</ele>
  <time>2011-07-29T05:51:27Z</time>
  <speed>2.180000</speed>
</trkpt>
<trkpt lat="32.581470490" lon="35.007778168">
  <ele>125.744751</ele>
  <time>2011-07-29T05:51:29Z</time>
  <speed>2.490000</speed>
</trkpt>
<trkpt lat="32.581508636" lon="35.007785797">
  <ele>124.811157</ele>
  <time>2011-07-29T05:51:31Z</time>
  <speed>2.160000</speed>
</trkpt>
<trkpt lat="32.581550598" lon="35.007797241">
  <ele>124.151001</ele>
  <time>2011-07-29T05:51:33Z</time>
  <speed>2.250000</speed>
</trkpt>
<trkpt lat="32.581588745" lon="35.007808685">
  <ele>124.506470</ele>
  <time>2011-07-29T05:51:35Z</time>
  <speed>2.180000</speed>
</trkpt>
<trkpt lat="32.581611633" lon="35.007781982">
  <ele>126.797485</ele>
  <time>2011-07-29T05:51:36Z</time>
  <speed>2.490000</speed>
</trkpt>
<trkpt lat="32.581661224" lon="35.007801056">
  <ele>127.047485</ele>
  <time>2011-07-29T05:51:38Z</time>
  <speed>2.030000</speed>
</trkpt>
<trkpt lat="32.581687927" lon="35.007793427">
  <ele>129.391846</ele>
  <time>2011-07-29T05:51:39Z</time>
  <speed>2.150000</speed>
</trkpt>
<trkpt lat="32.581729889" lon="35.007804871">
  <ele>129.481689</ele>
  <time>2011-07-29T05:51:41Z</time>
  <speed>2.240000</speed>
</trkpt>
<trkpt lat="32.581768036" lon="35.007808685">
  <ele>131.579346</ele>
  <time>2011-07-29T05:51:43Z</time>
  <speed>2.450000</speed>
</trkpt>
<trkpt lat="32.581802368" lon="35.007808685">
  <ele>132.016846</ele>
  <time>2011-07-29T05:51:45Z</time>
  <speed>1.920000</speed>
</trkpt>
<trkpt lat="32.581832886" lon="35.007816315">
  <ele>131.938721</ele>
  <time>2011-07-29T05:51:47Z</time>
  <speed>2.210000</speed>
</trkpt>
<trkpt lat="32.581863403" lon="35.007839203">
  <ele>131.712158</ele>
  <time>2011-07-29T05:51:49Z</time>
  <speed>1.360000</speed>
</trkpt>
<trkpt lat="32.581905365" lon="35.007839203">
  <ele>132.427002</ele>
  <time>2011-07-29T05:51:51Z</time>
  <speed>2.300000</speed>
</trkpt>
<trkpt lat="32.581939697" lon="35.007862091">
  <ele>131.427002</ele>
  <time>2011-07-29T05:51:53Z</time>
  <speed>1.730000</speed>
</trkpt>
<trkpt lat="32.581974030" lon="35.007884979">
  <ele>130.911377</ele>
  <time>2011-07-29T05:51:55Z</time>
  <speed>1.720000</speed>
</trkpt>
<trkpt lat="32.582004547" lon="35.007892609">
  <ele>131.575439</ele>
  <time>2011-07-29T05:51:57Z</time>
  <speed>1.650000</speed>
</trkpt>
<trkpt lat="32.582042694" lon="35.007900238">
  <ele>132.016846</ele>
  <time>2011-07-29T05:52:00Z</time>
  <speed>1.500000</speed>
</trkpt>
<trkpt lat="32.582080841" lon="35.007904053">
  <ele>131.747314</ele>
  <time>2011-07-29T05:52:03Z</time>
  <speed>1.510000</speed>
</trkpt>
<trkpt lat="32.582118988" lon="35.007923126">
  <ele>132.106689</ele>
  <time>2011-07-29T05:52:06Z</time>
  <speed>1.660000</speed>
</trkpt>
<trkpt lat="32.582153320" lon="35.007946014">
  <ele>131.719971</ele>
  <time>2011-07-29T05:52:09Z</time>
  <speed>1.810000</speed>
</trkpt>
<trkpt lat="32.582183838" lon="35.007965088">
  <ele>132.430908</ele>
  <time>2011-07-29T05:52:11Z</time>
  <speed>1.650000</speed>
</trkpt>
<trkpt lat="32.582210541" lon="35.007999420">
  <ele>131.989502</ele>
  <time>2011-07-29T05:52:13Z</time>
  <speed>1.530000</speed>
</trkpt>
<trkpt lat="32.582237244" lon="35.008018494">
  <ele>131.661377</ele>
  <time>2011-07-29T05:52:15Z</time>
  <speed>1.320000</speed>
</trkpt>
<trkpt lat="32.582275391" lon="35.008037567">
  <ele>131.755127</ele>
  <time>2011-07-29T05:52:18Z</time>
  <speed>1.810000</speed>
</trkpt>
<trkpt lat="32.582305908" lon="35.008041382">
  <ele>131.583252</ele>
  <time>2011-07-29T05:52:20Z</time>
  <speed>1.360000</speed>
</trkpt>
<trkpt lat="32.582332611" lon="35.008064270">
  <ele>131.305908</ele>
  <time>2011-07-29T05:52:22Z</time>
  <speed>1.630000</speed>
</trkpt>
<trkpt lat="32.582355499" lon="35.008102417">
  <ele>130.977783</ele>
  <time>2011-07-29T05:52:24Z</time>
  <speed>1.560000</speed>
</trkpt>
<trkpt lat="32.582359314" lon="35.008136749">
  <ele>130.829346</ele>
  <time>2011-07-29T05:52:26Z</time>
  <speed>1.660000</speed>
</trkpt>
<trkpt lat="32.582378387" lon="35.008182526">
  <ele>131.071533</ele>
  <time>2011-07-29T05:52:28Z</time>
  <speed>1.690000</speed>
</trkpt>
<trkpt lat="32.582401276" lon="35.008209229">
  <ele>131.630127</ele>
  <time>2011-07-29T05:52:30Z</time>
  <speed>1.650000</speed>
</trkpt>
<trkpt lat="32.582424164" lon="35.008247375">
  <ele>132.028564</ele>
  <time>2011-07-29T05:52:32Z</time>
  <speed>1.880000</speed>
</trkpt>
<trkpt lat="32.582431793" lon="35.008289337">
  <ele>132.930908</ele>
  <time>2011-07-29T05:52:34Z</time>
  <speed>1.800000</speed>
</trkpt>
<trkpt lat="32.582454681" lon="35.008312225">
  <ele>133.259033</ele>
  <time>2011-07-29T05:52:36Z</time>
  <speed>1.400000</speed>
</trkpt>
<trkpt lat="32.582485199" lon="35.008331299">
  <ele>133.872314</ele>
  <time>2011-07-29T05:52:38Z</time>
  <speed>1.690000</speed>
</trkpt>
<trkpt lat="32.582504272" lon="35.008342743">
  <ele>135.313721</ele>
  <time>2011-07-29T05:52:40Z</time>
  <speed>0.910000</speed>
</trkpt>
<trkpt lat="32.582508087" lon="35.008384705">
  <ele>134.825439</ele>
  <time>2011-07-29T05:52:43Z</time>
  <speed>1.490000</speed>
</trkpt>
<trkpt lat="32.582519531" lon="35.008419037">
  <ele>135.251221</ele>
  <time>2011-07-29T05:52:45Z</time>
  <speed>1.920000</speed>
</trkpt>
<trkpt lat="32.582538605" lon="35.008449554">
  <ele>135.489502</ele>
  <time>2011-07-29T05:52:47Z</time>
  <speed>1.540000</speed>
</trkpt>
<trkpt lat="32.582557678" lon="35.008472443">
  <ele>135.993408</ele>
  <time>2011-07-29T05:52:49Z</time>
  <speed>1.200000</speed>
</trkpt>
<trkpt lat="32.582580566" lon="35.008514404">
  <ele>135.321533</ele>
  <time>2011-07-29T05:52:51Z</time>
  <speed>1.790000</speed>
</trkpt>
<trkpt lat="32.582595825" lon="35.008552551">
  <ele>136.020752</ele>
  <time>2011-07-29T05:52:54Z</time>
  <speed>1.410000</speed>
</trkpt>
<trkpt lat="32.582622528" lon="35.008583069">
  <ele>136.485596</ele>
  <time>2011-07-29T05:52:57Z</time>
  <speed>1.220000</speed>
</trkpt>
<trkpt lat="32.582641602" lon="35.008605957">
  <ele>136.700439</ele>
  <time>2011-07-29T05:52:59Z</time>
  <speed>1.480000</speed>
</trkpt>
<trkpt lat="32.582660675" lon="35.008632660">
  <ele>137.966064</ele>
  <time>2011-07-29T05:53:02Z</time>
  <speed>1.270000</speed>
</trkpt>
<trkpt lat="32.582679749" lon="35.008663177">
  <ele>138.442627</ele>
  <time>2011-07-29T05:53:05Z</time>
  <speed>1.400000</speed>
</trkpt>
<trkpt lat="32.582698822" lon="35.008693695">
  <ele>138.594971</ele>
  <time>2011-07-29T05:53:07Z</time>
  <speed>1.460000</speed>
</trkpt>
<trkpt lat="32.582721710" lon="35.008720398">
  <ele>138.427002</ele>
  <time>2011-07-29T05:53:09Z</time>
  <speed>1.570000</speed>
</trkpt>
<trkpt lat="32.582748413" lon="35.008754730">
  <ele>138.696533</ele>
  <time>2011-07-29T05:53:12Z</time>
  <speed>1.370000</speed>
</trkpt>
<trkpt lat="32.582771301" lon="35.008785248">
  <ele>138.946533</ele>
  <time>2011-07-29T05:53:15Z</time>
  <speed>1.320000</speed>
</trkpt>
<trkpt lat="32.582778931" lon="35.008815765">
  <ele>138.094971</ele>
  <time>2011-07-29T05:53:17Z</time>
  <speed>1.180000</speed>
</trkpt>
<trkpt lat="32.582801819" lon="35.008846283">
  <ele>138.864502</ele>
  <time>2011-07-29T05:53:19Z</time>
  <speed>1.490000</speed>
</trkpt>
<trkpt lat="32.582824707" lon="35.008872986">
  <ele>138.837158</ele>
  <time>2011-07-29T05:53:21Z</time>
  <speed>1.630000</speed>
</trkpt>
<trkpt lat="32.582847595" lon="35.008903503">
  <ele>139.184814</ele>
  <time>2011-07-29T05:53:24Z</time>
  <speed>1.640000</speed>
</trkpt>
<trkpt lat="32.582859039" lon="35.008941650">
  <ele>139.188721</ele>
  <time>2011-07-29T05:53:26Z</time>
  <speed>1.990000</speed>
</trkpt>
<trkpt lat="32.582874298" lon="35.008975983">
  <ele>139.946533</ele>
  <time>2011-07-29T05:53:28Z</time>
  <speed>1.590000</speed>
</trkpt>
<trkpt lat="32.582893372" lon="35.009021759">
  <ele>140.618408</ele>
  <time>2011-07-29T05:53:31Z</time>
  <speed>1.580000</speed>
</trkpt>
<trkpt lat="32.582897186" lon="35.009059906">
  <ele>141.141846</ele>
  <time>2011-07-29T05:53:33Z</time>
  <speed>1.760000</speed>
</trkpt>
<trkpt lat="32.582901001" lon="35.009094238">
  <ele>141.274658</ele>
  <time>2011-07-29T05:53:35Z</time>
  <speed>1.580000</speed>
</trkpt>
<trkpt lat="32.582908630" lon="35.009124756">
  <ele>141.657471</ele>
  <time>2011-07-29T05:53:37Z</time>
  <speed>1.830000</speed>
</trkpt>
<trkpt lat="32.582920074" lon="35.009162903">
  <ele>142.200439</ele>
  <time>2011-07-29T05:53:39Z</time>
  <speed>1.720000</speed>
</trkpt>
<trkpt lat="32.582923889" lon="35.009204865">
  <ele>140.903564</ele>
  <time>2011-07-29T05:53:42Z</time>
  <speed>1.470000</speed>
</trkpt>
<trkpt lat="32.582923889" lon="35.009250641">
  <ele>141.169189</ele>
  <time>2011-07-29T05:53:45Z</time>
  <speed>1.770000</speed>
</trkpt>
<trkpt lat="32.582931519" lon="35.009284973">
  <ele>141.298096</ele>
  <time>2011-07-29T05:53:47Z</time>
  <speed>1.510000</speed>
</trkpt>
<trkpt lat="32.582916260" lon="35.009319305">
  <ele>141.091064</ele>
  <time>2011-07-29T05:53:50Z</time>
  <speed>0.900000</speed>
</trkpt>
<trkpt lat="32.582920074" lon="35.009353638">
  <ele>140.985596</ele>
  <time>2011-07-29T05:53:52Z</time>
  <speed>1.550000</speed>
</trkpt>
<trkpt lat="32.582935333" lon="35.009380341">
  <ele>141.430908</ele>
  <time>2011-07-29T05:53:54Z</time>
  <speed>1.520000</speed>
</trkpt>
<trkpt lat="32.582954407" lon="35.009414673">
  <ele>142.962158</ele>
  <time>2011-07-29T05:53:56Z</time>
  <speed>1.520000</speed>
</trkpt>
<trkpt lat="32.582981110" lon="35.009437561">
  <ele>143.610596</ele>
  <time>2011-07-29T05:53:58Z</time>
  <speed>1.530000</speed>
</trkpt>
<trkpt lat="32.583003998" lon="35.009452820">
  <ele>144.278564</ele>
  <time>2011-07-29T05:54:00Z</time>
  <speed>1.450000</speed>
</trkpt>
<trkpt lat="32.583023071" lon="35.009475708">
  <ele>144.430908</ele>
  <time>2011-07-29T05:54:02Z</time>
  <speed>1.350000</speed>
</trkpt>
<trkpt lat="32.583057404" lon="35.009502411">
  <ele>145.243408</ele>
  <time>2011-07-29T05:54:04Z</time>
  <speed>1.570000</speed>
</trkpt>
<trkpt lat="32.583091736" lon="35.009536743">
  <ele>145.583252</ele>
  <time>2011-07-29T05:54:06Z</time>
  <speed>1.590000</speed>
</trkpt>
<trkpt lat="32.583110809" lon="35.009571075">
  <ele>145.481689</ele>
  <time>2011-07-29T05:54:08Z</time>
  <speed>1.590000</speed>
</trkpt>
<trkpt lat="32.583137512" lon="35.009593964">
  <ele>145.837158</ele>
  <time>2011-07-29T05:54:10Z</time>
  <speed>1.540000</speed>
</trkpt>
<trkpt lat="32.583164215" lon="35.009624481">
  <ele>146.255127</ele>
  <time>2011-07-29T05:54:12Z</time>
  <speed>1.800000</speed>
</trkpt>
<trkpt lat="32.583183289" lon="35.009643555">
  <ele>145.118408</ele>
  <time>2011-07-29T05:54:14Z</time>
  <speed>1.340000</speed>
</trkpt>
<trkpt lat="32.583206177" lon="35.009670258">
  <ele>145.755127</ele>
  <time>2011-07-29T05:54:16Z</time>
  <speed>1.700000</speed>
</trkpt>
<trkpt lat="32.583225250" lon="35.009716034">
  <ele>146.161377</ele>
  <time>2011-07-29T05:54:19Z</time>
  <speed>1.420000</speed>
</trkpt>
<trkpt lat="32.583240509" lon="35.009746552">
  <ele>146.575439</ele>
  <time>2011-07-29T05:54:21Z</time>
  <speed>1.410000</speed>
</trkpt>
<trkpt lat="32.583255768" lon="35.009788513">
  <ele>146.243408</ele>
  <time>2011-07-29T05:54:23Z</time>
  <speed>1.620000</speed>
</trkpt>
<trkpt lat="32.583274841" lon="35.009815216">
  <ele>147.247314</ele>
  <time>2011-07-29T05:54:25Z</time>
  <speed>1.520000</speed>
</trkpt>
<trkpt lat="32.583290100" lon="35.009857178">
  <ele>146.899658</ele>
  <time>2011-07-29T05:54:28Z</time>
  <speed>1.690000</speed>
</trkpt>
<trkpt lat="32.583320618" lon="35.009891510">
  <ele>146.427002</ele>
  <time>2011-07-29T05:54:30Z</time>
  <speed>1.540000</speed>
</trkpt>
<trkpt lat="32.583335876" lon="35.009918213">
  <ele>146.208252</ele>
  <time>2011-07-29T05:54:32Z</time>
  <speed>1.520000</speed>
</trkpt>
<trkpt lat="32.583354950" lon="35.009948730">
  <ele>145.887939</ele>
  <time>2011-07-29T05:54:34Z</time>
  <speed>1.770000</speed>
</trkpt>
<trkpt lat="32.583370209" lon="35.009986877">
  <ele>146.712158</ele>
  <time>2011-07-29T05:54:37Z</time>
  <speed>1.710000</speed>
</trkpt>
<trkpt lat="32.583385468" lon="35.010021210">
  <ele>146.805908</ele>
  <time>2011-07-29T05:54:39Z</time>
  <speed>1.570000</speed>
</trkpt>
<trkpt lat="32.583400726" lon="35.010051727">
  <ele>147.344971</ele>
  <time>2011-07-29T05:54:41Z</time>
  <speed>1.530000</speed>
</trkpt>
<trkpt lat="32.583419800" lon="35.010082245">
  <ele>147.040283</ele>
  <time>2011-07-29T05:54:43Z</time>
  <speed>1.870000</speed>
</trkpt>
<trkpt lat="32.583435059" lon="35.010120392">
  <ele>146.641846</ele>
  <time>2011-07-29T05:54:45Z</time>
  <speed>1.740000</speed>
</trkpt>
<trkpt lat="32.583461761" lon="35.010143280">
  <ele>147.294189</ele>
  <time>2011-07-29T05:54:47Z</time>
  <speed>1.660000</speed>
</trkpt>
<trkpt lat="32.583473206" lon="35.010177612">
  <ele>147.677002</ele>
  <time>2011-07-29T05:54:49Z</time>
  <speed>1.730000</speed>
</trkpt>
<trkpt lat="32.583499908" lon="35.010208130">
  <ele>148.294189</ele>
  <time>2011-07-29T05:54:51Z</time>
  <speed>1.590000</speed>
</trkpt>
<trkpt lat="32.583522797" lon="35.010246277">
  <ele>149.137939</ele>
  <time>2011-07-29T05:54:54Z</time>
  <speed>1.490000</speed>
</trkpt>
<trkpt lat="32.583538055" lon="35.010276794">
  <ele>149.497314</ele>
  <time>2011-07-29T05:54:56Z</time>
  <speed>1.790000</speed>
</trkpt>
<trkpt lat="32.583560944" lon="35.010303497">
  <ele>149.219971</ele>
  <time>2011-07-29T05:54:58Z</time>
  <speed>1.800000</speed>
</trkpt>
<trkpt lat="32.583576202" lon="35.010334015">
  <ele>149.419189</ele>
  <time>2011-07-29T05:55:00Z</time>
  <speed>1.590000</speed>
</trkpt>
<trkpt lat="32.583591461" lon="35.010372162">
  <ele>150.399658</ele>
  <time>2011-07-29T05:55:03Z</time>
  <speed>1.730000</speed>
</trkpt>
<trkpt lat="32.583599091" lon="35.010402679">
  <ele>150.860596</ele>
  <time>2011-07-29T05:55:05Z</time>
  <speed>1.700000</speed>
</trkpt>
<trkpt lat="32.583614349" lon="35.010437012">
  <ele>151.231689</ele>
  <time>2011-07-29T05:55:07Z</time>
  <speed>1.510000</speed>
</trkpt>
<trkpt lat="32.583621979" lon="35.010475159">
  <ele>151.477783</ele>
  <time>2011-07-29T05:55:09Z</time>
  <speed>1.430000</speed>
</trkpt>
<trkpt lat="32.583644867" lon="35.010498047">
  <ele>151.731689</ele>
  <time>2011-07-29T05:55:11Z</time>
  <speed>1.770000</speed>
</trkpt>
<trkpt lat="32.583660126" lon="35.010532379">
  <ele>152.180908</ele>
  <time>2011-07-29T05:55:13Z</time>
  <speed>1.670000</speed>
</trkpt>
<trkpt lat="32.583679199" lon="35.010559082">
  <ele>152.219971</ele>
  <time>2011-07-29T05:55:15Z</time>
  <speed>1.600000</speed>
</trkpt>
<trkpt lat="32.583698273" lon="35.010585785">
  <ele>152.145752</ele>
  <time>2011-07-29T05:55:17Z</time>
  <speed>1.590000</speed>
</trkpt>
<trkpt lat="32.583713531" lon="35.010612488">
  <ele>152.466064</ele>
  <time>2011-07-29T05:55:19Z</time>
  <speed>1.520000</speed>
</trkpt>
<trkpt lat="32.583736420" lon="35.010635376">
  <ele>153.501221</ele>
  <time>2011-07-29T05:55:22Z</time>
  <speed>1.550000</speed>
</trkpt>
<trkpt lat="32.583770752" lon="35.010658264">
  <ele>153.450439</ele>
  <time>2011-07-29T05:55:24Z</time>
  <speed>2.160000</speed>
</trkpt>
<trkpt lat="32.583789825" lon="35.010696411">
  <ele>153.852783</ele>
  <time>2011-07-29T05:55:27Z</time>
  <speed>1.670000</speed>
</trkpt>
<trkpt lat="32.583793640" lon="35.010730743">
  <ele>154.450439</ele>
  <time>2011-07-29T05:55:29Z</time>
  <speed>1.770000</speed>
</trkpt>
<trkpt lat="32.583805084" lon="35.010761261">
  <ele>155.075439</ele>
  <time>2011-07-29T05:55:31Z</time>
  <speed>1.590000</speed>
</trkpt>
<trkpt lat="32.583827972" lon="35.010784149">
  <ele>155.177002</ele>
  <time>2011-07-29T05:55:33Z</time>
  <speed>1.600000</speed>
</trkpt>
<trkpt lat="32.583835602" lon="35.010822296">
  <ele>154.856689</ele>
  <time>2011-07-29T05:55:35Z</time>
  <speed>1.680000</speed>
</trkpt>
<trkpt lat="32.583835602" lon="35.010856628">
  <ele>154.704346</ele>
  <time>2011-07-29T05:55:37Z</time>
  <speed>1.560000</speed>
</trkpt>
<trkpt lat="32.583850861" lon="35.010894775">
  <ele>154.364502</ele>
  <time>2011-07-29T05:55:39Z</time>
  <speed>1.510000</speed>
</trkpt>
<trkpt lat="32.583862305" lon="35.010932922">
  <ele>154.571533</ele>
  <time>2011-07-29T05:55:41Z</time>
  <speed>1.560000</speed>
</trkpt>
<trkpt lat="32.583873749" lon="35.010967255">
  <ele>154.348877</ele>
  <time>2011-07-29T05:55:43Z</time>
  <speed>1.740000</speed>
</trkpt>
<trkpt lat="32.583881378" lon="35.011013031">
  <ele>154.864502</ele>
  <time>2011-07-29T05:55:45Z</time>
  <speed>1.960000</speed>
</trkpt>
<trkpt lat="32.583862305" lon="35.011054993">
  <ele>154.649658</ele>
  <time>2011-07-29T05:55:48Z</time>
  <speed>1.810000</speed>
</trkpt>
<trkpt lat="32.583862305" lon="35.011089325">
  <ele>154.360596</ele>
  <time>2011-07-29T05:55:50Z</time>
  <speed>1.820000</speed>
</trkpt>
<trkpt lat="32.583866119" lon="35.011142731">
  <ele>154.755127</ele>
  <time>2011-07-29T05:55:53Z</time>
  <speed>1.630000</speed>
</trkpt>
<trkpt lat="32.583869934" lon="35.011188507">
  <ele>155.106689</ele>
  <time>2011-07-29T05:55:56Z</time>
  <speed>1.660000</speed>
</trkpt>
<trkpt lat="32.583869934" lon="35.011219025">
  <ele>156.395752</ele>
  <time>2011-07-29T05:55:58Z</time>
  <speed>1.560000</speed>
</trkpt>
<trkpt lat="32.583866119" lon="35.011249542">
  <ele>156.958252</ele>
  <time>2011-07-29T05:56:00Z</time>
  <speed>1.670000</speed>
</trkpt>
<trkpt lat="32.583866119" lon="35.011295319">
  <ele>158.434814</ele>
  <time>2011-07-29T05:56:02Z</time>
  <speed>1.490000</speed>
</trkpt>
<trkpt lat="32.583850861" lon="35.011341095">
  <ele>159.298096</ele>
  <time>2011-07-29T05:56:05Z</time>
  <speed>1.500000</speed>
</trkpt>
<trkpt lat="32.583839417" lon="35.011371613">
  <ele>159.384033</ele>
  <time>2011-07-29T05:56:07Z</time>
  <speed>1.460000</speed>
</trkpt>
<trkpt lat="32.583808899" lon="35.011398315">
  <ele>160.145752</ele>
  <time>2011-07-29T05:56:09Z</time>
  <speed>1.450000</speed>
</trkpt>
<trkpt lat="32.583778381" lon="35.011428833">
  <ele>161.825439</ele>
  <time>2011-07-29T05:56:12Z</time>
  <speed>1.510000</speed>
</trkpt>
<trkpt lat="32.583755493" lon="35.011444092">
  <ele>161.903564</ele>
  <time>2011-07-29T05:56:14Z</time>
  <speed>1.270000</speed>
</trkpt>
<trkpt lat="32.583732605" lon="35.011482239">
  <ele>162.216064</ele>
  <time>2011-07-29T05:56:17Z</time>
  <speed>1.570000</speed>
</trkpt>
<trkpt lat="32.583724976" lon="35.011516571">
  <ele>162.790283</ele>
  <time>2011-07-29T05:56:19Z</time>
  <speed>1.410000</speed>
</trkpt>
<trkpt lat="32.583717346" lon="35.011547089">
  <ele>163.266846</ele>
  <time>2011-07-29T05:56:21Z</time>
  <speed>1.440000</speed>
</trkpt>
<trkpt lat="32.583702087" lon="35.011581421">
  <ele>163.782471</ele>
  <time>2011-07-29T05:56:23Z</time>
  <speed>1.600000</speed>
</trkpt>
<trkpt lat="32.583690643" lon="35.011627197">
  <ele>163.305908</ele>
  <time>2011-07-29T05:56:26Z</time>
  <speed>1.550000</speed>
</trkpt>
<trkpt lat="32.583690643" lon="35.011661530">
  <ele>162.954346</ele>
  <time>2011-07-29T05:56:28Z</time>
  <speed>1.480000</speed>
</trkpt>
<trkpt lat="32.583686829" lon="35.011699677">
  <ele>163.903564</ele>
  <time>2011-07-29T05:56:30Z</time>
  <speed>1.590000</speed>
</trkpt>
<trkpt lat="32.583690643" lon="35.011730194">
  <ele>162.837158</ele>
  <time>2011-07-29T05:56:32Z</time>
  <speed>1.740000</speed>
</trkpt>
<trkpt lat="32.583694458" lon="35.011768341">
  <ele>162.977783</ele>
  <time>2011-07-29T05:56:34Z</time>
  <speed>1.640000</speed>
</trkpt>
<trkpt lat="32.583683014" lon="35.011798859">
  <ele>163.469971</ele>
  <time>2011-07-29T05:56:36Z</time>
  <speed>1.230000</speed>
</trkpt>
<trkpt lat="32.583690643" lon="35.011844635">
  <ele>163.520752</ele>
  <time>2011-07-29T05:56:39Z</time>
  <speed>1.660000</speed>
</trkpt>
<trkpt lat="32.583690643" lon="35.011878967">
  <ele>163.579346</ele>
  <time>2011-07-29T05:56:41Z</time>
  <speed>1.540000</speed>
</trkpt>
<trkpt lat="32.583686829" lon="35.011924744">
  <ele>163.942627</ele>
  <time>2011-07-29T05:56:44Z</time>
  <speed>1.490000</speed>
</trkpt>
<trkpt lat="32.583671570" lon="35.011959076">
  <ele>164.423096</ele>
  <time>2011-07-29T05:56:47Z</time>
  <speed>1.280000</speed>
</trkpt>
<trkpt lat="32.583637238" lon="35.011989594">
  <ele>164.403564</ele>
  <time>2011-07-29T05:56:50Z</time>
  <speed>1.400000</speed>
</trkpt>
<trkpt lat="32.583614349" lon="35.012008667">
  <ele>164.559814</ele>
  <time>2011-07-29T05:56:52Z</time>
  <speed>1.540000</speed>
</trkpt>
<trkpt lat="32.583583832" lon="35.012039185">
  <ele>165.598877</ele>
  <time>2011-07-29T05:56:55Z</time>
  <speed>1.680000</speed>
</trkpt>
<trkpt lat="32.583568573" lon="35.012081146">
  <ele>165.759033</ele>
  <time>2011-07-29T05:56:58Z</time>
  <speed>1.620000</speed>
</trkpt>
<trkpt lat="32.583560944" lon="35.012115479">
  <ele>166.001221</ele>
  <time>2011-07-29T05:57:00Z</time>
  <speed>1.480000</speed>
</trkpt>
<trkpt lat="32.583549500" lon="35.012145996">
  <ele>166.333252</ele>
  <time>2011-07-29T05:57:02Z</time>
  <speed>1.520000</speed>
</trkpt>
<trkpt lat="32.583534241" lon="35.012176514">
  <ele>166.677002</ele>
  <time>2011-07-29T05:57:04Z</time>
  <speed>1.490000</speed>
</trkpt>
<trkpt lat="32.583526611" lon="35.012226105">
  <ele>167.126221</ele>
  <time>2011-07-29T05:57:07Z</time>
  <speed>1.630000</speed>
</trkpt>
<trkpt lat="32.583522797" lon="35.012256622">
  <ele>166.212158</ele>
  <time>2011-07-29T05:57:09Z</time>
  <speed>1.640000</speed>
</trkpt>
<trkpt lat="32.583530426" lon="35.012310028">
  <ele>166.489502</ele>
  <time>2011-07-29T05:57:11Z</time>
  <speed>1.740000</speed>
</trkpt>
<trkpt lat="32.583538055" lon="35.012344360">
  <ele>166.762939</ele>
  <time>2011-07-29T05:57:13Z</time>
  <speed>1.330000</speed>
</trkpt>
<trkpt lat="32.583545685" lon="35.012378693">
  <ele>166.079346</ele>
  <time>2011-07-29T05:57:15Z</time>
  <speed>1.420000</speed>
</trkpt>
<trkpt lat="32.583549500" lon="35.012420654">
  <ele>167.372314</ele>
  <time>2011-07-29T05:57:17Z</time>
  <speed>1.370000</speed>
</trkpt>
<trkpt lat="32.583568573" lon="35.012466431">
  <ele>166.997314</ele>
  <time>2011-07-29T05:57:19Z</time>
  <speed>1.750000</speed>
</trkpt>
<trkpt lat="32.583587646" lon="35.012504578">
  <ele>166.130127</ele>
  <time>2011-07-29T05:57:21Z</time>
  <speed>1.950000</speed>
</trkpt>
<trkpt lat="32.583591461" lon="35.012546539">
  <ele>166.200439</ele>
  <time>2011-07-29T05:57:23Z</time>
  <speed>2.110000</speed>
</trkpt>
<trkpt lat="32.583606720" lon="35.012588501">
  <ele>166.137939</ele>
  <time>2011-07-29T05:57:25Z</time>
  <speed>2.020000</speed>
</trkpt>
<trkpt lat="32.583614349" lon="35.012630463">
  <ele>166.430908</ele>
  <time>2011-07-29T05:57:27Z</time>
  <speed>2.030000</speed>
</trkpt>
<trkpt lat="32.583644867" lon="35.012680054">
  <ele>166.930908</ele>
  <time>2011-07-29T05:57:29Z</time>
  <speed>2.290000</speed>
</trkpt>
<trkpt lat="32.583667755" lon="35.012725830">
  <ele>167.989502</ele>
  <time>2011-07-29T05:57:31Z</time>
  <speed>2.350000</speed>
</trkpt>
<trkpt lat="32.583683014" lon="35.012771606">
  <ele>167.501221</ele>
  <time>2011-07-29T05:57:33Z</time>
  <speed>1.990000</speed>
</trkpt>
<trkpt lat="32.583698273" lon="35.012813568">
  <ele>166.692627</ele>
  <time>2011-07-29T05:57:35Z</time>
  <speed>1.730000</speed>
</trkpt>
<trkpt lat="32.583713531" lon="35.012863159">
  <ele>166.493408</ele>
  <time>2011-07-29T05:57:37Z</time>
  <speed>2.540000</speed>
</trkpt>
<trkpt lat="32.583728790" lon="35.012912750">
  <ele>165.196533</ele>
  <time>2011-07-29T05:57:39Z</time>
  <speed>2.670000</speed>
</trkpt>
<trkpt lat="32.583709717" lon="35.012954712">
  <ele>164.583252</ele>
  <time>2011-07-29T05:57:41Z</time>
  <speed>2.670000</speed>
</trkpt>
<trkpt lat="32.583721161" lon="35.013011932">
  <ele>164.204346</ele>
  <time>2011-07-29T05:57:43Z</time>
  <speed>2.870000</speed>
</trkpt>
<trkpt lat="32.583732605" lon="35.013072968">
  <ele>163.571533</ele>
  <time>2011-07-29T05:57:45Z</time>
  <speed>2.520000</speed>
</trkpt>
<trkpt lat="32.583751678" lon="35.013126373">
  <ele>163.778564</ele>
  <time>2011-07-29T05:57:47Z</time>
  <speed>2.360000</speed>
</trkpt>
<trkpt lat="32.583751678" lon="35.013172150">
  <ele>163.317627</ele>
  <time>2011-07-29T05:57:49Z</time>
  <speed>2.610000</speed>
</trkpt>
<trkpt lat="32.583759308" lon="35.013202667">
  <ele>163.325439</ele>
  <time>2011-07-29T05:57:50Z</time>
  <speed>2.580000</speed>
</trkpt>
<trkpt lat="32.583782196" lon="35.013256073">
  <ele>163.872314</ele>
  <time>2011-07-29T05:57:52Z</time>
  <speed>2.880000</speed>
</trkpt>
<trkpt lat="32.583793640" lon="35.013282776">
  <ele>164.708252</ele>
  <time>2011-07-29T05:57:53Z</time>
  <speed>2.570000</speed>
</trkpt>
<trkpt lat="32.583808899" lon="35.013324738">
  <ele>165.567627</ele>
  <time>2011-07-29T05:57:55Z</time>
  <speed>2.110000</speed>
</trkpt>
<trkpt lat="32.583816528" lon="35.013362885">
  <ele>166.536377</ele>
  <time>2011-07-29T05:57:57Z</time>
  <speed>2.040000</speed>
</trkpt>
<trkpt lat="32.583839417" lon="35.013389587">
  <ele>167.469971</ele>
  <time>2011-07-29T05:57:59Z</time>
  <speed>1.610000</speed>
</trkpt>
<trkpt lat="32.583869934" lon="35.013401031">
  <ele>166.516846</ele>
  <time>2011-07-29T05:58:00Z</time>
  <speed>1.710000</speed>
</trkpt>
<trkpt lat="32.583915710" lon="35.013420105">
  <ele>166.091064</ele>
  <time>2011-07-29T05:58:02Z</time>
  <speed>2.230000</speed>
</trkpt>
<trkpt lat="32.583961487" lon="35.013427734">
  <ele>165.212158</ele>
  <time>2011-07-29T05:58:04Z</time>
  <speed>2.080000</speed>
</trkpt>
<trkpt lat="32.584007263" lon="35.013435364">
  <ele>165.477783</ele>
  <time>2011-07-29T05:58:06Z</time>
  <speed>2.230000</speed>
</trkpt>
<trkpt lat="32.584041595" lon="35.013442993">
  <ele>165.188721</ele>
  <time>2011-07-29T05:58:08Z</time>
  <speed>2.150000</speed>
</trkpt>
<trkpt lat="32.584075928" lon="35.013439178">
  <ele>165.512939</ele>
  <time>2011-07-29T05:58:11Z</time>
  <speed>2.270000</speed>
</trkpt>
<trkpt lat="32.584117889" lon="35.013439178">
  <ele>166.040283</ele>
  <time>2011-07-29T05:58:13Z</time>
  <speed>2.150000</speed>
</trkpt>
<trkpt lat="32.584156036" lon="35.013442993">
  <ele>166.512939</ele>
  <time>2011-07-29T05:58:15Z</time>
  <speed>2.230000</speed>
</trkpt>
<trkpt lat="32.584194183" lon="35.013454437">
  <ele>167.337158</ele>
  <time>2011-07-29T05:58:17Z</time>
  <speed>2.290000</speed>
</trkpt>
<trkpt lat="32.584232330" lon="35.013469696">
  <ele>168.243408</ele>
  <time>2011-07-29T05:58:19Z</time>
  <speed>2.160000</speed>
</trkpt>
<trkpt lat="32.584270477" lon="35.013477325">
  <ele>168.173096</ele>
  <time>2011-07-29T05:58:21Z</time>
  <speed>2.210000</speed>
</trkpt>
<trkpt lat="32.584308624" lon="35.013484955">
  <ele>167.251221</ele>
  <time>2011-07-29T05:58:23Z</time>
  <speed>2.200000</speed>
</trkpt>
<trkpt lat="32.584354401" lon="35.013492584">
  <ele>167.833252</ele>
  <time>2011-07-29T05:58:25Z</time>
  <speed>2.020000</speed>
</trkpt>
<trkpt lat="32.584396362" lon="35.013500214">
  <ele>167.825439</ele>
  <time>2011-07-29T05:58:27Z</time>
  <speed>1.910000</speed>
</trkpt>
<trkpt lat="32.584426880" lon="35.013523102">
  <ele>167.559814</ele>
  <time>2011-07-29T05:58:29Z</time>
  <speed>2.010000</speed>
</trkpt>
<trkpt lat="32.584457397" lon="35.013557434">
  <ele>168.348877</ele>
  <time>2011-07-29T05:58:31Z</time>
  <speed>2.250000</speed>
</trkpt>
<trkpt lat="32.584495544" lon="35.013587952">
  <ele>168.641846</ele>
  <time>2011-07-29T05:58:33Z</time>
  <speed>2.550000</speed>
</trkpt>
<trkpt lat="32.584522247" lon="35.013553619">
  <ele>167.657471</ele>
  <time>2011-07-29T05:58:36Z</time>
  <speed>1.450000</speed>
</trkpt>
<trkpt lat="32.584533691" lon="35.013496399">
  <ele>166.591064</ele>
  <time>2011-07-29T05:58:38Z</time>
  <speed>4.300000</speed>
</trkpt>
<trkpt lat="32.584533691" lon="35.013446808">
  <ele>166.634033</ele>
  <time>2011-07-29T05:58:39Z</time>
  <speed>4.530000</speed>
</trkpt>
<trkpt lat="32.584537506" lon="35.013393402">
  <ele>166.153564</ele>
  <time>2011-07-29T05:58:40Z</time>
  <speed>4.680000</speed>
</trkpt>
<trkpt lat="32.584545135" lon="35.013332367">
  <ele>166.352783</ele>
  <time>2011-07-29T05:58:41Z</time>
  <speed>5.060000</speed>
</trkpt>
<trkpt lat="32.584552765" lon="35.013278961">
  <ele>166.243408</ele>
  <time>2011-07-29T05:58:42Z</time>
  <speed>4.530000</speed>
</trkpt>
<trkpt lat="32.584564209" lon="35.013233185">
  <ele>166.376221</ele>
  <time>2011-07-29T05:58:43Z</time>
  <speed>4.430000</speed>
</trkpt>
<trkpt lat="32.584575653" lon="35.013191223">
  <ele>166.364502</ele>
  <time>2011-07-29T05:58:44Z</time>
  <speed>3.410000</speed>
</trkpt>
<trkpt lat="32.584587097" lon="35.013153076">
  <ele>166.743408</ele>
  <time>2011-07-29T05:58:45Z</time>
  <speed>3.090000</speed>
</trkpt>
<trkpt lat="32.584609985" lon="35.013114929">
  <ele>165.552002</ele>
  <time>2011-07-29T05:58:47Z</time>
  <speed>1.240000</speed>
</trkpt>
<trkpt lat="32.584590912" lon="35.013130188">
  <ele>164.083252</ele>
  <time>2011-07-29T06:05:44Z</time>
  <speed>0.030000</speed>
</trkpt>
<trkpt lat="32.584568024" lon="35.013145447">
  <ele>162.876221</ele>
  <time>2011-07-29T06:05:56Z</time>
</trkpt>
<trkpt lat="32.584541321" lon="35.013153076">
  <ele>164.098877</ele>
  <time>2011-07-29T06:05:59Z</time>
</trkpt>
<trkpt lat="32.584514618" lon="35.013164520">
  <ele>165.259033</ele>
  <time>2011-07-29T06:06:01Z</time>
</trkpt>
<trkpt lat="32.584491730" lon="35.013172150">
  <ele>166.677002</ele>
  <time>2011-07-29T06:06:08Z</time>
</trkpt>
<trkpt lat="32.584472656" lon="35.013172150">
  <ele>168.719971</ele>
  <time>2011-07-29T06:06:17Z</time>
</trkpt>
<trkpt lat="32.584499359" lon="35.013172150">
  <ele>169.302002</ele>
  <time>2011-07-29T06:06:47Z</time>
  <speed>0.270000</speed>
</trkpt>
<trkpt lat="32.584526062" lon="35.013183594">
  <ele>169.489502</ele>
  <time>2011-07-29T06:06:59Z</time>
  <speed>0.230000</speed>
</trkpt>
<trkpt lat="32.584556580" lon="35.013187408">
  <ele>169.079346</ele>
  <time>2011-07-29T06:07:48Z</time>
  <speed>0.310000</speed>
</trkpt>
<trkpt lat="32.584583282" lon="35.013191223">
  <ele>168.149658</ele>
  <time>2011-07-29T06:07:52Z</time>
  <speed>0.290000</speed>
</trkpt>
<trkpt lat="32.584617615" lon="35.013198853">
  <ele>167.294189</ele>
  <time>2011-07-29T06:07:55Z</time>
  <speed>0.310000</speed>
</trkpt>
<trkpt lat="32.584640503" lon="35.013202667">
  <ele>166.048096</ele>
  <time>2011-07-29T06:08:04Z</time>
  <speed>0.210000</speed>
</trkpt>
<trkpt lat="32.584663391" lon="35.013206482">
  <ele>164.434814</ele>
  <time>2011-07-29T06:08:20Z</time>
  <speed>0.130000</speed>
</trkpt>
<trkpt lat="32.584651947" lon="35.013187408">
  <ele>162.536377</ele>
  <time>2011-07-29T06:08:32Z</time>
  <speed>0.370000</speed>
</trkpt>
<trkpt lat="32.584621429" lon="35.013168335">
  <ele>161.977783</ele>
  <time>2011-07-29T06:08:35Z</time>
  <speed>0.420000</speed>
</trkpt>
<trkpt lat="32.584594727" lon="35.013153076">
  <ele>161.973877</ele>
  <time>2011-07-29T06:08:37Z</time>
  <speed>0.480000</speed>
</trkpt>
<trkpt lat="32.584556580" lon="35.013134003">
  <ele>162.653564</ele>
  <time>2011-07-29T06:08:39Z</time>
  <speed>0.530000</speed>
</trkpt>
<trkpt lat="32.584526062" lon="35.013118744">
  <ele>163.848877</ele>
  <time>2011-07-29T06:08:43Z</time>
  <speed>0.450000</speed>
</trkpt>
<trkpt lat="32.584526062" lon="35.013137817">
  <ele>166.290283</ele>
  <time>2011-07-29T06:08:49Z</time>
  <speed>0.150000</speed>
</trkpt>
<trkpt lat="32.584552765" lon="35.013164520">
  <ele>166.794189</ele>
  <time>2011-07-29T06:09:05Z</time>
  <speed>0.340000</speed>
</trkpt>
<trkpt lat="32.584575653" lon="35.013179779">
  <ele>168.274658</ele>
  <time>2011-07-29T06:09:09Z</time>
  <speed>0.330000</speed>
</trkpt>
<trkpt lat="32.584548950" lon="35.013168335">
  <ele>167.868408</ele>
  <time>2011-07-29T06:09:40Z</time>
  <speed>0.170000</speed>
</trkpt>
<trkpt lat="32.584571838" lon="35.013153076">
  <ele>167.618408</ele>
  <time>2011-07-29T06:10:20Z</time>
  <speed>0.050000</speed>
</trkpt>
<trkpt lat="32.584568024" lon="35.013111115">
  <ele>166.739502</ele>
  <time>2011-07-29T06:10:32Z</time>
  <speed>1.620000</speed>
</trkpt>
<trkpt lat="32.584571838" lon="35.013053894">
  <ele>165.891846</ele>
  <time>2011-07-29T06:10:34Z</time>
  <speed>2.000000</speed>
</trkpt>
<trkpt lat="32.584583282" lon="35.012996674">
  <ele>165.434814</ele>
  <time>2011-07-29T06:10:36Z</time>
  <speed>2.510000</speed>
</trkpt>
<trkpt lat="32.584602356" lon="35.012939453">
  <ele>165.458252</ele>
  <time>2011-07-29T06:10:38Z</time>
  <speed>2.810000</speed>
</trkpt>
<trkpt lat="32.584609985" lon="35.012905121">
  <ele>164.872314</ele>
  <time>2011-07-29T06:10:39Z</time>
  <speed>2.670000</speed>
</trkpt>
<trkpt lat="32.584621429" lon="35.012859344">
  <ele>164.458252</ele>
  <time>2011-07-29T06:10:41Z</time>
  <speed>2.050000</speed>
</trkpt>
<trkpt lat="32.584632874" lon="35.012809753">
  <ele>163.450439</ele>
  <time>2011-07-29T06:10:43Z</time>
  <speed>2.280000</speed>
</trkpt>
<trkpt lat="32.584644318" lon="35.012775421">
  <ele>162.520752</ele>
  <time>2011-07-29T06:10:45Z</time>
  <speed>1.370000</speed>
</trkpt>
<trkpt lat="32.584659576" lon="35.012729645">
  <ele>161.661377</ele>
  <time>2011-07-29T06:10:47Z</time>
  <speed>1.850000</speed>
</trkpt>
<trkpt lat="32.584686279" lon="35.012683868">
  <ele>160.192627</ele>
  <time>2011-07-29T06:10:49Z</time>
  <speed>2.210000</speed>
</trkpt>
<trkpt lat="32.584712982" lon="35.012638092">
  <ele>158.903564</ele>
  <time>2011-07-29T06:10:51Z</time>
  <speed>2.680000</speed>
</trkpt>
<trkpt lat="32.584747314" lon="35.012599945">
  <ele>157.794189</ele>
  <time>2011-07-29T06:10:53Z</time>
  <speed>2.450000</speed>
</trkpt>
<trkpt lat="32.584785461" lon="35.012569427">
  <ele>156.719971</ele>
  <time>2011-07-29T06:10:55Z</time>
  <speed>2.290000</speed>
</trkpt>
<trkpt lat="32.584823608" lon="35.012542725">
  <ele>155.055908</ele>
  <time>2011-07-29T06:10:57Z</time>
  <speed>2.540000</speed>
</trkpt>
<trkpt lat="32.584865570" lon="35.012535095">
  <ele>154.227783</ele>
  <time>2011-07-29T06:10:58Z</time>
  <speed>2.840000</speed>
</trkpt>
<trkpt lat="32.584892273" lon="35.012527466">
  <ele>153.716064</ele>
  <time>2011-07-29T06:10:59Z</time>
  <speed>3.010000</speed>
</trkpt>
<trkpt lat="32.584934235" lon="35.012508392">
  <ele>153.501221</ele>
  <time>2011-07-29T06:11:01Z</time>
  <speed>2.550000</speed>
</trkpt>
<trkpt lat="32.584968567" lon="35.012504578">
  <ele>152.712158</ele>
  <time>2011-07-29T06:11:02Z</time>
  <speed>2.980000</speed>
</trkpt>
<trkpt lat="32.584995270" lon="35.012477875">
  <ele>152.774658</ele>
  <time>2011-07-29T06:11:03Z</time>
  <speed>2.700000</speed>
</trkpt>
<trkpt lat="32.585037231" lon="35.012458801">
  <ele>151.884033</ele>
  <time>2011-07-29T06:11:05Z</time>
  <speed>2.930000</speed>
</trkpt>
<trkpt lat="32.585063934" lon="35.012443542">
  <ele>151.255127</ele>
  <time>2011-07-29T06:11:06Z</time>
  <speed>2.790000</speed>
</trkpt>
<trkpt lat="32.585105896" lon="35.012405396">
  <ele>151.626221</ele>
  <time>2011-07-29T06:11:08Z</time>
  <speed>2.900000</speed>
</trkpt>
<trkpt lat="32.585151672" lon="35.012386322">
  <ele>150.403564</ele>
  <time>2011-07-29T06:11:10Z</time>
  <speed>2.430000</speed>
</trkpt>
<trkpt lat="32.585186005" lon="35.012355804">
  <ele>149.259033</ele>
  <time>2011-07-29T06:11:12Z</time>
  <speed>2.200000</speed>
</trkpt>
<trkpt lat="32.585205078" lon="35.012332916">
  <ele>148.684814</ele>
  <time>2011-07-29T06:11:13Z</time>
  <speed>2.470000</speed>
</trkpt>
<trkpt lat="32.585227966" lon="35.012283325">
  <ele>148.430908</ele>
  <time>2011-07-29T06:11:15Z</time>
  <speed>2.770000</speed>
</trkpt>
<trkpt lat="32.585235596" lon="35.012229919">
  <ele>147.321533</ele>
  <time>2011-07-29T06:11:17Z</time>
  <speed>2.600000</speed>
</trkpt>
<trkpt lat="32.585262299" lon="35.012172699">
  <ele>146.458252</ele>
  <time>2011-07-29T06:11:19Z</time>
  <speed>2.520000</speed>
</trkpt>
<trkpt lat="32.585281372" lon="35.012115479">
  <ele>145.384033</ele>
  <time>2011-07-29T06:11:21Z</time>
  <speed>2.800000</speed>
</trkpt>
<trkpt lat="32.585304260" lon="35.012069702">
  <ele>144.434814</ele>
  <time>2011-07-29T06:11:23Z</time>
  <speed>2.240000</speed>
</trkpt>
<trkpt lat="32.585330963" lon="35.012020111">
  <ele>144.286377</ele>
  <time>2011-07-29T06:11:25Z</time>
  <speed>2.540000</speed>
</trkpt>
<trkpt lat="32.585342407" lon="35.011989594">
  <ele>143.798096</ele>
  <time>2011-07-29T06:11:26Z</time>
  <speed>2.880000</speed>
</trkpt>
<trkpt lat="32.585365295" lon="35.011932373">
  <ele>144.196533</ele>
  <time>2011-07-29T06:11:28Z</time>
  <speed>2.900000</speed>
</trkpt>
<trkpt lat="32.585388184" lon="35.011905670">
  <ele>144.860596</ele>
  <time>2011-07-29T06:11:29Z</time>
  <speed>3.070000</speed>
</trkpt>
<trkpt lat="32.585399628" lon="35.011867523">
  <ele>145.341064</ele>
  <time>2011-07-29T06:11:30Z</time>
  <speed>2.970000</speed>
</trkpt>
<trkpt lat="32.585414886" lon="35.011806488">
  <ele>145.192627</ele>
  <time>2011-07-29T06:11:32Z</time>
  <speed>2.680000</speed>
</trkpt>
<trkpt lat="32.585414886" lon="35.011772156">
  <ele>145.352783</ele>
  <time>2011-07-29T06:11:33Z</time>
  <speed>2.540000</speed>
</trkpt>
<trkpt lat="32.585426331" lon="35.011737823">
  <ele>145.376221</ele>
  <time>2011-07-29T06:11:34Z</time>
  <speed>2.870000</speed>
</trkpt>
<trkpt lat="32.585441589" lon="35.011680603">
  <ele>145.290283</ele>
  <time>2011-07-29T06:11:36Z</time>
  <speed>2.460000</speed>
</trkpt>
<trkpt lat="32.585453033" lon="35.011646271">
  <ele>145.368408</ele>
  <time>2011-07-29T06:11:37Z</time>
  <speed>2.660000</speed>
</trkpt>
<trkpt lat="32.585502625" lon="35.011562347">
  <ele>151.012939</ele>
  <time>2011-07-29T06:11:39Z</time>
  <speed>2.690000</speed>
</trkpt>
<trkpt lat="32.585536957" lon="35.011516571">
  <ele>150.891846</ele>
  <time>2011-07-29T06:11:41Z</time>
  <speed>2.620000</speed>
</trkpt>
<trkpt lat="32.585571289" lon="35.011470795">
  <ele>151.352783</ele>
  <time>2011-07-29T06:11:43Z</time>
  <speed>2.830000</speed>
</trkpt>
<trkpt lat="32.585597992" lon="35.011428833">
  <ele>151.009033</ele>
  <time>2011-07-29T06:11:45Z</time>
  <speed>2.000000</speed>
</trkpt>
<trkpt lat="32.585613251" lon="35.011348724">
  <ele>152.727783</ele>
  <time>2011-07-29T06:11:47Z</time>
  <speed>2.620000</speed>
</trkpt>
<trkpt lat="32.585605621" lon="35.011310577">
  <ele>153.122314</ele>
  <time>2011-07-29T06:11:48Z</time>
  <speed>3.170000</speed>
</trkpt>
<trkpt lat="32.585601807" lon="35.011272430">
  <ele>153.708252</ele>
  <time>2011-07-29T06:11:49Z</time>
  <speed>3.080000</speed>
</trkpt>
<trkpt lat="32.585605621" lon="35.011234283">
  <ele>154.411377</ele>
  <time>2011-07-29T06:11:50Z</time>
  <speed>2.980000</speed>
</trkpt>
<trkpt lat="32.585601807" lon="35.011157990">
  <ele>158.786377</ele>
  <time>2011-07-29T06:11:51Z</time>
  <speed>3.460000</speed>
</trkpt>
<trkpt lat="32.585586548" lon="35.011093140">
  <ele>161.930908</ele>
  <time>2011-07-29T06:11:52Z</time>
  <speed>2.760000</speed>
</trkpt>
<trkpt lat="32.585582733" lon="35.011054993">
  <ele>162.798096</ele>
  <time>2011-07-29T06:11:53Z</time>
  <speed>2.760000</speed>
</trkpt>
<trkpt lat="32.585571289" lon="35.010997772">
  <ele>164.024658</ele>
  <time>2011-07-29T06:11:55Z</time>
  <speed>2.470000</speed>
</trkpt>
<trkpt lat="32.585556030" lon="35.010944366">
  <ele>165.149658</ele>
  <time>2011-07-29T06:11:57Z</time>
  <speed>2.350000</speed>
</trkpt>
<trkpt lat="32.585552216" lon="35.010902405">
  <ele>165.962158</ele>
  <time>2011-07-29T06:11:58Z</time>
  <speed>2.780000</speed>
</trkpt>
<trkpt lat="32.585548401" lon="35.010841370">
  <ele>166.200439</ele>
  <time>2011-07-29T06:12:00Z</time>
  <speed>2.720000</speed>
</trkpt>
<trkpt lat="32.585559845" lon="35.010787964">
  <ele>167.106689</ele>
  <time>2011-07-29T06:12:02Z</time>
  <speed>2.640000</speed>
</trkpt>
<trkpt lat="32.585556030" lon="35.010749817">
  <ele>167.177002</ele>
  <time>2011-07-29T06:12:03Z</time>
  <speed>2.980000</speed>
</trkpt>
<trkpt lat="32.585556030" lon="35.010696411">
  <ele>167.739502</ele>
  <time>2011-07-29T06:12:05Z</time>
  <speed>2.370000</speed>
</trkpt>
<trkpt lat="32.585556030" lon="35.010646820">
  <ele>167.915283</ele>
  <time>2011-07-29T06:12:07Z</time>
  <speed>1.830000</speed>
</trkpt>
<trkpt lat="32.585552216" lon="35.010601044">
  <ele>167.997314</ele>
  <time>2011-07-29T06:12:09Z</time>
  <speed>2.040000</speed>
</trkpt>
<trkpt lat="32.585540771" lon="35.010562897">
  <ele>167.778564</ele>
  <time>2011-07-29T06:12:10Z</time>
  <speed>2.090000</speed>
</trkpt>
<trkpt lat="32.585529327" lon="35.010517120">
  <ele>167.919189</ele>
  <time>2011-07-29T06:12:12Z</time>
  <speed>2.280000</speed>
</trkpt>
<trkpt lat="32.585514069" lon="35.010467529">
  <ele>168.802002</ele>
  <time>2011-07-29T06:12:14Z</time>
  <speed>2.640000</speed>
</trkpt>
<trkpt lat="32.585506439" lon="35.010417938">
  <ele>168.915283</ele>
  <time>2011-07-29T06:12:16Z</time>
  <speed>2.640000</speed>
</trkpt>
<trkpt lat="32.585510254" lon="35.010387421">
  <ele>170.567627</ele>
  <time>2011-07-29T06:12:17Z</time>
  <speed>1.740000</speed>
</trkpt>
<trkpt lat="32.585502625" lon="35.010334015">
  <ele>173.356689</ele>
  <time>2011-07-29T06:12:19Z</time>
  <speed>2.160000</speed>
</trkpt>
<trkpt lat="32.585491180" lon="35.010288239">
  <ele>175.387939</ele>
  <time>2011-07-29T06:12:21Z</time>
  <speed>2.060000</speed>
</trkpt>
<trkpt lat="32.585479736" lon="35.010246277">
  <ele>176.645752</ele>
  <time>2011-07-29T06:12:23Z</time>
  <speed>1.850000</speed>
</trkpt>
<trkpt lat="32.585464478" lon="35.010200500">
  <ele>178.239502</ele>
  <time>2011-07-29T06:12:25Z</time>
  <speed>2.160000</speed>
</trkpt>
<trkpt lat="32.585460663" lon="35.010166168">
  <ele>179.391846</ele>
  <time>2011-07-29T06:12:27Z</time>
  <speed>1.880000</speed>
</trkpt>
<trkpt lat="32.585453033" lon="35.010131836">
  <ele>180.302002</ele>
  <time>2011-07-29T06:12:29Z</time>
  <speed>1.630000</speed>
</trkpt>
<trkpt lat="32.585449219" lon="35.010093689">
  <ele>180.981689</ele>
  <time>2011-07-29T06:12:31Z</time>
  <speed>2.030000</speed>
</trkpt>
<trkpt lat="32.585449219" lon="35.010051727">
  <ele>180.712158</ele>
  <time>2011-07-29T06:12:33Z</time>
  <speed>2.260000</speed>
</trkpt>
<trkpt lat="32.585445404" lon="35.010013580">
  <ele>182.063721</ele>
  <time>2011-07-29T06:12:35Z</time>
  <speed>1.610000</speed>
</trkpt>
<trkpt lat="32.585445404" lon="35.009979248">
  <ele>182.880127</ele>
  <time>2011-07-29T06:12:37Z</time>
  <speed>1.270000</speed>
</trkpt>
<trkpt lat="32.585449219" lon="35.009925842">
  <ele>182.544189</ele>
  <time>2011-07-29T06:12:40Z</time>
  <speed>2.010000</speed>
</trkpt>
<trkpt lat="32.585441589" lon="35.009872437">
  <ele>183.259033</ele>
  <time>2011-07-29T06:12:42Z</time>
  <speed>2.120000</speed>
</trkpt>
<trkpt lat="32.585437775" lon="35.009830475">
  <ele>183.934814</ele>
  <time>2011-07-29T06:12:44Z</time>
  <speed>2.030000</speed>
</trkpt>
<trkpt lat="32.585437775" lon="35.009784698">
  <ele>183.930908</ele>
  <time>2011-07-29T06:12:46Z</time>
  <speed>2.070000</speed>
</trkpt>
<trkpt lat="32.585433960" lon="35.009742737">
  <ele>184.653564</ele>
  <time>2011-07-29T06:12:48Z</time>
  <speed>1.660000</speed>
</trkpt>
<trkpt lat="32.585437775" lon="35.009708405">
  <ele>183.641846</ele>
  <time>2011-07-29T06:12:50Z</time>
  <speed>1.670000</speed>
</trkpt>
<trkpt lat="32.585441589" lon="35.009666443">
  <ele>183.407471</ele>
  <time>2011-07-29T06:12:52Z</time>
  <speed>1.840000</speed>
</trkpt>
<trkpt lat="32.585441589" lon="35.009624481">
  <ele>183.364502</ele>
  <time>2011-07-29T06:12:54Z</time>
  <speed>1.950000</speed>
</trkpt>
<trkpt lat="32.585437775" lon="35.009582520">
  <ele>183.055908</ele>
  <time>2011-07-29T06:12:56Z</time>
  <speed>1.830000</speed>
</trkpt>
<trkpt lat="32.585433960" lon="35.009540558">
  <ele>183.555908</ele>
  <time>2011-07-29T06:12:58Z</time>
  <speed>1.610000</speed>
</trkpt>
<trkpt lat="32.585430145" lon="35.009506226">
  <ele>183.313721</ele>
  <time>2011-07-29T06:13:00Z</time>
  <speed>1.860000</speed>
</trkpt>
<trkpt lat="32.585426331" lon="35.009464264">
  <ele>184.169189</ele>
  <time>2011-07-29T06:13:02Z</time>
  <speed>1.960000</speed>
</trkpt>
<trkpt lat="32.585430145" lon="35.009422302">
  <ele>183.579346</ele>
  <time>2011-07-29T06:13:04Z</time>
  <speed>1.740000</speed>
</trkpt>
<trkpt lat="32.585418701" lon="35.009380341">
  <ele>184.005127</ele>
  <time>2011-07-29T06:13:06Z</time>
  <speed>1.790000</speed>
</trkpt>
<trkpt lat="32.585422516" lon="35.009338379">
  <ele>184.626221</ele>
  <time>2011-07-29T06:13:08Z</time>
  <speed>2.000000</speed>
</trkpt>
<trkpt lat="32.585407257" lon="35.009296417">
  <ele>185.274658</ele>
  <time>2011-07-29T06:13:10Z</time>
  <speed>2.190000</speed>
</trkpt>
<trkpt lat="32.585388184" lon="35.009265900">
  <ele>183.938721</ele>
  <time>2011-07-29T06:13:12Z</time>
  <speed>1.700000</speed>
</trkpt>
<trkpt lat="32.585361481" lon="35.009250641">
  <ele>183.962158</ele>
  <time>2011-07-29T06:13:14Z</time>
  <speed>1.030000</speed>
</trkpt>
<trkpt lat="32.585357666" lon="35.009212494">
  <ele>185.434814</ele>
  <time>2011-07-29T06:13:17Z</time>
  <speed>0.700000</speed>
</trkpt>
<trkpt lat="32.585388184" lon="35.009185791">
  <ele>186.165283</ele>
  <time>2011-07-29T06:13:34Z</time>
  <speed>2.450000</speed>
</trkpt>
<trkpt lat="32.585441589" lon="35.009128571">
  <ele>185.282471</ele>
  <time>2011-07-29T06:13:36Z</time>
  <speed>3.830000</speed>
</trkpt>
<trkpt lat="32.585464478" lon="35.009109497">
  <ele>185.231689</ele>
  <time>2011-07-29T06:13:37Z</time>
  <speed>3.230000</speed>
</trkpt>
<trkpt lat="32.585487366" lon="35.009162903">
  <ele>183.223877</ele>
  <time>2011-07-29T06:13:39Z</time>
  <speed>2.260000</speed>
</trkpt>
<trkpt lat="32.585502625" lon="35.009189606">
  <ele>182.071533</ele>
  <time>2011-07-29T06:13:40Z</time>
  <speed>1.980000</speed>
</trkpt>
<trkpt lat="32.585552216" lon="35.009223938">
  <ele>180.575439</ele>
  <time>2011-07-29T06:13:42Z</time>
  <speed>3.100000</speed>
</trkpt>
<trkpt lat="32.585590363" lon="35.009239197">
  <ele>180.626221</ele>
  <time>2011-07-29T06:13:43Z</time>
  <speed>3.320000</speed>
</trkpt>
<trkpt lat="32.585620880" lon="35.009250641">
  <ele>180.298096</ele>
  <time>2011-07-29T06:13:44Z</time>
  <speed>3.650000</speed>
</trkpt>
<trkpt lat="32.585655212" lon="35.009265900">
  <ele>179.864502</ele>
  <time>2011-07-29T06:13:45Z</time>
  <speed>3.290000</speed>
</trkpt>
<trkpt lat="32.585689545" lon="35.009273529">
  <ele>179.083252</ele>
  <time>2011-07-29T06:13:46Z</time>
  <speed>2.940000</speed>
</trkpt>
<trkpt lat="32.585716248" lon="35.009265900">
  <ele>178.309814</ele>
  <time>2011-07-29T06:13:47Z</time>
  <speed>2.880000</speed>
</trkpt>
<trkpt lat="32.585758209" lon="35.009262085">
  <ele>177.469971</ele>
  <time>2011-07-29T06:13:48Z</time>
  <speed>2.490000</speed>
</trkpt>
<trkpt lat="32.585788727" lon="35.009250641">
  <ele>176.708252</ele>
  <time>2011-07-29T06:13:49Z</time>
  <speed>2.350000</speed>
</trkpt>
<trkpt lat="32.585800171" lon="35.009223938">
  <ele>175.544189</ele>
  <time>2011-07-29T06:13:50Z</time>
  <speed>2.360000</speed>
</trkpt>
<trkpt lat="32.585823059" lon="35.009185791">
  <ele>174.083252</ele>
  <time>2011-07-29T06:13:52Z</time>
  <speed>1.930000</speed>
</trkpt>
<trkpt lat="32.585853577" lon="35.009181976">
  <ele>172.762939</ele>
  <time>2011-07-29T06:13:54Z</time>
  <speed>1.690000</speed>
</trkpt>
<trkpt lat="32.585865021" lon="35.009204865">
  <ele>171.298096</ele>
  <time>2011-07-29T06:13:56Z</time>
  <speed>1.220000</speed>
</trkpt>
<trkpt lat="32.585906982" lon="35.009201050">
  <ele>170.684814</ele>
  <time>2011-07-29T06:13:58Z</time>
  <speed>2.470000</speed>
</trkpt>
<trkpt lat="32.585933685" lon="35.009193420">
  <ele>169.962158</ele>
  <time>2011-07-29T06:13:59Z</time>
  <speed>2.240000</speed>
</trkpt>
<trkpt lat="32.585971832" lon="35.009197235">
  <ele>168.555908</ele>
  <time>2011-07-29T06:14:01Z</time>
  <speed>1.680000</speed>
</trkpt>
<trkpt lat="32.586006165" lon="35.009220123">
  <ele>167.169189</ele>
  <time>2011-07-29T06:14:03Z</time>
  <speed>2.320000</speed>
</trkpt>
<trkpt lat="32.586036682" lon="35.009239197">
  <ele>166.907471</ele>
  <time>2011-07-29T06:14:04Z</time>
  <speed>3.170000</speed>
</trkpt>
<trkpt lat="32.586063385" lon="35.009258270">
  <ele>166.829346</ele>
  <time>2011-07-29T06:14:05Z</time>
  <speed>2.700000</speed>
</trkpt>
<trkpt lat="32.586090088" lon="35.009277344">
  <ele>165.739502</ele>
  <time>2011-07-29T06:14:06Z</time>
  <speed>2.690000</speed>
</trkpt>
<trkpt lat="32.586112976" lon="35.009288788">
  <ele>164.290283</ele>
  <time>2011-07-29T06:14:07Z</time>
  <speed>2.480000</speed>
</trkpt>
<trkpt lat="32.586154938" lon="35.009296417">
  <ele>163.907471</ele>
  <time>2011-07-29T06:14:08Z</time>
  <speed>2.410000</speed>
</trkpt>
<trkpt lat="32.586181641" lon="35.009330750">
  <ele>162.606689</ele>
  <time>2011-07-29T06:14:10Z</time>
  <speed>2.110000</speed>
</trkpt>
<trkpt lat="32.586219788" lon="35.009368896">
  <ele>160.844971</ele>
  <time>2011-07-29T06:14:12Z</time>
  <speed>2.510000</speed>
</trkpt>
<trkpt lat="32.586250305" lon="35.009376526">
  <ele>159.981689</ele>
  <time>2011-07-29T06:14:13Z</time>
  <speed>3.010000</speed>
</trkpt>
<trkpt lat="32.586277008" lon="35.009384155">
  <ele>159.462158</ele>
  <time>2011-07-29T06:14:14Z</time>
  <speed>2.500000</speed>
</trkpt>
<trkpt lat="32.586307526" lon="35.009387970">
  <ele>158.598877</ele>
  <time>2011-07-29T06:14:15Z</time>
  <speed>2.520000</speed>
</trkpt>
<trkpt lat="32.586334229" lon="35.009395599">
  <ele>157.786377</ele>
  <time>2011-07-29T06:14:16Z</time>
  <speed>2.590000</speed>
</trkpt>
<trkpt lat="32.586372375" lon="35.009407043">
  <ele>156.227783</ele>
  <time>2011-07-29T06:14:18Z</time>
  <speed>1.740000</speed>
</trkpt>
<trkpt lat="32.586395264" lon="35.009387970">
  <ele>153.829346</ele>
  <time>2011-07-29T06:14:21Z</time>
  <speed>0.240000</speed>
</trkpt>
<trkpt lat="32.586395264" lon="35.009334564">
  <ele>153.899658</ele>
  <time>2011-07-29T06:14:23Z</time>
  <speed>1.640000</speed>
</trkpt>
<trkpt lat="32.586406708" lon="35.009296417">
  <ele>153.075439</ele>
  <time>2011-07-29T06:14:25Z</time>
  <speed>1.830000</speed>
</trkpt>
<trkpt lat="32.586406708" lon="35.009220123">
  <ele>151.333252</ele>
  <time>2011-07-29T06:14:27Z</time>
  <speed>2.080000</speed>
</trkpt>
<trkpt lat="32.586437225" lon="35.009208679">
  <ele>149.903564</ele>
  <time>2011-07-29T06:14:28Z</time>
  <speed>2.690000</speed>
</trkpt>
<trkpt lat="32.586471558" lon="35.009181976">
  <ele>149.794189</ele>
  <time>2011-07-29T06:14:29Z</time>
  <speed>2.660000</speed>
</trkpt>
<trkpt lat="32.586467743" lon="35.009140015">
  <ele>148.208252</ele>
  <time>2011-07-29T06:14:31Z</time>
  <speed>1.720000</speed>
</trkpt>
<trkpt lat="32.586467743" lon="35.009098053">
  <ele>149.094971</ele>
  <time>2011-07-29T06:14:32Z</time>
  <speed>1.680000</speed>
</trkpt>
<trkpt lat="32.586460114" lon="35.009063721">
  <ele>148.325439</ele>
  <time>2011-07-29T06:14:34Z</time>
  <speed>1.420000</speed>
</trkpt>
<trkpt lat="32.586498260" lon="35.009059906">
  <ele>146.423096</ele>
  <time>2011-07-29T06:14:36Z</time>
  <speed>2.560000</speed>
</trkpt>
<trkpt lat="32.586544037" lon="35.009048462">
  <ele>145.118408</ele>
  <time>2011-07-29T06:14:38Z</time>
  <speed>1.980000</speed>
</trkpt>
<trkpt lat="32.586555481" lon="35.009002686">
  <ele>144.177002</ele>
  <time>2011-07-29T06:14:40Z</time>
  <speed>1.690000</speed>
</trkpt>
<trkpt lat="32.586547852" lon="35.008945465">
  <ele>143.544189</ele>
  <time>2011-07-29T06:14:42Z</time>
  <speed>2.340000</speed>
</trkpt>
<trkpt lat="32.586532593" lon="35.008892059">
  <ele>142.243408</ele>
  <time>2011-07-29T06:14:44Z</time>
  <speed>2.900000</speed>
</trkpt>
<trkpt lat="32.586532593" lon="35.008857727">
  <ele>141.286377</ele>
  <time>2011-07-29T06:14:45Z</time>
  <speed>2.930000</speed>
</trkpt>
<trkpt lat="32.586536407" lon="35.008819580">
  <ele>141.032471</ele>
  <time>2011-07-29T06:14:46Z</time>
  <speed>2.920000</speed>
</trkpt>
<trkpt lat="32.586544037" lon="35.008785248">
  <ele>140.563721</ele>
  <time>2011-07-29T06:14:47Z</time>
  <speed>2.580000</speed>
</trkpt>
<trkpt lat="32.586559296" lon="35.008758545">
  <ele>139.555908</ele>
  <time>2011-07-29T06:14:48Z</time>
  <speed>2.470000</speed>
</trkpt>
<trkpt lat="32.586559296" lon="35.008720398">
  <ele>138.184814</ele>
  <time>2011-07-29T06:14:49Z</time>
  <speed>3.170000</speed>
</trkpt>
<trkpt lat="32.586574554" lon="35.008689880">
  <ele>137.219971</ele>
  <time>2011-07-29T06:14:50Z</time>
  <speed>3.400000</speed>
</trkpt>
<trkpt lat="32.586589813" lon="35.008663177">
  <ele>136.052002</ele>
  <time>2011-07-29T06:14:51Z</time>
  <speed>2.610000</speed>
</trkpt>
<trkpt lat="32.586593628" lon="35.008602142">
  <ele>135.087158</ele>
  <time>2011-07-29T06:14:53Z</time>
  <speed>2.640000</speed>
</trkpt>
<trkpt lat="32.586597443" lon="35.008571625">
  <ele>134.606689</ele>
  <time>2011-07-29T06:14:54Z</time>
  <speed>2.430000</speed>
</trkpt>
<trkpt lat="32.586612701" lon="35.008506775">
  <ele>133.305908</ele>
  <time>2011-07-29T06:14:56Z</time>
  <speed>3.250000</speed>
</trkpt>
<trkpt lat="32.586620331" lon="35.008449554">
  <ele>132.376221</ele>
  <time>2011-07-29T06:14:57Z</time>
  <speed>4.370000</speed>
</trkpt>
<trkpt lat="32.586624146" lon="35.008403778">
  <ele>131.837158</ele>
  <time>2011-07-29T06:14:58Z</time>
  <speed>3.310000</speed>
</trkpt>
<trkpt lat="32.586627960" lon="35.008361816">
  <ele>130.680908</ele>
  <time>2011-07-29T06:14:59Z</time>
  <speed>2.700000</speed>
</trkpt>
<trkpt lat="32.586635590" lon="35.008327484">
  <ele>129.430908</ele>
  <time>2011-07-29T06:15:00Z</time>
  <speed>2.690000</speed>
</trkpt>
<trkpt lat="32.586662292" lon="35.008281708">
  <ele>127.641235</ele>
  <time>2011-07-29T06:15:02Z</time>
  <speed>2.640000</speed>
</trkpt>
<trkpt lat="32.586673737" lon="35.008255005">
  <ele>127.094360</ele>
  <time>2011-07-29T06:15:03Z</time>
  <speed>2.980000</speed>
</trkpt>
<trkpt lat="32.586658478" lon="35.008178711">
  <ele>126.352173</ele>
  <time>2011-07-29T06:15:04Z</time>
  <speed>2.860000</speed>
</trkpt>
<trkpt lat="32.586673737" lon="35.008152008">
  <ele>125.473267</ele>
  <time>2011-07-29T06:15:05Z</time>
  <speed>2.320000</speed>
</trkpt>
<trkpt lat="32.586669922" lon="35.008102417">
  <ele>123.582642</ele>
  <time>2011-07-29T06:15:07Z</time>
  <speed>1.520000</speed>
</trkpt>
<trkpt lat="32.586650848" lon="35.008075714">
  <ele>121.617798</ele>
  <time>2011-07-29T06:15:09Z</time>
  <speed>1.660000</speed>
</trkpt>
<trkpt lat="32.586635590" lon="35.008037567">
  <ele>119.574829</ele>
  <time>2011-07-29T06:15:11Z</time>
  <speed>1.160000</speed>
</trkpt>
<trkpt lat="32.586647034" lon="35.007995605">
  <ele>118.471313</ele>
  <time>2011-07-29T06:15:14Z</time>
  <speed>1.280000</speed>
</trkpt>
<trkpt lat="32.586681366" lon="35.007961273">
  <ele>117.217407</ele>
  <time>2011-07-29T06:15:16Z</time>
  <speed>3.000000</speed>
</trkpt>
<trkpt lat="32.586700439" lon="35.007923126">
  <ele>116.065063</ele>
  <time>2011-07-29T06:15:17Z</time>
  <speed>3.510000</speed>
</trkpt>
<trkpt lat="32.586719513" lon="35.007888794">
  <ele>114.943970</ele>
  <time>2011-07-29T06:15:18Z</time>
  <speed>3.190000</speed>
</trkpt>
<trkpt lat="32.586757660" lon="35.007865906">
  <ele>113.897095</ele>
  <time>2011-07-29T06:15:20Z</time>
  <speed>1.770000</speed>
</trkpt>
<trkpt lat="32.586799622" lon="35.007888794">
  <ele>112.609985</ele>
  <time>2011-07-29T06:15:22Z</time>
  <speed>2.880000</speed>
</trkpt>
<trkpt lat="32.586803436" lon="35.007923126">
  <ele>111.002563</ele>
  <time>2011-07-29T06:15:23Z</time>
  <speed>2.760000</speed>
</trkpt>
<trkpt lat="32.586833954" lon="35.007968903">
  <ele>109.752563</ele>
  <time>2011-07-29T06:15:25Z</time>
  <speed>1.360000</speed>
</trkpt>
<trkpt lat="32.586860657" lon="35.007953644">
  <ele>109.029907</ele>
  <time>2011-07-29T06:15:27Z</time>
  <speed>1.660000</speed>
</trkpt>
<trkpt lat="32.586887360" lon="35.007934570">
  <ele>108.234985</ele>
  <time>2011-07-29T06:15:28Z</time>
  <speed>2.540000</speed>
</trkpt>
<trkpt lat="32.586921692" lon="35.007896423">
  <ele>106.869751</ele>
  <time>2011-07-29T06:15:30Z</time>
  <speed>1.890000</speed>
</trkpt>
<trkpt lat="32.586990356" lon="35.007892609">
  <ele>105.664673</ele>
  <time>2011-07-29T06:15:32Z</time>
  <speed>1.730000</speed>
</trkpt>
<trkpt lat="32.587013245" lon="35.007865906">
  <ele>105.984985</ele>
  <time>2011-07-29T06:15:35Z</time>
  <speed>0.210000</speed>
</trkpt>
<trkpt lat="32.586986542" lon="35.007873535">
  <ele>107.012329</ele>
  <time>2011-07-29T06:15:47Z</time>
  <speed>0.580000</speed>
</trkpt>
<trkpt lat="32.587017059" lon="35.007884979">
  <ele>106.686157</ele>
  <time>2011-07-29T06:16:00Z</time>
  <speed>1.050000</speed>
</trkpt>
<trkpt lat="32.587036133" lon="35.007858276">
  <ele>106.410767</ele>
  <time>2011-07-29T06:16:02Z</time>
  <speed>1.340000</speed>
</trkpt>
<trkpt lat="32.587066650" lon="35.007835388">
  <ele>106.920532</ele>
  <time>2011-07-29T06:16:05Z</time>
  <speed>1.090000</speed>
</trkpt>
<trkpt lat="32.587093353" lon="35.007816315">
  <ele>106.399048</ele>
  <time>2011-07-29T06:16:07Z</time>
  <speed>2.360000</speed>
</trkpt>
<trkpt lat="32.587131500" lon="35.007789612">
  <ele>105.453735</ele>
  <time>2011-07-29T06:16:09Z</time>
  <speed>2.450000</speed>
</trkpt>
<trkpt lat="32.587150574" lon="35.007812500">
  <ele>103.656860</ele>
  <time>2011-07-29T06:16:11Z</time>
  <speed>1.040000</speed>
</trkpt>
<trkpt lat="32.587173462" lon="35.007835388">
  <ele>102.832642</ele>
  <time>2011-07-29T06:16:13Z</time>
  <speed>1.220000</speed>
</trkpt>
<trkpt lat="32.587223053" lon="35.007839203">
  <ele>100.246704</ele>
  <time>2011-07-29T06:16:16Z</time>
  <speed>2.660000</speed>
</trkpt>
<trkpt lat="32.587245941" lon="35.007854462">
  <ele>99.586548</ele>
  <time>2011-07-29T06:16:17Z</time>
  <speed>2.570000</speed>
</trkpt>
<trkpt lat="32.587280273" lon="35.007873535">
  <ele>98.061157</ele>
  <time>2011-07-29T06:16:19Z</time>
  <speed>1.310000</speed>
</trkpt>
<trkpt lat="32.587326050" lon="35.007858276">
  <ele>97.074829</ele>
  <time>2011-07-29T06:16:21Z</time>
  <speed>1.000000</speed>
</trkpt>
<trkpt lat="32.587333679" lon="35.007820129">
  <ele>96.627563</ele>
  <time>2011-07-29T06:16:23Z</time>
  <speed>2.190000</speed>
</trkpt>
<trkpt lat="32.587341309" lon="35.007762909">
  <ele>95.402954</ele>
  <time>2011-07-29T06:16:25Z</time>
  <speed>2.580000</speed>
</trkpt>
<trkpt lat="32.587333679" lon="35.007705688">
  <ele>96.029907</ele>
  <time>2011-07-29T06:16:26Z</time>
  <speed>2.950000</speed>
</trkpt>
<trkpt lat="32.587326050" lon="35.007667542">
  <ele>95.774048</ele>
  <time>2011-07-29T06:16:27Z</time>
  <speed>2.710000</speed>
</trkpt>
<trkpt lat="32.587322235" lon="35.007602692">
  <ele>94.115845</ele>
  <time>2011-07-29T06:16:29Z</time>
  <speed>2.590000</speed>
</trkpt>
<trkpt lat="32.587348938" lon="35.007572174">
  <ele>92.815063</ele>
  <time>2011-07-29T06:16:31Z</time>
  <speed>1.610000</speed>
</trkpt>
<trkpt lat="32.587387085" lon="35.007579803">
  <ele>91.242798</ele>
  <time>2011-07-29T06:16:33Z</time>
  <speed>2.330000</speed>
</trkpt>
<trkpt lat="32.587436676" lon="35.007602692">
  <ele>90.186157</ele>
  <time>2011-07-29T06:16:35Z</time>
  <speed>2.910000</speed>
</trkpt>
<trkpt lat="32.587478638" lon="35.007602692">
  <ele>89.258423</ele>
  <time>2011-07-29T06:16:36Z</time>
  <speed>3.450000</speed>
</trkpt>
<trkpt lat="32.587512970" lon="35.007598877">
  <ele>88.055298</ele>
  <time>2011-07-29T06:16:37Z</time>
  <speed>3.040000</speed>
</trkpt>
<trkpt lat="32.587543488" lon="35.007598877">
  <ele>86.969360</ele>
  <time>2011-07-29T06:16:38Z</time>
  <speed>3.500000</speed>
</trkpt>
<trkpt lat="32.587577820" lon="35.007579803">
  <ele>85.621704</ele>
  <time>2011-07-29T06:16:39Z</time>
  <speed>3.240000</speed>
</trkpt>
<trkpt lat="32.587615967" lon="35.007591248">
  <ele>84.717407</ele>
  <time>2011-07-29T06:16:40Z</time>
  <speed>3.330000</speed>
</trkpt>
<trkpt lat="32.587631226" lon="35.007614136">
  <ele>83.627563</ele>
  <time>2011-07-29T06:16:41Z</time>
  <speed>2.880000</speed>
</trkpt>
<trkpt lat="32.587635040" lon="35.007648468">
  <ele>82.151001</ele>
  <time>2011-07-29T06:16:42Z</time>
  <speed>3.300000</speed>
</trkpt>
<trkpt lat="32.587638855" lon="35.007678986">
  <ele>81.041626</ele>
  <time>2011-07-29T06:16:43Z</time>
  <speed>2.310000</speed>
</trkpt>
<trkpt lat="32.587638855" lon="35.007717133">
  <ele>79.861938</ele>
  <time>2011-07-29T06:16:45Z</time>
  <speed>1.390000</speed>
</trkpt>
<trkpt lat="32.587627411" lon="35.007755280">
  <ele>78.965454</ele>
  <time>2011-07-29T06:16:47Z</time>
  <speed>1.260000</speed>
</trkpt>
<trkpt lat="32.587642670" lon="35.007789612">
  <ele>78.231079</ele>
  <time>2011-07-29T06:16:49Z</time>
  <speed>1.350000</speed>
</trkpt>
<trkpt lat="32.587661743" lon="35.007816315">
  <ele>76.356079</ele>
  <time>2011-07-29T06:16:51Z</time>
  <speed>0.730000</speed>
</trkpt>
<trkpt lat="32.587673187" lon="35.007854462">
  <ele>75.168579</ele>
  <time>2011-07-29T06:16:55Z</time>
  <speed>0.810000</speed>
</trkpt>
<trkpt lat="32.587680817" lon="35.007888794">
  <ele>73.813110</ele>
  <time>2011-07-29T06:16:58Z</time>
  <speed>0.910000</speed>
</trkpt>
<trkpt lat="32.587696075" lon="35.007930756">
  <ele>73.777954</ele>
  <time>2011-07-29T06:17:01Z</time>
  <speed>1.180000</speed>
</trkpt>
<trkpt lat="32.587715149" lon="35.007961273">
  <ele>73.529907</ele>
  <time>2011-07-29T06:17:03Z</time>
  <speed>1.350000</speed>
</trkpt>
<trkpt lat="32.587711334" lon="35.007991791">
  <ele>72.348267</ele>
  <time>2011-07-29T06:17:05Z</time>
  <speed>1.230000</speed>
</trkpt>
<trkpt lat="32.587726593" lon="35.008014679">
  <ele>71.617798</ele>
  <time>2011-07-29T06:17:07Z</time>
  <speed>1.170000</speed>
</trkpt>
<trkpt lat="32.587738037" lon="35.008049011">
  <ele>72.586548</ele>
  <time>2011-07-29T06:17:08Z</time>
  <speed>1.660000</speed>
</trkpt>
<trkpt lat="32.587749481" lon="35.008075714">
  <ele>73.299438</ele>
  <time>2011-07-29T06:17:10Z</time>
  <speed>1.330000</speed>
</trkpt>
<trkpt lat="32.587776184" lon="35.008102417">
  <ele>74.502563</ele>
  <time>2011-07-29T06:17:13Z</time>
  <speed>0.970000</speed>
</trkpt>
<trkpt lat="32.587806702" lon="35.008121490">
  <ele>73.936157</ele>
  <time>2011-07-29T06:17:15Z</time>
  <speed>1.420000</speed>
</trkpt>
<trkpt lat="32.587833405" lon="35.008159637">
  <ele>74.299438</ele>
  <time>2011-07-29T06:17:18Z</time>
  <speed>1.430000</speed>
</trkpt>
<trkpt lat="32.587860107" lon="35.008186340">
  <ele>74.195923</ele>
  <time>2011-07-29T06:17:20Z</time>
  <speed>1.540000</speed>
</trkpt>
<trkpt lat="32.587890625" lon="35.008220673">
  <ele>74.233032</ele>
  <time>2011-07-29T06:17:23Z</time>
  <speed>1.380000</speed>
</trkpt>
<trkpt lat="32.587909698" lon="35.008247375">
  <ele>74.123657</ele>
  <time>2011-07-29T06:17:25Z</time>
  <speed>1.370000</speed>
</trkpt>
<trkpt lat="32.587921143" lon="35.008281708">
  <ele>74.848267</ele>
  <time>2011-07-29T06:17:27Z</time>
  <speed>1.370000</speed>
</trkpt>
<trkpt lat="32.587940216" lon="35.008308411">
  <ele>75.080688</ele>
  <time>2011-07-29T06:17:29Z</time>
  <speed>1.010000</speed>
</trkpt>
<trkpt lat="32.587970734" lon="35.008319855">
  <ele>76.098267</ele>
  <time>2011-07-29T06:17:32Z</time>
  <speed>0.920000</speed>
</trkpt>
<trkpt lat="32.588008881" lon="35.008350372">
  <ele>75.879517</ele>
  <time>2011-07-29T06:17:36Z</time>
  <speed>1.850000</speed>
</trkpt>
<trkpt lat="32.588039398" lon="35.008373260">
  <ele>75.901001</ele>
  <time>2011-07-29T06:17:38Z</time>
  <speed>1.510000</speed>
</trkpt>
<trkpt lat="32.588077545" lon="35.008388519">
  <ele>76.768188</ele>
  <time>2011-07-29T06:17:40Z</time>
  <speed>1.670000</speed>
</trkpt>
<trkpt lat="32.588096619" lon="35.008422852">
  <ele>77.000610</ele>
  <time>2011-07-29T06:17:42Z</time>
  <speed>2.170000</speed>
</trkpt>
<trkpt lat="32.588123322" lon="35.008457184">
  <ele>77.104126</ele>
  <time>2011-07-29T06:17:44Z</time>
  <speed>2.030000</speed>
</trkpt>
<trkpt lat="32.588157654" lon="35.008483887">
  <ele>77.557251</ele>
  <time>2011-07-29T06:17:46Z</time>
  <speed>1.940000</speed>
</trkpt>
<trkpt lat="32.588180542" lon="35.008529663">
  <ele>77.539673</ele>
  <time>2011-07-29T06:17:48Z</time>
  <speed>2.550000</speed>
</trkpt>
<trkpt lat="32.588195801" lon="35.008556366">
  <ele>77.227173</ele>
  <time>2011-07-29T06:17:49Z</time>
  <speed>2.560000</speed>
</trkpt>
<trkpt lat="32.588218689" lon="35.008602142">
  <ele>77.264282</ele>
  <time>2011-07-29T06:17:51Z</time>
  <speed>2.340000</speed>
</trkpt>
<trkpt lat="32.588233948" lon="35.008663177">
  <ele>79.149048</ele>
  <time>2011-07-29T06:17:53Z</time>
  <speed>2.000000</speed>
</trkpt>
<trkpt lat="32.588245392" lon="35.008705139">
  <ele>79.639282</ele>
  <time>2011-07-29T06:17:55Z</time>
  <speed>2.280000</speed>
</trkpt>
<trkpt lat="32.588268280" lon="35.008743286">
  <ele>79.520142</ele>
  <time>2011-07-29T06:17:57Z</time>
  <speed>2.200000</speed>
</trkpt>
<trkpt lat="32.588279724" lon="35.008762360">
  <ele>82.168579</ele>
  <time>2011-07-29T06:17:58Z</time>
  <speed>2.600000</speed>
</trkpt>
<trkpt lat="32.588294983" lon="35.008796692">
  <ele>84.672485</ele>
  <time>2011-07-29T06:18:00Z</time>
  <speed>2.420000</speed>
</trkpt>
<trkpt lat="32.588321686" lon="35.008838654">
  <ele>85.920532</ele>
  <time>2011-07-29T06:18:02Z</time>
  <speed>2.560000</speed>
</trkpt>
<trkpt lat="32.588348389" lon="35.008884430">
  <ele>86.529907</ele>
  <time>2011-07-29T06:18:04Z</time>
  <speed>2.030000</speed>
</trkpt>
<trkpt lat="32.588371277" lon="35.008922577">
  <ele>87.443970</ele>
  <time>2011-07-29T06:18:06Z</time>
  <speed>1.620000</speed>
</trkpt>
<trkpt lat="32.588394165" lon="35.008949280">
  <ele>87.670532</ele>
  <time>2011-07-29T06:18:08Z</time>
  <speed>1.820000</speed>
</trkpt>
<trkpt lat="32.588417053" lon="35.008979797">
  <ele>87.705688</ele>
  <time>2011-07-29T06:18:10Z</time>
  <speed>1.990000</speed>
</trkpt>
<trkpt lat="32.588436127" lon="35.009021759">
  <ele>87.389282</ele>
  <time>2011-07-29T06:18:12Z</time>
  <speed>2.150000</speed>
</trkpt>
<trkpt lat="32.588455200" lon="35.009067535">
  <ele>88.781860</ele>
  <time>2011-07-29T06:18:14Z</time>
  <speed>2.060000</speed>
</trkpt>
<trkpt lat="32.588462830" lon="35.009105682">
  <ele>89.080688</ele>
  <time>2011-07-29T06:18:16Z</time>
  <speed>1.890000</speed>
</trkpt>
<trkpt lat="32.588481903" lon="35.009151459">
  <ele>89.623657</ele>
  <time>2011-07-29T06:18:18Z</time>
  <speed>2.040000</speed>
</trkpt>
<trkpt lat="32.588470459" lon="35.009201050">
  <ele>89.252563</ele>
  <time>2011-07-29T06:18:20Z</time>
  <speed>2.200000</speed>
</trkpt>
<trkpt lat="32.588470459" lon="35.009254456">
  <ele>89.225220</ele>
  <time>2011-07-29T06:18:22Z</time>
  <speed>2.560000</speed>
</trkpt>
<trkpt lat="32.588474274" lon="35.009292603">
  <ele>89.670532</ele>
  <time>2011-07-29T06:18:24Z</time>
  <speed>2.320000</speed>
</trkpt>
<trkpt lat="32.588474274" lon="35.009346008">
  <ele>89.539673</ele>
  <time>2011-07-29T06:18:26Z</time>
  <speed>2.460000</speed>
</trkpt>
<trkpt lat="32.588481903" lon="35.009395599">
  <ele>89.758423</ele>
  <time>2011-07-29T06:18:28Z</time>
  <speed>2.260000</speed>
</trkpt>
<trkpt lat="32.588497162" lon="35.009449005">
  <ele>89.811157</ele>
  <time>2011-07-29T06:18:30Z</time>
  <speed>2.580000</speed>
</trkpt>
<trkpt lat="32.588497162" lon="35.009502411">
  <ele>89.901001</ele>
  <time>2011-07-29T06:18:32Z</time>
  <speed>2.280000</speed>
</trkpt>
<trkpt lat="32.588500977" lon="35.009544373">
  <ele>89.940063</ele>
  <time>2011-07-29T06:18:34Z</time>
  <speed>2.010000</speed>
</trkpt>
<trkpt lat="32.588493347" lon="35.009593964">
  <ele>89.358032</ele>
  <time>2011-07-29T06:18:36Z</time>
  <speed>2.110000</speed>
</trkpt>
<trkpt lat="32.588485718" lon="35.009628296">
  <ele>89.670532</ele>
  <time>2011-07-29T06:18:38Z</time>
  <speed>1.280000</speed>
</trkpt>
<trkpt lat="32.588478088" lon="35.009666443">
  <ele>89.313110</ele>
  <time>2011-07-29T06:18:40Z</time>
  <speed>1.750000</speed>
</trkpt>
<trkpt lat="32.588470459" lon="35.009708405">
  <ele>88.670532</ele>
  <time>2011-07-29T06:18:42Z</time>
  <speed>2.250000</speed>
</trkpt>
<trkpt lat="32.588459015" lon="35.009750366">
  <ele>88.656860</ele>
  <time>2011-07-29T06:18:44Z</time>
  <speed>2.140000</speed>
</trkpt>
<trkpt lat="32.588459015" lon="35.009799957">
  <ele>89.033813</ele>
  <time>2011-07-29T06:18:46Z</time>
  <speed>1.850000</speed>
</trkpt>
<trkpt lat="32.588470459" lon="35.009834290">
  <ele>88.885376</ele>
  <time>2011-07-29T06:18:48Z</time>
  <speed>1.770000</speed>
</trkpt>
<trkpt lat="32.588470459" lon="35.009868622">
  <ele>89.289673</ele>
  <time>2011-07-29T06:18:50Z</time>
  <speed>1.680000</speed>
</trkpt>
<trkpt lat="32.588451385" lon="35.009899139">
  <ele>90.139282</ele>
  <time>2011-07-29T06:18:52Z</time>
  <speed>1.790000</speed>
</trkpt>
<trkpt lat="32.588447571" lon="35.009933472">
  <ele>90.965454</ele>
  <time>2011-07-29T06:18:54Z</time>
  <speed>1.600000</speed>
</trkpt>
<trkpt lat="32.588443756" lon="35.009967804">
  <ele>91.629517</ele>
  <time>2011-07-29T06:18:56Z</time>
  <speed>1.300000</speed>
</trkpt>
<trkpt lat="32.588432312" lon="35.010005951">
  <ele>93.877563</ele>
  <time>2011-07-29T06:18:59Z</time>
  <speed>1.300000</speed>
</trkpt>
<trkpt lat="32.588428497" lon="35.010036469">
  <ele>94.598267</ele>
  <time>2011-07-29T06:19:01Z</time>
  <speed>1.470000</speed>
</trkpt>
<trkpt lat="32.588428497" lon="35.010074615">
  <ele>94.055298</ele>
  <time>2011-07-29T06:19:03Z</time>
  <speed>1.580000</speed>
</trkpt>
<trkpt lat="32.588432312" lon="35.010108948">
  <ele>94.180298</ele>
  <time>2011-07-29T06:19:05Z</time>
  <speed>1.490000</speed>
</trkpt>
<trkpt lat="32.588432312" lon="35.010158539">
  <ele>94.875610</ele>
  <time>2011-07-29T06:19:08Z</time>
  <speed>1.760000</speed>
</trkpt>
<trkpt lat="32.588432312" lon="35.010204315">
  <ele>95.229126</ele>
  <time>2011-07-29T06:19:10Z</time>
  <speed>1.350000</speed>
</trkpt>
<trkpt lat="32.588428497" lon="35.010234833">
  <ele>96.031860</ele>
  <time>2011-07-29T06:19:12Z</time>
  <speed>1.590000</speed>
</trkpt>
<trkpt lat="32.588428497" lon="35.010272980">
  <ele>97.109985</ele>
  <time>2011-07-29T06:19:14Z</time>
  <speed>1.190000</speed>
</trkpt>
<trkpt lat="32.588451385" lon="35.010311127">
  <ele>98.633423</ele>
  <time>2011-07-29T06:19:16Z</time>
  <speed>1.790000</speed>
</trkpt>
<trkpt lat="32.588462830" lon="35.010349274">
  <ele>100.033813</ele>
  <time>2011-07-29T06:19:18Z</time>
  <speed>1.590000</speed>
</trkpt>
<trkpt lat="32.588481903" lon="35.010398865">
  <ele>101.805298</ele>
  <time>2011-07-29T06:19:20Z</time>
  <speed>1.850000</speed>
</trkpt>
<trkpt lat="32.588485718" lon="35.010429382">
  <ele>102.160767</ele>
  <time>2011-07-29T06:19:22Z</time>
  <speed>1.790000</speed>
</trkpt>
<trkpt lat="32.588493347" lon="35.010475159">
  <ele>102.012329</ele>
  <time>2011-07-29T06:19:24Z</time>
  <speed>1.880000</speed>
</trkpt>
<trkpt lat="32.588508606" lon="35.010509491">
  <ele>102.725220</ele>
  <time>2011-07-29T06:19:26Z</time>
  <speed>1.760000</speed>
</trkpt>
<trkpt lat="32.588516235" lon="35.010559082">
  <ele>103.383423</ele>
  <time>2011-07-29T06:19:29Z</time>
  <speed>1.710000</speed>
</trkpt>
<trkpt lat="32.588527679" lon="35.010601044">
  <ele>103.604126</ele>
  <time>2011-07-29T06:19:31Z</time>
  <speed>2.000000</speed>
</trkpt>
<trkpt lat="32.588542938" lon="35.010623932">
  <ele>104.633423</ele>
  <time>2011-07-29T06:19:32Z</time>
  <speed>2.140000</speed>
</trkpt>
<trkpt lat="32.588546753" lon="35.010669708">
  <ele>105.123657</ele>
  <time>2011-07-29T06:19:34Z</time>
  <speed>2.160000</speed>
</trkpt>
<trkpt lat="32.588562012" lon="35.010715485">
  <ele>105.664673</ele>
  <time>2011-07-29T06:19:36Z</time>
  <speed>2.160000</speed>
</trkpt>
<trkpt lat="32.588573456" lon="35.010765076">
  <ele>106.225220</ele>
  <time>2011-07-29T06:19:38Z</time>
  <speed>2.280000</speed>
</trkpt>
<trkpt lat="32.588588715" lon="35.010818481">
  <ele>106.574829</ele>
  <time>2011-07-29T06:19:40Z</time>
  <speed>2.450000</speed>
</trkpt>
<trkpt lat="32.588592529" lon="35.010848999">
  <ele>105.574829</ele>
  <time>2011-07-29T06:19:41Z</time>
  <speed>2.350000</speed>
</trkpt>
<trkpt lat="32.588607788" lon="35.010906219">
  <ele>105.334595</ele>
  <time>2011-07-29T06:19:43Z</time>
  <speed>2.540000</speed>
</trkpt>
<trkpt lat="32.588638306" lon="35.010967255">
  <ele>105.252563</ele>
  <time>2011-07-29T06:19:45Z</time>
  <speed>2.570000</speed>
</trkpt>
<trkpt lat="32.588649750" lon="35.010993958">
  <ele>105.158813</ele>
  <time>2011-07-29T06:19:46Z</time>
  <speed>2.980000</speed>
</trkpt>
<trkpt lat="32.588657379" lon="35.011032104">
  <ele>105.215454</ele>
  <time>2011-07-29T06:19:47Z</time>
  <speed>2.790000</speed>
</trkpt>
<trkpt lat="32.588676453" lon="35.011089325">
  <ele>105.645142</ele>
  <time>2011-07-29T06:19:49Z</time>
  <speed>3.230000</speed>
</trkpt>
<trkpt lat="32.588691711" lon="35.011138916">
  <ele>103.234985</ele>
  <time>2011-07-29T06:19:51Z</time>
  <speed>2.930000</speed>
</trkpt>
<trkpt lat="32.588706970" lon="35.011177063">
  <ele>103.363892</ele>
  <time>2011-07-29T06:19:52Z</time>
  <speed>3.270000</speed>
</trkpt>
<trkpt lat="32.588718414" lon="35.011211395">
  <ele>102.680298</ele>
  <time>2011-07-29T06:19:53Z</time>
  <speed>2.970000</speed>
</trkpt>
<trkpt lat="32.588729858" lon="35.011272430">
  <ele>101.895142</ele>
  <time>2011-07-29T06:19:55Z</time>
  <speed>3.010000</speed>
</trkpt>
<trkpt lat="32.588733673" lon="35.011306763">
  <ele>101.334595</ele>
  <time>2011-07-29T06:19:56Z</time>
  <speed>2.960000</speed>
</trkpt>
<trkpt lat="32.588745117" lon="35.011344910">
  <ele>100.777954</ele>
  <time>2011-07-29T06:19:57Z</time>
  <speed>2.880000</speed>
</trkpt>
<trkpt lat="32.588752747" lon="35.011402130">
  <ele>100.035767</ele>
  <time>2011-07-29T06:19:59Z</time>
  <speed>2.620000</speed>
</trkpt>
<trkpt lat="32.588756561" lon="35.011463165">
  <ele>99.037720</ele>
  <time>2011-07-29T06:20:01Z</time>
  <speed>2.780000</speed>
</trkpt>
<trkpt lat="32.588760376" lon="35.011497498">
  <ele>99.033813</ele>
  <time>2011-07-29T06:20:02Z</time>
  <speed>2.680000</speed>
</trkpt>
<trkpt lat="32.588771820" lon="35.011531830">
  <ele>98.233032</ele>
  <time>2011-07-29T06:20:03Z</time>
  <speed>2.630000</speed>
</trkpt>
<trkpt lat="32.588764191" lon="35.011592865">
  <ele>98.836548</ele>
  <time>2011-07-29T06:20:05Z</time>
  <speed>2.670000</speed>
</trkpt>
<trkpt lat="32.588748932" lon="35.011642456">
  <ele>99.440063</ele>
  <time>2011-07-29T06:20:07Z</time>
  <speed>2.240000</speed>
</trkpt>
<trkpt lat="32.588745117" lon="35.011684418">
  <ele>98.643188</ele>
  <time>2011-07-29T06:20:09Z</time>
  <speed>1.880000</speed>
</trkpt>
<trkpt lat="32.588741302" lon="35.011730194">
  <ele>99.190063</ele>
  <time>2011-07-29T06:20:11Z</time>
  <speed>2.030000</speed>
</trkpt>
<trkpt lat="32.588748932" lon="35.011775970">
  <ele>99.115845</ele>
  <time>2011-07-29T06:20:13Z</time>
  <speed>1.680000</speed>
</trkpt>
<trkpt lat="32.588760376" lon="35.011814117">
  <ele>99.309204</ele>
  <time>2011-07-29T06:20:15Z</time>
  <speed>1.930000</speed>
</trkpt>
<trkpt lat="32.588779449" lon="35.011863708">
  <ele>99.242798</ele>
  <time>2011-07-29T06:20:17Z</time>
  <speed>2.590000</speed>
</trkpt>
<trkpt lat="32.588798523" lon="35.011920929">
  <ele>98.803345</ele>
  <time>2011-07-29T06:20:19Z</time>
  <speed>2.610000</speed>
</trkpt>
<trkpt lat="32.588806152" lon="35.011955261">
  <ele>99.029907</ele>
  <time>2011-07-29T06:20:20Z</time>
  <speed>2.620000</speed>
</trkpt>
<trkpt lat="32.588817596" lon="35.012012482">
  <ele>99.092407</ele>
  <time>2011-07-29T06:20:22Z</time>
  <speed>2.760000</speed>
</trkpt>
<trkpt lat="32.588825226" lon="35.012058258">
  <ele>99.805298</ele>
  <time>2011-07-29T06:20:24Z</time>
  <speed>2.040000</speed>
</trkpt>
<trkpt lat="32.588836670" lon="35.012100220">
  <ele>100.809204</ele>
  <time>2011-07-29T06:20:26Z</time>
  <speed>2.380000</speed>
</trkpt>
<trkpt lat="32.588859558" lon="35.012142181">
  <ele>99.963501</ele>
  <time>2011-07-29T06:20:28Z</time>
  <speed>1.920000</speed>
</trkpt>
<trkpt lat="32.588901520" lon="35.012153625">
  <ele>99.945923</ele>
  <time>2011-07-29T06:20:30Z</time>
  <speed>2.190000</speed>
</trkpt>
<trkpt lat="32.588943481" lon="35.012172699">
  <ele>100.363892</ele>
  <time>2011-07-29T06:20:32Z</time>
  <speed>2.130000</speed>
</trkpt>
<trkpt lat="32.588973999" lon="35.012184143">
  <ele>100.082642</ele>
  <time>2011-07-29T06:20:34Z</time>
  <speed>2.150000</speed>
</trkpt>
<trkpt lat="32.589008331" lon="35.012195587">
  <ele>99.963501</ele>
  <time>2011-07-29T06:20:36Z</time>
  <speed>1.560000</speed>
</trkpt>
<trkpt lat="32.589042664" lon="35.012199402">
  <ele>99.988892</ele>
  <time>2011-07-29T06:20:37Z</time>
  <speed>2.210000</speed>
</trkpt>
<trkpt lat="32.589084625" lon="35.012214661">
  <ele>99.678345</ele>
  <time>2011-07-29T06:20:39Z</time>
  <speed>1.790000</speed>
</trkpt>
<trkpt lat="32.589115143" lon="35.012226105">
  <ele>100.086548</ele>
  <time>2011-07-29T06:20:41Z</time>
  <speed>2.120000</speed>
</trkpt>
<trkpt lat="32.589145660" lon="35.012260437">
  <ele>99.279907</ele>
  <time>2011-07-29T06:20:43Z</time>
  <speed>2.410000</speed>
</trkpt>
<trkpt lat="32.589176178" lon="35.012264252">
  <ele>100.041626</ele>
  <time>2011-07-29T06:20:44Z</time>
  <speed>2.340000</speed>
</trkpt>
<trkpt lat="32.589210510" lon="35.012283325">
  <ele>99.813110</ele>
  <time>2011-07-29T06:20:46Z</time>
  <speed>2.050000</speed>
</trkpt>
<trkpt lat="32.589248657" lon="35.012306213">
  <ele>99.442017</ele>
  <time>2011-07-29T06:20:48Z</time>
  <speed>1.950000</speed>
</trkpt>
<trkpt lat="32.589290619" lon="35.012329102">
  <ele>99.045532</ele>
  <time>2011-07-29T06:20:50Z</time>
  <speed>2.460000</speed>
</trkpt>
<trkpt lat="32.589324951" lon="35.012351990">
  <ele>99.797485</ele>
  <time>2011-07-29T06:20:52Z</time>
  <speed>2.010000</speed>
</trkpt>
<trkpt lat="32.589359283" lon="35.012374878">
  <ele>99.565063</ele>
  <time>2011-07-29T06:20:54Z</time>
  <speed>1.770000</speed>
</trkpt>
<trkpt lat="32.589389801" lon="35.012374878">
  <ele>99.164673</ele>
  <time>2011-07-29T06:20:56Z</time>
  <speed>1.670000</speed>
</trkpt>
<trkpt lat="32.589420319" lon="35.012382507">
  <ele>100.522095</ele>
  <time>2011-07-29T06:20:58Z</time>
  <speed>1.900000</speed>
</trkpt>
<trkpt lat="32.589485168" lon="35.012378693">
  <ele>103.057251</ele>
  <time>2011-07-29T06:21:00Z</time>
  <speed>2.510000</speed>
</trkpt>
<trkpt lat="32.589511871" lon="35.012378693">
  <ele>103.736938</ele>
  <time>2011-07-29T06:21:01Z</time>
  <speed>2.240000</speed>
</trkpt>
<trkpt lat="32.589550018" lon="35.012393951">
  <ele>104.043579</ele>
  <time>2011-07-29T06:21:03Z</time>
  <speed>2.040000</speed>
</trkpt>
<trkpt lat="32.589584351" lon="35.012420654">
  <ele>104.279907</ele>
  <time>2011-07-29T06:21:05Z</time>
  <speed>2.130000</speed>
</trkpt>
<trkpt lat="32.589626312" lon="35.012439728">
  <ele>106.012329</ele>
  <time>2011-07-29T06:21:07Z</time>
  <speed>2.210000</speed>
</trkpt>
<trkpt lat="32.589653015" lon="35.012470245">
  <ele>105.701782</ele>
  <time>2011-07-29T06:21:09Z</time>
  <speed>2.340000</speed>
</trkpt>
<trkpt lat="32.589691162" lon="35.012489319">
  <ele>105.238892</ele>
  <time>2011-07-29T06:21:11Z</time>
  <speed>2.160000</speed>
</trkpt>
<trkpt lat="32.589721680" lon="35.012516022">
  <ele>105.848267</ele>
  <time>2011-07-29T06:21:13Z</time>
  <speed>1.980000</speed>
</trkpt>
<trkpt lat="32.589752197" lon="35.012542725">
  <ele>106.059204</ele>
  <time>2011-07-29T06:21:15Z</time>
  <speed>2.080000</speed>
</trkpt>
<trkpt lat="32.589794159" lon="35.012557983">
  <ele>105.692017</ele>
  <time>2011-07-29T06:21:17Z</time>
  <speed>1.970000</speed>
</trkpt>
<trkpt lat="32.589824677" lon="35.012584686">
  <ele>105.793579</ele>
  <time>2011-07-29T06:21:19Z</time>
  <speed>2.270000</speed>
</trkpt>
<trkpt lat="32.589843750" lon="35.012622833">
  <ele>105.193970</ele>
  <time>2011-07-29T06:21:21Z</time>
  <speed>1.850000</speed>
</trkpt>
<trkpt lat="32.589878082" lon="35.012649536">
  <ele>105.592407</ele>
  <time>2011-07-29T06:21:23Z</time>
  <speed>2.000000</speed>
</trkpt>
<trkpt lat="32.589908600" lon="35.012680054">
  <ele>105.799438</ele>
  <time>2011-07-29T06:21:25Z</time>
  <speed>2.250000</speed>
</trkpt>
<trkpt lat="32.589935303" lon="35.012706757">
  <ele>105.037720</ele>
  <time>2011-07-29T06:21:27Z</time>
  <speed>1.530000</speed>
</trkpt>
<trkpt lat="32.589962006" lon="35.012722015">
  <ele>105.234985</ele>
  <time>2011-07-29T06:21:29Z</time>
  <speed>1.890000</speed>
</trkpt>
<trkpt lat="32.590000153" lon="35.012737274">
  <ele>106.188110</ele>
  <time>2011-07-29T06:21:31Z</time>
  <speed>2.010000</speed>
</trkpt>
<trkpt lat="32.590026855" lon="35.012752533">
  <ele>106.113892</ele>
  <time>2011-07-29T06:21:33Z</time>
  <speed>1.640000</speed>
</trkpt>
<trkpt lat="32.590057373" lon="35.012779236">
  <ele>106.109985</ele>
  <time>2011-07-29T06:21:35Z</time>
  <speed>2.010000</speed>
</trkpt>
<trkpt lat="32.590087891" lon="35.012802124">
  <ele>106.258423</ele>
  <time>2011-07-29T06:21:37Z</time>
  <speed>2.010000</speed>
</trkpt>
<trkpt lat="32.590110779" lon="35.012825012">
  <ele>107.475220</ele>
  <time>2011-07-29T06:21:39Z</time>
  <speed>1.520000</speed>
</trkpt>
<trkpt lat="32.590145111" lon="35.012840271">
  <ele>108.418579</ele>
  <time>2011-07-29T06:21:41Z</time>
  <speed>2.100000</speed>
</trkpt>
<trkpt lat="32.590175629" lon="35.012859344">
  <ele>109.410767</ele>
  <time>2011-07-29T06:21:43Z</time>
  <speed>1.920000</speed>
</trkpt>
<trkpt lat="32.590213776" lon="35.012889862">
  <ele>109.500610</ele>
  <time>2011-07-29T06:21:45Z</time>
  <speed>2.440000</speed>
</trkpt>
<trkpt lat="32.590248108" lon="35.012916565">
  <ele>110.344360</ele>
  <time>2011-07-29T06:21:47Z</time>
  <speed>1.770000</speed>
</trkpt>
<trkpt lat="32.590278625" lon="35.012947083">
  <ele>110.307251</ele>
  <time>2011-07-29T06:21:49Z</time>
  <speed>1.540000</speed>
</trkpt>
<trkpt lat="32.590309143" lon="35.012966156">
  <ele>111.026001</ele>
  <time>2011-07-29T06:21:51Z</time>
  <speed>1.760000</speed>
</trkpt>
<trkpt lat="32.590347290" lon="35.012977600">
  <ele>111.361938</ele>
  <time>2011-07-29T06:21:53Z</time>
  <speed>2.110000</speed>
</trkpt>
<trkpt lat="32.590377808" lon="35.013004303">
  <ele>111.988892</ele>
  <time>2011-07-29T06:21:55Z</time>
  <speed>1.800000</speed>
</trkpt>
<trkpt lat="32.590400696" lon="35.013027191">
  <ele>112.359985</ele>
  <time>2011-07-29T06:21:57Z</time>
  <speed>1.900000</speed>
</trkpt>
<trkpt lat="32.590427399" lon="35.013050079">
  <ele>112.734985</ele>
  <time>2011-07-29T06:21:59Z</time>
  <speed>1.690000</speed>
</trkpt>
<trkpt lat="32.590473175" lon="35.013065338">
  <ele>113.418579</ele>
  <time>2011-07-29T06:22:01Z</time>
  <speed>1.670000</speed>
</trkpt>
<trkpt lat="32.590503693" lon="35.013092041">
  <ele>114.084595</ele>
  <time>2011-07-29T06:22:03Z</time>
  <speed>1.780000</speed>
</trkpt>
<trkpt lat="32.590538025" lon="35.013114929">
  <ele>113.176392</ele>
  <time>2011-07-29T06:22:05Z</time>
  <speed>1.730000</speed>
</trkpt>
<trkpt lat="32.590579987" lon="35.013141632">
  <ele>113.401001</ele>
  <time>2011-07-29T06:22:07Z</time>
  <speed>2.050000</speed>
</trkpt>
<trkpt lat="32.590610504" lon="35.013164520">
  <ele>113.508423</ele>
  <time>2011-07-29T06:22:09Z</time>
  <speed>1.820000</speed>
</trkpt>
<trkpt lat="32.590633392" lon="35.013183594">
  <ele>113.770142</ele>
  <time>2011-07-29T06:22:11Z</time>
  <speed>1.910000</speed>
</trkpt>
<trkpt lat="32.590660095" lon="35.013210297">
  <ele>114.043579</ele>
  <time>2011-07-29T06:22:13Z</time>
  <speed>1.970000</speed>
</trkpt>
<trkpt lat="32.590682983" lon="35.013221741">
  <ele>115.567017</ele>
  <time>2011-07-29T06:22:15Z</time>
  <speed>1.890000</speed>
</trkpt>
<trkpt lat="32.590713501" lon="35.013244629">
  <ele>116.492798</ele>
  <time>2011-07-29T06:22:17Z</time>
  <speed>1.840000</speed>
</trkpt>
<trkpt lat="32.590740204" lon="35.013263702">
  <ele>117.709595</ele>
  <time>2011-07-29T06:22:19Z</time>
  <speed>1.550000</speed>
</trkpt>
<trkpt lat="32.590763092" lon="35.013290405">
  <ele>118.266235</ele>
  <time>2011-07-29T06:22:21Z</time>
  <speed>1.690000</speed>
</trkpt>
<trkpt lat="32.590793610" lon="35.013301849">
  <ele>119.225220</ele>
  <time>2011-07-29T06:22:23Z</time>
  <speed>1.910000</speed>
</trkpt>
<trkpt lat="32.590839386" lon="35.013313293">
  <ele>119.373657</ele>
  <time>2011-07-29T06:22:25Z</time>
  <speed>1.900000</speed>
</trkpt>
<trkpt lat="32.590877533" lon="35.013332367">
  <ele>119.457642</ele>
  <time>2011-07-29T06:22:27Z</time>
  <speed>2.080000</speed>
</trkpt>
<trkpt lat="32.590911865" lon="35.013359070">
  <ele>120.684204</ele>
  <time>2011-07-29T06:22:29Z</time>
  <speed>2.150000</speed>
</trkpt>
<trkpt lat="32.590957642" lon="35.013378143">
  <ele>121.145142</ele>
  <time>2011-07-29T06:22:31Z</time>
  <speed>2.490000</speed>
</trkpt>
<trkpt lat="32.590972900" lon="35.013420105">
  <ele>121.828735</ele>
  <time>2011-07-29T06:22:33Z</time>
  <speed>2.350000</speed>
</trkpt>
<trkpt lat="32.590976715" lon="35.013458252">
  <ele>122.512329</ele>
  <time>2011-07-29T06:22:35Z</time>
  <speed>2.040000</speed>
</trkpt>
<trkpt lat="32.590969086" lon="35.013496399">
  <ele>121.959595</ele>
  <time>2011-07-29T06:22:37Z</time>
  <speed>1.920000</speed>
</trkpt>
<trkpt lat="32.590950012" lon="35.013542175">
  <ele>123.152954</ele>
  <time>2011-07-29T06:22:39Z</time>
  <speed>2.150000</speed>
</trkpt>
<trkpt lat="32.590934753" lon="35.013587952">
  <ele>123.856079</ele>
  <time>2011-07-29T06:22:41Z</time>
  <speed>1.970000</speed>
</trkpt>
<trkpt lat="32.590919495" lon="35.013626099">
  <ele>124.311157</ele>
  <time>2011-07-29T06:22:43Z</time>
  <speed>1.700000</speed>
</trkpt>
<trkpt lat="32.590900421" lon="35.013664246">
  <ele>124.260376</ele>
  <time>2011-07-29T06:22:45Z</time>
  <speed>1.780000</speed>
</trkpt>
<trkpt lat="32.590877533" lon="35.013698578">
  <ele>124.334595</ele>
  <time>2011-07-29T06:22:48Z</time>
  <speed>1.380000</speed>
</trkpt>
<trkpt lat="32.590858459" lon="35.013717651">
  <ele>124.818970</ele>
  <time>2011-07-29T06:22:50Z</time>
  <speed>1.540000</speed>
</trkpt>
<trkpt lat="32.590824127" lon="35.013740540">
  <ele>125.592407</ele>
  <time>2011-07-29T06:22:53Z</time>
  <speed>1.360000</speed>
</trkpt>
<trkpt lat="32.590793610" lon="35.013751984">
  <ele>125.180298</ele>
  <time>2011-07-29T06:22:55Z</time>
  <speed>1.830000</speed>
</trkpt>
<trkpt lat="32.590770721" lon="35.013782501">
  <ele>125.393188</ele>
  <time>2011-07-29T06:22:57Z</time>
  <speed>1.430000</speed>
</trkpt>
<trkpt lat="32.590728760" lon="35.013824463">
  <ele>127.039673</ele>
  <time>2011-07-29T06:23:00Z</time>
  <speed>1.490000</speed>
</trkpt>
<trkpt lat="32.590694427" lon="35.013843536">
  <ele>127.574829</ele>
  <time>2011-07-29T06:23:02Z</time>
  <speed>2.050000</speed>
</trkpt>
<trkpt lat="32.590667725" lon="35.013866425">
  <ele>127.297485</ele>
  <time>2011-07-29T06:23:04Z</time>
  <speed>1.860000</speed>
</trkpt>
<trkpt lat="32.590637207" lon="35.013885498">
  <ele>127.260376</ele>
  <time>2011-07-29T06:23:06Z</time>
  <speed>1.550000</speed>
</trkpt>
<trkpt lat="32.590602875" lon="35.013904572">
  <ele>127.026001</ele>
  <time>2011-07-29T06:23:09Z</time>
  <speed>1.570000</speed>
</trkpt>
<trkpt lat="32.590568542" lon="35.013904572">
  <ele>127.151001</ele>
  <time>2011-07-29T06:23:11Z</time>
  <speed>1.690000</speed>
</trkpt>
<trkpt lat="32.590534210" lon="35.013900757">
  <ele>127.449829</ele>
  <time>2011-07-29T06:23:13Z</time>
  <speed>1.650000</speed>
</trkpt>
<trkpt lat="32.590496063" lon="35.013904572">
  <ele>126.979126</ele>
  <time>2011-07-29T06:23:15Z</time>
  <speed>1.750000</speed>
</trkpt>
<trkpt lat="32.590465546" lon="35.013896942">
  <ele>126.830688</ele>
  <time>2011-07-29T06:23:17Z</time>
  <speed>1.600000</speed>
</trkpt>
<trkpt lat="32.590427399" lon="35.013893127">
  <ele>126.563110</ele>
  <time>2011-07-29T06:23:19Z</time>
  <speed>1.480000</speed>
</trkpt>
<trkpt lat="32.590389252" lon="35.013893127">
  <ele>125.938110</ele>
  <time>2011-07-29T06:23:21Z</time>
  <speed>1.570000</speed>
</trkpt>
<trkpt lat="32.590347290" lon="35.013893127">
  <ele>126.219360</ele>
  <time>2011-07-29T06:23:23Z</time>
  <speed>1.630000</speed>
</trkpt>
<trkpt lat="32.590312958" lon="35.013870239">
  <ele>124.420532</ele>
  <time>2011-07-29T06:23:25Z</time>
  <speed>1.590000</speed>
</trkpt>
<trkpt lat="32.590274811" lon="35.013870239">
  <ele>124.340454</ele>
  <time>2011-07-29T06:23:27Z</time>
  <speed>2.070000</speed>
</trkpt>
<trkpt lat="32.590229034" lon="35.013866425">
  <ele>123.887329</ele>
  <time>2011-07-29T06:23:29Z</time>
  <speed>1.810000</speed>
</trkpt>
<trkpt lat="32.590190887" lon="35.013862610">
  <ele>123.414673</ele>
  <time>2011-07-29T06:23:31Z</time>
  <speed>1.920000</speed>
</trkpt>
<trkpt lat="32.590156555" lon="35.013862610">
  <ele>123.678345</ele>
  <time>2011-07-29T06:23:33Z</time>
  <speed>1.820000</speed>
</trkpt>
<trkpt lat="32.590122223" lon="35.013851166">
  <ele>123.719360</ele>
  <time>2011-07-29T06:23:35Z</time>
  <speed>1.970000</speed>
</trkpt>
<trkpt lat="32.590084076" lon="35.013843536">
  <ele>123.619751</ele>
  <time>2011-07-29T06:23:37Z</time>
  <speed>2.030000</speed>
</trkpt>
<trkpt lat="32.590042114" lon="35.013835907">
  <ele>123.719360</ele>
  <time>2011-07-29T06:23:39Z</time>
  <speed>1.970000</speed>
</trkpt>
<trkpt lat="32.590011597" lon="35.013828278">
  <ele>123.736938</ele>
  <time>2011-07-29T06:23:41Z</time>
  <speed>1.770000</speed>
</trkpt>
<trkpt lat="32.589977264" lon="35.013820648">
  <ele>123.633423</ele>
  <time>2011-07-29T06:23:43Z</time>
  <speed>1.890000</speed>
</trkpt>
<trkpt lat="32.589942932" lon="35.013816833">
  <ele>123.803345</ele>
  <time>2011-07-29T06:23:45Z</time>
  <speed>1.750000</speed>
</trkpt>
<trkpt lat="32.589904785" lon="35.013809204">
  <ele>123.990845</ele>
  <time>2011-07-29T06:23:47Z</time>
  <speed>2.010000</speed>
</trkpt>
<trkpt lat="32.589866638" lon="35.013805389">
  <ele>124.065063</ele>
  <time>2011-07-29T06:23:49Z</time>
  <speed>2.190000</speed>
</trkpt>
<trkpt lat="32.589828491" lon="35.013813019">
  <ele>124.873657</ele>
  <time>2011-07-29T06:23:51Z</time>
  <speed>1.760000</speed>
</trkpt>
<trkpt lat="32.589794159" lon="35.013809204">
  <ele>126.272095</ele>
  <time>2011-07-29T06:23:53Z</time>
  <speed>1.900000</speed>
</trkpt>
<trkpt lat="32.589748383" lon="35.013801575">
  <ele>126.225220</ele>
  <time>2011-07-29T06:23:55Z</time>
  <speed>1.720000</speed>
</trkpt>
<trkpt lat="32.589710236" lon="35.013793945">
  <ele>126.346313</ele>
  <time>2011-07-29T06:23:57Z</time>
  <speed>2.070000</speed>
</trkpt>
<trkpt lat="32.589675903" lon="35.013786316">
  <ele>127.336548</ele>
  <time>2011-07-29T06:23:59Z</time>
  <speed>2.280000</speed>
</trkpt>
<trkpt lat="32.589637756" lon="35.013786316">
  <ele>128.052002</ele>
  <time>2011-07-29T06:24:01Z</time>
  <speed>2.070000</speed>
</trkpt>
<trkpt lat="32.589599609" lon="35.013790131">
  <ele>128.587158</ele>
  <time>2011-07-29T06:24:03Z</time>
  <speed>2.280000</speed>
</trkpt>
<trkpt lat="32.589561462" lon="35.013786316">
  <ele>128.313721</ele>
  <time>2011-07-29T06:24:05Z</time>
  <speed>2.250000</speed>
</trkpt>
<trkpt lat="32.589515686" lon="35.013782501">
  <ele>128.380127</ele>
  <time>2011-07-29T06:24:07Z</time>
  <speed>2.350000</speed>
</trkpt>
<trkpt lat="32.589477539" lon="35.013774872">
  <ele>128.032471</ele>
  <time>2011-07-29T06:24:09Z</time>
  <speed>2.200000</speed>
</trkpt>
<trkpt lat="32.589435577" lon="35.013771057">
  <ele>127.617798</ele>
  <time>2011-07-29T06:24:11Z</time>
  <speed>2.340000</speed>
</trkpt>
<trkpt lat="32.589405060" lon="35.013771057">
  <ele>127.383423</ele>
  <time>2011-07-29T06:24:12Z</time>
  <speed>2.680000</speed>
</trkpt>
<trkpt lat="32.589374542" lon="35.013771057">
  <ele>126.936157</ele>
  <time>2011-07-29T06:24:13Z</time>
  <speed>2.670000</speed>
</trkpt>
<trkpt lat="32.589347839" lon="35.013759613">
  <ele>127.297485</ele>
  <time>2011-07-29T06:24:14Z</time>
  <speed>2.380000</speed>
</trkpt>
<trkpt lat="32.589302063" lon="35.013759613">
  <ele>126.168579</ele>
  <time>2011-07-29T06:24:16Z</time>
  <speed>2.300000</speed>
</trkpt>
<trkpt lat="32.589256287" lon="35.013751984">
  <ele>125.996704</ele>
  <time>2011-07-29T06:24:18Z</time>
  <speed>2.540000</speed>
</trkpt>
<trkpt lat="32.589221954" lon="35.013748169">
  <ele>126.176392</ele>
  <time>2011-07-29T06:24:20Z</time>
  <speed>2.580000</speed>
</trkpt>
<trkpt lat="32.589179993" lon="35.013744354">
  <ele>126.502563</ele>
  <time>2011-07-29T06:24:22Z</time>
  <speed>2.320000</speed>
</trkpt>
<trkpt lat="32.589141846" lon="35.013736725">
  <ele>126.113892</ele>
  <time>2011-07-29T06:24:24Z</time>
  <speed>2.400000</speed>
</trkpt>
<trkpt lat="32.589096069" lon="35.013729095">
  <ele>126.318970</ele>
  <time>2011-07-29T06:24:26Z</time>
  <speed>2.370000</speed>
</trkpt>
<trkpt lat="32.589054108" lon="35.013721466">
  <ele>126.483032</ele>
  <time>2011-07-29T06:24:28Z</time>
  <speed>2.460000</speed>
</trkpt>
<trkpt lat="32.589027405" lon="35.013721466">
  <ele>125.996704</ele>
  <time>2011-07-29T06:24:29Z</time>
  <speed>2.920000</speed>
</trkpt>
<trkpt lat="32.588981628" lon="35.013713837">
  <ele>126.022095</ele>
  <time>2011-07-29T06:24:31Z</time>
  <speed>3.130000</speed>
</trkpt>
<trkpt lat="32.588947296" lon="35.013713837">
  <ele>126.615845</ele>
  <time>2011-07-29T06:24:32Z</time>
  <speed>3.010000</speed>
</trkpt>
<trkpt lat="32.588924408" lon="35.013698578">
  <ele>126.430298</ele>
  <time>2011-07-29T06:24:33Z</time>
  <speed>2.850000</speed>
</trkpt>
<trkpt lat="32.588878632" lon="35.013668060">
  <ele>123.406860</ele>
  <time>2011-07-29T06:24:35Z</time>
  <speed>2.820000</speed>
</trkpt>
<trkpt lat="32.588848114" lon="35.013664246">
  <ele>122.590454</ele>
  <time>2011-07-29T06:24:36Z</time>
  <speed>2.890000</speed>
</trkpt>
<trkpt lat="32.588817596" lon="35.013664246">
  <ele>122.791626</ele>
  <time>2011-07-29T06:24:37Z</time>
  <speed>3.170000</speed>
</trkpt>
<trkpt lat="32.588787079" lon="35.013656616">
  <ele>122.813110</ele>
  <time>2011-07-29T06:24:38Z</time>
  <speed>3.380000</speed>
</trkpt>
<trkpt lat="32.588756561" lon="35.013648987">
  <ele>122.801392</ele>
  <time>2011-07-29T06:24:39Z</time>
  <speed>3.280000</speed>
</trkpt>
<trkpt lat="32.588726044" lon="35.013645172">
  <ele>122.940063</ele>
  <time>2011-07-29T06:24:40Z</time>
  <speed>3.240000</speed>
</trkpt>
<trkpt lat="32.588695526" lon="35.013633728">
  <ele>122.883423</ele>
  <time>2011-07-29T06:24:41Z</time>
  <speed>3.510000</speed>
</trkpt>
<trkpt lat="32.588661194" lon="35.013633728">
  <ele>123.537720</ele>
  <time>2011-07-29T06:24:42Z</time>
  <speed>3.370000</speed>
</trkpt>
<trkpt lat="32.588630676" lon="35.013626099">
  <ele>123.705688</ele>
  <time>2011-07-29T06:24:43Z</time>
  <speed>3.410000</speed>
</trkpt>
<trkpt lat="32.588596344" lon="35.013633728">
  <ele>124.895142</ele>
  <time>2011-07-29T06:24:44Z</time>
  <speed>3.430000</speed>
</trkpt>
<trkpt lat="32.588565826" lon="35.013626099">
  <ele>125.379517</ele>
  <time>2011-07-29T06:24:45Z</time>
  <speed>3.220000</speed>
</trkpt>
<trkpt lat="32.588535309" lon="35.013618469">
  <ele>124.918579</ele>
  <time>2011-07-29T06:24:46Z</time>
  <speed>2.990000</speed>
</trkpt>
<trkpt lat="32.588478088" lon="35.013614655">
  <ele>124.713501</ele>
  <time>2011-07-29T06:24:48Z</time>
  <speed>3.130000</speed>
</trkpt>
<trkpt lat="32.588428497" lon="35.013610840">
  <ele>125.385376</ele>
  <time>2011-07-29T06:24:50Z</time>
  <speed>2.940000</speed>
</trkpt>
<trkpt lat="32.588397980" lon="35.013603210">
  <ele>125.180298</ele>
  <time>2011-07-29T06:24:51Z</time>
  <speed>2.770000</speed>
</trkpt>
<trkpt lat="32.588371277" lon="35.013595581">
  <ele>125.109985</ele>
  <time>2011-07-29T06:24:52Z</time>
  <speed>2.780000</speed>
</trkpt>
<trkpt lat="32.588325500" lon="35.013595581">
  <ele>125.516235</ele>
  <time>2011-07-29T06:24:54Z</time>
  <speed>2.560000</speed>
</trkpt>
<trkpt lat="32.588275909" lon="35.013576508">
  <ele>125.301392</ele>
  <time>2011-07-29T06:24:56Z</time>
  <speed>2.640000</speed>
</trkpt>
<trkpt lat="32.588245392" lon="35.013576508">
  <ele>126.219360</ele>
  <time>2011-07-29T06:24:57Z</time>
  <speed>2.630000</speed>
</trkpt>
<trkpt lat="32.588199615" lon="35.013572693">
  <ele>126.615845</ele>
  <time>2011-07-29T06:24:59Z</time>
  <speed>2.360000</speed>
</trkpt>
<trkpt lat="32.588153839" lon="35.013572693">
  <ele>126.875610</ele>
  <time>2011-07-29T06:25:01Z</time>
  <speed>2.030000</speed>
</trkpt>
<trkpt lat="32.588115692" lon="35.013584137">
  <ele>127.188110</ele>
  <time>2011-07-29T06:25:03Z</time>
  <speed>2.050000</speed>
</trkpt>
<trkpt lat="32.588077545" lon="35.013595581">
  <ele>126.772095</ele>
  <time>2011-07-29T06:25:05Z</time>
  <speed>1.990000</speed>
</trkpt>
<trkpt lat="32.588039398" lon="35.013603210">
  <ele>126.174438</ele>
  <time>2011-07-29T06:25:07Z</time>
  <speed>1.930000</speed>
</trkpt>
<trkpt lat="32.588005066" lon="35.013610840">
  <ele>126.453735</ele>
  <time>2011-07-29T06:25:09Z</time>
  <speed>2.000000</speed>
</trkpt>
<trkpt lat="32.587970734" lon="35.013614655">
  <ele>126.746704</ele>
  <time>2011-07-29T06:25:11Z</time>
  <speed>2.050000</speed>
</trkpt>
<trkpt lat="32.587936401" lon="35.013629913">
  <ele>126.813110</ele>
  <time>2011-07-29T06:25:13Z</time>
  <speed>1.730000</speed>
</trkpt>
<trkpt lat="32.587898254" lon="35.013637543">
  <ele>127.369751</ele>
  <time>2011-07-29T06:25:15Z</time>
  <speed>1.850000</speed>
</trkpt>
<trkpt lat="32.587863922" lon="35.013637543">
  <ele>127.940063</ele>
  <time>2011-07-29T06:25:17Z</time>
  <speed>1.670000</speed>
</trkpt>
<trkpt lat="32.587829590" lon="35.013645172">
  <ele>128.106689</ele>
  <time>2011-07-29T06:25:19Z</time>
  <speed>1.750000</speed>
</trkpt>
<trkpt lat="32.587799072" lon="35.013664246">
  <ele>128.376221</ele>
  <time>2011-07-29T06:25:21Z</time>
  <speed>1.540000</speed>
</trkpt>
<trkpt lat="32.587772369" lon="35.013664246">
  <ele>128.489502</ele>
  <time>2011-07-29T06:25:23Z</time>
  <speed>1.800000</speed>
</trkpt>
<trkpt lat="32.587730408" lon="35.013660431">
  <ele>128.993408</ele>
  <time>2011-07-29T06:25:26Z</time>
  <speed>1.770000</speed>
</trkpt>
<trkpt lat="32.587703705" lon="35.013668060">
  <ele>129.270752</ele>
  <time>2011-07-29T06:25:28Z</time>
  <speed>1.750000</speed>
</trkpt>
<trkpt lat="32.587673187" lon="35.013683319">
  <ele>129.903564</ele>
  <time>2011-07-29T06:25:31Z</time>
  <speed>1.430000</speed>
</trkpt>
<trkpt lat="32.587642670" lon="35.013694763">
  <ele>129.661377</ele>
  <time>2011-07-29T06:25:33Z</time>
  <speed>1.640000</speed>
</trkpt>
<trkpt lat="32.587612152" lon="35.013710022">
  <ele>130.001221</ele>
  <time>2011-07-29T06:25:35Z</time>
  <speed>1.580000</speed>
</trkpt>
<trkpt lat="32.587581635" lon="35.013713837">
  <ele>130.071533</ele>
  <time>2011-07-29T06:25:38Z</time>
  <speed>1.270000</speed>
</trkpt>
<trkpt lat="32.587547302" lon="35.013717651">
  <ele>130.192627</ele>
  <time>2011-07-29T06:25:40Z</time>
  <speed>1.630000</speed>
</trkpt>
<trkpt lat="32.587509155" lon="35.013725281">
  <ele>130.825439</ele>
  <time>2011-07-29T06:25:43Z</time>
  <speed>1.260000</speed>
</trkpt>
<trkpt lat="32.587478638" lon="35.013725281">
  <ele>132.059814</ele>
  <time>2011-07-29T06:25:45Z</time>
  <speed>1.360000</speed>
</trkpt>
<trkpt lat="32.587436676" lon="35.013732910">
  <ele>131.891846</ele>
  <time>2011-07-29T06:25:48Z</time>
  <speed>1.550000</speed>
</trkpt>
<trkpt lat="32.587406158" lon="35.013744354">
  <ele>131.786377</ele>
  <time>2011-07-29T06:25:50Z</time>
  <speed>1.550000</speed>
</trkpt>
<trkpt lat="32.587375641" lon="35.013744354">
  <ele>132.333252</ele>
  <time>2011-07-29T06:25:53Z</time>
  <speed>1.200000</speed>
</trkpt>
<trkpt lat="32.587337494" lon="35.013744354">
  <ele>132.481689</ele>
  <time>2011-07-29T06:25:56Z</time>
  <speed>1.510000</speed>
</trkpt>
<trkpt lat="32.587306976" lon="35.013748169">
  <ele>133.102783</ele>
  <time>2011-07-29T06:25:59Z</time>
  <speed>1.260000</speed>
</trkpt>
<trkpt lat="32.587280273" lon="35.013748169">
  <ele>133.079346</ele>
  <time>2011-07-29T06:26:01Z</time>
  <speed>1.410000</speed>
</trkpt>
<trkpt lat="32.587249756" lon="35.013740540">
  <ele>132.657471</ele>
  <time>2011-07-29T06:26:03Z</time>
  <speed>1.320000</speed>
</trkpt>
<trkpt lat="32.587215424" lon="35.013732910">
  <ele>131.759033</ele>
  <time>2011-07-29T06:26:05Z</time>
  <speed>1.400000</speed>
</trkpt>
<trkpt lat="32.587184906" lon="35.013736725">
  <ele>131.790283</ele>
  <time>2011-07-29T06:26:07Z</time>
  <speed>1.720000</speed>
</trkpt>
<trkpt lat="32.587154388" lon="35.013748169">
  <ele>133.126221</ele>
  <time>2011-07-29T06:26:09Z</time>
  <speed>1.800000</speed>
</trkpt>
<trkpt lat="32.587127686" lon="35.013748169">
  <ele>133.118408</ele>
  <time>2011-07-29T06:26:11Z</time>
  <speed>1.560000</speed>
</trkpt>
<trkpt lat="32.587100983" lon="35.013725281">
  <ele>133.212158</ele>
  <time>2011-07-29T06:26:13Z</time>
  <speed>1.690000</speed>
</trkpt>
<trkpt lat="32.587074280" lon="35.013721466">
  <ele>133.407471</ele>
  <time>2011-07-29T06:26:15Z</time>
  <speed>1.210000</speed>
</trkpt>
<trkpt lat="32.587043762" lon="35.013717651">
  <ele>134.040283</ele>
  <time>2011-07-29T06:26:18Z</time>
  <speed>1.340000</speed>
</trkpt>
<trkpt lat="32.587017059" lon="35.013710022">
  <ele>134.884033</ele>
  <time>2011-07-29T06:26:20Z</time>
  <speed>1.530000</speed>
</trkpt>
<trkpt lat="32.586986542" lon="35.013702393">
  <ele>134.594971</ele>
  <time>2011-07-29T06:26:22Z</time>
  <speed>1.690000</speed>
</trkpt>
<trkpt lat="32.586956024" lon="35.013687134">
  <ele>134.665283</ele>
  <time>2011-07-29T06:26:24Z</time>
  <speed>2.000000</speed>
</trkpt>
<trkpt lat="32.586921692" lon="35.013698578">
  <ele>134.743408</ele>
  <time>2011-07-29T06:26:26Z</time>
  <speed>1.440000</speed>
</trkpt>
<trkpt lat="32.586872101" lon="35.013690948">
  <ele>134.227783</ele>
  <time>2011-07-29T06:26:29Z</time>
  <speed>1.440000</speed>
</trkpt>
<trkpt lat="32.586833954" lon="35.013671875">
  <ele>134.657471</ele>
  <time>2011-07-29T06:26:32Z</time>
  <speed>1.270000</speed>
</trkpt>
<trkpt lat="32.586807251" lon="35.013656616">
  <ele>135.044189</ele>
  <time>2011-07-29T06:26:34Z</time>
  <speed>1.200000</speed>
</trkpt>
<trkpt lat="32.586784363" lon="35.013633728">
  <ele>135.309814</ele>
  <time>2011-07-29T06:26:36Z</time>
  <speed>1.380000</speed>
</trkpt>
<trkpt lat="32.586750031" lon="35.013618469">
  <ele>135.364502</ele>
  <time>2011-07-29T06:26:39Z</time>
  <speed>1.280000</speed>
</trkpt>
<trkpt lat="32.586719513" lon="35.013599396">
  <ele>135.415283</ele>
  <time>2011-07-29T06:26:42Z</time>
  <speed>1.210000</speed>
</trkpt>
<trkpt lat="32.586685181" lon="35.013576508">
  <ele>135.743408</ele>
  <time>2011-07-29T06:26:45Z</time>
  <speed>1.330000</speed>
</trkpt>
<trkpt lat="32.586662292" lon="35.013561249">
  <ele>136.055908</ele>
  <time>2011-07-29T06:26:47Z</time>
  <speed>1.500000</speed>
</trkpt>
<trkpt lat="32.586627960" lon="35.013553619">
  <ele>137.184814</ele>
  <time>2011-07-29T06:26:50Z</time>
  <speed>1.210000</speed>
</trkpt>
<trkpt lat="32.586601257" lon="35.013545990">
  <ele>138.012939</ele>
  <time>2011-07-29T06:26:53Z</time>
  <speed>1.280000</speed>
</trkpt>
<trkpt lat="32.586566925" lon="35.013519287">
  <ele>137.864502</ele>
  <time>2011-07-29T06:26:57Z</time>
  <speed>1.510000</speed>
</trkpt>
<trkpt lat="32.586536407" lon="35.013511658">
  <ele>138.380127</ele>
  <time>2011-07-29T06:26:59Z</time>
  <speed>1.440000</speed>
</trkpt>
<trkpt lat="32.586505890" lon="35.013500214">
  <ele>138.977783</ele>
  <time>2011-07-29T06:27:02Z</time>
  <speed>1.110000</speed>
</trkpt>
<trkpt lat="32.586479187" lon="35.013473511">
  <ele>138.657471</ele>
  <time>2011-07-29T06:27:05Z</time>
  <speed>1.330000</speed>
</trkpt>
<trkpt lat="32.586448669" lon="35.013473511">
  <ele>139.376221</ele>
  <time>2011-07-29T06:27:07Z</time>
  <speed>1.270000</speed>
</trkpt>
<trkpt lat="32.586414337" lon="35.013473511">
  <ele>139.864502</ele>
  <time>2011-07-29T06:27:10Z</time>
  <speed>1.330000</speed>
</trkpt>
<trkpt lat="32.586391449" lon="35.013462067">
  <ele>140.587158</ele>
  <time>2011-07-29T06:27:13Z</time>
  <speed>1.000000</speed>
</trkpt>
<trkpt lat="32.586357117" lon="35.013458252">
  <ele>142.044189</ele>
  <time>2011-07-29T06:27:16Z</time>
  <speed>1.270000</speed>
</trkpt>
<trkpt lat="32.586334229" lon="35.013439178">
  <ele>142.305908</ele>
  <time>2011-07-29T06:27:18Z</time>
  <speed>1.170000</speed>
</trkpt>
<trkpt lat="32.586303711" lon="35.013431549">
  <ele>142.712158</ele>
  <time>2011-07-29T06:27:21Z</time>
  <speed>0.850000</speed>
</trkpt>
<trkpt lat="32.586265564" lon="35.013420105">
  <ele>143.286377</ele>
  <time>2011-07-29T06:27:24Z</time>
  <speed>1.530000</speed>
</trkpt>
<trkpt lat="32.586235046" lon="35.013416290">
  <ele>144.419189</ele>
  <time>2011-07-29T06:27:28Z</time>
  <speed>1.170000</speed>
</trkpt>
<trkpt lat="32.586208344" lon="35.013427734">
  <ele>144.344971</ele>
  <time>2011-07-29T06:27:31Z</time>
  <speed>0.890000</speed>
</trkpt>
<trkpt lat="32.586170197" lon="35.013427734">
  <ele>145.052002</ele>
  <time>2011-07-29T06:27:34Z</time>
  <speed>0.990000</speed>
</trkpt>
<trkpt lat="32.586132050" lon="35.013416290">
  <ele>144.969971</ele>
  <time>2011-07-29T06:27:37Z</time>
  <speed>1.350000</speed>
</trkpt>
<trkpt lat="32.586093903" lon="35.013401031">
  <ele>144.485596</ele>
  <time>2011-07-29T06:27:40Z</time>
  <speed>1.150000</speed>
</trkpt>
<trkpt lat="32.586063385" lon="35.013389587">
  <ele>143.532471</ele>
  <time>2011-07-29T06:27:43Z</time>
  <speed>1.240000</speed>
</trkpt>
<trkpt lat="32.586032867" lon="35.013389587">
  <ele>142.950439</ele>
  <time>2011-07-29T06:27:45Z</time>
  <speed>1.790000</speed>
</trkpt>
<trkpt lat="32.585998535" lon="35.013381958">
  <ele>142.989502</ele>
  <time>2011-07-29T06:27:47Z</time>
  <speed>1.780000</speed>
</trkpt>
<trkpt lat="32.585971832" lon="35.013370514">
  <ele>142.688721</ele>
  <time>2011-07-29T06:27:49Z</time>
  <speed>1.530000</speed>
</trkpt>
<trkpt lat="32.585945129" lon="35.013359070">
  <ele>142.962158</ele>
  <time>2011-07-29T06:27:51Z</time>
  <speed>1.480000</speed>
</trkpt>
<trkpt lat="32.585918427" lon="35.013359070">
  <ele>142.989502</ele>
  <time>2011-07-29T06:27:53Z</time>
  <speed>1.160000</speed>
</trkpt>
<trkpt lat="32.585880280" lon="35.013347626">
  <ele>143.348877</ele>
  <time>2011-07-29T06:27:56Z</time>
  <speed>1.070000</speed>
</trkpt>
<trkpt lat="32.585849762" lon="35.013339996">
  <ele>143.497314</ele>
  <time>2011-07-29T06:27:59Z</time>
  <speed>1.180000</speed>
</trkpt>
<trkpt lat="32.585815430" lon="35.013336182">
  <ele>143.360596</ele>
  <time>2011-07-29T06:28:02Z</time>
  <speed>1.330000</speed>
</trkpt>
<trkpt lat="32.585784912" lon="35.013336182">
  <ele>143.844971</ele>
  <time>2011-07-29T06:28:04Z</time>
  <speed>1.160000</speed>
</trkpt>
<trkpt lat="32.585758209" lon="35.013324738">
  <ele>143.286377</ele>
  <time>2011-07-29T06:28:07Z</time>
  <speed>0.850000</speed>
</trkpt>
<trkpt lat="32.585723877" lon="35.013309479">
  <ele>143.606689</ele>
  <time>2011-07-29T06:28:10Z</time>
  <speed>1.300000</speed>
</trkpt>
<trkpt lat="32.585697174" lon="35.013290405">
  <ele>144.247314</ele>
  <time>2011-07-29T06:28:12Z</time>
  <speed>1.180000</speed>
</trkpt>
<trkpt lat="32.585659027" lon="35.013278961">
  <ele>144.751221</ele>
  <time>2011-07-29T06:28:15Z</time>
  <speed>1.260000</speed>
</trkpt>
<trkpt lat="32.585624695" lon="35.013271332">
  <ele>145.130127</ele>
  <time>2011-07-29T06:28:18Z</time>
  <speed>0.930000</speed>
</trkpt>
<trkpt lat="32.585594177" lon="35.013256073">
  <ele>145.407471</ele>
  <time>2011-07-29T06:28:22Z</time>
  <speed>0.950000</speed>
</trkpt>
<trkpt lat="32.585559845" lon="35.013237000">
  <ele>145.802002</ele>
  <time>2011-07-29T06:28:25Z</time>
  <speed>1.040000</speed>
</trkpt>
<trkpt lat="32.585521698" lon="35.013240814">
  <ele>146.677002</ele>
  <time>2011-07-29T06:28:28Z</time>
  <speed>1.500000</speed>
</trkpt>
<trkpt lat="32.585498810" lon="35.013221741">
  <ele>147.563721</ele>
  <time>2011-07-29T06:28:30Z</time>
  <speed>1.040000</speed>
</trkpt>
<trkpt lat="32.585468292" lon="35.013240814">
  <ele>147.419189</ele>
  <time>2011-07-29T06:28:33Z</time>
  <speed>1.170000</speed>
</trkpt>
<trkpt lat="32.585445404" lon="35.013275146">
  <ele>147.692627</ele>
  <time>2011-07-29T06:28:36Z</time>
  <speed>0.630000</speed>
</trkpt>
<trkpt lat="32.585418701" lon="35.013275146">
  <ele>147.102783</ele>
  <time>2011-07-29T06:28:39Z</time>
  <speed>0.980000</speed>
</trkpt>
<trkpt lat="32.585388184" lon="35.013275146">
  <ele>147.555908</ele>
  <time>2011-07-29T06:28:42Z</time>
  <speed>1.120000</speed>
</trkpt>
<trkpt lat="32.585350037" lon="35.013271332">
  <ele>147.923096</ele>
  <time>2011-07-29T06:28:45Z</time>
  <speed>1.400000</speed>
</trkpt>
<trkpt lat="32.585319519" lon="35.013256073">
  <ele>149.563721</ele>
  <time>2011-07-29T06:28:49Z</time>
  <speed>0.990000</speed>
</trkpt>
<trkpt lat="32.585292816" lon="35.013263702">
  <ele>149.372314</ele>
  <time>2011-07-29T06:28:51Z</time>
  <speed>1.210000</speed>
</trkpt>
<trkpt lat="32.585266113" lon="35.013256073">
  <ele>150.446533</ele>
  <time>2011-07-29T06:28:54Z</time>
  <speed>0.640000</speed>
</trkpt>
<trkpt lat="32.585235596" lon="35.013271332">
  <ele>151.911377</ele>
  <time>2011-07-29T06:28:58Z</time>
  <speed>1.270000</speed>
</trkpt>
<trkpt lat="32.585205078" lon="35.013278961">
  <ele>152.067627</ele>
  <time>2011-07-29T06:29:00Z</time>
  <speed>1.280000</speed>
</trkpt>
<trkpt lat="32.585170746" lon="35.013275146">
  <ele>152.661377</ele>
  <time>2011-07-29T06:29:03Z</time>
  <speed>0.780000</speed>
</trkpt>
<trkpt lat="32.585155487" lon="35.013290405">
  <ele>154.505127</ele>
  <time>2011-07-29T06:29:04Z</time>
  <speed>1.210000</speed>
</trkpt>
<trkpt lat="32.585121155" lon="35.013305664">
  <ele>155.743408</ele>
  <time>2011-07-29T06:29:07Z</time>
  <speed>1.240000</speed>
</trkpt>
<trkpt lat="32.585079193" lon="35.013298035">
  <ele>156.653564</ele>
  <time>2011-07-29T06:29:10Z</time>
  <speed>1.770000</speed>
</trkpt>
<trkpt lat="32.585052490" lon="35.013290405">
  <ele>156.884033</ele>
  <time>2011-07-29T06:29:12Z</time>
  <speed>1.550000</speed>
</trkpt>
<trkpt lat="32.585037231" lon="35.013336182">
  <ele>157.864502</ele>
  <time>2011-07-29T06:29:15Z</time>
  <speed>1.490000</speed>
</trkpt>
<trkpt lat="32.584999084" lon="35.013336182">
  <ele>158.122314</ele>
  <time>2011-07-29T06:29:18Z</time>
  <speed>1.310000</speed>
</trkpt>
<trkpt lat="32.584960938" lon="35.013332367">
  <ele>158.259033</ele>
  <time>2011-07-29T06:29:21Z</time>
  <speed>1.620000</speed>
</trkpt>
<trkpt lat="32.584934235" lon="35.013347626">
  <ele>158.868408</ele>
  <time>2011-07-29T06:29:24Z</time>
  <speed>1.170000</speed>
</trkpt>
<trkpt lat="32.584892273" lon="35.013370514">
  <ele>159.743408</ele>
  <time>2011-07-29T06:29:26Z</time>
  <speed>1.220000</speed>
</trkpt>
<trkpt lat="32.584857941" lon="35.013362885">
  <ele>160.759033</ele>
  <time>2011-07-29T06:29:29Z</time>
  <speed>1.020000</speed>
</trkpt>
<trkpt lat="32.584838867" lon="35.013339996">
  <ele>162.895752</ele>
  <time>2011-07-29T06:29:31Z</time>
  <speed>1.230000</speed>
</trkpt>
<trkpt lat="32.584800720" lon="35.013339996">
  <ele>164.157471</ele>
  <time>2011-07-29T06:29:35Z</time>
  <speed>1.290000</speed>
</trkpt>
<trkpt lat="32.584774017" lon="35.013355255">
  <ele>164.223877</ele>
  <time>2011-07-29T06:29:37Z</time>
  <speed>1.240000</speed>
</trkpt>
<trkpt lat="32.584747314" lon="35.013343811">
  <ele>164.735596</ele>
  <time>2011-07-29T06:29:39Z</time>
  <speed>1.350000</speed>
</trkpt>
<trkpt lat="32.584724426" lon="35.013324738">
  <ele>166.005127</ele>
  <time>2011-07-29T06:29:41Z</time>
  <speed>1.340000</speed>
</trkpt>
<trkpt lat="32.584690094" lon="35.013317108">
  <ele>167.376221</ele>
  <time>2011-07-29T06:29:44Z</time>
  <speed>1.350000</speed>
</trkpt>
<trkpt lat="32.584659576" lon="35.013317108">
  <ele>167.876221</ele>
  <time>2011-07-29T06:29:46Z</time>
  <speed>1.350000</speed>
</trkpt>
<trkpt lat="32.584629059" lon="35.013298035">
  <ele>169.348877</ele>
  <time>2011-07-29T06:29:49Z</time>
  <speed>1.570000</speed>
</trkpt>
<trkpt lat="32.584602356" lon="35.013298035">
  <ele>170.407471</ele>
  <time>2011-07-29T06:29:51Z</time>
  <speed>1.480000</speed>
</trkpt>
<trkpt lat="32.584571838" lon="35.013301849">
  <ele>174.903564</ele>
  <time>2011-07-29T06:29:54Z</time>
  <speed>1.180000</speed>
</trkpt>
<trkpt lat="32.584556580" lon="35.013263702">
  <ele>173.958252</ele>
  <time>2011-07-29T06:29:59Z</time>
  <speed>1.190000</speed>
</trkpt>
<trkpt lat="32.584571838" lon="35.013233185">
  <ele>175.180908</ele>
  <time>2011-07-29T06:30:01Z</time>
  <speed>1.730000</speed>
</trkpt>
<trkpt lat="32.584587097" lon="35.013202667">
  <ele>175.173096</ele>
  <time>2011-07-29T06:30:03Z</time>
  <speed>1.510000</speed>
</trkpt>
<trkpt lat="32.584602356" lon="35.013156891">
  <ele>175.118408</ele>
  <time>2011-07-29T06:30:06Z</time>
  <speed>1.370000</speed>
</trkpt>
<trkpt lat="32.584625244" lon="35.013130188">
  <ele>174.427002</ele>
  <time>2011-07-29T06:30:08Z</time>
  <speed>1.370000</speed>
</trkpt>
<trkpt lat="32.584648132" lon="35.013092041">
  <ele>174.540283</ele>
  <time>2011-07-29T06:30:10Z</time>
  <speed>1.910000</speed>
</trkpt>
<trkpt lat="32.584674835" lon="35.013061523">
  <ele>174.130127</ele>
  <time>2011-07-29T06:30:12Z</time>
  <speed>1.780000</speed>
</trkpt>
<trkpt lat="32.584701538" lon="35.013031006">
  <ele>173.657471</ele>
  <time>2011-07-29T06:30:14Z</time>
  <speed>1.620000</speed>
</trkpt>
<trkpt lat="32.584724426" lon="35.013004303">
  <ele>173.872314</ele>
  <time>2011-07-29T06:30:16Z</time>
  <speed>1.690000</speed>
</trkpt>
<trkpt lat="32.584743500" lon="35.012981415">
  <ele>173.708252</ele>
  <time>2011-07-29T06:30:18Z</time>
  <speed>1.530000</speed>
</trkpt>
<trkpt lat="32.584743500" lon="35.012943268">
  <ele>173.091064</ele>
  <time>2011-07-29T06:30:20Z</time>
  <speed>1.200000</speed>
</trkpt>
<trkpt lat="32.584732056" lon="35.012977600">
  <ele>172.216064</ele>
  <time>2011-07-29T06:30:25Z</time>
  <speed>1.660000</speed>
</trkpt>
<trkpt lat="32.584709167" lon="35.013004303">
  <ele>172.259033</ele>
  <time>2011-07-29T06:30:27Z</time>
  <speed>1.600000</speed>
</trkpt>
<trkpt lat="32.584690094" lon="35.013031006">
  <ele>172.630127</ele>
  <time>2011-07-29T06:30:29Z</time>
  <speed>1.600000</speed>
</trkpt>
<trkpt lat="32.584659576" lon="35.013050079">
  <ele>172.637939</ele>
  <time>2011-07-29T06:30:31Z</time>
  <speed>1.510000</speed>
</trkpt>
<trkpt lat="32.584640503" lon="35.013080597">
  <ele>172.313721</ele>
  <time>2011-07-29T06:30:33Z</time>
  <speed>1.150000</speed>
</trkpt>
<trkpt lat="32.584629059" lon="35.013118744">
  <ele>172.778564</ele>
  <time>2011-07-29T06:30:35Z</time>
  <speed>1.260000</speed>
</trkpt>
<trkpt lat="32.584632874" lon="35.013149261">
  <ele>174.149658</ele>
  <time>2011-07-29T06:31:00Z</time>
</trkpt>
<trkpt lat="32.584651947" lon="35.013126373">
  <ele>173.548096</ele>
  <time>2011-07-29T06:38:29Z</time>
  <speed>1.150000</speed>
</trkpt>
<trkpt lat="32.584678650" lon="35.013080597">
  <ele>173.438721</ele>
  <time>2011-07-29T06:38:31Z</time>
  <speed>2.710000</speed>
</trkpt>
<trkpt lat="32.584686279" lon="35.013046265">
  <ele>173.126221</ele>
  <time>2011-07-29T06:38:32Z</time>
  <speed>2.010000</speed>
</trkpt>
<trkpt lat="32.584697723" lon="35.013015747">
  <ele>172.798096</ele>
  <time>2011-07-29T06:38:33Z</time>
  <speed>2.620000</speed>
</trkpt>
<trkpt lat="32.584712982" lon="35.012989044">
  <ele>172.454346</ele>
  <time>2011-07-29T06:38:34Z</time>
  <speed>2.610000</speed>
</trkpt>
<trkpt lat="32.584762573" lon="35.012962341">
  <ele>172.466064</ele>
  <time>2011-07-29T06:38:36Z</time>
  <speed>2.820000</speed>
</trkpt>
<trkpt lat="32.584789276" lon="35.012954712">
  <ele>172.505127</ele>
  <time>2011-07-29T06:38:37Z</time>
  <speed>2.600000</speed>
</trkpt>
<trkpt lat="32.584838867" lon="35.012962341">
  <ele>172.325439</ele>
  <time>2011-07-29T06:38:39Z</time>
  <speed>2.520000</speed>
</trkpt>
<trkpt lat="32.584892273" lon="35.012973785">
  <ele>171.438721</ele>
  <time>2011-07-29T06:38:41Z</time>
  <speed>3.650000</speed>
</trkpt>
<trkpt lat="32.584926605" lon="35.012985229">
  <ele>171.239502</ele>
  <time>2011-07-29T06:38:42Z</time>
  <speed>4.140000</speed>
</trkpt>
<trkpt lat="32.584957123" lon="35.012996674">
  <ele>171.555908</ele>
  <time>2011-07-29T06:38:43Z</time>
  <speed>4.050000</speed>
</trkpt>
<trkpt lat="32.584995270" lon="35.013015747">
  <ele>171.329346</ele>
  <time>2011-07-29T06:38:44Z</time>
  <speed>4.650000</speed>
</trkpt>
<trkpt lat="32.585029602" lon="35.013031006">
  <ele>171.516846</ele>
  <time>2011-07-29T06:38:45Z</time>
  <speed>4.720000</speed>
</trkpt>
<trkpt lat="32.585060120" lon="35.013057709">
  <ele>171.587158</ele>
  <time>2011-07-29T06:38:46Z</time>
  <speed>3.690000</speed>
</trkpt>
<trkpt lat="32.585079193" lon="35.013084412">
  <ele>170.680908</ele>
  <time>2011-07-29T06:38:47Z</time>
  <speed>3.080000</speed>
</trkpt>
<trkpt lat="32.585132599" lon="35.013145447">
  <ele>169.798096</ele>
  <time>2011-07-29T06:38:48Z</time>
  <speed>4.670000</speed>
</trkpt>
<trkpt lat="32.585182190" lon="35.013164520">
  <ele>169.317627</ele>
  <time>2011-07-29T06:38:49Z</time>
  <speed>4.970000</speed>
</trkpt>
<trkpt lat="32.585243225" lon="35.013168335">
  <ele>168.032471</ele>
  <time>2011-07-29T06:38:50Z</time>
  <speed>6.010000</speed>
</trkpt>
<trkpt lat="32.585304260" lon="35.013179779">
  <ele>167.028564</ele>
  <time>2011-07-29T06:38:51Z</time>
  <speed>6.070000</speed>
</trkpt>
<trkpt lat="32.585411072" lon="35.013198853">
  <ele>166.153564</ele>
  <time>2011-07-29T06:38:52Z</time>
  <speed>6.810000</speed>
</trkpt>
<trkpt lat="32.585472107" lon="35.013198853">
  <ele>165.309814</ele>
  <time>2011-07-29T06:38:53Z</time>
  <speed>6.210000</speed>
</trkpt>
<trkpt lat="32.585521698" lon="35.013183594">
  <ele>164.626221</ele>
  <time>2011-07-29T06:38:54Z</time>
  <speed>5.010000</speed>
</trkpt>
<trkpt lat="32.585556030" lon="35.013153076">
  <ele>164.137939</ele>
  <time>2011-07-29T06:38:55Z</time>
  <speed>4.790000</speed>
</trkpt>
<trkpt lat="32.585597992" lon="35.013130188">
  <ele>164.688721</ele>
  <time>2011-07-29T06:38:56Z</time>
  <speed>4.570000</speed>
</trkpt>
<trkpt lat="32.585639954" lon="35.013137817">
  <ele>163.844971</ele>
  <time>2011-07-29T06:38:57Z</time>
  <speed>4.080000</speed>
</trkpt>
<trkpt lat="32.585678101" lon="35.013145447">
  <ele>163.364502</ele>
  <time>2011-07-29T06:38:58Z</time>
  <speed>4.280000</speed>
</trkpt>
<trkpt lat="32.585735321" lon="35.013134003">
  <ele>164.106689</ele>
  <time>2011-07-29T06:38:59Z</time>
  <speed>4.920000</speed>
</trkpt>
<trkpt lat="32.585815430" lon="35.013130188">
  <ele>164.719971</ele>
  <time>2011-07-29T06:39:00Z</time>
  <speed>4.210000</speed>
</trkpt>
<trkpt lat="32.585857391" lon="35.013156891">
  <ele>164.091064</ele>
  <time>2011-07-29T06:39:01Z</time>
  <speed>4.930000</speed>
</trkpt>
<trkpt lat="32.585906982" lon="35.013183594">
  <ele>164.044189</ele>
  <time>2011-07-29T06:39:02Z</time>
  <speed>5.740000</speed>
</trkpt>
<trkpt lat="32.585941315" lon="35.013206482">
  <ele>164.173096</ele>
  <time>2011-07-29T06:39:03Z</time>
  <speed>4.980000</speed>
</trkpt>
<trkpt lat="32.585975647" lon="35.013217926">
  <ele>162.907471</ele>
  <time>2011-07-29T06:39:04Z</time>
  <speed>4.030000</speed>
</trkpt>
<trkpt lat="32.586017609" lon="35.013229370">
  <ele>162.094971</ele>
  <time>2011-07-29T06:39:05Z</time>
  <speed>3.910000</speed>
</trkpt>
<trkpt lat="32.586051941" lon="35.013229370">
  <ele>161.380127</ele>
  <time>2011-07-29T06:39:06Z</time>
  <speed>4.190000</speed>
</trkpt>
<trkpt lat="32.586086273" lon="35.013217926">
  <ele>160.462158</ele>
  <time>2011-07-29T06:39:07Z</time>
  <speed>4.300000</speed>
</trkpt>
<trkpt lat="32.586124420" lon="35.013202667">
  <ele>161.700439</ele>
  <time>2011-07-29T06:39:08Z</time>
  <speed>5.010000</speed>
</trkpt>
<trkpt lat="32.586170197" lon="35.013183594">
  <ele>161.188721</ele>
  <time>2011-07-29T06:39:09Z</time>
  <speed>5.030000</speed>
</trkpt>
<trkpt lat="32.586223602" lon="35.013164520">
  <ele>160.684814</ele>
  <time>2011-07-29T06:39:10Z</time>
  <speed>4.850000</speed>
</trkpt>
<trkpt lat="32.586277008" lon="35.013153076">
  <ele>160.126221</ele>
  <time>2011-07-29T06:39:11Z</time>
  <speed>4.770000</speed>
</trkpt>
<trkpt lat="32.586318970" lon="35.013149261">
  <ele>160.669189</ele>
  <time>2011-07-29T06:39:12Z</time>
  <speed>5.520000</speed>
</trkpt>
<trkpt lat="32.586364746" lon="35.013149261">
  <ele>159.552002</ele>
  <time>2011-07-29T06:39:13Z</time>
  <speed>5.480000</speed>
</trkpt>
<trkpt lat="32.586418152" lon="35.013156891">
  <ele>158.899658</ele>
  <time>2011-07-29T06:39:14Z</time>
  <speed>5.280000</speed>
</trkpt>
<trkpt lat="32.586463928" lon="35.013164520">
  <ele>157.661377</ele>
  <time>2011-07-29T06:39:15Z</time>
  <speed>5.140000</speed>
</trkpt>
<trkpt lat="32.586551666" lon="35.013160706">
  <ele>157.137939</ele>
  <time>2011-07-29T06:39:16Z</time>
  <speed>6.190000</speed>
</trkpt>
<trkpt lat="32.586608887" lon="35.013156891">
  <ele>156.505127</ele>
  <time>2011-07-29T06:39:17Z</time>
  <speed>5.790000</speed>
</trkpt>
<trkpt lat="32.586654663" lon="35.013160706">
  <ele>156.204346</ele>
  <time>2011-07-29T06:39:18Z</time>
  <speed>4.760000</speed>
</trkpt>
<trkpt lat="32.586704254" lon="35.013164520">
  <ele>156.094971</ele>
  <time>2011-07-29T06:39:19Z</time>
  <speed>5.160000</speed>
</trkpt>
<trkpt lat="32.586753845" lon="35.013175964">
  <ele>156.145752</ele>
  <time>2011-07-29T06:39:20Z</time>
  <speed>4.900000</speed>
</trkpt>
<trkpt lat="32.586795807" lon="35.013183594">
  <ele>156.137939</ele>
  <time>2011-07-29T06:39:21Z</time>
  <speed>4.360000</speed>
</trkpt>
<trkpt lat="32.586826324" lon="35.013198853">
  <ele>155.157471</ele>
  <time>2011-07-29T06:39:22Z</time>
  <speed>3.920000</speed>
</trkpt>
<trkpt lat="32.586856842" lon="35.013214111">
  <ele>155.278564</ele>
  <time>2011-07-29T06:39:23Z</time>
  <speed>3.570000</speed>
</trkpt>
<trkpt lat="32.586883545" lon="35.013233185">
  <ele>154.395752</ele>
  <time>2011-07-29T06:39:24Z</time>
  <speed>3.740000</speed>
</trkpt>
<trkpt lat="32.586925507" lon="35.013244629">
  <ele>154.223877</ele>
  <time>2011-07-29T06:39:25Z</time>
  <speed>4.000000</speed>
</trkpt>
<trkpt lat="32.586963654" lon="35.013256073">
  <ele>153.911377</ele>
  <time>2011-07-29T06:39:26Z</time>
  <speed>4.560000</speed>
</trkpt>
<trkpt lat="32.587009430" lon="35.013252258">
  <ele>154.102783</ele>
  <time>2011-07-29T06:39:27Z</time>
  <speed>4.510000</speed>
</trkpt>
<trkpt lat="32.587051392" lon="35.013248444">
  <ele>153.751221</ele>
  <time>2011-07-29T06:39:28Z</time>
  <speed>4.230000</speed>
</trkpt>
<trkpt lat="32.587100983" lon="35.013237000">
  <ele>154.727783</ele>
  <time>2011-07-29T06:39:29Z</time>
  <speed>4.900000</speed>
</trkpt>
<trkpt lat="32.587154388" lon="35.013240814">
  <ele>154.829346</ele>
  <time>2011-07-29T06:39:30Z</time>
  <speed>5.370000</speed>
</trkpt>
<trkpt lat="32.587203979" lon="35.013244629">
  <ele>154.919189</ele>
  <time>2011-07-29T06:39:31Z</time>
  <speed>4.870000</speed>
</trkpt>
<trkpt lat="32.587257385" lon="35.013252258">
  <ele>153.278564</ele>
  <time>2011-07-29T06:39:32Z</time>
  <speed>5.230000</speed>
</trkpt>
<trkpt lat="32.587318420" lon="35.013256073">
  <ele>151.594971</ele>
  <time>2011-07-29T06:39:33Z</time>
  <speed>4.900000</speed>
</trkpt>
<trkpt lat="32.587368011" lon="35.013259888">
  <ele>153.688721</ele>
  <time>2011-07-29T06:39:34Z</time>
  <speed>4.210000</speed>
</trkpt>
<trkpt lat="32.587409973" lon="35.013263702">
  <ele>153.450439</ele>
  <time>2011-07-29T06:39:35Z</time>
  <speed>3.690000</speed>
</trkpt>
<trkpt lat="32.587440491" lon="35.013267517">
  <ele>152.719971</ele>
  <time>2011-07-29T06:39:36Z</time>
  <speed>3.030000</speed>
</trkpt>
<trkpt lat="32.587478638" lon="35.013278961">
  <ele>152.071533</ele>
  <time>2011-07-29T06:39:37Z</time>
  <speed>3.790000</speed>
</trkpt>
<trkpt lat="32.587512970" lon="35.013282776">
  <ele>150.489502</ele>
  <time>2011-07-29T06:39:38Z</time>
  <speed>4.310000</speed>
</trkpt>
<trkpt lat="32.587551117" lon="35.013282776">
  <ele>149.223877</ele>
  <time>2011-07-29T06:39:39Z</time>
  <speed>3.920000</speed>
</trkpt>
<trkpt lat="32.587589264" lon="35.013286591">
  <ele>148.137939</ele>
  <time>2011-07-29T06:39:40Z</time>
  <speed>3.640000</speed>
</trkpt>
<trkpt lat="32.587619781" lon="35.013290405">
  <ele>146.950439</ele>
  <time>2011-07-29T06:39:41Z</time>
  <speed>2.620000</speed>
</trkpt>
<trkpt lat="32.587665558" lon="35.013294220">
  <ele>148.559814</ele>
  <time>2011-07-29T06:39:42Z</time>
  <speed>3.480000</speed>
</trkpt>
<trkpt lat="32.587688446" lon="35.013324738">
  <ele>147.524658</ele>
  <time>2011-07-29T06:39:43Z</time>
  <speed>3.870000</speed>
</trkpt>
<trkpt lat="32.587703705" lon="35.013355255">
  <ele>145.481689</ele>
  <time>2011-07-29T06:39:44Z</time>
  <speed>3.560000</speed>
</trkpt>
<trkpt lat="32.587745667" lon="35.013381958">
  <ele>143.813721</ele>
  <time>2011-07-29T06:39:46Z</time>
  <speed>2.290000</speed>
</trkpt>
<trkpt lat="32.587779999" lon="35.013359070">
  <ele>141.341064</ele>
  <time>2011-07-29T06:39:47Z</time>
  <speed>3.910000</speed>
</trkpt>
<trkpt lat="32.587810516" lon="35.013332367">
  <ele>140.009033</ele>
  <time>2011-07-29T06:39:48Z</time>
  <speed>3.930000</speed>
</trkpt>
<trkpt lat="32.587825775" lon="35.013298035">
  <ele>139.317627</ele>
  <time>2011-07-29T06:39:49Z</time>
  <speed>3.700000</speed>
</trkpt>
<trkpt lat="32.587852478" lon="35.013259888">
  <ele>137.981689</ele>
  <time>2011-07-29T06:39:50Z</time>
  <speed>3.610000</speed>
</trkpt>
<trkpt lat="32.587875366" lon="35.013229370">
  <ele>137.364502</ele>
  <time>2011-07-29T06:39:51Z</time>
  <speed>3.650000</speed>
</trkpt>
<trkpt lat="32.587898254" lon="35.013198853">
  <ele>136.587158</ele>
  <time>2011-07-29T06:39:52Z</time>
  <speed>4.370000</speed>
</trkpt>
<trkpt lat="32.587917328" lon="35.013126373">
  <ele>134.759033</ele>
  <time>2011-07-29T06:39:53Z</time>
  <speed>4.400000</speed>
</trkpt>
<trkpt lat="32.587940216" lon="35.013076782">
  <ele>134.098877</ele>
  <time>2011-07-29T06:39:54Z</time>
  <speed>4.160000</speed>
</trkpt>
<trkpt lat="32.587982178" lon="35.013031006">
  <ele>133.333252</ele>
  <time>2011-07-29T06:39:55Z</time>
  <speed>4.400000</speed>
</trkpt>
<trkpt lat="32.587997437" lon="35.012992859">
  <ele>133.594971</ele>
  <time>2011-07-29T06:39:56Z</time>
  <speed>4.590000</speed>
</trkpt>
<trkpt lat="32.588020325" lon="35.012950897">
  <ele>132.946533</ele>
  <time>2011-07-29T06:39:57Z</time>
  <speed>4.810000</speed>
</trkpt>
<trkpt lat="32.588050842" lon="35.012901306">
  <ele>132.497314</ele>
  <time>2011-07-29T06:39:58Z</time>
  <speed>4.850000</speed>
</trkpt>
<trkpt lat="32.588085175" lon="35.012855530">
  <ele>131.348877</ele>
  <time>2011-07-29T06:39:59Z</time>
  <speed>4.480000</speed>
</trkpt>
<trkpt lat="32.588119507" lon="35.012817383">
  <ele>128.993408</ele>
  <time>2011-07-29T06:40:00Z</time>
  <speed>4.070000</speed>
</trkpt>
<trkpt lat="32.588138580" lon="35.012775421">
  <ele>127.000610</ele>
  <time>2011-07-29T06:40:01Z</time>
  <speed>4.300000</speed>
</trkpt>
<trkpt lat="32.588184357" lon="35.012729645">
  <ele>126.160767</ele>
  <time>2011-07-29T06:40:02Z</time>
  <speed>4.380000</speed>
</trkpt>
<trkpt lat="32.588203430" lon="35.012680054">
  <ele>125.102173</ele>
  <time>2011-07-29T06:40:03Z</time>
  <speed>4.630000</speed>
</trkpt>
<trkpt lat="32.588222504" lon="35.012630463">
  <ele>123.973267</ele>
  <time>2011-07-29T06:40:04Z</time>
  <speed>4.740000</speed>
</trkpt>
<trkpt lat="32.588230133" lon="35.012573242">
  <ele>122.975220</ele>
  <time>2011-07-29T06:40:05Z</time>
  <speed>5.370000</speed>
</trkpt>
<trkpt lat="32.588233948" lon="35.012508392">
  <ele>122.434204</ele>
  <time>2011-07-29T06:40:06Z</time>
  <speed>5.510000</speed>
</trkpt>
<trkpt lat="32.588237762" lon="35.012439728">
  <ele>121.840454</ele>
  <time>2011-07-29T06:40:07Z</time>
  <speed>5.530000</speed>
</trkpt>
<trkpt lat="32.588241577" lon="35.012371063">
  <ele>120.977173</ele>
  <time>2011-07-29T06:40:08Z</time>
  <speed>5.520000</speed>
</trkpt>
<trkpt lat="32.588245392" lon="35.012310028">
  <ele>120.268188</ele>
  <time>2011-07-29T06:40:09Z</time>
  <speed>5.200000</speed>
</trkpt>
<trkpt lat="32.588256836" lon="35.012260437">
  <ele>119.137329</ele>
  <time>2011-07-29T06:40:10Z</time>
  <speed>3.060000</speed>
</trkpt>
<trkpt lat="32.588253021" lon="35.012229919">
  <ele>117.930298</ele>
  <time>2011-07-29T06:40:11Z</time>
  <speed>2.400000</speed>
</trkpt>
<trkpt lat="32.588283539" lon="35.012241364">
  <ele>117.604126</ele>
  <time>2011-07-29T06:40:13Z</time>
  <speed>2.830000</speed>
</trkpt>
<trkpt lat="32.588291168" lon="35.012271881">
  <ele>117.137329</ele>
  <time>2011-07-29T06:40:14Z</time>
  <speed>3.150000</speed>
</trkpt>
<trkpt lat="32.588336945" lon="35.012298584">
  <ele>115.865845</ele>
  <time>2011-07-29T06:40:16Z</time>
  <speed>2.710000</speed>
</trkpt>
<trkpt lat="32.588367462" lon="35.012283325">
  <ele>115.100220</ele>
  <time>2011-07-29T06:40:17Z</time>
  <speed>3.040000</speed>
</trkpt>
<trkpt lat="32.588394165" lon="35.012256622">
  <ele>114.527954</ele>
  <time>2011-07-29T06:40:18Z</time>
  <speed>3.760000</speed>
</trkpt>
<trkpt lat="32.588417053" lon="35.012210846">
  <ele>113.818970</ele>
  <time>2011-07-29T06:40:19Z</time>
  <speed>4.300000</speed>
</trkpt>
<trkpt lat="32.588428497" lon="35.012153625">
  <ele>113.391235</ele>
  <time>2011-07-29T06:40:20Z</time>
  <speed>5.270000</speed>
</trkpt>
<trkpt lat="32.588455200" lon="35.012088776">
  <ele>112.547485</ele>
  <time>2011-07-29T06:40:21Z</time>
  <speed>5.240000</speed>
</trkpt>
<trkpt lat="32.588451385" lon="35.012035370">
  <ele>112.268188</ele>
  <time>2011-07-29T06:40:22Z</time>
  <speed>4.330000</speed>
</trkpt>
<trkpt lat="32.588462830" lon="35.011989594">
  <ele>111.408813</ele>
  <time>2011-07-29T06:40:23Z</time>
  <speed>4.180000</speed>
</trkpt>
<trkpt lat="32.588497162" lon="35.011943817">
  <ele>110.135376</ele>
  <time>2011-07-29T06:40:24Z</time>
  <speed>4.610000</speed>
</trkpt>
<trkpt lat="32.588527679" lon="35.011905670">
  <ele>109.184204</ele>
  <time>2011-07-29T06:40:25Z</time>
  <speed>4.380000</speed>
</trkpt>
<trkpt lat="32.588546753" lon="35.011863708">
  <ele>108.563110</ele>
  <time>2011-07-29T06:40:26Z</time>
  <speed>4.330000</speed>
</trkpt>
<trkpt lat="32.588562012" lon="35.011806488">
  <ele>107.549438</ele>
  <time>2011-07-29T06:40:27Z</time>
  <speed>4.450000</speed>
</trkpt>
<trkpt lat="32.588603973" lon="35.011768341">
  <ele>107.684204</ele>
  <time>2011-07-29T06:40:28Z</time>
  <speed>4.260000</speed>
</trkpt>
<trkpt lat="32.588619232" lon="35.011722565">
  <ele>107.699829</ele>
  <time>2011-07-29T06:40:29Z</time>
  <speed>4.870000</speed>
</trkpt>
<trkpt lat="32.588642120" lon="35.011680603">
  <ele>107.135376</ele>
  <time>2011-07-29T06:40:30Z</time>
  <speed>4.230000</speed>
</trkpt>
<trkpt lat="32.588665009" lon="35.011634827">
  <ele>106.783813</ele>
  <time>2011-07-29T06:40:31Z</time>
  <speed>4.770000</speed>
</trkpt>
<trkpt lat="32.588684082" lon="35.011592865">
  <ele>106.106079</ele>
  <time>2011-07-29T06:40:32Z</time>
  <speed>4.580000</speed>
</trkpt>
<trkpt lat="32.588695526" lon="35.011543274">
  <ele>105.631470</ele>
  <time>2011-07-29T06:40:33Z</time>
  <speed>4.410000</speed>
</trkpt>
<trkpt lat="32.588706970" lon="35.011497498">
  <ele>104.955688</ele>
  <time>2011-07-29T06:40:34Z</time>
  <speed>4.550000</speed>
</trkpt>
<trkpt lat="32.588729858" lon="35.011451721">
  <ele>104.418579</ele>
  <time>2011-07-29T06:40:35Z</time>
  <speed>5.220000</speed>
</trkpt>
<trkpt lat="32.588764191" lon="35.011402130">
  <ele>104.053345</ele>
  <time>2011-07-29T06:40:36Z</time>
  <speed>5.720000</speed>
</trkpt>
<trkpt lat="32.588794708" lon="35.011356354">
  <ele>103.598267</ele>
  <time>2011-07-29T06:40:37Z</time>
  <speed>5.460000</speed>
</trkpt>
<trkpt lat="32.588829041" lon="35.011322021">
  <ele>103.090454</ele>
  <time>2011-07-29T06:40:38Z</time>
  <speed>4.260000</speed>
</trkpt>
<trkpt lat="32.588855743" lon="35.011276245">
  <ele>102.883423</ele>
  <time>2011-07-29T06:40:39Z</time>
  <speed>4.500000</speed>
</trkpt>
<trkpt lat="32.588890076" lon="35.011230469">
  <ele>102.326782</ele>
  <time>2011-07-29T06:40:40Z</time>
  <speed>4.580000</speed>
</trkpt>
<trkpt lat="32.588912964" lon="35.011188507">
  <ele>101.545532</ele>
  <time>2011-07-29T06:40:41Z</time>
  <speed>4.440000</speed>
</trkpt>
<trkpt lat="32.588916779" lon="35.011142731">
  <ele>101.346313</ele>
  <time>2011-07-29T06:40:42Z</time>
  <speed>4.230000</speed>
</trkpt>
<trkpt lat="32.588912964" lon="35.011077881">
  <ele>101.061157</ele>
  <time>2011-07-29T06:40:43Z</time>
  <speed>4.510000</speed>
</trkpt>
<trkpt lat="32.588897705" lon="35.010990143">
  <ele>101.645142</ele>
  <time>2011-07-29T06:40:44Z</time>
  <speed>5.390000</speed>
</trkpt>
<trkpt lat="32.588878632" lon="35.010925293">
  <ele>101.481079</ele>
  <time>2011-07-29T06:40:45Z</time>
  <speed>5.660000</speed>
</trkpt>
<trkpt lat="32.588859558" lon="35.010871887">
  <ele>101.377563</ele>
  <time>2011-07-29T06:40:46Z</time>
  <speed>5.130000</speed>
</trkpt>
<trkpt lat="32.588848114" lon="35.010822296">
  <ele>100.988892</ele>
  <time>2011-07-29T06:40:47Z</time>
  <speed>4.710000</speed>
</trkpt>
<trkpt lat="32.588832855" lon="35.010768890">
  <ele>100.721313</ele>
  <time>2011-07-29T06:40:48Z</time>
  <speed>5.160000</speed>
</trkpt>
<trkpt lat="32.588825226" lon="35.010723114">
  <ele>100.787720</ele>
  <time>2011-07-29T06:40:49Z</time>
  <speed>4.830000</speed>
</trkpt>
<trkpt lat="32.588840485" lon="35.010665894">
  <ele>100.451782</ele>
  <time>2011-07-29T06:40:50Z</time>
  <speed>5.350000</speed>
</trkpt>
<trkpt lat="32.588855743" lon="35.010608673">
  <ele>100.131470</ele>
  <time>2011-07-29T06:40:51Z</time>
  <speed>5.550000</speed>
</trkpt>
<trkpt lat="32.588871002" lon="35.010547638">
  <ele>99.229126</ele>
  <time>2011-07-29T06:40:52Z</time>
  <speed>5.550000</speed>
</trkpt>
<trkpt lat="32.588901520" lon="35.010498047">
  <ele>98.190063</ele>
  <time>2011-07-29T06:40:53Z</time>
  <speed>5.320000</speed>
</trkpt>
<trkpt lat="32.588943481" lon="35.010467529">
  <ele>97.594360</ele>
  <time>2011-07-29T06:40:54Z</time>
  <speed>5.270000</speed>
</trkpt>
<trkpt lat="32.588989258" lon="35.010448456">
  <ele>97.359985</ele>
  <time>2011-07-29T06:40:55Z</time>
  <speed>5.310000</speed>
</trkpt>
<trkpt lat="32.589038849" lon="35.010437012">
  <ele>96.891235</ele>
  <time>2011-07-29T06:40:56Z</time>
  <speed>5.670000</speed>
</trkpt>
<trkpt lat="32.589084625" lon="35.010425568">
  <ele>96.133423</ele>
  <time>2011-07-29T06:40:57Z</time>
  <speed>5.350000</speed>
</trkpt>
<trkpt lat="32.589126587" lon="35.010410309">
  <ele>95.092407</ele>
  <time>2011-07-29T06:40:58Z</time>
  <speed>4.700000</speed>
</trkpt>
<trkpt lat="32.589172363" lon="35.010379791">
  <ele>94.594360</ele>
  <time>2011-07-29T06:40:59Z</time>
  <speed>4.120000</speed>
</trkpt>
<trkpt lat="32.589199066" lon="35.010341644">
  <ele>93.881470</ele>
  <time>2011-07-29T06:41:00Z</time>
  <speed>3.980000</speed>
</trkpt>
<trkpt lat="32.589225769" lon="35.010330200">
  <ele>93.188110</ele>
  <time>2011-07-29T06:41:01Z</time>
  <speed>3.340000</speed>
</trkpt>
<trkpt lat="32.589252472" lon="35.010330200">
  <ele>91.887329</ele>
  <time>2011-07-29T06:41:02Z</time>
  <speed>3.460000</speed>
</trkpt>
<trkpt lat="32.589282990" lon="35.010337830">
  <ele>90.983032</ele>
  <time>2011-07-29T06:41:03Z</time>
  <speed>3.340000</speed>
</trkpt>
<trkpt lat="32.589313507" lon="35.010356903">
  <ele>90.231079</ele>
  <time>2011-07-29T06:41:04Z</time>
  <speed>2.590000</speed>
</trkpt>
<trkpt lat="32.589355469" lon="35.010364532">
  <ele>91.086548</ele>
  <time>2011-07-29T06:41:05Z</time>
  <speed>4.240000</speed>
</trkpt>
<trkpt lat="32.589408875" lon="35.010364532">
  <ele>90.891235</ele>
  <time>2011-07-29T06:41:06Z</time>
  <speed>4.860000</speed>
</trkpt>
<trkpt lat="32.589450836" lon="35.010364532">
  <ele>90.455688</ele>
  <time>2011-07-29T06:41:07Z</time>
  <speed>4.130000</speed>
</trkpt>
<trkpt lat="32.589488983" lon="35.010375977">
  <ele>91.504517</ele>
  <time>2011-07-29T06:41:09Z</time>
  <speed>1.400000</speed>
</trkpt>
<trkpt lat="32.589519501" lon="35.010379791">
  <ele>90.272095</ele>
  <time>2011-07-29T06:41:12Z</time>
  <speed>0.410000</speed>
</trkpt>
<trkpt lat="32.589546204" lon="35.010375977">
  <ele>90.617798</ele>
  <time>2011-07-29T06:41:20Z</time>
  <speed>0.570000</speed>
</trkpt>
<trkpt lat="32.589588165" lon="35.010402679">
  <ele>90.785767</ele>
  <time>2011-07-29T06:41:24Z</time>
  <speed>1.430000</speed>
</trkpt>
<trkpt lat="32.589630127" lon="35.010414124">
  <ele>90.883423</ele>
  <time>2011-07-29T06:41:26Z</time>
  <speed>2.030000</speed>
</trkpt>
<trkpt lat="32.589660645" lon="35.010417938">
  <ele>90.781860</ele>
  <time>2011-07-29T06:41:27Z</time>
  <speed>2.640000</speed>
</trkpt>
<trkpt lat="32.589687347" lon="35.010417938">
  <ele>90.721313</ele>
  <time>2011-07-29T06:41:28Z</time>
  <speed>2.470000</speed>
</trkpt>
<trkpt lat="32.589721680" lon="35.010406494">
  <ele>91.637329</ele>
  <time>2011-07-29T06:41:29Z</time>
  <speed>2.530000</speed>
</trkpt>
<trkpt lat="32.589752197" lon="35.010395050">
  <ele>92.221313</ele>
  <time>2011-07-29T06:41:30Z</time>
  <speed>2.750000</speed>
</trkpt>
<trkpt lat="32.589786530" lon="35.010387421">
  <ele>92.354126</ele>
  <time>2011-07-29T06:41:31Z</time>
  <speed>2.860000</speed>
</trkpt>
<trkpt lat="32.589824677" lon="35.010395050">
  <ele>91.078735</ele>
  <time>2011-07-29T06:41:32Z</time>
  <speed>3.520000</speed>
</trkpt>
<trkpt lat="32.589855194" lon="35.010414124">
  <ele>90.584595</ele>
  <time>2011-07-29T06:41:33Z</time>
  <speed>3.450000</speed>
</trkpt>
<trkpt lat="32.589885712" lon="35.010440826">
  <ele>90.342407</ele>
  <time>2011-07-29T06:41:34Z</time>
  <speed>3.470000</speed>
</trkpt>
<trkpt lat="32.589912415" lon="35.010471344">
  <ele>90.606079</ele>
  <time>2011-07-29T06:41:35Z</time>
  <speed>3.520000</speed>
</trkpt>
<trkpt lat="32.589939117" lon="35.010505676">
  <ele>90.223267</ele>
  <time>2011-07-29T06:41:36Z</time>
  <speed>3.950000</speed>
</trkpt>
<trkpt lat="32.589962006" lon="35.010524750">
  <ele>88.996704</ele>
  <time>2011-07-29T06:41:37Z</time>
  <speed>3.660000</speed>
</trkpt>
<trkpt lat="32.590011597" lon="35.010559082">
  <ele>90.008423</ele>
  <time>2011-07-29T06:41:38Z</time>
  <speed>4.150000</speed>
</trkpt>
<trkpt lat="32.590068817" lon="35.010574341">
  <ele>89.418579</ele>
  <time>2011-07-29T06:41:39Z</time>
  <speed>3.440000</speed>
</trkpt>
<trkpt lat="32.590087891" lon="35.010604858">
  <ele>89.151001</ele>
  <time>2011-07-29T06:41:40Z</time>
  <speed>3.370000</speed>
</trkpt>
<trkpt lat="32.590084076" lon="35.010635376">
  <ele>88.693970</ele>
  <time>2011-07-29T06:41:41Z</time>
  <speed>3.820000</speed>
</trkpt>
<trkpt lat="32.590061188" lon="35.010669708">
  <ele>88.377563</ele>
  <time>2011-07-29T06:41:42Z</time>
  <speed>3.910000</speed>
</trkpt>
<trkpt lat="32.590023041" lon="35.010696411">
  <ele>87.899048</ele>
  <time>2011-07-29T06:41:43Z</time>
  <speed>4.680000</speed>
</trkpt>
<trkpt lat="32.589981079" lon="35.010738373">
  <ele>86.992798</ele>
  <time>2011-07-29T06:41:44Z</time>
  <speed>6.150000</speed>
</trkpt>
<trkpt lat="32.589950562" lon="35.010803223">
  <ele>86.924438</ele>
  <time>2011-07-29T06:41:45Z</time>
  <speed>6.560000</speed>
</trkpt>
<trkpt lat="32.589912415" lon="35.010879517">
  <ele>86.080688</ele>
  <time>2011-07-29T06:41:46Z</time>
  <speed>7.120000</speed>
</trkpt>
<trkpt lat="32.589889526" lon="35.010948181">
  <ele>86.086548</ele>
  <time>2011-07-29T06:41:47Z</time>
  <speed>6.270000</speed>
</trkpt>
<trkpt lat="32.589870453" lon="35.010993958">
  <ele>85.768188</ele>
  <time>2011-07-29T06:41:48Z</time>
  <speed>3.050000</speed>
</trkpt>
<trkpt lat="32.589889526" lon="35.011039734">
  <ele>85.258423</ele>
  <time>2011-07-29T06:41:50Z</time>
  <speed>1.630000</speed>
</trkpt>
<trkpt lat="32.589912415" lon="35.011028290">
  <ele>83.553345</ele>
  <time>2011-07-29T06:41:51Z</time>
  <speed>2.400000</speed>
</trkpt>
<trkpt lat="32.589939117" lon="35.011028290">
  <ele>82.764282</ele>
  <time>2011-07-29T06:41:52Z</time>
  <speed>2.810000</speed>
</trkpt>
<trkpt lat="32.589969635" lon="35.011035919">
  <ele>82.457642</ele>
  <time>2011-07-29T06:41:53Z</time>
  <speed>3.330000</speed>
</trkpt>
<trkpt lat="32.590042114" lon="35.011035919">
  <ele>80.709595</ele>
  <time>2011-07-29T06:41:54Z</time>
  <speed>4.850000</speed>
</trkpt>
<trkpt lat="32.590095520" lon="35.011032104">
  <ele>80.266235</ele>
  <time>2011-07-29T06:41:55Z</time>
  <speed>5.340000</speed>
</trkpt>
<trkpt lat="32.590156555" lon="35.011035919">
  <ele>79.651001</ele>
  <time>2011-07-29T06:41:56Z</time>
  <speed>6.500000</speed>
</trkpt>
<trkpt lat="32.590236664" lon="35.011043549">
  <ele>79.932251</ele>
  <time>2011-07-29T06:41:57Z</time>
  <speed>7.410000</speed>
</trkpt>
<trkpt lat="32.590301514" lon="35.011058807">
  <ele>78.096313</ele>
  <time>2011-07-29T06:41:58Z</time>
  <speed>7.020000</speed>
</trkpt>
<trkpt lat="32.590366364" lon="35.011058807">
  <ele>77.135376</ele>
  <time>2011-07-29T06:41:59Z</time>
  <speed>7.180000</speed>
</trkpt>
<trkpt lat="32.590446472" lon="35.011058807">
  <ele>76.258423</ele>
  <time>2011-07-29T06:42:00Z</time>
  <speed>7.700000</speed>
</trkpt>
<trkpt lat="32.590568542" lon="35.011058807">
  <ele>76.633423</ele>
  <time>2011-07-29T06:42:01Z</time>
  <speed>8.350000</speed>
</trkpt>
<trkpt lat="32.590652466" lon="35.011054993">
  <ele>76.752563</ele>
  <time>2011-07-29T06:42:02Z</time>
  <speed>8.860000</speed>
</trkpt>
<trkpt lat="32.590732574" lon="35.011062622">
  <ele>75.322876</ele>
  <time>2011-07-29T06:42:03Z</time>
  <speed>8.760000</speed>
</trkpt>
<trkpt lat="32.590812683" lon="35.011066437">
  <ele>74.375610</ele>
  <time>2011-07-29T06:42:04Z</time>
  <speed>8.700000</speed>
</trkpt>
<trkpt lat="32.590892792" lon="35.011070251">
  <ele>73.789673</ele>
  <time>2011-07-29T06:42:05Z</time>
  <speed>8.530000</speed>
</trkpt>
<trkpt lat="32.590976715" lon="35.011066437">
  <ele>73.617798</ele>
  <time>2011-07-29T06:42:06Z</time>
  <speed>8.590000</speed>
</trkpt>
<trkpt lat="32.591053009" lon="35.011066437">
  <ele>72.719360</ele>
  <time>2011-07-29T06:42:07Z</time>
  <speed>8.090000</speed>
</trkpt>
<trkpt lat="32.591129303" lon="35.011066437">
  <ele>72.887329</ele>
  <time>2011-07-29T06:42:08Z</time>
  <speed>8.370000</speed>
</trkpt>
<trkpt lat="32.591205597" lon="35.011043549">
  <ele>71.375610</ele>
  <time>2011-07-29T06:42:09Z</time>
  <speed>8.710000</speed>
</trkpt>
<trkpt lat="32.591281891" lon="35.011035919">
  <ele>69.139282</ele>
  <time>2011-07-29T06:42:10Z</time>
  <speed>8.890000</speed>
</trkpt>
<trkpt lat="32.591362000" lon="35.011016846">
  <ele>67.877563</ele>
  <time>2011-07-29T06:42:11Z</time>
  <speed>9.240000</speed>
</trkpt>
<trkpt lat="32.591449738" lon="35.011005402">
  <ele>67.695923</ele>
  <time>2011-07-29T06:42:12Z</time>
  <speed>9.490000</speed>
</trkpt>
<trkpt lat="32.591533661" lon="35.010986328">
  <ele>66.582642</ele>
  <time>2011-07-29T06:42:13Z</time>
  <speed>9.470000</speed>
</trkpt>
<trkpt lat="32.591617584" lon="35.010974884">
  <ele>65.369751</ele>
  <time>2011-07-29T06:42:14Z</time>
  <speed>9.590000</speed>
</trkpt>
<trkpt lat="32.591705322" lon="35.010955811">
  <ele>63.808899</ele>
  <time>2011-07-29T06:42:15Z</time>
  <speed>9.810001</speed>
</trkpt>
<trkpt lat="32.591785431" lon="35.010936737">
  <ele>62.865540</ele>
  <time>2011-07-29T06:42:16Z</time>
  <speed>8.710000</speed>
</trkpt>
<trkpt lat="32.591865540" lon="35.010913849">
  <ele>62.238586</ele>
  <time>2011-07-29T06:42:17Z</time>
  <speed>8.680000</speed>
</trkpt>
<trkpt lat="32.591938019" lon="35.010883331">
  <ele>61.331360</ele>
  <time>2011-07-29T06:42:18Z</time>
  <speed>8.210000</speed>
</trkpt>
<trkpt lat="32.592010498" lon="35.010852814">
  <ele>59.819641</ele>
  <time>2011-07-29T06:42:19Z</time>
  <speed>8.870000</speed>
</trkpt>
<trkpt lat="32.592079163" lon="35.010803223">
  <ele>58.230774</ele>
  <time>2011-07-29T06:42:20Z</time>
  <speed>8.050000</speed>
</trkpt>
<trkpt lat="32.592170715" lon="35.010730743">
  <ele>56.587219</ele>
  <time>2011-07-29T06:42:21Z</time>
  <speed>8.020000</speed>
</trkpt>
<trkpt lat="32.592227936" lon="35.010669708">
  <ele>56.667297</ele>
  <time>2011-07-29T06:42:22Z</time>
  <speed>7.250000</speed>
</trkpt>
<trkpt lat="32.592277527" lon="35.010631561">
  <ele>56.888000</ele>
  <time>2011-07-29T06:42:23Z</time>
  <speed>5.840000</speed>
</trkpt>
<trkpt lat="32.592319489" lon="35.010593414">
  <ele>57.017883</ele>
  <time>2011-07-29T06:42:24Z</time>
  <speed>5.710000</speed>
</trkpt>
<trkpt lat="32.592369080" lon="35.010562897">
  <ele>56.721008</ele>
  <time>2011-07-29T06:42:25Z</time>
  <speed>6.520000</speed>
</trkpt>
<trkpt lat="32.592414856" lon="35.010520935">
  <ele>55.775696</ele>
  <time>2011-07-29T06:42:26Z</time>
  <speed>6.400000</speed>
</trkpt>
<trkpt lat="32.592445374" lon="35.010467529">
  <ele>54.958313</ele>
  <time>2011-07-29T06:42:27Z</time>
  <speed>6.220000</speed>
</trkpt>
<trkpt lat="32.592483521" lon="35.010414124">
  <ele>53.978821</ele>
  <time>2011-07-29T06:42:28Z</time>
  <speed>6.170000</speed>
</trkpt>
<trkpt lat="32.592533112" lon="35.010349274">
  <ele>53.813782</ele>
  <time>2011-07-29T06:42:29Z</time>
  <speed>6.980000</speed>
</trkpt>
<trkpt lat="32.592552185" lon="35.010276794">
  <ele>53.363586</ele>
  <time>2011-07-29T06:42:30Z</time>
  <speed>6.760000</speed>
</trkpt>
<trkpt lat="32.592578888" lon="35.010204315">
  <ele>53.227844</ele>
  <time>2011-07-29T06:42:31Z</time>
  <speed>6.510000</speed>
</trkpt>
<trkpt lat="32.592609406" lon="35.010112762">
  <ele>54.456360</ele>
  <time>2011-07-29T06:42:32Z</time>
  <speed>7.080000</speed>
</trkpt>
<trkpt lat="32.592632294" lon="35.010032654">
  <ele>54.101868</ele>
  <time>2011-07-29T06:42:33Z</time>
  <speed>7.560000</speed>
</trkpt>
<trkpt lat="32.592651367" lon="35.009937286">
  <ele>54.858704</ele>
  <time>2011-07-29T06:42:34Z</time>
  <speed>7.180000</speed>
</trkpt>
<trkpt lat="32.592674255" lon="35.009857178">
  <ele>54.442688</ele>
  <time>2011-07-29T06:42:35Z</time>
  <speed>7.330000</speed>
</trkpt>
<trkpt lat="32.592693329" lon="35.009780884">
  <ele>54.218079</ele>
  <time>2011-07-29T06:42:36Z</time>
  <speed>6.330000</speed>
</trkpt>
<trkpt lat="32.592700958" lon="35.009708405">
  <ele>54.286438</ele>
  <time>2011-07-29T06:42:37Z</time>
  <speed>6.660000</speed>
</trkpt>
<trkpt lat="32.592693329" lon="35.009628296">
  <ele>53.159485</ele>
  <time>2011-07-29T06:42:38Z</time>
  <speed>6.790000</speed>
</trkpt>
<trkpt lat="32.592700958" lon="35.009555817">
  <ele>53.457336</ele>
  <time>2011-07-29T06:42:39Z</time>
  <speed>6.620000</speed>
</trkpt>
<trkpt lat="32.592700958" lon="35.009475708">
  <ele>52.777649</ele>
  <time>2011-07-29T06:42:40Z</time>
  <speed>6.750000</speed>
</trkpt>
<trkpt lat="32.592704773" lon="35.009395599">
  <ele>51.638977</ele>
  <time>2011-07-29T06:42:41Z</time>
  <speed>6.870000</speed>
</trkpt>
<trkpt lat="32.592712402" lon="35.009307861">
  <ele>52.776672</ele>
  <time>2011-07-29T06:42:42Z</time>
  <speed>6.660000</speed>
</trkpt>
<trkpt lat="32.592727661" lon="35.009235382">
  <ele>52.726868</ele>
  <time>2011-07-29T06:42:43Z</time>
  <speed>6.680000</speed>
</trkpt>
<trkpt lat="32.592739105" lon="35.009162903">
  <ele>52.771790</ele>
  <time>2011-07-29T06:42:44Z</time>
  <speed>6.700000</speed>
</trkpt>
<trkpt lat="32.592739105" lon="35.009090424">
  <ele>52.647766</ele>
  <time>2011-07-29T06:42:45Z</time>
  <speed>6.490000</speed>
</trkpt>
<trkpt lat="32.592735291" lon="35.009021759">
  <ele>52.477844</ele>
  <time>2011-07-29T06:42:46Z</time>
  <speed>6.380000</speed>
</trkpt>
<trkpt lat="32.592731476" lon="35.008949280">
  <ele>52.437805</ele>
  <time>2011-07-29T06:42:47Z</time>
  <speed>6.450000</speed>
</trkpt>
<trkpt lat="32.592727661" lon="35.008872986">
  <ele>52.361633</ele>
  <time>2011-07-29T06:42:48Z</time>
  <speed>6.460000</speed>
</trkpt>
<trkpt lat="32.592720032" lon="35.008804321">
  <ele>52.478821</ele>
  <time>2011-07-29T06:42:49Z</time>
  <speed>6.240000</speed>
</trkpt>
<trkpt lat="32.592708588" lon="35.008735657">
  <ele>52.453430</ele>
  <time>2011-07-29T06:42:50Z</time>
  <speed>6.240000</speed>
</trkpt>
<trkpt lat="32.592704773" lon="35.008670807">
  <ele>52.386047</ele>
  <time>2011-07-29T06:42:51Z</time>
  <speed>6.050000</speed>
</trkpt>
<trkpt lat="32.592693329" lon="35.008605957">
  <ele>52.493469</ele>
  <time>2011-07-29T06:42:52Z</time>
  <speed>6.120000</speed>
</trkpt>
<trkpt lat="32.592681885" lon="35.008541107">
  <ele>52.546204</ele>
  <time>2011-07-29T06:42:53Z</time>
  <speed>5.900000</speed>
</trkpt>
<trkpt lat="32.592662811" lon="35.008480072">
  <ele>52.687805</ele>
  <time>2011-07-29T06:42:54Z</time>
  <speed>5.790000</speed>
</trkpt>
<trkpt lat="32.592658997" lon="35.008419037">
  <ele>52.239563</ele>
  <time>2011-07-29T06:42:55Z</time>
  <speed>5.670000</speed>
</trkpt>
<trkpt lat="32.592639923" lon="35.008377075">
  <ele>52.086243</ele>
  <time>2011-07-29T06:42:56Z</time>
  <speed>5.310000</speed>
</trkpt>
<trkpt lat="32.592613220" lon="35.008312225">
  <ele>51.977844</ele>
  <time>2011-07-29T06:42:57Z</time>
  <speed>5.710000</speed>
</trkpt>
<trkpt lat="32.592586517" lon="35.008258820">
  <ele>52.372375</ele>
  <time>2011-07-29T06:42:58Z</time>
  <speed>5.060000</speed>
</trkpt>
<trkpt lat="32.592567444" lon="35.008209229">
  <ele>52.527649</ele>
  <time>2011-07-29T06:42:59Z</time>
  <speed>4.470000</speed>
</trkpt>
<trkpt lat="32.592567444" lon="35.008174896">
  <ele>53.095032</ele>
  <time>2011-07-29T06:43:00Z</time>
  <speed>4.090000</speed>
</trkpt>
<trkpt lat="32.592548370" lon="35.008117676">
  <ele>53.236633</ele>
  <time>2011-07-29T06:43:02Z</time>
  <speed>4.150000</speed>
</trkpt>
<trkpt lat="32.592529297" lon="35.008087158">
  <ele>53.555969</ele>
  <time>2011-07-29T06:43:03Z</time>
  <speed>4.190000</speed>
</trkpt>
<trkpt lat="32.592502594" lon="35.008045197">
  <ele>53.533508</ele>
  <time>2011-07-29T06:43:04Z</time>
  <speed>4.420000</speed>
</trkpt>
<trkpt lat="32.592483521" lon="35.008007050">
  <ele>54.121399</ele>
  <time>2011-07-29T06:43:05Z</time>
  <speed>4.260000</speed>
</trkpt>
<trkpt lat="32.592460632" lon="35.007972717">
  <ele>54.313782</ele>
  <time>2011-07-29T06:43:06Z</time>
  <speed>4.140000</speed>
</trkpt>
<trkpt lat="32.592437744" lon="35.007946014">
  <ele>54.610657</ele>
  <time>2011-07-29T06:43:07Z</time>
  <speed>4.090000</speed>
</trkpt>
<trkpt lat="32.592411041" lon="35.007926941">
  <ele>55.332336</ele>
  <time>2011-07-29T06:43:08Z</time>
  <speed>3.990000</speed>
</trkpt>
<trkpt lat="32.592380524" lon="35.007900238">
  <ele>55.645813</ele>
  <time>2011-07-29T06:43:09Z</time>
  <speed>3.960000</speed>
</trkpt>
<trkpt lat="32.592353821" lon="35.007881165">
  <ele>56.096008</ele>
  <time>2011-07-29T06:43:10Z</time>
  <speed>3.740000</speed>
</trkpt>
<trkpt lat="32.592323303" lon="35.007854462">
  <ele>56.776672</ele>
  <time>2011-07-29T06:43:11Z</time>
  <speed>3.780000</speed>
</trkpt>
<trkpt lat="32.592304230" lon="35.007831573">
  <ele>57.116516</ele>
  <time>2011-07-29T06:43:12Z</time>
  <speed>3.610000</speed>
</trkpt>
<trkpt lat="32.592288971" lon="35.007801056">
  <ele>57.186829</ele>
  <time>2011-07-29T06:43:13Z</time>
  <speed>3.350000</speed>
</trkpt>
<trkpt lat="32.592269897" lon="35.007774353">
  <ele>58.176086</ele>
  <time>2011-07-29T06:43:14Z</time>
  <speed>3.360000</speed>
</trkpt>
<trkpt lat="32.592247009" lon="35.007747650">
  <ele>58.564758</ele>
  <time>2011-07-29T06:43:15Z</time>
  <speed>3.470000</speed>
</trkpt>
<trkpt lat="32.592227936" lon="35.007717133">
  <ele>58.739563</ele>
  <time>2011-07-29T06:43:16Z</time>
  <speed>3.300000</speed>
</trkpt>
<trkpt lat="32.592193604" lon="35.007671356">
  <ele>60.425110</ele>
  <time>2011-07-29T06:43:18Z</time>
  <speed>2.500000</speed>
</trkpt>
<trkpt lat="32.592174530" lon="35.007625580">
  <ele>60.815735</ele>
  <time>2011-07-29T06:43:20Z</time>
  <speed>1.950000</speed>
</trkpt>
<trkpt lat="32.592151642" lon="35.007595062">
  <ele>60.796204</ele>
  <time>2011-07-29T06:43:22Z</time>
  <speed>2.340000</speed>
</trkpt>
<trkpt lat="32.592128754" lon="35.007568359">
  <ele>61.579407</ele>
  <time>2011-07-29T06:43:24Z</time>
  <speed>1.910000</speed>
</trkpt>
<trkpt lat="32.592094421" lon="35.007541656">
  <ele>61.840149</ele>
  <time>2011-07-29T06:43:26Z</time>
  <speed>2.440000</speed>
</trkpt>
<trkpt lat="32.592063904" lon="35.007522583">
  <ele>61.971008</ele>
  <time>2011-07-29T06:43:28Z</time>
  <speed>1.950000</speed>
</trkpt>
<trkpt lat="32.592029572" lon="35.007499695">
  <ele>62.515930</ele>
  <time>2011-07-29T06:43:30Z</time>
  <speed>1.890000</speed>
</trkpt>
<trkpt lat="32.591995239" lon="35.007476807">
  <ele>62.875305</ele>
  <time>2011-07-29T06:43:32Z</time>
  <speed>1.840000</speed>
</trkpt>
<trkpt lat="32.591949463" lon="35.007457733">
  <ele>62.903625</ele>
  <time>2011-07-29T06:43:34Z</time>
  <speed>2.380000</speed>
</trkpt>
<trkpt lat="32.591911316" lon="35.007434845">
  <ele>63.041321</ele>
  <time>2011-07-29T06:43:36Z</time>
  <speed>2.190000</speed>
</trkpt>
<trkpt lat="32.591876984" lon="35.007419586">
  <ele>64.080688</ele>
  <time>2011-07-29T06:43:38Z</time>
  <speed>1.860000</speed>
</trkpt>
<trkpt lat="32.591838837" lon="35.007404327">
  <ele>64.670532</ele>
  <time>2011-07-29T06:43:40Z</time>
  <speed>2.260000</speed>
</trkpt>
<trkpt lat="32.591793060" lon="35.007385254">
  <ele>65.479126</ele>
  <time>2011-07-29T06:43:42Z</time>
  <speed>2.300000</speed>
</trkpt>
<trkpt lat="32.591766357" lon="35.007381439">
  <ele>66.383423</ele>
  <time>2011-07-29T06:43:43Z</time>
  <speed>2.310000</speed>
</trkpt>
<trkpt lat="32.591724396" lon="35.007373810">
  <ele>66.625610</ele>
  <time>2011-07-29T06:43:45Z</time>
  <speed>2.620000</speed>
</trkpt>
<trkpt lat="32.591690063" lon="35.007362366">
  <ele>66.824829</ele>
  <time>2011-07-29T06:43:47Z</time>
  <speed>2.310000</speed>
</trkpt>
<trkpt lat="32.591651917" lon="35.007339478">
  <ele>66.781860</ele>
  <time>2011-07-29T06:43:49Z</time>
  <speed>2.170000</speed>
</trkpt>
<trkpt lat="32.591613770" lon="35.007324219">
  <ele>66.916626</ele>
  <time>2011-07-29T06:43:51Z</time>
  <speed>2.040000</speed>
</trkpt>
<trkpt lat="32.591579437" lon="35.007324219">
  <ele>67.582642</ele>
  <time>2011-07-29T06:43:53Z</time>
  <speed>2.130000</speed>
</trkpt>
<trkpt lat="32.591545105" lon="35.007320404">
  <ele>67.809204</ele>
  <time>2011-07-29T06:43:55Z</time>
  <speed>1.540000</speed>
</trkpt>
<trkpt lat="32.591503143" lon="35.007324219">
  <ele>67.600220</ele>
  <time>2011-07-29T06:43:57Z</time>
  <speed>1.450000</speed>
</trkpt>
<trkpt lat="32.591464996" lon="35.007328033">
  <ele>67.793579</ele>
  <time>2011-07-29T06:43:59Z</time>
  <speed>1.510000</speed>
</trkpt>
<trkpt lat="32.591442108" lon="35.007358551">
  <ele>67.416626</ele>
  <time>2011-07-29T06:44:00Z</time>
  <speed>1.520000</speed>
</trkpt>
<trkpt lat="32.591407776" lon="35.007339478">
  <ele>66.979126</ele>
  <time>2011-07-29T06:44:02Z</time>
  <speed>2.230000</speed>
</trkpt>
<trkpt lat="32.591373444" lon="35.007331848">
  <ele>66.043579</ele>
  <time>2011-07-29T06:44:04Z</time>
  <speed>1.790000</speed>
</trkpt>
<trkpt lat="32.591331482" lon="35.007343292">
  <ele>65.440063</ele>
  <time>2011-07-29T06:44:06Z</time>
  <speed>1.660000</speed>
</trkpt>
<trkpt lat="32.591289520" lon="35.007335663">
  <ele>64.795532</ele>
  <time>2011-07-29T06:44:08Z</time>
  <speed>2.120000</speed>
</trkpt>
<trkpt lat="32.591239929" lon="35.007320404">
  <ele>64.834595</ele>
  <time>2011-07-29T06:44:10Z</time>
  <speed>2.000000</speed>
</trkpt>
<trkpt lat="32.591201782" lon="35.007316589">
  <ele>64.867798</ele>
  <time>2011-07-29T06:44:12Z</time>
  <speed>1.960000</speed>
</trkpt>
<trkpt lat="32.591163635" lon="35.007316589">
  <ele>64.895142</ele>
  <time>2011-07-29T06:44:14Z</time>
  <speed>2.060000</speed>
</trkpt>
<trkpt lat="32.591102600" lon="35.007301331">
  <ele>63.364563</ele>
  <time>2011-07-29T06:44:16Z</time>
  <speed>2.940000</speed>
</trkpt>
<trkpt lat="32.591068268" lon="35.007289886">
  <ele>62.311829</ele>
  <time>2011-07-29T06:44:17Z</time>
  <speed>2.900000</speed>
</trkpt>
<trkpt lat="32.591045380" lon="35.007266998">
  <ele>62.224915</ele>
  <time>2011-07-29T06:44:18Z</time>
  <speed>2.530000</speed>
</trkpt>
<trkpt lat="32.591011047" lon="35.007232666">
  <ele>61.463196</ele>
  <time>2011-07-29T06:44:20Z</time>
  <speed>2.360000</speed>
</trkpt>
<trkpt lat="32.590980530" lon="35.007202148">
  <ele>60.754211</ele>
  <time>2011-07-29T06:44:22Z</time>
  <speed>1.950000</speed>
</trkpt>
<trkpt lat="32.590961456" lon="35.007175446">
  <ele>60.263000</ele>
  <time>2011-07-29T06:44:23Z</time>
  <speed>2.270000</speed>
</trkpt>
<trkpt lat="32.590938568" lon="35.007129669">
  <ele>59.973938</ele>
  <time>2011-07-29T06:44:25Z</time>
  <speed>2.290000</speed>
</trkpt>
<trkpt lat="32.590930939" lon="35.007099152">
  <ele>59.885071</ele>
  <time>2011-07-29T06:44:26Z</time>
  <speed>2.270000</speed>
</trkpt>
<trkpt lat="32.590919495" lon="35.007068634">
  <ele>59.707336</ele>
  <time>2011-07-29T06:44:27Z</time>
  <speed>2.480000</speed>
</trkpt>
<trkpt lat="32.590900421" lon="35.007019043">
  <ele>58.332336</ele>
  <time>2011-07-29T06:44:29Z</time>
  <speed>3.140000</speed>
</trkpt>
<trkpt lat="32.590896606" lon="35.006954193">
  <ele>58.198547</ele>
  <time>2011-07-29T06:44:31Z</time>
  <speed>2.910000</speed>
</trkpt>
<trkpt lat="32.590904236" lon="35.006900787">
  <ele>58.439758</ele>
  <time>2011-07-29T06:44:33Z</time>
  <speed>2.720000</speed>
</trkpt>
<trkpt lat="32.590942383" lon="35.006851196">
  <ele>57.918274</ele>
  <time>2011-07-29T06:44:35Z</time>
  <speed>3.530000</speed>
</trkpt>
<trkpt lat="32.590969086" lon="35.006824493">
  <ele>57.536438</ele>
  <time>2011-07-29T06:44:36Z</time>
  <speed>3.620000</speed>
</trkpt>
<trkpt lat="32.590999603" lon="35.006809235">
  <ele>57.589172</ele>
  <time>2011-07-29T06:44:37Z</time>
  <speed>3.900000</speed>
</trkpt>
<trkpt lat="32.591033936" lon="35.006786346">
  <ele>57.737610</ele>
  <time>2011-07-29T06:44:38Z</time>
  <speed>4.110000</speed>
</trkpt>
<trkpt lat="32.591072083" lon="35.006767273">
  <ele>57.852844</ele>
  <time>2011-07-29T06:44:39Z</time>
  <speed>4.370000</speed>
</trkpt>
<trkpt lat="32.591106415" lon="35.006740570">
  <ele>58.009094</ele>
  <time>2011-07-29T06:44:40Z</time>
  <speed>4.550000</speed>
</trkpt>
<trkpt lat="32.591140747" lon="35.006713867">
  <ele>57.947571</ele>
  <time>2011-07-29T06:44:41Z</time>
  <speed>4.650000</speed>
</trkpt>
<trkpt lat="32.591178894" lon="35.006683350">
  <ele>58.067688</ele>
  <time>2011-07-29T06:44:42Z</time>
  <speed>4.990000</speed>
</trkpt>
<trkpt lat="32.591213226" lon="35.006649017">
  <ele>57.843079</ele>
  <time>2011-07-29T06:44:43Z</time>
  <speed>5.400000</speed>
</trkpt>
<trkpt lat="32.591259003" lon="35.006607056">
  <ele>58.302063</ele>
  <time>2011-07-29T06:44:44Z</time>
  <speed>5.640000</speed>
</trkpt>
<trkpt lat="32.591300964" lon="35.006568909">
  <ele>58.658508</ele>
  <time>2011-07-29T06:44:45Z</time>
  <speed>5.750000</speed>
</trkpt>
<trkpt lat="32.591342926" lon="35.006526947">
  <ele>58.529602</ele>
  <time>2011-07-29T06:44:46Z</time>
  <speed>5.880000</speed>
</trkpt>
<trkpt lat="32.591384888" lon="35.006488800">
  <ele>58.467102</ele>
  <time>2011-07-29T06:44:47Z</time>
  <speed>6.050000</speed>
</trkpt>
<trkpt lat="32.591426849" lon="35.006446838">
  <ele>58.740540</ele>
  <time>2011-07-29T06:44:48Z</time>
  <speed>6.240000</speed>
</trkpt>
<trkpt lat="32.591472626" lon="35.006401062">
  <ele>58.523743</ele>
  <time>2011-07-29T06:44:49Z</time>
  <speed>6.360000</speed>
</trkpt>
<trkpt lat="32.591518402" lon="35.006366730">
  <ele>58.269836</ele>
  <time>2011-07-29T06:44:50Z</time>
  <speed>6.230000</speed>
</trkpt>
<trkpt lat="32.591567993" lon="35.006328583">
  <ele>58.300110</ele>
  <time>2011-07-29T06:44:51Z</time>
  <speed>6.250000</speed>
</trkpt>
<trkpt lat="32.591617584" lon="35.006294250">
  <ele>58.143860</ele>
  <time>2011-07-29T06:44:52Z</time>
  <speed>6.330000</speed>
</trkpt>
<trkpt lat="32.591663361" lon="35.006259918">
  <ele>58.131165</ele>
  <time>2011-07-29T06:44:53Z</time>
  <speed>6.290000</speed>
</trkpt>
<trkpt lat="32.591705322" lon="35.006214142">
  <ele>58.600891</ele>
  <time>2011-07-29T06:44:54Z</time>
  <speed>6.120000</speed>
</trkpt>
<trkpt lat="32.591743469" lon="35.006164551">
  <ele>58.819641</ele>
  <time>2011-07-29T06:44:55Z</time>
  <speed>6.030000</speed>
</trkpt>
<trkpt lat="32.591781616" lon="35.006114960">
  <ele>59.296204</ele>
  <time>2011-07-29T06:44:56Z</time>
  <speed>5.940000</speed>
</trkpt>
<trkpt lat="32.591796875" lon="35.006050110">
  <ele>59.248352</ele>
  <time>2011-07-29T06:44:57Z</time>
  <speed>5.640000</speed>
</trkpt>
<trkpt lat="32.591808319" lon="35.005985260">
  <ele>59.886047</ele>
  <time>2011-07-29T06:44:58Z</time>
  <speed>5.470000</speed>
</trkpt>
<trkpt lat="32.591800690" lon="35.005916595">
  <ele>59.889954</ele>
  <time>2011-07-29T06:44:59Z</time>
  <speed>6.530000</speed>
</trkpt>
<trkpt lat="32.591785431" lon="35.005847931">
  <ele>59.418274</ele>
  <time>2011-07-29T06:45:00Z</time>
  <speed>6.830000</speed>
</trkpt>
<trkpt lat="32.591770172" lon="35.005783081">
  <ele>59.138977</ele>
  <time>2011-07-29T06:45:01Z</time>
  <speed>6.480000</speed>
</trkpt>
<trkpt lat="32.591758728" lon="35.005718231">
  <ele>59.767883</ele>
  <time>2011-07-29T06:45:02Z</time>
  <speed>5.740000</speed>
</trkpt>
<trkpt lat="32.591766357" lon="35.005657196">
  <ele>59.427063</ele>
  <time>2011-07-29T06:45:03Z</time>
  <speed>6.170000</speed>
</trkpt>
<trkpt lat="32.591789246" lon="35.005599976">
  <ele>59.302063</ele>
  <time>2011-07-29T06:45:04Z</time>
  <speed>6.060000</speed>
</trkpt>
<trkpt lat="32.591835022" lon="35.005565643">
  <ele>60.117493</ele>
  <time>2011-07-29T06:45:05Z</time>
  <speed>5.940000</speed>
</trkpt>
<trkpt lat="32.591880798" lon="35.005550385">
  <ele>60.173157</ele>
  <time>2011-07-29T06:45:06Z</time>
  <speed>4.740000</speed>
</trkpt>
<trkpt lat="32.591922760" lon="35.005546570">
  <ele>60.316711</ele>
  <time>2011-07-29T06:45:07Z</time>
  <speed>4.170000</speed>
</trkpt>
<trkpt lat="32.591960907" lon="35.005550385">
  <ele>60.331360</ele>
  <time>2011-07-29T06:45:08Z</time>
  <speed>3.560000</speed>
</trkpt>
<trkpt lat="32.591991425" lon="35.005554199">
  <ele>59.735657</ele>
  <time>2011-07-29T06:45:09Z</time>
  <speed>2.840000</speed>
</trkpt>
<trkpt lat="32.592018127" lon="35.005554199">
  <ele>60.113586</ele>
  <time>2011-07-29T06:45:10Z</time>
  <speed>2.760000</speed>
</trkpt>
<trkpt lat="32.592048645" lon="35.005561829">
  <ele>59.898743</ele>
  <time>2011-07-29T06:45:11Z</time>
  <speed>2.700000</speed>
</trkpt>
<trkpt lat="32.592098236" lon="35.005554199">
  <ele>58.732727</ele>
  <time>2011-07-29T06:45:13Z</time>
  <speed>2.080000</speed>
</trkpt>
<trkpt lat="32.592147827" lon="35.005554199">
  <ele>56.773743</ele>
  <time>2011-07-29T06:45:15Z</time>
  <speed>2.520000</speed>
</trkpt>
<trkpt lat="32.592193604" lon="35.005542755">
  <ele>55.623352</ele>
  <time>2011-07-29T06:45:17Z</time>
  <speed>2.060000</speed>
</trkpt>
<trkpt lat="32.592220306" lon="35.005538940">
  <ele>55.492493</ele>
  <time>2011-07-29T06:45:18Z</time>
  <speed>2.220000</speed>
</trkpt>
<trkpt lat="32.592269897" lon="35.005535126">
  <ele>54.501282</ele>
  <time>2011-07-29T06:45:20Z</time>
  <speed>2.440000</speed>
</trkpt>
<trkpt lat="32.592315674" lon="35.005519867">
  <ele>53.811829</ele>
  <time>2011-07-29T06:45:22Z</time>
  <speed>2.080000</speed>
</trkpt>
<trkpt lat="32.592357635" lon="35.005504608">
  <ele>54.779602</ele>
  <time>2011-07-29T06:45:24Z</time>
  <speed>2.300000</speed>
</trkpt>
<trkpt lat="32.592411041" lon="35.005489349">
  <ele>54.998352</ele>
  <time>2011-07-29T06:45:26Z</time>
  <speed>2.030000</speed>
</trkpt>
<trkpt lat="32.592441559" lon="35.005493164">
  <ele>55.961243</ele>
  <time>2011-07-29T06:45:27Z</time>
  <speed>2.190000</speed>
</trkpt>
<trkpt lat="32.592453003" lon="35.005466461">
  <ele>54.264954</ele>
  <time>2011-07-29T06:45:28Z</time>
  <speed>2.400000</speed>
</trkpt>
<trkpt lat="32.592487335" lon="35.005439758">
  <ele>53.142883</ele>
  <time>2011-07-29T06:45:29Z</time>
  <speed>3.650000</speed>
</trkpt>
<trkpt lat="32.592514038" lon="35.005416870">
  <ele>52.459290</ele>
  <time>2011-07-29T06:45:30Z</time>
  <speed>4.720000</speed>
</trkpt>
<trkpt lat="32.592575073" lon="35.005390167">
  <ele>51.612610</ele>
  <time>2011-07-29T06:45:31Z</time>
  <speed>4.960000</speed>
</trkpt>
<trkpt lat="32.592620850" lon="35.005374908">
  <ele>51.462219</ele>
  <time>2011-07-29T06:45:32Z</time>
  <speed>4.340000</speed>
</trkpt>
<trkpt lat="32.592662811" lon="35.005352020">
  <ele>51.521790</ele>
  <time>2011-07-29T06:45:33Z</time>
  <speed>3.770000</speed>
</trkpt>
<trkpt lat="32.592697144" lon="35.005332947">
  <ele>52.319641</ele>
  <time>2011-07-29T06:45:34Z</time>
  <speed>2.840000</speed>
</trkpt>
<trkpt lat="32.592723846" lon="35.005313873">
  <ele>52.198547</ele>
  <time>2011-07-29T06:45:35Z</time>
  <speed>2.840000</speed>
</trkpt>
<trkpt lat="32.592758179" lon="35.005287170">
  <ele>53.566711</ele>
  <time>2011-07-29T06:45:37Z</time>
  <speed>1.770000</speed>
</trkpt>
<trkpt lat="32.592784882" lon="35.005264282">
  <ele>53.172180</ele>
  <time>2011-07-29T06:45:39Z</time>
  <speed>2.150000</speed>
</trkpt>
<trkpt lat="32.592819214" lon="35.005245209">
  <ele>53.891907</ele>
  <time>2011-07-29T06:45:41Z</time>
  <speed>2.450000</speed>
</trkpt>
<trkpt lat="32.592861176" lon="35.005222321">
  <ele>53.088196</ele>
  <time>2011-07-29T06:45:43Z</time>
  <speed>2.870000</speed>
</trkpt>
<trkpt lat="32.592910767" lon="35.005199432">
  <ele>52.597961</ele>
  <time>2011-07-29T06:45:45Z</time>
  <speed>2.810000</speed>
</trkpt>
<trkpt lat="32.592937469" lon="35.005191803">
  <ele>51.588196</ele>
  <time>2011-07-29T06:45:46Z</time>
  <speed>2.830000</speed>
</trkpt>
<trkpt lat="32.592990875" lon="35.005168915">
  <ele>51.510071</ele>
  <time>2011-07-29T06:45:48Z</time>
  <speed>3.090000</speed>
</trkpt>
<trkpt lat="32.593017578" lon="35.005157471">
  <ele>51.116516</ele>
  <time>2011-07-29T06:45:49Z</time>
  <speed>3.120000</speed>
</trkpt>
<trkpt lat="32.593048096" lon="35.005146027">
  <ele>51.301086</ele>
  <time>2011-07-29T06:45:50Z</time>
  <speed>3.040000</speed>
</trkpt>
<trkpt lat="32.593082428" lon="35.005138397">
  <ele>52.260071</ele>
  <time>2011-07-29T06:45:51Z</time>
  <speed>3.030000</speed>
</trkpt>
<trkpt lat="32.593112946" lon="35.005130768">
  <ele>52.324524</ele>
  <time>2011-07-29T06:45:52Z</time>
  <speed>3.000000</speed>
</trkpt>
<trkpt lat="32.593139648" lon="35.005119324">
  <ele>52.826477</ele>
  <time>2011-07-29T06:45:53Z</time>
  <speed>3.020000</speed>
</trkpt>
<trkpt lat="32.593173981" lon="35.005107880">
  <ele>53.503235</ele>
  <time>2011-07-29T06:45:54Z</time>
  <speed>3.200000</speed>
</trkpt>
<trkpt lat="32.593196869" lon="35.005104065">
  <ele>52.464172</ele>
  <time>2011-07-29T06:45:55Z</time>
  <speed>2.970000</speed>
</trkpt>
<trkpt lat="32.593223572" lon="35.005084991">
  <ele>52.372375</ele>
  <time>2011-07-29T06:45:56Z</time>
  <speed>3.070000</speed>
</trkpt>
<trkpt lat="32.593254089" lon="35.005069733">
  <ele>53.399719</ele>
  <time>2011-07-29T06:45:57Z</time>
  <speed>2.970000</speed>
</trkpt>
<trkpt lat="32.593280792" lon="35.005054474">
  <ele>54.498352</ele>
  <time>2011-07-29T06:45:58Z</time>
  <speed>3.310000</speed>
</trkpt>
<trkpt lat="32.593311310" lon="35.005039215">
  <ele>54.698547</ele>
  <time>2011-07-29T06:45:59Z</time>
  <speed>2.960000</speed>
</trkpt>
<trkpt lat="32.593334198" lon="35.005027771">
  <ele>55.015930</ele>
  <time>2011-07-29T06:46:00Z</time>
  <speed>3.210000</speed>
</trkpt>
<trkpt lat="32.593360901" lon="35.005016327">
  <ele>55.416321</ele>
  <time>2011-07-29T06:46:01Z</time>
  <speed>3.120000</speed>
</trkpt>
<trkpt lat="32.593387604" lon="35.005004883">
  <ele>55.621399</ele>
  <time>2011-07-29T06:46:02Z</time>
  <speed>3.000000</speed>
</trkpt>
<trkpt lat="32.593418121" lon="35.004985809">
  <ele>55.852844</ele>
  <time>2011-07-29T06:46:03Z</time>
  <speed>3.130000</speed>
</trkpt>
<trkpt lat="32.593441010" lon="35.004970551">
  <ele>56.149719</ele>
  <time>2011-07-29T06:46:04Z</time>
  <speed>3.090000</speed>
</trkpt>
<trkpt lat="32.593475342" lon="35.004951477">
  <ele>57.023743</ele>
  <time>2011-07-29T06:46:05Z</time>
  <speed>3.290000</speed>
</trkpt>
<trkpt lat="32.593502045" lon="35.004936218">
  <ele>57.431946</ele>
  <time>2011-07-29T06:46:06Z</time>
  <speed>2.960000</speed>
</trkpt>
<trkpt lat="32.593544006" lon="35.004905701">
  <ele>57.282532</ele>
  <time>2011-07-29T06:46:08Z</time>
  <speed>2.730000</speed>
</trkpt>
<trkpt lat="32.593570709" lon="35.004898071">
  <ele>57.162415</ele>
  <time>2011-07-29T06:46:09Z</time>
  <speed>2.730000</speed>
</trkpt>
<trkpt lat="32.593601227" lon="35.004886627">
  <ele>58.036438</ele>
  <time>2011-07-29T06:46:10Z</time>
  <speed>2.680000</speed>
</trkpt>
<trkpt lat="32.593643188" lon="35.004863739">
  <ele>57.261047</ele>
  <time>2011-07-29T06:46:12Z</time>
  <speed>2.400000</speed>
</trkpt>
<trkpt lat="32.593685150" lon="35.004840851">
  <ele>58.793274</ele>
  <time>2011-07-29T06:46:14Z</time>
  <speed>2.680000</speed>
</trkpt>
<trkpt lat="32.593734741" lon="35.004840851">
  <ele>58.971985</ele>
  <time>2011-07-29T06:46:16Z</time>
  <speed>2.730000</speed>
</trkpt>
<trkpt lat="32.593765259" lon="35.004848480">
  <ele>58.570618</ele>
  <time>2011-07-29T06:46:18Z</time>
  <speed>1.870000</speed>
</trkpt>
<trkpt lat="32.593803406" lon="35.004867554">
  <ele>58.160461</ele>
  <time>2011-07-29T06:46:20Z</time>
  <speed>2.030000</speed>
</trkpt>
<trkpt lat="32.593814850" lon="35.004917145">
  <ele>58.571594</ele>
  <time>2011-07-29T06:46:22Z</time>
  <speed>2.250000</speed>
</trkpt>
<trkpt lat="32.593822479" lon="35.004962921">
  <ele>58.457336</ele>
  <time>2011-07-29T06:46:24Z</time>
  <speed>2.430000</speed>
</trkpt>
<trkpt lat="32.593841553" lon="35.005016327">
  <ele>58.514954</ele>
  <time>2011-07-29T06:46:26Z</time>
  <speed>2.560000</speed>
</trkpt>
<trkpt lat="32.593864441" lon="35.005069733">
  <ele>57.824524</ele>
  <time>2011-07-29T06:46:28Z</time>
  <speed>2.750000</speed>
</trkpt>
<trkpt lat="32.593887329" lon="35.005119324">
  <ele>57.893860</ele>
  <time>2011-07-29T06:46:30Z</time>
  <speed>2.700000</speed>
</trkpt>
<trkpt lat="32.593917847" lon="35.005172729">
  <ele>57.281555</ele>
  <time>2011-07-29T06:46:32Z</time>
  <speed>2.680000</speed>
</trkpt>
<trkpt lat="32.593929291" lon="35.005203247">
  <ele>57.678040</ele>
  <time>2011-07-29T06:46:33Z</time>
  <speed>2.820000</speed>
</trkpt>
<trkpt lat="32.593948364" lon="35.005226135">
  <ele>58.284485</ele>
  <time>2011-07-29T06:46:34Z</time>
  <speed>2.750000</speed>
</trkpt>
<trkpt lat="32.593978882" lon="35.005271912">
  <ele>58.344055</ele>
  <time>2011-07-29T06:46:36Z</time>
  <speed>2.910000</speed>
</trkpt>
<trkpt lat="32.594017029" lon="35.005313873">
  <ele>58.378235</ele>
  <time>2011-07-29T06:46:38Z</time>
  <speed>2.710000</speed>
</trkpt>
<trkpt lat="32.594051361" lon="35.005340576">
  <ele>58.070618</ele>
  <time>2011-07-29T06:46:40Z</time>
  <speed>2.570000</speed>
</trkpt>
<trkpt lat="32.594097137" lon="35.005374908">
  <ele>58.438782</ele>
  <time>2011-07-29T06:46:42Z</time>
  <speed>2.820000</speed>
</trkpt>
<trkpt lat="32.594139099" lon="35.005405426">
  <ele>58.620422</ele>
  <time>2011-07-29T06:46:44Z</time>
  <speed>2.600000</speed>
</trkpt>
<trkpt lat="32.594184875" lon="35.005428314">
  <ele>58.297180</ele>
  <time>2011-07-29T06:46:46Z</time>
  <speed>2.690000</speed>
</trkpt>
<trkpt lat="32.594207764" lon="35.005439758">
  <ele>58.608704</ele>
  <time>2011-07-29T06:46:47Z</time>
  <speed>2.780000</speed>
</trkpt>
<trkpt lat="32.594245911" lon="35.005462646">
  <ele>58.499329</ele>
  <time>2011-07-29T06:46:49Z</time>
  <speed>2.480000</speed>
</trkpt>
<trkpt lat="32.594299316" lon="35.005500793">
  <ele>59.548157</ele>
  <time>2011-07-29T06:46:51Z</time>
  <speed>2.810000</speed>
</trkpt>
<trkpt lat="32.594329834" lon="35.005527496">
  <ele>58.440735</ele>
  <time>2011-07-29T06:46:53Z</time>
  <speed>2.390000</speed>
</trkpt>
<trkpt lat="32.594371796" lon="35.005554199">
  <ele>58.092102</ele>
  <time>2011-07-29T06:46:55Z</time>
  <speed>2.450000</speed>
</trkpt>
<trkpt lat="32.594409943" lon="35.005577087">
  <ele>58.064758</ele>
  <time>2011-07-29T06:46:57Z</time>
  <speed>2.210000</speed>
</trkpt>
<trkpt lat="32.594448090" lon="35.005599976">
  <ele>58.810852</ele>
  <time>2011-07-29T06:46:59Z</time>
  <speed>2.290000</speed>
</trkpt>
<trkpt lat="32.594490051" lon="35.005619049">
  <ele>58.040344</ele>
  <time>2011-07-29T06:47:01Z</time>
  <speed>2.080000</speed>
</trkpt>
<trkpt lat="32.594524384" lon="35.005649567">
  <ele>58.068665</ele>
  <time>2011-07-29T06:47:03Z</time>
  <speed>2.620000</speed>
</trkpt>
<trkpt lat="32.594562531" lon="35.005687714">
  <ele>58.959290</ele>
  <time>2011-07-29T06:47:05Z</time>
  <speed>2.490000</speed>
</trkpt>
<trkpt lat="32.594600677" lon="35.005714417">
  <ele>59.292297</ele>
  <time>2011-07-29T06:47:07Z</time>
  <speed>2.700000</speed>
</trkpt>
<trkpt lat="32.594642639" lon="35.005741119">
  <ele>59.641907</ele>
  <time>2011-07-29T06:47:09Z</time>
  <speed>2.680000</speed>
</trkpt>
<trkpt lat="32.594688416" lon="35.005771637">
  <ele>60.499329</ele>
  <time>2011-07-29T06:47:11Z</time>
  <speed>2.780000</speed>
</trkpt>
<trkpt lat="32.594718933" lon="35.005802155">
  <ele>60.961243</ele>
  <time>2011-07-29T06:47:13Z</time>
  <speed>2.110000</speed>
</trkpt>
<trkpt lat="32.594757080" lon="35.005821228">
  <ele>61.426086</ele>
  <time>2011-07-29T06:47:15Z</time>
  <speed>2.250000</speed>
</trkpt>
<trkpt lat="32.594806671" lon="35.005836487">
  <ele>62.996399</ele>
  <time>2011-07-29T06:47:17Z</time>
  <speed>2.540000</speed>
</trkpt>
<trkpt lat="32.594833374" lon="35.005844116">
  <ele>62.827454</ele>
  <time>2011-07-29T06:47:18Z</time>
  <speed>2.740000</speed>
</trkpt>
<trkpt lat="32.594860077" lon="35.005851746">
  <ele>62.661438</ele>
  <time>2011-07-29T06:47:19Z</time>
  <speed>2.640000</speed>
</trkpt>
<trkpt lat="32.594905853" lon="35.005867004">
  <ele>63.412415</ele>
  <time>2011-07-29T06:47:21Z</time>
  <speed>2.370000</speed>
</trkpt>
<trkpt lat="32.594932556" lon="35.005882263">
  <ele>63.602844</ele>
  <time>2011-07-29T06:47:22Z</time>
  <speed>2.400000</speed>
</trkpt>
<trkpt lat="32.594955444" lon="35.005893707">
  <ele>63.633118</ele>
  <time>2011-07-29T06:47:23Z</time>
  <speed>2.070000</speed>
</trkpt>
<trkpt lat="32.595001221" lon="35.005905151">
  <ele>64.375610</ele>
  <time>2011-07-29T06:47:25Z</time>
  <speed>2.360000</speed>
</trkpt>
<trkpt lat="32.595027924" lon="35.005908966">
  <ele>65.033813</ele>
  <time>2011-07-29T06:47:26Z</time>
  <speed>2.490000</speed>
</trkpt>
<trkpt lat="32.595069885" lon="35.005916595">
  <ele>66.262329</ele>
  <time>2011-07-29T06:47:28Z</time>
  <speed>2.350000</speed>
</trkpt>
<trkpt lat="32.595111847" lon="35.005924225">
  <ele>66.996704</ele>
  <time>2011-07-29T06:47:30Z</time>
  <speed>2.330000</speed>
</trkpt>
<trkpt lat="32.595157623" lon="35.005924225">
  <ele>66.817017</ele>
  <time>2011-07-29T06:47:32Z</time>
  <speed>2.350000</speed>
</trkpt>
<trkpt lat="32.595184326" lon="35.005924225">
  <ele>67.324829</ele>
  <time>2011-07-29T06:47:33Z</time>
  <speed>2.250000</speed>
</trkpt>
<trkpt lat="32.595230103" lon="35.005920410">
  <ele>67.051392</ele>
  <time>2011-07-29T06:47:35Z</time>
  <speed>2.270000</speed>
</trkpt>
<trkpt lat="32.595268250" lon="35.005908966">
  <ele>66.697876</ele>
  <time>2011-07-29T06:47:37Z</time>
  <speed>2.070000</speed>
</trkpt>
<trkpt lat="32.595306396" lon="35.005901337">
  <ele>66.111938</ele>
  <time>2011-07-29T06:47:39Z</time>
  <speed>2.130000</speed>
</trkpt>
<trkpt lat="32.595340729" lon="35.005908966">
  <ele>67.018188</ele>
  <time>2011-07-29T06:47:41Z</time>
  <speed>1.930000</speed>
</trkpt>
<trkpt lat="32.595375061" lon="35.005928040">
  <ele>66.951782</ele>
  <time>2011-07-29T06:47:43Z</time>
  <speed>2.040000</speed>
</trkpt>
<trkpt lat="32.595401764" lon="35.005958557">
  <ele>67.877563</ele>
  <time>2011-07-29T06:47:45Z</time>
  <speed>2.320000</speed>
</trkpt>
<trkpt lat="32.595439911" lon="35.005981445">
  <ele>68.854126</ele>
  <time>2011-07-29T06:47:47Z</time>
  <speed>2.090000</speed>
</trkpt>
<trkpt lat="32.595466614" lon="35.006008148">
  <ele>68.567017</ele>
  <time>2011-07-29T06:47:49Z</time>
  <speed>2.210000</speed>
</trkpt>
<trkpt lat="32.595508575" lon="35.006038666">
  <ele>69.166626</ele>
  <time>2011-07-29T06:47:51Z</time>
  <speed>2.540000</speed>
</trkpt>
<trkpt lat="32.595546722" lon="35.006061554">
  <ele>68.537720</ele>
  <time>2011-07-29T06:47:53Z</time>
  <speed>2.110000</speed>
</trkpt>
<trkpt lat="32.595573425" lon="35.006088257">
  <ele>68.393188</ele>
  <time>2011-07-29T06:47:55Z</time>
  <speed>2.230000</speed>
</trkpt>
<trkpt lat="32.595600128" lon="35.006114960">
  <ele>68.061157</ele>
  <time>2011-07-29T06:47:57Z</time>
  <speed>2.120000</speed>
</trkpt>
<trkpt lat="32.595638275" lon="35.006126404">
  <ele>67.270142</ele>
  <time>2011-07-29T06:47:59Z</time>
  <speed>2.220000</speed>
</trkpt>
<trkpt lat="32.595680237" lon="35.006149292">
  <ele>66.895142</ele>
  <time>2011-07-29T06:48:01Z</time>
  <speed>2.280000</speed>
</trkpt>
<trkpt lat="32.595714569" lon="35.006172180">
  <ele>65.502563</ele>
  <time>2011-07-29T06:48:03Z</time>
  <speed>1.990000</speed>
</trkpt>
<trkpt lat="32.595764160" lon="35.006195068">
  <ele>65.131470</ele>
  <time>2011-07-29T06:48:05Z</time>
  <speed>1.940000</speed>
</trkpt>
<trkpt lat="32.595806122" lon="35.006214142">
  <ele>64.707642</ele>
  <time>2011-07-29T06:48:07Z</time>
  <speed>2.260000</speed>
</trkpt>
<trkpt lat="32.595844269" lon="35.006225586">
  <ele>64.559204</ele>
  <time>2011-07-29T06:48:09Z</time>
  <speed>2.070000</speed>
</trkpt>
<trkpt lat="32.595890045" lon="35.006240845">
  <ele>64.983032</ele>
  <time>2011-07-29T06:48:11Z</time>
  <speed>2.260000</speed>
</trkpt>
<trkpt lat="32.595928192" lon="35.006248474">
  <ele>65.613892</ele>
  <time>2011-07-29T06:48:13Z</time>
  <speed>2.230000</speed>
</trkpt>
<trkpt lat="32.595958710" lon="35.006252289">
  <ele>66.225220</ele>
  <time>2011-07-29T06:48:15Z</time>
  <speed>2.170000</speed>
</trkpt>
<trkpt lat="32.595993042" lon="35.006259918">
  <ele>66.682251</ele>
  <time>2011-07-29T06:48:17Z</time>
  <speed>2.130000</speed>
</trkpt>
<trkpt lat="32.596023560" lon="35.006263733">
  <ele>67.125610</ele>
  <time>2011-07-29T06:48:18Z</time>
  <speed>2.290000</speed>
</trkpt>
<trkpt lat="32.596054077" lon="35.006263733">
  <ele>67.567017</ele>
  <time>2011-07-29T06:48:19Z</time>
  <speed>2.110000</speed>
</trkpt>
<trkpt lat="32.596092224" lon="35.006267548">
  <ele>66.906860</ele>
  <time>2011-07-29T06:48:21Z</time>
  <speed>2.130000</speed>
</trkpt>
<trkpt lat="32.596134186" lon="35.006263733">
  <ele>66.981079</ele>
  <time>2011-07-29T06:48:23Z</time>
  <speed>2.440000</speed>
</trkpt>
<trkpt lat="32.596179962" lon="35.006259918">
  <ele>67.553345</ele>
  <time>2011-07-29T06:48:25Z</time>
  <speed>2.300000</speed>
</trkpt>
<trkpt lat="32.596210480" lon="35.006248474">
  <ele>68.279907</ele>
  <time>2011-07-29T06:48:26Z</time>
  <speed>2.210000</speed>
</trkpt>
<trkpt lat="32.596252441" lon="35.006240845">
  <ele>68.545532</ele>
  <time>2011-07-29T06:48:28Z</time>
  <speed>2.260000</speed>
</trkpt>
<trkpt lat="32.596294403" lon="35.006225586">
  <ele>68.570923</ele>
  <time>2011-07-29T06:48:30Z</time>
  <speed>2.210000</speed>
</trkpt>
<trkpt lat="32.596332550" lon="35.006225586">
  <ele>68.369751</ele>
  <time>2011-07-29T06:48:32Z</time>
  <speed>2.180000</speed>
</trkpt>
<trkpt lat="32.596370697" lon="35.006214142">
  <ele>68.582642</ele>
  <time>2011-07-29T06:48:34Z</time>
  <speed>2.290000</speed>
</trkpt>
<trkpt lat="32.596408844" lon="35.006210327">
  <ele>69.371704</ele>
  <time>2011-07-29T06:48:36Z</time>
  <speed>2.180000</speed>
</trkpt>
<trkpt lat="32.596446991" lon="35.006198883">
  <ele>69.285767</ele>
  <time>2011-07-29T06:48:38Z</time>
  <speed>2.290000</speed>
</trkpt>
<trkpt lat="32.596485138" lon="35.006191254">
  <ele>70.283813</ele>
  <time>2011-07-29T06:48:40Z</time>
  <speed>2.250000</speed>
</trkpt>
<trkpt lat="32.596523285" lon="35.006183624">
  <ele>70.168579</ele>
  <time>2011-07-29T06:48:42Z</time>
  <speed>1.940000</speed>
</trkpt>
<trkpt lat="32.596561432" lon="35.006172180">
  <ele>70.211548</ele>
  <time>2011-07-29T06:48:44Z</time>
  <speed>2.120000</speed>
</trkpt>
<trkpt lat="32.596599579" lon="35.006160736">
  <ele>70.820923</ele>
  <time>2011-07-29T06:48:46Z</time>
  <speed>2.170000</speed>
</trkpt>
<trkpt lat="32.596633911" lon="35.006153107">
  <ele>71.471313</ele>
  <time>2011-07-29T06:48:48Z</time>
  <speed>2.260000</speed>
</trkpt>
<trkpt lat="32.596672058" lon="35.006145477">
  <ele>71.795532</ele>
  <time>2011-07-29T06:48:50Z</time>
  <speed>2.040000</speed>
</trkpt>
<trkpt lat="32.596710205" lon="35.006153107">
  <ele>71.695923</ele>
  <time>2011-07-29T06:48:52Z</time>
  <speed>1.990000</speed>
</trkpt>
<trkpt lat="32.596744537" lon="35.006149292">
  <ele>72.109985</ele>
  <time>2011-07-29T06:48:54Z</time>
  <speed>1.980000</speed>
</trkpt>
<trkpt lat="32.596782684" lon="35.006153107">
  <ele>72.988892</ele>
  <time>2011-07-29T06:48:56Z</time>
  <speed>1.970000</speed>
</trkpt>
<trkpt lat="32.596817017" lon="35.006160736">
  <ele>72.859985</ele>
  <time>2011-07-29T06:48:58Z</time>
  <speed>1.960000</speed>
</trkpt>
<trkpt lat="32.596851349" lon="35.006160736">
  <ele>72.963501</ele>
  <time>2011-07-29T06:49:00Z</time>
  <speed>1.950000</speed>
</trkpt>
<trkpt lat="32.596885681" lon="35.006164551">
  <ele>73.443970</ele>
  <time>2011-07-29T06:49:02Z</time>
  <speed>1.940000</speed>
</trkpt>
<trkpt lat="32.596923828" lon="35.006160736">
  <ele>72.227173</ele>
  <time>2011-07-29T06:49:04Z</time>
  <speed>2.050000</speed>
</trkpt>
<trkpt lat="32.596965790" lon="35.006153107">
  <ele>72.397095</ele>
  <time>2011-07-29T06:49:06Z</time>
  <speed>2.010000</speed>
</trkpt>
<trkpt lat="32.597003937" lon="35.006149292">
  <ele>72.787720</ele>
  <time>2011-07-29T06:49:08Z</time>
  <speed>1.980000</speed>
</trkpt>
<trkpt lat="32.597038269" lon="35.006160736">
  <ele>72.576782</ele>
  <time>2011-07-29T06:49:10Z</time>
  <speed>2.010000</speed>
</trkpt>
<trkpt lat="32.597076416" lon="35.006145477">
  <ele>72.608032</ele>
  <time>2011-07-29T06:49:12Z</time>
  <speed>1.870000</speed>
</trkpt>
<trkpt lat="32.597110748" lon="35.006130219">
  <ele>72.578735</ele>
  <time>2011-07-29T06:49:14Z</time>
  <speed>2.010000</speed>
</trkpt>
<trkpt lat="32.597156525" lon="35.006103516">
  <ele>74.408813</ele>
  <time>2011-07-29T06:49:16Z</time>
  <speed>1.910000</speed>
</trkpt>
<trkpt lat="32.597187042" lon="35.006084442">
  <ele>74.442017</ele>
  <time>2011-07-29T06:49:18Z</time>
  <speed>2.030000</speed>
</trkpt>
<trkpt lat="32.597206116" lon="35.006057739">
  <ele>74.918579</ele>
  <time>2011-07-29T06:49:20Z</time>
  <speed>1.620000</speed>
</trkpt>
<trkpt lat="32.597217560" lon="35.006023407">
  <ele>75.291626</ele>
  <time>2011-07-29T06:49:22Z</time>
  <speed>1.800000</speed>
</trkpt>
<trkpt lat="32.597217560" lon="35.005977631">
  <ele>74.867798</ele>
  <time>2011-07-29T06:49:25Z</time>
  <speed>1.650000</speed>
</trkpt>
<trkpt lat="32.597209930" lon="35.005943298">
  <ele>74.922485</ele>
  <time>2011-07-29T06:49:27Z</time>
  <speed>1.680000</speed>
</trkpt>
<trkpt lat="32.597202301" lon="35.005905151">
  <ele>75.379517</ele>
  <time>2011-07-29T06:49:29Z</time>
  <speed>1.780000</speed>
</trkpt>
<trkpt lat="32.597206116" lon="35.005867004">
  <ele>76.102173</ele>
  <time>2011-07-29T06:49:31Z</time>
  <speed>1.820000</speed>
</trkpt>
<trkpt lat="32.597206116" lon="35.005828857">
  <ele>75.793579</ele>
  <time>2011-07-29T06:49:33Z</time>
  <speed>1.310000</speed>
</trkpt>
<trkpt lat="32.597194672" lon="35.005786896">
  <ele>76.287720</ele>
  <time>2011-07-29T06:49:36Z</time>
  <speed>1.280000</speed>
</trkpt>
<trkpt lat="32.597187042" lon="35.005752563">
  <ele>76.008423</ele>
  <time>2011-07-29T06:49:38Z</time>
  <speed>1.700000</speed>
</trkpt>
<trkpt lat="32.597179413" lon="35.005714417">
  <ele>76.502563</ele>
  <time>2011-07-29T06:49:40Z</time>
  <speed>1.630000</speed>
</trkpt>
<trkpt lat="32.597175598" lon="35.005676270">
  <ele>76.430298</ele>
  <time>2011-07-29T06:49:42Z</time>
  <speed>1.820000</speed>
</trkpt>
<trkpt lat="32.597175598" lon="35.005641937">
  <ele>76.738892</ele>
  <time>2011-07-29T06:49:44Z</time>
  <speed>1.830000</speed>
</trkpt>
<trkpt lat="32.597171783" lon="35.005607605">
  <ele>76.979126</ele>
  <time>2011-07-29T06:49:46Z</time>
  <speed>1.870000</speed>
</trkpt>
<trkpt lat="32.597160339" lon="35.005573273">
  <ele>76.789673</ele>
  <time>2011-07-29T06:49:48Z</time>
  <speed>1.500000</speed>
</trkpt>
<trkpt lat="32.597156525" lon="35.005531311">
  <ele>77.043579</ele>
  <time>2011-07-29T06:49:51Z</time>
  <speed>1.410000</speed>
</trkpt>
<trkpt lat="32.597164154" lon="35.005489349">
  <ele>78.197876</ele>
  <time>2011-07-29T06:49:54Z</time>
  <speed>1.360000</speed>
</trkpt>
<trkpt lat="32.597160339" lon="35.005447388">
  <ele>78.295532</ele>
  <time>2011-07-29T06:49:57Z</time>
  <speed>1.140000</speed>
</trkpt>
<trkpt lat="32.597148895" lon="35.005420685">
  <ele>79.000610</ele>
  <time>2011-07-29T06:49:59Z</time>
  <speed>1.350000</speed>
</trkpt>
<trkpt lat="32.597152710" lon="35.005390167">
  <ele>80.424438</ele>
  <time>2011-07-29T06:50:01Z</time>
  <speed>1.300000</speed>
</trkpt>
<trkpt lat="32.597145081" lon="35.005355835">
  <ele>80.402954</ele>
  <time>2011-07-29T06:50:03Z</time>
  <speed>1.240000</speed>
</trkpt>
<trkpt lat="32.597129822" lon="35.005313873">
  <ele>81.774048</ele>
  <time>2011-07-29T06:50:06Z</time>
  <speed>1.240000</speed>
</trkpt>
<trkpt lat="32.597133636" lon="35.005283356">
  <ele>82.461548</ele>
  <time>2011-07-29T06:50:08Z</time>
  <speed>1.480000</speed>
</trkpt>
<trkpt lat="32.597129822" lon="35.005249023">
  <ele>83.451782</ele>
  <time>2011-07-29T06:50:11Z</time>
  <speed>1.500000</speed>
</trkpt>
<trkpt lat="32.597129822" lon="35.005210876">
  <ele>83.061157</ele>
  <time>2011-07-29T06:50:14Z</time>
  <speed>1.150000</speed>
</trkpt>
<trkpt lat="32.597114563" lon="35.005176544">
  <ele>83.531860</ele>
  <time>2011-07-29T06:50:17Z</time>
  <speed>1.280000</speed>
</trkpt>
<trkpt lat="32.597110748" lon="35.005138397">
  <ele>84.236938</ele>
  <time>2011-07-29T06:50:20Z</time>
  <speed>1.120000</speed>
</trkpt>
<trkpt lat="32.597106934" lon="35.005100250">
  <ele>85.635376</ele>
  <time>2011-07-29T06:50:23Z</time>
  <speed>1.140000</speed>
</trkpt>
<trkpt lat="32.597110748" lon="35.005062103">
  <ele>85.092407</ele>
  <time>2011-07-29T06:50:26Z</time>
  <speed>0.870000</speed>
</trkpt>
<trkpt lat="32.597118378" lon="35.005035400">
  <ele>85.805298</ele>
  <time>2011-07-29T06:50:29Z</time>
  <speed>1.050000</speed>
</trkpt>
<trkpt lat="32.597106934" lon="35.005004883">
  <ele>86.127563</ele>
  <time>2011-07-29T06:50:31Z</time>
  <speed>1.310000</speed>
</trkpt>
<trkpt lat="32.597114563" lon="35.004966736">
  <ele>86.117798</ele>
  <time>2011-07-29T06:50:34Z</time>
  <speed>1.020000</speed>
</trkpt>
<trkpt lat="32.597106934" lon="35.004932404">
  <ele>86.986938</ele>
  <time>2011-07-29T06:50:37Z</time>
  <speed>1.270000</speed>
</trkpt>
<trkpt lat="32.597106934" lon="35.004886627">
  <ele>87.934204</ele>
  <time>2011-07-29T06:50:41Z</time>
  <speed>1.410000</speed>
</trkpt>
<trkpt lat="32.597106934" lon="35.004852295">
  <ele>87.977173</ele>
  <time>2011-07-29T06:50:43Z</time>
  <speed>1.200000</speed>
</trkpt>
<trkpt lat="32.597095490" lon="35.004814148">
  <ele>88.897095</ele>
  <time>2011-07-29T06:50:46Z</time>
  <speed>1.350000</speed>
</trkpt>
<trkpt lat="32.597106934" lon="35.004776001">
  <ele>89.434204</ele>
  <time>2011-07-29T06:50:49Z</time>
  <speed>1.190000</speed>
</trkpt>
<trkpt lat="32.597110748" lon="35.004741669">
  <ele>90.410767</ele>
  <time>2011-07-29T06:50:52Z</time>
  <speed>0.690000</speed>
</trkpt>
<trkpt lat="32.597122192" lon="35.004703522">
  <ele>91.608032</ele>
  <time>2011-07-29T06:50:55Z</time>
  <speed>1.240000</speed>
</trkpt>
<trkpt lat="32.597137451" lon="35.004676819">
  <ele>91.211548</ele>
  <time>2011-07-29T06:50:58Z</time>
  <speed>1.050000</speed>
</trkpt>
<trkpt lat="32.597160339" lon="35.004646301">
  <ele>92.141235</ele>
  <time>2011-07-29T06:51:01Z</time>
  <speed>1.220000</speed>
</trkpt>
<trkpt lat="32.597156525" lon="35.004611969">
  <ele>92.223267</ele>
  <time>2011-07-29T06:51:03Z</time>
  <speed>1.240000</speed>
</trkpt>
<trkpt lat="32.597160339" lon="35.004573822">
  <ele>92.883423</ele>
  <time>2011-07-29T06:51:06Z</time>
  <speed>1.080000</speed>
</trkpt>
<trkpt lat="32.597152710" lon="35.004535675">
  <ele>93.272095</ele>
  <time>2011-07-29T06:51:09Z</time>
  <speed>1.280000</speed>
</trkpt>
<trkpt lat="32.597160339" lon="35.004508972">
  <ele>91.721313</ele>
  <time>2011-07-29T06:51:11Z</time>
  <speed>0.760000</speed>
</trkpt>
<trkpt lat="32.597148895" lon="35.004451752">
  <ele>92.047485</ele>
  <time>2011-07-29T06:51:15Z</time>
  <speed>0.980000</speed>
</trkpt>
<trkpt lat="32.597160339" lon="35.004417419">
  <ele>91.789673</ele>
  <time>2011-07-29T06:51:18Z</time>
  <speed>1.260000</speed>
</trkpt>
<trkpt lat="32.597171783" lon="35.004379272">
  <ele>91.545532</ele>
  <time>2011-07-29T06:51:21Z</time>
  <speed>1.040000</speed>
</trkpt>
<trkpt lat="32.597183228" lon="35.004333496">
  <ele>91.969360</ele>
  <time>2011-07-29T06:51:24Z</time>
  <speed>1.540000</speed>
</trkpt>
<trkpt lat="32.597202301" lon="35.004295349">
  <ele>91.645142</ele>
  <time>2011-07-29T06:51:27Z</time>
  <speed>1.530000</speed>
</trkpt>
<trkpt lat="32.597213745" lon="35.004261017">
  <ele>91.949829</ele>
  <time>2011-07-29T06:51:29Z</time>
  <speed>1.730000</speed>
</trkpt>
<trkpt lat="32.597217560" lon="35.004215240">
  <ele>92.137329</ele>
  <time>2011-07-29T06:51:31Z</time>
  <speed>1.510000</speed>
</trkpt>
<trkpt lat="32.597221375" lon="35.004177094">
  <ele>92.881470</ele>
  <time>2011-07-29T06:51:33Z</time>
  <speed>1.610000</speed>
</trkpt>
<trkpt lat="32.597209930" lon="35.004138947">
  <ele>92.068970</ele>
  <time>2011-07-29T06:51:36Z</time>
  <speed>1.380000</speed>
</trkpt>
<trkpt lat="32.597209930" lon="35.004108429">
  <ele>90.891235</ele>
  <time>2011-07-29T06:51:38Z</time>
  <speed>1.510000</speed>
</trkpt>
<trkpt lat="32.597213745" lon="35.004070282">
  <ele>90.984985</ele>
  <time>2011-07-29T06:51:40Z</time>
  <speed>1.790000</speed>
</trkpt>
<trkpt lat="32.597225189" lon="35.004039764">
  <ele>91.002563</ele>
  <time>2011-07-29T06:51:42Z</time>
  <speed>1.660000</speed>
</trkpt>
<trkpt lat="32.597240448" lon="35.004005432">
  <ele>91.221313</ele>
  <time>2011-07-29T06:51:44Z</time>
  <speed>1.600000</speed>
</trkpt>
<trkpt lat="32.597248077" lon="35.003974915">
  <ele>90.328735</ele>
  <time>2011-07-29T06:51:46Z</time>
  <speed>0.860000</speed>
</trkpt>
<trkpt lat="32.597240448" lon="35.003940582">
  <ele>90.797485</ele>
  <time>2011-07-29T06:51:49Z</time>
  <speed>0.250000</speed>
</trkpt>
<trkpt lat="32.597229004" lon="35.003913879">
  <ele>92.799438</ele>
  <time>2011-07-29T06:51:53Z</time>
  <speed>0.230000</speed>
</trkpt>
<trkpt lat="32.597202301" lon="35.003917694">
  <ele>94.076782</ele>
  <time>2011-07-29T06:51:54Z</time>
  <speed>0.030000</speed>
</trkpt>
<trkpt lat="32.597202301" lon="35.003917694">
  <ele>94.035767</ele>
  <time>2011-07-29T06:51:58Z</time>
  <speed>0.010000</speed>
</trkpt>
</trkseg>
</trk>
</gpx>
